<?xml version="1.0" encoding="UTF-8" standalone="no" ?>
<gpx xmlns="http://www.topografix.com/GPX/1/1" xmlns:xsi="http://www.w3.org/2001/XMLSchema-instance" xsi:schemaLocation="http://www.topografix.com/GPX/1/1 http://www.topografix.com/GPX/1/1/gpx.xsd" version="1.1" creator="VisuGPX - https://www.visugpx.com">
  <metadata>
    <name>La Route des Mulets ®</name>
    <desc><![CDATA[Grand Itinéraire EquiLiberté du Poitou/Chatente à l'Italie]]></desc>
  </metadata>
  <trk>
    <name><![CDATA[depart-split-split]]></name>
    <extensions>
      <line xmlns="http://www.topografix.com/GPX/gpx_style/0/2">
        <color>ff0000</color>
        <opacity>0.6</opacity>
        <width>10.0</width>
      </line>
    </extensions>
    <trkseg>
      <trkpt lat="45.66363" lon="3.23139">
        <ele>395</ele>
        <time>2017-09-24T12:26:03Z</time>
      </trkpt>
      <trkpt lat="45.66354" lon="3.23134">
        <ele>396</ele>
        <time>2017-09-24T12:26:07Z</time>
      </trkpt>
      <trkpt lat="45.66352" lon="3.23135">
        <ele>396</ele>
        <time>2017-09-24T12:26:11Z</time>
      </trkpt>
      <trkpt lat="45.66352" lon="3.23134">
        <ele>396</ele>
        <time>2017-09-24T12:26:17Z</time>
      </trkpt>
      <trkpt lat="45.66352" lon="3.23134">
        <ele>396</ele>
        <time>2017-09-24T12:26:23Z</time>
      </trkpt>
      <trkpt lat="45.6635" lon="3.23141">
        <ele>396</ele>
        <time>2017-09-24T12:26:27Z</time>
      </trkpt>
      <trkpt lat="45.66347" lon="3.23148">
        <ele>396</ele>
        <time>2017-09-24T12:26:30Z</time>
      </trkpt>
      <trkpt lat="45.6634" lon="3.2315">
        <ele>397</ele>
        <time>2017-09-24T12:26:36Z</time>
      </trkpt>
      <trkpt lat="45.66334" lon="3.23151">
        <ele>397</ele>
        <time>2017-09-24T12:26:41Z</time>
      </trkpt>
      <trkpt lat="45.66332" lon="3.23161">
        <ele>398</ele>
        <time>2017-09-24T12:26:46Z</time>
      </trkpt>
      <trkpt lat="45.66335" lon="3.23176">
        <ele>399</ele>
        <time>2017-09-24T12:26:53Z</time>
      </trkpt>
      <trkpt lat="45.66336" lon="3.2319">
        <ele>401</ele>
        <time>2017-09-24T12:27:00Z</time>
      </trkpt>
      <trkpt lat="45.66339" lon="3.23211">
        <ele>404</ele>
        <time>2017-09-24T12:27:10Z</time>
      </trkpt>
      <trkpt lat="45.66339" lon="3.23225">
        <ele>405</ele>
        <time>2017-09-24T12:27:17Z</time>
      </trkpt>
      <trkpt lat="45.66335" lon="3.23242">
        <ele>407</ele>
        <time>2017-09-24T12:27:27Z</time>
      </trkpt>
      <trkpt lat="45.66327" lon="3.23253">
        <ele>407</ele>
        <time>2017-09-24T12:27:36Z</time>
      </trkpt>
      <trkpt lat="45.66315" lon="3.23268">
        <ele>409</ele>
        <time>2017-09-24T12:27:48Z</time>
      </trkpt>
      <trkpt lat="45.66307" lon="3.23279">
        <ele>410</ele>
        <time>2017-09-24T12:27:57Z</time>
      </trkpt>
      <trkpt lat="45.66302" lon="3.23287">
        <ele>411</ele>
        <time>2017-09-24T12:28:03Z</time>
      </trkpt>
      <trkpt lat="45.663" lon="3.23292">
        <ele>412</ele>
        <time>2017-09-24T12:28:07Z</time>
      </trkpt>
      <trkpt lat="45.66292" lon="3.23308">
        <ele>415</ele>
        <time>2017-09-24T12:28:18Z</time>
      </trkpt>
      <trkpt lat="45.66288" lon="3.23318">
        <ele>417</ele>
        <time>2017-09-24T12:28:24Z</time>
      </trkpt>
      <trkpt lat="45.66284" lon="3.23333">
        <ele>419</ele>
        <time>2017-09-24T12:28:32Z</time>
      </trkpt>
      <trkpt lat="45.66281" lon="3.23352">
        <ele>420</ele>
        <time>2017-09-24T12:28:43Z</time>
      </trkpt>
      <trkpt lat="45.66278" lon="3.23367">
        <ele>421</ele>
        <time>2017-09-24T12:28:52Z</time>
      </trkpt>
      <trkpt lat="45.66273" lon="3.23379">
        <ele>422</ele>
        <time>2017-09-24T12:28:59Z</time>
      </trkpt>
      <trkpt lat="45.66268" lon="3.23393">
        <ele>423</ele>
        <time>2017-09-24T12:29:07Z</time>
      </trkpt>
      <trkpt lat="45.66263" lon="3.23407">
        <ele>423</ele>
        <time>2017-09-24T12:29:15Z</time>
      </trkpt>
      <trkpt lat="45.66257" lon="3.23419">
        <ele>423</ele>
        <time>2017-09-24T12:29:23Z</time>
      </trkpt>
      <trkpt lat="45.66251" lon="3.23427">
        <ele>423</ele>
        <time>2017-09-24T12:29:30Z</time>
      </trkpt>
      <trkpt lat="45.66245" lon="3.23437">
        <ele>424</ele>
        <time>2017-09-24T12:29:37Z</time>
      </trkpt>
      <trkpt lat="45.66236" lon="3.23454">
        <ele>425</ele>
        <time>2017-09-24T12:29:46Z</time>
      </trkpt>
      <trkpt lat="45.66227" lon="3.2347">
        <ele>426</ele>
        <time>2017-09-24T12:29:56Z</time>
      </trkpt>
      <trkpt lat="45.6622" lon="3.23485">
        <ele>426</ele>
        <time>2017-09-24T12:30:04Z</time>
      </trkpt>
      <trkpt lat="45.66212" lon="3.23508">
        <ele>428</ele>
        <time>2017-09-24T12:30:16Z</time>
      </trkpt>
      <trkpt lat="45.66207" lon="3.23529">
        <ele>430</ele>
        <time>2017-09-24T12:30:26Z</time>
      </trkpt>
      <trkpt lat="45.66203" lon="3.23551">
        <ele>432</ele>
        <time>2017-09-24T12:30:37Z</time>
      </trkpt>
      <trkpt lat="45.662" lon="3.23573">
        <ele>434</ele>
        <time>2017-09-24T12:30:48Z</time>
      </trkpt>
      <trkpt lat="45.66199" lon="3.23591">
        <ele>435</ele>
        <time>2017-09-24T12:30:57Z</time>
      </trkpt>
      <trkpt lat="45.66197" lon="3.23613">
        <ele>436</ele>
        <time>2017-09-24T12:31:08Z</time>
      </trkpt>
      <trkpt lat="45.66196" lon="3.23635">
        <ele>437</ele>
        <time>2017-09-24T12:31:19Z</time>
      </trkpt>
      <trkpt lat="45.66194" lon="3.23654">
        <ele>437</ele>
        <time>2017-09-24T12:31:28Z</time>
      </trkpt>
      <trkpt lat="45.66193" lon="3.23664">
        <ele>438</ele>
        <time>2017-09-24T12:31:33Z</time>
      </trkpt>
      <trkpt lat="45.66195" lon="3.23683">
        <ele>439</ele>
        <time>2017-09-24T12:31:42Z</time>
      </trkpt>
      <trkpt lat="45.66196" lon="3.23697">
        <ele>440</ele>
        <time>2017-09-24T12:31:49Z</time>
      </trkpt>
      <trkpt lat="45.66199" lon="3.2372">
        <ele>442</ele>
        <time>2017-09-24T12:32:00Z</time>
      </trkpt>
      <trkpt lat="45.66202" lon="3.23745">
        <ele>444</ele>
        <time>2017-09-24T12:32:12Z</time>
      </trkpt>
      <trkpt lat="45.66205" lon="3.23771">
        <ele>446</ele>
        <time>2017-09-24T12:32:25Z</time>
      </trkpt>
      <trkpt lat="45.66208" lon="3.23789">
        <ele>447</ele>
        <time>2017-09-24T12:32:35Z</time>
      </trkpt>
      <trkpt lat="45.66209" lon="3.23806">
        <ele>448</ele>
        <time>2017-09-24T12:32:43Z</time>
      </trkpt>
      <trkpt lat="45.66208" lon="3.23827">
        <ele>449</ele>
        <time>2017-09-24T12:32:53Z</time>
      </trkpt>
      <trkpt lat="45.66207" lon="3.23846">
        <ele>451</ele>
        <time>2017-09-24T12:33:02Z</time>
      </trkpt>
      <trkpt lat="45.66205" lon="3.23867">
        <ele>451</ele>
        <time>2017-09-24T12:33:12Z</time>
      </trkpt>
      <trkpt lat="45.66202" lon="3.2389">
        <ele>452</ele>
        <time>2017-09-24T12:33:23Z</time>
      </trkpt>
      <trkpt lat="45.66201" lon="3.23911">
        <ele>453</ele>
        <time>2017-09-24T12:33:33Z</time>
      </trkpt>
      <trkpt lat="45.66202" lon="3.23926">
        <ele>454</ele>
        <time>2017-09-24T12:33:40Z</time>
      </trkpt>
      <trkpt lat="45.66202" lon="3.23942">
        <ele>454</ele>
        <time>2017-09-24T12:33:48Z</time>
      </trkpt>
      <trkpt lat="45.66203" lon="3.23956">
        <ele>455</ele>
        <time>2017-09-24T12:33:55Z</time>
      </trkpt>
      <trkpt lat="45.66203" lon="3.23958">
        <ele>455</ele>
        <time>2017-09-24T12:33:56Z</time>
      </trkpt>
      <trkpt lat="45.66204" lon="3.23983">
        <ele>455</ele>
        <time>2017-09-24T12:34:08Z</time>
      </trkpt>
      <trkpt lat="45.66205" lon="3.24003">
        <ele>456</ele>
        <time>2017-09-24T12:34:18Z</time>
      </trkpt>
      <trkpt lat="45.66205" lon="3.24027">
        <ele>456</ele>
        <time>2017-09-24T12:34:30Z</time>
      </trkpt>
      <trkpt lat="45.66206" lon="3.24052">
        <ele>457</ele>
        <time>2017-09-24T12:34:42Z</time>
      </trkpt>
      <trkpt lat="45.66207" lon="3.24072">
        <ele>458</ele>
        <time>2017-09-24T12:34:52Z</time>
      </trkpt>
      <trkpt lat="45.66207" lon="3.24087">
        <ele>458</ele>
        <time>2017-09-24T12:34:59Z</time>
      </trkpt>
      <trkpt lat="45.66207" lon="3.24108">
        <ele>459</ele>
        <time>2017-09-24T12:35:10Z</time>
      </trkpt>
      <trkpt lat="45.66207" lon="3.24121">
        <ele>460</ele>
        <time>2017-09-24T12:35:17Z</time>
      </trkpt>
      <trkpt lat="45.6621" lon="3.24135">
        <ele>461</ele>
        <time>2017-09-24T12:35:25Z</time>
      </trkpt>
      <trkpt lat="45.66215" lon="3.24154">
        <ele>462</ele>
        <time>2017-09-24T12:35:36Z</time>
      </trkpt>
      <trkpt lat="45.66215" lon="3.24156">
        <ele>462</ele>
        <time>2017-09-24T12:35:37Z</time>
      </trkpt>
      <trkpt lat="45.66219" lon="3.2417">
        <ele>463</ele>
        <time>2017-09-24T12:35:45Z</time>
      </trkpt>
      <trkpt lat="45.66223" lon="3.24188">
        <ele>464</ele>
        <time>2017-09-24T12:35:54Z</time>
      </trkpt>
      <trkpt lat="45.66226" lon="3.24203">
        <ele>465</ele>
        <time>2017-09-24T12:36:02Z</time>
      </trkpt>
      <trkpt lat="45.66235" lon="3.24239">
        <ele>466</ele>
        <time>2017-09-24T12:36:20Z</time>
      </trkpt>
      <trkpt lat="45.6624" lon="3.24264">
        <ele>468</ele>
        <time>2017-09-24T12:36:32Z</time>
      </trkpt>
      <trkpt lat="45.66242" lon="3.24272">
        <ele>468</ele>
        <time>2017-09-24T12:36:36Z</time>
      </trkpt>
      <trkpt lat="45.66244" lon="3.24279">
        <ele>468</ele>
        <time>2017-09-24T12:36:40Z</time>
      </trkpt>
      <trkpt lat="45.66249" lon="3.24302">
        <ele>469</ele>
        <time>2017-09-24T12:36:51Z</time>
      </trkpt>
      <trkpt lat="45.66254" lon="3.24322">
        <ele>469</ele>
        <time>2017-09-24T12:37:01Z</time>
      </trkpt>
      <trkpt lat="45.66266" lon="3.24365">
        <ele>470</ele>
        <time>2017-09-24T12:37:23Z</time>
      </trkpt>
      <trkpt lat="45.66273" lon="3.2439">
        <ele>471</ele>
        <time>2017-09-24T12:37:36Z</time>
      </trkpt>
      <trkpt lat="45.66278" lon="3.24413">
        <ele>472</ele>
        <time>2017-09-24T12:37:47Z</time>
      </trkpt>
      <trkpt lat="45.66279" lon="3.24436">
        <ele>472</ele>
        <time>2017-09-24T12:37:58Z</time>
      </trkpt>
      <trkpt lat="45.6628" lon="3.24452">
        <ele>471</ele>
        <time>2017-09-24T12:38:06Z</time>
      </trkpt>
      <trkpt lat="45.66284" lon="3.24513">
        <ele>470</ele>
        <time>2017-09-24T12:38:34Z</time>
      </trkpt>
      <trkpt lat="45.66287" lon="3.2453">
        <ele>470</ele>
        <time>2017-09-24T12:38:42Z</time>
      </trkpt>
      <trkpt lat="45.66288" lon="3.24557">
        <ele>470</ele>
        <time>2017-09-24T12:38:54Z</time>
      </trkpt>
      <trkpt lat="45.66289" lon="3.24582">
        <ele>470</ele>
        <time>2017-09-24T12:39:05Z</time>
      </trkpt>
      <trkpt lat="45.66289" lon="3.24589">
        <ele>470</ele>
        <time>2017-09-24T12:39:08Z</time>
      </trkpt>
      <trkpt lat="45.66287" lon="3.24606">
        <ele>470</ele>
        <time>2017-09-24T12:39:17Z</time>
      </trkpt>
      <trkpt lat="45.66282" lon="3.24625">
        <ele>469</ele>
        <time>2017-09-24T12:39:26Z</time>
      </trkpt>
      <trkpt lat="45.66273" lon="3.24657">
        <ele>469</ele>
        <time>2017-09-24T12:39:42Z</time>
      </trkpt>
      <trkpt lat="45.66266" lon="3.24678">
        <ele>469</ele>
        <time>2017-09-24T12:39:52Z</time>
      </trkpt>
      <trkpt lat="45.66261" lon="3.24699">
        <ele>469</ele>
        <time>2017-09-24T12:40:02Z</time>
      </trkpt>
      <trkpt lat="45.66253" lon="3.24724">
        <ele>469</ele>
        <time>2017-09-24T12:40:14Z</time>
      </trkpt>
      <trkpt lat="45.6625" lon="3.24734">
        <ele>469</ele>
        <time>2017-09-24T12:40:21Z</time>
      </trkpt>
      <trkpt lat="45.66249" lon="3.2474">
        <ele>469</ele>
        <time>2017-09-24T12:40:32Z</time>
      </trkpt>
      <trkpt lat="45.66243" lon="3.24764">
        <ele>468</ele>
        <time>2017-09-24T12:40:43Z</time>
      </trkpt>
      <trkpt lat="45.66237" lon="3.24787">
        <ele>467</ele>
        <time>2017-09-24T12:40:54Z</time>
      </trkpt>
      <trkpt lat="45.66231" lon="3.24813">
        <ele>468</ele>
        <time>2017-09-24T12:41:07Z</time>
      </trkpt>
      <trkpt lat="45.66225" lon="3.24835">
        <ele>468</ele>
        <time>2017-09-24T12:41:18Z</time>
      </trkpt>
      <trkpt lat="45.6622" lon="3.2485">
        <ele>468</ele>
        <time>2017-09-24T12:41:26Z</time>
      </trkpt>
      <trkpt lat="45.66218" lon="3.24867">
        <ele>467</ele>
        <time>2017-09-24T12:41:34Z</time>
      </trkpt>
      <trkpt lat="45.66216" lon="3.24882">
        <ele>467</ele>
        <time>2017-09-24T12:41:41Z</time>
      </trkpt>
      <trkpt lat="45.66216" lon="3.249">
        <ele>467</ele>
        <time>2017-09-24T12:41:49Z</time>
      </trkpt>
      <trkpt lat="45.66219" lon="3.24917">
        <ele>468</ele>
        <time>2017-09-24T12:41:57Z</time>
      </trkpt>
      <trkpt lat="45.66224" lon="3.24935">
        <ele>467</ele>
        <time>2017-09-24T12:42:06Z</time>
      </trkpt>
      <trkpt lat="45.66233" lon="3.24959">
        <ele>466</ele>
        <time>2017-09-24T12:42:18Z</time>
      </trkpt>
      <trkpt lat="45.66241" lon="3.24976">
        <ele>465</ele>
        <time>2017-09-24T12:42:27Z</time>
      </trkpt>
      <trkpt lat="45.66249" lon="3.24992">
        <ele>464</ele>
        <time>2017-09-24T12:42:36Z</time>
      </trkpt>
      <trkpt lat="45.66257" lon="3.25007">
        <ele>463</ele>
        <time>2017-09-24T12:42:45Z</time>
      </trkpt>
      <trkpt lat="45.66265" lon="3.25021">
        <ele>463</ele>
        <time>2017-09-24T12:42:53Z</time>
      </trkpt>
      <trkpt lat="45.66273" lon="3.25033">
        <ele>462</ele>
        <time>2017-09-24T12:43:00Z</time>
      </trkpt>
      <trkpt lat="45.66282" lon="3.25048">
        <ele>461</ele>
        <time>2017-09-24T12:43:08Z</time>
      </trkpt>
      <trkpt lat="45.6629" lon="3.25062">
        <ele>460</ele>
        <time>2017-09-24T12:43:16Z</time>
      </trkpt>
      <trkpt lat="45.66297" lon="3.25074">
        <ele>460</ele>
        <time>2017-09-24T12:43:23Z</time>
      </trkpt>
      <trkpt lat="45.66306" lon="3.25087">
        <ele>459</ele>
        <time>2017-09-24T12:43:31Z</time>
      </trkpt>
      <trkpt lat="45.66309" lon="3.25092">
        <ele>458</ele>
        <time>2017-09-24T12:43:37Z</time>
      </trkpt>
      <trkpt lat="45.66313" lon="3.25096">
        <ele>458</ele>
        <time>2017-09-24T12:43:43Z</time>
      </trkpt>
      <trkpt lat="45.66319" lon="3.25106">
        <ele>457</ele>
        <time>2017-09-24T12:43:49Z</time>
      </trkpt>
      <trkpt lat="45.66328" lon="3.25118">
        <ele>457</ele>
        <time>2017-09-24T12:43:57Z</time>
      </trkpt>
      <trkpt lat="45.66337" lon="3.25127">
        <ele>456</ele>
        <time>2017-09-24T12:44:04Z</time>
      </trkpt>
      <trkpt lat="45.66334" lon="3.25132">
        <ele>456</ele>
        <time>2017-09-24T12:44:08Z</time>
      </trkpt>
      <trkpt lat="45.66333" lon="3.25132">
        <ele>455</ele>
        <time>2017-09-24T12:44:10Z</time>
      </trkpt>
      <trkpt lat="45.66327" lon="3.25131">
        <ele>455</ele>
        <time>2017-09-24T12:44:13Z</time>
      </trkpt>
      <trkpt lat="45.66313" lon="3.25126">
        <ele>454</ele>
        <time>2017-09-24T12:44:23Z</time>
      </trkpt>
      <trkpt lat="45.66306" lon="3.25131">
        <ele>453</ele>
        <time>2017-09-24T12:44:29Z</time>
      </trkpt>
      <trkpt lat="45.66301" lon="3.25128">
        <ele>453</ele>
        <time>2017-09-24T12:44:35Z</time>
      </trkpt>
      <trkpt lat="45.66299" lon="3.25128">
        <ele>452</ele>
        <time>2017-09-24T12:44:36Z</time>
      </trkpt>
      <trkpt lat="45.66293" lon="3.25129">
        <ele>452</ele>
        <time>2017-09-24T12:44:41Z</time>
      </trkpt>
      <trkpt lat="45.66291" lon="3.25135">
        <ele>451</ele>
        <time>2017-09-24T12:44:46Z</time>
      </trkpt>
      <trkpt lat="45.66292" lon="3.25138">
        <ele>450</ele>
        <time>2017-09-24T12:44:48Z</time>
      </trkpt>
      <trkpt lat="45.663" lon="3.25149">
        <ele>450</ele>
        <time>2017-09-24T12:44:55Z</time>
      </trkpt>
      <trkpt lat="45.66304" lon="3.25162">
        <ele>448</ele>
        <time>2017-09-24T12:45:02Z</time>
      </trkpt>
      <trkpt lat="45.663" lon="3.25196">
        <ele>444</ele>
        <time>2017-09-24T12:45:20Z</time>
      </trkpt>
      <trkpt lat="45.66304" lon="3.25221">
        <ele>443</ele>
        <time>2017-09-24T12:45:32Z</time>
      </trkpt>
      <trkpt lat="45.66305" lon="3.25239">
        <ele>442</ele>
        <time>2017-09-24T12:45:40Z</time>
      </trkpt>
      <trkpt lat="45.66306" lon="3.25251">
        <ele>441</ele>
        <time>2017-09-24T12:45:46Z</time>
      </trkpt>
      <trkpt lat="45.66311" lon="3.25268">
        <ele>440</ele>
        <time>2017-09-24T12:45:54Z</time>
      </trkpt>
      <trkpt lat="45.66315" lon="3.2528">
        <ele>440</ele>
        <time>2017-09-24T12:46:00Z</time>
      </trkpt>
      <trkpt lat="45.66313" lon="3.25294">
        <ele>440</ele>
        <time>2017-09-24T12:46:07Z</time>
      </trkpt>
      <trkpt lat="45.66308" lon="3.25304">
        <ele>439</ele>
        <time>2017-09-24T12:46:13Z</time>
      </trkpt>
      <trkpt lat="45.66298" lon="3.2532">
        <ele>439</ele>
        <time>2017-09-24T12:46:22Z</time>
      </trkpt>
      <trkpt lat="45.66289" lon="3.25333">
        <ele>438</ele>
        <time>2017-09-24T12:46:30Z</time>
      </trkpt>
      <trkpt lat="45.66282" lon="3.25346">
        <ele>439</ele>
        <time>2017-09-24T12:46:38Z</time>
      </trkpt>
      <trkpt lat="45.66276" lon="3.25354">
        <ele>439</ele>
        <time>2017-09-24T12:46:44Z</time>
      </trkpt>
      <trkpt lat="45.66271" lon="3.25359">
        <ele>439</ele>
        <time>2017-09-24T12:46:48Z</time>
      </trkpt>
      <trkpt lat="45.66269" lon="3.2536">
        <ele>439</ele>
        <time>2017-09-24T12:46:49Z</time>
      </trkpt>
      <trkpt lat="45.66264" lon="3.25367">
        <ele>439</ele>
        <time>2017-09-24T12:46:54Z</time>
      </trkpt>
      <trkpt lat="45.66256" lon="3.25378">
        <ele>439</ele>
        <time>2017-09-24T12:47:01Z</time>
      </trkpt>
      <trkpt lat="45.66248" lon="3.25389">
        <ele>440</ele>
        <time>2017-09-24T12:47:09Z</time>
      </trkpt>
      <trkpt lat="45.66226" lon="3.25421">
        <ele>444</ele>
        <time>2017-09-24T12:47:32Z</time>
      </trkpt>
      <trkpt lat="45.6623" lon="3.25434">
        <ele>445</ele>
        <time>2017-09-24T12:47:40Z</time>
      </trkpt>
      <trkpt lat="45.66235" lon="3.25443">
        <ele>445</ele>
        <time>2017-09-24T12:47:46Z</time>
      </trkpt>
      <trkpt lat="45.66239" lon="3.2545">
        <ele>445</ele>
        <time>2017-09-24T12:47:51Z</time>
      </trkpt>
      <trkpt lat="45.66241" lon="3.25456">
        <ele>446</ele>
        <time>2017-09-24T12:47:56Z</time>
      </trkpt>
      <trkpt lat="45.66245" lon="3.25465">
        <ele>447</ele>
        <time>2017-09-24T12:48:02Z</time>
      </trkpt>
      <trkpt lat="45.66251" lon="3.25476">
        <ele>447</ele>
        <time>2017-09-24T12:48:09Z</time>
      </trkpt>
      <trkpt lat="45.66257" lon="3.25486">
        <ele>447</ele>
        <time>2017-09-24T12:48:16Z</time>
      </trkpt>
      <trkpt lat="45.66269" lon="3.25504">
        <ele>448</ele>
        <time>2017-09-24T12:48:28Z</time>
      </trkpt>
      <trkpt lat="45.66277" lon="3.25516">
        <ele>449</ele>
        <time>2017-09-24T12:48:36Z</time>
      </trkpt>
      <trkpt lat="45.66285" lon="3.25527">
        <ele>449</ele>
        <time>2017-09-24T12:48:43Z</time>
      </trkpt>
      <trkpt lat="45.66286" lon="3.25528">
        <ele>450</ele>
        <time>2017-09-24T12:48:44Z</time>
      </trkpt>
      <trkpt lat="45.66292" lon="3.25536">
        <ele>450</ele>
        <time>2017-09-24T12:48:49Z</time>
      </trkpt>
      <trkpt lat="45.66296" lon="3.2554">
        <ele>450</ele>
        <time>2017-09-24T12:48:52Z</time>
      </trkpt>
      <trkpt lat="45.663" lon="3.25546">
        <ele>451</ele>
        <time>2017-09-24T12:48:56Z</time>
      </trkpt>
      <trkpt lat="45.66309" lon="3.25559">
        <ele>452</ele>
        <time>2017-09-24T12:49:04Z</time>
      </trkpt>
      <trkpt lat="45.66322" lon="3.25583">
        <ele>454</ele>
        <time>2017-09-24T12:49:18Z</time>
      </trkpt>
      <trkpt lat="45.66332" lon="3.25601">
        <ele>456</ele>
        <time>2017-09-24T12:49:29Z</time>
      </trkpt>
      <trkpt lat="45.66339" lon="3.2562">
        <ele>458</ele>
        <time>2017-09-24T12:49:38Z</time>
      </trkpt>
      <trkpt lat="45.66339" lon="3.25625">
        <ele>458</ele>
        <time>2017-09-24T12:49:40Z</time>
      </trkpt>
      <trkpt lat="45.66338" lon="3.25636">
        <ele>459</ele>
        <time>2017-09-24T12:49:45Z</time>
      </trkpt>
      <trkpt lat="45.6634" lon="3.25657">
        <ele>461</ele>
        <time>2017-09-24T12:49:54Z</time>
      </trkpt>
      <trkpt lat="45.66342" lon="3.2568">
        <ele>462</ele>
        <time>2017-09-24T12:50:04Z</time>
      </trkpt>
      <trkpt lat="45.66344" lon="3.25693">
        <ele>463</ele>
        <time>2017-09-24T12:50:10Z</time>
      </trkpt>
      <trkpt lat="45.66347" lon="3.25718">
        <ele>465</ele>
        <time>2017-09-24T12:50:21Z</time>
      </trkpt>
      <trkpt lat="45.66349" lon="3.25743">
        <ele>467</ele>
        <time>2017-09-24T12:50:32Z</time>
      </trkpt>
      <trkpt lat="45.66348" lon="3.25761">
        <ele>468</ele>
        <time>2017-09-24T12:50:40Z</time>
      </trkpt>
      <trkpt lat="45.66345" lon="3.25773">
        <ele>469</ele>
        <time>2017-09-24T12:50:46Z</time>
      </trkpt>
      <trkpt lat="45.66343" lon="3.25798">
        <ele>470</ele>
        <time>2017-09-24T12:50:58Z</time>
      </trkpt>
      <trkpt lat="45.66342" lon="3.25813">
        <ele>471</ele>
        <time>2017-09-24T12:51:05Z</time>
      </trkpt>
      <trkpt lat="45.6634" lon="3.25834">
        <ele>473</ele>
        <time>2017-09-24T12:51:15Z</time>
      </trkpt>
      <trkpt lat="45.66337" lon="3.25851">
        <ele>474</ele>
        <time>2017-09-24T12:51:23Z</time>
      </trkpt>
      <trkpt lat="45.66334" lon="3.25872">
        <ele>475</ele>
        <time>2017-09-24T12:51:33Z</time>
      </trkpt>
      <trkpt lat="45.66332" lon="3.25891">
        <ele>475</ele>
        <time>2017-09-24T12:51:42Z</time>
      </trkpt>
      <trkpt lat="45.66331" lon="3.25911">
        <ele>476</ele>
        <time>2017-09-24T12:51:51Z</time>
      </trkpt>
      <trkpt lat="45.66329" lon="3.2593">
        <ele>477</ele>
        <time>2017-09-24T12:52:00Z</time>
      </trkpt>
      <trkpt lat="45.66329" lon="3.25947">
        <ele>477</ele>
        <time>2017-09-24T12:52:08Z</time>
      </trkpt>
      <trkpt lat="45.66333" lon="3.25978">
        <ele>477</ele>
        <time>2017-09-24T12:52:23Z</time>
      </trkpt>
      <trkpt lat="45.66332" lon="3.25997">
        <ele>478</ele>
        <time>2017-09-24T12:52:32Z</time>
      </trkpt>
      <trkpt lat="45.66331" lon="3.26013">
        <ele>479</ele>
        <time>2017-09-24T12:52:40Z</time>
      </trkpt>
      <trkpt lat="45.66327" lon="3.26033">
        <ele>480</ele>
        <time>2017-09-24T12:52:50Z</time>
      </trkpt>
      <trkpt lat="45.66325" lon="3.26044">
        <ele>481</ele>
        <time>2017-09-24T12:52:56Z</time>
      </trkpt>
      <trkpt lat="45.66321" lon="3.2606">
        <ele>482</ele>
        <time>2017-09-24T12:53:04Z</time>
      </trkpt>
      <trkpt lat="45.66315" lon="3.26081">
        <ele>483</ele>
        <time>2017-09-24T12:53:15Z</time>
      </trkpt>
      <trkpt lat="45.66308" lon="3.26101">
        <ele>484</ele>
        <time>2017-09-24T12:53:26Z</time>
      </trkpt>
      <trkpt lat="45.66298" lon="3.2612">
        <ele>486</ele>
        <time>2017-09-24T12:53:38Z</time>
      </trkpt>
      <trkpt lat="45.66287" lon="3.26137">
        <ele>488</ele>
        <time>2017-09-24T12:53:49Z</time>
      </trkpt>
      <trkpt lat="45.66279" lon="3.26155">
        <ele>489</ele>
        <time>2017-09-24T12:53:59Z</time>
      </trkpt>
      <trkpt lat="45.66271" lon="3.26168">
        <ele>490</ele>
        <time>2017-09-24T12:54:07Z</time>
      </trkpt>
      <trkpt lat="45.66262" lon="3.26187">
        <ele>491</ele>
        <time>2017-09-24T12:54:17Z</time>
      </trkpt>
      <trkpt lat="45.66257" lon="3.26196">
        <ele>491</ele>
        <time>2017-09-24T12:54:22Z</time>
      </trkpt>
      <trkpt lat="45.66252" lon="3.2621">
        <ele>491</ele>
        <time>2017-09-24T12:54:30Z</time>
      </trkpt>
      <trkpt lat="45.66245" lon="3.26227">
        <ele>492</ele>
        <time>2017-09-24T12:54:39Z</time>
      </trkpt>
      <trkpt lat="45.66237" lon="3.26249">
        <ele>493</ele>
        <time>2017-09-24T12:54:51Z</time>
      </trkpt>
      <trkpt lat="45.66232" lon="3.26265">
        <ele>494</ele>
        <time>2017-09-24T12:54:59Z</time>
      </trkpt>
      <trkpt lat="45.66227" lon="3.26279">
        <ele>494</ele>
        <time>2017-09-24T12:55:06Z</time>
      </trkpt>
      <trkpt lat="45.66214" lon="3.26319">
        <ele>494</ele>
        <time>2017-09-24T12:55:25Z</time>
      </trkpt>
      <trkpt lat="45.66205" lon="3.26343">
        <ele>494</ele>
        <time>2017-09-24T12:55:37Z</time>
      </trkpt>
      <trkpt lat="45.662" lon="3.26359">
        <ele>495</ele>
        <time>2017-09-24T12:55:45Z</time>
      </trkpt>
      <trkpt lat="45.66193" lon="3.2638">
        <ele>496</ele>
        <time>2017-09-24T12:55:55Z</time>
      </trkpt>
      <trkpt lat="45.66187" lon="3.26395">
        <ele>496</ele>
        <time>2017-09-24T12:56:03Z</time>
      </trkpt>
      <trkpt lat="45.66182" lon="3.26407">
        <ele>497</ele>
        <time>2017-09-24T12:56:10Z</time>
      </trkpt>
      <trkpt lat="45.66181" lon="3.26411">
        <ele>497</ele>
        <time>2017-09-24T12:56:15Z</time>
      </trkpt>
      <trkpt lat="45.66176" lon="3.26424">
        <ele>497</ele>
        <time>2017-09-24T12:56:23Z</time>
      </trkpt>
      <trkpt lat="45.66167" lon="3.26447">
        <ele>499</ele>
        <time>2017-09-24T12:56:34Z</time>
      </trkpt>
      <trkpt lat="45.66158" lon="3.26471">
        <ele>500</ele>
        <time>2017-09-24T12:56:46Z</time>
      </trkpt>
      <trkpt lat="45.66149" lon="3.26494">
        <ele>502</ele>
        <time>2017-09-24T12:56:57Z</time>
      </trkpt>
      <trkpt lat="45.6614" lon="3.26518">
        <ele>504</ele>
        <time>2017-09-24T12:57:09Z</time>
      </trkpt>
      <trkpt lat="45.66136" lon="3.26529">
        <ele>505</ele>
        <time>2017-09-24T12:57:16Z</time>
      </trkpt>
      <trkpt lat="45.66129" lon="3.26549">
        <ele>507</ele>
        <time>2017-09-24T12:57:26Z</time>
      </trkpt>
      <trkpt lat="45.66124" lon="3.26565">
        <ele>508</ele>
        <time>2017-09-24T12:57:35Z</time>
      </trkpt>
      <trkpt lat="45.66119" lon="3.2658">
        <ele>509</ele>
        <time>2017-09-24T12:57:42Z</time>
      </trkpt>
      <trkpt lat="45.66112" lon="3.26604">
        <ele>511</ele>
        <time>2017-09-24T12:57:54Z</time>
      </trkpt>
      <trkpt lat="45.66107" lon="3.26621">
        <ele>512</ele>
        <time>2017-09-24T12:58:02Z</time>
      </trkpt>
      <trkpt lat="45.66101" lon="3.26639">
        <ele>514</ele>
        <time>2017-09-24T12:58:11Z</time>
      </trkpt>
      <trkpt lat="45.66091" lon="3.26675">
        <ele>517</ele>
        <time>2017-09-24T12:58:29Z</time>
      </trkpt>
      <trkpt lat="45.66084" lon="3.26695">
        <ele>519</ele>
        <time>2017-09-24T12:58:40Z</time>
      </trkpt>
      <trkpt lat="45.6608" lon="3.2671">
        <ele>520</ele>
        <time>2017-09-24T12:58:48Z</time>
      </trkpt>
      <trkpt lat="45.66079" lon="3.26722">
        <ele>521</ele>
        <time>2017-09-24T12:58:53Z</time>
      </trkpt>
      <trkpt lat="45.66073" lon="3.26739">
        <ele>523</ele>
        <time>2017-09-24T12:59:01Z</time>
      </trkpt>
      <trkpt lat="45.66068" lon="3.26753">
        <ele>524</ele>
        <time>2017-09-24T12:59:08Z</time>
      </trkpt>
      <trkpt lat="45.66062" lon="3.26772">
        <ele>526</ele>
        <time>2017-09-24T12:59:18Z</time>
      </trkpt>
      <trkpt lat="45.66052" lon="3.26814">
        <ele>531</ele>
        <time>2017-09-24T12:59:32Z</time>
      </trkpt>
      <trkpt lat="45.66049" lon="3.26829">
        <ele>533</ele>
        <time>2017-09-24T12:59:39Z</time>
      </trkpt>
      <trkpt lat="45.66049" lon="3.26835">
        <ele>533</ele>
        <time>2017-09-24T12:59:45Z</time>
      </trkpt>
      <trkpt lat="45.66051" lon="3.26837">
        <ele>533</ele>
        <time>2017-09-24T12:59:48Z</time>
      </trkpt>
      <trkpt lat="45.6605" lon="3.26838">
        <ele>534</ele>
        <time>2017-09-24T12:59:54Z</time>
      </trkpt>
      <trkpt lat="45.66048" lon="3.26841">
        <ele>534</ele>
        <time>2017-09-24T13:00:00Z</time>
      </trkpt>
      <trkpt lat="45.66044" lon="3.2685">
        <ele>535</ele>
        <time>2017-09-24T13:00:06Z</time>
      </trkpt>
      <trkpt lat="45.66043" lon="3.26852">
        <ele>535</ele>
        <time>2017-09-24T13:00:10Z</time>
      </trkpt>
      <trkpt lat="45.6604" lon="3.26862">
        <ele>535</ele>
        <time>2017-09-24T13:00:17Z</time>
      </trkpt>
      <trkpt lat="45.66038" lon="3.26868">
        <ele>536</ele>
        <time>2017-09-24T13:00:21Z</time>
      </trkpt>
      <trkpt lat="45.66031" lon="3.26885">
        <ele>537</ele>
        <time>2017-09-24T13:00:32Z</time>
      </trkpt>
      <trkpt lat="45.66028" lon="3.26892">
        <ele>538</ele>
        <time>2017-09-24T13:00:39Z</time>
      </trkpt>
      <trkpt lat="45.66024" lon="3.26902">
        <ele>538</ele>
        <time>2017-09-24T13:00:46Z</time>
      </trkpt>
      <trkpt lat="45.66021" lon="3.26914">
        <ele>539</ele>
        <time>2017-09-24T13:00:54Z</time>
      </trkpt>
      <trkpt lat="45.66016" lon="3.26925">
        <ele>540</ele>
        <time>2017-09-24T13:01:01Z</time>
      </trkpt>
      <trkpt lat="45.66012" lon="3.26939">
        <ele>541</ele>
        <time>2017-09-24T13:01:09Z</time>
      </trkpt>
      <trkpt lat="45.66008" lon="3.26953">
        <ele>542</ele>
        <time>2017-09-24T13:01:17Z</time>
      </trkpt>
      <trkpt lat="45.66005" lon="3.26962">
        <ele>543</ele>
        <time>2017-09-24T13:01:23Z</time>
      </trkpt>
      <trkpt lat="45.66005" lon="3.26963">
        <ele>543</ele>
        <time>2017-09-24T13:01:29Z</time>
      </trkpt>
      <trkpt lat="45.66005" lon="3.26966">
        <ele>543</ele>
        <time>2017-09-24T13:01:35Z</time>
      </trkpt>
      <trkpt lat="45.66003" lon="3.26974">
        <ele>543</ele>
        <time>2017-09-24T13:01:42Z</time>
      </trkpt>
      <trkpt lat="45.66002" lon="3.26983">
        <ele>544</ele>
        <time>2017-09-24T13:01:48Z</time>
      </trkpt>
      <trkpt lat="45.66" lon="3.26994">
        <ele>544</ele>
        <time>2017-09-24T13:01:54Z</time>
      </trkpt>
      <trkpt lat="45.66" lon="3.27001">
        <ele>544</ele>
        <time>2017-09-24T13:01:58Z</time>
      </trkpt>
      <trkpt lat="45.65998" lon="3.27013">
        <ele>544</ele>
        <time>2017-09-24T13:02:05Z</time>
      </trkpt>
      <trkpt lat="45.65995" lon="3.27025">
        <ele>545</ele>
        <time>2017-09-24T13:02:12Z</time>
      </trkpt>
      <trkpt lat="45.65994" lon="3.27036">
        <ele>546</ele>
        <time>2017-09-24T13:02:18Z</time>
      </trkpt>
      <trkpt lat="45.65991" lon="3.27048">
        <ele>546</ele>
        <time>2017-09-24T13:02:25Z</time>
      </trkpt>
      <trkpt lat="45.65991" lon="3.27054">
        <ele>546</ele>
        <time>2017-09-24T13:02:34Z</time>
      </trkpt>
      <trkpt lat="45.65988" lon="3.27071">
        <ele>547</ele>
        <time>2017-09-24T13:02:44Z</time>
      </trkpt>
      <trkpt lat="45.65985" lon="3.27087">
        <ele>547</ele>
        <time>2017-09-24T13:02:53Z</time>
      </trkpt>
      <trkpt lat="45.65983" lon="3.27106">
        <ele>548</ele>
        <time>2017-09-24T13:03:03Z</time>
      </trkpt>
      <trkpt lat="45.6598" lon="3.27123">
        <ele>548</ele>
        <time>2017-09-24T13:03:12Z</time>
      </trkpt>
      <trkpt lat="45.65978" lon="3.2713">
        <ele>549</ele>
        <time>2017-09-24T13:03:18Z</time>
      </trkpt>
      <trkpt lat="45.65977" lon="3.27131">
        <ele>549</ele>
        <time>2017-09-24T13:04:35Z</time>
      </trkpt>
      <trkpt lat="45.65978" lon="3.27129">
        <ele>549</ele>
        <time>2017-09-24T13:04:55Z</time>
      </trkpt>
      <trkpt lat="45.65976" lon="3.27132">
        <ele>548</ele>
        <time>2017-09-24T13:04:59Z</time>
      </trkpt>
      <trkpt lat="45.65975" lon="3.27142">
        <ele>549</ele>
        <time>2017-09-24T13:05:04Z</time>
      </trkpt>
      <trkpt lat="45.65973" lon="3.27161">
        <ele>550</ele>
        <time>2017-09-24T13:05:13Z</time>
      </trkpt>
      <trkpt lat="45.6597" lon="3.27201">
        <ele>552</ele>
        <time>2017-09-24T13:05:32Z</time>
      </trkpt>
      <trkpt lat="45.65966" lon="3.2722">
        <ele>553</ele>
        <time>2017-09-24T13:05:42Z</time>
      </trkpt>
      <trkpt lat="45.65962" lon="3.27234">
        <ele>554</ele>
        <time>2017-09-24T13:05:49Z</time>
      </trkpt>
      <trkpt lat="45.65954" lon="3.27255">
        <ele>554</ele>
        <time>2017-09-24T13:06:00Z</time>
      </trkpt>
      <trkpt lat="45.65937" lon="3.27291">
        <ele>555</ele>
        <time>2017-09-24T13:06:20Z</time>
      </trkpt>
      <trkpt lat="45.65929" lon="3.27304">
        <ele>555</ele>
        <time>2017-09-24T13:06:28Z</time>
      </trkpt>
      <trkpt lat="45.6592" lon="3.27318">
        <ele>555</ele>
        <time>2017-09-24T13:06:36Z</time>
      </trkpt>
      <trkpt lat="45.65916" lon="3.27336">
        <ele>556</ele>
        <time>2017-09-24T13:06:45Z</time>
      </trkpt>
      <trkpt lat="45.65914" lon="3.27349">
        <ele>557</ele>
        <time>2017-09-24T13:06:51Z</time>
      </trkpt>
      <trkpt lat="45.65913" lon="3.27355">
        <ele>557</ele>
        <time>2017-09-24T13:06:54Z</time>
      </trkpt>
      <trkpt lat="45.65909" lon="3.27378">
        <ele>558</ele>
        <time>2017-09-24T13:07:05Z</time>
      </trkpt>
      <trkpt lat="45.65906" lon="3.27404">
        <ele>559</ele>
        <time>2017-09-24T13:07:17Z</time>
      </trkpt>
      <trkpt lat="45.65904" lon="3.2742">
        <ele>560</ele>
        <time>2017-09-24T13:07:25Z</time>
      </trkpt>
      <trkpt lat="45.65901" lon="3.27436">
        <ele>560</ele>
        <time>2017-09-24T13:07:33Z</time>
      </trkpt>
      <trkpt lat="45.659" lon="3.27453">
        <ele>562</ele>
        <time>2017-09-24T13:07:41Z</time>
      </trkpt>
      <trkpt lat="45.65898" lon="3.27475">
        <ele>563</ele>
        <time>2017-09-24T13:07:51Z</time>
      </trkpt>
      <trkpt lat="45.65897" lon="3.27495">
        <ele>565</ele>
        <time>2017-09-24T13:08:01Z</time>
      </trkpt>
      <trkpt lat="45.65895" lon="3.27507">
        <ele>565</ele>
        <time>2017-09-24T13:08:07Z</time>
      </trkpt>
      <trkpt lat="45.65895" lon="3.27527">
        <ele>566</ele>
        <time>2017-09-24T13:08:16Z</time>
      </trkpt>
      <trkpt lat="45.65903" lon="3.27541">
        <ele>568</ele>
        <time>2017-09-24T13:08:26Z</time>
      </trkpt>
      <trkpt lat="45.6591" lon="3.27547">
        <ele>570</ele>
        <time>2017-09-24T13:08:33Z</time>
      </trkpt>
      <trkpt lat="45.65917" lon="3.27553">
        <ele>571</ele>
        <time>2017-09-24T13:08:39Z</time>
      </trkpt>
      <trkpt lat="45.65921" lon="3.27559">
        <ele>572</ele>
        <time>2017-09-24T13:08:45Z</time>
      </trkpt>
      <trkpt lat="45.65926" lon="3.27569">
        <ele>573</ele>
        <time>2017-09-24T13:08:52Z</time>
      </trkpt>
      <trkpt lat="45.65929" lon="3.27571">
        <ele>573</ele>
        <time>2017-09-24T13:08:55Z</time>
      </trkpt>
      <trkpt lat="45.65931" lon="3.27575">
        <ele>574</ele>
        <time>2017-09-24T13:08:59Z</time>
      </trkpt>
      <trkpt lat="45.6594" lon="3.27582">
        <ele>575</ele>
        <time>2017-09-24T13:09:07Z</time>
      </trkpt>
      <trkpt lat="45.65947" lon="3.27592">
        <ele>577</ele>
        <time>2017-09-24T13:09:15Z</time>
      </trkpt>
      <trkpt lat="45.65948" lon="3.27595">
        <ele>577</ele>
        <time>2017-09-24T13:09:17Z</time>
      </trkpt>
      <trkpt lat="45.65951" lon="3.27606">
        <ele>578</ele>
        <time>2017-09-24T13:09:24Z</time>
      </trkpt>
      <trkpt lat="45.65951" lon="3.27607">
        <ele>578</ele>
        <time>2017-09-24T13:09:25Z</time>
      </trkpt>
      <trkpt lat="45.6596" lon="3.27619">
        <ele>581</ele>
        <time>2017-09-24T13:09:34Z</time>
      </trkpt>
      <trkpt lat="45.65969" lon="3.27626">
        <ele>582</ele>
        <time>2017-09-24T13:09:41Z</time>
      </trkpt>
      <trkpt lat="45.65974" lon="3.27631">
        <ele>583</ele>
        <time>2017-09-24T13:09:45Z</time>
      </trkpt>
      <trkpt lat="45.6598" lon="3.27639">
        <ele>585</ele>
        <time>2017-09-24T13:09:51Z</time>
      </trkpt>
      <trkpt lat="45.65986" lon="3.27652">
        <ele>586</ele>
        <time>2017-09-24T13:09:59Z</time>
      </trkpt>
      <trkpt lat="45.65989" lon="3.27666">
        <ele>588</ele>
        <time>2017-09-24T13:10:07Z</time>
      </trkpt>
      <trkpt lat="45.65991" lon="3.27678">
        <ele>589</ele>
        <time>2017-09-24T13:10:13Z</time>
      </trkpt>
      <trkpt lat="45.65991" lon="3.27679">
        <ele>589</ele>
        <time>2017-09-24T13:10:14Z</time>
      </trkpt>
      <trkpt lat="45.65993" lon="3.27688">
        <ele>589</ele>
        <time>2017-09-24T13:10:19Z</time>
      </trkpt>
      <trkpt lat="45.65996" lon="3.277">
        <ele>590</ele>
        <time>2017-09-24T13:10:26Z</time>
      </trkpt>
      <trkpt lat="45.65998" lon="3.27712">
        <ele>590</ele>
        <time>2017-09-24T13:10:32Z</time>
      </trkpt>
      <trkpt lat="45.65998" lon="3.27714">
        <ele>590</ele>
        <time>2017-09-24T13:10:33Z</time>
      </trkpt>
      <trkpt lat="45.66" lon="3.27722">
        <ele>590</ele>
        <time>2017-09-24T13:10:38Z</time>
      </trkpt>
      <trkpt lat="45.66001" lon="3.27734">
        <ele>591</ele>
        <time>2017-09-24T13:10:44Z</time>
      </trkpt>
      <trkpt lat="45.66002" lon="3.27735">
        <ele>591</ele>
        <time>2017-09-24T13:10:45Z</time>
      </trkpt>
      <trkpt lat="45.66006" lon="3.27747">
        <ele>592</ele>
        <time>2017-09-24T13:10:51Z</time>
      </trkpt>
      <trkpt lat="45.6601" lon="3.27759">
        <ele>592</ele>
        <time>2017-09-24T13:10:57Z</time>
      </trkpt>
      <trkpt lat="45.66018" lon="3.27772">
        <ele>594</ele>
        <time>2017-09-24T13:11:05Z</time>
      </trkpt>
      <trkpt lat="45.66024" lon="3.27783">
        <ele>594</ele>
        <time>2017-09-24T13:11:12Z</time>
      </trkpt>
      <trkpt lat="45.66027" lon="3.27788">
        <ele>595</ele>
        <time>2017-09-24T13:11:15Z</time>
      </trkpt>
      <trkpt lat="45.66033" lon="3.27805">
        <ele>595</ele>
        <time>2017-09-24T13:11:25Z</time>
      </trkpt>
      <trkpt lat="45.66034" lon="3.27808">
        <ele>595</ele>
        <time>2017-09-24T13:11:27Z</time>
      </trkpt>
      <trkpt lat="45.66038" lon="3.27821">
        <ele>596</ele>
        <time>2017-09-24T13:11:36Z</time>
      </trkpt>
      <trkpt lat="45.66038" lon="3.27823">
        <ele>596</ele>
        <time>2017-09-24T13:11:37Z</time>
      </trkpt>
      <trkpt lat="45.6604" lon="3.27829">
        <ele>596</ele>
        <time>2017-09-24T13:11:41Z</time>
      </trkpt>
      <trkpt lat="45.66041" lon="3.27832">
        <ele>596</ele>
        <time>2017-09-24T13:11:43Z</time>
      </trkpt>
      <trkpt lat="45.66043" lon="3.27839">
        <ele>596</ele>
        <time>2017-09-24T13:11:48Z</time>
      </trkpt>
      <trkpt lat="45.66046" lon="3.27842">
        <ele>597</ele>
        <time>2017-09-24T13:11:51Z</time>
      </trkpt>
      <trkpt lat="45.66053" lon="3.27851">
        <ele>598</ele>
        <time>2017-09-24T13:11:58Z</time>
      </trkpt>
      <trkpt lat="45.66054" lon="3.27853">
        <ele>598</ele>
        <time>2017-09-24T13:11:59Z</time>
      </trkpt>
      <trkpt lat="45.6606" lon="3.27864">
        <ele>599</ele>
        <time>2017-09-24T13:12:06Z</time>
      </trkpt>
      <trkpt lat="45.66061" lon="3.27866">
        <ele>599</ele>
        <time>2017-09-24T13:12:07Z</time>
      </trkpt>
      <trkpt lat="45.66061" lon="3.2787">
        <ele>599</ele>
        <time>2017-09-24T13:12:10Z</time>
      </trkpt>
      <trkpt lat="45.66065" lon="3.27882">
        <ele>600</ele>
        <time>2017-09-24T13:12:19Z</time>
      </trkpt>
      <trkpt lat="45.6607" lon="3.27893">
        <ele>601</ele>
        <time>2017-09-24T13:12:32Z</time>
      </trkpt>
      <trkpt lat="45.66075" lon="3.27904">
        <ele>602</ele>
        <time>2017-09-24T13:12:38Z</time>
      </trkpt>
      <trkpt lat="45.6608" lon="3.27913">
        <ele>603</ele>
        <time>2017-09-24T13:12:43Z</time>
      </trkpt>
      <trkpt lat="45.66081" lon="3.27915">
        <ele>603</ele>
        <time>2017-09-24T13:12:44Z</time>
      </trkpt>
      <trkpt lat="45.66084" lon="3.27922">
        <ele>604</ele>
        <time>2017-09-24T13:12:49Z</time>
      </trkpt>
      <trkpt lat="45.66085" lon="3.27928">
        <ele>604</ele>
        <time>2017-09-24T13:12:52Z</time>
      </trkpt>
      <trkpt lat="45.66086" lon="3.27929">
        <ele>604</ele>
        <time>2017-09-24T13:12:53Z</time>
      </trkpt>
      <trkpt lat="45.66089" lon="3.2794">
        <ele>605</ele>
        <time>2017-09-24T13:12:59Z</time>
      </trkpt>
      <trkpt lat="45.66092" lon="3.27946">
        <ele>605</ele>
        <time>2017-09-24T13:13:02Z</time>
      </trkpt>
      <trkpt lat="45.66098" lon="3.27959">
        <ele>606</ele>
        <time>2017-09-24T13:13:10Z</time>
      </trkpt>
      <trkpt lat="45.66106" lon="3.27967">
        <ele>608</ele>
        <time>2017-09-24T13:13:17Z</time>
      </trkpt>
      <trkpt lat="45.66116" lon="3.27977">
        <ele>609</ele>
        <time>2017-09-24T13:13:26Z</time>
      </trkpt>
      <trkpt lat="45.66117" lon="3.27978">
        <ele>609</ele>
        <time>2017-09-24T13:13:27Z</time>
      </trkpt>
      <trkpt lat="45.66121" lon="3.27984">
        <ele>610</ele>
        <time>2017-09-24T13:13:31Z</time>
      </trkpt>
      <trkpt lat="45.66123" lon="3.27989">
        <ele>610</ele>
        <time>2017-09-24T13:13:34Z</time>
      </trkpt>
      <trkpt lat="45.66124" lon="3.27999">
        <ele>611</ele>
        <time>2017-09-24T13:13:40Z</time>
      </trkpt>
      <trkpt lat="45.66127" lon="3.28011">
        <ele>611</ele>
        <time>2017-09-24T13:13:46Z</time>
      </trkpt>
      <trkpt lat="45.66127" lon="3.28013">
        <ele>611</ele>
        <time>2017-09-24T13:13:47Z</time>
      </trkpt>
      <trkpt lat="45.66128" lon="3.28019">
        <ele>611</ele>
        <time>2017-09-24T13:13:50Z</time>
      </trkpt>
      <trkpt lat="45.66131" lon="3.28031">
        <ele>611</ele>
        <time>2017-09-24T13:13:56Z</time>
      </trkpt>
      <trkpt lat="45.66132" lon="3.28033">
        <ele>611</ele>
        <time>2017-09-24T13:13:57Z</time>
      </trkpt>
      <trkpt lat="45.66133" lon="3.28036">
        <ele>611</ele>
        <time>2017-09-24T13:13:59Z</time>
      </trkpt>
      <trkpt lat="45.66135" lon="3.28046">
        <ele>612</ele>
        <time>2017-09-24T13:14:04Z</time>
      </trkpt>
      <trkpt lat="45.66137" lon="3.28051">
        <ele>612</ele>
        <time>2017-09-24T13:14:07Z</time>
      </trkpt>
      <trkpt lat="45.66138" lon="3.28054">
        <ele>612</ele>
        <time>2017-09-24T13:14:09Z</time>
      </trkpt>
      <trkpt lat="45.66143" lon="3.28066">
        <ele>612</ele>
        <time>2017-09-24T13:14:16Z</time>
      </trkpt>
      <trkpt lat="45.66146" lon="3.2808">
        <ele>613</ele>
        <time>2017-09-24T13:14:24Z</time>
      </trkpt>
      <trkpt lat="45.66146" lon="3.28084">
        <ele>613</ele>
        <time>2017-09-24T13:14:26Z</time>
      </trkpt>
      <trkpt lat="45.66147" lon="3.28091">
        <ele>613</ele>
        <time>2017-09-24T13:14:30Z</time>
      </trkpt>
      <trkpt lat="45.6615" lon="3.28101">
        <ele>613</ele>
        <time>2017-09-24T13:14:36Z</time>
      </trkpt>
      <trkpt lat="45.66151" lon="3.28102">
        <ele>613</ele>
        <time>2017-09-24T13:14:37Z</time>
      </trkpt>
      <trkpt lat="45.66151" lon="3.28104">
        <ele>613</ele>
        <time>2017-09-24T13:14:38Z</time>
      </trkpt>
      <trkpt lat="45.66153" lon="3.28113">
        <ele>614</ele>
        <time>2017-09-24T13:14:43Z</time>
      </trkpt>
      <trkpt lat="45.66153" lon="3.28117">
        <ele>614</ele>
        <time>2017-09-24T13:14:45Z</time>
      </trkpt>
      <trkpt lat="45.66155" lon="3.28121">
        <ele>614</ele>
        <time>2017-09-24T13:14:48Z</time>
      </trkpt>
      <trkpt lat="45.66157" lon="3.28131">
        <ele>615</ele>
        <time>2017-09-24T13:14:54Z</time>
      </trkpt>
      <trkpt lat="45.6616" lon="3.28139">
        <ele>615</ele>
        <time>2017-09-24T13:14:59Z</time>
      </trkpt>
      <trkpt lat="45.66161" lon="3.28147">
        <ele>616</ele>
        <time>2017-09-24T13:15:04Z</time>
      </trkpt>
      <trkpt lat="45.66162" lon="3.28153">
        <ele>616</ele>
        <time>2017-09-24T13:15:07Z</time>
      </trkpt>
      <trkpt lat="45.66164" lon="3.28166">
        <ele>616</ele>
        <time>2017-09-24T13:15:13Z</time>
      </trkpt>
      <trkpt lat="45.66165" lon="3.28173">
        <ele>616</ele>
        <time>2017-09-24T13:15:16Z</time>
      </trkpt>
      <trkpt lat="45.66167" lon="3.28181">
        <ele>617</ele>
        <time>2017-09-24T13:15:20Z</time>
      </trkpt>
      <trkpt lat="45.66169" lon="3.28193">
        <ele>618</ele>
        <time>2017-09-24T13:15:26Z</time>
      </trkpt>
      <trkpt lat="45.66172" lon="3.28201">
        <ele>618</ele>
        <time>2017-09-24T13:15:31Z</time>
      </trkpt>
      <trkpt lat="45.66174" lon="3.28219">
        <ele>619</ele>
        <time>2017-09-24T13:15:40Z</time>
      </trkpt>
      <trkpt lat="45.66175" lon="3.28232">
        <ele>619</ele>
        <time>2017-09-24T13:15:47Z</time>
      </trkpt>
      <trkpt lat="45.66175" lon="3.28234">
        <ele>620</ele>
        <time>2017-09-24T13:15:48Z</time>
      </trkpt>
      <trkpt lat="45.66177" lon="3.28239">
        <ele>620</ele>
        <time>2017-09-24T13:15:51Z</time>
      </trkpt>
      <trkpt lat="45.66178" lon="3.28244">
        <ele>620</ele>
        <time>2017-09-24T13:15:54Z</time>
      </trkpt>
      <trkpt lat="45.66181" lon="3.2825">
        <ele>621</ele>
        <time>2017-09-24T13:15:58Z</time>
      </trkpt>
      <trkpt lat="45.66191" lon="3.28259">
        <ele>623</ele>
        <time>2017-09-24T13:16:06Z</time>
      </trkpt>
      <trkpt lat="45.66203" lon="3.2828">
        <ele>625</ele>
        <time>2017-09-24T13:16:20Z</time>
      </trkpt>
      <trkpt lat="45.66206" lon="3.28284">
        <ele>625</ele>
        <time>2017-09-24T13:16:23Z</time>
      </trkpt>
      <trkpt lat="45.66208" lon="3.28287">
        <ele>626</ele>
        <time>2017-09-24T13:16:26Z</time>
      </trkpt>
      <trkpt lat="45.66214" lon="3.28298">
        <ele>626</ele>
        <time>2017-09-24T13:16:33Z</time>
      </trkpt>
      <trkpt lat="45.66221" lon="3.28314">
        <ele>627</ele>
        <time>2017-09-24T13:16:42Z</time>
      </trkpt>
      <trkpt lat="45.66224" lon="3.28324">
        <ele>627</ele>
        <time>2017-09-24T13:16:48Z</time>
      </trkpt>
      <trkpt lat="45.66224" lon="3.28325">
        <ele>627</ele>
        <time>2017-09-24T13:16:49Z</time>
      </trkpt>
      <trkpt lat="45.66225" lon="3.28338">
        <ele>627</ele>
        <time>2017-09-24T13:16:56Z</time>
      </trkpt>
      <trkpt lat="45.66226" lon="3.28339">
        <ele>627</ele>
        <time>2017-09-24T13:16:57Z</time>
      </trkpt>
      <trkpt lat="45.6623" lon="3.2835">
        <ele>627</ele>
        <time>2017-09-24T13:17:02Z</time>
      </trkpt>
      <trkpt lat="45.66232" lon="3.28359">
        <ele>628</ele>
        <time>2017-09-24T13:17:07Z</time>
      </trkpt>
      <trkpt lat="45.66236" lon="3.28375">
        <ele>629</ele>
        <time>2017-09-24T13:17:15Z</time>
      </trkpt>
      <trkpt lat="45.66243" lon="3.28398">
        <ele>630</ele>
        <time>2017-09-24T13:17:26Z</time>
      </trkpt>
      <trkpt lat="45.66245" lon="3.28408">
        <ele>630</ele>
        <time>2017-09-24T13:17:31Z</time>
      </trkpt>
      <trkpt lat="45.66246" lon="3.28415">
        <ele>630</ele>
        <time>2017-09-24T13:17:34Z</time>
      </trkpt>
      <trkpt lat="45.66248" lon="3.28428">
        <ele>630</ele>
        <time>2017-09-24T13:17:40Z</time>
      </trkpt>
      <trkpt lat="45.66249" lon="3.28438">
        <ele>630</ele>
        <time>2017-09-24T13:17:46Z</time>
      </trkpt>
      <trkpt lat="45.66252" lon="3.28452">
        <ele>631</ele>
        <time>2017-09-24T13:17:52Z</time>
      </trkpt>
      <trkpt lat="45.66253" lon="3.28462">
        <ele>631</ele>
        <time>2017-09-24T13:17:57Z</time>
      </trkpt>
      <trkpt lat="45.66253" lon="3.28463">
        <ele>631</ele>
        <time>2017-09-24T13:17:58Z</time>
      </trkpt>
      <trkpt lat="45.66254" lon="3.28491">
        <ele>630</ele>
        <time>2017-09-24T13:18:12Z</time>
      </trkpt>
      <trkpt lat="45.66254" lon="3.28493">
        <ele>630</ele>
        <time>2017-09-24T13:18:13Z</time>
      </trkpt>
      <trkpt lat="45.66254" lon="3.28507">
        <ele>630</ele>
        <time>2017-09-24T13:18:20Z</time>
      </trkpt>
      <trkpt lat="45.66254" lon="3.28517">
        <ele>630</ele>
        <time>2017-09-24T13:18:25Z</time>
      </trkpt>
      <trkpt lat="45.66255" lon="3.28522">
        <ele>630</ele>
        <time>2017-09-24T13:18:28Z</time>
      </trkpt>
      <trkpt lat="45.66253" lon="3.28529">
        <ele>629</ele>
        <time>2017-09-24T13:18:33Z</time>
      </trkpt>
      <trkpt lat="45.66253" lon="3.28531">
        <ele>629</ele>
        <time>2017-09-24T13:18:34Z</time>
      </trkpt>
      <trkpt lat="45.66253" lon="3.28546">
        <ele>629</ele>
        <time>2017-09-24T13:18:41Z</time>
      </trkpt>
      <trkpt lat="45.66253" lon="3.28555">
        <ele>629</ele>
        <time>2017-09-24T13:18:46Z</time>
      </trkpt>
      <trkpt lat="45.66252" lon="3.28557">
        <ele>629</ele>
        <time>2017-09-24T13:18:47Z</time>
      </trkpt>
      <trkpt lat="45.66253" lon="3.28564">
        <ele>630</ele>
        <time>2017-09-24T13:18:50Z</time>
      </trkpt>
      <trkpt lat="45.66252" lon="3.28579">
        <ele>630</ele>
        <time>2017-09-24T13:18:56Z</time>
      </trkpt>
      <trkpt lat="45.6625" lon="3.28593">
        <ele>630</ele>
        <time>2017-09-24T13:19:02Z</time>
      </trkpt>
      <trkpt lat="45.6625" lon="3.28607">
        <ele>630</ele>
        <time>2017-09-24T13:19:08Z</time>
      </trkpt>
      <trkpt lat="45.66245" lon="3.28632">
        <ele>629</ele>
        <time>2017-09-24T13:19:18Z</time>
      </trkpt>
      <trkpt lat="45.66241" lon="3.28655">
        <ele>629</ele>
        <time>2017-09-24T13:19:27Z</time>
      </trkpt>
      <trkpt lat="45.66239" lon="3.28668">
        <ele>630</ele>
        <time>2017-09-24T13:19:33Z</time>
      </trkpt>
      <trkpt lat="45.66238" lon="3.28683">
        <ele>630</ele>
        <time>2017-09-24T13:19:39Z</time>
      </trkpt>
      <trkpt lat="45.66235" lon="3.28701">
        <ele>628</ele>
        <time>2017-09-24T13:19:47Z</time>
      </trkpt>
      <trkpt lat="45.66237" lon="3.28718">
        <ele>628</ele>
        <time>2017-09-24T13:19:55Z</time>
      </trkpt>
      <trkpt lat="45.66243" lon="3.28729">
        <ele>628</ele>
        <time>2017-09-24T13:20:01Z</time>
      </trkpt>
      <trkpt lat="45.66248" lon="3.28738">
        <ele>628</ele>
        <time>2017-09-24T13:20:06Z</time>
      </trkpt>
      <trkpt lat="45.66251" lon="3.28748">
        <ele>628</ele>
        <time>2017-09-24T13:20:11Z</time>
      </trkpt>
      <trkpt lat="45.66255" lon="3.28759">
        <ele>628</ele>
        <time>2017-09-24T13:20:17Z</time>
      </trkpt>
      <trkpt lat="45.66257" lon="3.2876">
        <ele>629</ele>
        <time>2017-09-24T13:20:26Z</time>
      </trkpt>
      <trkpt lat="45.66261" lon="3.28768">
        <ele>629</ele>
        <time>2017-09-24T13:20:38Z</time>
      </trkpt>
      <trkpt lat="45.66264" lon="3.28785">
        <ele>628</ele>
        <time>2017-09-24T13:20:46Z</time>
      </trkpt>
      <trkpt lat="45.66264" lon="3.28791">
        <ele>628</ele>
        <time>2017-09-24T13:20:49Z</time>
      </trkpt>
      <trkpt lat="45.66263" lon="3.28805">
        <ele>627</ele>
        <time>2017-09-24T13:20:56Z</time>
      </trkpt>
      <trkpt lat="45.66263" lon="3.28809">
        <ele>627</ele>
        <time>2017-09-24T13:20:58Z</time>
      </trkpt>
      <trkpt lat="45.66264" lon="3.28825">
        <ele>626</ele>
        <time>2017-09-24T13:21:06Z</time>
      </trkpt>
      <trkpt lat="45.66264" lon="3.28829">
        <ele>626</ele>
        <time>2017-09-24T13:21:08Z</time>
      </trkpt>
      <trkpt lat="45.66261" lon="3.28845">
        <ele>625</ele>
        <time>2017-09-24T13:21:17Z</time>
      </trkpt>
      <trkpt lat="45.66259" lon="3.2885">
        <ele>625</ele>
        <time>2017-09-24T13:21:20Z</time>
      </trkpt>
      <trkpt lat="45.66256" lon="3.28858">
        <ele>624</ele>
        <time>2017-09-24T13:21:24Z</time>
      </trkpt>
      <trkpt lat="45.66255" lon="3.2887">
        <ele>623</ele>
        <time>2017-09-24T13:21:30Z</time>
      </trkpt>
      <trkpt lat="45.66253" lon="3.28878">
        <ele>622</ele>
        <time>2017-09-24T13:21:34Z</time>
      </trkpt>
      <trkpt lat="45.66253" lon="3.28882">
        <ele>622</ele>
        <time>2017-09-24T13:21:36Z</time>
      </trkpt>
      <trkpt lat="45.66251" lon="3.28892">
        <ele>621</ele>
        <time>2017-09-24T13:21:42Z</time>
      </trkpt>
      <trkpt lat="45.66251" lon="3.28894">
        <ele>621</ele>
        <time>2017-09-24T13:21:43Z</time>
      </trkpt>
      <trkpt lat="45.66248" lon="3.28902">
        <ele>621</ele>
        <time>2017-09-24T13:21:47Z</time>
      </trkpt>
      <trkpt lat="45.66247" lon="3.2891">
        <ele>620</ele>
        <time>2017-09-24T13:21:52Z</time>
      </trkpt>
      <trkpt lat="45.66248" lon="3.28913">
        <ele>620</ele>
        <time>2017-09-24T13:21:54Z</time>
      </trkpt>
      <trkpt lat="45.66246" lon="3.28926">
        <ele>620</ele>
        <time>2017-09-24T13:21:59Z</time>
      </trkpt>
      <trkpt lat="45.66245" lon="3.28937">
        <ele>619</ele>
        <time>2017-09-24T13:22:04Z</time>
      </trkpt>
      <trkpt lat="45.66241" lon="3.28951">
        <ele>618</ele>
        <time>2017-09-24T13:22:11Z</time>
      </trkpt>
      <trkpt lat="45.66235" lon="3.28978">
        <ele>616</ele>
        <time>2017-09-24T13:22:24Z</time>
      </trkpt>
      <trkpt lat="45.66232" lon="3.28993">
        <ele>615</ele>
        <time>2017-09-24T13:22:31Z</time>
      </trkpt>
      <trkpt lat="45.66232" lon="3.28995">
        <ele>615</ele>
        <time>2017-09-24T13:22:32Z</time>
      </trkpt>
      <trkpt lat="45.66227" lon="3.2901">
        <ele>614</ele>
        <time>2017-09-24T13:22:39Z</time>
      </trkpt>
      <trkpt lat="45.66227" lon="3.29012">
        <ele>614</ele>
        <time>2017-09-24T13:22:40Z</time>
      </trkpt>
      <trkpt lat="45.66225" lon="3.29019">
        <ele>614</ele>
        <time>2017-09-24T13:22:44Z</time>
      </trkpt>
      <trkpt lat="45.66224" lon="3.29025">
        <ele>613</ele>
        <time>2017-09-24T13:22:47Z</time>
      </trkpt>
      <trkpt lat="45.66221" lon="3.29038">
        <ele>613</ele>
        <time>2017-09-24T13:22:54Z</time>
      </trkpt>
      <trkpt lat="45.66218" lon="3.29048">
        <ele>612</ele>
        <time>2017-09-24T13:22:59Z</time>
      </trkpt>
      <trkpt lat="45.66214" lon="3.29059">
        <ele>612</ele>
        <time>2017-09-24T13:23:05Z</time>
      </trkpt>
      <trkpt lat="45.66209" lon="3.2907">
        <ele>611</ele>
        <time>2017-09-24T13:23:11Z</time>
      </trkpt>
      <trkpt lat="45.66208" lon="3.29073">
        <ele>611</ele>
        <time>2017-09-24T13:23:16Z</time>
      </trkpt>
      <trkpt lat="45.66209" lon="3.29084">
        <ele>610</ele>
        <time>2017-09-24T13:23:22Z</time>
      </trkpt>
      <trkpt lat="45.66214" lon="3.29092">
        <ele>610</ele>
        <time>2017-09-24T13:23:27Z</time>
      </trkpt>
      <trkpt lat="45.66223" lon="3.291">
        <ele>611</ele>
        <time>2017-09-24T13:23:34Z</time>
      </trkpt>
      <trkpt lat="45.66233" lon="3.2911">
        <ele>610</ele>
        <time>2017-09-24T13:23:42Z</time>
      </trkpt>
      <trkpt lat="45.66246" lon="3.29123">
        <ele>610</ele>
        <time>2017-09-24T13:23:52Z</time>
      </trkpt>
      <trkpt lat="45.66258" lon="3.29135">
        <ele>610</ele>
        <time>2017-09-24T13:24:01Z</time>
      </trkpt>
      <trkpt lat="45.6627" lon="3.29172">
        <ele>609</ele>
        <time>2017-09-24T13:24:18Z</time>
      </trkpt>
      <trkpt lat="45.66273" lon="3.29191">
        <ele>609</ele>
        <time>2017-09-24T13:24:26Z</time>
      </trkpt>
      <trkpt lat="45.66275" lon="3.29214">
        <ele>608</ele>
        <time>2017-09-24T13:24:36Z</time>
      </trkpt>
      <trkpt lat="45.66278" lon="3.2924">
        <ele>608</ele>
        <time>2017-09-24T13:24:48Z</time>
      </trkpt>
      <trkpt lat="45.6628" lon="3.29267">
        <ele>608</ele>
        <time>2017-09-24T13:25:00Z</time>
      </trkpt>
      <trkpt lat="45.66281" lon="3.29295">
        <ele>609</ele>
        <time>2017-09-24T13:25:13Z</time>
      </trkpt>
      <trkpt lat="45.66279" lon="3.2932">
        <ele>610</ele>
        <time>2017-09-24T13:25:24Z</time>
      </trkpt>
      <trkpt lat="45.66278" lon="3.29338">
        <ele>611</ele>
        <time>2017-09-24T13:25:32Z</time>
      </trkpt>
      <trkpt lat="45.66274" lon="3.29361">
        <ele>612</ele>
        <time>2017-09-24T13:25:43Z</time>
      </trkpt>
      <trkpt lat="45.66272" lon="3.29386">
        <ele>614</ele>
        <time>2017-09-24T13:25:55Z</time>
      </trkpt>
      <trkpt lat="45.66271" lon="3.29405">
        <ele>614</ele>
        <time>2017-09-24T13:26:04Z</time>
      </trkpt>
      <trkpt lat="45.66269" lon="3.29431">
        <ele>615</ele>
        <time>2017-09-24T13:26:16Z</time>
      </trkpt>
      <trkpt lat="45.6627" lon="3.29448">
        <ele>616</ele>
        <time>2017-09-24T13:26:24Z</time>
      </trkpt>
      <trkpt lat="45.6627" lon="3.2946">
        <ele>616</ele>
        <time>2017-09-24T13:26:30Z</time>
      </trkpt>
      <trkpt lat="45.66275" lon="3.29476">
        <ele>617</ele>
        <time>2017-09-24T13:26:38Z</time>
      </trkpt>
      <trkpt lat="45.66275" lon="3.29478">
        <ele>617</ele>
        <time>2017-09-24T13:26:39Z</time>
      </trkpt>
      <trkpt lat="45.66274" lon="3.29482">
        <ele>617</ele>
        <time>2017-09-24T13:26:44Z</time>
      </trkpt>
      <trkpt lat="45.66275" lon="3.29485">
        <ele>617</ele>
        <time>2017-09-24T13:26:56Z</time>
      </trkpt>
      <trkpt lat="45.66283" lon="3.29483">
        <ele>617</ele>
        <time>2017-09-24T13:27:03Z</time>
      </trkpt>
      <trkpt lat="45.66286" lon="3.29481">
        <ele>617</ele>
        <time>2017-09-24T13:27:09Z</time>
      </trkpt>
      <trkpt lat="45.66287" lon="3.2948">
        <ele>617</ele>
        <time>2017-09-24T13:27:14Z</time>
      </trkpt>
      <trkpt lat="45.6629" lon="3.2948">
        <ele>616</ele>
        <time>2017-09-24T13:27:22Z</time>
      </trkpt>
      <trkpt lat="45.66288" lon="3.29486">
        <ele>617</ele>
        <time>2017-09-24T13:27:52Z</time>
      </trkpt>
      <trkpt lat="45.66288" lon="3.29484">
        <ele>617</ele>
        <time>2017-09-24T13:27:57Z</time>
      </trkpt>
      <trkpt lat="45.66289" lon="3.29481">
        <ele>617</ele>
        <time>2017-09-24T13:28:03Z</time>
      </trkpt>
      <trkpt lat="45.66289" lon="3.2948">
        <ele>616</ele>
        <time>2017-09-24T13:28:39Z</time>
      </trkpt>
      <trkpt lat="45.66286" lon="3.29482">
        <ele>617</ele>
        <time>2017-09-24T13:30:18Z</time>
      </trkpt>
      <trkpt lat="45.66286" lon="3.29483">
        <ele>617</ele>
        <time>2017-09-24T13:30:26Z</time>
      </trkpt>
      <trkpt lat="45.66285" lon="3.29482">
        <ele>617</ele>
        <time>2017-09-24T13:30:36Z</time>
      </trkpt>
      <trkpt lat="45.66286" lon="3.29484">
        <ele>617</ele>
        <time>2017-09-24T13:30:44Z</time>
      </trkpt>
      <trkpt lat="45.66285" lon="3.29486">
        <ele>617</ele>
        <time>2017-09-24T13:30:56Z</time>
      </trkpt>
      <trkpt lat="45.66289" lon="3.29495">
        <ele>617</ele>
        <time>2017-09-24T13:31:02Z</time>
      </trkpt>
      <trkpt lat="45.66293" lon="3.29504">
        <ele>617</ele>
        <time>2017-09-24T13:31:08Z</time>
      </trkpt>
      <trkpt lat="45.66297" lon="3.29515">
        <ele>618</ele>
        <time>2017-09-24T13:31:16Z</time>
      </trkpt>
      <trkpt lat="45.66302" lon="3.29527">
        <ele>618</ele>
        <time>2017-09-24T13:31:24Z</time>
      </trkpt>
      <trkpt lat="45.66308" lon="3.29539">
        <ele>619</ele>
        <time>2017-09-24T13:31:32Z</time>
      </trkpt>
      <trkpt lat="45.66309" lon="3.29546">
        <ele>619</ele>
        <time>2017-09-24T13:31:38Z</time>
      </trkpt>
      <trkpt lat="45.66309" lon="3.29546">
        <ele>619</ele>
        <time>2017-09-24T13:31:44Z</time>
      </trkpt>
      <trkpt lat="45.66308" lon="3.29545">
        <ele>619</ele>
        <time>2017-09-24T13:31:50Z</time>
      </trkpt>
      <trkpt lat="45.66308" lon="3.29545">
        <ele>619</ele>
        <time>2017-09-24T13:31:54Z</time>
      </trkpt>
      <trkpt lat="45.66309" lon="3.29544">
        <ele>619</ele>
        <time>2017-09-24T13:32:07Z</time>
      </trkpt>
      <trkpt lat="45.66332" lon="3.29558">
        <ele>620</ele>
        <time>2017-09-24T13:32:24Z</time>
      </trkpt>
      <trkpt lat="45.66341" lon="3.29559">
        <ele>620</ele>
        <time>2017-09-24T13:32:30Z</time>
      </trkpt>
      <trkpt lat="45.66346" lon="3.2956">
        <ele>620</ele>
        <time>2017-09-24T13:32:34Z</time>
      </trkpt>
      <trkpt lat="45.66352" lon="3.29558">
        <ele>620</ele>
        <time>2017-09-24T13:32:38Z</time>
      </trkpt>
      <trkpt lat="45.66367" lon="3.29558">
        <ele>620</ele>
        <time>2017-09-24T13:32:47Z</time>
      </trkpt>
      <trkpt lat="45.6638" lon="3.29556">
        <ele>620</ele>
        <time>2017-09-24T13:32:56Z</time>
      </trkpt>
      <trkpt lat="45.66393" lon="3.29557">
        <ele>620</ele>
        <time>2017-09-24T13:33:05Z</time>
      </trkpt>
      <trkpt lat="45.66408" lon="3.29557">
        <ele>620</ele>
        <time>2017-09-24T13:33:15Z</time>
      </trkpt>
      <trkpt lat="45.66418" lon="3.29562">
        <ele>620</ele>
        <time>2017-09-24T13:33:22Z</time>
      </trkpt>
      <trkpt lat="45.66436" lon="3.29571">
        <ele>620</ele>
        <time>2017-09-24T13:33:34Z</time>
      </trkpt>
      <trkpt lat="45.66453" lon="3.2958">
        <ele>621</ele>
        <time>2017-09-24T13:33:46Z</time>
      </trkpt>
      <trkpt lat="45.66465" lon="3.29587">
        <ele>621</ele>
        <time>2017-09-24T13:33:54Z</time>
      </trkpt>
      <trkpt lat="45.66473" lon="3.29593">
        <ele>622</ele>
        <time>2017-09-24T13:34:00Z</time>
      </trkpt>
      <trkpt lat="45.66483" lon="3.29597">
        <ele>622</ele>
        <time>2017-09-24T13:34:07Z</time>
      </trkpt>
      <trkpt lat="45.66497" lon="3.29605">
        <ele>623</ele>
        <time>2017-09-24T13:34:17Z</time>
      </trkpt>
      <trkpt lat="45.66513" lon="3.29614">
        <ele>624</ele>
        <time>2017-09-24T13:34:28Z</time>
      </trkpt>
      <trkpt lat="45.66526" lon="3.29616">
        <ele>625</ele>
        <time>2017-09-24T13:34:37Z</time>
      </trkpt>
      <trkpt lat="45.66535" lon="3.29616">
        <ele>625</ele>
        <time>2017-09-24T13:34:44Z</time>
      </trkpt>
      <trkpt lat="45.66544" lon="3.29606">
        <ele>625</ele>
        <time>2017-09-24T13:34:51Z</time>
      </trkpt>
      <trkpt lat="45.66552" lon="3.29595">
        <ele>624</ele>
        <time>2017-09-24T13:34:58Z</time>
      </trkpt>
      <trkpt lat="45.66562" lon="3.29579">
        <ele>624</ele>
        <time>2017-09-24T13:35:08Z</time>
      </trkpt>
      <trkpt lat="45.66576" lon="3.29575">
        <ele>625</ele>
        <time>2017-09-24T13:35:19Z</time>
      </trkpt>
      <trkpt lat="45.66587" lon="3.29587">
        <ele>627</ele>
        <time>2017-09-24T13:35:29Z</time>
      </trkpt>
      <trkpt lat="45.66596" lon="3.29597">
        <ele>628</ele>
        <time>2017-09-24T13:35:37Z</time>
      </trkpt>
      <trkpt lat="45.66607" lon="3.2961">
        <ele>630</ele>
        <time>2017-09-24T13:35:47Z</time>
      </trkpt>
      <trkpt lat="45.66615" lon="3.29622">
        <ele>631</ele>
        <time>2017-09-24T13:35:55Z</time>
      </trkpt>
      <trkpt lat="45.66623" lon="3.29637">
        <ele>633</ele>
        <time>2017-09-24T13:36:04Z</time>
      </trkpt>
      <trkpt lat="45.66633" lon="3.29656">
        <ele>635</ele>
        <time>2017-09-24T13:36:15Z</time>
      </trkpt>
      <trkpt lat="45.66644" lon="3.29678">
        <ele>637</ele>
        <time>2017-09-24T13:36:28Z</time>
      </trkpt>
      <trkpt lat="45.66655" lon="3.29695">
        <ele>639</ele>
        <time>2017-09-24T13:36:39Z</time>
      </trkpt>
      <trkpt lat="45.66663" lon="3.29703">
        <ele>640</ele>
        <time>2017-09-24T13:36:46Z</time>
      </trkpt>
      <trkpt lat="45.66673" lon="3.29705">
        <ele>642</ele>
        <time>2017-09-24T13:36:53Z</time>
      </trkpt>
      <trkpt lat="45.66682" lon="3.29707">
        <ele>643</ele>
        <time>2017-09-24T13:36:59Z</time>
      </trkpt>
      <trkpt lat="45.66689" lon="3.29711">
        <ele>644</ele>
        <time>2017-09-24T13:37:05Z</time>
      </trkpt>
      <trkpt lat="45.6669" lon="3.29715">
        <ele>644</ele>
        <time>2017-09-24T13:37:08Z</time>
      </trkpt>
      <trkpt lat="45.66683" lon="3.29733">
        <ele>644</ele>
        <time>2017-09-24T13:37:20Z</time>
      </trkpt>
      <trkpt lat="45.66687" lon="3.29743">
        <ele>644</ele>
        <time>2017-09-24T13:37:28Z</time>
      </trkpt>
      <trkpt lat="45.66689" lon="3.29749">
        <ele>645</ele>
        <time>2017-09-24T13:37:31Z</time>
      </trkpt>
      <trkpt lat="45.66693" lon="3.29764">
        <ele>646</ele>
        <time>2017-09-24T13:37:38Z</time>
      </trkpt>
      <trkpt lat="45.66697" lon="3.29781">
        <ele>648</ele>
        <time>2017-09-24T13:37:47Z</time>
      </trkpt>
      <trkpt lat="45.66703" lon="3.29797">
        <ele>649</ele>
        <time>2017-09-24T13:37:52Z</time>
      </trkpt>
      <trkpt lat="45.66705" lon="3.29807">
        <ele>650</ele>
        <time>2017-09-24T13:37:57Z</time>
      </trkpt>
      <trkpt lat="45.66702" lon="3.29821">
        <ele>651</ele>
        <time>2017-09-24T13:38:04Z</time>
      </trkpt>
      <trkpt lat="45.66703" lon="3.29829">
        <ele>652</ele>
        <time>2017-09-24T13:38:19Z</time>
      </trkpt>
      <trkpt lat="45.66702" lon="3.29837">
        <ele>652</ele>
        <time>2017-09-24T13:38:31Z</time>
      </trkpt>
      <trkpt lat="45.667" lon="3.29859">
        <ele>654</ele>
        <time>2017-09-24T13:38:43Z</time>
      </trkpt>
      <trkpt lat="45.66697" lon="3.29878">
        <ele>656</ele>
        <time>2017-09-24T13:38:53Z</time>
      </trkpt>
      <trkpt lat="45.66695" lon="3.29888">
        <ele>656</ele>
        <time>2017-09-24T13:38:59Z</time>
      </trkpt>
      <trkpt lat="45.6669" lon="3.29903">
        <ele>657</ele>
        <time>2017-09-24T13:39:08Z</time>
      </trkpt>
      <trkpt lat="45.66676" lon="3.29931">
        <ele>658</ele>
        <time>2017-09-24T13:39:27Z</time>
      </trkpt>
      <trkpt lat="45.66666" lon="3.2995">
        <ele>658</ele>
        <time>2017-09-24T13:39:38Z</time>
      </trkpt>
      <trkpt lat="45.66661" lon="3.2996">
        <ele>658</ele>
        <time>2017-09-24T13:39:44Z</time>
      </trkpt>
      <trkpt lat="45.66644" lon="3.29998">
        <ele>656</ele>
        <time>2017-09-24T13:40:04Z</time>
      </trkpt>
      <trkpt lat="45.66637" lon="3.3002">
        <ele>656</ele>
        <time>2017-09-24T13:40:15Z</time>
      </trkpt>
      <trkpt lat="45.66632" lon="3.30046">
        <ele>656</ele>
        <time>2017-09-24T13:40:27Z</time>
      </trkpt>
      <trkpt lat="45.66633" lon="3.30066">
        <ele>656</ele>
        <time>2017-09-24T13:40:36Z</time>
      </trkpt>
      <trkpt lat="45.66637" lon="3.30078">
        <ele>656</ele>
        <time>2017-09-24T13:40:42Z</time>
      </trkpt>
      <trkpt lat="45.66642" lon="3.30098">
        <ele>657</ele>
        <time>2017-09-24T13:40:52Z</time>
      </trkpt>
      <trkpt lat="45.66647" lon="3.3012">
        <ele>658</ele>
        <time>2017-09-24T13:41:03Z</time>
      </trkpt>
      <trkpt lat="45.66648" lon="3.30138">
        <ele>658</ele>
        <time>2017-09-24T13:41:12Z</time>
      </trkpt>
      <trkpt lat="45.66649" lon="3.30152">
        <ele>658</ele>
        <time>2017-09-24T13:41:19Z</time>
      </trkpt>
      <trkpt lat="45.66653" lon="3.3017">
        <ele>658</ele>
        <time>2017-09-24T13:41:28Z</time>
      </trkpt>
      <trkpt lat="45.66655" lon="3.30175">
        <ele>659</ele>
        <time>2017-09-24T13:41:34Z</time>
      </trkpt>
      <trkpt lat="45.66659" lon="3.30178">
        <ele>659</ele>
        <time>2017-09-24T13:41:41Z</time>
      </trkpt>
      <trkpt lat="45.66662" lon="3.3018">
        <ele>660</ele>
        <time>2017-09-24T13:41:49Z</time>
      </trkpt>
      <trkpt lat="45.66663" lon="3.30184">
        <ele>659</ele>
        <time>2017-09-24T13:41:53Z</time>
      </trkpt>
      <trkpt lat="45.66672" lon="3.30191">
        <ele>660</ele>
        <time>2017-09-24T13:42:00Z</time>
      </trkpt>
      <trkpt lat="45.66679" lon="3.30202">
        <ele>660</ele>
        <time>2017-09-24T13:42:10Z</time>
      </trkpt>
      <trkpt lat="45.66676" lon="3.30195">
        <ele>660</ele>
        <time>2017-09-24T13:42:17Z</time>
      </trkpt>
      <trkpt lat="45.66664" lon="3.30183">
        <ele>660</ele>
        <time>2017-09-24T13:42:26Z</time>
      </trkpt>
      <trkpt lat="45.66661" lon="3.30183">
        <ele>659</ele>
        <time>2017-09-24T13:42:28Z</time>
      </trkpt>
      <trkpt lat="45.66658" lon="3.30191">
        <ele>658</ele>
        <time>2017-09-24T13:42:33Z</time>
      </trkpt>
      <trkpt lat="45.66659" lon="3.30194">
        <ele>657</ele>
        <time>2017-09-24T13:42:34Z</time>
      </trkpt>
      <trkpt lat="45.66662" lon="3.30211">
        <ele>656</ele>
        <time>2017-09-24T13:42:42Z</time>
      </trkpt>
      <trkpt lat="45.66667" lon="3.3023">
        <ele>655</ele>
        <time>2017-09-24T13:42:51Z</time>
      </trkpt>
      <trkpt lat="45.66674" lon="3.30247">
        <ele>654</ele>
        <time>2017-09-24T13:42:59Z</time>
      </trkpt>
      <trkpt lat="45.66681" lon="3.30265">
        <ele>653</ele>
        <time>2017-09-24T13:43:08Z</time>
      </trkpt>
      <trkpt lat="45.66687" lon="3.30285">
        <ele>652</ele>
        <time>2017-09-24T13:43:17Z</time>
      </trkpt>
      <trkpt lat="45.66688" lon="3.30289">
        <ele>652</ele>
        <time>2017-09-24T13:43:19Z</time>
      </trkpt>
      <trkpt lat="45.66693" lon="3.30309">
        <ele>650</ele>
        <time>2017-09-24T13:43:28Z</time>
      </trkpt>
      <trkpt lat="45.66698" lon="3.30329">
        <ele>649</ele>
        <time>2017-09-24T13:43:37Z</time>
      </trkpt>
      <trkpt lat="45.667" lon="3.30352">
        <ele>647</ele>
        <time>2017-09-24T13:43:47Z</time>
      </trkpt>
      <trkpt lat="45.667" lon="3.30368">
        <ele>646</ele>
        <time>2017-09-24T13:43:54Z</time>
      </trkpt>
      <trkpt lat="45.667" lon="3.30389">
        <ele>644</ele>
        <time>2017-09-24T13:44:03Z</time>
      </trkpt>
      <trkpt lat="45.667" lon="3.30413">
        <ele>643</ele>
        <time>2017-09-24T13:44:13Z</time>
      </trkpt>
      <trkpt lat="45.66703" lon="3.30431">
        <ele>642</ele>
        <time>2017-09-24T13:44:21Z</time>
      </trkpt>
      <trkpt lat="45.66709" lon="3.30457">
        <ele>641</ele>
        <time>2017-09-24T13:44:33Z</time>
      </trkpt>
      <trkpt lat="45.66714" lon="3.30473">
        <ele>640</ele>
        <time>2017-09-24T13:44:40Z</time>
      </trkpt>
      <trkpt lat="45.66716" lon="3.30474">
        <ele>640</ele>
        <time>2017-09-24T13:44:41Z</time>
      </trkpt>
      <trkpt lat="45.6672" lon="3.30484">
        <ele>640</ele>
        <time>2017-09-24T13:44:46Z</time>
      </trkpt>
      <trkpt lat="45.66729" lon="3.30509">
        <ele>639</ele>
        <time>2017-09-24T13:44:58Z</time>
      </trkpt>
      <trkpt lat="45.66736" lon="3.30534">
        <ele>637</ele>
        <time>2017-09-24T13:45:09Z</time>
      </trkpt>
      <trkpt lat="45.66739" lon="3.30549">
        <ele>637</ele>
        <time>2017-09-24T13:45:16Z</time>
      </trkpt>
      <trkpt lat="45.66746" lon="3.30577">
        <ele>635</ele>
        <time>2017-09-24T13:45:31Z</time>
      </trkpt>
      <trkpt lat="45.66747" lon="3.30584">
        <ele>635</ele>
        <time>2017-09-24T13:45:36Z</time>
      </trkpt>
      <trkpt lat="45.6675" lon="3.30604">
        <ele>634</ele>
        <time>2017-09-24T13:45:45Z</time>
      </trkpt>
      <trkpt lat="45.66751" lon="3.30614">
        <ele>633</ele>
        <time>2017-09-24T13:45:50Z</time>
      </trkpt>
      <trkpt lat="45.66753" lon="3.30631">
        <ele>631</ele>
        <time>2017-09-24T13:45:57Z</time>
      </trkpt>
      <trkpt lat="45.66758" lon="3.30652">
        <ele>630</ele>
        <time>2017-09-24T13:46:07Z</time>
      </trkpt>
      <trkpt lat="45.66767" lon="3.30675">
        <ele>628</ele>
        <time>2017-09-24T13:46:19Z</time>
      </trkpt>
      <trkpt lat="45.66776" lon="3.30695">
        <ele>628</ele>
        <time>2017-09-24T13:46:29Z</time>
      </trkpt>
      <trkpt lat="45.66784" lon="3.30718">
        <ele>627</ele>
        <time>2017-09-24T13:46:40Z</time>
      </trkpt>
      <trkpt lat="45.66787" lon="3.30735">
        <ele>627</ele>
        <time>2017-09-24T13:46:48Z</time>
      </trkpt>
      <trkpt lat="45.66793" lon="3.3076">
        <ele>626</ele>
        <time>2017-09-24T13:46:59Z</time>
      </trkpt>
      <trkpt lat="45.66796" lon="3.3077">
        <ele>625</ele>
        <time>2017-09-24T13:47:04Z</time>
      </trkpt>
      <trkpt lat="45.66797" lon="3.30788">
        <ele>624</ele>
        <time>2017-09-24T13:47:12Z</time>
      </trkpt>
      <trkpt lat="45.668" lon="3.30814">
        <ele>621</ele>
        <time>2017-09-24T13:47:27Z</time>
      </trkpt>
      <trkpt lat="45.66801" lon="3.3084">
        <ele>619</ele>
        <time>2017-09-24T13:47:39Z</time>
      </trkpt>
      <trkpt lat="45.66802" lon="3.30858">
        <ele>617</ele>
        <time>2017-09-24T13:47:47Z</time>
      </trkpt>
      <trkpt lat="45.66805" lon="3.30876">
        <ele>616</ele>
        <time>2017-09-24T13:47:55Z</time>
      </trkpt>
      <trkpt lat="45.66809" lon="3.30894">
        <ele>614</ele>
        <time>2017-09-24T13:48:03Z</time>
      </trkpt>
      <trkpt lat="45.66813" lon="3.30905">
        <ele>613</ele>
        <time>2017-09-24T13:48:08Z</time>
      </trkpt>
      <trkpt lat="45.66818" lon="3.30921">
        <ele>612</ele>
        <time>2017-09-24T13:48:16Z</time>
      </trkpt>
      <trkpt lat="45.66826" lon="3.30937">
        <ele>611</ele>
        <time>2017-09-24T13:48:24Z</time>
      </trkpt>
      <trkpt lat="45.66839" lon="3.30955">
        <ele>611</ele>
        <time>2017-09-24T13:48:35Z</time>
      </trkpt>
      <trkpt lat="45.66848" lon="3.30968">
        <ele>611</ele>
        <time>2017-09-24T13:48:43Z</time>
      </trkpt>
      <trkpt lat="45.66859" lon="3.3098">
        <ele>611</ele>
        <time>2017-09-24T13:48:52Z</time>
      </trkpt>
      <trkpt lat="45.66871" lon="3.30992">
        <ele>611</ele>
        <time>2017-09-24T13:49:01Z</time>
      </trkpt>
      <trkpt lat="45.66883" lon="3.31007">
        <ele>611</ele>
        <time>2017-09-24T13:49:11Z</time>
      </trkpt>
      <trkpt lat="45.66896" lon="3.31023">
        <ele>611</ele>
        <time>2017-09-24T13:49:22Z</time>
      </trkpt>
      <trkpt lat="45.66909" lon="3.31037">
        <ele>612</ele>
        <time>2017-09-24T13:49:32Z</time>
      </trkpt>
      <trkpt lat="45.66917" lon="3.31045">
        <ele>612</ele>
        <time>2017-09-24T13:49:38Z</time>
      </trkpt>
      <trkpt lat="45.66923" lon="3.31054">
        <ele>612</ele>
        <time>2017-09-24T13:49:44Z</time>
      </trkpt>
      <trkpt lat="45.66924" lon="3.31055">
        <ele>612</ele>
        <time>2017-09-24T13:49:45Z</time>
      </trkpt>
      <trkpt lat="45.6693" lon="3.31065">
        <ele>612</ele>
        <time>2017-09-24T13:49:51Z</time>
      </trkpt>
      <trkpt lat="45.66937" lon="3.31073">
        <ele>612</ele>
        <time>2017-09-24T13:49:57Z</time>
      </trkpt>
      <trkpt lat="45.66945" lon="3.31084">
        <ele>612</ele>
        <time>2017-09-24T13:50:04Z</time>
      </trkpt>
      <trkpt lat="45.66945" lon="3.31086">
        <ele>612</ele>
        <time>2017-09-24T13:50:05Z</time>
      </trkpt>
      <trkpt lat="45.66951" lon="3.31093">
        <ele>612</ele>
        <time>2017-09-24T13:50:10Z</time>
      </trkpt>
      <trkpt lat="45.6696" lon="3.31113">
        <ele>611</ele>
        <time>2017-09-24T13:50:20Z</time>
      </trkpt>
      <trkpt lat="45.66963" lon="3.31122">
        <ele>610</ele>
        <time>2017-09-24T13:50:26Z</time>
      </trkpt>
      <trkpt lat="45.66963" lon="3.31126">
        <ele>610</ele>
        <time>2017-09-24T13:50:33Z</time>
      </trkpt>
      <trkpt lat="45.66964" lon="3.31132">
        <ele>609</ele>
        <time>2017-09-24T13:50:39Z</time>
      </trkpt>
      <trkpt lat="45.66965" lon="3.31147">
        <ele>607</ele>
        <time>2017-09-24T13:50:46Z</time>
      </trkpt>
      <trkpt lat="45.66965" lon="3.31155">
        <ele>606</ele>
        <time>2017-09-24T13:50:50Z</time>
      </trkpt>
      <trkpt lat="45.66965" lon="3.31165">
        <ele>605</ele>
        <time>2017-09-24T13:50:55Z</time>
      </trkpt>
      <trkpt lat="45.66966" lon="3.31181">
        <ele>603</ele>
        <time>2017-09-24T13:51:03Z</time>
      </trkpt>
      <trkpt lat="45.66968" lon="3.31192">
        <ele>603</ele>
        <time>2017-09-24T13:51:09Z</time>
      </trkpt>
      <trkpt lat="45.66971" lon="3.31207">
        <ele>602</ele>
        <time>2017-09-24T13:51:17Z</time>
      </trkpt>
      <trkpt lat="45.66973" lon="3.31217">
        <ele>602</ele>
        <time>2017-09-24T13:51:22Z</time>
      </trkpt>
      <trkpt lat="45.66976" lon="3.31228">
        <ele>602</ele>
        <time>2017-09-24T13:51:28Z</time>
      </trkpt>
      <trkpt lat="45.66976" lon="3.3123">
        <ele>602</ele>
        <time>2017-09-24T13:51:29Z</time>
      </trkpt>
      <trkpt lat="45.66979" lon="3.31241">
        <ele>601</ele>
        <time>2017-09-24T13:51:36Z</time>
      </trkpt>
      <trkpt lat="45.6698" lon="3.31243">
        <ele>601</ele>
        <time>2017-09-24T13:51:37Z</time>
      </trkpt>
      <trkpt lat="45.66979" lon="3.31254">
        <ele>601</ele>
        <time>2017-09-24T13:51:43Z</time>
      </trkpt>
      <trkpt lat="45.66979" lon="3.31256">
        <ele>601</ele>
        <time>2017-09-24T13:51:44Z</time>
      </trkpt>
      <trkpt lat="45.6698" lon="3.31257">
        <ele>601</ele>
        <time>2017-09-24T13:51:45Z</time>
      </trkpt>
      <trkpt lat="45.6698" lon="3.31264">
        <ele>600</ele>
        <time>2017-09-24T13:51:49Z</time>
      </trkpt>
      <trkpt lat="45.66981" lon="3.31271">
        <ele>600</ele>
        <time>2017-09-24T13:51:53Z</time>
      </trkpt>
      <trkpt lat="45.66981" lon="3.31273">
        <ele>600</ele>
        <time>2017-09-24T13:51:54Z</time>
      </trkpt>
      <trkpt lat="45.6698" lon="3.31273">
        <ele>600</ele>
        <time>2017-09-24T13:52:02Z</time>
      </trkpt>
      <trkpt lat="45.66974" lon="3.31281">
        <ele>598</ele>
        <time>2017-09-24T13:52:32Z</time>
      </trkpt>
      <trkpt lat="45.66973" lon="3.31283">
        <ele>597</ele>
        <time>2017-09-24T13:52:40Z</time>
      </trkpt>
      <trkpt lat="45.66971" lon="3.31305">
        <ele>594</ele>
        <time>2017-09-24T13:53:18Z</time>
      </trkpt>
      <trkpt lat="45.66959" lon="3.31303">
        <ele>593</ele>
        <time>2017-09-24T13:53:26Z</time>
      </trkpt>
      <trkpt lat="45.66951" lon="3.31303">
        <ele>592</ele>
        <time>2017-09-24T13:53:31Z</time>
      </trkpt>
      <trkpt lat="45.6694" lon="3.31305">
        <ele>591</ele>
        <time>2017-09-24T13:53:38Z</time>
      </trkpt>
      <trkpt lat="45.66931" lon="3.31307">
        <ele>589</ele>
        <time>2017-09-24T13:53:42Z</time>
      </trkpt>
      <trkpt lat="45.66922" lon="3.31309">
        <ele>589</ele>
        <time>2017-09-24T13:53:48Z</time>
      </trkpt>
      <trkpt lat="45.6691" lon="3.31313">
        <ele>588</ele>
        <time>2017-09-24T13:53:56Z</time>
      </trkpt>
      <trkpt lat="45.66901" lon="3.31318">
        <ele>587</ele>
        <time>2017-09-24T13:54:03Z</time>
      </trkpt>
      <trkpt lat="45.66896" lon="3.31324">
        <ele>587</ele>
        <time>2017-09-24T13:54:08Z</time>
      </trkpt>
      <trkpt lat="45.66889" lon="3.31326">
        <ele>587</ele>
        <time>2017-09-24T13:54:14Z</time>
      </trkpt>
      <trkpt lat="45.66884" lon="3.31329">
        <ele>586</ele>
        <time>2017-09-24T13:54:18Z</time>
      </trkpt>
      <trkpt lat="45.6688" lon="3.31331">
        <ele>586</ele>
        <time>2017-09-24T13:54:21Z</time>
      </trkpt>
      <trkpt lat="45.66876" lon="3.31343">
        <ele>586</ele>
        <time>2017-09-24T13:54:29Z</time>
      </trkpt>
      <trkpt lat="45.66876" lon="3.31344">
        <ele>586</ele>
        <time>2017-09-24T13:54:30Z</time>
      </trkpt>
      <trkpt lat="45.66879" lon="3.31351">
        <ele>586</ele>
        <time>2017-09-24T13:54:34Z</time>
      </trkpt>
      <trkpt lat="45.6688" lon="3.31357">
        <ele>586</ele>
        <time>2017-09-24T13:54:38Z</time>
      </trkpt>
      <trkpt lat="45.66885" lon="3.31367">
        <ele>586</ele>
        <time>2017-09-24T13:54:45Z</time>
      </trkpt>
      <trkpt lat="45.66886" lon="3.3137">
        <ele>586</ele>
        <time>2017-09-24T13:54:48Z</time>
      </trkpt>
      <trkpt lat="45.66888" lon="3.31379">
        <ele>587</ele>
        <time>2017-09-24T13:54:54Z</time>
      </trkpt>
      <trkpt lat="45.66891" lon="3.31387">
        <ele>587</ele>
        <time>2017-09-24T13:55:00Z</time>
      </trkpt>
      <trkpt lat="45.66895" lon="3.31396">
        <ele>587</ele>
        <time>2017-09-24T13:55:06Z</time>
      </trkpt>
      <trkpt lat="45.66896" lon="3.31401">
        <ele>587</ele>
        <time>2017-09-24T13:55:09Z</time>
      </trkpt>
      <trkpt lat="45.66901" lon="3.31415">
        <ele>587</ele>
        <time>2017-09-24T13:55:18Z</time>
      </trkpt>
      <trkpt lat="45.66906" lon="3.31429">
        <ele>587</ele>
        <time>2017-09-24T13:55:27Z</time>
      </trkpt>
      <trkpt lat="45.66911" lon="3.31444">
        <ele>587</ele>
        <time>2017-09-24T13:55:36Z</time>
      </trkpt>
      <trkpt lat="45.66912" lon="3.31446">
        <ele>587</ele>
        <time>2017-09-24T13:55:37Z</time>
      </trkpt>
      <trkpt lat="45.66915" lon="3.31454">
        <ele>587</ele>
        <time>2017-09-24T13:55:42Z</time>
      </trkpt>
      <trkpt lat="45.66918" lon="3.31459">
        <ele>586</ele>
        <time>2017-09-24T13:55:45Z</time>
      </trkpt>
      <trkpt lat="45.66926" lon="3.31473">
        <ele>586</ele>
        <time>2017-09-24T13:55:54Z</time>
      </trkpt>
      <trkpt lat="45.66932" lon="3.31485">
        <ele>586</ele>
        <time>2017-09-24T13:56:01Z</time>
      </trkpt>
      <trkpt lat="45.66934" lon="3.31492">
        <ele>586</ele>
        <time>2017-09-24T13:56:05Z</time>
      </trkpt>
      <trkpt lat="45.66935" lon="3.31491">
        <ele>586</ele>
        <time>2017-09-24T13:56:09Z</time>
      </trkpt>
      <trkpt lat="45.66936" lon="3.31491">
        <ele>586</ele>
        <time>2017-09-24T13:56:16Z</time>
      </trkpt>
      <trkpt lat="45.66939" lon="3.31495">
        <ele>586</ele>
        <time>2017-09-24T13:57:25Z</time>
      </trkpt>
      <trkpt lat="45.66939" lon="3.31499">
        <ele>586</ele>
        <time>2017-09-24T13:57:48Z</time>
      </trkpt>
      <trkpt lat="45.6694" lon="3.31499">
        <ele>586</ele>
        <time>2017-09-24T13:57:57Z</time>
      </trkpt>
      <trkpt lat="45.66941" lon="3.315">
        <ele>586</ele>
        <time>2017-09-24T13:58:04Z</time>
      </trkpt>
      <trkpt lat="45.66942" lon="3.31502">
        <ele>586</ele>
        <time>2017-09-24T13:58:51Z</time>
      </trkpt>
      <trkpt lat="45.66942" lon="3.31501">
        <ele>585</ele>
        <time>2017-09-24T13:59:01Z</time>
      </trkpt>
      <trkpt lat="45.66941" lon="3.31502">
        <ele>586</ele>
        <time>2017-09-24T13:59:20Z</time>
      </trkpt>
      <trkpt lat="45.6694" lon="3.31504">
        <ele>586</ele>
        <time>2017-09-24T13:59:28Z</time>
      </trkpt>
      <trkpt lat="45.66938" lon="3.31503">
        <ele>586</ele>
        <time>2017-09-24T13:59:43Z</time>
      </trkpt>
      <trkpt lat="45.66939" lon="3.31502">
        <ele>586</ele>
        <time>2017-09-24T13:59:53Z</time>
      </trkpt>
      <trkpt lat="45.66942" lon="3.31507">
        <ele>586</ele>
        <time>2017-09-24T13:59:58Z</time>
      </trkpt>
      <trkpt lat="45.66944" lon="3.31515">
        <ele>586</ele>
        <time>2017-09-24T14:00:02Z</time>
      </trkpt>
      <trkpt lat="45.66946" lon="3.3156">
        <ele>584</ele>
        <time>2017-09-24T14:00:23Z</time>
      </trkpt>
      <trkpt lat="45.66944" lon="3.31574">
        <ele>584</ele>
        <time>2017-09-24T14:00:31Z</time>
      </trkpt>
      <trkpt lat="45.66944" lon="3.31574">
        <ele>584</ele>
        <time>2017-09-24T14:00:32Z</time>
      </trkpt>
      <trkpt lat="45.66945" lon="3.31573">
        <ele>584</ele>
        <time>2017-09-24T14:00:36Z</time>
      </trkpt>
      <trkpt lat="45.66944" lon="3.31581">
        <ele>584</ele>
        <time>2017-09-24T14:00:44Z</time>
      </trkpt>
      <trkpt lat="45.66943" lon="3.31587">
        <ele>584</ele>
        <time>2017-09-24T14:00:49Z</time>
      </trkpt>
      <trkpt lat="45.66942" lon="3.3159">
        <ele>585</ele>
        <time>2017-09-24T14:01:01Z</time>
      </trkpt>
      <trkpt lat="45.66936" lon="3.31609">
        <ele>587</ele>
        <time>2017-09-24T14:01:21Z</time>
      </trkpt>
      <trkpt lat="45.66932" lon="3.31622">
        <ele>588</ele>
        <time>2017-09-24T14:01:28Z</time>
      </trkpt>
      <trkpt lat="45.66927" lon="3.31639">
        <ele>590</ele>
        <time>2017-09-24T14:01:36Z</time>
      </trkpt>
      <trkpt lat="45.6692" lon="3.31664">
        <ele>591</ele>
        <time>2017-09-24T14:01:48Z</time>
      </trkpt>
      <trkpt lat="45.66915" lon="3.31682">
        <ele>592</ele>
        <time>2017-09-24T14:01:57Z</time>
      </trkpt>
      <trkpt lat="45.66917" lon="3.31693">
        <ele>593</ele>
        <time>2017-09-24T14:02:03Z</time>
      </trkpt>
      <trkpt lat="45.66927" lon="3.31705">
        <ele>593</ele>
        <time>2017-09-24T14:02:11Z</time>
      </trkpt>
      <trkpt lat="45.66934" lon="3.31714">
        <ele>593</ele>
        <time>2017-09-24T14:02:18Z</time>
      </trkpt>
      <trkpt lat="45.66941" lon="3.3173">
        <ele>594</ele>
        <time>2017-09-24T14:02:26Z</time>
      </trkpt>
      <trkpt lat="45.66945" lon="3.31743">
        <ele>594</ele>
        <time>2017-09-24T14:02:34Z</time>
      </trkpt>
      <trkpt lat="45.66945" lon="3.31745">
        <ele>594</ele>
        <time>2017-09-24T14:02:35Z</time>
      </trkpt>
      <trkpt lat="45.66948" lon="3.31753">
        <ele>594</ele>
        <time>2017-09-24T14:02:42Z</time>
      </trkpt>
      <trkpt lat="45.66949" lon="3.31754">
        <ele>594</ele>
        <time>2017-09-24T14:02:43Z</time>
      </trkpt>
      <trkpt lat="45.66951" lon="3.31755">
        <ele>594</ele>
        <time>2017-09-24T14:02:45Z</time>
      </trkpt>
      <trkpt lat="45.66957" lon="3.31753">
        <ele>593</ele>
        <time>2017-09-24T14:02:50Z</time>
      </trkpt>
      <trkpt lat="45.66963" lon="3.3176">
        <ele>593</ele>
        <time>2017-09-24T14:02:55Z</time>
      </trkpt>
      <trkpt lat="45.66965" lon="3.31762">
        <ele>593</ele>
        <time>2017-09-24T14:02:57Z</time>
      </trkpt>
      <trkpt lat="45.66973" lon="3.31759">
        <ele>592</ele>
        <time>2017-09-24T14:03:02Z</time>
      </trkpt>
      <trkpt lat="45.66974" lon="3.31759">
        <ele>592</ele>
        <time>2017-09-24T14:03:03Z</time>
      </trkpt>
      <trkpt lat="45.66985" lon="3.31759">
        <ele>591</ele>
        <time>2017-09-24T14:03:09Z</time>
      </trkpt>
      <trkpt lat="45.6701" lon="3.31764">
        <ele>590</ele>
        <time>2017-09-24T14:03:27Z</time>
      </trkpt>
      <trkpt lat="45.67017" lon="3.31765">
        <ele>590</ele>
        <time>2017-09-24T14:03:31Z</time>
      </trkpt>
      <trkpt lat="45.67017" lon="3.31769">
        <ele>590</ele>
        <time>2017-09-24T14:03:38Z</time>
      </trkpt>
      <trkpt lat="45.67019" lon="3.31772">
        <ele>590</ele>
        <time>2017-09-24T14:03:59Z</time>
      </trkpt>
      <trkpt lat="45.67018" lon="3.31773">
        <ele>591</ele>
        <time>2017-09-24T14:04:03Z</time>
      </trkpt>
      <trkpt lat="45.67018" lon="3.31773">
        <ele>591</ele>
        <time>2017-09-24T14:04:07Z</time>
      </trkpt>
      <trkpt lat="45.67015" lon="3.31771">
        <ele>591</ele>
        <time>2017-09-24T14:04:11Z</time>
      </trkpt>
      <trkpt lat="45.67015" lon="3.31774">
        <ele>591</ele>
        <time>2017-09-24T14:04:18Z</time>
      </trkpt>
      <trkpt lat="45.67016" lon="3.31776">
        <ele>591</ele>
        <time>2017-09-24T14:04:22Z</time>
      </trkpt>
      <trkpt lat="45.67018" lon="3.31778">
        <ele>591</ele>
        <time>2017-09-24T14:04:28Z</time>
      </trkpt>
      <trkpt lat="45.67018" lon="3.3178">
        <ele>591</ele>
        <time>2017-09-24T14:04:30Z</time>
      </trkpt>
      <trkpt lat="45.67019" lon="3.31785">
        <ele>592</ele>
        <time>2017-09-24T14:04:33Z</time>
      </trkpt>
      <trkpt lat="45.67023" lon="3.31787">
        <ele>592</ele>
        <time>2017-09-24T14:04:38Z</time>
      </trkpt>
      <trkpt lat="45.67025" lon="3.31788">
        <ele>592</ele>
        <time>2017-09-24T14:04:43Z</time>
      </trkpt>
      <trkpt lat="45.67028" lon="3.31793">
        <ele>592</ele>
        <time>2017-09-24T14:04:47Z</time>
      </trkpt>
      <trkpt lat="45.6703" lon="3.31796">
        <ele>592</ele>
        <time>2017-09-24T14:04:48Z</time>
      </trkpt>
      <trkpt lat="45.67032" lon="3.31799">
        <ele>592</ele>
        <time>2017-09-24T14:04:52Z</time>
      </trkpt>
      <trkpt lat="45.67033" lon="3.318">
        <ele>592</ele>
        <time>2017-09-24T14:04:53Z</time>
      </trkpt>
      <trkpt lat="45.67036" lon="3.318">
        <ele>592</ele>
        <time>2017-09-24T14:05:01Z</time>
      </trkpt>
      <trkpt lat="45.67049" lon="3.31798">
        <ele>591</ele>
        <time>2017-09-24T14:05:08Z</time>
      </trkpt>
      <trkpt lat="45.6705" lon="3.31799">
        <ele>591</ele>
        <time>2017-09-24T14:05:10Z</time>
      </trkpt>
      <trkpt lat="45.67052" lon="3.31799">
        <ele>591</ele>
        <time>2017-09-24T14:05:11Z</time>
      </trkpt>
      <trkpt lat="45.67055" lon="3.31802">
        <ele>591</ele>
        <time>2017-09-24T14:05:18Z</time>
      </trkpt>
      <trkpt lat="45.6706" lon="3.31804">
        <ele>591</ele>
        <time>2017-09-24T14:05:23Z</time>
      </trkpt>
      <trkpt lat="45.6707" lon="3.3181">
        <ele>591</ele>
        <time>2017-09-24T14:05:31Z</time>
      </trkpt>
      <trkpt lat="45.67078" lon="3.31812">
        <ele>590</ele>
        <time>2017-09-24T14:05:37Z</time>
      </trkpt>
      <trkpt lat="45.67089" lon="3.31815">
        <ele>590</ele>
        <time>2017-09-24T14:05:44Z</time>
      </trkpt>
      <trkpt lat="45.67099" lon="3.31819">
        <ele>590</ele>
        <time>2017-09-24T14:05:51Z</time>
      </trkpt>
      <trkpt lat="45.67106" lon="3.31821">
        <ele>589</ele>
        <time>2017-09-24T14:05:56Z</time>
      </trkpt>
      <trkpt lat="45.67113" lon="3.31825">
        <ele>589</ele>
        <time>2017-09-24T14:06:01Z</time>
      </trkpt>
      <trkpt lat="45.67118" lon="3.31828">
        <ele>589</ele>
        <time>2017-09-24T14:06:05Z</time>
      </trkpt>
      <trkpt lat="45.67122" lon="3.31831">
        <ele>589</ele>
        <time>2017-09-24T14:06:10Z</time>
      </trkpt>
      <trkpt lat="45.67125" lon="3.31832">
        <ele>589</ele>
        <time>2017-09-24T14:06:12Z</time>
      </trkpt>
      <trkpt lat="45.67134" lon="3.31825">
        <ele>587</ele>
        <time>2017-09-24T14:06:19Z</time>
      </trkpt>
      <trkpt lat="45.67137" lon="3.31825">
        <ele>587</ele>
        <time>2017-09-24T14:06:24Z</time>
      </trkpt>
      <trkpt lat="45.67138" lon="3.31825">
        <ele>587</ele>
        <time>2017-09-24T14:06:25Z</time>
      </trkpt>
      <trkpt lat="45.67145" lon="3.31824">
        <ele>587</ele>
        <time>2017-09-24T14:06:29Z</time>
      </trkpt>
      <trkpt lat="45.67147" lon="3.31823">
        <ele>587</ele>
        <time>2017-09-24T14:06:31Z</time>
      </trkpt>
      <trkpt lat="45.6715" lon="3.31814">
        <ele>586</ele>
        <time>2017-09-24T14:06:37Z</time>
      </trkpt>
      <trkpt lat="45.67151" lon="3.31806">
        <ele>585</ele>
        <time>2017-09-24T14:06:41Z</time>
      </trkpt>
      <trkpt lat="45.67155" lon="3.318">
        <ele>585</ele>
        <time>2017-09-24T14:06:47Z</time>
      </trkpt>
      <trkpt lat="45.67158" lon="3.31795">
        <ele>584</ele>
        <time>2017-09-24T14:06:51Z</time>
      </trkpt>
      <trkpt lat="45.67157" lon="3.31792">
        <ele>584</ele>
        <time>2017-09-24T14:06:52Z</time>
      </trkpt>
      <trkpt lat="45.67158" lon="3.31785">
        <ele>583</ele>
        <time>2017-09-24T14:06:57Z</time>
      </trkpt>
      <trkpt lat="45.67159" lon="3.31774">
        <ele>581</ele>
        <time>2017-09-24T14:07:02Z</time>
      </trkpt>
      <trkpt lat="45.67159" lon="3.31762">
        <ele>579</ele>
        <time>2017-09-24T14:07:08Z</time>
      </trkpt>
      <trkpt lat="45.67161" lon="3.31747">
        <ele>577</ele>
        <time>2017-09-24T14:07:14Z</time>
      </trkpt>
      <trkpt lat="45.67162" lon="3.31729">
        <ele>576</ele>
        <time>2017-09-24T14:07:24Z</time>
      </trkpt>
      <trkpt lat="45.67167" lon="3.3171">
        <ele>574</ele>
        <time>2017-09-24T14:07:35Z</time>
      </trkpt>
      <trkpt lat="45.67168" lon="3.31709">
        <ele>574</ele>
        <time>2017-09-24T14:07:36Z</time>
      </trkpt>
      <trkpt lat="45.67171" lon="3.317">
        <ele>573</ele>
        <time>2017-09-24T14:07:41Z</time>
      </trkpt>
      <trkpt lat="45.67172" lon="3.31697">
        <ele>573</ele>
        <time>2017-09-24T14:07:43Z</time>
      </trkpt>
      <trkpt lat="45.67176" lon="3.31686">
        <ele>573</ele>
        <time>2017-09-24T14:07:49Z</time>
      </trkpt>
      <trkpt lat="45.67178" lon="3.31679">
        <ele>572</ele>
        <time>2017-09-24T14:07:53Z</time>
      </trkpt>
      <trkpt lat="45.6718" lon="3.31672">
        <ele>573</ele>
        <time>2017-09-24T14:07:58Z</time>
      </trkpt>
      <trkpt lat="45.67182" lon="3.31664">
        <ele>573</ele>
        <time>2017-09-24T14:08:01Z</time>
      </trkpt>
      <trkpt lat="45.67185" lon="3.31659">
        <ele>573</ele>
        <time>2017-09-24T14:08:07Z</time>
      </trkpt>
      <trkpt lat="45.67185" lon="3.3166">
        <ele>573</ele>
        <time>2017-09-24T14:08:08Z</time>
      </trkpt>
      <trkpt lat="45.67189" lon="3.31662">
        <ele>573</ele>
        <time>2017-09-24T14:08:13Z</time>
      </trkpt>
      <trkpt lat="45.67195" lon="3.31666">
        <ele>573</ele>
        <time>2017-09-24T14:08:18Z</time>
      </trkpt>
      <trkpt lat="45.67203" lon="3.31666">
        <ele>573</ele>
        <time>2017-09-24T14:08:24Z</time>
      </trkpt>
      <trkpt lat="45.67205" lon="3.31667">
        <ele>573</ele>
        <time>2017-09-24T14:08:26Z</time>
      </trkpt>
      <trkpt lat="45.67209" lon="3.31667">
        <ele>573</ele>
        <time>2017-09-24T14:08:30Z</time>
      </trkpt>
      <trkpt lat="45.67213" lon="3.31666">
        <ele>573</ele>
        <time>2017-09-24T14:08:33Z</time>
      </trkpt>
      <trkpt lat="45.67219" lon="3.31666">
        <ele>573</ele>
        <time>2017-09-24T14:08:38Z</time>
      </trkpt>
      <trkpt lat="45.67221" lon="3.31666">
        <ele>573</ele>
        <time>2017-09-24T14:08:39Z</time>
      </trkpt>
      <trkpt lat="45.67222" lon="3.31666">
        <ele>573</ele>
        <time>2017-09-24T14:08:48Z</time>
      </trkpt>
      <trkpt lat="45.67224" lon="3.31665">
        <ele>573</ele>
        <time>2017-09-24T14:08:59Z</time>
      </trkpt>
      <trkpt lat="45.67226" lon="3.31664">
        <ele>573</ele>
        <time>2017-09-24T14:09:05Z</time>
      </trkpt>
      <trkpt lat="45.6723" lon="3.31666">
        <ele>573</ele>
        <time>2017-09-24T14:09:08Z</time>
      </trkpt>
      <trkpt lat="45.67236" lon="3.31667">
        <ele>572</ele>
        <time>2017-09-24T14:09:13Z</time>
      </trkpt>
      <trkpt lat="45.67244" lon="3.31672">
        <ele>572</ele>
        <time>2017-09-24T14:09:19Z</time>
      </trkpt>
      <trkpt lat="45.67252" lon="3.31679">
        <ele>572</ele>
        <time>2017-09-24T14:09:27Z</time>
      </trkpt>
      <trkpt lat="45.67255" lon="3.3168">
        <ele>572</ele>
        <time>2017-09-24T14:09:28Z</time>
      </trkpt>
      <trkpt lat="45.67258" lon="3.31679">
        <ele>572</ele>
        <time>2017-09-24T14:09:31Z</time>
      </trkpt>
      <trkpt lat="45.6727" lon="3.31677">
        <ele>571</ele>
        <time>2017-09-24T14:09:39Z</time>
      </trkpt>
      <trkpt lat="45.67271" lon="3.31677">
        <ele>571</ele>
        <time>2017-09-24T14:09:40Z</time>
      </trkpt>
      <trkpt lat="45.67279" lon="3.31678">
        <ele>571</ele>
        <time>2017-09-24T14:09:47Z</time>
      </trkpt>
      <trkpt lat="45.67281" lon="3.31679">
        <ele>571</ele>
        <time>2017-09-24T14:09:49Z</time>
      </trkpt>
      <trkpt lat="45.67289" lon="3.31683">
        <ele>571</ele>
        <time>2017-09-24T14:09:54Z</time>
      </trkpt>
      <trkpt lat="45.6729" lon="3.31684">
        <ele>571</ele>
        <time>2017-09-24T14:09:55Z</time>
      </trkpt>
      <trkpt lat="45.67291" lon="3.31684">
        <ele>571</ele>
        <time>2017-09-24T14:09:56Z</time>
      </trkpt>
      <trkpt lat="45.67295" lon="3.31686">
        <ele>571</ele>
        <time>2017-09-24T14:09:59Z</time>
      </trkpt>
      <trkpt lat="45.67305" lon="3.31692">
        <ele>571</ele>
        <time>2017-09-24T14:10:07Z</time>
      </trkpt>
      <trkpt lat="45.67316" lon="3.31692">
        <ele>571</ele>
        <time>2017-09-24T14:10:15Z</time>
      </trkpt>
      <trkpt lat="45.67325" lon="3.31694">
        <ele>571</ele>
        <time>2017-09-24T14:10:21Z</time>
      </trkpt>
      <trkpt lat="45.67336" lon="3.31697">
        <ele>571</ele>
        <time>2017-09-24T14:10:28Z</time>
      </trkpt>
      <trkpt lat="45.67338" lon="3.31697">
        <ele>571</ele>
        <time>2017-09-24T14:10:30Z</time>
      </trkpt>
      <trkpt lat="45.67343" lon="3.31699">
        <ele>571</ele>
        <time>2017-09-24T14:10:35Z</time>
      </trkpt>
      <trkpt lat="45.67349" lon="3.31698">
        <ele>571</ele>
        <time>2017-09-24T14:10:38Z</time>
      </trkpt>
      <trkpt lat="45.67358" lon="3.31696">
        <ele>571</ele>
        <time>2017-09-24T14:10:45Z</time>
      </trkpt>
      <trkpt lat="45.67359" lon="3.31695">
        <ele>571</ele>
        <time>2017-09-24T14:10:46Z</time>
      </trkpt>
      <trkpt lat="45.67367" lon="3.31689">
        <ele>570</ele>
        <time>2017-09-24T14:10:53Z</time>
      </trkpt>
      <trkpt lat="45.67367" lon="3.31689">
        <ele>570</ele>
        <time>2017-09-24T14:10:54Z</time>
      </trkpt>
      <trkpt lat="45.6737" lon="3.31687">
        <ele>570</ele>
        <time>2017-09-24T14:10:56Z</time>
      </trkpt>
      <trkpt lat="45.67374" lon="3.31684">
        <ele>570</ele>
        <time>2017-09-24T14:10:59Z</time>
      </trkpt>
      <trkpt lat="45.67376" lon="3.31683">
        <ele>570</ele>
        <time>2017-09-24T14:11:00Z</time>
      </trkpt>
      <trkpt lat="45.67378" lon="3.3168">
        <ele>570</ele>
        <time>2017-09-24T14:11:02Z</time>
      </trkpt>
      <trkpt lat="45.67385" lon="3.31676">
        <ele>569</ele>
        <time>2017-09-24T14:11:07Z</time>
      </trkpt>
      <trkpt lat="45.67398" lon="3.31676">
        <ele>570</ele>
        <time>2017-09-24T14:11:14Z</time>
      </trkpt>
      <trkpt lat="45.674" lon="3.31675">
        <ele>570</ele>
        <time>2017-09-24T14:11:16Z</time>
      </trkpt>
      <trkpt lat="45.67409" lon="3.31676">
        <ele>570</ele>
        <time>2017-09-24T14:11:22Z</time>
      </trkpt>
      <trkpt lat="45.6742" lon="3.31678">
        <ele>570</ele>
        <time>2017-09-24T14:11:30Z</time>
      </trkpt>
      <trkpt lat="45.6743" lon="3.31681">
        <ele>571</ele>
        <time>2017-09-24T14:11:38Z</time>
      </trkpt>
      <trkpt lat="45.67431" lon="3.31682">
        <ele>571</ele>
        <time>2017-09-24T14:11:40Z</time>
      </trkpt>
      <trkpt lat="45.67438" lon="3.31685">
        <ele>571</ele>
        <time>2017-09-24T14:11:46Z</time>
      </trkpt>
      <trkpt lat="45.67439" lon="3.31685">
        <ele>571</ele>
        <time>2017-09-24T14:11:47Z</time>
      </trkpt>
      <trkpt lat="45.67449" lon="3.31687">
        <ele>572</ele>
        <time>2017-09-24T14:11:53Z</time>
      </trkpt>
      <trkpt lat="45.67454" lon="3.31688">
        <ele>572</ele>
        <time>2017-09-24T14:11:58Z</time>
      </trkpt>
      <trkpt lat="45.67459" lon="3.3169">
        <ele>572</ele>
        <time>2017-09-24T14:12:03Z</time>
      </trkpt>
      <trkpt lat="45.67464" lon="3.31695">
        <ele>573</ele>
        <time>2017-09-24T14:12:07Z</time>
      </trkpt>
      <trkpt lat="45.67476" lon="3.31708">
        <ele>573</ele>
        <time>2017-09-24T14:12:19Z</time>
      </trkpt>
      <trkpt lat="45.67477" lon="3.3171">
        <ele>573</ele>
        <time>2017-09-24T14:12:21Z</time>
      </trkpt>
      <trkpt lat="45.67492" lon="3.31725">
        <ele>574</ele>
        <time>2017-09-24T14:12:33Z</time>
      </trkpt>
      <trkpt lat="45.67503" lon="3.31734">
        <ele>574</ele>
        <time>2017-09-24T14:12:43Z</time>
      </trkpt>
      <trkpt lat="45.67509" lon="3.31742">
        <ele>575</ele>
        <time>2017-09-24T14:12:49Z</time>
      </trkpt>
      <trkpt lat="45.67516" lon="3.31752">
        <ele>575</ele>
        <time>2017-09-24T14:12:58Z</time>
      </trkpt>
      <trkpt lat="45.67522" lon="3.31761">
        <ele>576</ele>
        <time>2017-09-24T14:13:03Z</time>
      </trkpt>
      <trkpt lat="45.67529" lon="3.31771">
        <ele>576</ele>
        <time>2017-09-24T14:13:10Z</time>
      </trkpt>
      <trkpt lat="45.67537" lon="3.31781">
        <ele>577</ele>
        <time>2017-09-24T14:13:18Z</time>
      </trkpt>
      <trkpt lat="45.67549" lon="3.31795">
        <ele>578</ele>
        <time>2017-09-24T14:13:29Z</time>
      </trkpt>
      <trkpt lat="45.67553" lon="3.318">
        <ele>578</ele>
        <time>2017-09-24T14:13:33Z</time>
      </trkpt>
      <trkpt lat="45.67564" lon="3.3181">
        <ele>578</ele>
        <time>2017-09-24T14:13:45Z</time>
      </trkpt>
      <trkpt lat="45.67575" lon="3.31818">
        <ele>577</ele>
        <time>2017-09-24T14:13:52Z</time>
      </trkpt>
      <trkpt lat="45.67575" lon="3.31818">
        <ele>577</ele>
        <time>2017-09-24T14:13:53Z</time>
      </trkpt>
      <trkpt lat="45.67578" lon="3.3182">
        <ele>577</ele>
        <time>2017-09-24T14:13:55Z</time>
      </trkpt>
      <trkpt lat="45.67586" lon="3.31827">
        <ele>577</ele>
        <time>2017-09-24T14:14:01Z</time>
      </trkpt>
      <trkpt lat="45.67594" lon="3.31832">
        <ele>576</ele>
        <time>2017-09-24T14:14:07Z</time>
      </trkpt>
      <trkpt lat="45.676" lon="3.31833">
        <ele>576</ele>
        <time>2017-09-24T14:14:12Z</time>
      </trkpt>
      <trkpt lat="45.67608" lon="3.31831">
        <ele>574</ele>
        <time>2017-09-24T14:14:18Z</time>
      </trkpt>
      <trkpt lat="45.6762" lon="3.31815">
        <ele>573</ele>
        <time>2017-09-24T14:14:28Z</time>
      </trkpt>
      <trkpt lat="45.67623" lon="3.31803">
        <ele>572</ele>
        <time>2017-09-24T14:14:35Z</time>
      </trkpt>
      <trkpt lat="45.67624" lon="3.31801">
        <ele>572</ele>
        <time>2017-09-24T14:14:36Z</time>
      </trkpt>
      <trkpt lat="45.67631" lon="3.31789">
        <ele>571</ele>
        <time>2017-09-24T14:14:44Z</time>
      </trkpt>
      <trkpt lat="45.67632" lon="3.31787">
        <ele>571</ele>
        <time>2017-09-24T14:14:45Z</time>
      </trkpt>
      <trkpt lat="45.67635" lon="3.31784">
        <ele>571</ele>
        <time>2017-09-24T14:14:48Z</time>
      </trkpt>
      <trkpt lat="45.67636" lon="3.31782">
        <ele>571</ele>
        <time>2017-09-24T14:14:50Z</time>
      </trkpt>
      <trkpt lat="45.67641" lon="3.3178">
        <ele>571</ele>
        <time>2017-09-24T14:14:55Z</time>
      </trkpt>
      <trkpt lat="45.6765" lon="3.31785">
        <ele>570</ele>
        <time>2017-09-24T14:15:00Z</time>
      </trkpt>
      <trkpt lat="45.67662" lon="3.31804">
        <ele>570</ele>
        <time>2017-09-24T14:15:10Z</time>
      </trkpt>
      <trkpt lat="45.67669" lon="3.31816">
        <ele>569</ele>
        <time>2017-09-24T14:15:17Z</time>
      </trkpt>
      <trkpt lat="45.6767" lon="3.31817">
        <ele>569</ele>
        <time>2017-09-24T14:15:19Z</time>
      </trkpt>
      <trkpt lat="45.67678" lon="3.31831">
        <ele>569</ele>
        <time>2017-09-24T14:15:26Z</time>
      </trkpt>
      <trkpt lat="45.67684" lon="3.31841">
        <ele>569</ele>
        <time>2017-09-24T14:15:32Z</time>
      </trkpt>
      <trkpt lat="45.67693" lon="3.31855">
        <ele>569</ele>
        <time>2017-09-24T14:15:40Z</time>
      </trkpt>
      <trkpt lat="45.67703" lon="3.31868">
        <ele>568</ele>
        <time>2017-09-24T14:15:48Z</time>
      </trkpt>
      <trkpt lat="45.67714" lon="3.31882">
        <ele>567</ele>
        <time>2017-09-24T14:15:57Z</time>
      </trkpt>
      <trkpt lat="45.67727" lon="3.31896">
        <ele>567</ele>
        <time>2017-09-24T14:16:07Z</time>
      </trkpt>
      <trkpt lat="45.67738" lon="3.31908">
        <ele>566</ele>
        <time>2017-09-24T14:16:16Z</time>
      </trkpt>
      <trkpt lat="45.67748" lon="3.31917">
        <ele>566</ele>
        <time>2017-09-24T14:16:23Z</time>
      </trkpt>
      <trkpt lat="45.67755" lon="3.31923">
        <ele>566</ele>
        <time>2017-09-24T14:16:30Z</time>
      </trkpt>
      <trkpt lat="45.67763" lon="3.31932">
        <ele>566</ele>
        <time>2017-09-24T14:16:36Z</time>
      </trkpt>
      <trkpt lat="45.67776" lon="3.31951">
        <ele>566</ele>
        <time>2017-09-24T14:16:48Z</time>
      </trkpt>
      <trkpt lat="45.67786" lon="3.31962">
        <ele>566</ele>
        <time>2017-09-24T14:16:56Z</time>
      </trkpt>
      <trkpt lat="45.67791" lon="3.31968">
        <ele>566</ele>
        <time>2017-09-24T14:17:01Z</time>
      </trkpt>
      <trkpt lat="45.67798" lon="3.31973">
        <ele>566</ele>
        <time>2017-09-24T14:17:06Z</time>
      </trkpt>
      <trkpt lat="45.67813" lon="3.31983">
        <ele>567</ele>
        <time>2017-09-24T14:17:16Z</time>
      </trkpt>
      <trkpt lat="45.67835" lon="3.31987">
        <ele>566</ele>
        <time>2017-09-24T14:17:33Z</time>
      </trkpt>
      <trkpt lat="45.67849" lon="3.31989">
        <ele>566</ele>
        <time>2017-09-24T14:17:41Z</time>
      </trkpt>
      <trkpt lat="45.67863" lon="3.31993">
        <ele>566</ele>
        <time>2017-09-24T14:17:50Z</time>
      </trkpt>
      <trkpt lat="45.67878" lon="3.31997">
        <ele>566</ele>
        <time>2017-09-24T14:17:59Z</time>
      </trkpt>
      <trkpt lat="45.67911" lon="3.3201">
        <ele>567</ele>
        <time>2017-09-24T14:18:21Z</time>
      </trkpt>
      <trkpt lat="45.67923" lon="3.32015">
        <ele>568</ele>
        <time>2017-09-24T14:18:31Z</time>
      </trkpt>
      <trkpt lat="45.67935" lon="3.32019">
        <ele>569</ele>
        <time>2017-09-24T14:18:39Z</time>
      </trkpt>
      <trkpt lat="45.67951" lon="3.32024">
        <ele>570</ele>
        <time>2017-09-24T14:18:51Z</time>
      </trkpt>
      <trkpt lat="45.67964" lon="3.32026">
        <ele>571</ele>
        <time>2017-09-24T14:19:00Z</time>
      </trkpt>
      <trkpt lat="45.67979" lon="3.32025">
        <ele>571</ele>
        <time>2017-09-24T14:19:10Z</time>
      </trkpt>
      <trkpt lat="45.68014" lon="3.32012">
        <ele>572</ele>
        <time>2017-09-24T14:19:33Z</time>
      </trkpt>
      <trkpt lat="45.68023" lon="3.32006">
        <ele>571</ele>
        <time>2017-09-24T14:19:41Z</time>
      </trkpt>
      <trkpt lat="45.68027" lon="3.32004">
        <ele>571</ele>
        <time>2017-09-24T14:19:48Z</time>
      </trkpt>
      <trkpt lat="45.68042" lon="3.32005">
        <ele>572</ele>
        <time>2017-09-24T14:19:57Z</time>
      </trkpt>
      <trkpt lat="45.68057" lon="3.3201">
        <ele>574</ele>
        <time>2017-09-24T14:20:08Z</time>
      </trkpt>
      <trkpt lat="45.68089" lon="3.32022">
        <ele>576</ele>
        <time>2017-09-24T14:20:29Z</time>
      </trkpt>
      <trkpt lat="45.68102" lon="3.32025">
        <ele>576</ele>
        <time>2017-09-24T14:20:38Z</time>
      </trkpt>
      <trkpt lat="45.68116" lon="3.32024">
        <ele>577</ele>
        <time>2017-09-24T14:20:48Z</time>
      </trkpt>
      <trkpt lat="45.68132" lon="3.32013">
        <ele>578</ele>
        <time>2017-09-24T14:21:00Z</time>
      </trkpt>
      <trkpt lat="45.68149" lon="3.31994">
        <ele>578</ele>
        <time>2017-09-24T14:21:14Z</time>
      </trkpt>
      <trkpt lat="45.68148" lon="3.31973">
        <ele>576</ele>
        <time>2017-09-24T14:21:27Z</time>
      </trkpt>
      <trkpt lat="45.68161" lon="3.31974">
        <ele>576</ele>
        <time>2017-09-24T14:21:29Z</time>
      </trkpt>
      <trkpt lat="45.68169" lon="3.31974">
        <ele>576</ele>
        <time>2017-09-24T14:21:33Z</time>
      </trkpt>
      <trkpt lat="45.68173" lon="3.31973">
        <ele>577</ele>
        <time>2017-09-24T14:21:35Z</time>
      </trkpt>
      <trkpt lat="45.68189" lon="3.31971">
        <ele>578</ele>
        <time>2017-09-24T14:21:45Z</time>
      </trkpt>
      <trkpt lat="45.68196" lon="3.31968">
        <ele>578</ele>
        <time>2017-09-24T14:21:51Z</time>
      </trkpt>
      <trkpt lat="45.68212" lon="3.31965">
        <ele>579</ele>
        <time>2017-09-24T14:22:03Z</time>
      </trkpt>
      <trkpt lat="45.68257" lon="3.31947">
        <ele>581</ele>
        <time>2017-09-24T14:22:35Z</time>
      </trkpt>
      <trkpt lat="45.68266" lon="3.31946">
        <ele>581</ele>
        <time>2017-09-24T14:22:41Z</time>
      </trkpt>
      <trkpt lat="45.6827" lon="3.31949">
        <ele>581</ele>
        <time>2017-09-24T14:22:45Z</time>
      </trkpt>
      <trkpt lat="45.68273" lon="3.31966">
        <ele>582</ele>
        <time>2017-09-24T14:22:53Z</time>
      </trkpt>
      <trkpt lat="45.68276" lon="3.31989">
        <ele>582</ele>
        <time>2017-09-24T14:23:03Z</time>
      </trkpt>
      <trkpt lat="45.68282" lon="3.32005">
        <ele>583</ele>
        <time>2017-09-24T14:23:11Z</time>
      </trkpt>
      <trkpt lat="45.68289" lon="3.3203">
        <ele>582</ele>
        <time>2017-09-24T14:23:23Z</time>
      </trkpt>
      <trkpt lat="45.68294" lon="3.32047">
        <ele>580</ele>
        <time>2017-09-24T14:23:31Z</time>
      </trkpt>
      <trkpt lat="45.6831" lon="3.32075">
        <ele>578</ele>
        <time>2017-09-24T14:23:48Z</time>
      </trkpt>
      <trkpt lat="45.68322" lon="3.3209">
        <ele>576</ele>
        <time>2017-09-24T14:23:58Z</time>
      </trkpt>
      <trkpt lat="45.68325" lon="3.32101">
        <ele>575</ele>
        <time>2017-09-24T14:24:04Z</time>
      </trkpt>
      <trkpt lat="45.68325" lon="3.32103">
        <ele>575</ele>
        <time>2017-09-24T14:24:09Z</time>
      </trkpt>
      <trkpt lat="45.6834" lon="3.32111">
        <ele>574</ele>
        <time>2017-09-24T14:24:47Z</time>
      </trkpt>
      <trkpt lat="45.68348" lon="3.32113">
        <ele>573</ele>
        <time>2017-09-24T14:24:53Z</time>
      </trkpt>
      <trkpt lat="45.68349" lon="3.32114">
        <ele>573</ele>
        <time>2017-09-24T14:24:54Z</time>
      </trkpt>
      <trkpt lat="45.68351" lon="3.32113">
        <ele>573</ele>
        <time>2017-09-24T14:24:56Z</time>
      </trkpt>
      <trkpt lat="45.68353" lon="3.32112">
        <ele>573</ele>
        <time>2017-09-24T14:25:04Z</time>
      </trkpt>
      <trkpt lat="45.68363" lon="3.32113">
        <ele>573</ele>
        <time>2017-09-24T14:25:11Z</time>
      </trkpt>
      <trkpt lat="45.6838" lon="3.32114">
        <ele>572</ele>
        <time>2017-09-24T14:25:23Z</time>
      </trkpt>
      <trkpt lat="45.68395" lon="3.32115">
        <ele>571</ele>
        <time>2017-09-24T14:25:33Z</time>
      </trkpt>
      <trkpt lat="45.68408" lon="3.32117">
        <ele>569</ele>
        <time>2017-09-24T14:25:41Z</time>
      </trkpt>
      <trkpt lat="45.68412" lon="3.32117">
        <ele>568</ele>
        <time>2017-09-24T14:25:46Z</time>
      </trkpt>
      <trkpt lat="45.68421" lon="3.32116">
        <ele>567</ele>
        <time>2017-09-24T14:25:52Z</time>
      </trkpt>
      <trkpt lat="45.68435" lon="3.32117">
        <ele>565</ele>
        <time>2017-09-24T14:26:01Z</time>
      </trkpt>
      <trkpt lat="45.68451" lon="3.32119">
        <ele>563</ele>
        <time>2017-09-24T14:26:12Z</time>
      </trkpt>
      <trkpt lat="45.68457" lon="3.32118">
        <ele>563</ele>
        <time>2017-09-24T14:26:16Z</time>
      </trkpt>
      <trkpt lat="45.6847" lon="3.32118">
        <ele>561</ele>
        <time>2017-09-24T14:26:33Z</time>
      </trkpt>
      <trkpt lat="45.68483" lon="3.32112">
        <ele>559</ele>
        <time>2017-09-24T14:26:42Z</time>
      </trkpt>
      <trkpt lat="45.6849" lon="3.32112">
        <ele>558</ele>
        <time>2017-09-24T14:26:46Z</time>
      </trkpt>
      <trkpt lat="45.68494" lon="3.32127">
        <ele>557</ele>
        <time>2017-09-24T14:26:53Z</time>
      </trkpt>
      <trkpt lat="45.68497" lon="3.32145">
        <ele>556</ele>
        <time>2017-09-24T14:27:01Z</time>
      </trkpt>
      <trkpt lat="45.68501" lon="3.32168">
        <ele>555</ele>
        <time>2017-09-24T14:27:12Z</time>
      </trkpt>
      <trkpt lat="45.68502" lon="3.32192">
        <ele>553</ele>
        <time>2017-09-24T14:27:23Z</time>
      </trkpt>
      <trkpt lat="45.68502" lon="3.32213">
        <ele>551</ele>
        <time>2017-09-24T14:27:33Z</time>
      </trkpt>
      <trkpt lat="45.68506" lon="3.32228">
        <ele>549</ele>
        <time>2017-09-24T14:27:41Z</time>
      </trkpt>
      <trkpt lat="45.6851" lon="3.32231">
        <ele>548</ele>
        <time>2017-09-24T14:27:47Z</time>
      </trkpt>
      <trkpt lat="45.68511" lon="3.32234">
        <ele>548</ele>
        <time>2017-09-24T14:27:52Z</time>
      </trkpt>
      <trkpt lat="45.68513" lon="3.32234">
        <ele>547</ele>
        <time>2017-09-24T14:28:07Z</time>
      </trkpt>
      <trkpt lat="45.68512" lon="3.32235">
        <ele>547</ele>
        <time>2017-09-24T14:28:13Z</time>
      </trkpt>
      <trkpt lat="45.68514" lon="3.32237">
        <ele>547</ele>
        <time>2017-09-24T14:28:27Z</time>
      </trkpt>
      <trkpt lat="45.68517" lon="3.32242">
        <ele>546</ele>
        <time>2017-09-24T14:28:36Z</time>
      </trkpt>
      <trkpt lat="45.68525" lon="3.3225">
        <ele>544</ele>
        <time>2017-09-24T14:28:43Z</time>
      </trkpt>
      <trkpt lat="45.68532" lon="3.32254">
        <ele>543</ele>
        <time>2017-09-24T14:28:48Z</time>
      </trkpt>
      <trkpt lat="45.68535" lon="3.32261">
        <ele>542</ele>
        <time>2017-09-24T14:28:52Z</time>
      </trkpt>
      <trkpt lat="45.68539" lon="3.32273">
        <ele>541</ele>
        <time>2017-09-24T14:28:59Z</time>
      </trkpt>
      <trkpt lat="45.68544" lon="3.32286">
        <ele>540</ele>
        <time>2017-09-24T14:29:06Z</time>
      </trkpt>
      <trkpt lat="45.68552" lon="3.32305">
        <ele>538</ele>
        <time>2017-09-24T14:29:17Z</time>
      </trkpt>
      <trkpt lat="45.68558" lon="3.32324">
        <ele>537</ele>
        <time>2017-09-24T14:29:29Z</time>
      </trkpt>
      <trkpt lat="45.68561" lon="3.32328">
        <ele>536</ele>
        <time>2017-09-24T14:29:36Z</time>
      </trkpt>
      <trkpt lat="45.68556" lon="3.32321">
        <ele>537</ele>
        <time>2017-09-24T14:29:41Z</time>
      </trkpt>
      <trkpt lat="45.68553" lon="3.32313">
        <ele>538</ele>
        <time>2017-09-24T14:29:46Z</time>
      </trkpt>
      <trkpt lat="45.68553" lon="3.32311">
        <ele>538</ele>
        <time>2017-09-24T14:29:52Z</time>
      </trkpt>
      <trkpt lat="45.68554" lon="3.32311">
        <ele>538</ele>
        <time>2017-09-24T14:29:59Z</time>
      </trkpt>
      <trkpt lat="45.68555" lon="3.32312">
        <ele>538</ele>
        <time>2017-09-24T14:30:04Z</time>
      </trkpt>
      <trkpt lat="45.68553" lon="3.32312">
        <ele>538</ele>
        <time>2017-09-24T14:30:10Z</time>
      </trkpt>
      <trkpt lat="45.68555" lon="3.3231">
        <ele>538</ele>
        <time>2017-09-24T14:30:14Z</time>
      </trkpt>
      <trkpt lat="45.68557" lon="3.3231">
        <ele>537</ele>
        <time>2017-09-24T14:30:18Z</time>
      </trkpt>
      <trkpt lat="45.68559" lon="3.32308">
        <ele>537</ele>
        <time>2017-09-24T14:30:29Z</time>
      </trkpt>
      <trkpt lat="45.68554" lon="3.32312">
        <ele>538</ele>
        <time>2017-09-24T14:30:33Z</time>
      </trkpt>
      <trkpt lat="45.68553" lon="3.32312">
        <ele>538</ele>
        <time>2017-09-24T14:30:49Z</time>
      </trkpt>
      <trkpt lat="45.68553" lon="3.32312">
        <ele>538</ele>
        <time>2017-09-24T14:30:55Z</time>
      </trkpt>
      <trkpt lat="45.68554" lon="3.3231">
        <ele>538</ele>
        <time>2017-09-24T14:31:08Z</time>
      </trkpt>
      <trkpt lat="45.68556" lon="3.32309">
        <ele>538</ele>
        <time>2017-09-24T14:31:09Z</time>
      </trkpt>
      <trkpt lat="45.68559" lon="3.32307">
        <ele>537</ele>
        <time>2017-09-24T14:31:17Z</time>
      </trkpt>
      <trkpt lat="45.68561" lon="3.32315">
        <ele>536</ele>
        <time>2017-09-24T14:31:33Z</time>
      </trkpt>
      <trkpt lat="45.68562" lon="3.32328">
        <ele>536</ele>
        <time>2017-09-24T14:31:39Z</time>
      </trkpt>
      <trkpt lat="45.68567" lon="3.32343">
        <ele>535</ele>
        <time>2017-09-24T14:31:46Z</time>
      </trkpt>
      <trkpt lat="45.68571" lon="3.32354">
        <ele>534</ele>
        <time>2017-09-24T14:31:51Z</time>
      </trkpt>
      <trkpt lat="45.68577" lon="3.32371">
        <ele>532</ele>
        <time>2017-09-24T14:31:59Z</time>
      </trkpt>
      <trkpt lat="45.68581" lon="3.32384">
        <ele>532</ele>
        <time>2017-09-24T14:32:06Z</time>
      </trkpt>
      <trkpt lat="45.68586" lon="3.32399">
        <ele>532</ele>
        <time>2017-09-24T14:32:13Z</time>
      </trkpt>
      <trkpt lat="45.68594" lon="3.32423">
        <ele>531</ele>
        <time>2017-09-24T14:32:25Z</time>
      </trkpt>
      <trkpt lat="45.68599" lon="3.32448">
        <ele>532</ele>
        <time>2017-09-24T14:32:37Z</time>
      </trkpt>
      <trkpt lat="45.686" lon="3.32467">
        <ele>534</ele>
        <time>2017-09-24T14:32:46Z</time>
      </trkpt>
      <trkpt lat="45.686" lon="3.32488">
        <ele>535</ele>
        <time>2017-09-24T14:32:56Z</time>
      </trkpt>
      <trkpt lat="45.68604" lon="3.32508">
        <ele>535</ele>
        <time>2017-09-24T14:33:05Z</time>
      </trkpt>
      <trkpt lat="45.6861" lon="3.32524">
        <ele>534</ele>
        <time>2017-09-24T14:33:14Z</time>
      </trkpt>
      <trkpt lat="45.68611" lon="3.32526">
        <ele>534</ele>
        <time>2017-09-24T14:33:20Z</time>
      </trkpt>
      <trkpt lat="45.68612" lon="3.32527">
        <ele>534</ele>
        <time>2017-09-24T14:33:25Z</time>
      </trkpt>
      <trkpt lat="45.68619" lon="3.32544">
        <ele>534</ele>
        <time>2017-09-24T14:33:37Z</time>
      </trkpt>
      <trkpt lat="45.68622" lon="3.3255">
        <ele>533</ele>
        <time>2017-09-24T14:33:50Z</time>
      </trkpt>
      <trkpt lat="45.68626" lon="3.32566">
        <ele>534</ele>
        <time>2017-09-24T14:33:59Z</time>
      </trkpt>
      <trkpt lat="45.68627" lon="3.32579">
        <ele>534</ele>
        <time>2017-09-24T14:34:06Z</time>
      </trkpt>
      <trkpt lat="45.68625" lon="3.32583">
        <ele>535</ele>
        <time>2017-09-24T14:34:11Z</time>
      </trkpt>
      <trkpt lat="45.68624" lon="3.32582">
        <ele>535</ele>
        <time>2017-09-24T14:34:16Z</time>
      </trkpt>
      <trkpt lat="45.68625" lon="3.32578">
        <ele>535</ele>
        <time>2017-09-24T14:34:19Z</time>
      </trkpt>
      <trkpt lat="45.6862" lon="3.32552">
        <ele>534</ele>
        <time>2017-09-24T14:34:32Z</time>
      </trkpt>
      <trkpt lat="45.68619" lon="3.3255">
        <ele>534</ele>
        <time>2017-09-24T14:34:33Z</time>
      </trkpt>
      <trkpt lat="45.68616" lon="3.32551">
        <ele>535</ele>
        <time>2017-09-24T14:34:36Z</time>
      </trkpt>
      <trkpt lat="45.68612" lon="3.32553">
        <ele>536</ele>
        <time>2017-09-24T14:34:39Z</time>
      </trkpt>
      <trkpt lat="45.68606" lon="3.32559">
        <ele>537</ele>
        <time>2017-09-24T14:34:45Z</time>
      </trkpt>
      <trkpt lat="45.68605" lon="3.32561">
        <ele>538</ele>
        <time>2017-09-24T14:34:46Z</time>
      </trkpt>
      <trkpt lat="45.68602" lon="3.32564">
        <ele>539</ele>
        <time>2017-09-24T14:34:49Z</time>
      </trkpt>
      <trkpt lat="45.68589" lon="3.32568">
        <ele>540</ele>
        <time>2017-09-24T14:34:59Z</time>
      </trkpt>
      <trkpt lat="45.68586" lon="3.32569">
        <ele>540</ele>
        <time>2017-09-24T14:35:01Z</time>
      </trkpt>
      <trkpt lat="45.68581" lon="3.32571">
        <ele>541</ele>
        <time>2017-09-24T14:35:05Z</time>
      </trkpt>
      <trkpt lat="45.68573" lon="3.32575">
        <ele>541</ele>
        <time>2017-09-24T14:35:12Z</time>
      </trkpt>
      <trkpt lat="45.68572" lon="3.32575">
        <ele>541</ele>
        <time>2017-09-24T14:35:13Z</time>
      </trkpt>
      <trkpt lat="45.68561" lon="3.32579">
        <ele>542</ele>
        <time>2017-09-24T14:35:22Z</time>
      </trkpt>
      <trkpt lat="45.68553" lon="3.32582">
        <ele>543</ele>
        <time>2017-09-24T14:35:30Z</time>
      </trkpt>
      <trkpt lat="45.68541" lon="3.32586">
        <ele>545</ele>
        <time>2017-09-24T14:35:40Z</time>
      </trkpt>
      <trkpt lat="45.68529" lon="3.32588">
        <ele>547</ele>
        <time>2017-09-24T14:35:50Z</time>
      </trkpt>
      <trkpt lat="45.68519" lon="3.32588">
        <ele>549</ele>
        <time>2017-09-24T14:35:58Z</time>
      </trkpt>
      <trkpt lat="45.68507" lon="3.32589">
        <ele>551</ele>
        <time>2017-09-24T14:36:07Z</time>
      </trkpt>
      <trkpt lat="45.68498" lon="3.3259">
        <ele>552</ele>
        <time>2017-09-24T14:36:14Z</time>
      </trkpt>
      <trkpt lat="45.68485" lon="3.32591">
        <ele>554</ele>
        <time>2017-09-24T14:36:23Z</time>
      </trkpt>
      <trkpt lat="45.68475" lon="3.32593">
        <ele>556</ele>
        <time>2017-09-24T14:36:31Z</time>
      </trkpt>
      <trkpt lat="45.68468" lon="3.32594">
        <ele>557</ele>
        <time>2017-09-24T14:36:37Z</time>
      </trkpt>
      <trkpt lat="45.68458" lon="3.32599">
        <ele>558</ele>
        <time>2017-09-24T14:36:45Z</time>
      </trkpt>
      <trkpt lat="45.6845" lon="3.32602">
        <ele>558</ele>
        <time>2017-09-24T14:36:51Z</time>
      </trkpt>
      <trkpt lat="45.68445" lon="3.32604">
        <ele>559</ele>
        <time>2017-09-24T14:36:56Z</time>
      </trkpt>
      <trkpt lat="45.68433" lon="3.32605">
        <ele>560</ele>
        <time>2017-09-24T14:37:05Z</time>
      </trkpt>
      <trkpt lat="45.68422" lon="3.32586">
        <ele>563</ele>
        <time>2017-09-24T14:37:19Z</time>
      </trkpt>
      <trkpt lat="45.68417" lon="3.32549">
        <ele>564</ele>
        <time>2017-09-24T14:37:36Z</time>
      </trkpt>
      <trkpt lat="45.68413" lon="3.3253">
        <ele>565</ele>
        <time>2017-09-24T14:37:45Z</time>
      </trkpt>
      <trkpt lat="45.68405" lon="3.32521">
        <ele>566</ele>
        <time>2017-09-24T14:37:53Z</time>
      </trkpt>
      <trkpt lat="45.68396" lon="3.32523">
        <ele>567</ele>
        <time>2017-09-24T14:38:00Z</time>
      </trkpt>
      <trkpt lat="45.68382" lon="3.32526">
        <ele>569</ele>
        <time>2017-09-24T14:38:10Z</time>
      </trkpt>
      <trkpt lat="45.6837" lon="3.32529">
        <ele>570</ele>
        <time>2017-09-24T14:38:19Z</time>
      </trkpt>
      <trkpt lat="45.68355" lon="3.32546">
        <ele>571</ele>
        <time>2017-09-24T14:38:38Z</time>
      </trkpt>
      <trkpt lat="45.68356" lon="3.32568">
        <ele>570</ele>
        <time>2017-09-24T14:38:48Z</time>
      </trkpt>
      <trkpt lat="45.68355" lon="3.32585">
        <ele>570</ele>
        <time>2017-09-24T14:38:57Z</time>
      </trkpt>
      <trkpt lat="45.68352" lon="3.32603">
        <ele>569</ele>
        <time>2017-09-24T14:39:07Z</time>
      </trkpt>
      <trkpt lat="45.68342" lon="3.32635">
        <ele>566</ele>
        <time>2017-09-24T14:39:24Z</time>
      </trkpt>
      <trkpt lat="45.68336" lon="3.32654">
        <ele>565</ele>
        <time>2017-09-24T14:39:33Z</time>
      </trkpt>
      <trkpt lat="45.68334" lon="3.32665">
        <ele>564</ele>
        <time>2017-09-24T14:39:38Z</time>
      </trkpt>
      <trkpt lat="45.68333" lon="3.32677">
        <ele>563</ele>
        <time>2017-09-24T14:39:44Z</time>
      </trkpt>
      <trkpt lat="45.68332" lon="3.32689">
        <ele>562</ele>
        <time>2017-09-24T14:39:50Z</time>
      </trkpt>
      <trkpt lat="45.68332" lon="3.32695">
        <ele>561</ele>
        <time>2017-09-24T14:39:53Z</time>
      </trkpt>
      <trkpt lat="45.68331" lon="3.32711">
        <ele>558</ele>
        <time>2017-09-24T14:40:01Z</time>
      </trkpt>
      <trkpt lat="45.68332" lon="3.32724">
        <ele>556</ele>
        <time>2017-09-24T14:40:08Z</time>
      </trkpt>
      <trkpt lat="45.68333" lon="3.32726">
        <ele>555</ele>
        <time>2017-09-24T14:40:09Z</time>
      </trkpt>
      <trkpt lat="45.68334" lon="3.32737">
        <ele>554</ele>
        <time>2017-09-24T14:40:15Z</time>
      </trkpt>
      <trkpt lat="45.68335" lon="3.32749">
        <ele>552</ele>
        <time>2017-09-24T14:40:21Z</time>
      </trkpt>
      <trkpt lat="45.68337" lon="3.32765">
        <ele>549</ele>
        <time>2017-09-24T14:40:28Z</time>
      </trkpt>
      <trkpt lat="45.68339" lon="3.32781">
        <ele>547</ele>
        <time>2017-09-24T14:40:35Z</time>
      </trkpt>
      <trkpt lat="45.6834" lon="3.32796">
        <ele>545</ele>
        <time>2017-09-24T14:40:42Z</time>
      </trkpt>
      <trkpt lat="45.68339" lon="3.32811">
        <ele>544</ele>
        <time>2017-09-24T14:40:48Z</time>
      </trkpt>
      <trkpt lat="45.68337" lon="3.32826">
        <ele>543</ele>
        <time>2017-09-24T14:40:54Z</time>
      </trkpt>
      <trkpt lat="45.68329" lon="3.32845">
        <ele>542</ele>
        <time>2017-09-24T14:41:02Z</time>
      </trkpt>
      <trkpt lat="45.68326" lon="3.32849">
        <ele>543</ele>
        <time>2017-09-24T14:41:04Z</time>
      </trkpt>
      <trkpt lat="45.68323" lon="3.32862">
        <ele>543</ele>
        <time>2017-09-24T14:41:11Z</time>
      </trkpt>
      <trkpt lat="45.68322" lon="3.32864">
        <ele>543</ele>
        <time>2017-09-24T14:41:12Z</time>
      </trkpt>
      <trkpt lat="45.6832" lon="3.32867">
        <ele>543</ele>
        <time>2017-09-24T14:41:14Z</time>
      </trkpt>
      <trkpt lat="45.68319" lon="3.32871">
        <ele>543</ele>
        <time>2017-09-24T14:41:22Z</time>
      </trkpt>
      <trkpt lat="45.68319" lon="3.32874">
        <ele>543</ele>
        <time>2017-09-24T14:41:32Z</time>
      </trkpt>
      <trkpt lat="45.68315" lon="3.32872">
        <ele>544</ele>
        <time>2017-09-24T14:41:36Z</time>
      </trkpt>
      <trkpt lat="45.68305" lon="3.32874">
        <ele>546</ele>
        <time>2017-09-24T14:41:44Z</time>
      </trkpt>
      <trkpt lat="45.68301" lon="3.32875">
        <ele>546</ele>
        <time>2017-09-24T14:41:47Z</time>
      </trkpt>
      <trkpt lat="45.6829" lon="3.32878">
        <ele>547</ele>
        <time>2017-09-24T14:41:55Z</time>
      </trkpt>
      <trkpt lat="45.68287" lon="3.3288">
        <ele>548</ele>
        <time>2017-09-24T14:41:58Z</time>
      </trkpt>
      <trkpt lat="45.68279" lon="3.32883">
        <ele>548</ele>
        <time>2017-09-24T14:42:04Z</time>
      </trkpt>
      <trkpt lat="45.68271" lon="3.32888">
        <ele>549</ele>
        <time>2017-09-24T14:42:10Z</time>
      </trkpt>
      <trkpt lat="45.68265" lon="3.32894">
        <ele>550</ele>
        <time>2017-09-24T14:42:15Z</time>
      </trkpt>
      <trkpt lat="45.68264" lon="3.32895">
        <ele>550</ele>
        <time>2017-09-24T14:42:16Z</time>
      </trkpt>
      <trkpt lat="45.68253" lon="3.32907">
        <ele>550</ele>
        <time>2017-09-24T14:42:23Z</time>
      </trkpt>
      <trkpt lat="45.68248" lon="3.32915">
        <ele>550</ele>
        <time>2017-09-24T14:42:28Z</time>
      </trkpt>
      <trkpt lat="45.68238" lon="3.32932">
        <ele>550</ele>
        <time>2017-09-24T14:42:38Z</time>
      </trkpt>
      <trkpt lat="45.68233" lon="3.32948">
        <ele>551</ele>
        <time>2017-09-24T14:42:46Z</time>
      </trkpt>
      <trkpt lat="45.68226" lon="3.32968">
        <ele>554</ele>
        <time>2017-09-24T14:42:56Z</time>
      </trkpt>
      <trkpt lat="45.68223" lon="3.32976">
        <ele>555</ele>
        <time>2017-09-24T14:43:00Z</time>
      </trkpt>
      <trkpt lat="45.68217" lon="3.32993">
        <ele>557</ele>
        <time>2017-09-24T14:43:09Z</time>
      </trkpt>
      <trkpt lat="45.68209" lon="3.33034">
        <ele>563</ele>
        <time>2017-09-24T14:43:30Z</time>
      </trkpt>
      <trkpt lat="45.68211" lon="3.33058">
        <ele>566</ele>
        <time>2017-09-24T14:43:38Z</time>
      </trkpt>
      <trkpt lat="45.68212" lon="3.33075">
        <ele>569</ele>
        <time>2017-09-24T14:43:47Z</time>
      </trkpt>
      <trkpt lat="45.68212" lon="3.33081">
        <ele>570</ele>
        <time>2017-09-24T14:43:50Z</time>
      </trkpt>
      <trkpt lat="45.68204" lon="3.33089">
        <ele>571</ele>
        <time>2017-09-24T14:43:57Z</time>
      </trkpt>
      <trkpt lat="45.68188" lon="3.33092">
        <ele>571</ele>
        <time>2017-09-24T14:44:07Z</time>
      </trkpt>
      <trkpt lat="45.68171" lon="3.33095">
        <ele>570</ele>
        <time>2017-09-24T14:44:18Z</time>
      </trkpt>
      <trkpt lat="45.68156" lon="3.33104">
        <ele>570</ele>
        <time>2017-09-24T14:44:29Z</time>
      </trkpt>
      <trkpt lat="45.68156" lon="3.33104">
        <ele>570</ele>
        <time>2017-09-24T14:44:30Z</time>
      </trkpt>
      <trkpt lat="45.68156" lon="3.33104">
        <ele>570</ele>
        <time>2017-09-24T14:44:35Z</time>
      </trkpt>
      <trkpt lat="45.68156" lon="3.33105">
        <ele>570</ele>
        <time>2017-09-24T14:44:48Z</time>
      </trkpt>
      <trkpt lat="45.68152" lon="3.33108">
        <ele>570</ele>
        <time>2017-09-24T14:44:58Z</time>
      </trkpt>
      <trkpt lat="45.68142" lon="3.33117">
        <ele>569</ele>
        <time>2017-09-24T14:45:07Z</time>
      </trkpt>
      <trkpt lat="45.68132" lon="3.33122">
        <ele>569</ele>
        <time>2017-09-24T14:45:14Z</time>
      </trkpt>
      <trkpt lat="45.68108" lon="3.33142">
        <ele>572</ele>
        <time>2017-09-24T14:45:33Z</time>
      </trkpt>
      <trkpt lat="45.68102" lon="3.33154">
        <ele>572</ele>
        <time>2017-09-24T14:45:40Z</time>
      </trkpt>
      <trkpt lat="45.68098" lon="3.33171">
        <ele>571</ele>
        <time>2017-09-24T14:45:48Z</time>
      </trkpt>
      <trkpt lat="45.68095" lon="3.33182">
        <ele>570</ele>
        <time>2017-09-24T14:45:54Z</time>
      </trkpt>
      <trkpt lat="45.68094" lon="3.33186">
        <ele>570</ele>
        <time>2017-09-24T14:45:56Z</time>
      </trkpt>
      <trkpt lat="45.6809" lon="3.33201">
        <ele>569</ele>
        <time>2017-09-24T14:46:03Z</time>
      </trkpt>
      <trkpt lat="45.68084" lon="3.33216">
        <ele>569</ele>
        <time>2017-09-24T14:46:12Z</time>
      </trkpt>
      <trkpt lat="45.68076" lon="3.33235">
        <ele>569</ele>
        <time>2017-09-24T14:46:22Z</time>
      </trkpt>
      <trkpt lat="45.6807" lon="3.33257">
        <ele>568</ele>
        <time>2017-09-24T14:46:33Z</time>
      </trkpt>
      <trkpt lat="45.68068" lon="3.33266">
        <ele>568</ele>
        <time>2017-09-24T14:46:37Z</time>
      </trkpt>
      <trkpt lat="45.6807" lon="3.33277">
        <ele>567</ele>
        <time>2017-09-24T14:46:45Z</time>
      </trkpt>
      <trkpt lat="45.68069" lon="3.33281">
        <ele>567</ele>
        <time>2017-09-24T14:46:54Z</time>
      </trkpt>
      <trkpt lat="45.68059" lon="3.33282">
        <ele>568</ele>
        <time>2017-09-24T14:47:01Z</time>
      </trkpt>
      <trkpt lat="45.68054" lon="3.33285">
        <ele>568</ele>
        <time>2017-09-24T14:47:07Z</time>
      </trkpt>
      <trkpt lat="45.6805" lon="3.33295">
        <ele>567</ele>
        <time>2017-09-24T14:47:48Z</time>
      </trkpt>
      <trkpt lat="45.68045" lon="3.33298">
        <ele>568</ele>
        <time>2017-09-24T14:47:57Z</time>
      </trkpt>
      <trkpt lat="45.68032" lon="3.33303">
        <ele>569</ele>
        <time>2017-09-24T14:48:06Z</time>
      </trkpt>
      <trkpt lat="45.68016" lon="3.33307">
        <ele>571</ele>
        <time>2017-09-24T14:48:18Z</time>
      </trkpt>
      <trkpt lat="45.68006" lon="3.3331">
        <ele>572</ele>
        <time>2017-09-24T14:48:26Z</time>
      </trkpt>
      <trkpt lat="45.67997" lon="3.33313">
        <ele>572</ele>
        <time>2017-09-24T14:48:33Z</time>
      </trkpt>
      <trkpt lat="45.67988" lon="3.33318">
        <ele>572</ele>
        <time>2017-09-24T14:48:40Z</time>
      </trkpt>
      <trkpt lat="45.67976" lon="3.33326">
        <ele>573</ele>
        <time>2017-09-24T14:48:49Z</time>
      </trkpt>
      <trkpt lat="45.67966" lon="3.33334">
        <ele>573</ele>
        <time>2017-09-24T14:48:57Z</time>
      </trkpt>
      <trkpt lat="45.67955" lon="3.33342">
        <ele>575</ele>
        <time>2017-09-24T14:49:05Z</time>
      </trkpt>
      <trkpt lat="45.67943" lon="3.3335">
        <ele>576</ele>
        <time>2017-09-24T14:49:15Z</time>
      </trkpt>
      <trkpt lat="45.67929" lon="3.33361">
        <ele>577</ele>
        <time>2017-09-24T14:49:26Z</time>
      </trkpt>
      <trkpt lat="45.67921" lon="3.33369">
        <ele>578</ele>
        <time>2017-09-24T14:49:33Z</time>
      </trkpt>
      <trkpt lat="45.67908" lon="3.33381">
        <ele>580</ele>
        <time>2017-09-24T14:49:43Z</time>
      </trkpt>
      <trkpt lat="45.67902" lon="3.33386">
        <ele>581</ele>
        <time>2017-09-24T14:49:50Z</time>
      </trkpt>
      <trkpt lat="45.67897" lon="3.33394">
        <ele>581</ele>
        <time>2017-09-24T14:49:56Z</time>
      </trkpt>
      <trkpt lat="45.67893" lon="3.33398">
        <ele>581</ele>
        <time>2017-09-24T14:49:59Z</time>
      </trkpt>
      <trkpt lat="45.67887" lon="3.33409">
        <ele>582</ele>
        <time>2017-09-24T14:50:06Z</time>
      </trkpt>
      <trkpt lat="45.67881" lon="3.33425">
        <ele>581</ele>
        <time>2017-09-24T14:50:16Z</time>
      </trkpt>
      <trkpt lat="45.67877" lon="3.33444">
        <ele>581</ele>
        <time>2017-09-24T14:50:25Z</time>
      </trkpt>
      <trkpt lat="45.67872" lon="3.33454">
        <ele>581</ele>
        <time>2017-09-24T14:50:32Z</time>
      </trkpt>
      <trkpt lat="45.67866" lon="3.33461">
        <ele>582</ele>
        <time>2017-09-24T14:50:38Z</time>
      </trkpt>
      <trkpt lat="45.67855" lon="3.3347">
        <ele>583</ele>
        <time>2017-09-24T14:50:45Z</time>
      </trkpt>
      <trkpt lat="45.67846" lon="3.33476">
        <ele>584</ele>
        <time>2017-09-24T14:50:52Z</time>
      </trkpt>
      <trkpt lat="45.67839" lon="3.33482">
        <ele>585</ele>
        <time>2017-09-24T14:50:57Z</time>
      </trkpt>
      <trkpt lat="45.67833" lon="3.33485">
        <ele>586</ele>
        <time>2017-09-24T14:51:01Z</time>
      </trkpt>
      <trkpt lat="45.67819" lon="3.335">
        <ele>588</ele>
        <time>2017-09-24T14:51:12Z</time>
      </trkpt>
      <trkpt lat="45.67808" lon="3.33513">
        <ele>589</ele>
        <time>2017-09-24T14:51:22Z</time>
      </trkpt>
      <trkpt lat="45.67798" lon="3.33524">
        <ele>591</ele>
        <time>2017-09-24T14:51:31Z</time>
      </trkpt>
      <trkpt lat="45.67785" lon="3.33538">
        <ele>592</ele>
        <time>2017-09-24T14:51:43Z</time>
      </trkpt>
      <trkpt lat="45.67774" lon="3.33549">
        <ele>594</ele>
        <time>2017-09-24T14:51:53Z</time>
      </trkpt>
      <trkpt lat="45.67762" lon="3.3356">
        <ele>595</ele>
        <time>2017-09-24T14:52:03Z</time>
      </trkpt>
      <trkpt lat="45.67749" lon="3.33573">
        <ele>596</ele>
        <time>2017-09-24T14:52:14Z</time>
      </trkpt>
      <trkpt lat="45.67737" lon="3.3359">
        <ele>596</ele>
        <time>2017-09-24T14:52:26Z</time>
      </trkpt>
      <trkpt lat="45.67731" lon="3.336">
        <ele>596</ele>
        <time>2017-09-24T14:52:32Z</time>
      </trkpt>
      <trkpt lat="45.6772" lon="3.33616">
        <ele>597</ele>
        <time>2017-09-24T14:52:43Z</time>
      </trkpt>
      <trkpt lat="45.67713" lon="3.33625">
        <ele>597</ele>
        <time>2017-09-24T14:52:50Z</time>
      </trkpt>
      <trkpt lat="45.67703" lon="3.33635">
        <ele>597</ele>
        <time>2017-09-24T14:52:58Z</time>
      </trkpt>
      <trkpt lat="45.67691" lon="3.33647">
        <ele>598</ele>
        <time>2017-09-24T14:53:08Z</time>
      </trkpt>
      <trkpt lat="45.67679" lon="3.33657">
        <ele>597</ele>
        <time>2017-09-24T14:53:17Z</time>
      </trkpt>
      <trkpt lat="45.67658" lon="3.33677">
        <ele>597</ele>
        <time>2017-09-24T14:53:34Z</time>
      </trkpt>
      <trkpt lat="45.67649" lon="3.33685">
        <ele>596</ele>
        <time>2017-09-24T14:53:41Z</time>
      </trkpt>
      <trkpt lat="45.67638" lon="3.33695">
        <ele>596</ele>
        <time>2017-09-24T14:53:50Z</time>
      </trkpt>
      <trkpt lat="45.6763" lon="3.33702">
        <ele>596</ele>
        <time>2017-09-24T14:53:57Z</time>
      </trkpt>
      <trkpt lat="45.67617" lon="3.33714">
        <ele>596</ele>
        <time>2017-09-24T14:54:07Z</time>
      </trkpt>
      <trkpt lat="45.67607" lon="3.33723">
        <ele>596</ele>
        <time>2017-09-24T14:54:14Z</time>
      </trkpt>
      <trkpt lat="45.67586" lon="3.3374">
        <ele>595</ele>
        <time>2017-09-24T14:54:30Z</time>
      </trkpt>
      <trkpt lat="45.67581" lon="3.33744">
        <ele>595</ele>
        <time>2017-09-24T14:54:36Z</time>
      </trkpt>
      <trkpt lat="45.67575" lon="3.33749">
        <ele>595</ele>
        <time>2017-09-24T14:54:42Z</time>
      </trkpt>
      <trkpt lat="45.67563" lon="3.33759">
        <ele>595</ele>
        <time>2017-09-24T14:54:51Z</time>
      </trkpt>
      <trkpt lat="45.67549" lon="3.33767">
        <ele>594</ele>
        <time>2017-09-24T14:55:00Z</time>
      </trkpt>
      <trkpt lat="45.67537" lon="3.33776">
        <ele>594</ele>
        <time>2017-09-24T14:55:09Z</time>
      </trkpt>
      <trkpt lat="45.67526" lon="3.33786">
        <ele>593</ele>
        <time>2017-09-24T14:55:18Z</time>
      </trkpt>
      <trkpt lat="45.67515" lon="3.33796">
        <ele>593</ele>
        <time>2017-09-24T14:55:27Z</time>
      </trkpt>
      <trkpt lat="45.67505" lon="3.33801">
        <ele>592</ele>
        <time>2017-09-24T14:55:35Z</time>
      </trkpt>
      <trkpt lat="45.67497" lon="3.33806">
        <ele>593</ele>
        <time>2017-09-24T14:55:42Z</time>
      </trkpt>
      <trkpt lat="45.67487" lon="3.33815">
        <ele>593</ele>
        <time>2017-09-24T14:55:49Z</time>
      </trkpt>
      <trkpt lat="45.67478" lon="3.33823">
        <ele>593</ele>
        <time>2017-09-24T14:55:56Z</time>
      </trkpt>
      <trkpt lat="45.67468" lon="3.33831">
        <ele>593</ele>
        <time>2017-09-24T14:56:03Z</time>
      </trkpt>
      <trkpt lat="45.67458" lon="3.33841">
        <ele>593</ele>
        <time>2017-09-24T14:56:10Z</time>
      </trkpt>
      <trkpt lat="45.67441" lon="3.33855">
        <ele>593</ele>
        <time>2017-09-24T14:56:22Z</time>
      </trkpt>
      <trkpt lat="45.67432" lon="3.33863">
        <ele>593</ele>
        <time>2017-09-24T14:56:29Z</time>
      </trkpt>
      <trkpt lat="45.67428" lon="3.33869">
        <ele>592</ele>
        <time>2017-09-24T14:56:33Z</time>
      </trkpt>
      <trkpt lat="45.67423" lon="3.33879">
        <ele>592</ele>
        <time>2017-09-24T14:56:39Z</time>
      </trkpt>
      <trkpt lat="45.67411" lon="3.33885">
        <ele>592</ele>
        <time>2017-09-24T14:56:48Z</time>
      </trkpt>
      <trkpt lat="45.67401" lon="3.33891">
        <ele>592</ele>
        <time>2017-09-24T14:56:55Z</time>
      </trkpt>
      <trkpt lat="45.67393" lon="3.33896">
        <ele>593</ele>
        <time>2017-09-24T14:57:01Z</time>
      </trkpt>
      <trkpt lat="45.67386" lon="3.33901">
        <ele>593</ele>
        <time>2017-09-24T14:57:06Z</time>
      </trkpt>
      <trkpt lat="45.67382" lon="3.33906">
        <ele>593</ele>
        <time>2017-09-24T14:57:10Z</time>
      </trkpt>
      <trkpt lat="45.67368" lon="3.33917">
        <ele>594</ele>
        <time>2017-09-24T14:57:19Z</time>
      </trkpt>
      <trkpt lat="45.67358" lon="3.33927">
        <ele>595</ele>
        <time>2017-09-24T14:57:27Z</time>
      </trkpt>
      <trkpt lat="45.67351" lon="3.33932">
        <ele>595</ele>
        <time>2017-09-24T14:57:32Z</time>
      </trkpt>
      <trkpt lat="45.67341" lon="3.33939">
        <ele>596</ele>
        <time>2017-09-24T14:57:39Z</time>
      </trkpt>
      <trkpt lat="45.67329" lon="3.3395">
        <ele>597</ele>
        <time>2017-09-24T14:57:47Z</time>
      </trkpt>
      <trkpt lat="45.67327" lon="3.33953">
        <ele>597</ele>
        <time>2017-09-24T14:57:49Z</time>
      </trkpt>
      <trkpt lat="45.67319" lon="3.33959">
        <ele>597</ele>
        <time>2017-09-24T14:57:55Z</time>
      </trkpt>
      <trkpt lat="45.6731" lon="3.33967">
        <ele>598</ele>
        <time>2017-09-24T14:58:02Z</time>
      </trkpt>
      <trkpt lat="45.673" lon="3.33975">
        <ele>598</ele>
        <time>2017-09-24T14:58:10Z</time>
      </trkpt>
      <trkpt lat="45.67289" lon="3.33983">
        <ele>598</ele>
        <time>2017-09-24T14:58:19Z</time>
      </trkpt>
      <trkpt lat="45.67275" lon="3.33995">
        <ele>597</ele>
        <time>2017-09-24T14:58:29Z</time>
      </trkpt>
      <trkpt lat="45.6726" lon="3.34006">
        <ele>598</ele>
        <time>2017-09-24T14:58:39Z</time>
      </trkpt>
      <trkpt lat="45.67235" lon="3.3402">
        <ele>598</ele>
        <time>2017-09-24T14:58:57Z</time>
      </trkpt>
      <trkpt lat="45.67223" lon="3.34031">
        <ele>599</ele>
        <time>2017-09-24T14:59:19Z</time>
      </trkpt>
      <trkpt lat="45.6721" lon="3.34045">
        <ele>598</ele>
        <time>2017-09-24T14:59:29Z</time>
      </trkpt>
      <trkpt lat="45.67202" lon="3.34053">
        <ele>598</ele>
        <time>2017-09-24T14:59:36Z</time>
      </trkpt>
      <trkpt lat="45.67194" lon="3.34062">
        <ele>598</ele>
        <time>2017-09-24T14:59:42Z</time>
      </trkpt>
      <trkpt lat="45.67183" lon="3.34073">
        <ele>598</ele>
        <time>2017-09-24T14:59:51Z</time>
      </trkpt>
      <trkpt lat="45.67171" lon="3.34086">
        <ele>599</ele>
        <time>2017-09-24T15:00:00Z</time>
      </trkpt>
      <trkpt lat="45.67135" lon="3.34123">
        <ele>601</ele>
        <time>2017-09-24T15:00:29Z</time>
      </trkpt>
      <trkpt lat="45.67124" lon="3.34138">
        <ele>602</ele>
        <time>2017-09-24T15:00:39Z</time>
      </trkpt>
      <trkpt lat="45.67116" lon="3.34151">
        <ele>603</ele>
        <time>2017-09-24T15:00:45Z</time>
      </trkpt>
      <trkpt lat="45.67107" lon="3.34169">
        <ele>603</ele>
        <time>2017-09-24T15:00:52Z</time>
      </trkpt>
      <trkpt lat="45.67097" lon="3.34191">
        <ele>603</ele>
        <time>2017-09-24T15:01:00Z</time>
      </trkpt>
      <trkpt lat="45.67091" lon="3.34205">
        <ele>604</ele>
        <time>2017-09-24T15:01:07Z</time>
      </trkpt>
      <trkpt lat="45.67087" lon="3.3422">
        <ele>604</ele>
        <time>2017-09-24T15:01:14Z</time>
      </trkpt>
      <trkpt lat="45.67088" lon="3.34236">
        <ele>604</ele>
        <time>2017-09-24T15:01:22Z</time>
      </trkpt>
      <trkpt lat="45.67094" lon="3.34248">
        <ele>604</ele>
        <time>2017-09-24T15:01:29Z</time>
      </trkpt>
      <trkpt lat="45.67099" lon="3.34254">
        <ele>604</ele>
        <time>2017-09-24T15:01:35Z</time>
      </trkpt>
      <trkpt lat="45.67103" lon="3.34252">
        <ele>603</ele>
        <time>2017-09-24T15:01:55Z</time>
      </trkpt>
      <trkpt lat="45.67109" lon="3.34245">
        <ele>603</ele>
        <time>2017-09-24T15:02:01Z</time>
      </trkpt>
      <trkpt lat="45.6712" lon="3.34245">
        <ele>602</ele>
        <time>2017-09-24T15:02:08Z</time>
      </trkpt>
      <trkpt lat="45.67133" lon="3.34246">
        <ele>602</ele>
        <time>2017-09-24T15:02:17Z</time>
      </trkpt>
      <trkpt lat="45.67146" lon="3.34246">
        <ele>601</ele>
        <time>2017-09-24T15:02:25Z</time>
      </trkpt>
      <trkpt lat="45.67158" lon="3.34246">
        <ele>600</ele>
        <time>2017-09-24T15:02:33Z</time>
      </trkpt>
      <trkpt lat="45.67171" lon="3.34246">
        <ele>599</ele>
        <time>2017-09-24T15:02:41Z</time>
      </trkpt>
      <trkpt lat="45.67183" lon="3.34246">
        <ele>598</ele>
        <time>2017-09-24T15:02:49Z</time>
      </trkpt>
      <trkpt lat="45.67196" lon="3.34245">
        <ele>597</ele>
        <time>2017-09-24T15:02:57Z</time>
      </trkpt>
      <trkpt lat="45.67213" lon="3.34245">
        <ele>595</ele>
        <time>2017-09-24T15:03:07Z</time>
      </trkpt>
      <trkpt lat="45.67218" lon="3.34246">
        <ele>595</ele>
        <time>2017-09-24T15:03:10Z</time>
      </trkpt>
      <trkpt lat="45.67232" lon="3.34241">
        <ele>593</ele>
        <time>2017-09-24T15:03:19Z</time>
      </trkpt>
      <trkpt lat="45.67243" lon="3.34237">
        <ele>591</ele>
        <time>2017-09-24T15:03:26Z</time>
      </trkpt>
      <trkpt lat="45.67254" lon="3.3424">
        <ele>589</ele>
        <time>2017-09-24T15:03:33Z</time>
      </trkpt>
      <trkpt lat="45.67255" lon="3.34242">
        <ele>589</ele>
        <time>2017-09-24T15:03:34Z</time>
      </trkpt>
      <trkpt lat="45.67255" lon="3.34261">
        <ele>589</ele>
        <time>2017-09-24T15:03:42Z</time>
      </trkpt>
      <trkpt lat="45.67253" lon="3.34282">
        <ele>589</ele>
        <time>2017-09-24T15:03:51Z</time>
      </trkpt>
      <trkpt lat="45.6725" lon="3.34301">
        <ele>589</ele>
        <time>2017-09-24T15:03:59Z</time>
      </trkpt>
      <trkpt lat="45.67248" lon="3.3432">
        <ele>590</ele>
        <time>2017-09-24T15:04:08Z</time>
      </trkpt>
      <trkpt lat="45.67244" lon="3.34367">
        <ele>590</ele>
        <time>2017-09-24T15:04:29Z</time>
      </trkpt>
      <trkpt lat="45.67244" lon="3.3438">
        <ele>590</ele>
        <time>2017-09-24T15:04:36Z</time>
      </trkpt>
      <trkpt lat="45.67243" lon="3.34396">
        <ele>591</ele>
        <time>2017-09-24T15:04:44Z</time>
      </trkpt>
      <trkpt lat="45.67241" lon="3.34412">
        <ele>591</ele>
        <time>2017-09-24T15:04:52Z</time>
      </trkpt>
      <trkpt lat="45.67237" lon="3.3443">
        <ele>592</ele>
        <time>2017-09-24T15:05:01Z</time>
      </trkpt>
      <trkpt lat="45.67237" lon="3.34434">
        <ele>592</ele>
        <time>2017-09-24T15:05:07Z</time>
      </trkpt>
      <trkpt lat="45.67237" lon="3.34446">
        <ele>592</ele>
        <time>2017-09-24T15:05:22Z</time>
      </trkpt>
      <trkpt lat="45.67239" lon="3.34468">
        <ele>592</ele>
        <time>2017-09-24T15:05:32Z</time>
      </trkpt>
      <trkpt lat="45.67241" lon="3.34486">
        <ele>592</ele>
        <time>2017-09-24T15:05:40Z</time>
      </trkpt>
      <trkpt lat="45.67246" lon="3.34503">
        <ele>592</ele>
        <time>2017-09-24T15:05:49Z</time>
      </trkpt>
      <trkpt lat="45.67255" lon="3.34509">
        <ele>590</ele>
        <time>2017-09-24T15:05:56Z</time>
      </trkpt>
      <trkpt lat="45.67267" lon="3.34511">
        <ele>588</ele>
        <time>2017-09-24T15:06:04Z</time>
      </trkpt>
      <trkpt lat="45.67281" lon="3.34545">
        <ele>586</ele>
        <time>2017-09-24T15:06:21Z</time>
      </trkpt>
      <trkpt lat="45.67285" lon="3.34563">
        <ele>586</ele>
        <time>2017-09-24T15:06:30Z</time>
      </trkpt>
      <trkpt lat="45.67287" lon="3.34585">
        <ele>586</ele>
        <time>2017-09-24T15:06:40Z</time>
      </trkpt>
      <trkpt lat="45.6729" lon="3.34606">
        <ele>586</ele>
        <time>2017-09-24T15:06:49Z</time>
      </trkpt>
      <trkpt lat="45.67297" lon="3.34617">
        <ele>586</ele>
        <time>2017-09-24T15:06:56Z</time>
      </trkpt>
      <trkpt lat="45.67306" lon="3.34622">
        <ele>584</ele>
        <time>2017-09-24T15:07:02Z</time>
      </trkpt>
      <trkpt lat="45.67319" lon="3.34624">
        <ele>582</ele>
        <time>2017-09-24T15:07:10Z</time>
      </trkpt>
      <trkpt lat="45.67321" lon="3.34624">
        <ele>582</ele>
        <time>2017-09-24T15:07:11Z</time>
      </trkpt>
      <trkpt lat="45.67322" lon="3.34625">
        <ele>582</ele>
        <time>2017-09-24T15:07:22Z</time>
      </trkpt>
      <trkpt lat="45.67325" lon="3.34626">
        <ele>581</ele>
        <time>2017-09-24T15:07:30Z</time>
      </trkpt>
      <trkpt lat="45.6733" lon="3.34627">
        <ele>580</ele>
        <time>2017-09-24T15:07:34Z</time>
      </trkpt>
      <trkpt lat="45.67334" lon="3.34627">
        <ele>579</ele>
        <time>2017-09-24T15:07:37Z</time>
      </trkpt>
      <trkpt lat="45.67347" lon="3.34626">
        <ele>578</ele>
        <time>2017-09-24T15:07:46Z</time>
      </trkpt>
      <trkpt lat="45.67356" lon="3.34626">
        <ele>577</ele>
        <time>2017-09-24T15:07:52Z</time>
      </trkpt>
      <trkpt lat="45.67365" lon="3.34626">
        <ele>576</ele>
        <time>2017-09-24T15:07:59Z</time>
      </trkpt>
      <trkpt lat="45.67366" lon="3.34627">
        <ele>576</ele>
        <time>2017-09-24T15:08:00Z</time>
      </trkpt>
      <trkpt lat="45.67371" lon="3.34627">
        <ele>575</ele>
        <time>2017-09-24T15:08:04Z</time>
      </trkpt>
      <trkpt lat="45.67394" lon="3.34629">
        <ele>572</ele>
        <time>2017-09-24T15:08:21Z</time>
      </trkpt>
      <trkpt lat="45.67396" lon="3.34629">
        <ele>571</ele>
        <time>2017-09-24T15:08:23Z</time>
      </trkpt>
      <trkpt lat="45.67404" lon="3.34629">
        <ele>570</ele>
        <time>2017-09-24T15:08:30Z</time>
      </trkpt>
      <trkpt lat="45.67419" lon="3.34648">
        <ele>567</ele>
        <time>2017-09-24T15:08:46Z</time>
      </trkpt>
      <trkpt lat="45.67424" lon="3.34659">
        <ele>566</ele>
        <time>2017-09-24T15:08:52Z</time>
      </trkpt>
      <trkpt lat="45.67425" lon="3.34661">
        <ele>565</ele>
        <time>2017-09-24T15:08:53Z</time>
      </trkpt>
      <trkpt lat="45.67427" lon="3.34668">
        <ele>565</ele>
        <time>2017-09-24T15:08:58Z</time>
      </trkpt>
      <trkpt lat="45.67427" lon="3.34672">
        <ele>565</ele>
        <time>2017-09-24T15:09:00Z</time>
      </trkpt>
      <trkpt lat="45.6743" lon="3.34681">
        <ele>564</ele>
        <time>2017-09-24T15:09:05Z</time>
      </trkpt>
      <trkpt lat="45.67435" lon="3.34695">
        <ele>563</ele>
        <time>2017-09-24T15:09:12Z</time>
      </trkpt>
      <trkpt lat="45.67438" lon="3.34706">
        <ele>563</ele>
        <time>2017-09-24T15:09:18Z</time>
      </trkpt>
      <trkpt lat="45.67438" lon="3.34707">
        <ele>563</ele>
        <time>2017-09-24T15:09:19Z</time>
      </trkpt>
      <trkpt lat="45.67443" lon="3.34719">
        <ele>562</ele>
        <time>2017-09-24T15:09:26Z</time>
      </trkpt>
      <trkpt lat="45.67449" lon="3.3473">
        <ele>561</ele>
        <time>2017-09-24T15:09:33Z</time>
      </trkpt>
      <trkpt lat="45.67453" lon="3.34734">
        <ele>560</ele>
        <time>2017-09-24T15:09:38Z</time>
      </trkpt>
      <trkpt lat="45.67458" lon="3.34738">
        <ele>559</ele>
        <time>2017-09-24T15:09:46Z</time>
      </trkpt>
      <trkpt lat="45.67464" lon="3.34742">
        <ele>558</ele>
        <time>2017-09-24T15:09:53Z</time>
      </trkpt>
      <trkpt lat="45.67466" lon="3.34743">
        <ele>557</ele>
        <time>2017-09-24T15:09:57Z</time>
      </trkpt>
      <trkpt lat="45.67472" lon="3.34744">
        <ele>556</ele>
        <time>2017-09-24T15:10:02Z</time>
      </trkpt>
      <trkpt lat="45.67489" lon="3.34743">
        <ele>553</ele>
        <time>2017-09-24T15:10:14Z</time>
      </trkpt>
      <trkpt lat="45.67502" lon="3.34741">
        <ele>550</ele>
        <time>2017-09-24T15:10:23Z</time>
      </trkpt>
      <trkpt lat="45.67512" lon="3.34742">
        <ele>548</ele>
        <time>2017-09-24T15:10:30Z</time>
      </trkpt>
      <trkpt lat="45.67522" lon="3.34745">
        <ele>547</ele>
        <time>2017-09-24T15:10:37Z</time>
      </trkpt>
      <trkpt lat="45.67537" lon="3.34754">
        <ele>544</ele>
        <time>2017-09-24T15:10:48Z</time>
      </trkpt>
      <trkpt lat="45.67549" lon="3.34761">
        <ele>541</ele>
        <time>2017-09-24T15:10:57Z</time>
      </trkpt>
      <trkpt lat="45.67559" lon="3.34767">
        <ele>539</ele>
        <time>2017-09-24T15:11:05Z</time>
      </trkpt>
      <trkpt lat="45.67578" lon="3.34802">
        <ele>536</ele>
        <time>2017-09-24T15:11:27Z</time>
      </trkpt>
      <trkpt lat="45.67578" lon="3.34821">
        <ele>536</ele>
        <time>2017-09-24T15:11:36Z</time>
      </trkpt>
      <trkpt lat="45.67578" lon="3.34837">
        <ele>536</ele>
        <time>2017-09-24T15:11:44Z</time>
      </trkpt>
      <trkpt lat="45.67578" lon="3.34857">
        <ele>537</ele>
        <time>2017-09-24T15:11:54Z</time>
      </trkpt>
      <trkpt lat="45.67577" lon="3.34878">
        <ele>537</ele>
        <time>2017-09-24T15:12:04Z</time>
      </trkpt>
      <trkpt lat="45.6758" lon="3.34891">
        <ele>537</ele>
        <time>2017-09-24T15:12:11Z</time>
      </trkpt>
      <trkpt lat="45.67583" lon="3.34906">
        <ele>537</ele>
        <time>2017-09-24T15:12:18Z</time>
      </trkpt>
      <trkpt lat="45.67588" lon="3.34919">
        <ele>536</ele>
        <time>2017-09-24T15:12:25Z</time>
      </trkpt>
      <trkpt lat="45.6761" lon="3.34945">
        <ele>532</ele>
        <time>2017-09-24T15:12:44Z</time>
      </trkpt>
      <trkpt lat="45.6762" lon="3.34955">
        <ele>531</ele>
        <time>2017-09-24T15:12:52Z</time>
      </trkpt>
      <trkpt lat="45.6763" lon="3.34966">
        <ele>530</ele>
        <time>2017-09-24T15:13:01Z</time>
      </trkpt>
      <trkpt lat="45.67639" lon="3.34976">
        <ele>529</ele>
        <time>2017-09-24T15:13:09Z</time>
      </trkpt>
      <trkpt lat="45.67647" lon="3.34986">
        <ele>529</ele>
        <time>2017-09-24T15:13:16Z</time>
      </trkpt>
      <trkpt lat="45.67656" lon="3.34995">
        <ele>529</ele>
        <time>2017-09-24T15:13:24Z</time>
      </trkpt>
      <trkpt lat="45.67659" lon="3.34997">
        <ele>529</ele>
        <time>2017-09-24T15:13:26Z</time>
      </trkpt>
      <trkpt lat="45.67665" lon="3.34999">
        <ele>529</ele>
        <time>2017-09-24T15:13:33Z</time>
      </trkpt>
      <trkpt lat="45.67666" lon="3.35">
        <ele>529</ele>
        <time>2017-09-24T15:13:34Z</time>
      </trkpt>
      <trkpt lat="45.67671" lon="3.34998">
        <ele>528</ele>
        <time>2017-09-24T15:13:39Z</time>
      </trkpt>
      <trkpt lat="45.67682" lon="3.34988">
        <ele>526</ele>
        <time>2017-09-24T15:13:48Z</time>
      </trkpt>
      <trkpt lat="45.67695" lon="3.34974">
        <ele>524</ele>
        <time>2017-09-24T15:13:59Z</time>
      </trkpt>
      <trkpt lat="45.67707" lon="3.34962">
        <ele>523</ele>
        <time>2017-09-24T15:14:09Z</time>
      </trkpt>
      <trkpt lat="45.67717" lon="3.34948">
        <ele>522</ele>
        <time>2017-09-24T15:14:19Z</time>
      </trkpt>
      <trkpt lat="45.67732" lon="3.34938">
        <ele>520</ele>
        <time>2017-09-24T15:14:32Z</time>
      </trkpt>
      <trkpt lat="45.67735" lon="3.3494">
        <ele>519</ele>
        <time>2017-09-24T15:15:29Z</time>
      </trkpt>
      <trkpt lat="45.67735" lon="3.34939">
        <ele>520</ele>
        <time>2017-09-24T15:15:36Z</time>
      </trkpt>
      <trkpt lat="45.67736" lon="3.3494">
        <ele>519</ele>
        <time>2017-09-24T15:16:01Z</time>
      </trkpt>
      <trkpt lat="45.67737" lon="3.3494">
        <ele>519</ele>
        <time>2017-09-24T15:16:08Z</time>
      </trkpt>
      <trkpt lat="45.67737" lon="3.34943">
        <ele>519</ele>
        <time>2017-09-24T15:16:27Z</time>
      </trkpt>
      <trkpt lat="45.67735" lon="3.34952">
        <ele>520</ele>
        <time>2017-09-24T15:16:44Z</time>
      </trkpt>
      <trkpt lat="45.67735" lon="3.34965">
        <ele>520</ele>
        <time>2017-09-24T15:16:51Z</time>
      </trkpt>
      <trkpt lat="45.6774" lon="3.34982">
        <ele>521</ele>
        <time>2017-09-24T15:17:00Z</time>
      </trkpt>
      <trkpt lat="45.67745" lon="3.34998">
        <ele>521</ele>
        <time>2017-09-24T15:17:09Z</time>
      </trkpt>
      <trkpt lat="45.67751" lon="3.35013">
        <ele>521</ele>
        <time>2017-09-24T15:17:17Z</time>
      </trkpt>
      <trkpt lat="45.67758" lon="3.35031">
        <ele>519</ele>
        <time>2017-09-24T15:17:27Z</time>
      </trkpt>
      <trkpt lat="45.67764" lon="3.35045">
        <ele>517</ele>
        <time>2017-09-24T15:17:35Z</time>
      </trkpt>
      <trkpt lat="45.67771" lon="3.35056">
        <ele>516</ele>
        <time>2017-09-24T15:17:43Z</time>
      </trkpt>
      <trkpt lat="45.67777" lon="3.3506">
        <ele>515</ele>
        <time>2017-09-24T15:17:48Z</time>
      </trkpt>
      <trkpt lat="45.67775" lon="3.35068">
        <ele>515</ele>
        <time>2017-09-24T15:17:54Z</time>
      </trkpt>
      <trkpt lat="45.6777" lon="3.35075">
        <ele>515</ele>
        <time>2017-09-24T15:17:59Z</time>
      </trkpt>
      <trkpt lat="45.67769" lon="3.35074">
        <ele>515</ele>
        <time>2017-09-24T15:18:07Z</time>
      </trkpt>
      <trkpt lat="45.67769" lon="3.3508">
        <ele>515</ele>
        <time>2017-09-24T15:18:35Z</time>
      </trkpt>
      <trkpt lat="45.67765" lon="3.35096">
        <ele>515</ele>
        <time>2017-09-24T15:18:44Z</time>
      </trkpt>
      <trkpt lat="45.6776" lon="3.3511">
        <ele>515</ele>
        <time>2017-09-24T15:18:52Z</time>
      </trkpt>
      <trkpt lat="45.67756" lon="3.35124">
        <ele>515</ele>
        <time>2017-09-24T15:18:59Z</time>
      </trkpt>
      <trkpt lat="45.67753" lon="3.35138">
        <ele>514</ele>
        <time>2017-09-24T15:19:07Z</time>
      </trkpt>
      <trkpt lat="45.67749" lon="3.35178">
        <ele>510</ele>
        <time>2017-09-24T15:19:30Z</time>
      </trkpt>
      <trkpt lat="45.6775" lon="3.35194">
        <ele>509</ele>
        <time>2017-09-24T15:19:38Z</time>
      </trkpt>
      <trkpt lat="45.6775" lon="3.35215">
        <ele>509</ele>
        <time>2017-09-24T15:19:49Z</time>
      </trkpt>
      <trkpt lat="45.67752" lon="3.35229">
        <ele>507</ele>
        <time>2017-09-24T15:19:57Z</time>
      </trkpt>
      <trkpt lat="45.67759" lon="3.35242">
        <ele>506</ele>
        <time>2017-09-24T15:20:06Z</time>
      </trkpt>
      <trkpt lat="45.67765" lon="3.35251">
        <ele>505</ele>
        <time>2017-09-24T15:20:13Z</time>
      </trkpt>
      <trkpt lat="45.67773" lon="3.35265">
        <ele>503</ele>
        <time>2017-09-24T15:20:23Z</time>
      </trkpt>
      <trkpt lat="45.67778" lon="3.35278">
        <ele>502</ele>
        <time>2017-09-24T15:20:32Z</time>
      </trkpt>
      <trkpt lat="45.67779" lon="3.35279">
        <ele>502</ele>
        <time>2017-09-24T15:20:33Z</time>
      </trkpt>
      <trkpt lat="45.67782" lon="3.35286">
        <ele>501</ele>
        <time>2017-09-24T15:20:38Z</time>
      </trkpt>
      <trkpt lat="45.67786" lon="3.3529">
        <ele>501</ele>
        <time>2017-09-24T15:20:42Z</time>
      </trkpt>
      <trkpt lat="45.67787" lon="3.35292">
        <ele>500</ele>
        <time>2017-09-24T15:20:44Z</time>
      </trkpt>
      <trkpt lat="45.67792" lon="3.35299">
        <ele>500</ele>
        <time>2017-09-24T15:20:52Z</time>
      </trkpt>
      <trkpt lat="45.67793" lon="3.35301">
        <ele>499</ele>
        <time>2017-09-24T15:20:54Z</time>
      </trkpt>
      <trkpt lat="45.67794" lon="3.35305">
        <ele>499</ele>
        <time>2017-09-24T15:20:58Z</time>
      </trkpt>
      <trkpt lat="45.67796" lon="3.35313">
        <ele>498</ele>
        <time>2017-09-24T15:21:05Z</time>
      </trkpt>
      <trkpt lat="45.67798" lon="3.35317">
        <ele>497</ele>
        <time>2017-09-24T15:21:09Z</time>
      </trkpt>
      <trkpt lat="45.67799" lon="3.35318">
        <ele>497</ele>
        <time>2017-09-24T15:21:10Z</time>
      </trkpt>
      <trkpt lat="45.67808" lon="3.35332">
        <ele>495</ele>
        <time>2017-09-24T15:21:26Z</time>
      </trkpt>
      <trkpt lat="45.67808" lon="3.35333">
        <ele>495</ele>
        <time>2017-09-24T15:21:27Z</time>
      </trkpt>
      <trkpt lat="45.67808" lon="3.35336">
        <ele>495</ele>
        <time>2017-09-24T15:21:29Z</time>
      </trkpt>
      <trkpt lat="45.6781" lon="3.35342">
        <ele>494</ele>
        <time>2017-09-24T15:21:34Z</time>
      </trkpt>
      <trkpt lat="45.67814" lon="3.35347">
        <ele>493</ele>
        <time>2017-09-24T15:21:39Z</time>
      </trkpt>
      <trkpt lat="45.67817" lon="3.35349">
        <ele>493</ele>
        <time>2017-09-24T15:21:42Z</time>
      </trkpt>
      <trkpt lat="45.67825" lon="3.35355">
        <ele>491</ele>
        <time>2017-09-24T15:21:49Z</time>
      </trkpt>
      <trkpt lat="45.67827" lon="3.35356">
        <ele>491</ele>
        <time>2017-09-24T15:21:51Z</time>
      </trkpt>
      <trkpt lat="45.67836" lon="3.35359">
        <ele>490</ele>
        <time>2017-09-24T15:21:58Z</time>
      </trkpt>
      <trkpt lat="45.67837" lon="3.35358">
        <ele>490</ele>
        <time>2017-09-24T15:21:59Z</time>
      </trkpt>
      <trkpt lat="45.6784" lon="3.35358">
        <ele>490</ele>
        <time>2017-09-24T15:22:01Z</time>
      </trkpt>
      <trkpt lat="45.67847" lon="3.3536">
        <ele>489</ele>
        <time>2017-09-24T15:22:07Z</time>
      </trkpt>
      <trkpt lat="45.6785" lon="3.35361">
        <ele>489</ele>
        <time>2017-09-24T15:22:09Z</time>
      </trkpt>
      <trkpt lat="45.67851" lon="3.35361">
        <ele>488</ele>
        <time>2017-09-24T15:22:10Z</time>
      </trkpt>
      <trkpt lat="45.67858" lon="3.35362">
        <ele>488</ele>
        <time>2017-09-24T15:22:15Z</time>
      </trkpt>
      <trkpt lat="45.67867" lon="3.35362">
        <ele>487</ele>
        <time>2017-09-24T15:22:21Z</time>
      </trkpt>
      <trkpt lat="45.67868" lon="3.35362">
        <ele>487</ele>
        <time>2017-09-24T15:22:22Z</time>
      </trkpt>
      <trkpt lat="45.67871" lon="3.35362">
        <ele>487</ele>
        <time>2017-09-24T15:22:24Z</time>
      </trkpt>
      <trkpt lat="45.67875" lon="3.35369">
        <ele>486</ele>
        <time>2017-09-24T15:22:29Z</time>
      </trkpt>
      <trkpt lat="45.67876" lon="3.35369">
        <ele>486</ele>
        <time>2017-09-24T15:22:30Z</time>
      </trkpt>
      <trkpt lat="45.67881" lon="3.35372">
        <ele>485</ele>
        <time>2017-09-24T15:22:34Z</time>
      </trkpt>
      <trkpt lat="45.67884" lon="3.35374">
        <ele>484</ele>
        <time>2017-09-24T15:22:36Z</time>
      </trkpt>
      <trkpt lat="45.67886" lon="3.35381">
        <ele>483</ele>
        <time>2017-09-24T15:22:40Z</time>
      </trkpt>
      <trkpt lat="45.67891" lon="3.35384">
        <ele>482</ele>
        <time>2017-09-24T15:22:44Z</time>
      </trkpt>
      <trkpt lat="45.67894" lon="3.35385">
        <ele>482</ele>
        <time>2017-09-24T15:22:46Z</time>
      </trkpt>
      <trkpt lat="45.67896" lon="3.35386">
        <ele>481</ele>
        <time>2017-09-24T15:22:48Z</time>
      </trkpt>
      <trkpt lat="45.67904" lon="3.35388">
        <ele>480</ele>
        <time>2017-09-24T15:22:53Z</time>
      </trkpt>
      <trkpt lat="45.67913" lon="3.35397">
        <ele>478</ele>
        <time>2017-09-24T15:23:00Z</time>
      </trkpt>
      <trkpt lat="45.67916" lon="3.35402">
        <ele>477</ele>
        <time>2017-09-24T15:23:07Z</time>
      </trkpt>
      <trkpt lat="45.67921" lon="3.35408">
        <ele>476</ele>
        <time>2017-09-24T15:23:38Z</time>
      </trkpt>
      <trkpt lat="45.67924" lon="3.35413">
        <ele>474</ele>
        <time>2017-09-24T15:23:43Z</time>
      </trkpt>
      <trkpt lat="45.67932" lon="3.35422">
        <ele>472</ele>
        <time>2017-09-24T15:23:51Z</time>
      </trkpt>
      <trkpt lat="45.67936" lon="3.35433">
        <ele>471</ele>
        <time>2017-09-24T15:23:58Z</time>
      </trkpt>
      <trkpt lat="45.67939" lon="3.35438">
        <ele>471</ele>
        <time>2017-09-24T15:24:02Z</time>
      </trkpt>
      <trkpt lat="45.67944" lon="3.3544">
        <ele>471</ele>
        <time>2017-09-24T15:24:08Z</time>
      </trkpt>
      <trkpt lat="45.67945" lon="3.3544">
        <ele>471</ele>
        <time>2017-09-24T15:24:09Z</time>
      </trkpt>
      <trkpt lat="45.67947" lon="3.3544">
        <ele>471</ele>
        <time>2017-09-24T15:24:11Z</time>
      </trkpt>
      <trkpt lat="45.67955" lon="3.35439">
        <ele>470</ele>
        <time>2017-09-24T15:24:33Z</time>
      </trkpt>
      <trkpt lat="45.67965" lon="3.35439">
        <ele>469</ele>
        <time>2017-09-24T15:24:40Z</time>
      </trkpt>
      <trkpt lat="45.67967" lon="3.3544">
        <ele>469</ele>
        <time>2017-09-24T15:24:41Z</time>
      </trkpt>
      <trkpt lat="45.67977" lon="3.35437">
        <ele>469</ele>
        <time>2017-09-24T15:24:48Z</time>
      </trkpt>
      <trkpt lat="45.67988" lon="3.35434">
        <ele>470</ele>
        <time>2017-09-24T15:24:55Z</time>
      </trkpt>
      <trkpt lat="45.67999" lon="3.35433">
        <ele>471</ele>
        <time>2017-09-24T15:25:02Z</time>
      </trkpt>
      <trkpt lat="45.68009" lon="3.35431">
        <ele>472</ele>
        <time>2017-09-24T15:25:08Z</time>
      </trkpt>
      <trkpt lat="45.68022" lon="3.35427">
        <ele>474</ele>
        <time>2017-09-24T15:25:17Z</time>
      </trkpt>
      <trkpt lat="45.6803" lon="3.35436">
        <ele>475</ele>
        <time>2017-09-24T15:25:25Z</time>
      </trkpt>
      <trkpt lat="45.6804" lon="3.35445">
        <ele>477</ele>
        <time>2017-09-24T15:25:33Z</time>
      </trkpt>
      <trkpt lat="45.68049" lon="3.35454">
        <ele>478</ele>
        <time>2017-09-24T15:25:41Z</time>
      </trkpt>
      <trkpt lat="45.68057" lon="3.3546">
        <ele>479</ele>
        <time>2017-09-24T15:25:48Z</time>
      </trkpt>
      <trkpt lat="45.68059" lon="3.3546">
        <ele>479</ele>
        <time>2017-09-24T15:25:51Z</time>
      </trkpt>
      <trkpt lat="45.68062" lon="3.35462">
        <ele>479</ele>
        <time>2017-09-24T15:25:57Z</time>
      </trkpt>
      <trkpt lat="45.68063" lon="3.35462">
        <ele>479</ele>
        <time>2017-09-24T15:26:07Z</time>
      </trkpt>
      <trkpt lat="45.68068" lon="3.35464">
        <ele>480</ele>
        <time>2017-09-24T15:26:19Z</time>
      </trkpt>
      <trkpt lat="45.68078" lon="3.35468">
        <ele>480</ele>
        <time>2017-09-24T15:26:28Z</time>
      </trkpt>
      <trkpt lat="45.68087" lon="3.35471">
        <ele>480</ele>
        <time>2017-09-24T15:26:34Z</time>
      </trkpt>
      <trkpt lat="45.68096" lon="3.35472">
        <ele>481</ele>
        <time>2017-09-24T15:26:40Z</time>
      </trkpt>
      <trkpt lat="45.68106" lon="3.35471">
        <ele>484</ele>
        <time>2017-09-24T15:26:47Z</time>
      </trkpt>
      <trkpt lat="45.68118" lon="3.35468">
        <ele>487</ele>
        <time>2017-09-24T15:26:55Z</time>
      </trkpt>
      <trkpt lat="45.68132" lon="3.35465">
        <ele>491</ele>
        <time>2017-09-24T15:27:04Z</time>
      </trkpt>
      <trkpt lat="45.68143" lon="3.35456">
        <ele>494</ele>
        <time>2017-09-24T15:27:12Z</time>
      </trkpt>
      <trkpt lat="45.68153" lon="3.35454">
        <ele>495</ele>
        <time>2017-09-24T15:27:19Z</time>
      </trkpt>
      <trkpt lat="45.68155" lon="3.35454">
        <ele>495</ele>
        <time>2017-09-24T15:27:20Z</time>
      </trkpt>
      <trkpt lat="45.68159" lon="3.35458">
        <ele>495</ele>
        <time>2017-09-24T15:27:24Z</time>
      </trkpt>
      <trkpt lat="45.68168" lon="3.35462">
        <ele>495</ele>
        <time>2017-09-24T15:27:31Z</time>
      </trkpt>
      <trkpt lat="45.68176" lon="3.35463">
        <ele>495</ele>
        <time>2017-09-24T15:27:36Z</time>
      </trkpt>
      <trkpt lat="45.68177" lon="3.35464">
        <ele>495</ele>
        <time>2017-09-24T15:27:37Z</time>
      </trkpt>
      <trkpt lat="45.68186" lon="3.3547">
        <ele>495</ele>
        <time>2017-09-24T15:27:44Z</time>
      </trkpt>
      <trkpt lat="45.68193" lon="3.35477">
        <ele>494</ele>
        <time>2017-09-24T15:27:50Z</time>
      </trkpt>
      <trkpt lat="45.68204" lon="3.35482">
        <ele>494</ele>
        <time>2017-09-24T15:27:58Z</time>
      </trkpt>
      <trkpt lat="45.68213" lon="3.35487">
        <ele>494</ele>
        <time>2017-09-24T15:28:05Z</time>
      </trkpt>
      <trkpt lat="45.68226" lon="3.3549">
        <ele>496</ele>
        <time>2017-09-24T15:28:14Z</time>
      </trkpt>
      <trkpt lat="45.68234" lon="3.3549">
        <ele>497</ele>
        <time>2017-09-24T15:28:21Z</time>
      </trkpt>
      <trkpt lat="45.68246" lon="3.35496">
        <ele>497</ele>
        <time>2017-09-24T15:28:29Z</time>
      </trkpt>
      <trkpt lat="45.68257" lon="3.35501">
        <ele>498</ele>
        <time>2017-09-24T15:28:37Z</time>
      </trkpt>
      <trkpt lat="45.68269" lon="3.35506">
        <ele>499</ele>
        <time>2017-09-24T15:28:45Z</time>
      </trkpt>
      <trkpt lat="45.68281" lon="3.35512">
        <ele>500</ele>
        <time>2017-09-24T15:28:53Z</time>
      </trkpt>
      <trkpt lat="45.68291" lon="3.35519">
        <ele>500</ele>
        <time>2017-09-24T15:29:00Z</time>
      </trkpt>
      <trkpt lat="45.68302" lon="3.35525">
        <ele>501</ele>
        <time>2017-09-24T15:29:08Z</time>
      </trkpt>
      <trkpt lat="45.68314" lon="3.35534">
        <ele>500</ele>
        <time>2017-09-24T15:29:17Z</time>
      </trkpt>
      <trkpt lat="45.68325" lon="3.35542">
        <ele>500</ele>
        <time>2017-09-24T15:29:26Z</time>
      </trkpt>
      <trkpt lat="45.68336" lon="3.35549">
        <ele>500</ele>
        <time>2017-09-24T15:29:34Z</time>
      </trkpt>
      <trkpt lat="45.68342" lon="3.35551">
        <ele>500</ele>
        <time>2017-09-24T15:29:39Z</time>
      </trkpt>
      <trkpt lat="45.68346" lon="3.35553">
        <ele>500</ele>
        <time>2017-09-24T15:29:42Z</time>
      </trkpt>
      <trkpt lat="45.68352" lon="3.35552">
        <ele>501</ele>
        <time>2017-09-24T15:29:47Z</time>
      </trkpt>
      <trkpt lat="45.68365" lon="3.35549">
        <ele>503</ele>
        <time>2017-09-24T15:29:57Z</time>
      </trkpt>
      <trkpt lat="45.68374" lon="3.35546">
        <ele>505</ele>
        <time>2017-09-24T15:30:04Z</time>
      </trkpt>
      <trkpt lat="45.68388" lon="3.35546">
        <ele>506</ele>
        <time>2017-09-24T15:30:14Z</time>
      </trkpt>
      <trkpt lat="45.68398" lon="3.35546">
        <ele>507</ele>
        <time>2017-09-24T15:30:21Z</time>
      </trkpt>
      <trkpt lat="45.68407" lon="3.35547">
        <ele>508</ele>
        <time>2017-09-24T15:30:28Z</time>
      </trkpt>
      <trkpt lat="45.68422" lon="3.35549">
        <ele>510</ele>
        <time>2017-09-24T15:30:38Z</time>
      </trkpt>
      <trkpt lat="45.68436" lon="3.3555">
        <ele>510</ele>
        <time>2017-09-24T15:30:47Z</time>
      </trkpt>
      <trkpt lat="45.68446" lon="3.35551">
        <ele>510</ele>
        <time>2017-09-24T15:30:54Z</time>
      </trkpt>
      <trkpt lat="45.68455" lon="3.35555">
        <ele>510</ele>
        <time>2017-09-24T15:31:00Z</time>
      </trkpt>
      <trkpt lat="45.68464" lon="3.35557">
        <ele>509</ele>
        <time>2017-09-24T15:31:07Z</time>
      </trkpt>
      <trkpt lat="45.68483" lon="3.35565">
        <ele>510</ele>
        <time>2017-09-24T15:31:20Z</time>
      </trkpt>
      <trkpt lat="45.68495" lon="3.35568">
        <ele>510</ele>
        <time>2017-09-24T15:31:28Z</time>
      </trkpt>
      <trkpt lat="45.68507" lon="3.35573">
        <ele>510</ele>
        <time>2017-09-24T15:31:36Z</time>
      </trkpt>
      <trkpt lat="45.68521" lon="3.35578">
        <ele>510</ele>
        <time>2017-09-24T15:31:46Z</time>
      </trkpt>
      <trkpt lat="45.68531" lon="3.35585">
        <ele>510</ele>
        <time>2017-09-24T15:31:54Z</time>
      </trkpt>
      <trkpt lat="45.68547" lon="3.35591">
        <ele>511</ele>
        <time>2017-09-24T15:32:05Z</time>
      </trkpt>
      <trkpt lat="45.68561" lon="3.35596">
        <ele>511</ele>
        <time>2017-09-24T15:32:15Z</time>
      </trkpt>
      <trkpt lat="45.68574" lon="3.35607">
        <ele>511</ele>
        <time>2017-09-24T15:32:25Z</time>
      </trkpt>
      <trkpt lat="45.68584" lon="3.35615">
        <ele>511</ele>
        <time>2017-09-24T15:32:33Z</time>
      </trkpt>
      <trkpt lat="45.68594" lon="3.3562">
        <ele>511</ele>
        <time>2017-09-24T15:32:40Z</time>
      </trkpt>
      <trkpt lat="45.68604" lon="3.35626">
        <ele>511</ele>
        <time>2017-09-24T15:32:47Z</time>
      </trkpt>
      <trkpt lat="45.68616" lon="3.35633">
        <ele>511</ele>
        <time>2017-09-24T15:32:55Z</time>
      </trkpt>
      <trkpt lat="45.68628" lon="3.3564">
        <ele>511</ele>
        <time>2017-09-24T15:33:03Z</time>
      </trkpt>
      <trkpt lat="45.68637" lon="3.35645">
        <ele>511</ele>
        <time>2017-09-24T15:33:09Z</time>
      </trkpt>
      <trkpt lat="45.68645" lon="3.3565">
        <ele>512</ele>
        <time>2017-09-24T15:33:14Z</time>
      </trkpt>
      <trkpt lat="45.68646" lon="3.35651">
        <ele>512</ele>
        <time>2017-09-24T15:33:15Z</time>
      </trkpt>
      <trkpt lat="45.68651" lon="3.35653">
        <ele>512</ele>
        <time>2017-09-24T15:33:20Z</time>
      </trkpt>
      <trkpt lat="45.68659" lon="3.35658">
        <ele>512</ele>
        <time>2017-09-24T15:33:25Z</time>
      </trkpt>
      <trkpt lat="45.6866" lon="3.35659">
        <ele>512</ele>
        <time>2017-09-24T15:33:30Z</time>
      </trkpt>
      <trkpt lat="45.68664" lon="3.35661">
        <ele>512</ele>
        <time>2017-09-24T15:33:42Z</time>
      </trkpt>
      <trkpt lat="45.68665" lon="3.35662">
        <ele>512</ele>
        <time>2017-09-24T15:33:48Z</time>
      </trkpt>
      <trkpt lat="45.68666" lon="3.35663">
        <ele>512</ele>
        <time>2017-09-24T15:33:54Z</time>
      </trkpt>
      <trkpt lat="45.68671" lon="3.35664">
        <ele>512</ele>
        <time>2017-09-24T15:34:14Z</time>
      </trkpt>
      <trkpt lat="45.68676" lon="3.35667">
        <ele>512</ele>
        <time>2017-09-24T15:34:30Z</time>
      </trkpt>
      <trkpt lat="45.68691" lon="3.35676">
        <ele>512</ele>
        <time>2017-09-24T15:34:40Z</time>
      </trkpt>
      <trkpt lat="45.68704" lon="3.35685">
        <ele>512</ele>
        <time>2017-09-24T15:34:49Z</time>
      </trkpt>
      <trkpt lat="45.68721" lon="3.35698">
        <ele>513</ele>
        <time>2017-09-24T15:35:01Z</time>
      </trkpt>
      <trkpt lat="45.68733" lon="3.3571">
        <ele>514</ele>
        <time>2017-09-24T15:35:10Z</time>
      </trkpt>
      <trkpt lat="45.68747" lon="3.35725">
        <ele>515</ele>
        <time>2017-09-24T15:35:22Z</time>
      </trkpt>
      <trkpt lat="45.68762" lon="3.3574">
        <ele>516</ele>
        <time>2017-09-24T15:35:34Z</time>
      </trkpt>
      <trkpt lat="45.6877" lon="3.3575">
        <ele>517</ele>
        <time>2017-09-24T15:35:41Z</time>
      </trkpt>
      <trkpt lat="45.68781" lon="3.35767">
        <ele>518</ele>
        <time>2017-09-24T15:35:52Z</time>
      </trkpt>
      <trkpt lat="45.68793" lon="3.35787">
        <ele>519</ele>
        <time>2017-09-24T15:36:05Z</time>
      </trkpt>
      <trkpt lat="45.68808" lon="3.35831">
        <ele>521</ele>
        <time>2017-09-24T15:36:31Z</time>
      </trkpt>
      <trkpt lat="45.68813" lon="3.3585">
        <ele>522</ele>
        <time>2017-09-24T15:36:40Z</time>
      </trkpt>
      <trkpt lat="45.68817" lon="3.35868">
        <ele>523</ele>
        <time>2017-09-24T15:36:50Z</time>
      </trkpt>
      <trkpt lat="45.68821" lon="3.35888">
        <ele>524</ele>
        <time>2017-09-24T15:37:01Z</time>
      </trkpt>
      <trkpt lat="45.68825" lon="3.35905">
        <ele>524</ele>
        <time>2017-09-24T15:37:10Z</time>
      </trkpt>
      <trkpt lat="45.68826" lon="3.35912">
        <ele>525</ele>
        <time>2017-09-24T15:37:17Z</time>
      </trkpt>
      <trkpt lat="45.68828" lon="3.35922">
        <ele>525</ele>
        <time>2017-09-24T15:37:39Z</time>
      </trkpt>
      <trkpt lat="45.68833" lon="3.35941">
        <ele>526</ele>
        <time>2017-09-24T15:37:49Z</time>
      </trkpt>
      <trkpt lat="45.68839" lon="3.3596">
        <ele>528</ele>
        <time>2017-09-24T15:37:59Z</time>
      </trkpt>
      <trkpt lat="45.68844" lon="3.35976">
        <ele>530</ele>
        <time>2017-09-24T15:38:08Z</time>
      </trkpt>
      <trkpt lat="45.68852" lon="3.35996">
        <ele>531</ele>
        <time>2017-09-24T15:38:19Z</time>
      </trkpt>
      <trkpt lat="45.68853" lon="3.36006">
        <ele>531</ele>
        <time>2017-09-24T15:38:24Z</time>
      </trkpt>
      <trkpt lat="45.68852" lon="3.36009">
        <ele>531</ele>
        <time>2017-09-24T15:38:26Z</time>
      </trkpt>
      <trkpt lat="45.68851" lon="3.36009">
        <ele>530</ele>
        <time>2017-09-24T15:38:37Z</time>
      </trkpt>
      <trkpt lat="45.6885" lon="3.3601">
        <ele>530</ele>
        <time>2017-09-24T15:38:38Z</time>
      </trkpt>
      <trkpt lat="45.68839" lon="3.36011">
        <ele>529</ele>
        <time>2017-09-24T15:38:45Z</time>
      </trkpt>
      <trkpt lat="45.68822" lon="3.36019">
        <ele>526</ele>
        <time>2017-09-24T15:38:56Z</time>
      </trkpt>
      <trkpt lat="45.68812" lon="3.36026">
        <ele>525</ele>
        <time>2017-09-24T15:39:03Z</time>
      </trkpt>
      <trkpt lat="45.68805" lon="3.36037">
        <ele>524</ele>
        <time>2017-09-24T15:39:10Z</time>
      </trkpt>
      <trkpt lat="45.68796" lon="3.36056">
        <ele>523</ele>
        <time>2017-09-24T15:39:20Z</time>
      </trkpt>
      <trkpt lat="45.68789" lon="3.36073">
        <ele>523</ele>
        <time>2017-09-24T15:39:29Z</time>
      </trkpt>
      <trkpt lat="45.68781" lon="3.36095">
        <ele>522</ele>
        <time>2017-09-24T15:39:40Z</time>
      </trkpt>
      <trkpt lat="45.68775" lon="3.36112">
        <ele>521</ele>
        <time>2017-09-24T15:39:48Z</time>
      </trkpt>
      <trkpt lat="45.68771" lon="3.36127">
        <ele>520</ele>
        <time>2017-09-24T15:39:55Z</time>
      </trkpt>
      <trkpt lat="45.68764" lon="3.36135">
        <ele>519</ele>
        <time>2017-09-24T15:40:01Z</time>
      </trkpt>
      <trkpt lat="45.68752" lon="3.36144">
        <ele>518</ele>
        <time>2017-09-24T15:40:09Z</time>
      </trkpt>
      <trkpt lat="45.68735" lon="3.36137">
        <ele>517</ele>
        <time>2017-09-24T15:40:20Z</time>
      </trkpt>
      <trkpt lat="45.68722" lon="3.36127">
        <ele>515</ele>
        <time>2017-09-24T15:40:30Z</time>
      </trkpt>
      <trkpt lat="45.68713" lon="3.36122">
        <ele>515</ele>
        <time>2017-09-24T15:40:37Z</time>
      </trkpt>
      <trkpt lat="45.68702" lon="3.36112">
        <ele>514</ele>
        <time>2017-09-24T15:40:45Z</time>
      </trkpt>
      <trkpt lat="45.68687" lon="3.361">
        <ele>513</ele>
        <time>2017-09-24T15:40:56Z</time>
      </trkpt>
      <trkpt lat="45.68673" lon="3.36097">
        <ele>513</ele>
        <time>2017-09-24T15:41:05Z</time>
      </trkpt>
      <trkpt lat="45.68643" lon="3.36115">
        <ele>513</ele>
        <time>2017-09-24T15:41:27Z</time>
      </trkpt>
      <trkpt lat="45.68625" lon="3.36125">
        <ele>514</ele>
        <time>2017-09-24T15:41:40Z</time>
      </trkpt>
      <trkpt lat="45.6861" lon="3.36126">
        <ele>516</ele>
        <time>2017-09-24T15:41:50Z</time>
      </trkpt>
      <trkpt lat="45.68598" lon="3.36126">
        <ele>516</ele>
        <time>2017-09-24T15:41:59Z</time>
      </trkpt>
      <trkpt lat="45.68588" lon="3.36127">
        <ele>517</ele>
        <time>2017-09-24T15:42:07Z</time>
      </trkpt>
      <trkpt lat="45.6858" lon="3.36125">
        <ele>518</ele>
        <time>2017-09-24T15:42:13Z</time>
      </trkpt>
      <trkpt lat="45.68568" lon="3.36124">
        <ele>518</ele>
        <time>2017-09-24T15:42:22Z</time>
      </trkpt>
      <trkpt lat="45.6856" lon="3.36121">
        <ele>519</ele>
        <time>2017-09-24T15:42:28Z</time>
      </trkpt>
      <trkpt lat="45.68554" lon="3.36121">
        <ele>519</ele>
        <time>2017-09-24T15:42:33Z</time>
      </trkpt>
      <trkpt lat="45.68544" lon="3.36122">
        <ele>520</ele>
        <time>2017-09-24T15:42:41Z</time>
      </trkpt>
      <trkpt lat="45.68537" lon="3.36123">
        <ele>521</ele>
        <time>2017-09-24T15:42:47Z</time>
      </trkpt>
      <trkpt lat="45.68528" lon="3.36126">
        <ele>523</ele>
        <time>2017-09-24T15:42:55Z</time>
      </trkpt>
      <trkpt lat="45.68523" lon="3.36126">
        <ele>524</ele>
        <time>2017-09-24T15:43:00Z</time>
      </trkpt>
      <trkpt lat="45.6852" lon="3.36125">
        <ele>524</ele>
        <time>2017-09-24T15:43:04Z</time>
      </trkpt>
      <trkpt lat="45.68511" lon="3.36128">
        <ele>526</ele>
        <time>2017-09-24T15:43:12Z</time>
      </trkpt>
      <trkpt lat="45.68502" lon="3.36129">
        <ele>527</ele>
        <time>2017-09-24T15:43:20Z</time>
      </trkpt>
      <trkpt lat="45.68482" lon="3.36133">
        <ele>530</ele>
        <time>2017-09-24T15:43:38Z</time>
      </trkpt>
      <trkpt lat="45.68474" lon="3.36135">
        <ele>531</ele>
        <time>2017-09-24T15:43:44Z</time>
      </trkpt>
      <trkpt lat="45.68467" lon="3.36136">
        <ele>532</ele>
        <time>2017-09-24T15:43:51Z</time>
      </trkpt>
      <trkpt lat="45.68455" lon="3.36139">
        <ele>533</ele>
        <time>2017-09-24T15:44:00Z</time>
      </trkpt>
      <trkpt lat="45.68444" lon="3.36143">
        <ele>535</ele>
        <time>2017-09-24T15:44:08Z</time>
      </trkpt>
      <trkpt lat="45.68433" lon="3.36147">
        <ele>536</ele>
        <time>2017-09-24T15:44:16Z</time>
      </trkpt>
      <trkpt lat="45.68421" lon="3.3615">
        <ele>538</ele>
        <time>2017-09-24T15:44:24Z</time>
      </trkpt>
      <trkpt lat="45.68408" lon="3.36154">
        <ele>540</ele>
        <time>2017-09-24T15:44:34Z</time>
      </trkpt>
      <trkpt lat="45.68396" lon="3.36159">
        <ele>541</ele>
        <time>2017-09-24T15:44:42Z</time>
      </trkpt>
      <trkpt lat="45.68392" lon="3.36161">
        <ele>542</ele>
        <time>2017-09-24T15:44:45Z</time>
      </trkpt>
      <trkpt lat="45.68383" lon="3.36166">
        <ele>543</ele>
        <time>2017-09-24T15:44:52Z</time>
      </trkpt>
      <trkpt lat="45.6837" lon="3.36173">
        <ele>544</ele>
        <time>2017-09-24T15:45:01Z</time>
      </trkpt>
      <trkpt lat="45.68366" lon="3.36176">
        <ele>545</ele>
        <time>2017-09-24T15:45:04Z</time>
      </trkpt>
      <trkpt lat="45.68357" lon="3.36182">
        <ele>546</ele>
        <time>2017-09-24T15:45:11Z</time>
      </trkpt>
      <trkpt lat="45.68343" lon="3.36195">
        <ele>548</ele>
        <time>2017-09-24T15:45:22Z</time>
      </trkpt>
      <trkpt lat="45.68331" lon="3.36209">
        <ele>550</ele>
        <time>2017-09-24T15:45:32Z</time>
      </trkpt>
      <trkpt lat="45.6832" lon="3.36225">
        <ele>552</ele>
        <time>2017-09-24T15:45:43Z</time>
      </trkpt>
      <trkpt lat="45.68307" lon="3.3624">
        <ele>555</ele>
        <time>2017-09-24T15:45:54Z</time>
      </trkpt>
      <trkpt lat="45.683" lon="3.36253">
        <ele>557</ele>
        <time>2017-09-24T15:46:03Z</time>
      </trkpt>
      <trkpt lat="45.68306" lon="3.36262">
        <ele>557</ele>
        <time>2017-09-24T15:46:07Z</time>
      </trkpt>
      <trkpt lat="45.68322" lon="3.36269">
        <ele>556</ele>
        <time>2017-09-24T15:46:18Z</time>
      </trkpt>
      <trkpt lat="45.68337" lon="3.36273">
        <ele>555</ele>
        <time>2017-09-24T15:46:29Z</time>
      </trkpt>
      <trkpt lat="45.68339" lon="3.36274">
        <ele>555</ele>
        <time>2017-09-24T15:46:36Z</time>
      </trkpt>
      <trkpt lat="45.68341" lon="3.36274">
        <ele>555</ele>
        <time>2017-09-24T15:46:43Z</time>
      </trkpt>
      <trkpt lat="45.6834" lon="3.36278">
        <ele>562</ele>
      </trkpt>
      <trkpt lat="45.68344" lon="3.36278">
        <ele>562.1</ele>
      </trkpt>
      <trkpt lat="45.68444" lon="3.36418">
        <ele>554.3</ele>
      </trkpt>
      <trkpt lat="45.68518" lon="3.36416">
        <ele>549.3</ele>
      </trkpt>
      <trkpt lat="45.68536" lon="3.36452">
        <ele>544.9</ele>
      </trkpt>
      <trkpt lat="45.68515" lon="3.36554">
        <ele>542.9</ele>
      </trkpt>
      <trkpt lat="45.68519" lon="3.36583">
        <ele>540.6</ele>
      </trkpt>
      <trkpt lat="45.68541" lon="3.366">
        <ele>543.2</ele>
      </trkpt>
      <trkpt lat="45.68663" lon="3.36624">
        <ele>548.6</ele>
      </trkpt>
      <trkpt lat="45.68759" lon="3.36678">
        <ele>551.3</ele>
      </trkpt>
      <trkpt lat="45.68822" lon="3.36692">
        <ele>549.6</ele>
      </trkpt>
      <trkpt lat="45.68878" lon="3.36738">
        <ele>549.5</ele>
      </trkpt>
      <trkpt lat="45.68857" lon="3.36821">
        <ele>553.8</ele>
      </trkpt>
      <trkpt lat="45.68851" lon="3.36827">
        <ele>551</ele>
      </trkpt>
      <trkpt lat="45.68847" lon="3.36842">
        <ele>552</ele>
      </trkpt>
      <trkpt lat="45.68843" lon="3.36854">
        <ele>552</ele>
      </trkpt>
      <trkpt lat="45.68846" lon="3.36857">
        <ele>552</ele>
      </trkpt>
      <trkpt lat="45.68852" lon="3.36857">
        <ele>552</ele>
      </trkpt>
      <trkpt lat="45.68859" lon="3.36858">
        <ele>552</ele>
      </trkpt>
      <trkpt lat="45.68873" lon="3.3686">
        <ele>552</ele>
      </trkpt>
      <trkpt lat="45.68881" lon="3.36862">
        <ele>552</ele>
      </trkpt>
      <trkpt lat="45.68893" lon="3.36867">
        <ele>552</ele>
      </trkpt>
      <trkpt lat="45.68906" lon="3.36872">
        <ele>552</ele>
      </trkpt>
      <trkpt lat="45.68918" lon="3.36877">
        <ele>553</ele>
      </trkpt>
      <trkpt lat="45.68932" lon="3.36884">
        <ele>553</ele>
      </trkpt>
      <trkpt lat="45.68942" lon="3.36895">
        <ele>553</ele>
      </trkpt>
      <trkpt lat="45.6895" lon="3.369">
        <ele>553</ele>
      </trkpt>
      <trkpt lat="45.68962" lon="3.36909">
        <ele>554</ele>
      </trkpt>
      <trkpt lat="45.68971" lon="3.36917">
        <ele>554</ele>
      </trkpt>
      <trkpt lat="45.68981" lon="3.36933">
        <ele>555</ele>
      </trkpt>
      <trkpt lat="45.68992" lon="3.36954">
        <ele>556</ele>
      </trkpt>
      <trkpt lat="45.69001" lon="3.36972">
        <ele>557</ele>
      </trkpt>
      <trkpt lat="45.69018" lon="3.37005">
        <ele>558</ele>
      </trkpt>
      <trkpt lat="45.69026" lon="3.37023">
        <ele>558</ele>
      </trkpt>
      <trkpt lat="45.69037" lon="3.37045">
        <ele>559</ele>
      </trkpt>
      <trkpt lat="45.69048" lon="3.37063">
        <ele>559</ele>
      </trkpt>
      <trkpt lat="45.69068" lon="3.37093">
        <ele>560</ele>
      </trkpt>
      <trkpt lat="45.6908" lon="3.3711">
        <ele>560</ele>
      </trkpt>
      <trkpt lat="45.69091" lon="3.37126">
        <ele>559</ele>
      </trkpt>
      <trkpt lat="45.69103" lon="3.37141">
        <ele>558</ele>
      </trkpt>
      <trkpt lat="45.69113" lon="3.3715">
        <ele>558</ele>
      </trkpt>
      <trkpt lat="45.69126" lon="3.37155">
        <ele>559</ele>
      </trkpt>
      <trkpt lat="45.69142" lon="3.37159">
        <ele>559</ele>
      </trkpt>
      <trkpt lat="45.69164" lon="3.37163">
        <ele>558</ele>
      </trkpt>
      <trkpt lat="45.69181" lon="3.37165">
        <ele>558</ele>
      </trkpt>
      <trkpt lat="45.69198" lon="3.37164">
        <ele>558</ele>
      </trkpt>
      <trkpt lat="45.69209" lon="3.37162">
        <ele>558</ele>
      </trkpt>
      <trkpt lat="45.69222" lon="3.37161">
        <ele>558</ele>
      </trkpt>
      <trkpt lat="45.69235" lon="3.37155">
        <ele>559</ele>
      </trkpt>
      <trkpt lat="45.69253" lon="3.37143">
        <ele>561</ele>
      </trkpt>
      <trkpt lat="45.69267" lon="3.37134">
        <ele>562</ele>
      </trkpt>
      <trkpt lat="45.69283" lon="3.37126">
        <ele>562</ele>
      </trkpt>
      <trkpt lat="45.69296" lon="3.37121">
        <ele>562</ele>
      </trkpt>
      <trkpt lat="45.69309" lon="3.37118">
        <ele>563</ele>
      </trkpt>
      <trkpt lat="45.6932" lon="3.37118">
        <ele>563</ele>
      </trkpt>
      <trkpt lat="45.69333" lon="3.37124">
        <ele>563</ele>
      </trkpt>
      <trkpt lat="45.69345" lon="3.37134">
        <ele>562</ele>
      </trkpt>
      <trkpt lat="45.69354" lon="3.37143">
        <ele>562</ele>
      </trkpt>
      <trkpt lat="45.69367" lon="3.37151">
        <ele>561</ele>
      </trkpt>
      <trkpt lat="45.69375" lon="3.37156">
        <ele>561</ele>
      </trkpt>
      <trkpt lat="45.69405" lon="3.37167">
        <ele>558</ele>
      </trkpt>
      <trkpt lat="45.69425" lon="3.37173">
        <ele>556</ele>
      </trkpt>
      <trkpt lat="45.69427" lon="3.37176">
        <ele>555</ele>
      </trkpt>
      <trkpt lat="45.69422" lon="3.37183">
        <ele>555</ele>
      </trkpt>
      <trkpt lat="45.69404" lon="3.37186">
        <ele>557</ele>
      </trkpt>
      <trkpt lat="45.69389" lon="3.37187">
        <ele>558</ele>
      </trkpt>
      <trkpt lat="45.6937" lon="3.37189">
        <ele>557</ele>
      </trkpt>
      <trkpt lat="45.69353" lon="3.37191">
        <ele>557</ele>
      </trkpt>
      <trkpt lat="45.69338" lon="3.37191">
        <ele>556</ele>
      </trkpt>
      <trkpt lat="45.69323" lon="3.37188">
        <ele>556</ele>
      </trkpt>
      <trkpt lat="45.69311" lon="3.3718">
        <ele>556</ele>
      </trkpt>
      <trkpt lat="45.69291" lon="3.37177">
        <ele>556</ele>
      </trkpt>
      <trkpt lat="45.6928" lon="3.37187">
        <ele>555</ele>
      </trkpt>
      <trkpt lat="45.6927" lon="3.37199">
        <ele>553</ele>
      </trkpt>
      <trkpt lat="45.6926" lon="3.37212">
        <ele>552</ele>
      </trkpt>
      <trkpt lat="45.69249" lon="3.37227">
        <ele>550</ele>
      </trkpt>
      <trkpt lat="45.69236" lon="3.37243">
        <ele>549</ele>
      </trkpt>
      <trkpt lat="45.69228" lon="3.37252">
        <ele>548</ele>
      </trkpt>
      <trkpt lat="45.69224" lon="3.37254">
        <ele>548</ele>
      </trkpt>
      <trkpt lat="45.69189" lon="3.37258">
        <ele>546</ele>
      </trkpt>
      <trkpt lat="45.69179" lon="3.37258">
        <ele>546</ele>
      </trkpt>
      <trkpt lat="45.69166" lon="3.37258">
        <ele>546</ele>
      </trkpt>
      <trkpt lat="45.69157" lon="3.37259">
        <ele>545</ele>
      </trkpt>
      <trkpt lat="45.69141" lon="3.37261">
        <ele>544</ele>
      </trkpt>
      <trkpt lat="45.69128" lon="3.37262">
        <ele>544</ele>
      </trkpt>
      <trkpt lat="45.69112" lon="3.37266">
        <ele>543</ele>
      </trkpt>
      <trkpt lat="45.69098" lon="3.3727">
        <ele>542</ele>
      </trkpt>
      <trkpt lat="45.69079" lon="3.37273">
        <ele>542</ele>
      </trkpt>
      <trkpt lat="45.69072" lon="3.37272">
        <ele>541</ele>
      </trkpt>
      <trkpt lat="45.69071" lon="3.37271">
        <ele>541</ele>
      </trkpt>
      <trkpt lat="45.69061" lon="3.37267">
        <ele>542</ele>
      </trkpt>
      <trkpt lat="45.69052" lon="3.37261">
        <ele>542</ele>
      </trkpt>
      <trkpt lat="45.69039" lon="3.37253">
        <ele>541</ele>
      </trkpt>
      <trkpt lat="45.69031" lon="3.37247">
        <ele>541</ele>
      </trkpt>
      <trkpt lat="45.6903" lon="3.37247">
        <ele>541</ele>
      </trkpt>
      <trkpt lat="45.69029" lon="3.37248">
        <ele>541</ele>
      </trkpt>
      <trkpt lat="45.69029" lon="3.37247">
        <ele>541</ele>
      </trkpt>
      <trkpt lat="45.6903" lon="3.37249">
        <ele>541</ele>
      </trkpt>
      <trkpt lat="45.6903" lon="3.3725">
        <ele>541</ele>
      </trkpt>
      <trkpt lat="45.6903" lon="3.37251">
        <ele>541</ele>
      </trkpt>
      <trkpt lat="45.69027" lon="3.37263">
        <ele>541</ele>
      </trkpt>
      <trkpt lat="45.69027" lon="3.37265">
        <ele>541</ele>
      </trkpt>
      <trkpt lat="45.69024" lon="3.37278">
        <ele>540</ele>
      </trkpt>
      <trkpt lat="45.69022" lon="3.37289">
        <ele>540</ele>
      </trkpt>
      <trkpt lat="45.6902" lon="3.37304">
        <ele>540</ele>
      </trkpt>
      <trkpt lat="45.69021" lon="3.3731">
        <ele>540</ele>
      </trkpt>
      <trkpt lat="45.69023" lon="3.37323">
        <ele>540</ele>
      </trkpt>
      <trkpt lat="45.69027" lon="3.37329">
        <ele>540</ele>
      </trkpt>
      <trkpt lat="45.69027" lon="3.37331">
        <ele>540</ele>
      </trkpt>
      <trkpt lat="45.69029" lon="3.37346">
        <ele>541</ele>
      </trkpt>
      <trkpt lat="45.69026" lon="3.37352">
        <ele>541</ele>
      </trkpt>
      <trkpt lat="45.69021" lon="3.37357">
        <ele>542</ele>
      </trkpt>
      <trkpt lat="45.69014" lon="3.37365">
        <ele>544</ele>
      </trkpt>
      <trkpt lat="45.69013" lon="3.3737">
        <ele>544</ele>
      </trkpt>
      <trkpt lat="45.69012" lon="3.37372">
        <ele>545</ele>
      </trkpt>
      <trkpt lat="45.69007" lon="3.37382">
        <ele>546</ele>
      </trkpt>
      <trkpt lat="45.69007" lon="3.37384">
        <ele>546</ele>
      </trkpt>
      <trkpt lat="45.69008" lon="3.37385">
        <ele>546</ele>
      </trkpt>
      <trkpt lat="45.69006" lon="3.37384">
        <ele>546</ele>
      </trkpt>
      <trkpt lat="45.69004" lon="3.37384">
        <ele>546</ele>
      </trkpt>
      <trkpt lat="45.69005" lon="3.37383">
        <ele>546</ele>
      </trkpt>
      <trkpt lat="45.69003" lon="3.37384">
        <ele>546</ele>
      </trkpt>
      <trkpt lat="45.69002" lon="3.37385">
        <ele>546</ele>
      </trkpt>
      <trkpt lat="45.69003" lon="3.37389">
        <ele>547</ele>
      </trkpt>
      <trkpt lat="45.69002" lon="3.3739">
        <ele>547</ele>
      </trkpt>
      <trkpt lat="45.69" lon="3.37396">
        <ele>548</ele>
      </trkpt>
      <trkpt lat="45.68997" lon="3.37405">
        <ele>549</ele>
      </trkpt>
      <trkpt lat="45.68994" lon="3.37419">
        <ele>550</ele>
      </trkpt>
      <trkpt lat="45.68994" lon="3.37421">
        <ele>551</ele>
      </trkpt>
      <trkpt lat="45.68994" lon="3.37434">
        <ele>552</ele>
      </trkpt>
      <trkpt lat="45.68991" lon="3.37441">
        <ele>554</ele>
      </trkpt>
      <trkpt lat="45.68988" lon="3.37451">
        <ele>555</ele>
      </trkpt>
      <trkpt lat="45.68984" lon="3.37462">
        <ele>557</ele>
      </trkpt>
      <trkpt lat="45.6898" lon="3.3747">
        <ele>558</ele>
      </trkpt>
      <trkpt lat="45.68975" lon="3.37482">
        <ele>559</ele>
      </trkpt>
      <trkpt lat="45.6897" lon="3.37493">
        <ele>560</ele>
      </trkpt>
      <trkpt lat="45.68967" lon="3.37497">
        <ele>561</ele>
      </trkpt>
      <trkpt lat="45.6896" lon="3.37514">
        <ele>563</ele>
      </trkpt>
      <trkpt lat="45.68953" lon="3.37525">
        <ele>564</ele>
      </trkpt>
      <trkpt lat="45.68946" lon="3.37539">
        <ele>566</ele>
      </trkpt>
      <trkpt lat="45.68942" lon="3.3755">
        <ele>567</ele>
      </trkpt>
      <trkpt lat="45.68933" lon="3.37565">
        <ele>569</ele>
      </trkpt>
      <trkpt lat="45.68926" lon="3.37581">
        <ele>570</ele>
      </trkpt>
      <trkpt lat="45.68921" lon="3.376">
        <ele>572</ele>
      </trkpt>
      <trkpt lat="45.68918" lon="3.37618">
        <ele>575</ele>
      </trkpt>
      <trkpt lat="45.68916" lon="3.37627">
        <ele>575</ele>
      </trkpt>
      <trkpt lat="45.68915" lon="3.37629">
        <ele>576</ele>
      </trkpt>
      <trkpt lat="45.68912" lon="3.37645">
        <ele>577</ele>
      </trkpt>
      <trkpt lat="45.68908" lon="3.37666">
        <ele>579</ele>
      </trkpt>
      <trkpt lat="45.68904" lon="3.37691">
        <ele>581</ele>
      </trkpt>
      <trkpt lat="45.68902" lon="3.37715">
        <ele>582</ele>
      </trkpt>
      <trkpt lat="45.68901" lon="3.3773">
        <ele>583</ele>
      </trkpt>
      <trkpt lat="45.689" lon="3.37753">
        <ele>585</ele>
      </trkpt>
      <trkpt lat="45.68899" lon="3.37771">
        <ele>586</ele>
      </trkpt>
      <trkpt lat="45.68899" lon="3.37787">
        <ele>586</ele>
      </trkpt>
      <trkpt lat="45.68902" lon="3.37817">
        <ele>589</ele>
      </trkpt>
      <trkpt lat="45.68908" lon="3.37826">
        <ele>590</ele>
      </trkpt>
      <trkpt lat="45.68911" lon="3.37831">
        <ele>590</ele>
      </trkpt>
      <trkpt lat="45.68912" lon="3.37838">
        <ele>591</ele>
      </trkpt>
      <trkpt lat="45.68917" lon="3.37845">
        <ele>591</ele>
      </trkpt>
      <trkpt lat="45.68931" lon="3.37837">
        <ele>591</ele>
      </trkpt>
      <trkpt lat="45.68947" lon="3.37822">
        <ele>590</ele>
      </trkpt>
      <trkpt lat="45.68958" lon="3.37809">
        <ele>591</ele>
      </trkpt>
      <trkpt lat="45.68965" lon="3.37801">
        <ele>591</ele>
      </trkpt>
      <trkpt lat="45.6898" lon="3.37785">
        <ele>591</ele>
      </trkpt>
      <trkpt lat="45.68988" lon="3.37777">
        <ele>591</ele>
      </trkpt>
      <trkpt lat="45.69" lon="3.37764">
        <ele>591</ele>
      </trkpt>
      <trkpt lat="45.69008" lon="3.37753">
        <ele>590</ele>
      </trkpt>
      <trkpt lat="45.6902" lon="3.37741">
        <ele>589</ele>
      </trkpt>
      <trkpt lat="45.69034" lon="3.37731">
        <ele>589</ele>
      </trkpt>
      <trkpt lat="45.69043" lon="3.37723">
        <ele>589</ele>
      </trkpt>
      <trkpt lat="45.6905" lon="3.37718">
        <ele>589</ele>
      </trkpt>
      <trkpt lat="45.69052" lon="3.37721">
        <ele>589</ele>
      </trkpt>
      <trkpt lat="45.69061" lon="3.37747">
        <ele>589</ele>
      </trkpt>
      <trkpt lat="45.69069" lon="3.37772">
        <ele>588</ele>
      </trkpt>
      <trkpt lat="45.69073" lon="3.37786">
        <ele>586</ele>
      </trkpt>
      <trkpt lat="45.69076" lon="3.37792">
        <ele>586</ele>
      </trkpt>
      <trkpt lat="45.6908" lon="3.37804">
        <ele>585</ele>
      </trkpt>
      <trkpt lat="45.69085" lon="3.37821">
        <ele>583</ele>
      </trkpt>
      <trkpt lat="45.69088" lon="3.37832">
        <ele>583</ele>
      </trkpt>
      <trkpt lat="45.69092" lon="3.37845">
        <ele>582</ele>
      </trkpt>
      <trkpt lat="45.69096" lon="3.37856">
        <ele>581</ele>
      </trkpt>
      <trkpt lat="45.69102" lon="3.37874">
        <ele>581</ele>
      </trkpt>
      <trkpt lat="45.69106" lon="3.37891">
        <ele>581</ele>
      </trkpt>
      <trkpt lat="45.69112" lon="3.3791">
        <ele>581</ele>
      </trkpt>
      <trkpt lat="45.69119" lon="3.37928">
        <ele>580</ele>
      </trkpt>
      <trkpt lat="45.69128" lon="3.37935">
        <ele>579</ele>
      </trkpt>
      <trkpt lat="45.69146" lon="3.37938">
        <ele>578</ele>
      </trkpt>
      <trkpt lat="45.69165" lon="3.37942">
        <ele>576</ele>
      </trkpt>
      <trkpt lat="45.69181" lon="3.37946">
        <ele>575</ele>
      </trkpt>
      <trkpt lat="45.69194" lon="3.37949">
        <ele>574</ele>
      </trkpt>
      <trkpt lat="45.69195" lon="3.37949">
        <ele>574</ele>
      </trkpt>
      <trkpt lat="45.69203" lon="3.37958">
        <ele>573</ele>
      </trkpt>
      <trkpt lat="45.69201" lon="3.37964">
        <ele>573</ele>
      </trkpt>
      <trkpt lat="45.6919" lon="3.37983">
        <ele>572</ele>
      </trkpt>
      <trkpt lat="45.69182" lon="3.37996">
        <ele>574</ele>
      </trkpt>
      <trkpt lat="45.69173" lon="3.38009">
        <ele>576</ele>
      </trkpt>
      <trkpt lat="45.69166" lon="3.38023">
        <ele>579</ele>
      </trkpt>
      <trkpt lat="45.69157" lon="3.38035">
        <ele>583</ele>
      </trkpt>
      <trkpt lat="45.69149" lon="3.38048">
        <ele>586</ele>
      </trkpt>
      <trkpt lat="45.69146" lon="3.38055">
        <ele>588</ele>
      </trkpt>
      <trkpt lat="45.69139" lon="3.38064">
        <ele>590</ele>
      </trkpt>
      <trkpt lat="45.69133" lon="3.38095">
        <ele>595</ele>
      </trkpt>
      <trkpt lat="45.69132" lon="3.38107">
        <ele>597</ele>
      </trkpt>
      <trkpt lat="45.6913" lon="3.3812">
        <ele>599</ele>
      </trkpt>
      <trkpt lat="45.69129" lon="3.38132">
        <ele>600</ele>
      </trkpt>
      <trkpt lat="45.69127" lon="3.38152">
        <ele>603</ele>
      </trkpt>
      <trkpt lat="45.69126" lon="3.38168">
        <ele>605</ele>
      </trkpt>
      <trkpt lat="45.69127" lon="3.38172">
        <ele>606</ele>
      </trkpt>
      <trkpt lat="45.69125" lon="3.38184">
        <ele>607</ele>
      </trkpt>
      <trkpt lat="45.69124" lon="3.38188">
        <ele>607</ele>
      </trkpt>
      <trkpt lat="45.69124" lon="3.38189">
        <ele>607</ele>
      </trkpt>
      <trkpt lat="45.69121" lon="3.38195">
        <ele>608</ele>
      </trkpt>
      <trkpt lat="45.69121" lon="3.38195">
        <ele>608</ele>
      </trkpt>
      <trkpt lat="45.69129" lon="3.38199">
        <ele>608</ele>
      </trkpt>
      <trkpt lat="45.69145" lon="3.38197">
        <ele>608</ele>
      </trkpt>
      <trkpt lat="45.69157" lon="3.38198">
        <ele>607</ele>
      </trkpt>
      <trkpt lat="45.69171" lon="3.38201">
        <ele>607</ele>
      </trkpt>
      <trkpt lat="45.69182" lon="3.38204">
        <ele>607</ele>
      </trkpt>
      <trkpt lat="45.69186" lon="3.38205">
        <ele>607</ele>
      </trkpt>
      <trkpt lat="45.69195" lon="3.38211">
        <ele>607</ele>
      </trkpt>
      <trkpt lat="45.69206" lon="3.38212">
        <ele>606</ele>
      </trkpt>
      <trkpt lat="45.69225" lon="3.38219">
        <ele>606</ele>
      </trkpt>
      <trkpt lat="45.69242" lon="3.38228">
        <ele>605</ele>
      </trkpt>
      <trkpt lat="45.69254" lon="3.38235">
        <ele>605</ele>
      </trkpt>
      <trkpt lat="45.69267" lon="3.38242">
        <ele>604</ele>
      </trkpt>
      <trkpt lat="45.69273" lon="3.38243">
        <ele>604</ele>
      </trkpt>
      <trkpt lat="45.69291" lon="3.38244">
        <ele>602</ele>
      </trkpt>
      <trkpt lat="45.69304" lon="3.38248">
        <ele>600</ele>
      </trkpt>
      <trkpt lat="45.69314" lon="3.38254">
        <ele>599</ele>
      </trkpt>
      <trkpt lat="45.69319" lon="3.38263">
        <ele>599</ele>
      </trkpt>
      <trkpt lat="45.6932" lon="3.38273">
        <ele>601</ele>
      </trkpt>
      <trkpt lat="45.6932" lon="3.38284">
        <ele>602</ele>
      </trkpt>
      <trkpt lat="45.69326" lon="3.38305">
        <ele>603</ele>
      </trkpt>
      <trkpt lat="45.69335" lon="3.38318">
        <ele>602</ele>
      </trkpt>
      <trkpt lat="45.69347" lon="3.38331">
        <ele>601</ele>
      </trkpt>
      <trkpt lat="45.69355" lon="3.38338">
        <ele>600</ele>
      </trkpt>
      <trkpt lat="45.69364" lon="3.38345">
        <ele>599</ele>
      </trkpt>
      <trkpt lat="45.69373" lon="3.38351">
        <ele>598</ele>
      </trkpt>
      <trkpt lat="45.69381" lon="3.38356">
        <ele>596</ele>
      </trkpt>
      <trkpt lat="45.69405" lon="3.38372">
        <ele>594</ele>
      </trkpt>
      <trkpt lat="45.69421" lon="3.38383">
        <ele>592</ele>
      </trkpt>
      <trkpt lat="45.69435" lon="3.38394">
        <ele>591</ele>
      </trkpt>
      <trkpt lat="45.6945" lon="3.38403">
        <ele>589</ele>
      </trkpt>
      <trkpt lat="45.69461" lon="3.38409">
        <ele>587</ele>
      </trkpt>
      <trkpt lat="45.69471" lon="3.38413">
        <ele>586</ele>
      </trkpt>
      <trkpt lat="45.69485" lon="3.38417">
        <ele>585</ele>
      </trkpt>
      <trkpt lat="45.69498" lon="3.38423">
        <ele>584</ele>
      </trkpt>
      <trkpt lat="45.69509" lon="3.38428">
        <ele>584</ele>
      </trkpt>
      <trkpt lat="45.69516" lon="3.3843">
        <ele>583</ele>
      </trkpt>
      <trkpt lat="45.69531" lon="3.38436">
        <ele>582</ele>
      </trkpt>
      <trkpt lat="45.69541" lon="3.38436">
        <ele>581</ele>
      </trkpt>
      <trkpt lat="45.69556" lon="3.38431">
        <ele>579</ele>
      </trkpt>
      <trkpt lat="45.69555" lon="3.38433">
        <ele>580</ele>
      </trkpt>
      <trkpt lat="45.69548" lon="3.38436">
        <ele>580</ele>
      </trkpt>
      <trkpt lat="45.69547" lon="3.38438">
        <ele>580</ele>
      </trkpt>
      <trkpt lat="45.69547" lon="3.38442">
        <ele>580</ele>
      </trkpt>
      <trkpt lat="45.69546" lon="3.38458">
        <ele>581</ele>
      </trkpt>
      <trkpt lat="45.69549" lon="3.38471">
        <ele>581</ele>
      </trkpt>
      <trkpt lat="45.69558" lon="3.38477">
        <ele>580</ele>
      </trkpt>
      <trkpt lat="45.69574" lon="3.38483">
        <ele>580</ele>
      </trkpt>
      <trkpt lat="45.69579" lon="3.38486">
        <ele>581</ele>
      </trkpt>
      <trkpt lat="45.69577" lon="3.38489">
        <ele>581</ele>
      </trkpt>
      <trkpt lat="45.69575" lon="3.38493">
        <ele>581</ele>
      </trkpt>
      <trkpt lat="45.69572" lon="3.38498">
        <ele>581</ele>
      </trkpt>
      <trkpt lat="45.69563" lon="3.38503">
        <ele>581</ele>
      </trkpt>
      <trkpt lat="45.69552" lon="3.38507">
        <ele>581</ele>
      </trkpt>
      <trkpt lat="45.69538" lon="3.3851">
        <ele>581</ele>
      </trkpt>
      <trkpt lat="45.69535" lon="3.38511">
        <ele>581</ele>
      </trkpt>
      <trkpt lat="45.69522" lon="3.38514">
        <ele>581</ele>
      </trkpt>
      <trkpt lat="45.69513" lon="3.38518">
        <ele>580</ele>
      </trkpt>
      <trkpt lat="45.69503" lon="3.38521">
        <ele>579</ele>
      </trkpt>
      <trkpt lat="45.69496" lon="3.38524">
        <ele>579</ele>
      </trkpt>
      <trkpt lat="45.69494" lon="3.38525">
        <ele>579</ele>
      </trkpt>
      <trkpt lat="45.69485" lon="3.38528">
        <ele>578</ele>
      </trkpt>
      <trkpt lat="45.69477" lon="3.38532">
        <ele>576</ele>
      </trkpt>
      <trkpt lat="45.69467" lon="3.38535">
        <ele>575</ele>
      </trkpt>
      <trkpt lat="45.69455" lon="3.3854">
        <ele>576</ele>
      </trkpt>
      <trkpt lat="45.69454" lon="3.3854">
        <ele>576</ele>
      </trkpt>
      <trkpt lat="45.69442" lon="3.38548">
        <ele>576</ele>
      </trkpt>
      <trkpt lat="45.69437" lon="3.38554">
        <ele>575</ele>
      </trkpt>
      <trkpt lat="45.69433" lon="3.38557">
        <ele>575</ele>
      </trkpt>
      <trkpt lat="45.69432" lon="3.38558">
        <ele>575</ele>
      </trkpt>
      <trkpt lat="45.69428" lon="3.38561">
        <ele>574</ele>
      </trkpt>
      <trkpt lat="45.69426" lon="3.38563">
        <ele>574</ele>
      </trkpt>
      <trkpt lat="45.69419" lon="3.3857">
        <ele>573</ele>
      </trkpt>
      <trkpt lat="45.69414" lon="3.38574">
        <ele>572</ele>
      </trkpt>
      <trkpt lat="45.69414" lon="3.38575">
        <ele>571</ele>
      </trkpt>
      <trkpt lat="45.69404" lon="3.38581">
        <ele>571</ele>
      </trkpt>
      <trkpt lat="45.69397" lon="3.38589">
        <ele>569</ele>
      </trkpt>
      <trkpt lat="45.6939" lon="3.38598">
        <ele>567</ele>
      </trkpt>
      <trkpt lat="45.69391" lon="3.38619">
        <ele>563</ele>
      </trkpt>
      <trkpt lat="45.694" lon="3.38627">
        <ele>560</ele>
      </trkpt>
      <trkpt lat="45.6941" lon="3.38634">
        <ele>558</ele>
      </trkpt>
      <trkpt lat="45.69424" lon="3.38641">
        <ele>555</ele>
      </trkpt>
      <trkpt lat="45.69437" lon="3.38651">
        <ele>552</ele>
      </trkpt>
      <trkpt lat="45.69446" lon="3.38663">
        <ele>549</ele>
      </trkpt>
      <trkpt lat="45.6946" lon="3.38701">
        <ele>544</ele>
      </trkpt>
      <trkpt lat="45.69467" lon="3.38711">
        <ele>544</ele>
      </trkpt>
      <trkpt lat="45.69478" lon="3.38723">
        <ele>543</ele>
      </trkpt>
      <trkpt lat="45.69485" lon="3.38729">
        <ele>543</ele>
      </trkpt>
      <trkpt lat="45.69493" lon="3.38736">
        <ele>542</ele>
      </trkpt>
      <trkpt lat="45.69502" lon="3.38743">
        <ele>542</ele>
      </trkpt>
      <trkpt lat="45.69515" lon="3.38749">
        <ele>541</ele>
      </trkpt>
      <trkpt lat="45.69523" lon="3.38749">
        <ele>540</ele>
      </trkpt>
      <trkpt lat="45.69534" lon="3.38746">
        <ele>540</ele>
      </trkpt>
      <trkpt lat="45.69539" lon="3.38746">
        <ele>540</ele>
      </trkpt>
      <trkpt lat="45.69544" lon="3.38747">
        <ele>540</ele>
      </trkpt>
      <trkpt lat="45.69553" lon="3.38749">
        <ele>540</ele>
      </trkpt>
      <trkpt lat="45.6956" lon="3.38752">
        <ele>539</ele>
      </trkpt>
      <trkpt lat="45.6957" lon="3.38758">
        <ele>539</ele>
      </trkpt>
      <trkpt lat="45.69579" lon="3.3876">
        <ele>539</ele>
      </trkpt>
      <trkpt lat="45.69595" lon="3.38778">
        <ele>536</ele>
      </trkpt>
      <trkpt lat="45.69601" lon="3.38788">
        <ele>535</ele>
      </trkpt>
      <trkpt lat="45.69607" lon="3.388">
        <ele>533</ele>
      </trkpt>
      <trkpt lat="45.69608" lon="3.38801">
        <ele>533</ele>
      </trkpt>
      <trkpt lat="45.69613" lon="3.38808">
        <ele>532</ele>
      </trkpt>
      <trkpt lat="45.69621" lon="3.38815">
        <ele>530</ele>
      </trkpt>
      <trkpt lat="45.6963" lon="3.38825">
        <ele>529</ele>
      </trkpt>
      <trkpt lat="45.69639" lon="3.38836">
        <ele>527</ele>
      </trkpt>
      <trkpt lat="45.69646" lon="3.38847">
        <ele>525</ele>
      </trkpt>
      <trkpt lat="45.69651" lon="3.38859">
        <ele>523</ele>
      </trkpt>
      <trkpt lat="45.6966" lon="3.38868">
        <ele>522</ele>
      </trkpt>
      <trkpt lat="45.6967" lon="3.38872">
        <ele>521</ele>
      </trkpt>
      <trkpt lat="45.69685" lon="3.38872">
        <ele>519</ele>
      </trkpt>
      <trkpt lat="45.69697" lon="3.38876">
        <ele>518</ele>
      </trkpt>
      <trkpt lat="45.69707" lon="3.38882">
        <ele>516</ele>
      </trkpt>
      <trkpt lat="45.6972" lon="3.3889">
        <ele>515</ele>
      </trkpt>
      <trkpt lat="45.69732" lon="3.38901">
        <ele>513</ele>
      </trkpt>
      <trkpt lat="45.69739" lon="3.38905">
        <ele>512</ele>
      </trkpt>
      <trkpt lat="45.6975" lon="3.38909">
        <ele>511</ele>
      </trkpt>
      <trkpt lat="45.69751" lon="3.38909">
        <ele>511</ele>
      </trkpt>
      <trkpt lat="45.69752" lon="3.3891">
        <ele>510</ele>
      </trkpt>
      <trkpt lat="45.69762" lon="3.38911">
        <ele>510</ele>
      </trkpt>
      <trkpt lat="45.69766" lon="3.38912">
        <ele>509</ele>
      </trkpt>
      <trkpt lat="45.69771" lon="3.38912">
        <ele>509</ele>
      </trkpt>
      <trkpt lat="45.69772" lon="3.38912">
        <ele>509</ele>
      </trkpt>
      <trkpt lat="45.69778" lon="3.38911">
        <ele>508</ele>
      </trkpt>
      <trkpt lat="45.69788" lon="3.38909">
        <ele>508</ele>
      </trkpt>
      <trkpt lat="45.69803" lon="3.38904">
        <ele>508</ele>
      </trkpt>
      <trkpt lat="45.69833" lon="3.389">
        <ele>505</ele>
      </trkpt>
      <trkpt lat="45.6986" lon="3.38888">
        <ele>503</ele>
      </trkpt>
      <trkpt lat="45.69876" lon="3.38887">
        <ele>500</ele>
      </trkpt>
      <trkpt lat="45.69887" lon="3.38887">
        <ele>498</ele>
      </trkpt>
      <trkpt lat="45.69902" lon="3.38884">
        <ele>495</ele>
      </trkpt>
      <trkpt lat="45.69913" lon="3.3888">
        <ele>494</ele>
      </trkpt>
      <trkpt lat="45.69921" lon="3.38879">
        <ele>492</ele>
      </trkpt>
      <trkpt lat="45.69931" lon="3.38879">
        <ele>488</ele>
      </trkpt>
      <trkpt lat="45.69936" lon="3.38878">
        <ele>487</ele>
      </trkpt>
      <trkpt lat="45.69941" lon="3.38877">
        <ele>485</ele>
      </trkpt>
      <trkpt lat="45.69953" lon="3.38871">
        <ele>482</ele>
      </trkpt>
      <trkpt lat="45.69966" lon="3.38862">
        <ele>478</ele>
      </trkpt>
      <trkpt lat="45.69978" lon="3.38852">
        <ele>476</ele>
      </trkpt>
      <trkpt lat="45.69984" lon="3.38848">
        <ele>475</ele>
      </trkpt>
      <trkpt lat="45.69989" lon="3.38843">
        <ele>475</ele>
      </trkpt>
      <trkpt lat="45.69994" lon="3.3884">
        <ele>474</ele>
      </trkpt>
      <trkpt lat="45.7002" lon="3.38844">
        <ele>472</ele>
      </trkpt>
      <trkpt lat="45.70039" lon="3.38839">
        <ele>470</ele>
      </trkpt>
      <trkpt lat="45.70056" lon="3.38828">
        <ele>468</ele>
      </trkpt>
      <trkpt lat="45.70075" lon="3.38815">
        <ele>467</ele>
      </trkpt>
      <trkpt lat="45.70092" lon="3.38804">
        <ele>466</ele>
      </trkpt>
      <trkpt lat="45.7011" lon="3.38793">
        <ele>467</ele>
      </trkpt>
      <trkpt lat="45.70127" lon="3.38786">
        <ele>468</ele>
      </trkpt>
      <trkpt lat="45.70138" lon="3.38782">
        <ele>468</ele>
      </trkpt>
      <trkpt lat="45.70171" lon="3.38773">
        <ele>471</ele>
      </trkpt>
      <trkpt lat="45.70181" lon="3.3877">
        <ele>473</ele>
      </trkpt>
      <trkpt lat="45.70197" lon="3.38765">
        <ele>474</ele>
      </trkpt>
      <trkpt lat="45.70212" lon="3.3876">
        <ele>476</ele>
      </trkpt>
      <trkpt lat="45.70229" lon="3.38758">
        <ele>478</ele>
      </trkpt>
      <trkpt lat="45.70244" lon="3.38755">
        <ele>480</ele>
      </trkpt>
      <trkpt lat="45.70257" lon="3.38753">
        <ele>481</ele>
      </trkpt>
      <trkpt lat="45.70269" lon="3.3875">
        <ele>483</ele>
      </trkpt>
      <trkpt lat="45.70277" lon="3.38751">
        <ele>484</ele>
      </trkpt>
      <trkpt lat="45.70292" lon="3.38752">
        <ele>485</ele>
      </trkpt>
      <trkpt lat="45.70304" lon="3.38751">
        <ele>486</ele>
      </trkpt>
      <trkpt lat="45.70312" lon="3.38746">
        <ele>487</ele>
      </trkpt>
      <trkpt lat="45.70323" lon="3.38745">
        <ele>489</ele>
      </trkpt>
      <trkpt lat="45.70346" lon="3.38746">
        <ele>492</ele>
      </trkpt>
      <trkpt lat="45.70358" lon="3.38745">
        <ele>493</ele>
      </trkpt>
      <trkpt lat="45.70369" lon="3.38742">
        <ele>494</ele>
      </trkpt>
      <trkpt lat="45.70374" lon="3.38737">
        <ele>494</ele>
      </trkpt>
      <trkpt lat="45.70375" lon="3.38736">
        <ele>495</ele>
      </trkpt>
      <trkpt lat="45.70387" lon="3.38737">
        <ele>495</ele>
      </trkpt>
      <trkpt lat="45.70393" lon="3.3874">
        <ele>496</ele>
      </trkpt>
      <trkpt lat="45.70399" lon="3.38745">
        <ele>497</ele>
      </trkpt>
      <trkpt lat="45.70398" lon="3.38752">
        <ele>498</ele>
      </trkpt>
      <trkpt lat="45.70393" lon="3.38779">
        <ele>498</ele>
      </trkpt>
      <trkpt lat="45.70388" lon="3.38806">
        <ele>497</ele>
      </trkpt>
      <trkpt lat="45.70383" lon="3.38831">
        <ele>496</ele>
      </trkpt>
      <trkpt lat="45.70378" lon="3.38855">
        <ele>495</ele>
      </trkpt>
      <trkpt lat="45.70375" lon="3.38875">
        <ele>494</ele>
      </trkpt>
      <trkpt lat="45.70371" lon="3.38898">
        <ele>494</ele>
      </trkpt>
      <trkpt lat="45.70367" lon="3.38915">
        <ele>493</ele>
      </trkpt>
      <trkpt lat="45.7036" lon="3.38929">
        <ele>492</ele>
      </trkpt>
      <trkpt lat="45.7035" lon="3.38946">
        <ele>491</ele>
      </trkpt>
      <trkpt lat="45.70342" lon="3.38959">
        <ele>491</ele>
      </trkpt>
      <trkpt lat="45.70333" lon="3.38976">
        <ele>490</ele>
      </trkpt>
      <trkpt lat="45.70325" lon="3.38996">
        <ele>489</ele>
      </trkpt>
      <trkpt lat="45.70319" lon="3.39016">
        <ele>489</ele>
      </trkpt>
      <trkpt lat="45.70315" lon="3.39037">
        <ele>489</ele>
      </trkpt>
      <trkpt lat="45.70309" lon="3.39062">
        <ele>489</ele>
      </trkpt>
      <trkpt lat="45.70305" lon="3.39082">
        <ele>488</ele>
      </trkpt>
      <trkpt lat="45.70301" lon="3.39104">
        <ele>488</ele>
      </trkpt>
      <trkpt lat="45.70298" lon="3.39124">
        <ele>489</ele>
      </trkpt>
      <trkpt lat="45.70295" lon="3.39147">
        <ele>490</ele>
      </trkpt>
      <trkpt lat="45.70286" lon="3.39191">
        <ele>491</ele>
      </trkpt>
      <trkpt lat="45.70285" lon="3.39195">
        <ele>491</ele>
      </trkpt>
      <trkpt lat="45.70283" lon="3.39207">
        <ele>490</ele>
      </trkpt>
      <trkpt lat="45.70282" lon="3.39209">
        <ele>490</ele>
      </trkpt>
      <trkpt lat="45.70277" lon="3.39229">
        <ele>489</ele>
      </trkpt>
      <trkpt lat="45.70272" lon="3.39257">
        <ele>489</ele>
      </trkpt>
      <trkpt lat="45.70267" lon="3.39283">
        <ele>490</ele>
      </trkpt>
      <trkpt lat="45.70266" lon="3.39287">
        <ele>491</ele>
      </trkpt>
      <trkpt lat="45.70263" lon="3.39312">
        <ele>493</ele>
      </trkpt>
      <trkpt lat="45.70257" lon="3.39331">
        <ele>493</ele>
      </trkpt>
      <trkpt lat="45.70248" lon="3.3935">
        <ele>492</ele>
      </trkpt>
      <trkpt lat="45.70236" lon="3.3937">
        <ele>489</ele>
      </trkpt>
      <trkpt lat="45.70223" lon="3.3939">
        <ele>488</ele>
      </trkpt>
      <trkpt lat="45.70212" lon="3.39407">
        <ele>488</ele>
      </trkpt>
      <trkpt lat="45.70206" lon="3.39419">
        <ele>489</ele>
      </trkpt>
      <trkpt lat="45.702" lon="3.39438">
        <ele>487</ele>
      </trkpt>
      <trkpt lat="45.70196" lon="3.39454">
        <ele>487</ele>
      </trkpt>
      <trkpt lat="45.70193" lon="3.39472">
        <ele>486</ele>
      </trkpt>
      <trkpt lat="45.70192" lon="3.39495">
        <ele>486</ele>
      </trkpt>
      <trkpt lat="45.70189" lon="3.39509">
        <ele>486</ele>
      </trkpt>
      <trkpt lat="45.70191" lon="3.39524">
        <ele>486</ele>
      </trkpt>
      <trkpt lat="45.70195" lon="3.39537">
        <ele>485</ele>
      </trkpt>
      <trkpt lat="45.70198" lon="3.39546">
        <ele>484</ele>
      </trkpt>
      <trkpt lat="45.70199" lon="3.39547">
        <ele>484</ele>
      </trkpt>
      <trkpt lat="45.70214" lon="3.39554">
        <ele>486</ele>
      </trkpt>
      <trkpt lat="45.70222" lon="3.39557">
        <ele>486</ele>
      </trkpt>
      <trkpt lat="45.70234" lon="3.39562">
        <ele>487</ele>
      </trkpt>
      <trkpt lat="45.70247" lon="3.39568">
        <ele>489</ele>
      </trkpt>
      <trkpt lat="45.70261" lon="3.3957">
        <ele>490</ele>
      </trkpt>
      <trkpt lat="45.70273" lon="3.39574">
        <ele>492</ele>
      </trkpt>
      <trkpt lat="45.70282" lon="3.39581">
        <ele>492</ele>
      </trkpt>
      <trkpt lat="45.70292" lon="3.39592">
        <ele>493</ele>
      </trkpt>
      <trkpt lat="45.70301" lon="3.39607">
        <ele>492</ele>
      </trkpt>
      <trkpt lat="45.70307" lon="3.3962">
        <ele>491</ele>
      </trkpt>
      <trkpt lat="45.70316" lon="3.39635">
        <ele>490</ele>
      </trkpt>
      <trkpt lat="45.70322" lon="3.39645">
        <ele>489</ele>
      </trkpt>
      <trkpt lat="45.70326" lon="3.39648">
        <ele>489</ele>
      </trkpt>
      <trkpt lat="45.70335" lon="3.39654">
        <ele>489</ele>
      </trkpt>
      <trkpt lat="45.7034" lon="3.39659">
        <ele>488</ele>
      </trkpt>
      <trkpt lat="45.70351" lon="3.39668">
        <ele>488</ele>
      </trkpt>
      <trkpt lat="45.70357" lon="3.39675">
        <ele>488</ele>
      </trkpt>
      <trkpt lat="45.70358" lon="3.39676">
        <ele>488</ele>
      </trkpt>
      <trkpt lat="45.70363" lon="3.39679">
        <ele>488</ele>
      </trkpt>
      <trkpt lat="45.70364" lon="3.39681">
        <ele>487</ele>
      </trkpt>
      <trkpt lat="45.70371" lon="3.39688">
        <ele>487</ele>
      </trkpt>
      <trkpt lat="45.7038" lon="3.39697">
        <ele>487</ele>
      </trkpt>
      <trkpt lat="45.70389" lon="3.39704">
        <ele>487</ele>
      </trkpt>
      <trkpt lat="45.70399" lon="3.39714">
        <ele>487</ele>
      </trkpt>
      <trkpt lat="45.70406" lon="3.39723">
        <ele>486</ele>
      </trkpt>
      <trkpt lat="45.70407" lon="3.39725">
        <ele>486</ele>
      </trkpt>
      <trkpt lat="45.70405" lon="3.39737">
        <ele>485</ele>
      </trkpt>
      <trkpt lat="45.70406" lon="3.3975">
        <ele>483</ele>
      </trkpt>
      <trkpt lat="45.70406" lon="3.39758">
        <ele>482</ele>
      </trkpt>
      <trkpt lat="45.70408" lon="3.39768">
        <ele>482</ele>
      </trkpt>
      <trkpt lat="45.70411" lon="3.39782">
        <ele>484</ele>
      </trkpt>
      <trkpt lat="45.70415" lon="3.39794">
        <ele>486</ele>
      </trkpt>
      <trkpt lat="45.70419" lon="3.39809">
        <ele>487</ele>
      </trkpt>
      <trkpt lat="45.70423" lon="3.39822">
        <ele>489</ele>
      </trkpt>
      <trkpt lat="45.70429" lon="3.39846">
        <ele>492</ele>
      </trkpt>
      <trkpt lat="45.70436" lon="3.39864">
        <ele>493</ele>
      </trkpt>
      <trkpt lat="45.7044" lon="3.3988">
        <ele>494</ele>
      </trkpt>
      <trkpt lat="45.70443" lon="3.39889">
        <ele>494</ele>
      </trkpt>
      <trkpt lat="45.70449" lon="3.39905">
        <ele>495</ele>
      </trkpt>
      <trkpt lat="45.70454" lon="3.39917">
        <ele>496</ele>
      </trkpt>
      <trkpt lat="45.70458" lon="3.3993">
        <ele>497</ele>
      </trkpt>
      <trkpt lat="45.70458" lon="3.39951">
        <ele>496</ele>
      </trkpt>
      <trkpt lat="45.70456" lon="3.39971">
        <ele>495</ele>
      </trkpt>
      <trkpt lat="45.70455" lon="3.39994">
        <ele>494</ele>
      </trkpt>
      <trkpt lat="45.70453" lon="3.40008">
        <ele>493</ele>
      </trkpt>
      <trkpt lat="45.70449" lon="3.40026">
        <ele>493</ele>
      </trkpt>
      <trkpt lat="45.70445" lon="3.40049">
        <ele>493</ele>
      </trkpt>
      <trkpt lat="45.70442" lon="3.40071">
        <ele>493</ele>
      </trkpt>
      <trkpt lat="45.70441" lon="3.40088">
        <ele>493</ele>
      </trkpt>
      <trkpt lat="45.70441" lon="3.40105">
        <ele>494</ele>
      </trkpt>
      <trkpt lat="45.70444" lon="3.40123">
        <ele>495</ele>
      </trkpt>
      <trkpt lat="45.70446" lon="3.40135">
        <ele>495</ele>
      </trkpt>
      <trkpt lat="45.70447" lon="3.40149">
        <ele>496</ele>
      </trkpt>
      <trkpt lat="45.7045" lon="3.4016">
        <ele>496</ele>
      </trkpt>
      <trkpt lat="45.70451" lon="3.40176">
        <ele>497</ele>
      </trkpt>
      <trkpt lat="45.70454" lon="3.40196">
        <ele>496</ele>
      </trkpt>
      <trkpt lat="45.70456" lon="3.40217">
        <ele>495</ele>
      </trkpt>
      <trkpt lat="45.70457" lon="3.40238">
        <ele>493</ele>
      </trkpt>
      <trkpt lat="45.70457" lon="3.40256">
        <ele>492</ele>
      </trkpt>
      <trkpt lat="45.70454" lon="3.40273">
        <ele>492</ele>
      </trkpt>
      <trkpt lat="45.7045" lon="3.4029">
        <ele>491</ele>
      </trkpt>
      <trkpt lat="45.70445" lon="3.40306">
        <ele>490</ele>
      </trkpt>
      <trkpt lat="45.70438" lon="3.4032">
        <ele>489</ele>
      </trkpt>
      <trkpt lat="45.70436" lon="3.4033">
        <ele>489</ele>
      </trkpt>
      <trkpt lat="45.70432" lon="3.40342">
        <ele>489</ele>
      </trkpt>
      <trkpt lat="45.70427" lon="3.40359">
        <ele>490</ele>
      </trkpt>
      <trkpt lat="45.70426" lon="3.4037">
        <ele>491</ele>
      </trkpt>
      <trkpt lat="45.70423" lon="3.40387">
        <ele>491</ele>
      </trkpt>
      <trkpt lat="45.70419" lon="3.40403">
        <ele>490</ele>
      </trkpt>
      <trkpt lat="45.70419" lon="3.40405">
        <ele>490</ele>
      </trkpt>
      <trkpt lat="45.70415" lon="3.40421">
        <ele>489</ele>
      </trkpt>
      <trkpt lat="45.70417" lon="3.40426">
        <ele>489</ele>
      </trkpt>
      <trkpt lat="45.70414" lon="3.40441">
        <ele>490</ele>
      </trkpt>
      <trkpt lat="45.70411" lon="3.40459">
        <ele>491</ele>
      </trkpt>
      <trkpt lat="45.70408" lon="3.40475">
        <ele>491</ele>
      </trkpt>
      <trkpt lat="45.70405" lon="3.40491">
        <ele>490</ele>
      </trkpt>
      <trkpt lat="45.70404" lon="3.40505">
        <ele>490</ele>
      </trkpt>
      <trkpt lat="45.70401" lon="3.40521">
        <ele>490</ele>
      </trkpt>
      <trkpt lat="45.70398" lon="3.40533">
        <ele>490</ele>
      </trkpt>
      <trkpt lat="45.70393" lon="3.40547">
        <ele>489</ele>
      </trkpt>
      <trkpt lat="45.70385" lon="3.40559">
        <ele>489</ele>
      </trkpt>
      <trkpt lat="45.70376" lon="3.40572">
        <ele>490</ele>
      </trkpt>
      <trkpt lat="45.70366" lon="3.40589">
        <ele>490</ele>
      </trkpt>
      <trkpt lat="45.70358" lon="3.40604">
        <ele>489</ele>
      </trkpt>
      <trkpt lat="45.70353" lon="3.40615">
        <ele>490</ele>
      </trkpt>
      <trkpt lat="45.70348" lon="3.40631">
        <ele>491</ele>
      </trkpt>
      <trkpt lat="45.70339" lon="3.40657">
        <ele>491</ele>
      </trkpt>
      <trkpt lat="45.70337" lon="3.40672">
        <ele>491</ele>
      </trkpt>
      <trkpt lat="45.70331" lon="3.40693">
        <ele>492</ele>
      </trkpt>
      <trkpt lat="45.70325" lon="3.40714">
        <ele>492</ele>
      </trkpt>
      <trkpt lat="45.70319" lon="3.40737">
        <ele>492</ele>
      </trkpt>
      <trkpt lat="45.70316" lon="3.4075">
        <ele>492</ele>
      </trkpt>
      <trkpt lat="45.70313" lon="3.40762">
        <ele>493</ele>
      </trkpt>
      <trkpt lat="45.70307" lon="3.40772">
        <ele>492</ele>
      </trkpt>
      <trkpt lat="45.703" lon="3.4079">
        <ele>492</ele>
      </trkpt>
      <trkpt lat="45.70297" lon="3.40795">
        <ele>492</ele>
      </trkpt>
      <trkpt lat="45.70294" lon="3.40807">
        <ele>492</ele>
      </trkpt>
      <trkpt lat="45.70292" lon="3.40815">
        <ele>492</ele>
      </trkpt>
      <trkpt lat="45.70289" lon="3.40827">
        <ele>492</ele>
      </trkpt>
      <trkpt lat="45.70285" lon="3.40843">
        <ele>492</ele>
      </trkpt>
      <trkpt lat="45.70281" lon="3.40881">
        <ele>493</ele>
      </trkpt>
      <trkpt lat="45.70278" lon="3.40908">
        <ele>493</ele>
      </trkpt>
      <trkpt lat="45.70276" lon="3.40926">
        <ele>494</ele>
      </trkpt>
      <trkpt lat="45.70275" lon="3.40947">
        <ele>495</ele>
      </trkpt>
      <trkpt lat="45.70275" lon="3.40968">
        <ele>496</ele>
      </trkpt>
      <trkpt lat="45.70275" lon="3.40988">
        <ele>498</ele>
      </trkpt>
      <trkpt lat="45.70274" lon="3.41012">
        <ele>499</ele>
      </trkpt>
      <trkpt lat="45.70272" lon="3.41027">
        <ele>500</ele>
      </trkpt>
      <trkpt lat="45.70269" lon="3.41046">
        <ele>501</ele>
      </trkpt>
      <trkpt lat="45.70265" lon="3.4107">
        <ele>503</ele>
      </trkpt>
      <trkpt lat="45.70263" lon="3.41088">
        <ele>504</ele>
      </trkpt>
      <trkpt lat="45.70259" lon="3.41114">
        <ele>505</ele>
      </trkpt>
      <trkpt lat="45.70253" lon="3.41137">
        <ele>507</ele>
      </trkpt>
      <trkpt lat="45.70249" lon="3.41154">
        <ele>509</ele>
      </trkpt>
      <trkpt lat="45.70245" lon="3.41178">
        <ele>512</ele>
      </trkpt>
      <trkpt lat="45.70241" lon="3.41196">
        <ele>513</ele>
      </trkpt>
      <trkpt lat="45.70242" lon="3.41212">
        <ele>514</ele>
      </trkpt>
      <trkpt lat="45.70238" lon="3.41235">
        <ele>516</ele>
      </trkpt>
      <trkpt lat="45.70235" lon="3.41258">
        <ele>519</ele>
      </trkpt>
      <trkpt lat="45.70231" lon="3.41278">
        <ele>520</ele>
      </trkpt>
      <trkpt lat="45.70228" lon="3.41293">
        <ele>522</ele>
      </trkpt>
      <trkpt lat="45.70226" lon="3.4131">
        <ele>524</ele>
      </trkpt>
      <trkpt lat="45.70224" lon="3.41328">
        <ele>526</ele>
      </trkpt>
      <trkpt lat="45.70221" lon="3.41351">
        <ele>529</ele>
      </trkpt>
      <trkpt lat="45.70219" lon="3.41369">
        <ele>529</ele>
      </trkpt>
      <trkpt lat="45.70215" lon="3.41399">
        <ele>530</ele>
      </trkpt>
      <trkpt lat="45.70212" lon="3.41418">
        <ele>531</ele>
      </trkpt>
      <trkpt lat="45.70208" lon="3.41433">
        <ele>531</ele>
      </trkpt>
      <trkpt lat="45.70205" lon="3.41451">
        <ele>530</ele>
      </trkpt>
      <trkpt lat="45.70203" lon="3.4147">
        <ele>530</ele>
      </trkpt>
      <trkpt lat="45.70212" lon="3.41515">
        <ele>530</ele>
      </trkpt>
      <trkpt lat="45.70221" lon="3.41537">
        <ele>529</ele>
      </trkpt>
      <trkpt lat="45.70222" lon="3.41539">
        <ele>529</ele>
      </trkpt>
      <trkpt lat="45.70231" lon="3.41558">
        <ele>528</ele>
      </trkpt>
      <trkpt lat="45.70242" lon="3.41576">
        <ele>527</ele>
      </trkpt>
      <trkpt lat="45.70251" lon="3.41591">
        <ele>526</ele>
      </trkpt>
      <trkpt lat="45.70264" lon="3.41607">
        <ele>526</ele>
      </trkpt>
      <trkpt lat="45.70278" lon="3.41625">
        <ele>526</ele>
      </trkpt>
      <trkpt lat="45.70286" lon="3.41633">
        <ele>526</ele>
      </trkpt>
      <trkpt lat="45.70301" lon="3.41643">
        <ele>526</ele>
      </trkpt>
      <trkpt lat="45.70311" lon="3.41651">
        <ele>527</ele>
      </trkpt>
      <trkpt lat="45.70323" lon="3.41661">
        <ele>528</ele>
      </trkpt>
      <trkpt lat="45.70334" lon="3.41673">
        <ele>528</ele>
      </trkpt>
      <trkpt lat="45.70345" lon="3.41695">
        <ele>529</ele>
      </trkpt>
      <trkpt lat="45.70352" lon="3.41711">
        <ele>530</ele>
      </trkpt>
      <trkpt lat="45.70358" lon="3.41726">
        <ele>531</ele>
      </trkpt>
      <trkpt lat="45.70366" lon="3.41739">
        <ele>532</ele>
      </trkpt>
      <trkpt lat="45.70374" lon="3.41747">
        <ele>533</ele>
      </trkpt>
      <trkpt lat="45.70385" lon="3.41749">
        <ele>534</ele>
      </trkpt>
      <trkpt lat="45.70393" lon="3.41751">
        <ele>535</ele>
      </trkpt>
      <trkpt lat="45.70398" lon="3.41748">
        <ele>536</ele>
      </trkpt>
      <trkpt lat="45.70398" lon="3.41748">
        <ele>536</ele>
      </trkpt>
      <trkpt lat="45.704" lon="3.41756">
        <ele>536</ele>
      </trkpt>
      <trkpt lat="45.70401" lon="3.41764">
        <ele>536</ele>
      </trkpt>
      <trkpt lat="45.70402" lon="3.41783">
        <ele>536</ele>
      </trkpt>
      <trkpt lat="45.70402" lon="3.41798">
        <ele>535</ele>
      </trkpt>
      <trkpt lat="45.70402" lon="3.41811">
        <ele>534</ele>
      </trkpt>
      <trkpt lat="45.70404" lon="3.41829">
        <ele>533</ele>
      </trkpt>
      <trkpt lat="45.70405" lon="3.41843">
        <ele>532</ele>
      </trkpt>
      <trkpt lat="45.70409" lon="3.4186">
        <ele>531</ele>
      </trkpt>
      <trkpt lat="45.7042" lon="3.41883">
        <ele>530</ele>
      </trkpt>
      <trkpt lat="45.70426" lon="3.419">
        <ele>530</ele>
      </trkpt>
      <trkpt lat="45.70431" lon="3.41914">
        <ele>529</ele>
      </trkpt>
      <trkpt lat="45.70437" lon="3.41933">
        <ele>529</ele>
      </trkpt>
      <trkpt lat="45.7044" lon="3.41951">
        <ele>527</ele>
      </trkpt>
      <trkpt lat="45.70441" lon="3.41977">
        <ele>525</ele>
      </trkpt>
      <trkpt lat="45.70435" lon="3.42001">
        <ele>524</ele>
      </trkpt>
      <trkpt lat="45.70434" lon="3.42004">
        <ele>524</ele>
      </trkpt>
      <trkpt lat="45.7043" lon="3.42008">
        <ele>523</ele>
      </trkpt>
      <trkpt lat="45.70423" lon="3.42016">
        <ele>523</ele>
      </trkpt>
      <trkpt lat="45.70413" lon="3.42025">
        <ele>522</ele>
      </trkpt>
      <trkpt lat="45.70398" lon="3.42037">
        <ele>521</ele>
      </trkpt>
      <trkpt lat="45.70387" lon="3.42044">
        <ele>521</ele>
      </trkpt>
      <trkpt lat="45.70377" lon="3.42048">
        <ele>521</ele>
      </trkpt>
      <trkpt lat="45.70367" lon="3.42054">
        <ele>520</ele>
      </trkpt>
      <trkpt lat="45.7036" lon="3.42058">
        <ele>520</ele>
      </trkpt>
      <trkpt lat="45.70353" lon="3.4206">
        <ele>520</ele>
      </trkpt>
      <trkpt lat="45.70349" lon="3.42061">
        <ele>520</ele>
      </trkpt>
      <trkpt lat="45.70344" lon="3.42063">
        <ele>520</ele>
      </trkpt>
      <trkpt lat="45.70337" lon="3.42066">
        <ele>521</ele>
      </trkpt>
      <trkpt lat="45.70332" lon="3.42069">
        <ele>522</ele>
      </trkpt>
      <trkpt lat="45.70326" lon="3.42071">
        <ele>522</ele>
      </trkpt>
      <trkpt lat="45.70315" lon="3.42073">
        <ele>523</ele>
      </trkpt>
      <trkpt lat="45.70314" lon="3.42074">
        <ele>523</ele>
      </trkpt>
      <trkpt lat="45.70303" lon="3.42076">
        <ele>524</ele>
      </trkpt>
      <trkpt lat="45.703" lon="3.42077">
        <ele>524</ele>
      </trkpt>
      <trkpt lat="45.70292" lon="3.42078">
        <ele>525</ele>
      </trkpt>
      <trkpt lat="45.70285" lon="3.4208">
        <ele>525</ele>
      </trkpt>
      <trkpt lat="45.70282" lon="3.4208">
        <ele>525</ele>
      </trkpt>
      <trkpt lat="45.70273" lon="3.42081">
        <ele>526</ele>
      </trkpt>
      <trkpt lat="45.70264" lon="3.42081">
        <ele>526</ele>
      </trkpt>
      <trkpt lat="45.70249" lon="3.42081">
        <ele>527</ele>
      </trkpt>
      <trkpt lat="45.70238" lon="3.42079">
        <ele>527</ele>
      </trkpt>
      <trkpt lat="45.70231" lon="3.42075">
        <ele>526</ele>
      </trkpt>
      <trkpt lat="45.70215" lon="3.42073">
        <ele>527</ele>
      </trkpt>
      <trkpt lat="45.70202" lon="3.42073">
        <ele>528</ele>
      </trkpt>
      <trkpt lat="45.7019" lon="3.42071">
        <ele>528</ele>
      </trkpt>
      <trkpt lat="45.70178" lon="3.42069">
        <ele>529</ele>
      </trkpt>
      <trkpt lat="45.70162" lon="3.42068">
        <ele>529</ele>
      </trkpt>
      <trkpt lat="45.70145" lon="3.42069">
        <ele>531</ele>
      </trkpt>
      <trkpt lat="45.70132" lon="3.42078">
        <ele>532</ele>
      </trkpt>
      <trkpt lat="45.7012" lon="3.4209">
        <ele>534</ele>
      </trkpt>
      <trkpt lat="45.70112" lon="3.42101">
        <ele>535</ele>
      </trkpt>
      <trkpt lat="45.701" lon="3.4211">
        <ele>537</ele>
      </trkpt>
      <trkpt lat="45.70086" lon="3.4212">
        <ele>538</ele>
      </trkpt>
      <trkpt lat="45.70074" lon="3.42126">
        <ele>539</ele>
      </trkpt>
      <trkpt lat="45.70063" lon="3.42133">
        <ele>540</ele>
      </trkpt>
      <trkpt lat="45.70051" lon="3.4214">
        <ele>541</ele>
      </trkpt>
      <trkpt lat="45.70038" lon="3.42151">
        <ele>542</ele>
      </trkpt>
      <trkpt lat="45.70028" lon="3.42158">
        <ele>543</ele>
      </trkpt>
      <trkpt lat="45.70016" lon="3.42174">
        <ele>545</ele>
      </trkpt>
      <trkpt lat="45.70007" lon="3.42187">
        <ele>547</ele>
      </trkpt>
      <trkpt lat="45.70005" lon="3.42191">
        <ele>548</ele>
      </trkpt>
      <trkpt lat="45.7" lon="3.422">
        <ele>549</ele>
      </trkpt>
      <trkpt lat="45.69994" lon="3.42211">
        <ele>550</ele>
      </trkpt>
      <trkpt lat="45.69994" lon="3.42212">
        <ele>550</ele>
      </trkpt>
      <trkpt lat="45.69987" lon="3.42225">
        <ele>550</ele>
      </trkpt>
      <trkpt lat="45.69988" lon="3.42228">
        <ele>550</ele>
      </trkpt>
      <trkpt lat="45.69988" lon="3.42229">
        <ele>550</ele>
      </trkpt>
      <trkpt lat="45.6999" lon="3.42237">
        <ele>551</ele>
      </trkpt>
      <trkpt lat="45.69989" lon="3.4224">
        <ele>551</ele>
      </trkpt>
      <trkpt lat="45.69989" lon="3.42242">
        <ele>551</ele>
      </trkpt>
      <trkpt lat="45.69988" lon="3.42253">
        <ele>552</ele>
      </trkpt>
      <trkpt lat="45.69987" lon="3.42261">
        <ele>552</ele>
      </trkpt>
      <trkpt lat="45.69989" lon="3.42275">
        <ele>553</ele>
      </trkpt>
      <trkpt lat="45.69992" lon="3.42282">
        <ele>554</ele>
      </trkpt>
      <trkpt lat="45.69994" lon="3.42291">
        <ele>554</ele>
      </trkpt>
      <trkpt lat="45.70009" lon="3.4232">
        <ele>557</ele>
      </trkpt>
      <trkpt lat="45.70016" lon="3.42336">
        <ele>558</ele>
      </trkpt>
      <trkpt lat="45.70023" lon="3.42353">
        <ele>560</ele>
      </trkpt>
      <trkpt lat="45.70027" lon="3.42363">
        <ele>560</ele>
      </trkpt>
      <trkpt lat="45.70034" lon="3.4238">
        <ele>561</ele>
      </trkpt>
      <trkpt lat="45.70039" lon="3.42395">
        <ele>562</ele>
      </trkpt>
      <trkpt lat="45.70044" lon="3.4241">
        <ele>563</ele>
      </trkpt>
      <trkpt lat="45.70048" lon="3.42424">
        <ele>564</ele>
      </trkpt>
      <trkpt lat="45.70051" lon="3.42435">
        <ele>564</ele>
      </trkpt>
      <trkpt lat="45.70051" lon="3.42436">
        <ele>565</ele>
      </trkpt>
      <trkpt lat="45.70057" lon="3.42449">
        <ele>565</ele>
      </trkpt>
      <trkpt lat="45.70063" lon="3.42462">
        <ele>565</ele>
      </trkpt>
      <trkpt lat="45.70066" lon="3.42467">
        <ele>565</ele>
      </trkpt>
      <trkpt lat="45.70069" lon="3.42478">
        <ele>565</ele>
      </trkpt>
      <trkpt lat="45.70078" lon="3.42501">
        <ele>565</ele>
      </trkpt>
      <trkpt lat="45.70084" lon="3.42516">
        <ele>565</ele>
      </trkpt>
      <trkpt lat="45.70089" lon="3.4253">
        <ele>566</ele>
      </trkpt>
      <trkpt lat="45.70095" lon="3.42545">
        <ele>567</ele>
      </trkpt>
      <trkpt lat="45.70103" lon="3.42562">
        <ele>567</ele>
      </trkpt>
      <trkpt lat="45.70111" lon="3.4258">
        <ele>568</ele>
      </trkpt>
      <trkpt lat="45.70118" lon="3.42599">
        <ele>569</ele>
      </trkpt>
      <trkpt lat="45.70124" lon="3.4261">
        <ele>569</ele>
      </trkpt>
      <trkpt lat="45.70135" lon="3.42617">
        <ele>569</ele>
      </trkpt>
      <trkpt lat="45.70131" lon="3.4261">
        <ele>571.9</ele>
      </trkpt>
      <trkpt lat="45.70156" lon="3.42646">
        <ele>575.5</ele>
      </trkpt>
      <trkpt lat="45.70152" lon="3.42657">
        <ele>571</ele>
      </trkpt>
      <trkpt lat="45.70153" lon="3.42662">
        <ele>571</ele>
      </trkpt>
      <trkpt lat="45.70157" lon="3.42678">
        <ele>572</ele>
      </trkpt>
      <trkpt lat="45.70166" lon="3.42692">
        <ele>573</ele>
      </trkpt>
      <trkpt lat="45.70173" lon="3.42701">
        <ele>575</ele>
      </trkpt>
      <trkpt lat="45.70183" lon="3.42715">
        <ele>576</ele>
      </trkpt>
      <trkpt lat="45.70189" lon="3.42726">
        <ele>578</ele>
      </trkpt>
      <trkpt lat="45.70192" lon="3.42742">
        <ele>579</ele>
      </trkpt>
      <trkpt lat="45.70201" lon="3.42755">
        <ele>580</ele>
      </trkpt>
      <trkpt lat="45.7021" lon="3.42767">
        <ele>582</ele>
      </trkpt>
      <trkpt lat="45.70218" lon="3.42778">
        <ele>583</ele>
      </trkpt>
      <trkpt lat="45.70226" lon="3.4279">
        <ele>585</ele>
      </trkpt>
      <trkpt lat="45.70236" lon="3.42806">
        <ele>587</ele>
      </trkpt>
      <trkpt lat="45.70242" lon="3.42818">
        <ele>588</ele>
      </trkpt>
      <trkpt lat="45.70248" lon="3.42829">
        <ele>589</ele>
      </trkpt>
      <trkpt lat="45.70248" lon="3.4283">
        <ele>590</ele>
      </trkpt>
      <trkpt lat="45.70259" lon="3.42834">
        <ele>587.3</ele>
      </trkpt>
      <trkpt lat="45.70248" lon="3.42827">
        <ele>585.5</ele>
      </trkpt>
      <trkpt lat="45.70308" lon="3.42944">
        <ele>593.6</ele>
      </trkpt>
      <trkpt lat="45.70306" lon="3.42938">
        <ele>593</ele>
      </trkpt>
      <trkpt lat="45.70302" lon="3.4292">
        <ele>598</ele>
      </trkpt>
      <trkpt lat="45.70306" lon="3.42932">
        <ele>598</ele>
      </trkpt>
      <trkpt lat="45.70307" lon="3.42941">
        <ele>598</ele>
      </trkpt>
      <trkpt lat="45.70307" lon="3.42952">
        <ele>598</ele>
      </trkpt>
      <trkpt lat="45.70306" lon="3.42963">
        <ele>598</ele>
      </trkpt>
      <trkpt lat="45.70304" lon="3.42976">
        <ele>598</ele>
      </trkpt>
      <trkpt lat="45.70302" lon="3.42991">
        <ele>598</ele>
      </trkpt>
      <trkpt lat="45.70301" lon="3.42995">
        <ele>598</ele>
      </trkpt>
      <trkpt lat="45.70299" lon="3.4301">
        <ele>598</ele>
      </trkpt>
      <trkpt lat="45.70302" lon="3.43023">
        <ele>599</ele>
      </trkpt>
      <trkpt lat="45.70305" lon="3.43035">
        <ele>599</ele>
      </trkpt>
      <trkpt lat="45.70307" lon="3.43046">
        <ele>599</ele>
      </trkpt>
      <trkpt lat="45.70312" lon="3.43062">
        <ele>600</ele>
      </trkpt>
      <trkpt lat="45.70316" lon="3.43071">
        <ele>600</ele>
      </trkpt>
      <trkpt lat="45.70324" lon="3.4308">
        <ele>601</ele>
      </trkpt>
      <trkpt lat="45.70326" lon="3.43082">
        <ele>601</ele>
      </trkpt>
      <trkpt lat="45.70332" lon="3.4309">
        <ele>601</ele>
      </trkpt>
      <trkpt lat="45.70338" lon="3.43095">
        <ele>602</ele>
      </trkpt>
      <trkpt lat="45.70345" lon="3.43096">
        <ele>602</ele>
      </trkpt>
      <trkpt lat="45.70349" lon="3.43096">
        <ele>602</ele>
      </trkpt>
      <trkpt lat="45.70356" lon="3.431">
        <ele>602</ele>
      </trkpt>
      <trkpt lat="45.70358" lon="3.43101">
        <ele>602</ele>
      </trkpt>
      <trkpt lat="45.70367" lon="3.43103">
        <ele>603</ele>
      </trkpt>
      <trkpt lat="45.70377" lon="3.43105">
        <ele>603</ele>
      </trkpt>
      <trkpt lat="45.70387" lon="3.43103">
        <ele>603</ele>
      </trkpt>
      <trkpt lat="45.70397" lon="3.431">
        <ele>604</ele>
      </trkpt>
      <trkpt lat="45.70404" lon="3.43093">
        <ele>604</ele>
      </trkpt>
      <trkpt lat="45.70409" lon="3.43087">
        <ele>605</ele>
      </trkpt>
      <trkpt lat="45.70414" lon="3.4308">
        <ele>605</ele>
      </trkpt>
      <trkpt lat="45.70416" lon="3.43079">
        <ele>605</ele>
      </trkpt>
      <trkpt lat="45.7042" lon="3.43081">
        <ele>605</ele>
      </trkpt>
      <trkpt lat="45.7042" lon="3.43079">
        <ele>605</ele>
      </trkpt>
      <trkpt lat="45.7042" lon="3.43075">
        <ele>606</ele>
      </trkpt>
      <trkpt lat="45.7042" lon="3.43074">
        <ele>606</ele>
      </trkpt>
      <trkpt lat="45.70427" lon="3.43055">
        <ele>607</ele>
      </trkpt>
      <trkpt lat="45.70427" lon="3.43053">
        <ele>607</ele>
      </trkpt>
      <trkpt lat="45.70443" lon="3.43076">
        <ele>609</ele>
      </trkpt>
      <trkpt lat="45.70448" lon="3.4308">
        <ele>606</ele>
      </trkpt>
      <trkpt lat="45.70462" lon="3.4309">
        <ele>605</ele>
      </trkpt>
      <trkpt lat="45.70472" lon="3.43092">
        <ele>605</ele>
      </trkpt>
      <trkpt lat="45.70486" lon="3.43091">
        <ele>604</ele>
      </trkpt>
      <trkpt lat="45.70494" lon="3.43091">
        <ele>603</ele>
      </trkpt>
      <trkpt lat="45.7051" lon="3.43086">
        <ele>603</ele>
      </trkpt>
      <trkpt lat="45.70526" lon="3.4308">
        <ele>602</ele>
      </trkpt>
      <trkpt lat="45.70537" lon="3.43078">
        <ele>601</ele>
      </trkpt>
      <trkpt lat="45.70549" lon="3.43078">
        <ele>601</ele>
      </trkpt>
      <trkpt lat="45.70561" lon="3.43074">
        <ele>600</ele>
      </trkpt>
      <trkpt lat="45.70569" lon="3.43066">
        <ele>600</ele>
      </trkpt>
      <trkpt lat="45.70581" lon="3.43057">
        <ele>600</ele>
      </trkpt>
      <trkpt lat="45.70592" lon="3.43045">
        <ele>599</ele>
      </trkpt>
      <trkpt lat="45.70602" lon="3.43035">
        <ele>597</ele>
      </trkpt>
      <trkpt lat="45.70613" lon="3.43027">
        <ele>596</ele>
      </trkpt>
      <trkpt lat="45.70623" lon="3.43019">
        <ele>594</ele>
      </trkpt>
      <trkpt lat="45.70633" lon="3.43011">
        <ele>593</ele>
      </trkpt>
      <trkpt lat="45.70634" lon="3.4301">
        <ele>593</ele>
      </trkpt>
      <trkpt lat="45.70638" lon="3.43006">
        <ele>592</ele>
      </trkpt>
      <trkpt lat="45.7064" lon="3.43005">
        <ele>592</ele>
      </trkpt>
      <trkpt lat="45.70639" lon="3.43004">
        <ele>592</ele>
      </trkpt>
      <trkpt lat="45.70641" lon="3.43001">
        <ele>592</ele>
      </trkpt>
      <trkpt lat="45.70641" lon="3.43">
        <ele>592</ele>
      </trkpt>
      <trkpt lat="45.70638" lon="3.43001">
        <ele>593</ele>
      </trkpt>
      <trkpt lat="45.70639" lon="3.43003">
        <ele>592</ele>
      </trkpt>
      <trkpt lat="45.70639" lon="3.43001">
        <ele>593</ele>
      </trkpt>
      <trkpt lat="45.70641" lon="3.43002">
        <ele>592</ele>
      </trkpt>
      <trkpt lat="45.70642" lon="3.43001">
        <ele>592</ele>
      </trkpt>
      <trkpt lat="45.7064" lon="3.43001">
        <ele>592</ele>
      </trkpt>
      <trkpt lat="45.70641" lon="3.43003">
        <ele>592</ele>
      </trkpt>
      <trkpt lat="45.70645" lon="3.43009">
        <ele>591</ele>
      </trkpt>
      <trkpt lat="45.70656" lon="3.4301">
        <ele>589</ele>
      </trkpt>
      <trkpt lat="45.7067" lon="3.43011">
        <ele>587</ele>
      </trkpt>
      <trkpt lat="45.70685" lon="3.43012">
        <ele>584</ele>
      </trkpt>
      <trkpt lat="45.70696" lon="3.43013">
        <ele>583</ele>
      </trkpt>
      <trkpt lat="45.70708" lon="3.43012">
        <ele>581</ele>
      </trkpt>
      <trkpt lat="45.70722" lon="3.43005">
        <ele>578</ele>
      </trkpt>
      <trkpt lat="45.70736" lon="3.43005">
        <ele>576</ele>
      </trkpt>
      <trkpt lat="45.70747" lon="3.43005">
        <ele>574</ele>
      </trkpt>
      <trkpt lat="45.70757" lon="3.43004">
        <ele>572</ele>
      </trkpt>
      <trkpt lat="45.7077" lon="3.43002">
        <ele>570</ele>
      </trkpt>
      <trkpt lat="45.70779" lon="3.43003">
        <ele>569</ele>
      </trkpt>
      <trkpt lat="45.70791" lon="3.43001">
        <ele>566</ele>
      </trkpt>
      <trkpt lat="45.70793" lon="3.43002">
        <ele>566</ele>
      </trkpt>
      <trkpt lat="45.70794" lon="3.43001">
        <ele>566</ele>
      </trkpt>
      <trkpt lat="45.70796" lon="3.43">
        <ele>566</ele>
      </trkpt>
      <trkpt lat="45.70804" lon="3.42994">
        <ele>565</ele>
      </trkpt>
      <trkpt lat="45.70815" lon="3.42984">
        <ele>563</ele>
      </trkpt>
      <trkpt lat="45.70824" lon="3.42976">
        <ele>562</ele>
      </trkpt>
      <trkpt lat="45.70836" lon="3.42961">
        <ele>560</ele>
      </trkpt>
      <trkpt lat="45.70847" lon="3.42947">
        <ele>559</ele>
      </trkpt>
      <trkpt lat="45.70857" lon="3.42935">
        <ele>558</ele>
      </trkpt>
      <trkpt lat="45.7087" lon="3.42924">
        <ele>556</ele>
      </trkpt>
      <trkpt lat="45.70885" lon="3.42913">
        <ele>554</ele>
      </trkpt>
      <trkpt lat="45.70894" lon="3.42906">
        <ele>553</ele>
      </trkpt>
      <trkpt lat="45.70902" lon="3.42898">
        <ele>552</ele>
      </trkpt>
      <trkpt lat="45.70916" lon="3.42891">
        <ele>550</ele>
      </trkpt>
      <trkpt lat="45.70928" lon="3.42885">
        <ele>548</ele>
      </trkpt>
      <trkpt lat="45.70931" lon="3.42884">
        <ele>548</ele>
      </trkpt>
      <trkpt lat="45.70941" lon="3.42878">
        <ele>546</ele>
      </trkpt>
      <trkpt lat="45.70951" lon="3.42876">
        <ele>545</ele>
      </trkpt>
      <trkpt lat="45.70961" lon="3.42873">
        <ele>544</ele>
      </trkpt>
      <trkpt lat="45.70974" lon="3.42863">
        <ele>542</ele>
      </trkpt>
      <trkpt lat="45.70988" lon="3.42849">
        <ele>539</ele>
      </trkpt>
      <trkpt lat="45.70995" lon="3.42837">
        <ele>538</ele>
      </trkpt>
      <trkpt lat="45.70996" lon="3.42828">
        <ele>538</ele>
      </trkpt>
      <trkpt lat="45.70999" lon="3.42826">
        <ele>537</ele>
      </trkpt>
      <trkpt lat="45.71" lon="3.42825">
        <ele>537</ele>
      </trkpt>
      <trkpt lat="45.71009" lon="3.42813">
        <ele>535</ele>
      </trkpt>
      <trkpt lat="45.71014" lon="3.42795">
        <ele>535</ele>
      </trkpt>
      <trkpt lat="45.71017" lon="3.42783">
        <ele>535</ele>
      </trkpt>
      <trkpt lat="45.71024" lon="3.42769">
        <ele>534</ele>
      </trkpt>
      <trkpt lat="45.71042" lon="3.4275">
        <ele>531</ele>
      </trkpt>
      <trkpt lat="45.71052" lon="3.42748">
        <ele>530</ele>
      </trkpt>
      <trkpt lat="45.71063" lon="3.42743">
        <ele>528</ele>
      </trkpt>
      <trkpt lat="45.71075" lon="3.42737">
        <ele>526</ele>
      </trkpt>
      <trkpt lat="45.71087" lon="3.42732">
        <ele>523</ele>
      </trkpt>
      <trkpt lat="45.71099" lon="3.42727">
        <ele>521</ele>
      </trkpt>
      <trkpt lat="45.7111" lon="3.42722">
        <ele>519</ele>
      </trkpt>
      <trkpt lat="45.7112" lon="3.42717">
        <ele>517</ele>
      </trkpt>
      <trkpt lat="45.7113" lon="3.42711">
        <ele>515</ele>
      </trkpt>
      <trkpt lat="45.71139" lon="3.42706">
        <ele>514</ele>
      </trkpt>
      <trkpt lat="45.71148" lon="3.42701">
        <ele>514</ele>
      </trkpt>
      <trkpt lat="45.71157" lon="3.42694">
        <ele>513</ele>
      </trkpt>
      <trkpt lat="45.71168" lon="3.42687">
        <ele>512</ele>
      </trkpt>
      <trkpt lat="45.71175" lon="3.42682">
        <ele>511</ele>
      </trkpt>
      <trkpt lat="45.71177" lon="3.4268">
        <ele>511</ele>
      </trkpt>
      <trkpt lat="45.7118" lon="3.42678">
        <ele>511</ele>
      </trkpt>
      <trkpt lat="45.71181" lon="3.42679">
        <ele>511</ele>
      </trkpt>
      <trkpt lat="45.71196" lon="3.42682">
        <ele>510</ele>
      </trkpt>
      <trkpt lat="45.71208" lon="3.42682">
        <ele>509</ele>
      </trkpt>
      <trkpt lat="45.71218" lon="3.42677">
        <ele>508</ele>
      </trkpt>
      <trkpt lat="45.71224" lon="3.42675">
        <ele>508</ele>
      </trkpt>
      <trkpt lat="45.71232" lon="3.42673">
        <ele>507</ele>
      </trkpt>
      <trkpt lat="45.71251" lon="3.42669">
        <ele>505</ele>
      </trkpt>
      <trkpt lat="45.71269" lon="3.42663">
        <ele>503</ele>
      </trkpt>
      <trkpt lat="45.71279" lon="3.42662">
        <ele>502</ele>
      </trkpt>
      <trkpt lat="45.71294" lon="3.42657">
        <ele>501</ele>
      </trkpt>
      <trkpt lat="45.71308" lon="3.42652">
        <ele>499</ele>
      </trkpt>
      <trkpt lat="45.71324" lon="3.42643">
        <ele>498</ele>
      </trkpt>
      <trkpt lat="45.71333" lon="3.42638">
        <ele>497</ele>
      </trkpt>
      <trkpt lat="45.71345" lon="3.42635">
        <ele>496</ele>
      </trkpt>
      <trkpt lat="45.71362" lon="3.42628">
        <ele>494</ele>
      </trkpt>
      <trkpt lat="45.71374" lon="3.42623">
        <ele>494</ele>
      </trkpt>
      <trkpt lat="45.71389" lon="3.42617">
        <ele>492</ele>
      </trkpt>
      <trkpt lat="45.71402" lon="3.42611">
        <ele>491</ele>
      </trkpt>
      <trkpt lat="45.71412" lon="3.42606">
        <ele>490</ele>
      </trkpt>
      <trkpt lat="45.71423" lon="3.426">
        <ele>489</ele>
      </trkpt>
      <trkpt lat="45.71427" lon="3.42599">
        <ele>489</ele>
      </trkpt>
      <trkpt lat="45.7144" lon="3.42593">
        <ele>488</ele>
      </trkpt>
      <trkpt lat="45.71453" lon="3.42587">
        <ele>486</ele>
      </trkpt>
      <trkpt lat="45.71467" lon="3.4258">
        <ele>486</ele>
      </trkpt>
      <trkpt lat="45.7148" lon="3.42574">
        <ele>485</ele>
      </trkpt>
      <trkpt lat="45.71487" lon="3.4257">
        <ele>484</ele>
      </trkpt>
      <trkpt lat="45.71497" lon="3.42565">
        <ele>483</ele>
      </trkpt>
      <trkpt lat="45.71507" lon="3.42557">
        <ele>482</ele>
      </trkpt>
      <trkpt lat="45.71514" lon="3.42552">
        <ele>481</ele>
      </trkpt>
      <trkpt lat="45.71526" lon="3.42548">
        <ele>481</ele>
      </trkpt>
      <trkpt lat="45.7154" lon="3.42546">
        <ele>481</ele>
      </trkpt>
      <trkpt lat="45.71553" lon="3.42543">
        <ele>480</ele>
      </trkpt>
      <trkpt lat="45.71573" lon="3.42539">
        <ele>479</ele>
      </trkpt>
      <trkpt lat="45.71591" lon="3.42537">
        <ele>478</ele>
      </trkpt>
      <trkpt lat="45.7161" lon="3.42535">
        <ele>477</ele>
      </trkpt>
      <trkpt lat="45.71626" lon="3.42534">
        <ele>477</ele>
      </trkpt>
      <trkpt lat="45.71645" lon="3.42533">
        <ele>476</ele>
      </trkpt>
      <trkpt lat="45.71661" lon="3.42531">
        <ele>476</ele>
      </trkpt>
      <trkpt lat="45.71672" lon="3.42529">
        <ele>476</ele>
      </trkpt>
      <trkpt lat="45.71685" lon="3.42528">
        <ele>475</ele>
      </trkpt>
      <trkpt lat="45.717" lon="3.42526">
        <ele>475</ele>
      </trkpt>
      <trkpt lat="45.71718" lon="3.42522">
        <ele>475</ele>
      </trkpt>
      <trkpt lat="45.7173" lon="3.42519">
        <ele>474</ele>
      </trkpt>
      <trkpt lat="45.71742" lon="3.42516">
        <ele>475</ele>
      </trkpt>
      <trkpt lat="45.71754" lon="3.42513">
        <ele>475</ele>
      </trkpt>
      <trkpt lat="45.71766" lon="3.42508">
        <ele>475</ele>
      </trkpt>
      <trkpt lat="45.71782" lon="3.42502">
        <ele>474</ele>
      </trkpt>
      <trkpt lat="45.71793" lon="3.425">
        <ele>474</ele>
      </trkpt>
      <trkpt lat="45.71805" lon="3.42496">
        <ele>475</ele>
      </trkpt>
      <trkpt lat="45.7182" lon="3.42492">
        <ele>473</ele>
      </trkpt>
      <trkpt lat="45.71832" lon="3.4249">
        <ele>472</ele>
      </trkpt>
      <trkpt lat="45.71846" lon="3.42489">
        <ele>471</ele>
      </trkpt>
      <trkpt lat="45.71872" lon="3.42494">
        <ele>470</ele>
      </trkpt>
      <trkpt lat="45.71882" lon="3.42499">
        <ele>469</ele>
      </trkpt>
      <trkpt lat="45.71896" lon="3.42505">
        <ele>469</ele>
      </trkpt>
      <trkpt lat="45.71912" lon="3.42512">
        <ele>468</ele>
      </trkpt>
      <trkpt lat="45.71929" lon="3.42519">
        <ele>466</ele>
      </trkpt>
      <trkpt lat="45.71938" lon="3.42523">
        <ele>465</ele>
      </trkpt>
      <trkpt lat="45.71956" lon="3.42529">
        <ele>463</ele>
      </trkpt>
      <trkpt lat="45.71971" lon="3.42536">
        <ele>461</ele>
      </trkpt>
      <trkpt lat="45.71989" lon="3.42543">
        <ele>459</ele>
      </trkpt>
      <trkpt lat="45.72003" lon="3.42548">
        <ele>457</ele>
      </trkpt>
      <trkpt lat="45.72013" lon="3.42552">
        <ele>456</ele>
      </trkpt>
      <trkpt lat="45.72017" lon="3.42553">
        <ele>455</ele>
      </trkpt>
      <trkpt lat="45.72027" lon="3.42553">
        <ele>453</ele>
      </trkpt>
      <trkpt lat="45.7203" lon="3.42553">
        <ele>452</ele>
      </trkpt>
      <trkpt lat="45.72041" lon="3.42548">
        <ele>450</ele>
      </trkpt>
      <trkpt lat="45.72049" lon="3.4254">
        <ele>449</ele>
      </trkpt>
      <trkpt lat="45.72057" lon="3.42536">
        <ele>448</ele>
      </trkpt>
      <trkpt lat="45.72069" lon="3.42533">
        <ele>448</ele>
      </trkpt>
      <trkpt lat="45.72077" lon="3.42533">
        <ele>448</ele>
      </trkpt>
      <trkpt lat="45.7208" lon="3.42533">
        <ele>448</ele>
      </trkpt>
      <trkpt lat="45.72082" lon="3.42533">
        <ele>448</ele>
      </trkpt>
      <trkpt lat="45.72092" lon="3.42534">
        <ele>449</ele>
      </trkpt>
      <trkpt lat="45.72097" lon="3.42536">
        <ele>449</ele>
      </trkpt>
      <trkpt lat="45.72097" lon="3.42536">
        <ele>449</ele>
      </trkpt>
      <trkpt lat="45.72105" lon="3.42537">
        <ele>449</ele>
      </trkpt>
      <trkpt lat="45.7212" lon="3.42542">
        <ele>450</ele>
      </trkpt>
      <trkpt lat="45.72133" lon="3.42553">
        <ele>449</ele>
      </trkpt>
      <trkpt lat="45.72157" lon="3.42571">
        <ele>449</ele>
      </trkpt>
      <trkpt lat="45.72165" lon="3.42577">
        <ele>449</ele>
      </trkpt>
      <trkpt lat="45.72183" lon="3.42585">
        <ele>450</ele>
      </trkpt>
      <trkpt lat="45.72202" lon="3.42592">
        <ele>451</ele>
      </trkpt>
      <trkpt lat="45.72219" lon="3.42591">
        <ele>452</ele>
      </trkpt>
      <trkpt lat="45.7223" lon="3.42591">
        <ele>453</ele>
      </trkpt>
      <trkpt lat="45.72234" lon="3.42591">
        <ele>453</ele>
      </trkpt>
      <trkpt lat="45.72236" lon="3.42589">
        <ele>454</ele>
      </trkpt>
      <trkpt lat="45.72255" lon="3.42589">
        <ele>455</ele>
      </trkpt>
      <trkpt lat="45.72268" lon="3.42593">
        <ele>456</ele>
      </trkpt>
      <trkpt lat="45.72281" lon="3.42598">
        <ele>457</ele>
      </trkpt>
      <trkpt lat="45.72288" lon="3.42599">
        <ele>457</ele>
      </trkpt>
      <trkpt lat="45.72291" lon="3.42601">
        <ele>457</ele>
      </trkpt>
      <trkpt lat="45.72292" lon="3.42602">
        <ele>457</ele>
      </trkpt>
      <trkpt lat="45.72293" lon="3.42602">
        <ele>457</ele>
      </trkpt>
      <trkpt lat="45.72302" lon="3.42605">
        <ele>458</ele>
      </trkpt>
      <trkpt lat="45.72309" lon="3.42607">
        <ele>458</ele>
      </trkpt>
      <trkpt lat="45.72313" lon="3.42608">
        <ele>458</ele>
      </trkpt>
      <trkpt lat="45.72323" lon="3.42612">
        <ele>458</ele>
      </trkpt>
      <trkpt lat="45.72331" lon="3.42615">
        <ele>458</ele>
      </trkpt>
      <trkpt lat="45.72332" lon="3.42615">
        <ele>458</ele>
      </trkpt>
      <trkpt lat="45.7234" lon="3.42618">
        <ele>458</ele>
      </trkpt>
      <trkpt lat="45.72351" lon="3.4262">
        <ele>459</ele>
      </trkpt>
      <trkpt lat="45.72358" lon="3.42623">
        <ele>459</ele>
      </trkpt>
      <trkpt lat="45.72363" lon="3.42625">
        <ele>459</ele>
      </trkpt>
      <trkpt lat="45.72364" lon="3.42626">
        <ele>459</ele>
      </trkpt>
      <trkpt lat="45.72366" lon="3.42627">
        <ele>459</ele>
      </trkpt>
      <trkpt lat="45.72365" lon="3.4263">
        <ele>459</ele>
      </trkpt>
      <trkpt lat="45.72366" lon="3.42633">
        <ele>458</ele>
      </trkpt>
      <trkpt lat="45.72367" lon="3.42631">
        <ele>459</ele>
      </trkpt>
      <trkpt lat="45.72366" lon="3.4263">
        <ele>459</ele>
      </trkpt>
      <trkpt lat="45.72366" lon="3.42634">
        <ele>458</ele>
      </trkpt>
      <trkpt lat="45.72366" lon="3.42635">
        <ele>458</ele>
      </trkpt>
      <trkpt lat="45.72367" lon="3.42643">
        <ele>457</ele>
      </trkpt>
      <trkpt lat="45.72368" lon="3.42644">
        <ele>457</ele>
      </trkpt>
      <trkpt lat="45.72368" lon="3.42666">
        <ele>455</ele>
      </trkpt>
      <trkpt lat="45.72367" lon="3.42685">
        <ele>454</ele>
      </trkpt>
      <trkpt lat="45.72367" lon="3.42706">
        <ele>452</ele>
      </trkpt>
      <trkpt lat="45.72367" lon="3.42718">
        <ele>451</ele>
      </trkpt>
      <trkpt lat="45.72366" lon="3.42719">
        <ele>451</ele>
      </trkpt>
      <trkpt lat="45.72357" lon="3.42724">
        <ele>450</ele>
      </trkpt>
      <trkpt lat="45.72344" lon="3.42734">
        <ele>450</ele>
      </trkpt>
      <trkpt lat="45.72333" lon="3.42746">
        <ele>450</ele>
      </trkpt>
      <trkpt lat="45.72324" lon="3.4276">
        <ele>451</ele>
      </trkpt>
      <trkpt lat="45.72313" lon="3.42777">
        <ele>451</ele>
      </trkpt>
      <trkpt lat="45.723" lon="3.42797">
        <ele>454</ele>
      </trkpt>
      <trkpt lat="45.7229" lon="3.42813">
        <ele>455</ele>
      </trkpt>
      <trkpt lat="45.72282" lon="3.42827">
        <ele>456</ele>
      </trkpt>
      <trkpt lat="45.72275" lon="3.42838">
        <ele>457</ele>
      </trkpt>
      <trkpt lat="45.72264" lon="3.42856">
        <ele>458</ele>
      </trkpt>
      <trkpt lat="45.72257" lon="3.42864">
        <ele>458</ele>
      </trkpt>
      <trkpt lat="45.72249" lon="3.4288">
        <ele>459</ele>
      </trkpt>
      <trkpt lat="45.72237" lon="3.42897">
        <ele>460</ele>
      </trkpt>
      <trkpt lat="45.72229" lon="3.42908">
        <ele>461</ele>
      </trkpt>
      <trkpt lat="45.72229" lon="3.42931">
        <ele>461</ele>
      </trkpt>
      <trkpt lat="45.72229" lon="3.42947">
        <ele>462</ele>
      </trkpt>
      <trkpt lat="45.72232" lon="3.42965">
        <ele>464</ele>
      </trkpt>
      <trkpt lat="45.72236" lon="3.42983">
        <ele>465</ele>
      </trkpt>
      <trkpt lat="45.72241" lon="3.43">
        <ele>466</ele>
      </trkpt>
      <trkpt lat="45.72244" lon="3.43015">
        <ele>467</ele>
      </trkpt>
      <trkpt lat="45.72248" lon="3.43029">
        <ele>468</ele>
      </trkpt>
      <trkpt lat="45.72256" lon="3.43058">
        <ele>469</ele>
      </trkpt>
      <trkpt lat="45.72259" lon="3.43075">
        <ele>470</ele>
      </trkpt>
      <trkpt lat="45.72264" lon="3.43086">
        <ele>471</ele>
      </trkpt>
      <trkpt lat="45.72278" lon="3.43096">
        <ele>471</ele>
      </trkpt>
      <trkpt lat="45.72288" lon="3.43105">
        <ele>472</ele>
      </trkpt>
      <trkpt lat="45.72296" lon="3.43116">
        <ele>472</ele>
      </trkpt>
      <trkpt lat="45.72307" lon="3.43127">
        <ele>472</ele>
      </trkpt>
      <trkpt lat="45.72312" lon="3.43139">
        <ele>472</ele>
      </trkpt>
      <trkpt lat="45.72305" lon="3.43173">
        <ele>476</ele>
      </trkpt>
      <trkpt lat="45.72301" lon="3.43186">
        <ele>477</ele>
      </trkpt>
      <trkpt lat="45.72296" lon="3.43195">
        <ele>476</ele>
      </trkpt>
      <trkpt lat="45.72285" lon="3.43203">
        <ele>476</ele>
      </trkpt>
      <trkpt lat="45.72276" lon="3.43214">
        <ele>476</ele>
      </trkpt>
      <trkpt lat="45.72272" lon="3.43219">
        <ele>476</ele>
      </trkpt>
      <trkpt lat="45.72276" lon="3.43229">
        <ele>476</ele>
      </trkpt>
      <trkpt lat="45.72279" lon="3.43247">
        <ele>475</ele>
      </trkpt>
      <trkpt lat="45.7228" lon="3.43263">
        <ele>476</ele>
      </trkpt>
      <trkpt lat="45.72282" lon="3.43285">
        <ele>476</ele>
      </trkpt>
      <trkpt lat="45.72277" lon="3.43329">
        <ele>479</ele>
      </trkpt>
      <trkpt lat="45.72275" lon="3.43352">
        <ele>479</ele>
      </trkpt>
      <trkpt lat="45.72271" lon="3.43376">
        <ele>481</ele>
      </trkpt>
      <trkpt lat="45.72268" lon="3.43393">
        <ele>482</ele>
      </trkpt>
      <trkpt lat="45.72268" lon="3.43407">
        <ele>482</ele>
      </trkpt>
      <trkpt lat="45.72281" lon="3.43421">
        <ele>482</ele>
      </trkpt>
      <trkpt lat="45.72297" lon="3.43431">
        <ele>482</ele>
      </trkpt>
      <trkpt lat="45.7231" lon="3.43441">
        <ele>481</ele>
      </trkpt>
      <trkpt lat="45.72323" lon="3.4345">
        <ele>479</ele>
      </trkpt>
      <trkpt lat="45.72336" lon="3.43458">
        <ele>478</ele>
      </trkpt>
      <trkpt lat="45.7235" lon="3.43466">
        <ele>477</ele>
      </trkpt>
      <trkpt lat="45.72367" lon="3.43477">
        <ele>475</ele>
      </trkpt>
      <trkpt lat="45.72372" lon="3.4348">
        <ele>474</ele>
      </trkpt>
      <trkpt lat="45.72375" lon="3.43483">
        <ele>474</ele>
      </trkpt>
      <trkpt lat="45.72388" lon="3.43492">
        <ele>473</ele>
      </trkpt>
      <trkpt lat="45.72395" lon="3.43496">
        <ele>472</ele>
      </trkpt>
      <trkpt lat="45.72404" lon="3.43501">
        <ele>472</ele>
      </trkpt>
      <trkpt lat="45.72406" lon="3.43503">
        <ele>472</ele>
      </trkpt>
      <trkpt lat="45.72414" lon="3.43508">
        <ele>471</ele>
      </trkpt>
      <trkpt lat="45.72431" lon="3.43515">
        <ele>471</ele>
      </trkpt>
      <trkpt lat="45.72448" lon="3.43521">
        <ele>470</ele>
      </trkpt>
      <trkpt lat="45.72464" lon="3.43524">
        <ele>469</ele>
      </trkpt>
      <trkpt lat="45.72483" lon="3.43529">
        <ele>469</ele>
      </trkpt>
      <trkpt lat="45.72497" lon="3.43534">
        <ele>468</ele>
      </trkpt>
      <trkpt lat="45.72511" lon="3.43541">
        <ele>467</ele>
      </trkpt>
      <trkpt lat="45.72529" lon="3.43555">
        <ele>465</ele>
      </trkpt>
      <trkpt lat="45.72535" lon="3.43556">
        <ele>465</ele>
      </trkpt>
      <trkpt lat="45.72536" lon="3.43556">
        <ele>465</ele>
      </trkpt>
      <trkpt lat="45.72544" lon="3.43562">
        <ele>464</ele>
      </trkpt>
      <trkpt lat="45.72555" lon="3.43574">
        <ele>464</ele>
      </trkpt>
      <trkpt lat="45.72565" lon="3.43587">
        <ele>464</ele>
      </trkpt>
      <trkpt lat="45.72576" lon="3.43606">
        <ele>464</ele>
      </trkpt>
      <trkpt lat="45.72586" lon="3.43621">
        <ele>465</ele>
      </trkpt>
      <trkpt lat="45.72595" lon="3.43632">
        <ele>465</ele>
      </trkpt>
      <trkpt lat="45.72609" lon="3.43645">
        <ele>465</ele>
      </trkpt>
      <trkpt lat="45.72621" lon="3.43654">
        <ele>465</ele>
      </trkpt>
      <trkpt lat="45.72631" lon="3.4366">
        <ele>465</ele>
      </trkpt>
      <trkpt lat="45.72645" lon="3.43665">
        <ele>465</ele>
      </trkpt>
      <trkpt lat="45.7266" lon="3.43672">
        <ele>465</ele>
      </trkpt>
      <trkpt lat="45.72666" lon="3.43677">
        <ele>464</ele>
      </trkpt>
      <trkpt lat="45.72673" lon="3.43685">
        <ele>464</ele>
      </trkpt>
      <trkpt lat="45.72682" lon="3.43693">
        <ele>464</ele>
      </trkpt>
      <trkpt lat="45.7269" lon="3.43698">
        <ele>464</ele>
      </trkpt>
      <trkpt lat="45.72702" lon="3.43707">
        <ele>463</ele>
      </trkpt>
      <trkpt lat="45.72715" lon="3.43716">
        <ele>462</ele>
      </trkpt>
      <trkpt lat="45.7273" lon="3.43725">
        <ele>462</ele>
      </trkpt>
      <trkpt lat="45.72743" lon="3.43729">
        <ele>461</ele>
      </trkpt>
      <trkpt lat="45.72751" lon="3.43731">
        <ele>461</ele>
      </trkpt>
      <trkpt lat="45.72765" lon="3.43734">
        <ele>460</ele>
      </trkpt>
      <trkpt lat="45.72777" lon="3.43733">
        <ele>459</ele>
      </trkpt>
      <trkpt lat="45.72791" lon="3.4373">
        <ele>458</ele>
      </trkpt>
      <trkpt lat="45.72804" lon="3.43725">
        <ele>457</ele>
      </trkpt>
      <trkpt lat="45.72817" lon="3.43718">
        <ele>456</ele>
      </trkpt>
      <trkpt lat="45.72828" lon="3.43712">
        <ele>455</ele>
      </trkpt>
      <trkpt lat="45.72839" lon="3.43706">
        <ele>454</ele>
      </trkpt>
      <trkpt lat="45.72853" lon="3.43701">
        <ele>454</ele>
      </trkpt>
      <trkpt lat="45.72854" lon="3.43701">
        <ele>454</ele>
      </trkpt>
      <trkpt lat="45.72864" lon="3.43699">
        <ele>453</ele>
      </trkpt>
      <trkpt lat="45.72869" lon="3.43698">
        <ele>453</ele>
      </trkpt>
      <trkpt lat="45.7288" lon="3.43696">
        <ele>452</ele>
      </trkpt>
      <trkpt lat="45.72885" lon="3.43696">
        <ele>452</ele>
      </trkpt>
      <trkpt lat="45.7289" lon="3.43697">
        <ele>452</ele>
      </trkpt>
      <trkpt lat="45.729" lon="3.43696">
        <ele>451</ele>
      </trkpt>
      <trkpt lat="45.72912" lon="3.43697">
        <ele>450</ele>
      </trkpt>
      <trkpt lat="45.72913" lon="3.43697">
        <ele>449</ele>
      </trkpt>
      <trkpt lat="45.7292" lon="3.43699">
        <ele>449</ele>
      </trkpt>
      <trkpt lat="45.7293" lon="3.43701">
        <ele>448</ele>
      </trkpt>
      <trkpt lat="45.72937" lon="3.43703">
        <ele>447</ele>
      </trkpt>
      <trkpt lat="45.72947" lon="3.43704">
        <ele>446</ele>
      </trkpt>
      <trkpt lat="45.7296" lon="3.43706">
        <ele>444</ele>
      </trkpt>
      <trkpt lat="45.72969" lon="3.43708">
        <ele>443</ele>
      </trkpt>
      <trkpt lat="45.72981" lon="3.43702">
        <ele>441</ele>
      </trkpt>
      <trkpt lat="45.72988" lon="3.43698">
        <ele>440</ele>
      </trkpt>
      <trkpt lat="45.72997" lon="3.43691">
        <ele>439</ele>
      </trkpt>
      <trkpt lat="45.73007" lon="3.43683">
        <ele>437</ele>
      </trkpt>
      <trkpt lat="45.73013" lon="3.43677">
        <ele>436</ele>
      </trkpt>
      <trkpt lat="45.7304" lon="3.43676">
        <ele>433</ele>
      </trkpt>
      <trkpt lat="45.73045" lon="3.4368">
        <ele>433</ele>
      </trkpt>
      <trkpt lat="45.73045" lon="3.4368">
        <ele>433</ele>
      </trkpt>
      <trkpt lat="45.73054" lon="3.43691">
        <ele>433</ele>
      </trkpt>
      <trkpt lat="45.73063" lon="3.43706">
        <ele>434</ele>
      </trkpt>
      <trkpt lat="45.7307" lon="3.43715">
        <ele>435</ele>
      </trkpt>
      <trkpt lat="45.73077" lon="3.43724">
        <ele>435</ele>
      </trkpt>
      <trkpt lat="45.73085" lon="3.43734">
        <ele>436</ele>
      </trkpt>
      <trkpt lat="45.7309" lon="3.43743">
        <ele>436</ele>
      </trkpt>
      <trkpt lat="45.73093" lon="3.43748">
        <ele>436</ele>
      </trkpt>
      <trkpt lat="45.73094" lon="3.43748">
        <ele>436</ele>
      </trkpt>
      <trkpt lat="45.73099" lon="3.43759">
        <ele>437</ele>
      </trkpt>
      <trkpt lat="45.73101" lon="3.43778">
        <ele>437</ele>
      </trkpt>
      <trkpt lat="45.73099" lon="3.43787">
        <ele>436</ele>
      </trkpt>
      <trkpt lat="45.73096" lon="3.43794">
        <ele>436</ele>
      </trkpt>
      <trkpt lat="45.7309" lon="3.43804">
        <ele>435</ele>
      </trkpt>
      <trkpt lat="45.7308" lon="3.4381">
        <ele>435</ele>
      </trkpt>
      <trkpt lat="45.73072" lon="3.43814">
        <ele>435</ele>
      </trkpt>
      <trkpt lat="45.73061" lon="3.43816">
        <ele>435</ele>
      </trkpt>
      <trkpt lat="45.73049" lon="3.43819">
        <ele>436</ele>
      </trkpt>
      <trkpt lat="45.73036" lon="3.43824">
        <ele>437</ele>
      </trkpt>
      <trkpt lat="45.73024" lon="3.43829">
        <ele>438</ele>
      </trkpt>
      <trkpt lat="45.73014" lon="3.43836">
        <ele>437</ele>
      </trkpt>
      <trkpt lat="45.73005" lon="3.43842">
        <ele>437</ele>
      </trkpt>
      <trkpt lat="45.73003" lon="3.43843">
        <ele>437</ele>
      </trkpt>
      <trkpt lat="45.72996" lon="3.43849">
        <ele>437</ele>
      </trkpt>
      <trkpt lat="45.72986" lon="3.43859">
        <ele>437</ele>
      </trkpt>
      <trkpt lat="45.72978" lon="3.4387">
        <ele>436</ele>
      </trkpt>
      <trkpt lat="45.72967" lon="3.43886">
        <ele>433</ele>
      </trkpt>
      <trkpt lat="45.72965" lon="3.43888">
        <ele>433</ele>
      </trkpt>
      <trkpt lat="45.72956" lon="3.439">
        <ele>432</ele>
      </trkpt>
      <trkpt lat="45.72948" lon="3.4391">
        <ele>430</ele>
      </trkpt>
      <trkpt lat="45.72939" lon="3.43921">
        <ele>429</ele>
      </trkpt>
      <trkpt lat="45.72931" lon="3.43933">
        <ele>428</ele>
      </trkpt>
      <trkpt lat="45.72925" lon="3.43945">
        <ele>427</ele>
      </trkpt>
      <trkpt lat="45.72919" lon="3.43959">
        <ele>427</ele>
      </trkpt>
      <trkpt lat="45.72911" lon="3.43974">
        <ele>426</ele>
      </trkpt>
      <trkpt lat="45.72903" lon="3.43986">
        <ele>425</ele>
      </trkpt>
      <trkpt lat="45.72895" lon="3.43998">
        <ele>424</ele>
      </trkpt>
      <trkpt lat="45.72886" lon="3.4401">
        <ele>423</ele>
      </trkpt>
      <trkpt lat="45.72876" lon="3.44023">
        <ele>423</ele>
      </trkpt>
      <trkpt lat="45.72868" lon="3.44037">
        <ele>422</ele>
      </trkpt>
      <trkpt lat="45.72863" lon="3.44054">
        <ele>422</ele>
      </trkpt>
      <trkpt lat="45.72861" lon="3.44071">
        <ele>421</ele>
      </trkpt>
      <trkpt lat="45.72863" lon="3.44082">
        <ele>421</ele>
      </trkpt>
      <trkpt lat="45.72864" lon="3.44094">
        <ele>421</ele>
      </trkpt>
      <trkpt lat="45.72865" lon="3.44102">
        <ele>421</ele>
      </trkpt>
      <trkpt lat="45.72868" lon="3.4411">
        <ele>421</ele>
      </trkpt>
      <trkpt lat="45.7287" lon="3.44125">
        <ele>421</ele>
      </trkpt>
      <trkpt lat="45.72874" lon="3.44138">
        <ele>421</ele>
      </trkpt>
      <trkpt lat="45.72875" lon="3.44144">
        <ele>421</ele>
      </trkpt>
      <trkpt lat="45.72877" lon="3.44154">
        <ele>421</ele>
      </trkpt>
      <trkpt lat="45.7288" lon="3.44169">
        <ele>422</ele>
      </trkpt>
      <trkpt lat="45.72881" lon="3.44171">
        <ele>422</ele>
      </trkpt>
      <trkpt lat="45.72884" lon="3.44183">
        <ele>422</ele>
      </trkpt>
      <trkpt lat="45.72889" lon="3.44196">
        <ele>423</ele>
      </trkpt>
      <trkpt lat="45.72898" lon="3.44208">
        <ele>425</ele>
      </trkpt>
      <trkpt lat="45.72909" lon="3.44213">
        <ele>426</ele>
      </trkpt>
      <trkpt lat="45.72921" lon="3.44208">
        <ele>426</ele>
      </trkpt>
      <trkpt lat="45.72931" lon="3.442">
        <ele>425</ele>
      </trkpt>
      <trkpt lat="45.72945" lon="3.44193">
        <ele>425</ele>
      </trkpt>
      <trkpt lat="45.72957" lon="3.44192">
        <ele>425</ele>
      </trkpt>
      <trkpt lat="45.72972" lon="3.44192">
        <ele>426</ele>
      </trkpt>
      <trkpt lat="45.72984" lon="3.44193">
        <ele>426</ele>
      </trkpt>
      <trkpt lat="45.72986" lon="3.44193">
        <ele>426</ele>
      </trkpt>
      <trkpt lat="45.72998" lon="3.44195">
        <ele>427</ele>
      </trkpt>
      <trkpt lat="45.72999" lon="3.44195">
        <ele>427</ele>
      </trkpt>
      <trkpt lat="45.7301" lon="3.44196">
        <ele>428</ele>
      </trkpt>
      <trkpt lat="45.73024" lon="3.44199">
        <ele>429</ele>
      </trkpt>
      <trkpt lat="45.73038" lon="3.44206">
        <ele>431</ele>
      </trkpt>
      <trkpt lat="45.73056" lon="3.44222">
        <ele>433</ele>
      </trkpt>
      <trkpt lat="45.73049" lon="3.44232">
        <ele>433</ele>
      </trkpt>
      <trkpt lat="45.73048" lon="3.44246">
        <ele>434</ele>
      </trkpt>
      <trkpt lat="45.73044" lon="3.4426">
        <ele>435</ele>
      </trkpt>
      <trkpt lat="45.7304" lon="3.4428">
        <ele>437</ele>
      </trkpt>
      <trkpt lat="45.73036" lon="3.44295">
        <ele>438</ele>
      </trkpt>
      <trkpt lat="45.73027" lon="3.44324">
        <ele>440</ele>
      </trkpt>
      <trkpt lat="45.73024" lon="3.44339">
        <ele>442</ele>
      </trkpt>
      <trkpt lat="45.73023" lon="3.44359">
        <ele>444</ele>
      </trkpt>
      <trkpt lat="45.73025" lon="3.4438">
        <ele>446</ele>
      </trkpt>
      <trkpt lat="45.73026" lon="3.44395">
        <ele>448</ele>
      </trkpt>
      <trkpt lat="45.73027" lon="3.44409">
        <ele>449</ele>
      </trkpt>
      <trkpt lat="45.73032" lon="3.44445">
        <ele>453</ele>
      </trkpt>
      <trkpt lat="45.73033" lon="3.44461">
        <ele>454</ele>
      </trkpt>
      <trkpt lat="45.73034" lon="3.44471">
        <ele>454</ele>
      </trkpt>
      <trkpt lat="45.73033" lon="3.44482">
        <ele>455</ele>
      </trkpt>
      <trkpt lat="45.73034" lon="3.44502">
        <ele>457</ele>
      </trkpt>
      <trkpt lat="45.73035" lon="3.44524">
        <ele>459</ele>
      </trkpt>
      <trkpt lat="45.73037" lon="3.44547">
        <ele>460</ele>
      </trkpt>
      <trkpt lat="45.73038" lon="3.44566">
        <ele>461</ele>
      </trkpt>
      <trkpt lat="45.7304" lon="3.44581">
        <ele>462</ele>
      </trkpt>
      <trkpt lat="45.73042" lon="3.44596">
        <ele>463</ele>
      </trkpt>
      <trkpt lat="45.73045" lon="3.44616">
        <ele>465</ele>
      </trkpt>
      <trkpt lat="45.73051" lon="3.44637">
        <ele>466</ele>
      </trkpt>
      <trkpt lat="45.73058" lon="3.44656">
        <ele>468</ele>
      </trkpt>
      <trkpt lat="45.73062" lon="3.44673">
        <ele>469</ele>
      </trkpt>
      <trkpt lat="45.73068" lon="3.44692">
        <ele>470</ele>
      </trkpt>
      <trkpt lat="45.73071" lon="3.44705">
        <ele>471</ele>
      </trkpt>
      <trkpt lat="45.73072" lon="3.44714">
        <ele>471</ele>
      </trkpt>
      <trkpt lat="45.73074" lon="3.4473">
        <ele>472</ele>
      </trkpt>
      <trkpt lat="45.73074" lon="3.44742">
        <ele>473</ele>
      </trkpt>
      <trkpt lat="45.73074" lon="3.4476">
        <ele>474</ele>
      </trkpt>
      <trkpt lat="45.73079" lon="3.44777">
        <ele>474</ele>
      </trkpt>
      <trkpt lat="45.73084" lon="3.44794">
        <ele>474</ele>
      </trkpt>
      <trkpt lat="45.73086" lon="3.44812">
        <ele>474</ele>
      </trkpt>
      <trkpt lat="45.73092" lon="3.44829">
        <ele>474</ele>
      </trkpt>
      <trkpt lat="45.73098" lon="3.44839">
        <ele>473</ele>
      </trkpt>
      <trkpt lat="45.73109" lon="3.44851">
        <ele>472</ele>
      </trkpt>
      <trkpt lat="45.73133" lon="3.44865">
        <ele>470</ele>
      </trkpt>
      <trkpt lat="45.73141" lon="3.44882">
        <ele>471</ele>
      </trkpt>
      <trkpt lat="45.73149" lon="3.44898">
        <ele>471</ele>
      </trkpt>
      <trkpt lat="45.73159" lon="3.44914">
        <ele>472</ele>
      </trkpt>
      <trkpt lat="45.73165" lon="3.44923">
        <ele>472</ele>
      </trkpt>
      <trkpt lat="45.7317" lon="3.44932">
        <ele>473</ele>
      </trkpt>
      <trkpt lat="45.73177" lon="3.44943">
        <ele>473</ele>
      </trkpt>
      <trkpt lat="45.73182" lon="3.44948">
        <ele>473</ele>
      </trkpt>
      <trkpt lat="45.73194" lon="3.44966">
        <ele>474</ele>
      </trkpt>
      <trkpt lat="45.73205" lon="3.44981">
        <ele>475</ele>
      </trkpt>
      <trkpt lat="45.73223" lon="3.45008">
        <ele>476</ele>
      </trkpt>
      <trkpt lat="45.73231" lon="3.4502">
        <ele>476</ele>
      </trkpt>
      <trkpt lat="45.7324" lon="3.45035">
        <ele>476</ele>
      </trkpt>
      <trkpt lat="45.73251" lon="3.45041">
        <ele>476</ele>
      </trkpt>
      <trkpt lat="45.73255" lon="3.45032">
        <ele>477</ele>
      </trkpt>
      <trkpt lat="45.7326" lon="3.45018">
        <ele>477</ele>
      </trkpt>
      <trkpt lat="45.73264" lon="3.44997">
        <ele>477</ele>
      </trkpt>
      <trkpt lat="45.73268" lon="3.44978">
        <ele>478</ele>
      </trkpt>
      <trkpt lat="45.73272" lon="3.44954">
        <ele>479</ele>
      </trkpt>
      <trkpt lat="45.73275" lon="3.4493">
        <ele>481</ele>
      </trkpt>
      <trkpt lat="45.7328" lon="3.44913">
        <ele>481</ele>
      </trkpt>
      <trkpt lat="45.73287" lon="3.44896">
        <ele>481</ele>
      </trkpt>
      <trkpt lat="45.73292" lon="3.44886">
        <ele>482</ele>
      </trkpt>
      <trkpt lat="45.73302" lon="3.44873">
        <ele>483</ele>
      </trkpt>
      <trkpt lat="45.73311" lon="3.44862">
        <ele>483</ele>
      </trkpt>
      <trkpt lat="45.7332" lon="3.44851">
        <ele>483</ele>
      </trkpt>
      <trkpt lat="45.73324" lon="3.44847">
        <ele>483</ele>
      </trkpt>
      <trkpt lat="45.73332" lon="3.44838">
        <ele>483</ele>
      </trkpt>
      <trkpt lat="45.73337" lon="3.44831">
        <ele>482</ele>
      </trkpt>
      <trkpt lat="45.73345" lon="3.44823">
        <ele>482</ele>
      </trkpt>
      <trkpt lat="45.73356" lon="3.44812">
        <ele>481</ele>
      </trkpt>
      <trkpt lat="45.73368" lon="3.44802">
        <ele>480</ele>
      </trkpt>
      <trkpt lat="45.73378" lon="3.44792">
        <ele>480</ele>
      </trkpt>
      <trkpt lat="45.73388" lon="3.44784">
        <ele>479</ele>
      </trkpt>
      <trkpt lat="45.73399" lon="3.44777">
        <ele>478</ele>
      </trkpt>
      <trkpt lat="45.73408" lon="3.44769">
        <ele>477</ele>
      </trkpt>
      <trkpt lat="45.7341" lon="3.44767">
        <ele>477</ele>
      </trkpt>
      <trkpt lat="45.73421" lon="3.44757">
        <ele>476</ele>
      </trkpt>
      <trkpt lat="45.73433" lon="3.44747">
        <ele>475</ele>
      </trkpt>
      <trkpt lat="45.73445" lon="3.44737">
        <ele>474</ele>
      </trkpt>
      <trkpt lat="45.7345" lon="3.44732">
        <ele>474</ele>
      </trkpt>
      <trkpt lat="45.73464" lon="3.44722">
        <ele>474</ele>
      </trkpt>
      <trkpt lat="45.73481" lon="3.44709">
        <ele>473</ele>
      </trkpt>
      <trkpt lat="45.73495" lon="3.44698">
        <ele>473</ele>
      </trkpt>
      <trkpt lat="45.73511" lon="3.44684">
        <ele>473</ele>
      </trkpt>
      <trkpt lat="45.73523" lon="3.44674">
        <ele>473</ele>
      </trkpt>
      <trkpt lat="45.73534" lon="3.44665">
        <ele>472</ele>
      </trkpt>
      <trkpt lat="45.73549" lon="3.44652">
        <ele>473</ele>
      </trkpt>
      <trkpt lat="45.73562" lon="3.44644">
        <ele>473</ele>
      </trkpt>
      <trkpt lat="45.73572" lon="3.44636">
        <ele>473</ele>
      </trkpt>
      <trkpt lat="45.73582" lon="3.44629">
        <ele>473</ele>
      </trkpt>
      <trkpt lat="45.7359" lon="3.44622">
        <ele>473</ele>
      </trkpt>
      <trkpt lat="45.73595" lon="3.44618">
        <ele>474</ele>
      </trkpt>
      <trkpt lat="45.73605" lon="3.44609">
        <ele>474</ele>
      </trkpt>
      <trkpt lat="45.73611" lon="3.44603">
        <ele>474</ele>
      </trkpt>
      <trkpt lat="45.73622" lon="3.44594">
        <ele>474</ele>
      </trkpt>
      <trkpt lat="45.73633" lon="3.44586">
        <ele>475</ele>
      </trkpt>
      <trkpt lat="45.73644" lon="3.44577">
        <ele>475</ele>
      </trkpt>
      <trkpt lat="45.73654" lon="3.44569">
        <ele>476</ele>
      </trkpt>
      <trkpt lat="45.73666" lon="3.44562">
        <ele>476</ele>
      </trkpt>
      <trkpt lat="45.7368" lon="3.44558">
        <ele>476</ele>
      </trkpt>
      <trkpt lat="45.73682" lon="3.4456">
        <ele>476</ele>
      </trkpt>
      <trkpt lat="45.73684" lon="3.44573">
        <ele>476</ele>
      </trkpt>
      <trkpt lat="45.73687" lon="3.44589">
        <ele>475</ele>
      </trkpt>
      <trkpt lat="45.73689" lon="3.44607">
        <ele>474</ele>
      </trkpt>
      <trkpt lat="45.73692" lon="3.44624">
        <ele>473</ele>
      </trkpt>
      <trkpt lat="45.73693" lon="3.44636">
        <ele>472</ele>
      </trkpt>
      <trkpt lat="45.73694" lon="3.44643">
        <ele>472</ele>
      </trkpt>
      <trkpt lat="45.73695" lon="3.44651">
        <ele>472</ele>
      </trkpt>
      <trkpt lat="45.73699" lon="3.44675">
        <ele>471</ele>
      </trkpt>
      <trkpt lat="45.73703" lon="3.44698">
        <ele>470</ele>
      </trkpt>
      <trkpt lat="45.73705" lon="3.44714">
        <ele>470</ele>
      </trkpt>
      <trkpt lat="45.73707" lon="3.44728">
        <ele>470</ele>
      </trkpt>
      <trkpt lat="45.73708" lon="3.44741">
        <ele>469</ele>
      </trkpt>
      <trkpt lat="45.7371" lon="3.44758">
        <ele>469</ele>
      </trkpt>
      <trkpt lat="45.73712" lon="3.44778">
        <ele>469</ele>
      </trkpt>
      <trkpt lat="45.73719" lon="3.44817">
        <ele>469</ele>
      </trkpt>
      <trkpt lat="45.7372" lon="3.4483">
        <ele>469</ele>
      </trkpt>
      <trkpt lat="45.73722" lon="3.44844">
        <ele>469</ele>
      </trkpt>
      <trkpt lat="45.73724" lon="3.44861">
        <ele>470</ele>
      </trkpt>
      <trkpt lat="45.73727" lon="3.44876">
        <ele>470</ele>
      </trkpt>
      <trkpt lat="45.73729" lon="3.44894">
        <ele>470</ele>
      </trkpt>
      <trkpt lat="45.73731" lon="3.44908">
        <ele>470</ele>
      </trkpt>
      <trkpt lat="45.73735" lon="3.44932">
        <ele>471</ele>
      </trkpt>
      <trkpt lat="45.73738" lon="3.44947">
        <ele>471</ele>
      </trkpt>
      <trkpt lat="45.73741" lon="3.44964">
        <ele>471</ele>
      </trkpt>
      <trkpt lat="45.73743" lon="3.4498">
        <ele>471</ele>
      </trkpt>
      <trkpt lat="45.73746" lon="3.44997">
        <ele>471</ele>
      </trkpt>
      <trkpt lat="45.73749" lon="3.45011">
        <ele>472</ele>
      </trkpt>
      <trkpt lat="45.73752" lon="3.45029">
        <ele>471</ele>
      </trkpt>
      <trkpt lat="45.73754" lon="3.45033">
        <ele>471</ele>
      </trkpt>
      <trkpt lat="45.73756" lon="3.45045">
        <ele>471</ele>
      </trkpt>
      <trkpt lat="45.73757" lon="3.45055">
        <ele>471</ele>
      </trkpt>
      <trkpt lat="45.73758" lon="3.45058">
        <ele>471</ele>
      </trkpt>
      <trkpt lat="45.7376" lon="3.45068">
        <ele>472</ele>
      </trkpt>
      <trkpt lat="45.73758" lon="3.45077">
        <ele>472</ele>
      </trkpt>
      <trkpt lat="45.73759" lon="3.45088">
        <ele>472</ele>
      </trkpt>
      <trkpt lat="45.7376" lon="3.4509">
        <ele>472</ele>
      </trkpt>
      <trkpt lat="45.7376" lon="3.45096">
        <ele>473</ele>
      </trkpt>
      <trkpt lat="45.73761" lon="3.45097">
        <ele>473</ele>
      </trkpt>
      <trkpt lat="45.73761" lon="3.451">
        <ele>473</ele>
      </trkpt>
      <trkpt lat="45.73761" lon="3.45102">
        <ele>473</ele>
      </trkpt>
      <trkpt lat="45.73761" lon="3.45105">
        <ele>473</ele>
      </trkpt>
      <trkpt lat="45.73761" lon="3.45109">
        <ele>473</ele>
      </trkpt>
      <trkpt lat="45.73761" lon="3.45115">
        <ele>473</ele>
      </trkpt>
      <trkpt lat="45.73761" lon="3.45126">
        <ele>473</ele>
      </trkpt>
      <trkpt lat="45.7376" lon="3.45139">
        <ele>473</ele>
      </trkpt>
      <trkpt lat="45.73759" lon="3.45145">
        <ele>473</ele>
      </trkpt>
      <trkpt lat="45.73757" lon="3.4515">
        <ele>473</ele>
      </trkpt>
      <trkpt lat="45.73756" lon="3.45155">
        <ele>473</ele>
      </trkpt>
      <trkpt lat="45.73754" lon="3.45166">
        <ele>473</ele>
      </trkpt>
      <trkpt lat="45.73753" lon="3.45172">
        <ele>473</ele>
      </trkpt>
      <trkpt lat="45.73751" lon="3.45179">
        <ele>473</ele>
      </trkpt>
      <trkpt lat="45.7375" lon="3.4519">
        <ele>473</ele>
      </trkpt>
      <trkpt lat="45.73747" lon="3.45201">
        <ele>473</ele>
      </trkpt>
      <trkpt lat="45.73746" lon="3.45205">
        <ele>473</ele>
      </trkpt>
      <trkpt lat="45.73746" lon="3.45211">
        <ele>473</ele>
      </trkpt>
      <trkpt lat="45.73744" lon="3.45226">
        <ele>472</ele>
      </trkpt>
      <trkpt lat="45.73744" lon="3.45241">
        <ele>472</ele>
      </trkpt>
      <trkpt lat="45.73744" lon="3.45242">
        <ele>472</ele>
      </trkpt>
      <trkpt lat="45.73743" lon="3.45251">
        <ele>472</ele>
      </trkpt>
      <trkpt lat="45.73742" lon="3.45263">
        <ele>471</ele>
      </trkpt>
      <trkpt lat="45.73745" lon="3.4527">
        <ele>471</ele>
      </trkpt>
      <trkpt lat="45.73751" lon="3.45274">
        <ele>471</ele>
      </trkpt>
      <trkpt lat="45.73755" lon="3.45274">
        <ele>471</ele>
      </trkpt>
      <trkpt lat="45.73756" lon="3.45276">
        <ele>471</ele>
      </trkpt>
      <trkpt lat="45.73765" lon="3.45278">
        <ele>471</ele>
      </trkpt>
      <trkpt lat="45.73774" lon="3.45281">
        <ele>470</ele>
      </trkpt>
      <trkpt lat="45.73782" lon="3.45284">
        <ele>470</ele>
      </trkpt>
      <trkpt lat="45.73791" lon="3.45286">
        <ele>470</ele>
      </trkpt>
      <trkpt lat="45.73802" lon="3.45288">
        <ele>470</ele>
      </trkpt>
      <trkpt lat="45.73811" lon="3.45291">
        <ele>470</ele>
      </trkpt>
      <trkpt lat="45.7382" lon="3.45294">
        <ele>470</ele>
      </trkpt>
      <trkpt lat="45.73829" lon="3.45296">
        <ele>470</ele>
      </trkpt>
      <trkpt lat="45.7384" lon="3.45298">
        <ele>470</ele>
      </trkpt>
      <trkpt lat="45.73848" lon="3.453">
        <ele>469</ele>
      </trkpt>
      <trkpt lat="45.73857" lon="3.45302">
        <ele>469</ele>
      </trkpt>
      <trkpt lat="45.73867" lon="3.45306">
        <ele>469</ele>
      </trkpt>
      <trkpt lat="45.73878" lon="3.45309">
        <ele>469</ele>
      </trkpt>
      <trkpt lat="45.73888" lon="3.45311">
        <ele>469</ele>
      </trkpt>
      <trkpt lat="45.73897" lon="3.45314">
        <ele>469</ele>
      </trkpt>
      <trkpt lat="45.73916" lon="3.45316">
        <ele>469</ele>
      </trkpt>
      <trkpt lat="45.73921" lon="3.45317">
        <ele>469</ele>
      </trkpt>
      <trkpt lat="45.73931" lon="3.45318">
        <ele>469</ele>
      </trkpt>
      <trkpt lat="45.73942" lon="3.45321">
        <ele>469</ele>
      </trkpt>
      <trkpt lat="45.73953" lon="3.45324">
        <ele>469</ele>
      </trkpt>
      <trkpt lat="45.73965" lon="3.45328">
        <ele>469</ele>
      </trkpt>
      <trkpt lat="45.73976" lon="3.45332">
        <ele>469</ele>
      </trkpt>
      <trkpt lat="45.73988" lon="3.45337">
        <ele>469</ele>
      </trkpt>
      <trkpt lat="45.73998" lon="3.4534">
        <ele>469</ele>
      </trkpt>
      <trkpt lat="45.74007" lon="3.45345">
        <ele>469</ele>
      </trkpt>
      <trkpt lat="45.74016" lon="3.45351">
        <ele>469</ele>
      </trkpt>
      <trkpt lat="45.74026" lon="3.45359">
        <ele>469</ele>
      </trkpt>
      <trkpt lat="45.7403" lon="3.45362">
        <ele>468</ele>
      </trkpt>
      <trkpt lat="45.74031" lon="3.45363">
        <ele>468</ele>
      </trkpt>
      <trkpt lat="45.7404" lon="3.4537">
        <ele>468</ele>
      </trkpt>
      <trkpt lat="45.74047" lon="3.45375">
        <ele>468</ele>
      </trkpt>
      <trkpt lat="45.74056" lon="3.45378">
        <ele>468</ele>
      </trkpt>
      <trkpt lat="45.74064" lon="3.45381">
        <ele>468</ele>
      </trkpt>
      <trkpt lat="45.74074" lon="3.45384">
        <ele>467</ele>
      </trkpt>
      <trkpt lat="45.74089" lon="3.45388">
        <ele>466</ele>
      </trkpt>
      <trkpt lat="45.741" lon="3.45391">
        <ele>466</ele>
      </trkpt>
      <trkpt lat="45.74105" lon="3.45395">
        <ele>466</ele>
        <time>2017-09-22T07:32:47Z</time>
      </trkpt>
      <trkpt lat="45.74127" lon="3.45405">
        <ele>467</ele>
        <time>2017-09-22T07:33:16Z</time>
      </trkpt>
      <trkpt lat="45.74152" lon="3.45419">
        <ele>465</ele>
        <time>2017-09-22T07:33:27Z</time>
      </trkpt>
      <trkpt lat="45.74166" lon="3.4542">
        <ele>465</ele>
        <time>2017-09-22T07:33:36Z</time>
      </trkpt>
      <trkpt lat="45.74173" lon="3.45421">
        <ele>465</ele>
        <time>2017-09-22T07:33:41Z</time>
      </trkpt>
      <trkpt lat="45.74186" lon="3.45421">
        <ele>465</ele>
        <time>2017-09-22T07:33:49Z</time>
      </trkpt>
      <trkpt lat="45.742" lon="3.45422">
        <ele>465</ele>
        <time>2017-09-22T07:33:58Z</time>
      </trkpt>
      <trkpt lat="45.74206" lon="3.45422">
        <ele>465</ele>
        <time>2017-09-22T07:34:03Z</time>
      </trkpt>
      <trkpt lat="45.74221" lon="3.45424">
        <ele>465</ele>
        <time>2017-09-22T07:34:12Z</time>
      </trkpt>
      <trkpt lat="45.74222" lon="3.45423">
        <ele>465</ele>
        <time>2017-09-22T07:34:13Z</time>
      </trkpt>
      <trkpt lat="45.74237" lon="3.45425">
        <ele>464</ele>
        <time>2017-09-22T07:34:22Z</time>
      </trkpt>
      <trkpt lat="45.74251" lon="3.45426">
        <ele>464</ele>
        <time>2017-09-22T07:34:31Z</time>
      </trkpt>
      <trkpt lat="45.74254" lon="3.45427">
        <ele>464</ele>
        <time>2017-09-22T07:34:33Z</time>
      </trkpt>
      <trkpt lat="45.74261" lon="3.45429">
        <ele>464</ele>
        <time>2017-09-22T07:34:38Z</time>
      </trkpt>
      <trkpt lat="45.74274" lon="3.4543">
        <ele>464</ele>
        <time>2017-09-22T07:34:46Z</time>
      </trkpt>
      <trkpt lat="45.74284" lon="3.45431">
        <ele>464</ele>
        <time>2017-09-22T07:34:53Z</time>
      </trkpt>
      <trkpt lat="45.74294" lon="3.45432">
        <ele>464</ele>
        <time>2017-09-22T07:35:00Z</time>
      </trkpt>
      <trkpt lat="45.74304" lon="3.45433">
        <ele>464</ele>
        <time>2017-09-22T07:35:06Z</time>
      </trkpt>
      <trkpt lat="45.74315" lon="3.45434">
        <ele>464</ele>
        <time>2017-09-22T07:35:13Z</time>
      </trkpt>
      <trkpt lat="45.74328" lon="3.45437">
        <ele>464</ele>
        <time>2017-09-22T07:35:22Z</time>
      </trkpt>
      <trkpt lat="45.74335" lon="3.45438">
        <ele>464</ele>
        <time>2017-09-22T07:35:28Z</time>
      </trkpt>
      <trkpt lat="45.74345" lon="3.45442">
        <ele>464</ele>
        <time>2017-09-22T07:35:35Z</time>
      </trkpt>
      <trkpt lat="45.74358" lon="3.45448">
        <ele>464</ele>
        <time>2017-09-22T07:35:44Z</time>
      </trkpt>
      <trkpt lat="45.74368" lon="3.45453">
        <ele>464</ele>
        <time>2017-09-22T07:35:52Z</time>
      </trkpt>
      <trkpt lat="45.74379" lon="3.45458">
        <ele>464</ele>
        <time>2017-09-22T07:36:00Z</time>
      </trkpt>
      <trkpt lat="45.74389" lon="3.45463">
        <ele>464</ele>
        <time>2017-09-22T07:36:07Z</time>
      </trkpt>
      <trkpt lat="45.74399" lon="3.45469">
        <ele>464</ele>
        <time>2017-09-22T07:36:15Z</time>
      </trkpt>
      <trkpt lat="45.7441" lon="3.45476">
        <ele>464</ele>
        <time>2017-09-22T07:36:24Z</time>
      </trkpt>
      <trkpt lat="45.7442" lon="3.45484">
        <ele>464</ele>
        <time>2017-09-22T07:36:32Z</time>
      </trkpt>
      <trkpt lat="45.7443" lon="3.45492">
        <ele>464</ele>
        <time>2017-09-22T07:36:40Z</time>
      </trkpt>
      <trkpt lat="45.74438" lon="3.455">
        <ele>463</ele>
        <time>2017-09-22T07:36:46Z</time>
      </trkpt>
      <trkpt lat="45.74445" lon="3.4551">
        <ele>463</ele>
        <time>2017-09-22T07:36:53Z</time>
      </trkpt>
      <trkpt lat="45.74451" lon="3.45518">
        <ele>463</ele>
        <time>2017-09-22T07:36:59Z</time>
      </trkpt>
      <trkpt lat="45.74456" lon="3.45524">
        <ele>464</ele>
        <time>2017-09-22T07:37:04Z</time>
      </trkpt>
      <trkpt lat="45.74463" lon="3.45532">
        <ele>464</ele>
        <time>2017-09-22T07:37:11Z</time>
      </trkpt>
      <trkpt lat="45.7447" lon="3.4554">
        <ele>464</ele>
        <time>2017-09-22T07:37:17Z</time>
      </trkpt>
      <trkpt lat="45.7448" lon="3.45551">
        <ele>464</ele>
        <time>2017-09-22T07:37:26Z</time>
      </trkpt>
      <trkpt lat="45.74486" lon="3.4556">
        <ele>464</ele>
        <time>2017-09-22T07:37:32Z</time>
      </trkpt>
      <trkpt lat="45.74493" lon="3.45568">
        <ele>464</ele>
        <time>2017-09-22T07:37:39Z</time>
      </trkpt>
      <trkpt lat="45.74499" lon="3.45577">
        <ele>464</ele>
        <time>2017-09-22T07:37:46Z</time>
      </trkpt>
      <trkpt lat="45.7451" lon="3.45591">
        <ele>465</ele>
        <time>2017-09-22T07:37:56Z</time>
      </trkpt>
      <trkpt lat="45.7452" lon="3.45603">
        <ele>465</ele>
        <time>2017-09-22T07:38:05Z</time>
      </trkpt>
      <trkpt lat="45.74531" lon="3.45614">
        <ele>464</ele>
        <time>2017-09-22T07:38:14Z</time>
      </trkpt>
      <trkpt lat="45.74535" lon="3.45616">
        <ele>464</ele>
        <time>2017-09-22T07:38:17Z</time>
      </trkpt>
      <trkpt lat="45.74534" lon="3.45608">
        <ele>464</ele>
        <time>2017-09-22T07:38:24Z</time>
      </trkpt>
      <trkpt lat="45.74533" lon="3.45606">
        <ele>464</ele>
        <time>2017-09-22T07:38:25Z</time>
      </trkpt>
      <trkpt lat="45.74531" lon="3.45603">
        <ele>464</ele>
        <time>2017-09-22T07:38:32Z</time>
      </trkpt>
      <trkpt lat="45.7453" lon="3.45601">
        <ele>464</ele>
        <time>2017-09-22T07:38:47Z</time>
      </trkpt>
      <trkpt lat="45.7453" lon="3.45598">
        <ele>464</ele>
        <time>2017-09-22T07:39:10Z</time>
      </trkpt>
      <trkpt lat="45.7453" lon="3.45601">
        <ele>464</ele>
        <time>2017-09-22T07:39:20Z</time>
      </trkpt>
      <trkpt lat="45.74534" lon="3.45612">
        <ele>464</ele>
        <time>2017-09-22T07:39:28Z</time>
      </trkpt>
      <trkpt lat="45.74535" lon="3.45617">
        <ele>464</ele>
        <time>2017-09-22T07:39:31Z</time>
      </trkpt>
      <trkpt lat="45.74535" lon="3.4562">
        <ele>464</ele>
        <time>2017-09-22T07:39:33Z</time>
      </trkpt>
      <trkpt lat="45.74541" lon="3.45629">
        <ele>464</ele>
        <time>2017-09-22T07:39:42Z</time>
      </trkpt>
      <trkpt lat="45.74545" lon="3.45629">
        <ele>464</ele>
        <time>2017-09-22T07:40:03Z</time>
      </trkpt>
      <trkpt lat="45.74547" lon="3.45632">
        <ele>464</ele>
        <time>2017-09-22T07:40:10Z</time>
      </trkpt>
      <trkpt lat="45.74547" lon="3.45638">
        <ele>464</ele>
        <time>2017-09-22T07:40:28Z</time>
      </trkpt>
      <trkpt lat="45.74539" lon="3.4564">
        <ele>464</ele>
        <time>2017-09-22T07:40:35Z</time>
      </trkpt>
      <trkpt lat="45.74526" lon="3.45643">
        <ele>465</ele>
        <time>2017-09-22T07:40:45Z</time>
      </trkpt>
      <trkpt lat="45.74519" lon="3.45645">
        <ele>465</ele>
        <time>2017-09-22T07:40:50Z</time>
      </trkpt>
      <trkpt lat="45.74515" lon="3.45652">
        <ele>465</ele>
        <time>2017-09-22T07:40:56Z</time>
      </trkpt>
      <trkpt lat="45.74515" lon="3.45651">
        <ele>465</ele>
        <time>2017-09-22T07:41:03Z</time>
      </trkpt>
      <trkpt lat="45.74512" lon="3.45667">
        <ele>464</ele>
        <time>2017-09-22T07:41:28Z</time>
      </trkpt>
      <trkpt lat="45.7451" lon="3.4568">
        <ele>464</ele>
        <time>2017-09-22T07:41:35Z</time>
      </trkpt>
      <trkpt lat="45.74506" lon="3.45695">
        <ele>464</ele>
        <time>2017-09-22T07:41:43Z</time>
      </trkpt>
      <trkpt lat="45.74503" lon="3.45709">
        <ele>464</ele>
        <time>2017-09-22T07:41:50Z</time>
      </trkpt>
      <trkpt lat="45.74498" lon="3.45727">
        <ele>463</ele>
        <time>2017-09-22T07:41:59Z</time>
      </trkpt>
      <trkpt lat="45.74497" lon="3.45728">
        <ele>463</ele>
        <time>2017-09-22T07:42:00Z</time>
      </trkpt>
      <trkpt lat="45.74494" lon="3.45739">
        <ele>463</ele>
        <time>2017-09-22T07:42:05Z</time>
      </trkpt>
      <trkpt lat="45.74489" lon="3.45757">
        <ele>463</ele>
        <time>2017-09-22T07:42:16Z</time>
      </trkpt>
      <trkpt lat="45.74484" lon="3.45774">
        <ele>463</ele>
        <time>2017-09-22T07:42:26Z</time>
      </trkpt>
      <trkpt lat="45.74482" lon="3.45778">
        <ele>463</ele>
        <time>2017-09-22T07:42:31Z</time>
      </trkpt>
      <trkpt lat="45.7448" lon="3.45785">
        <ele>463</ele>
        <time>2017-09-22T07:42:37Z</time>
      </trkpt>
      <trkpt lat="45.74478" lon="3.45797">
        <ele>463</ele>
        <time>2017-09-22T07:42:43Z</time>
      </trkpt>
      <trkpt lat="45.74475" lon="3.45816">
        <ele>463</ele>
        <time>2017-09-22T07:42:52Z</time>
      </trkpt>
      <trkpt lat="45.74473" lon="3.45837">
        <ele>463</ele>
        <time>2017-09-22T07:43:02Z</time>
      </trkpt>
      <trkpt lat="45.74473" lon="3.45851">
        <ele>463</ele>
        <time>2017-09-22T07:43:09Z</time>
      </trkpt>
      <trkpt lat="45.74474" lon="3.45858">
        <ele>462</ele>
        <time>2017-09-22T07:43:12Z</time>
      </trkpt>
      <trkpt lat="45.74477" lon="3.45893">
        <ele>461</ele>
        <time>2017-09-22T07:43:28Z</time>
      </trkpt>
      <trkpt lat="45.74477" lon="3.45912">
        <ele>461</ele>
        <time>2017-09-22T07:43:36Z</time>
      </trkpt>
      <trkpt lat="45.74473" lon="3.45926">
        <ele>460</ele>
        <time>2017-09-22T07:43:43Z</time>
      </trkpt>
      <trkpt lat="45.74467" lon="3.45937">
        <ele>460</ele>
        <time>2017-09-22T07:43:49Z</time>
      </trkpt>
      <trkpt lat="45.74462" lon="3.45946">
        <ele>459</ele>
        <time>2017-09-22T07:43:56Z</time>
      </trkpt>
      <trkpt lat="45.74462" lon="3.45947">
        <ele>459</ele>
        <time>2017-09-22T07:44:03Z</time>
      </trkpt>
      <trkpt lat="45.74459" lon="3.45952">
        <ele>459</ele>
        <time>2017-09-22T07:44:14Z</time>
      </trkpt>
      <trkpt lat="45.74457" lon="3.45963">
        <ele>459</ele>
        <time>2017-09-22T07:44:20Z</time>
      </trkpt>
      <trkpt lat="45.74456" lon="3.4598">
        <ele>459</ele>
        <time>2017-09-22T07:44:28Z</time>
      </trkpt>
      <trkpt lat="45.74455" lon="3.45998">
        <ele>459</ele>
        <time>2017-09-22T07:44:36Z</time>
      </trkpt>
      <trkpt lat="45.74451" lon="3.46018">
        <ele>460</ele>
        <time>2017-09-22T07:44:45Z</time>
      </trkpt>
      <trkpt lat="45.74445" lon="3.46035">
        <ele>460</ele>
        <time>2017-09-22T07:44:54Z</time>
      </trkpt>
      <trkpt lat="45.7444" lon="3.46046">
        <ele>460</ele>
        <time>2017-09-22T07:45:00Z</time>
      </trkpt>
      <trkpt lat="45.74434" lon="3.46058">
        <ele>461</ele>
        <time>2017-09-22T07:45:07Z</time>
      </trkpt>
      <trkpt lat="45.74428" lon="3.46075">
        <ele>461</ele>
        <time>2017-09-22T07:45:16Z</time>
      </trkpt>
      <trkpt lat="45.74427" lon="3.46084">
        <ele>461</ele>
        <time>2017-09-22T07:45:20Z</time>
      </trkpt>
      <trkpt lat="45.74427" lon="3.46101">
        <ele>461</ele>
        <time>2017-09-22T07:45:28Z</time>
      </trkpt>
      <trkpt lat="45.74426" lon="3.46111">
        <ele>461</ele>
        <time>2017-09-22T07:45:33Z</time>
      </trkpt>
      <trkpt lat="45.74426" lon="3.46113">
        <ele>461</ele>
        <time>2017-09-22T07:45:34Z</time>
      </trkpt>
      <trkpt lat="45.74426" lon="3.46126">
        <ele>462</ele>
        <time>2017-09-22T07:45:40Z</time>
      </trkpt>
      <trkpt lat="45.74426" lon="3.4614">
        <ele>462</ele>
        <time>2017-09-22T07:45:47Z</time>
      </trkpt>
      <trkpt lat="45.74426" lon="3.46152">
        <ele>462</ele>
        <time>2017-09-22T07:45:53Z</time>
      </trkpt>
      <trkpt lat="45.74426" lon="3.46155">
        <ele>462</ele>
        <time>2017-09-22T07:45:54Z</time>
      </trkpt>
      <trkpt lat="45.74426" lon="3.46172">
        <ele>463</ele>
        <time>2017-09-22T07:46:01Z</time>
      </trkpt>
      <trkpt lat="45.74427" lon="3.46194">
        <ele>463</ele>
        <time>2017-09-22T07:46:10Z</time>
      </trkpt>
      <trkpt lat="45.74426" lon="3.4621">
        <ele>463</ele>
        <time>2017-09-22T07:46:17Z</time>
      </trkpt>
      <trkpt lat="45.74427" lon="3.46226">
        <ele>463</ele>
        <time>2017-09-22T07:46:24Z</time>
      </trkpt>
      <trkpt lat="45.74427" lon="3.46249">
        <ele>463</ele>
        <time>2017-09-22T07:46:34Z</time>
      </trkpt>
      <trkpt lat="45.74427" lon="3.46257">
        <ele>463</ele>
        <time>2017-09-22T07:46:38Z</time>
      </trkpt>
      <trkpt lat="45.74427" lon="3.46258">
        <ele>463</ele>
        <time>2017-09-22T07:46:45Z</time>
      </trkpt>
      <trkpt lat="45.74427" lon="3.46261">
        <ele>463</ele>
        <time>2017-09-22T07:46:53Z</time>
      </trkpt>
      <trkpt lat="45.74427" lon="3.46276">
        <ele>463</ele>
        <time>2017-09-22T07:47:00Z</time>
      </trkpt>
      <trkpt lat="45.74426" lon="3.46295">
        <ele>462</ele>
        <time>2017-09-22T07:47:08Z</time>
      </trkpt>
      <trkpt lat="45.74428" lon="3.4631">
        <ele>461</ele>
        <time>2017-09-22T07:47:14Z</time>
      </trkpt>
      <trkpt lat="45.74429" lon="3.46337">
        <ele>460</ele>
        <time>2017-09-22T07:47:26Z</time>
      </trkpt>
      <trkpt lat="45.74429" lon="3.46353">
        <ele>459</ele>
        <time>2017-09-22T07:47:33Z</time>
      </trkpt>
      <trkpt lat="45.7443" lon="3.46372">
        <ele>458</ele>
        <time>2017-09-22T07:47:41Z</time>
      </trkpt>
      <trkpt lat="45.74431" lon="3.46388">
        <ele>458</ele>
        <time>2017-09-22T07:47:48Z</time>
      </trkpt>
      <trkpt lat="45.74432" lon="3.4641">
        <ele>457</ele>
        <time>2017-09-22T07:47:57Z</time>
      </trkpt>
      <trkpt lat="45.74434" lon="3.46429">
        <ele>457</ele>
        <time>2017-09-22T07:48:05Z</time>
      </trkpt>
      <trkpt lat="45.74436" lon="3.46452">
        <ele>455</ele>
        <time>2017-09-22T07:48:15Z</time>
      </trkpt>
      <trkpt lat="45.74437" lon="3.46478">
        <ele>454</ele>
        <time>2017-09-22T07:48:26Z</time>
      </trkpt>
      <trkpt lat="45.74437" lon="3.46493">
        <ele>453</ele>
        <time>2017-09-22T07:48:33Z</time>
      </trkpt>
      <trkpt lat="45.74438" lon="3.46506">
        <ele>453</ele>
        <time>2017-09-22T07:48:39Z</time>
      </trkpt>
      <trkpt lat="45.74439" lon="3.4652">
        <ele>452</ele>
        <time>2017-09-22T07:48:45Z</time>
      </trkpt>
      <trkpt lat="45.7444" lon="3.46536">
        <ele>452</ele>
        <time>2017-09-22T07:48:52Z</time>
      </trkpt>
      <trkpt lat="45.7444" lon="3.4655">
        <ele>452</ele>
        <time>2017-09-22T07:48:58Z</time>
      </trkpt>
      <trkpt lat="45.74441" lon="3.46568">
        <ele>452</ele>
        <time>2017-09-22T07:49:06Z</time>
      </trkpt>
      <trkpt lat="45.74442" lon="3.46588">
        <ele>451</ele>
        <time>2017-09-22T07:49:15Z</time>
      </trkpt>
      <trkpt lat="45.74441" lon="3.46605">
        <ele>451</ele>
        <time>2017-09-22T07:49:22Z</time>
      </trkpt>
      <trkpt lat="45.74442" lon="3.4662">
        <ele>450</ele>
        <time>2017-09-22T07:49:29Z</time>
      </trkpt>
      <trkpt lat="45.74443" lon="3.4664">
        <ele>450</ele>
        <time>2017-09-22T07:49:38Z</time>
      </trkpt>
      <trkpt lat="45.74445" lon="3.46655">
        <ele>450</ele>
        <time>2017-09-22T07:49:45Z</time>
      </trkpt>
      <trkpt lat="45.74444" lon="3.46676">
        <ele>450</ele>
        <time>2017-09-22T07:49:54Z</time>
      </trkpt>
      <trkpt lat="45.74443" lon="3.46704">
        <ele>450</ele>
        <time>2017-09-22T07:50:06Z</time>
      </trkpt>
      <trkpt lat="45.74441" lon="3.46723">
        <ele>450</ele>
        <time>2017-09-22T07:50:14Z</time>
      </trkpt>
      <trkpt lat="45.74439" lon="3.46737">
        <ele>450</ele>
        <time>2017-09-22T07:50:21Z</time>
      </trkpt>
      <trkpt lat="45.74437" lon="3.4675">
        <ele>449</ele>
        <time>2017-09-22T07:50:28Z</time>
      </trkpt>
      <trkpt lat="45.7443" lon="3.46764">
        <ele>448</ele>
        <time>2017-09-22T07:50:36Z</time>
      </trkpt>
      <trkpt lat="45.74423" lon="3.46776">
        <ele>447</ele>
        <time>2017-09-22T07:50:43Z</time>
      </trkpt>
      <trkpt lat="45.74417" lon="3.46781">
        <ele>447</ele>
        <time>2017-09-22T07:50:48Z</time>
      </trkpt>
      <trkpt lat="45.74413" lon="3.46786">
        <ele>447</ele>
        <time>2017-09-22T07:50:52Z</time>
      </trkpt>
      <trkpt lat="45.74404" lon="3.46789">
        <ele>446</ele>
        <time>2017-09-22T07:50:58Z</time>
      </trkpt>
      <trkpt lat="45.74396" lon="3.46787">
        <ele>446</ele>
        <time>2017-09-22T07:51:04Z</time>
      </trkpt>
      <trkpt lat="45.74382" lon="3.46788">
        <ele>446</ele>
        <time>2017-09-22T07:51:12Z</time>
      </trkpt>
      <trkpt lat="45.74371" lon="3.46787">
        <ele>447</ele>
        <time>2017-09-22T07:51:19Z</time>
      </trkpt>
      <trkpt lat="45.74361" lon="3.46788">
        <ele>447</ele>
        <time>2017-09-22T07:51:25Z</time>
      </trkpt>
      <trkpt lat="45.74354" lon="3.46787">
        <ele>447</ele>
        <time>2017-09-22T07:51:31Z</time>
      </trkpt>
      <trkpt lat="45.74351" lon="3.46786">
        <ele>447</ele>
        <time>2017-09-22T07:51:33Z</time>
      </trkpt>
      <trkpt lat="45.74346" lon="3.46785">
        <ele>448</ele>
        <time>2017-09-22T07:51:38Z</time>
      </trkpt>
      <trkpt lat="45.74339" lon="3.46786">
        <ele>448</ele>
        <time>2017-09-22T07:51:42Z</time>
      </trkpt>
      <trkpt lat="45.74325" lon="3.46785">
        <ele>448</ele>
        <time>2017-09-22T07:51:51Z</time>
      </trkpt>
      <trkpt lat="45.74324" lon="3.46785">
        <ele>448</ele>
        <time>2017-09-22T07:51:52Z</time>
      </trkpt>
      <trkpt lat="45.74312" lon="3.46787">
        <ele>449</ele>
        <time>2017-09-22T07:51:58Z</time>
      </trkpt>
      <trkpt lat="45.74311" lon="3.46787">
        <ele>449</ele>
        <time>2017-09-22T07:51:59Z</time>
      </trkpt>
      <trkpt lat="45.74306" lon="3.46785">
        <ele>449</ele>
        <time>2017-09-22T07:52:02Z</time>
      </trkpt>
      <trkpt lat="45.7429" lon="3.46782">
        <ele>448</ele>
        <time>2017-09-22T07:52:11Z</time>
      </trkpt>
      <trkpt lat="45.74278" lon="3.46779">
        <ele>447</ele>
        <time>2017-09-22T07:52:18Z</time>
      </trkpt>
      <trkpt lat="45.74268" lon="3.46775">
        <ele>446</ele>
        <time>2017-09-22T07:52:24Z</time>
      </trkpt>
      <trkpt lat="45.74256" lon="3.46773">
        <ele>445</ele>
        <time>2017-09-22T07:52:31Z</time>
      </trkpt>
      <trkpt lat="45.74242" lon="3.46771">
        <ele>443</ele>
        <time>2017-09-22T07:52:39Z</time>
      </trkpt>
      <trkpt lat="45.74227" lon="3.46771">
        <ele>442</ele>
        <time>2017-09-22T07:52:48Z</time>
      </trkpt>
      <trkpt lat="45.74209" lon="3.4677">
        <ele>441</ele>
        <time>2017-09-22T07:52:59Z</time>
      </trkpt>
      <trkpt lat="45.74199" lon="3.4677">
        <ele>441</ele>
        <time>2017-09-22T07:53:06Z</time>
      </trkpt>
      <trkpt lat="45.7419" lon="3.46776">
        <ele>441</ele>
        <time>2017-09-22T07:53:13Z</time>
      </trkpt>
      <trkpt lat="45.74187" lon="3.46782">
        <ele>441</ele>
        <time>2017-09-22T07:53:16Z</time>
      </trkpt>
      <trkpt lat="45.74187" lon="3.46785">
        <ele>441</ele>
        <time>2017-09-22T07:53:18Z</time>
      </trkpt>
      <trkpt lat="45.74185" lon="3.46795">
        <ele>441</ele>
        <time>2017-09-22T07:53:25Z</time>
      </trkpt>
      <trkpt lat="45.74187" lon="3.46804">
        <ele>440</ele>
        <time>2017-09-22T07:53:30Z</time>
      </trkpt>
      <trkpt lat="45.74188" lon="3.46813">
        <ele>440</ele>
        <time>2017-09-22T07:53:35Z</time>
      </trkpt>
      <trkpt lat="45.74191" lon="3.46817">
        <ele>440</ele>
        <time>2017-09-22T07:53:39Z</time>
      </trkpt>
      <trkpt lat="45.74195" lon="3.46823">
        <ele>440</ele>
        <time>2017-09-22T07:53:45Z</time>
      </trkpt>
      <trkpt lat="45.74197" lon="3.46825">
        <ele>439</ele>
        <time>2017-09-22T07:53:47Z</time>
      </trkpt>
      <trkpt lat="45.74202" lon="3.46832">
        <ele>439</ele>
        <time>2017-09-22T07:53:52Z</time>
      </trkpt>
      <trkpt lat="45.74208" lon="3.46847">
        <ele>439</ele>
        <time>2017-09-22T07:54:00Z</time>
      </trkpt>
      <trkpt lat="45.74208" lon="3.46859">
        <ele>440</ele>
        <time>2017-09-22T07:54:06Z</time>
      </trkpt>
      <trkpt lat="45.74207" lon="3.46866">
        <ele>440</ele>
        <time>2017-09-22T07:54:10Z</time>
      </trkpt>
      <trkpt lat="45.74205" lon="3.46878">
        <ele>441</ele>
        <time>2017-09-22T07:54:17Z</time>
      </trkpt>
      <trkpt lat="45.74201" lon="3.4689">
        <ele>441</ele>
        <time>2017-09-22T07:54:24Z</time>
      </trkpt>
      <trkpt lat="45.74197" lon="3.46906">
        <ele>442</ele>
        <time>2017-09-22T07:54:32Z</time>
      </trkpt>
      <trkpt lat="45.74195" lon="3.46913">
        <ele>443</ele>
        <time>2017-09-22T07:54:36Z</time>
      </trkpt>
      <trkpt lat="45.74193" lon="3.46923">
        <ele>443</ele>
        <time>2017-09-22T07:54:42Z</time>
      </trkpt>
      <trkpt lat="45.7419" lon="3.46938">
        <ele>445</ele>
        <time>2017-09-22T07:54:50Z</time>
      </trkpt>
      <trkpt lat="45.74189" lon="3.46944">
        <ele>445</ele>
        <time>2017-09-22T07:54:53Z</time>
      </trkpt>
      <trkpt lat="45.74184" lon="3.46959">
        <ele>447</ele>
        <time>2017-09-22T07:55:01Z</time>
      </trkpt>
      <trkpt lat="45.74176" lon="3.46975">
        <ele>450</ele>
        <time>2017-09-22T07:55:11Z</time>
      </trkpt>
      <trkpt lat="45.74169" lon="3.46988">
        <ele>451</ele>
        <time>2017-09-22T07:55:19Z</time>
      </trkpt>
      <trkpt lat="45.74164" lon="3.47">
        <ele>452</ele>
        <time>2017-09-22T07:55:27Z</time>
      </trkpt>
      <trkpt lat="45.74159" lon="3.47012">
        <ele>453</ele>
        <time>2017-09-22T07:55:34Z</time>
      </trkpt>
      <trkpt lat="45.74155" lon="3.47022">
        <ele>453</ele>
        <time>2017-09-22T07:55:40Z</time>
      </trkpt>
      <trkpt lat="45.74152" lon="3.47036">
        <ele>455</ele>
        <time>2017-09-22T07:55:48Z</time>
      </trkpt>
      <trkpt lat="45.74149" lon="3.47051">
        <ele>457</ele>
        <time>2017-09-22T07:55:56Z</time>
      </trkpt>
      <trkpt lat="45.74148" lon="3.47053">
        <ele>457</ele>
        <time>2017-09-22T07:55:57Z</time>
      </trkpt>
      <trkpt lat="45.74147" lon="3.47058">
        <ele>458</ele>
        <time>2017-09-22T07:56:00Z</time>
      </trkpt>
      <trkpt lat="45.74143" lon="3.47074">
        <ele>460</ele>
        <time>2017-09-22T07:56:09Z</time>
      </trkpt>
      <trkpt lat="45.7414" lon="3.47085">
        <ele>461</ele>
        <time>2017-09-22T07:56:16Z</time>
      </trkpt>
      <trkpt lat="45.74137" lon="3.471">
        <ele>463</ele>
        <time>2017-09-22T07:56:24Z</time>
      </trkpt>
      <trkpt lat="45.74133" lon="3.47111">
        <ele>464</ele>
        <time>2017-09-22T07:56:31Z</time>
      </trkpt>
      <trkpt lat="45.74127" lon="3.47121">
        <ele>465</ele>
        <time>2017-09-22T07:56:38Z</time>
      </trkpt>
      <trkpt lat="45.74122" lon="3.47136">
        <ele>467</ele>
        <time>2017-09-22T07:56:48Z</time>
      </trkpt>
      <trkpt lat="45.7412" lon="3.47145">
        <ele>468</ele>
        <time>2017-09-22T07:56:54Z</time>
      </trkpt>
      <trkpt lat="45.74118" lon="3.47168">
        <ele>469</ele>
        <time>2017-09-22T07:57:06Z</time>
      </trkpt>
      <trkpt lat="45.74119" lon="3.47182">
        <ele>469</ele>
        <time>2017-09-22T07:57:13Z</time>
      </trkpt>
      <trkpt lat="45.74122" lon="3.472">
        <ele>471</ele>
        <time>2017-09-22T07:57:22Z</time>
      </trkpt>
      <trkpt lat="45.74125" lon="3.47216">
        <ele>472</ele>
        <time>2017-09-22T07:57:31Z</time>
      </trkpt>
      <trkpt lat="45.74129" lon="3.47233">
        <ele>474</ele>
        <time>2017-09-22T07:57:40Z</time>
      </trkpt>
      <trkpt lat="45.7413" lon="3.47248">
        <ele>475</ele>
        <time>2017-09-22T07:57:49Z</time>
      </trkpt>
      <trkpt lat="45.74128" lon="3.47265">
        <ele>477</ele>
        <time>2017-09-22T07:57:59Z</time>
      </trkpt>
      <trkpt lat="45.74127" lon="3.47281">
        <ele>478</ele>
        <time>2017-09-22T07:58:09Z</time>
      </trkpt>
      <trkpt lat="45.74125" lon="3.47296">
        <ele>480</ele>
        <time>2017-09-22T07:58:18Z</time>
      </trkpt>
      <trkpt lat="45.74124" lon="3.47298">
        <ele>480</ele>
        <time>2017-09-22T07:58:19Z</time>
      </trkpt>
      <trkpt lat="45.74123" lon="3.47305">
        <ele>481</ele>
        <time>2017-09-22T07:58:23Z</time>
      </trkpt>
      <trkpt lat="45.74119" lon="3.47318">
        <ele>482</ele>
        <time>2017-09-22T07:58:31Z</time>
      </trkpt>
      <trkpt lat="45.74118" lon="3.47319">
        <ele>483</ele>
        <time>2017-09-22T07:58:32Z</time>
      </trkpt>
      <trkpt lat="45.74111" lon="3.47327">
        <ele>483</ele>
        <time>2017-09-22T07:58:39Z</time>
      </trkpt>
      <trkpt lat="45.74105" lon="3.47336">
        <ele>485</ele>
        <time>2017-09-22T07:58:46Z</time>
      </trkpt>
      <trkpt lat="45.74098" lon="3.47349">
        <ele>486</ele>
        <time>2017-09-22T07:58:55Z</time>
      </trkpt>
      <trkpt lat="45.74091" lon="3.47363">
        <ele>487</ele>
        <time>2017-09-22T07:59:04Z</time>
      </trkpt>
      <trkpt lat="45.74082" lon="3.47384">
        <ele>489</ele>
        <time>2017-09-22T07:59:17Z</time>
      </trkpt>
      <trkpt lat="45.74077" lon="3.47401">
        <ele>491</ele>
        <time>2017-09-22T07:59:27Z</time>
      </trkpt>
      <trkpt lat="45.74075" lon="3.47422">
        <ele>493</ele>
        <time>2017-09-22T07:59:38Z</time>
      </trkpt>
      <trkpt lat="45.74076" lon="3.47446">
        <ele>494</ele>
        <time>2017-09-22T07:59:50Z</time>
      </trkpt>
      <trkpt lat="45.74075" lon="3.47469">
        <ele>495</ele>
        <time>2017-09-22T08:00:01Z</time>
      </trkpt>
      <trkpt lat="45.74069" lon="3.47491">
        <ele>497</ele>
        <time>2017-09-22T08:00:12Z</time>
      </trkpt>
      <trkpt lat="45.74061" lon="3.47506">
        <ele>498</ele>
        <time>2017-09-22T08:00:22Z</time>
      </trkpt>
      <trkpt lat="45.7405" lon="3.47519">
        <ele>499</ele>
        <time>2017-09-22T08:00:33Z</time>
      </trkpt>
      <trkpt lat="45.74044" lon="3.47526">
        <ele>499</ele>
        <time>2017-09-22T08:00:40Z</time>
      </trkpt>
      <trkpt lat="45.74038" lon="3.47535">
        <ele>499</ele>
        <time>2017-09-22T08:00:47Z</time>
      </trkpt>
      <trkpt lat="45.74035" lon="3.47547">
        <ele>500</ele>
        <time>2017-09-22T08:00:54Z</time>
      </trkpt>
      <trkpt lat="45.74034" lon="3.47564">
        <ele>501</ele>
        <time>2017-09-22T08:01:02Z</time>
      </trkpt>
      <trkpt lat="45.74034" lon="3.47567">
        <ele>501</ele>
        <time>2017-09-22T08:01:03Z</time>
      </trkpt>
      <trkpt lat="45.74037" lon="3.47581">
        <ele>503</ele>
        <time>2017-09-22T08:01:10Z</time>
      </trkpt>
      <trkpt lat="45.74038" lon="3.47596">
        <ele>505</ele>
        <time>2017-09-22T08:01:17Z</time>
      </trkpt>
      <trkpt lat="45.74043" lon="3.47612">
        <ele>507</ele>
        <time>2017-09-22T08:01:26Z</time>
      </trkpt>
      <trkpt lat="45.74048" lon="3.47627">
        <ele>509</ele>
        <time>2017-09-22T08:01:35Z</time>
      </trkpt>
      <trkpt lat="45.74049" lon="3.47647">
        <ele>511</ele>
        <time>2017-09-22T08:01:45Z</time>
      </trkpt>
      <trkpt lat="45.74047" lon="3.4767">
        <ele>514</ele>
        <time>2017-09-22T08:01:57Z</time>
      </trkpt>
      <trkpt lat="45.74044" lon="3.47684">
        <ele>516</ele>
        <time>2017-09-22T08:02:05Z</time>
      </trkpt>
      <trkpt lat="45.74036" lon="3.47703">
        <ele>518</ele>
        <time>2017-09-22T08:02:17Z</time>
      </trkpt>
      <trkpt lat="45.74028" lon="3.47713">
        <ele>519</ele>
        <time>2017-09-22T08:02:25Z</time>
      </trkpt>
      <trkpt lat="45.7402" lon="3.47724">
        <ele>520</ele>
        <time>2017-09-22T08:02:34Z</time>
      </trkpt>
      <trkpt lat="45.7401" lon="3.47739">
        <ele>521</ele>
        <time>2017-09-22T08:02:44Z</time>
      </trkpt>
      <trkpt lat="45.74005" lon="3.47757">
        <ele>523</ele>
        <time>2017-09-22T08:02:53Z</time>
      </trkpt>
      <trkpt lat="45.74003" lon="3.4778">
        <ele>525</ele>
        <time>2017-09-22T08:03:04Z</time>
      </trkpt>
      <trkpt lat="45.74003" lon="3.47801">
        <ele>526</ele>
        <time>2017-09-22T08:03:14Z</time>
      </trkpt>
      <trkpt lat="45.74004" lon="3.4782">
        <ele>527</ele>
        <time>2017-09-22T08:03:23Z</time>
      </trkpt>
      <trkpt lat="45.74004" lon="3.4784">
        <ele>527</ele>
        <time>2017-09-22T08:03:33Z</time>
      </trkpt>
      <trkpt lat="45.74004" lon="3.47866">
        <ele>529</ele>
        <time>2017-09-22T08:03:45Z</time>
      </trkpt>
      <trkpt lat="45.74004" lon="3.47889">
        <ele>530</ele>
        <time>2017-09-22T08:03:56Z</time>
      </trkpt>
      <trkpt lat="45.74004" lon="3.47902">
        <ele>531</ele>
        <time>2017-09-22T08:04:03Z</time>
      </trkpt>
      <trkpt lat="45.74003" lon="3.47904">
        <ele>531</ele>
        <time>2017-09-22T08:04:12Z</time>
      </trkpt>
      <trkpt lat="45.74003" lon="3.47904">
        <ele>531</ele>
        <time>2017-09-22T08:04:19Z</time>
      </trkpt>
      <trkpt lat="45.74001" lon="3.47902">
        <ele>531</ele>
        <time>2017-09-22T08:04:26Z</time>
      </trkpt>
      <trkpt lat="45.74" lon="3.47902">
        <ele>531</ele>
        <time>2017-09-22T08:04:33Z</time>
      </trkpt>
      <trkpt lat="45.74001" lon="3.47902">
        <ele>531</ele>
        <time>2017-09-22T08:04:38Z</time>
      </trkpt>
      <trkpt lat="45.73997" lon="3.47901">
        <ele>530</ele>
        <time>2017-09-22T08:04:44Z</time>
      </trkpt>
      <trkpt lat="45.7399" lon="3.47903">
        <ele>530</ele>
        <time>2017-09-22T08:04:50Z</time>
      </trkpt>
      <trkpt lat="45.7399" lon="3.47902">
        <ele>530</ele>
        <time>2017-09-22T08:04:54Z</time>
      </trkpt>
      <trkpt lat="45.73984" lon="3.47904">
        <ele>530</ele>
        <time>2017-09-22T08:04:59Z</time>
      </trkpt>
      <trkpt lat="45.73969" lon="3.47906">
        <ele>529</ele>
        <time>2017-09-22T08:05:09Z</time>
      </trkpt>
      <trkpt lat="45.73948" lon="3.47912">
        <ele>528</ele>
        <time>2017-09-22T08:05:23Z</time>
      </trkpt>
      <trkpt lat="45.73931" lon="3.47918">
        <ele>527</ele>
        <time>2017-09-22T08:05:34Z</time>
      </trkpt>
      <trkpt lat="45.73914" lon="3.47923">
        <ele>526</ele>
        <time>2017-09-22T08:05:45Z</time>
      </trkpt>
      <trkpt lat="45.73909" lon="3.47924">
        <ele>526</ele>
        <time>2017-09-22T08:05:48Z</time>
      </trkpt>
      <trkpt lat="45.739" lon="3.47926">
        <ele>526</ele>
        <time>2017-09-22T08:05:53Z</time>
      </trkpt>
      <trkpt lat="45.73897" lon="3.47927">
        <ele>526</ele>
        <time>2017-09-22T08:05:55Z</time>
      </trkpt>
      <trkpt lat="45.73863" lon="3.4793">
        <ele>527</ele>
        <time>2017-09-22T08:06:22Z</time>
      </trkpt>
      <trkpt lat="45.73872" lon="3.47933">
        <ele>526</ele>
        <time>2017-09-22T08:06:29Z</time>
      </trkpt>
      <trkpt lat="45.73875" lon="3.47938">
        <ele>527</ele>
        <time>2017-09-22T08:06:35Z</time>
      </trkpt>
      <trkpt lat="45.73872" lon="3.4794">
        <ele>527</ele>
        <time>2017-09-22T08:06:38Z</time>
      </trkpt>
      <trkpt lat="45.7387" lon="3.47942">
        <ele>527</ele>
        <time>2017-09-22T08:06:44Z</time>
      </trkpt>
      <trkpt lat="45.7387" lon="3.47935">
        <ele>527</ele>
        <time>2017-09-22T08:06:48Z</time>
      </trkpt>
      <trkpt lat="45.73869" lon="3.47935">
        <ele>527</ele>
        <time>2017-09-22T08:06:56Z</time>
      </trkpt>
      <trkpt lat="45.73869" lon="3.47935">
        <ele>527</ele>
        <time>2017-09-22T08:07:06Z</time>
      </trkpt>
      <trkpt lat="45.73869" lon="3.47942">
        <ele>527</ele>
        <time>2017-09-22T08:07:13Z</time>
      </trkpt>
      <trkpt lat="45.73868" lon="3.47941">
        <ele>527</ele>
        <time>2017-09-22T08:07:14Z</time>
      </trkpt>
      <trkpt lat="45.73853" lon="3.4794">
        <ele>528</ele>
        <time>2017-09-22T08:07:25Z</time>
      </trkpt>
      <trkpt lat="45.73853" lon="3.47939">
        <ele>528</ele>
        <time>2017-09-22T08:07:29Z</time>
      </trkpt>
      <trkpt lat="45.73851" lon="3.47943">
        <ele>528</ele>
        <time>2017-09-22T08:07:34Z</time>
      </trkpt>
      <trkpt lat="45.73851" lon="3.47962">
        <ele>529</ele>
        <time>2017-09-22T08:07:43Z</time>
      </trkpt>
      <trkpt lat="45.73853" lon="3.47985">
        <ele>531</ele>
        <time>2017-09-22T08:07:54Z</time>
      </trkpt>
      <trkpt lat="45.73855" lon="3.48013">
        <ele>532</ele>
        <time>2017-09-22T08:08:06Z</time>
      </trkpt>
      <trkpt lat="45.73856" lon="3.48035">
        <ele>532</ele>
        <time>2017-09-22T08:08:16Z</time>
      </trkpt>
      <trkpt lat="45.73857" lon="3.48056">
        <ele>532</ele>
        <time>2017-09-22T08:08:25Z</time>
      </trkpt>
      <trkpt lat="45.73855" lon="3.48073">
        <ele>532</ele>
        <time>2017-09-22T08:08:33Z</time>
      </trkpt>
      <trkpt lat="45.7385" lon="3.48081">
        <ele>531</ele>
        <time>2017-09-22T08:08:38Z</time>
      </trkpt>
      <trkpt lat="45.7384" lon="3.4808">
        <ele>531</ele>
        <time>2017-09-22T08:08:45Z</time>
      </trkpt>
      <trkpt lat="45.73831" lon="3.48076">
        <ele>531</ele>
        <time>2017-09-22T08:08:52Z</time>
      </trkpt>
      <trkpt lat="45.73821" lon="3.48073">
        <ele>531</ele>
        <time>2017-09-22T08:08:59Z</time>
      </trkpt>
      <trkpt lat="45.73811" lon="3.48068">
        <ele>531</ele>
        <time>2017-09-22T08:09:07Z</time>
      </trkpt>
      <trkpt lat="45.73802" lon="3.48065">
        <ele>531</ele>
        <time>2017-09-22T08:09:13Z</time>
      </trkpt>
      <trkpt lat="45.73789" lon="3.48059">
        <ele>532</ele>
        <time>2017-09-22T08:09:18Z</time>
      </trkpt>
      <trkpt lat="45.73772" lon="3.48051">
        <ele>533</ele>
        <time>2017-09-22T08:09:24Z</time>
      </trkpt>
      <trkpt lat="45.73754" lon="3.48043">
        <ele>535</ele>
        <time>2017-09-22T08:09:30Z</time>
      </trkpt>
      <trkpt lat="45.73736" lon="3.48035">
        <ele>536</ele>
        <time>2017-09-22T08:09:36Z</time>
      </trkpt>
      <trkpt lat="45.73719" lon="3.48027">
        <ele>537</ele>
        <time>2017-09-22T08:09:42Z</time>
      </trkpt>
      <trkpt lat="45.73701" lon="3.48019">
        <ele>538</ele>
        <time>2017-09-22T08:09:48Z</time>
      </trkpt>
      <trkpt lat="45.73683" lon="3.48011">
        <ele>539</ele>
        <time>2017-09-22T08:09:54Z</time>
      </trkpt>
      <trkpt lat="45.73664" lon="3.48004">
        <ele>541</ele>
        <time>2017-09-22T08:10:00Z</time>
      </trkpt>
      <trkpt lat="45.73647" lon="3.47994">
        <ele>542</ele>
        <time>2017-09-22T08:10:06Z</time>
      </trkpt>
      <trkpt lat="45.7363" lon="3.47983">
        <ele>545</ele>
        <time>2017-09-22T08:10:12Z</time>
      </trkpt>
      <trkpt lat="45.73613" lon="3.47971">
        <ele>548</ele>
        <time>2017-09-22T08:10:18Z</time>
      </trkpt>
      <trkpt lat="45.73595" lon="3.47958">
        <ele>551</ele>
        <time>2017-09-22T08:10:25Z</time>
      </trkpt>
      <trkpt lat="45.73588" lon="3.47955">
        <ele>552</ele>
        <time>2017-09-22T08:10:30Z</time>
      </trkpt>
      <trkpt lat="45.73574" lon="3.47949">
        <ele>554</ele>
        <time>2017-09-22T08:10:40Z</time>
      </trkpt>
      <trkpt lat="45.73562" lon="3.47949">
        <ele>555</ele>
        <time>2017-09-22T08:10:49Z</time>
      </trkpt>
      <trkpt lat="45.73553" lon="3.4795">
        <ele>555</ele>
        <time>2017-09-22T08:10:55Z</time>
      </trkpt>
      <trkpt lat="45.73552" lon="3.4795">
        <ele>555</ele>
        <time>2017-09-22T08:10:56Z</time>
      </trkpt>
      <trkpt lat="45.73547" lon="3.47952">
        <ele>556</ele>
        <time>2017-09-22T08:11:00Z</time>
      </trkpt>
      <trkpt lat="45.73537" lon="3.47956">
        <ele>556</ele>
        <time>2017-09-22T08:11:07Z</time>
      </trkpt>
      <trkpt lat="45.73534" lon="3.47958">
        <ele>556</ele>
        <time>2017-09-22T08:11:09Z</time>
      </trkpt>
      <trkpt lat="45.73523" lon="3.47968">
        <ele>556</ele>
        <time>2017-09-22T08:11:18Z</time>
      </trkpt>
      <trkpt lat="45.73516" lon="3.47972">
        <ele>556</ele>
        <time>2017-09-22T08:11:23Z</time>
      </trkpt>
      <trkpt lat="45.73504" lon="3.47982">
        <ele>557</ele>
        <time>2017-09-22T08:11:32Z</time>
      </trkpt>
      <trkpt lat="45.73495" lon="3.47988">
        <ele>557</ele>
        <time>2017-09-22T08:11:39Z</time>
      </trkpt>
      <trkpt lat="45.73484" lon="3.47997">
        <ele>558</ele>
        <time>2017-09-22T08:11:48Z</time>
      </trkpt>
      <trkpt lat="45.73475" lon="3.48005">
        <ele>558</ele>
        <time>2017-09-22T08:11:55Z</time>
      </trkpt>
      <trkpt lat="45.73465" lon="3.48012">
        <ele>558</ele>
        <time>2017-09-22T08:12:02Z</time>
      </trkpt>
      <trkpt lat="45.73452" lon="3.4802">
        <ele>557</ele>
        <time>2017-09-22T08:12:11Z</time>
      </trkpt>
      <trkpt lat="45.73437" lon="3.48025">
        <ele>556</ele>
        <time>2017-09-22T08:12:21Z</time>
      </trkpt>
      <trkpt lat="45.7342" lon="3.48032">
        <ele>555</ele>
        <time>2017-09-22T08:12:32Z</time>
      </trkpt>
      <trkpt lat="45.73407" lon="3.48036">
        <ele>555</ele>
        <time>2017-09-22T08:12:41Z</time>
      </trkpt>
      <trkpt lat="45.73394" lon="3.48037">
        <ele>556</ele>
        <time>2017-09-22T08:12:49Z</time>
      </trkpt>
      <trkpt lat="45.73385" lon="3.48034">
        <ele>556</ele>
        <time>2017-09-22T08:12:55Z</time>
      </trkpt>
      <trkpt lat="45.73379" lon="3.4803">
        <ele>556</ele>
        <time>2017-09-22T08:12:59Z</time>
      </trkpt>
      <trkpt lat="45.73368" lon="3.48019">
        <ele>556</ele>
        <time>2017-09-22T08:13:08Z</time>
      </trkpt>
      <trkpt lat="45.73364" lon="3.48012">
        <ele>556</ele>
        <time>2017-09-22T08:13:15Z</time>
      </trkpt>
      <trkpt lat="45.7336" lon="3.48006">
        <ele>556</ele>
        <time>2017-09-22T08:13:25Z</time>
      </trkpt>
      <trkpt lat="45.73353" lon="3.47991">
        <ele>556</ele>
        <time>2017-09-22T08:13:33Z</time>
      </trkpt>
      <trkpt lat="45.73349" lon="3.47982">
        <ele>556</ele>
        <time>2017-09-22T08:13:38Z</time>
      </trkpt>
      <trkpt lat="45.73344" lon="3.47984">
        <ele>555</ele>
        <time>2017-09-22T08:13:43Z</time>
      </trkpt>
      <trkpt lat="45.73344" lon="3.47993">
        <ele>555</ele>
        <time>2017-09-22T08:13:47Z</time>
      </trkpt>
      <trkpt lat="45.73349" lon="3.48013">
        <ele>554</ele>
        <time>2017-09-22T08:13:56Z</time>
      </trkpt>
      <trkpt lat="45.73356" lon="3.48035">
        <ele>552</ele>
        <time>2017-09-22T08:14:07Z</time>
      </trkpt>
      <trkpt lat="45.73374" lon="3.48066">
        <ele>551</ele>
        <time>2017-09-22T08:14:25Z</time>
      </trkpt>
      <trkpt lat="45.73385" lon="3.48081">
        <ele>551</ele>
        <time>2017-09-22T08:14:34Z</time>
      </trkpt>
      <trkpt lat="45.73398" lon="3.48098">
        <ele>548</ele>
        <time>2017-09-22T08:14:45Z</time>
      </trkpt>
      <trkpt lat="45.73409" lon="3.48112">
        <ele>545</ele>
        <time>2017-09-22T08:14:54Z</time>
      </trkpt>
      <trkpt lat="45.73421" lon="3.48121">
        <ele>542</ele>
        <time>2017-09-22T08:15:03Z</time>
      </trkpt>
      <trkpt lat="45.73424" lon="3.48123">
        <ele>542</ele>
        <time>2017-09-22T08:15:10Z</time>
      </trkpt>
      <trkpt lat="45.73426" lon="3.48124">
        <ele>541</ele>
        <time>2017-09-22T08:15:42Z</time>
      </trkpt>
      <trkpt lat="45.73425" lon="3.48131">
        <ele>540</ele>
        <time>2017-09-22T08:15:56Z</time>
      </trkpt>
      <trkpt lat="45.73418" lon="3.48149">
        <ele>538</ele>
        <time>2017-09-22T08:16:06Z</time>
      </trkpt>
      <trkpt lat="45.73412" lon="3.48174">
        <ele>536</ele>
        <time>2017-09-22T08:16:18Z</time>
      </trkpt>
      <trkpt lat="45.73407" lon="3.48196">
        <ele>535</ele>
        <time>2017-09-22T08:16:28Z</time>
      </trkpt>
      <trkpt lat="45.73401" lon="3.48221">
        <ele>534</ele>
        <time>2017-09-22T08:16:40Z</time>
      </trkpt>
      <trkpt lat="45.73397" lon="3.4824">
        <ele>533</ele>
        <time>2017-09-22T08:16:50Z</time>
      </trkpt>
      <trkpt lat="45.73397" lon="3.4824">
        <ele>533</ele>
        <time>2017-09-22T08:16:58Z</time>
      </trkpt>
      <trkpt lat="45.73396" lon="3.48242">
        <ele>533</ele>
        <time>2017-09-22T08:17:00Z</time>
      </trkpt>
      <trkpt lat="45.73396" lon="3.48244">
        <ele>532</ele>
        <time>2017-09-22T08:17:06Z</time>
      </trkpt>
      <trkpt lat="45.73396" lon="3.48243">
        <ele>533</ele>
        <time>2017-09-22T08:17:13Z</time>
      </trkpt>
      <trkpt lat="45.73396" lon="3.48245">
        <ele>532</ele>
        <time>2017-09-22T08:17:24Z</time>
      </trkpt>
      <trkpt lat="45.73395" lon="3.48248">
        <ele>532</ele>
        <time>2017-09-22T08:17:31Z</time>
      </trkpt>
      <trkpt lat="45.73396" lon="3.48248">
        <ele>532</ele>
        <time>2017-09-22T08:17:43Z</time>
      </trkpt>
      <trkpt lat="45.73396" lon="3.48247">
        <ele>532</ele>
        <time>2017-09-22T08:17:57Z</time>
      </trkpt>
      <trkpt lat="45.73396" lon="3.48246">
        <ele>532</ele>
        <time>2017-09-22T08:18:07Z</time>
      </trkpt>
      <trkpt lat="45.73394" lon="3.48248">
        <ele>532</ele>
        <time>2017-09-22T08:18:35Z</time>
      </trkpt>
      <trkpt lat="45.73395" lon="3.4825">
        <ele>532</ele>
        <time>2017-09-22T08:18:46Z</time>
      </trkpt>
      <trkpt lat="45.73395" lon="3.48248">
        <ele>532</ele>
        <time>2017-09-22T08:19:46Z</time>
      </trkpt>
      <trkpt lat="45.73394" lon="3.48253">
        <ele>532</ele>
        <time>2017-09-22T08:19:54Z</time>
      </trkpt>
      <trkpt lat="45.73392" lon="3.48265">
        <ele>531</ele>
        <time>2017-09-22T08:20:00Z</time>
      </trkpt>
      <trkpt lat="45.73387" lon="3.48281">
        <ele>530</ele>
        <time>2017-09-22T08:20:08Z</time>
      </trkpt>
      <trkpt lat="45.73386" lon="3.48289">
        <ele>530</ele>
        <time>2017-09-22T08:20:12Z</time>
      </trkpt>
      <trkpt lat="45.73379" lon="3.48313">
        <ele>527</ele>
        <time>2017-09-22T08:20:24Z</time>
      </trkpt>
      <trkpt lat="45.73374" lon="3.48332">
        <ele>525</ele>
        <time>2017-09-22T08:20:34Z</time>
      </trkpt>
      <trkpt lat="45.73369" lon="3.48345">
        <ele>524</ele>
        <time>2017-09-22T08:20:42Z</time>
      </trkpt>
      <trkpt lat="45.73365" lon="3.4836">
        <ele>522</ele>
        <time>2017-09-22T08:20:51Z</time>
      </trkpt>
      <trkpt lat="45.73362" lon="3.48371">
        <ele>520</ele>
        <time>2017-09-22T08:20:57Z</time>
      </trkpt>
      <trkpt lat="45.73351" lon="3.48404">
        <ele>515</ele>
        <time>2017-09-22T08:21:15Z</time>
      </trkpt>
      <trkpt lat="45.73345" lon="3.48422">
        <ele>513</ele>
        <time>2017-09-22T08:21:25Z</time>
      </trkpt>
      <trkpt lat="45.73338" lon="3.48436">
        <ele>512</ele>
        <time>2017-09-22T08:21:33Z</time>
      </trkpt>
      <trkpt lat="45.7333" lon="3.48448">
        <ele>509</ele>
        <time>2017-09-22T08:21:41Z</time>
      </trkpt>
      <trkpt lat="45.73322" lon="3.4846">
        <ele>507</ele>
        <time>2017-09-22T08:21:49Z</time>
      </trkpt>
      <trkpt lat="45.73313" lon="3.48474">
        <ele>505</ele>
        <time>2017-09-22T08:21:58Z</time>
      </trkpt>
      <trkpt lat="45.73305" lon="3.48487">
        <ele>503</ele>
        <time>2017-09-22T08:22:06Z</time>
      </trkpt>
      <trkpt lat="45.73296" lon="3.485">
        <ele>501</ele>
        <time>2017-09-22T08:22:15Z</time>
      </trkpt>
      <trkpt lat="45.73285" lon="3.48516">
        <ele>499</ele>
        <time>2017-09-22T08:22:26Z</time>
      </trkpt>
      <trkpt lat="45.73276" lon="3.48526">
        <ele>497</ele>
        <time>2017-09-22T08:22:34Z</time>
      </trkpt>
      <trkpt lat="45.73267" lon="3.48535">
        <ele>495</ele>
        <time>2017-09-22T08:22:42Z</time>
      </trkpt>
      <trkpt lat="45.73264" lon="3.4854">
        <ele>494</ele>
        <time>2017-09-22T08:22:46Z</time>
      </trkpt>
      <trkpt lat="45.73267" lon="3.48546">
        <ele>493</ele>
        <time>2017-09-22T08:22:51Z</time>
      </trkpt>
      <trkpt lat="45.73272" lon="3.48545">
        <ele>493</ele>
        <time>2017-09-22T08:22:57Z</time>
      </trkpt>
      <trkpt lat="45.73272" lon="3.48546">
        <ele>493</ele>
        <time>2017-09-22T08:23:04Z</time>
      </trkpt>
      <trkpt lat="45.73286" lon="3.48549">
        <ele>493</ele>
        <time>2017-09-22T08:23:13Z</time>
      </trkpt>
      <trkpt lat="45.73304" lon="3.48551">
        <ele>492</ele>
        <time>2017-09-22T08:23:24Z</time>
      </trkpt>
      <trkpt lat="45.73313" lon="3.48552">
        <ele>492</ele>
        <time>2017-09-22T08:23:30Z</time>
      </trkpt>
      <trkpt lat="45.73324" lon="3.48552">
        <ele>491</ele>
        <time>2017-09-22T08:23:37Z</time>
      </trkpt>
      <trkpt lat="45.73336" lon="3.48549">
        <ele>492</ele>
        <time>2017-09-22T08:23:45Z</time>
      </trkpt>
      <trkpt lat="45.73351" lon="3.4854">
        <ele>493</ele>
        <time>2017-09-22T08:23:55Z</time>
      </trkpt>
      <trkpt lat="45.73362" lon="3.48536">
        <ele>493</ele>
        <time>2017-09-22T08:24:02Z</time>
      </trkpt>
      <trkpt lat="45.73373" lon="3.48532">
        <ele>494</ele>
        <time>2017-09-22T08:24:10Z</time>
      </trkpt>
      <trkpt lat="45.73383" lon="3.48532">
        <ele>494</ele>
        <time>2017-09-22T08:24:16Z</time>
      </trkpt>
      <trkpt lat="45.73396" lon="3.48533">
        <ele>494</ele>
        <time>2017-09-22T08:24:24Z</time>
      </trkpt>
      <trkpt lat="45.73414" lon="3.48536">
        <ele>494</ele>
        <time>2017-09-22T08:24:34Z</time>
      </trkpt>
      <trkpt lat="45.73428" lon="3.48541">
        <ele>493</ele>
        <time>2017-09-22T08:24:42Z</time>
      </trkpt>
      <trkpt lat="45.7344" lon="3.48547">
        <ele>492</ele>
        <time>2017-09-22T08:24:49Z</time>
      </trkpt>
      <trkpt lat="45.73456" lon="3.48556">
        <ele>491</ele>
        <time>2017-09-22T08:24:59Z</time>
      </trkpt>
      <trkpt lat="45.73472" lon="3.48564">
        <ele>490</ele>
        <time>2017-09-22T08:25:09Z</time>
      </trkpt>
      <trkpt lat="45.7348" lon="3.48569">
        <ele>490</ele>
        <time>2017-09-22T08:25:15Z</time>
      </trkpt>
      <trkpt lat="45.73484" lon="3.48573">
        <ele>490</ele>
        <time>2017-09-22T08:25:19Z</time>
      </trkpt>
      <trkpt lat="45.73486" lon="3.48575">
        <ele>490</ele>
        <time>2017-09-22T08:25:27Z</time>
      </trkpt>
      <trkpt lat="45.73482" lon="3.48579">
        <ele>490</ele>
        <time>2017-09-22T08:25:58Z</time>
      </trkpt>
      <trkpt lat="45.73474" lon="3.48582">
        <ele>489</ele>
        <time>2017-09-22T08:26:04Z</time>
      </trkpt>
      <trkpt lat="45.73463" lon="3.48588">
        <ele>488</ele>
        <time>2017-09-22T08:26:11Z</time>
      </trkpt>
      <trkpt lat="45.73446" lon="3.48595">
        <ele>486</ele>
        <time>2017-09-22T08:26:22Z</time>
      </trkpt>
      <trkpt lat="45.73432" lon="3.48605">
        <ele>484</ele>
        <time>2017-09-22T08:26:32Z</time>
      </trkpt>
      <trkpt lat="45.73419" lon="3.48615">
        <ele>484</ele>
        <time>2017-09-22T08:26:41Z</time>
      </trkpt>
      <trkpt lat="45.73405" lon="3.48626">
        <ele>484</ele>
        <time>2017-09-22T08:26:51Z</time>
      </trkpt>
      <trkpt lat="45.73396" lon="3.48638">
        <ele>483</ele>
        <time>2017-09-22T08:27:00Z</time>
      </trkpt>
      <trkpt lat="45.73387" lon="3.48658">
        <ele>483</ele>
        <time>2017-09-22T08:27:11Z</time>
      </trkpt>
      <trkpt lat="45.73373" lon="3.48719">
        <ele>484</ele>
        <time>2017-09-22T08:27:41Z</time>
      </trkpt>
      <trkpt lat="45.73378" lon="3.4873">
        <ele>485</ele>
        <time>2017-09-22T08:27:46Z</time>
      </trkpt>
      <trkpt lat="45.73385" lon="3.48742">
        <ele>487</ele>
        <time>2017-09-22T08:27:53Z</time>
      </trkpt>
      <trkpt lat="45.73393" lon="3.48757">
        <ele>489</ele>
        <time>2017-09-22T08:28:03Z</time>
      </trkpt>
      <trkpt lat="45.73402" lon="3.48769">
        <ele>491</ele>
        <time>2017-09-22T08:28:13Z</time>
      </trkpt>
      <trkpt lat="45.73413" lon="3.4878">
        <ele>493</ele>
        <time>2017-09-22T08:28:23Z</time>
      </trkpt>
      <trkpt lat="45.73424" lon="3.4879">
        <ele>495</ele>
        <time>2017-09-22T08:28:33Z</time>
      </trkpt>
      <trkpt lat="45.73431" lon="3.48803">
        <ele>497</ele>
        <time>2017-09-22T08:28:41Z</time>
      </trkpt>
      <trkpt lat="45.73435" lon="3.48814">
        <ele>498</ele>
        <time>2017-09-22T08:28:47Z</time>
      </trkpt>
      <trkpt lat="45.73441" lon="3.48832">
        <ele>499</ele>
        <time>2017-09-22T08:28:57Z</time>
      </trkpt>
      <trkpt lat="45.73447" lon="3.48849">
        <ele>501</ele>
        <time>2017-09-22T08:29:07Z</time>
      </trkpt>
      <trkpt lat="45.73454" lon="3.48867">
        <ele>503</ele>
        <time>2017-09-22T08:29:18Z</time>
      </trkpt>
      <trkpt lat="45.73459" lon="3.48885">
        <ele>504</ele>
        <time>2017-09-22T08:29:28Z</time>
      </trkpt>
      <trkpt lat="45.73467" lon="3.48909">
        <ele>506</ele>
        <time>2017-09-22T08:29:41Z</time>
      </trkpt>
      <trkpt lat="45.73469" lon="3.48915">
        <ele>507</ele>
        <time>2017-09-22T08:29:44Z</time>
      </trkpt>
      <trkpt lat="45.73472" lon="3.48926">
        <ele>507</ele>
        <time>2017-09-22T08:29:50Z</time>
      </trkpt>
      <trkpt lat="45.73474" lon="3.4893">
        <ele>508</ele>
        <time>2017-09-22T08:29:53Z</time>
      </trkpt>
      <trkpt lat="45.73476" lon="3.4893">
        <ele>508</ele>
        <time>2017-09-22T08:30:01Z</time>
      </trkpt>
      <trkpt lat="45.73477" lon="3.4893">
        <ele>508</ele>
        <time>2017-09-22T08:30:12Z</time>
      </trkpt>
      <trkpt lat="45.73477" lon="3.48934">
        <ele>508</ele>
        <time>2017-09-22T08:30:17Z</time>
      </trkpt>
      <trkpt lat="45.73448" lon="3.48961">
        <ele>505</ele>
        <time>2017-09-22T08:30:41Z</time>
      </trkpt>
      <trkpt lat="45.73448" lon="3.48975">
        <ele>504</ele>
        <time>2017-09-22T08:30:48Z</time>
      </trkpt>
      <trkpt lat="45.73455" lon="3.48996">
        <ele>504</ele>
        <time>2017-09-22T08:30:59Z</time>
      </trkpt>
      <trkpt lat="45.7346" lon="3.49017">
        <ele>505</ele>
        <time>2017-09-22T08:31:09Z</time>
      </trkpt>
      <trkpt lat="45.73463" lon="3.49034">
        <ele>505</ele>
        <time>2017-09-22T08:31:17Z</time>
      </trkpt>
      <trkpt lat="45.73465" lon="3.49053">
        <ele>505</ele>
        <time>2017-09-22T08:31:26Z</time>
      </trkpt>
      <trkpt lat="45.73465" lon="3.49076">
        <ele>505</ele>
        <time>2017-09-22T08:31:36Z</time>
      </trkpt>
      <trkpt lat="45.73464" lon="3.49093">
        <ele>505</ele>
        <time>2017-09-22T08:31:44Z</time>
      </trkpt>
      <trkpt lat="45.73465" lon="3.49114">
        <ele>504</ele>
        <time>2017-09-22T08:31:53Z</time>
      </trkpt>
      <trkpt lat="45.73467" lon="3.49133">
        <ele>504</ele>
        <time>2017-09-22T08:32:02Z</time>
      </trkpt>
      <trkpt lat="45.73482" lon="3.49149">
        <ele>504</ele>
        <time>2017-09-22T08:32:14Z</time>
      </trkpt>
      <trkpt lat="45.73496" lon="3.49155">
        <ele>504</ele>
        <time>2017-09-22T08:32:23Z</time>
      </trkpt>
      <trkpt lat="45.73511" lon="3.49161">
        <ele>504</ele>
        <time>2017-09-22T08:32:33Z</time>
      </trkpt>
      <trkpt lat="45.73526" lon="3.49168">
        <ele>504</ele>
        <time>2017-09-22T08:32:43Z</time>
      </trkpt>
      <trkpt lat="45.73541" lon="3.49175">
        <ele>505</ele>
        <time>2017-09-22T08:32:53Z</time>
      </trkpt>
      <trkpt lat="45.73551" lon="3.49182">
        <ele>505</ele>
        <time>2017-09-22T08:33:00Z</time>
      </trkpt>
      <trkpt lat="45.73562" lon="3.49188">
        <ele>505</ele>
        <time>2017-09-22T08:33:08Z</time>
      </trkpt>
      <trkpt lat="45.7357" lon="3.49192">
        <ele>506</ele>
        <time>2017-09-22T08:33:13Z</time>
      </trkpt>
      <trkpt lat="45.73585" lon="3.492">
        <ele>507</ele>
        <time>2017-09-22T08:33:23Z</time>
      </trkpt>
      <trkpt lat="45.73592" lon="3.49211">
        <ele>507</ele>
        <time>2017-09-22T08:33:30Z</time>
      </trkpt>
      <trkpt lat="45.73593" lon="3.4922">
        <ele>507</ele>
        <time>2017-09-22T08:33:35Z</time>
      </trkpt>
      <trkpt lat="45.73588" lon="3.49237">
        <ele>505</ele>
        <time>2017-09-22T08:33:44Z</time>
      </trkpt>
      <trkpt lat="45.73581" lon="3.49245">
        <ele>504</ele>
        <time>2017-09-22T08:33:50Z</time>
      </trkpt>
      <trkpt lat="45.73572" lon="3.49256">
        <ele>502</ele>
        <time>2017-09-22T08:33:58Z</time>
      </trkpt>
      <trkpt lat="45.73553" lon="3.49283">
        <ele>499</ele>
        <time>2017-09-22T08:34:15Z</time>
      </trkpt>
      <trkpt lat="45.73541" lon="3.49302">
        <ele>498</ele>
        <time>2017-09-22T08:34:26Z</time>
      </trkpt>
      <trkpt lat="45.73535" lon="3.49315">
        <ele>498</ele>
        <time>2017-09-22T08:34:33Z</time>
      </trkpt>
      <trkpt lat="45.73532" lon="3.49328">
        <ele>498</ele>
        <time>2017-09-22T08:34:40Z</time>
      </trkpt>
      <trkpt lat="45.73527" lon="3.49347">
        <ele>496</ele>
        <time>2017-09-22T08:34:49Z</time>
      </trkpt>
      <trkpt lat="45.7352" lon="3.49366">
        <ele>495</ele>
        <time>2017-09-22T08:34:58Z</time>
      </trkpt>
      <trkpt lat="45.73515" lon="3.49379">
        <ele>494</ele>
        <time>2017-09-22T08:35:06Z</time>
      </trkpt>
      <trkpt lat="45.73503" lon="3.49413">
        <ele>493</ele>
        <time>2017-09-22T08:35:24Z</time>
      </trkpt>
      <trkpt lat="45.73492" lon="3.4943">
        <ele>492</ele>
        <time>2017-09-22T08:35:34Z</time>
      </trkpt>
      <trkpt lat="45.73487" lon="3.4944">
        <ele>491</ele>
        <time>2017-09-22T08:35:40Z</time>
      </trkpt>
      <trkpt lat="45.73477" lon="3.49454">
        <ele>489</ele>
        <time>2017-09-22T08:35:48Z</time>
      </trkpt>
      <trkpt lat="45.73469" lon="3.49473">
        <ele>487</ele>
        <time>2017-09-22T08:35:57Z</time>
      </trkpt>
      <trkpt lat="45.73467" lon="3.49491">
        <ele>486</ele>
        <time>2017-09-22T08:36:05Z</time>
      </trkpt>
      <trkpt lat="45.73472" lon="3.49506">
        <ele>485</ele>
        <time>2017-09-22T08:36:12Z</time>
      </trkpt>
      <trkpt lat="45.73477" lon="3.49523">
        <ele>484</ele>
        <time>2017-09-22T08:36:20Z</time>
      </trkpt>
      <trkpt lat="45.73483" lon="3.49541">
        <ele>483</ele>
        <time>2017-09-22T08:36:28Z</time>
      </trkpt>
      <trkpt lat="45.73488" lon="3.49551">
        <ele>482</ele>
        <time>2017-09-22T08:36:34Z</time>
      </trkpt>
      <trkpt lat="45.7349" lon="3.49554">
        <ele>481</ele>
        <time>2017-09-22T08:36:36Z</time>
      </trkpt>
      <trkpt lat="45.73499" lon="3.49559">
        <ele>481</ele>
        <time>2017-09-22T08:36:42Z</time>
      </trkpt>
      <trkpt lat="45.73501" lon="3.4956">
        <ele>481</ele>
        <time>2017-09-22T08:36:44Z</time>
      </trkpt>
      <trkpt lat="45.7351" lon="3.49565">
        <ele>481</ele>
        <time>2017-09-22T08:36:51Z</time>
      </trkpt>
      <trkpt lat="45.73518" lon="3.4957">
        <ele>481</ele>
        <time>2017-09-22T08:36:57Z</time>
      </trkpt>
      <trkpt lat="45.73524" lon="3.49574">
        <ele>481</ele>
        <time>2017-09-22T08:37:02Z</time>
      </trkpt>
      <trkpt lat="45.7354" lon="3.49586">
        <ele>480</ele>
        <time>2017-09-22T08:37:14Z</time>
      </trkpt>
      <trkpt lat="45.73551" lon="3.496">
        <ele>479</ele>
        <time>2017-09-22T08:37:22Z</time>
      </trkpt>
      <trkpt lat="45.73556" lon="3.49618">
        <ele>479</ele>
        <time>2017-09-22T08:37:27Z</time>
      </trkpt>
      <trkpt lat="45.73559" lon="3.49647">
        <ele>478</ele>
        <time>2017-09-22T08:37:33Z</time>
      </trkpt>
      <trkpt lat="45.73562" lon="3.49671">
        <ele>478</ele>
        <time>2017-09-22T08:37:39Z</time>
      </trkpt>
      <trkpt lat="45.73563" lon="3.49676">
        <ele>478</ele>
        <time>2017-09-22T08:37:44Z</time>
      </trkpt>
      <trkpt lat="45.73564" lon="3.49685">
        <ele>477</ele>
        <time>2017-09-22T08:38:04Z</time>
      </trkpt>
      <trkpt lat="45.73561" lon="3.49704">
        <ele>476</ele>
        <time>2017-09-22T08:38:13Z</time>
      </trkpt>
      <trkpt lat="45.73557" lon="3.49728">
        <ele>474</ele>
        <time>2017-09-22T08:38:24Z</time>
      </trkpt>
      <trkpt lat="45.73554" lon="3.49749">
        <ele>473</ele>
        <time>2017-09-22T08:38:33Z</time>
      </trkpt>
      <trkpt lat="45.73551" lon="3.49774">
        <ele>471</ele>
        <time>2017-09-22T08:38:44Z</time>
      </trkpt>
      <trkpt lat="45.73549" lon="3.49791">
        <ele>469</ele>
        <time>2017-09-22T08:38:51Z</time>
      </trkpt>
      <trkpt lat="45.73551" lon="3.498">
        <ele>468</ele>
        <time>2017-09-22T08:38:55Z</time>
      </trkpt>
      <trkpt lat="45.73555" lon="3.49813">
        <ele>466</ele>
        <time>2017-09-22T08:39:02Z</time>
      </trkpt>
      <trkpt lat="45.73556" lon="3.49814">
        <ele>466</ele>
        <time>2017-09-22T08:39:04Z</time>
      </trkpt>
      <trkpt lat="45.73563" lon="3.4982">
        <ele>465</ele>
        <time>2017-09-22T08:39:10Z</time>
      </trkpt>
      <trkpt lat="45.73574" lon="3.49831">
        <ele>464</ele>
        <time>2017-09-22T08:39:18Z</time>
      </trkpt>
      <trkpt lat="45.73587" lon="3.49842">
        <ele>463</ele>
        <time>2017-09-22T08:39:27Z</time>
      </trkpt>
      <trkpt lat="45.73599" lon="3.49854">
        <ele>462</ele>
        <time>2017-09-22T08:39:35Z</time>
      </trkpt>
      <trkpt lat="45.7361" lon="3.49864">
        <ele>461</ele>
        <time>2017-09-22T08:39:41Z</time>
      </trkpt>
      <trkpt lat="45.73614" lon="3.49867">
        <ele>461</ele>
        <time>2017-09-22T08:39:43Z</time>
      </trkpt>
      <trkpt lat="45.73623" lon="3.49874">
        <ele>460</ele>
        <time>2017-09-22T08:39:46Z</time>
      </trkpt>
      <trkpt lat="45.73637" lon="3.49885">
        <ele>459</ele>
        <time>2017-09-22T08:39:51Z</time>
      </trkpt>
      <trkpt lat="45.73651" lon="3.49899">
        <ele>458</ele>
        <time>2017-09-22T08:39:57Z</time>
      </trkpt>
      <trkpt lat="45.73664" lon="3.49917">
        <ele>456</ele>
        <time>2017-09-22T08:40:03Z</time>
      </trkpt>
      <trkpt lat="45.7367" lon="3.49935">
        <ele>454</ele>
        <time>2017-09-22T08:40:09Z</time>
      </trkpt>
      <trkpt lat="45.73678" lon="3.49954">
        <ele>452</ele>
        <time>2017-09-22T08:40:16Z</time>
      </trkpt>
      <trkpt lat="45.73699" lon="3.49968">
        <ele>451</ele>
        <time>2017-09-22T08:40:31Z</time>
      </trkpt>
      <trkpt lat="45.73709" lon="3.49968">
        <ele>452</ele>
        <time>2017-09-22T08:40:37Z</time>
      </trkpt>
      <trkpt lat="45.73721" lon="3.4997">
        <ele>452</ele>
        <time>2017-09-22T08:40:44Z</time>
      </trkpt>
      <trkpt lat="45.73732" lon="3.49981">
        <ele>452</ele>
        <time>2017-09-22T08:40:52Z</time>
      </trkpt>
      <trkpt lat="45.73735" lon="3.50003">
        <ele>451</ele>
        <time>2017-09-22T08:41:01Z</time>
      </trkpt>
      <trkpt lat="45.73736" lon="3.50022">
        <ele>450</ele>
        <time>2017-09-22T08:41:10Z</time>
      </trkpt>
      <trkpt lat="45.73736" lon="3.50029">
        <ele>449</ele>
        <time>2017-09-22T08:41:16Z</time>
      </trkpt>
      <trkpt lat="45.73737" lon="3.50037">
        <ele>449</ele>
        <time>2017-09-22T08:41:27Z</time>
      </trkpt>
      <trkpt lat="45.7374" lon="3.50057">
        <ele>449</ele>
        <time>2017-09-22T08:41:36Z</time>
      </trkpt>
      <trkpt lat="45.73743" lon="3.50072">
        <ele>449</ele>
        <time>2017-09-22T08:41:43Z</time>
      </trkpt>
      <trkpt lat="45.73748" lon="3.50093">
        <ele>449</ele>
        <time>2017-09-22T08:41:53Z</time>
      </trkpt>
      <trkpt lat="45.73753" lon="3.5011">
        <ele>449</ele>
        <time>2017-09-22T08:42:02Z</time>
      </trkpt>
      <trkpt lat="45.73757" lon="3.50124">
        <ele>449</ele>
        <time>2017-09-22T08:42:09Z</time>
      </trkpt>
      <trkpt lat="45.73761" lon="3.50145">
        <ele>448</ele>
        <time>2017-09-22T08:42:19Z</time>
      </trkpt>
      <trkpt lat="45.73763" lon="3.50171">
        <ele>448</ele>
        <time>2017-09-22T08:42:30Z</time>
      </trkpt>
      <trkpt lat="45.73763" lon="3.5019">
        <ele>447</ele>
        <time>2017-09-22T08:42:38Z</time>
      </trkpt>
      <trkpt lat="45.73765" lon="3.502">
        <ele>447</ele>
        <time>2017-09-22T08:42:43Z</time>
      </trkpt>
      <trkpt lat="45.73766" lon="3.50202">
        <ele>447</ele>
        <time>2017-09-22T08:42:44Z</time>
      </trkpt>
      <trkpt lat="45.73761" lon="3.50212">
        <ele>446</ele>
        <time>2017-09-22T08:42:50Z</time>
      </trkpt>
      <trkpt lat="45.73758" lon="3.50217">
        <ele>446</ele>
        <time>2017-09-22T08:42:56Z</time>
      </trkpt>
      <trkpt lat="45.73754" lon="3.50223">
        <ele>445</ele>
        <time>2017-09-22T08:43:26Z</time>
      </trkpt>
      <trkpt lat="45.73742" lon="3.50232">
        <ele>445</ele>
        <time>2017-09-22T08:43:35Z</time>
      </trkpt>
      <trkpt lat="45.73731" lon="3.50235">
        <ele>445</ele>
        <time>2017-09-22T08:43:43Z</time>
      </trkpt>
      <trkpt lat="45.73719" lon="3.50233">
        <ele>444</ele>
        <time>2017-09-22T08:43:51Z</time>
      </trkpt>
      <trkpt lat="45.73708" lon="3.5023">
        <ele>444</ele>
        <time>2017-09-22T08:43:59Z</time>
      </trkpt>
      <trkpt lat="45.73698" lon="3.50226">
        <ele>443</ele>
        <time>2017-09-22T08:44:06Z</time>
      </trkpt>
      <trkpt lat="45.73677" lon="3.5022">
        <ele>442</ele>
        <time>2017-09-22T08:44:20Z</time>
      </trkpt>
      <trkpt lat="45.73661" lon="3.50213">
        <ele>442</ele>
        <time>2017-09-22T08:44:31Z</time>
      </trkpt>
      <trkpt lat="45.73643" lon="3.5021">
        <ele>442</ele>
        <time>2017-09-22T08:44:43Z</time>
      </trkpt>
      <trkpt lat="45.73632" lon="3.5021">
        <ele>442</ele>
        <time>2017-09-22T08:44:50Z</time>
      </trkpt>
      <trkpt lat="45.73622" lon="3.50211">
        <ele>443</ele>
        <time>2017-09-22T08:44:57Z</time>
      </trkpt>
      <trkpt lat="45.73579" lon="3.50231">
        <ele>445</ele>
        <time>2017-09-22T08:45:27Z</time>
      </trkpt>
      <trkpt lat="45.7356" lon="3.50241">
        <ele>446</ele>
        <time>2017-09-22T08:45:40Z</time>
      </trkpt>
      <trkpt lat="45.73545" lon="3.50249">
        <ele>446</ele>
        <time>2017-09-22T08:45:51Z</time>
      </trkpt>
      <trkpt lat="45.73531" lon="3.50261">
        <ele>447</ele>
        <time>2017-09-22T08:46:02Z</time>
      </trkpt>
      <trkpt lat="45.73519" lon="3.5028">
        <ele>447</ele>
        <time>2017-09-22T08:46:14Z</time>
      </trkpt>
      <trkpt lat="45.73511" lon="3.50297">
        <ele>447</ele>
        <time>2017-09-22T08:46:23Z</time>
      </trkpt>
      <trkpt lat="45.73503" lon="3.50313">
        <ele>447</ele>
        <time>2017-09-22T08:46:32Z</time>
      </trkpt>
      <trkpt lat="45.73497" lon="3.50332">
        <ele>448</ele>
        <time>2017-09-22T08:46:41Z</time>
      </trkpt>
      <trkpt lat="45.73498" lon="3.50338">
        <ele>448</ele>
        <time>2017-09-22T08:46:47Z</time>
      </trkpt>
      <trkpt lat="45.73501" lon="3.50342">
        <ele>448</ele>
        <time>2017-09-22T08:46:52Z</time>
      </trkpt>
      <trkpt lat="45.73507" lon="3.50357">
        <ele>449</ele>
        <time>2017-09-22T08:47:00Z</time>
      </trkpt>
      <trkpt lat="45.73515" lon="3.50367">
        <ele>449</ele>
        <time>2017-09-22T08:47:07Z</time>
      </trkpt>
      <trkpt lat="45.73537" lon="3.50393">
        <ele>450</ele>
        <time>2017-09-22T08:47:25Z</time>
      </trkpt>
      <trkpt lat="45.73548" lon="3.50405">
        <ele>451</ele>
        <time>2017-09-22T08:47:34Z</time>
      </trkpt>
      <trkpt lat="45.73561" lon="3.50419">
        <ele>451</ele>
        <time>2017-09-22T08:47:44Z</time>
      </trkpt>
      <trkpt lat="45.73571" lon="3.5043">
        <ele>452</ele>
        <time>2017-09-22T08:47:52Z</time>
      </trkpt>
      <trkpt lat="45.73585" lon="3.50446">
        <ele>453</ele>
        <time>2017-09-22T08:48:03Z</time>
      </trkpt>
      <trkpt lat="45.73595" lon="3.50458">
        <ele>453</ele>
        <time>2017-09-22T08:48:11Z</time>
      </trkpt>
      <trkpt lat="45.73607" lon="3.50473">
        <ele>454</ele>
        <time>2017-09-22T08:48:21Z</time>
      </trkpt>
      <trkpt lat="45.73617" lon="3.50491">
        <ele>455</ele>
        <time>2017-09-22T08:48:31Z</time>
      </trkpt>
      <trkpt lat="45.73628" lon="3.50512">
        <ele>455</ele>
        <time>2017-09-22T08:48:42Z</time>
      </trkpt>
      <trkpt lat="45.73638" lon="3.5053">
        <ele>456</ele>
        <time>2017-09-22T08:48:52Z</time>
      </trkpt>
      <trkpt lat="45.73646" lon="3.50544">
        <ele>456</ele>
        <time>2017-09-22T08:49:00Z</time>
      </trkpt>
      <trkpt lat="45.73664" lon="3.50571">
        <ele>457</ele>
        <time>2017-09-22T08:49:17Z</time>
      </trkpt>
      <trkpt lat="45.73673" lon="3.50584">
        <ele>457</ele>
        <time>2017-09-22T08:49:25Z</time>
      </trkpt>
      <trkpt lat="45.73683" lon="3.50602">
        <ele>458</ele>
        <time>2017-09-22T08:49:35Z</time>
      </trkpt>
      <trkpt lat="45.73688" lon="3.50608">
        <ele>458</ele>
        <time>2017-09-22T08:49:39Z</time>
      </trkpt>
      <trkpt lat="45.73693" lon="3.50616">
        <ele>458</ele>
        <time>2017-09-22T08:49:44Z</time>
      </trkpt>
      <trkpt lat="45.73706" lon="3.50631">
        <ele>459</ele>
        <time>2017-09-22T08:49:55Z</time>
      </trkpt>
      <trkpt lat="45.73719" lon="3.50643">
        <ele>459</ele>
        <time>2017-09-22T08:50:05Z</time>
      </trkpt>
      <trkpt lat="45.73731" lon="3.50657">
        <ele>460</ele>
        <time>2017-09-22T08:50:15Z</time>
      </trkpt>
      <trkpt lat="45.73743" lon="3.5067">
        <ele>460</ele>
        <time>2017-09-22T08:50:25Z</time>
      </trkpt>
      <trkpt lat="45.73752" lon="3.50681">
        <ele>460</ele>
        <time>2017-09-22T08:50:33Z</time>
      </trkpt>
      <trkpt lat="45.73761" lon="3.50691">
        <ele>460</ele>
        <time>2017-09-22T08:50:41Z</time>
      </trkpt>
      <trkpt lat="45.73772" lon="3.50703">
        <ele>461</ele>
        <time>2017-09-22T08:50:50Z</time>
      </trkpt>
      <trkpt lat="45.73782" lon="3.50713">
        <ele>461</ele>
        <time>2017-09-22T08:50:58Z</time>
      </trkpt>
      <trkpt lat="45.73797" lon="3.5073">
        <ele>461</ele>
        <time>2017-09-22T08:51:10Z</time>
      </trkpt>
      <trkpt lat="45.73806" lon="3.5074">
        <ele>462</ele>
        <time>2017-09-22T08:51:19Z</time>
      </trkpt>
      <trkpt lat="45.73807" lon="3.50741">
        <ele>462</ele>
        <time>2017-09-22T08:51:27Z</time>
      </trkpt>
      <trkpt lat="45.73812" lon="3.50746">
        <ele>462</ele>
        <time>2017-09-22T08:51:35Z</time>
      </trkpt>
      <trkpt lat="45.73821" lon="3.50756">
        <ele>462</ele>
        <time>2017-09-22T08:51:42Z</time>
      </trkpt>
      <trkpt lat="45.73831" lon="3.50769">
        <ele>462</ele>
        <time>2017-09-22T08:51:51Z</time>
      </trkpt>
      <trkpt lat="45.73841" lon="3.50779">
        <ele>462</ele>
        <time>2017-09-22T08:51:59Z</time>
      </trkpt>
      <trkpt lat="45.73852" lon="3.50791">
        <ele>463</ele>
        <time>2017-09-22T08:52:08Z</time>
      </trkpt>
      <trkpt lat="45.73877" lon="3.50819">
        <ele>463</ele>
        <time>2017-09-22T08:52:29Z</time>
      </trkpt>
      <trkpt lat="45.73888" lon="3.50831">
        <ele>464</ele>
        <time>2017-09-22T08:52:38Z</time>
      </trkpt>
      <trkpt lat="45.73897" lon="3.50843">
        <ele>464</ele>
        <time>2017-09-22T08:52:46Z</time>
      </trkpt>
      <trkpt lat="45.73893" lon="3.50855">
        <ele>465</ele>
        <time>2017-09-22T08:52:52Z</time>
      </trkpt>
      <trkpt lat="45.73888" lon="3.50871">
        <ele>466</ele>
        <time>2017-09-22T08:53:01Z</time>
      </trkpt>
      <trkpt lat="45.7388" lon="3.50891">
        <ele>466</ele>
        <time>2017-09-22T08:53:12Z</time>
      </trkpt>
      <trkpt lat="45.73878" lon="3.50896">
        <ele>467</ele>
        <time>2017-09-22T08:53:15Z</time>
      </trkpt>
      <trkpt lat="45.73872" lon="3.50912">
        <ele>467</ele>
        <time>2017-09-22T08:53:24Z</time>
      </trkpt>
      <trkpt lat="45.73863" lon="3.50931">
        <ele>468</ele>
        <time>2017-09-22T08:53:35Z</time>
      </trkpt>
      <trkpt lat="45.73851" lon="3.50951">
        <ele>469</ele>
        <time>2017-09-22T08:53:48Z</time>
      </trkpt>
      <trkpt lat="45.73838" lon="3.50971">
        <ele>469</ele>
        <time>2017-09-22T08:54:01Z</time>
      </trkpt>
      <trkpt lat="45.73825" lon="3.50991">
        <ele>470</ele>
        <time>2017-09-22T08:54:14Z</time>
      </trkpt>
      <trkpt lat="45.73816" lon="3.51005">
        <ele>471</ele>
        <time>2017-09-22T08:54:23Z</time>
      </trkpt>
      <trkpt lat="45.73805" lon="3.5102">
        <ele>472</ele>
        <time>2017-09-22T08:54:33Z</time>
      </trkpt>
      <trkpt lat="45.73792" lon="3.51039">
        <ele>473</ele>
        <time>2017-09-22T08:54:46Z</time>
      </trkpt>
      <trkpt lat="45.73779" lon="3.51059">
        <ele>474</ele>
        <time>2017-09-22T08:54:59Z</time>
      </trkpt>
      <trkpt lat="45.73766" lon="3.51076">
        <ele>475</ele>
        <time>2017-09-22T08:55:11Z</time>
      </trkpt>
      <trkpt lat="45.73754" lon="3.5109">
        <ele>476</ele>
        <time>2017-09-22T08:55:22Z</time>
      </trkpt>
      <trkpt lat="45.73744" lon="3.51097">
        <ele>476</ele>
        <time>2017-09-22T08:55:30Z</time>
      </trkpt>
      <trkpt lat="45.73732" lon="3.5111">
        <ele>477</ele>
        <time>2017-09-22T08:55:40Z</time>
      </trkpt>
      <trkpt lat="45.73719" lon="3.51124">
        <ele>476</ele>
        <time>2017-09-22T08:55:51Z</time>
      </trkpt>
      <trkpt lat="45.73708" lon="3.51137">
        <ele>476</ele>
        <time>2017-09-22T08:56:01Z</time>
      </trkpt>
      <trkpt lat="45.73692" lon="3.5115">
        <ele>475</ele>
        <time>2017-09-22T08:56:13Z</time>
      </trkpt>
      <trkpt lat="45.7368" lon="3.51159">
        <ele>474</ele>
        <time>2017-09-22T08:56:22Z</time>
      </trkpt>
      <trkpt lat="45.73666" lon="3.51168">
        <ele>474</ele>
        <time>2017-09-22T08:56:32Z</time>
      </trkpt>
      <trkpt lat="45.7365" lon="3.51179">
        <ele>473</ele>
        <time>2017-09-22T08:56:44Z</time>
      </trkpt>
      <trkpt lat="45.73642" lon="3.51186">
        <ele>473</ele>
        <time>2017-09-22T08:56:50Z</time>
      </trkpt>
      <trkpt lat="45.73638" lon="3.5119">
        <ele>472</ele>
        <time>2017-09-22T08:56:54Z</time>
      </trkpt>
      <trkpt lat="45.73623" lon="3.51201">
        <ele>471</ele>
        <time>2017-09-22T08:57:05Z</time>
      </trkpt>
      <trkpt lat="45.73609" lon="3.51216">
        <ele>470</ele>
        <time>2017-09-22T08:57:16Z</time>
      </trkpt>
      <trkpt lat="45.736" lon="3.51232">
        <ele>468</ele>
        <time>2017-09-22T08:57:26Z</time>
      </trkpt>
      <trkpt lat="45.7359" lon="3.51242">
        <ele>469</ele>
        <time>2017-09-22T08:57:34Z</time>
      </trkpt>
      <trkpt lat="45.73586" lon="3.51246">
        <ele>469</ele>
        <time>2017-09-22T08:57:40Z</time>
      </trkpt>
      <trkpt lat="45.73582" lon="3.51249">
        <ele>469</ele>
        <time>2017-09-22T08:57:45Z</time>
      </trkpt>
      <trkpt lat="45.7357" lon="3.51256">
        <ele>470</ele>
        <time>2017-09-22T08:57:54Z</time>
      </trkpt>
      <trkpt lat="45.73568" lon="3.51258">
        <ele>470</ele>
        <time>2017-09-22T08:58:01Z</time>
      </trkpt>
      <trkpt lat="45.73567" lon="3.51261">
        <ele>470</ele>
        <time>2017-09-22T08:58:25Z</time>
      </trkpt>
      <trkpt lat="45.73565" lon="3.51262">
        <ele>470</ele>
        <time>2017-09-22T08:58:32Z</time>
      </trkpt>
      <trkpt lat="45.73565" lon="3.51262">
        <ele>470</ele>
        <time>2017-09-22T08:58:43Z</time>
      </trkpt>
      <trkpt lat="45.73562" lon="3.51263">
        <ele>470</ele>
        <time>2017-09-22T08:59:23Z</time>
      </trkpt>
      <trkpt lat="45.73563" lon="3.51263">
        <ele>470</ele>
        <time>2017-09-22T08:59:56Z</time>
      </trkpt>
      <trkpt lat="45.73561" lon="3.51261">
        <ele>470</ele>
        <time>2017-09-22T09:01:04Z</time>
      </trkpt>
      <trkpt lat="45.7356" lon="3.5126">
        <ele>470</ele>
        <time>2017-09-22T09:01:22Z</time>
      </trkpt>
      <trkpt lat="45.73561" lon="3.51261">
        <ele>470</ele>
        <time>2017-09-22T09:01:33Z</time>
      </trkpt>
      <trkpt lat="45.7356" lon="3.51262">
        <ele>470</ele>
        <time>2017-09-22T09:01:43Z</time>
      </trkpt>
      <trkpt lat="45.73561" lon="3.51268">
        <ele>470</ele>
        <time>2017-09-22T09:03:37Z</time>
      </trkpt>
      <trkpt lat="45.7356" lon="3.51264">
        <ele>470</ele>
        <time>2017-09-22T09:04:56Z</time>
      </trkpt>
      <trkpt lat="45.73559" lon="3.51263">
        <ele>470</ele>
        <time>2017-09-22T09:05:22Z</time>
      </trkpt>
      <trkpt lat="45.73559" lon="3.51262">
        <ele>470</ele>
        <time>2017-09-22T09:05:58Z</time>
      </trkpt>
      <trkpt lat="45.73555" lon="3.51259">
        <ele>471</ele>
        <time>2017-09-22T09:06:32Z</time>
      </trkpt>
      <trkpt lat="45.73553" lon="3.5126">
        <ele>471</ele>
        <time>2017-09-22T09:06:40Z</time>
      </trkpt>
      <trkpt lat="45.73547" lon="3.51258">
        <ele>470</ele>
        <time>2017-09-22T09:06:45Z</time>
      </trkpt>
      <trkpt lat="45.73542" lon="3.51257">
        <ele>470</ele>
        <time>2017-09-22T09:06:49Z</time>
      </trkpt>
      <trkpt lat="45.73537" lon="3.51258">
        <ele>470</ele>
        <time>2017-09-22T09:06:53Z</time>
      </trkpt>
      <trkpt lat="45.73535" lon="3.51259">
        <ele>470</ele>
        <time>2017-09-22T09:06:55Z</time>
      </trkpt>
      <trkpt lat="45.73534" lon="3.51262">
        <ele>470</ele>
        <time>2017-09-22T09:07:02Z</time>
      </trkpt>
      <trkpt lat="45.73531" lon="3.51262">
        <ele>470</ele>
        <time>2017-09-22T09:07:19Z</time>
      </trkpt>
      <trkpt lat="45.73519" lon="3.51263">
        <ele>470</ele>
        <time>2017-09-22T09:07:28Z</time>
      </trkpt>
      <trkpt lat="45.73518" lon="3.51264">
        <ele>470</ele>
        <time>2017-09-22T09:07:29Z</time>
      </trkpt>
      <trkpt lat="45.73509" lon="3.51268">
        <ele>470</ele>
        <time>2017-09-22T09:07:35Z</time>
      </trkpt>
      <trkpt lat="45.73498" lon="3.51272">
        <ele>470</ele>
        <time>2017-09-22T09:07:44Z</time>
      </trkpt>
      <trkpt lat="45.73488" lon="3.51277">
        <ele>469</ele>
        <time>2017-09-22T09:07:52Z</time>
      </trkpt>
      <trkpt lat="45.73477" lon="3.51281">
        <ele>469</ele>
        <time>2017-09-22T09:08:00Z</time>
      </trkpt>
      <trkpt lat="45.73473" lon="3.51288">
        <ele>469</ele>
        <time>2017-09-22T09:08:05Z</time>
      </trkpt>
      <trkpt lat="45.73473" lon="3.51291">
        <ele>469</ele>
        <time>2017-09-22T09:08:20Z</time>
      </trkpt>
      <trkpt lat="45.73473" lon="3.513">
        <ele>469</ele>
        <time>2017-09-22T09:08:32Z</time>
      </trkpt>
      <trkpt lat="45.73473" lon="3.51314">
        <ele>468</ele>
        <time>2017-09-22T09:08:39Z</time>
      </trkpt>
      <trkpt lat="45.73474" lon="3.51329">
        <ele>468</ele>
        <time>2017-09-22T09:08:47Z</time>
      </trkpt>
      <trkpt lat="45.73474" lon="3.51341">
        <ele>468</ele>
        <time>2017-09-22T09:08:53Z</time>
      </trkpt>
      <trkpt lat="45.73471" lon="3.51357">
        <ele>467</ele>
        <time>2017-09-22T09:09:01Z</time>
      </trkpt>
      <trkpt lat="45.73462" lon="3.51365">
        <ele>466</ele>
        <time>2017-09-22T09:09:08Z</time>
      </trkpt>
      <trkpt lat="45.73457" lon="3.51368">
        <ele>465</ele>
        <time>2017-09-22T09:09:12Z</time>
      </trkpt>
      <trkpt lat="45.73449" lon="3.51374">
        <ele>464</ele>
        <time>2017-09-22T09:09:18Z</time>
      </trkpt>
      <trkpt lat="45.73436" lon="3.51382">
        <ele>462</ele>
        <time>2017-09-22T09:09:28Z</time>
      </trkpt>
      <trkpt lat="45.73424" lon="3.51391">
        <ele>461</ele>
        <time>2017-09-22T09:09:37Z</time>
      </trkpt>
      <trkpt lat="45.73408" lon="3.51403">
        <ele>460</ele>
        <time>2017-09-22T09:09:49Z</time>
      </trkpt>
      <trkpt lat="45.73399" lon="3.51409">
        <ele>459</ele>
        <time>2017-09-22T09:09:58Z</time>
      </trkpt>
      <trkpt lat="45.73395" lon="3.51411">
        <ele>459</ele>
        <time>2017-09-22T09:10:23Z</time>
      </trkpt>
      <trkpt lat="45.7338" lon="3.51421">
        <ele>458</ele>
        <time>2017-09-22T09:10:34Z</time>
      </trkpt>
      <trkpt lat="45.73367" lon="3.51431">
        <ele>457</ele>
        <time>2017-09-22T09:10:44Z</time>
      </trkpt>
      <trkpt lat="45.73355" lon="3.51439">
        <ele>456</ele>
        <time>2017-09-22T09:10:53Z</time>
      </trkpt>
      <trkpt lat="45.73342" lon="3.51447">
        <ele>455</ele>
        <time>2017-09-22T09:11:03Z</time>
      </trkpt>
      <trkpt lat="45.73339" lon="3.51449">
        <ele>455</ele>
        <time>2017-09-22T09:11:07Z</time>
      </trkpt>
      <trkpt lat="45.73328" lon="3.51455">
        <ele>454</ele>
        <time>2017-09-22T09:11:15Z</time>
      </trkpt>
      <trkpt lat="45.73312" lon="3.51463">
        <ele>453</ele>
        <time>2017-09-22T09:11:27Z</time>
      </trkpt>
      <trkpt lat="45.73302" lon="3.51469">
        <ele>452</ele>
        <time>2017-09-22T09:11:34Z</time>
      </trkpt>
      <trkpt lat="45.73292" lon="3.51474">
        <ele>451</ele>
        <time>2017-09-22T09:11:42Z</time>
      </trkpt>
      <trkpt lat="45.73292" lon="3.51475">
        <ele>451</ele>
        <time>2017-09-22T09:11:43Z</time>
      </trkpt>
      <trkpt lat="45.73287" lon="3.51477">
        <ele>450</ele>
        <time>2017-09-22T09:11:48Z</time>
      </trkpt>
      <trkpt lat="45.73288" lon="3.51479">
        <ele>450</ele>
        <time>2017-09-22T09:11:53Z</time>
      </trkpt>
      <trkpt lat="45.73282" lon="3.5148">
        <ele>450</ele>
        <time>2017-09-22T09:11:59Z</time>
      </trkpt>
      <trkpt lat="45.73281" lon="3.5148">
        <ele>450</ele>
        <time>2017-09-22T09:12:00Z</time>
      </trkpt>
      <trkpt lat="45.73268" lon="3.51486">
        <ele>448</ele>
        <time>2017-09-22T09:12:17Z</time>
      </trkpt>
      <trkpt lat="45.73265" lon="3.51487">
        <ele>448</ele>
        <time>2017-09-22T09:12:23Z</time>
      </trkpt>
      <trkpt lat="45.7326" lon="3.51489">
        <ele>448</ele>
        <time>2017-09-22T09:12:27Z</time>
      </trkpt>
      <trkpt lat="45.73249" lon="3.51494">
        <ele>448</ele>
        <time>2017-09-22T09:12:35Z</time>
      </trkpt>
      <trkpt lat="45.73237" lon="3.51499">
        <ele>447</ele>
        <time>2017-09-22T09:12:44Z</time>
      </trkpt>
      <trkpt lat="45.73228" lon="3.51502">
        <ele>447</ele>
        <time>2017-09-22T09:12:50Z</time>
      </trkpt>
      <trkpt lat="45.73215" lon="3.51506">
        <ele>446</ele>
        <time>2017-09-22T09:12:59Z</time>
      </trkpt>
      <trkpt lat="45.73205" lon="3.51509">
        <ele>445</ele>
        <time>2017-09-22T09:13:06Z</time>
      </trkpt>
      <trkpt lat="45.73196" lon="3.5151">
        <ele>444</ele>
        <time>2017-09-22T09:13:12Z</time>
      </trkpt>
      <trkpt lat="45.73184" lon="3.51514">
        <ele>443</ele>
        <time>2017-09-22T09:13:21Z</time>
      </trkpt>
      <trkpt lat="45.73181" lon="3.51514">
        <ele>442</ele>
        <time>2017-09-22T09:13:26Z</time>
      </trkpt>
      <trkpt lat="45.7318" lon="3.51515">
        <ele>442</ele>
        <time>2017-09-22T09:13:28Z</time>
      </trkpt>
      <trkpt lat="45.73171" lon="3.51518">
        <ele>441</ele>
        <time>2017-09-22T09:13:35Z</time>
      </trkpt>
      <trkpt lat="45.73161" lon="3.51521">
        <ele>440</ele>
        <time>2017-09-22T09:13:42Z</time>
      </trkpt>
      <trkpt lat="45.73152" lon="3.51524">
        <ele>438</ele>
        <time>2017-09-22T09:13:49Z</time>
      </trkpt>
      <trkpt lat="45.7314" lon="3.51527">
        <ele>437</ele>
        <time>2017-09-22T09:13:57Z</time>
      </trkpt>
      <trkpt lat="45.73132" lon="3.5153">
        <ele>436</ele>
        <time>2017-09-22T09:14:02Z</time>
      </trkpt>
      <trkpt lat="45.73123" lon="3.51531">
        <ele>434</ele>
        <time>2017-09-22T09:14:09Z</time>
      </trkpt>
      <trkpt lat="45.73115" lon="3.51533">
        <ele>433</ele>
        <time>2017-09-22T09:14:14Z</time>
      </trkpt>
      <trkpt lat="45.73104" lon="3.51536">
        <ele>431</ele>
        <time>2017-09-22T09:14:22Z</time>
      </trkpt>
      <trkpt lat="45.73094" lon="3.51539">
        <ele>430</ele>
        <time>2017-09-22T09:14:29Z</time>
      </trkpt>
      <trkpt lat="45.73091" lon="3.51539">
        <ele>429</ele>
        <time>2017-09-22T09:14:31Z</time>
      </trkpt>
      <trkpt lat="45.73091" lon="3.51539">
        <ele>429</ele>
        <time>2017-09-22T09:14:38Z</time>
      </trkpt>
      <trkpt lat="45.73089" lon="3.51539">
        <ele>429</ele>
        <time>2017-09-22T09:14:50Z</time>
      </trkpt>
      <trkpt lat="45.73087" lon="3.5154">
        <ele>428</ele>
        <time>2017-09-22T09:14:52Z</time>
      </trkpt>
      <trkpt lat="45.73082" lon="3.51541">
        <ele>428</ele>
        <time>2017-09-22T09:14:56Z</time>
      </trkpt>
      <trkpt lat="45.73075" lon="3.51544">
        <ele>427</ele>
        <time>2017-09-22T09:15:02Z</time>
      </trkpt>
      <trkpt lat="45.73066" lon="3.51548">
        <ele>426</ele>
        <time>2017-09-22T09:15:10Z</time>
      </trkpt>
      <trkpt lat="45.73065" lon="3.51549">
        <ele>426</ele>
        <time>2017-09-22T09:15:12Z</time>
      </trkpt>
      <trkpt lat="45.73058" lon="3.51549">
        <ele>425</ele>
        <time>2017-09-22T09:15:19Z</time>
      </trkpt>
      <trkpt lat="45.7305" lon="3.51549">
        <ele>424</ele>
        <time>2017-09-22T09:15:26Z</time>
      </trkpt>
      <trkpt lat="45.73042" lon="3.51548">
        <ele>422</ele>
        <time>2017-09-22T09:15:32Z</time>
      </trkpt>
      <trkpt lat="45.73038" lon="3.51549">
        <ele>422</ele>
        <time>2017-09-22T09:15:35Z</time>
      </trkpt>
      <trkpt lat="45.73031" lon="3.51551">
        <ele>420</ele>
        <time>2017-09-22T09:15:41Z</time>
      </trkpt>
      <trkpt lat="45.73021" lon="3.51551">
        <ele>418</ele>
        <time>2017-09-22T09:15:48Z</time>
      </trkpt>
      <trkpt lat="45.73012" lon="3.51554">
        <ele>417</ele>
        <time>2017-09-22T09:15:55Z</time>
      </trkpt>
      <trkpt lat="45.73003" lon="3.51556">
        <ele>415</ele>
        <time>2017-09-22T09:16:01Z</time>
      </trkpt>
      <trkpt lat="45.73002" lon="3.51555">
        <ele>414</ele>
        <time>2017-09-22T09:16:02Z</time>
      </trkpt>
      <trkpt lat="45.72999" lon="3.51555">
        <ele>414</ele>
        <time>2017-09-22T09:16:05Z</time>
      </trkpt>
      <trkpt lat="45.72989" lon="3.51555">
        <ele>411</ele>
        <time>2017-09-22T09:16:12Z</time>
      </trkpt>
      <trkpt lat="45.72988" lon="3.51555">
        <ele>411</ele>
        <time>2017-09-22T09:16:13Z</time>
      </trkpt>
      <trkpt lat="45.72977" lon="3.51551">
        <ele>409</ele>
        <time>2017-09-22T09:16:21Z</time>
      </trkpt>
      <trkpt lat="45.72968" lon="3.51549">
        <ele>407</ele>
        <time>2017-09-22T09:16:28Z</time>
      </trkpt>
      <trkpt lat="45.7296" lon="3.51543">
        <ele>405</ele>
        <time>2017-09-22T09:16:35Z</time>
      </trkpt>
      <trkpt lat="45.72956" lon="3.51539">
        <ele>405</ele>
        <time>2017-09-22T09:16:39Z</time>
      </trkpt>
      <trkpt lat="45.72951" lon="3.51529">
        <ele>404</ele>
        <time>2017-09-22T09:16:45Z</time>
      </trkpt>
      <trkpt lat="45.72951" lon="3.51527">
        <ele>404</ele>
        <time>2017-09-22T09:16:46Z</time>
      </trkpt>
      <trkpt lat="45.72949" lon="3.51522">
        <ele>404</ele>
        <time>2017-09-22T09:16:49Z</time>
      </trkpt>
      <trkpt lat="45.72947" lon="3.51516">
        <ele>404</ele>
        <time>2017-09-22T09:16:53Z</time>
      </trkpt>
      <trkpt lat="45.72946" lon="3.51503">
        <ele>404</ele>
        <time>2017-09-22T09:16:59Z</time>
      </trkpt>
      <trkpt lat="45.72941" lon="3.51497">
        <ele>403</ele>
        <time>2017-09-22T09:17:04Z</time>
      </trkpt>
      <trkpt lat="45.72934" lon="3.51497">
        <ele>401</ele>
        <time>2017-09-22T09:17:10Z</time>
      </trkpt>
      <trkpt lat="45.72931" lon="3.51497">
        <ele>401</ele>
        <time>2017-09-22T09:17:12Z</time>
      </trkpt>
      <trkpt lat="45.72924" lon="3.515">
        <ele>399</ele>
        <time>2017-09-22T09:17:19Z</time>
      </trkpt>
      <trkpt lat="45.72917" lon="3.51504">
        <ele>397</ele>
        <time>2017-09-22T09:17:24Z</time>
      </trkpt>
      <trkpt lat="45.72912" lon="3.51513">
        <ele>396</ele>
        <time>2017-09-22T09:17:30Z</time>
      </trkpt>
      <trkpt lat="45.72907" lon="3.51519">
        <ele>395</ele>
        <time>2017-09-22T09:17:35Z</time>
      </trkpt>
      <trkpt lat="45.72904" lon="3.51526">
        <ele>394</ele>
        <time>2017-09-22T09:17:39Z</time>
      </trkpt>
      <trkpt lat="45.72898" lon="3.51539">
        <ele>392</ele>
        <time>2017-09-22T09:17:47Z</time>
      </trkpt>
      <trkpt lat="45.72893" lon="3.51546">
        <ele>391</ele>
        <time>2017-09-22T09:17:52Z</time>
      </trkpt>
      <trkpt lat="45.72887" lon="3.51541">
        <ele>390</ele>
        <time>2017-09-22T09:17:58Z</time>
      </trkpt>
      <trkpt lat="45.72887" lon="3.51541">
        <ele>390</ele>
        <time>2017-09-22T09:18:02Z</time>
      </trkpt>
      <trkpt lat="45.72884" lon="3.51539">
        <ele>390</ele>
        <time>2017-09-22T09:18:21Z</time>
      </trkpt>
      <trkpt lat="45.72879" lon="3.51534">
        <ele>390</ele>
        <time>2017-09-22T09:18:26Z</time>
      </trkpt>
      <trkpt lat="45.72871" lon="3.51527">
        <ele>390</ele>
        <time>2017-09-22T09:18:33Z</time>
      </trkpt>
      <trkpt lat="45.72864" lon="3.51515">
        <ele>389</ele>
        <time>2017-09-22T09:18:41Z</time>
      </trkpt>
      <trkpt lat="45.72854" lon="3.51508">
        <ele>389</ele>
        <time>2017-09-22T09:18:49Z</time>
      </trkpt>
      <trkpt lat="45.72845" lon="3.51516">
        <ele>388</ele>
        <time>2017-09-22T09:18:57Z</time>
      </trkpt>
      <trkpt lat="45.72838" lon="3.51524">
        <ele>388</ele>
        <time>2017-09-22T09:19:05Z</time>
      </trkpt>
      <trkpt lat="45.72832" lon="3.5153">
        <ele>387</ele>
        <time>2017-09-22T09:19:10Z</time>
      </trkpt>
      <trkpt lat="45.72826" lon="3.51532">
        <ele>387</ele>
        <time>2017-09-22T09:19:15Z</time>
      </trkpt>
      <trkpt lat="45.72821" lon="3.51543">
        <ele>387</ele>
        <time>2017-09-22T09:19:22Z</time>
      </trkpt>
      <trkpt lat="45.72821" lon="3.51543">
        <ele>387</ele>
        <time>2017-09-22T09:19:23Z</time>
      </trkpt>
      <trkpt lat="45.72824" lon="3.51547">
        <ele>387</ele>
        <time>2017-09-22T09:19:29Z</time>
      </trkpt>
      <trkpt lat="45.72823" lon="3.51546">
        <ele>387</ele>
        <time>2017-09-22T09:19:37Z</time>
      </trkpt>
      <trkpt lat="45.7282" lon="3.51548">
        <ele>387</ele>
        <time>2017-09-22T09:19:42Z</time>
      </trkpt>
      <trkpt lat="45.72818" lon="3.51552">
        <ele>388</ele>
        <time>2017-09-22T09:19:48Z</time>
      </trkpt>
      <trkpt lat="45.72818" lon="3.51549">
        <ele>387</ele>
        <time>2017-09-22T09:19:51Z</time>
      </trkpt>
      <trkpt lat="45.72814" lon="3.51552">
        <ele>388</ele>
        <time>2017-09-22T09:20:01Z</time>
      </trkpt>
      <trkpt lat="45.72813" lon="3.51552">
        <ele>388</ele>
        <time>2017-09-22T09:20:02Z</time>
      </trkpt>
      <trkpt lat="45.72804" lon="3.51555">
        <ele>388</ele>
        <time>2017-09-22T09:20:10Z</time>
      </trkpt>
      <trkpt lat="45.72799" lon="3.51555">
        <ele>388</ele>
        <time>2017-09-22T09:20:16Z</time>
      </trkpt>
      <trkpt lat="45.72791" lon="3.51554">
        <ele>389</ele>
        <time>2017-09-22T09:20:23Z</time>
      </trkpt>
      <trkpt lat="45.72781" lon="3.51553">
        <ele>389</ele>
        <time>2017-09-22T09:20:31Z</time>
      </trkpt>
      <trkpt lat="45.72774" lon="3.51557">
        <ele>390</ele>
        <time>2017-09-22T09:20:38Z</time>
      </trkpt>
      <trkpt lat="45.72768" lon="3.51565">
        <ele>391</ele>
        <time>2017-09-22T09:20:46Z</time>
      </trkpt>
      <trkpt lat="45.72767" lon="3.51566">
        <ele>391</ele>
        <time>2017-09-22T09:20:47Z</time>
      </trkpt>
      <trkpt lat="45.72764" lon="3.51572">
        <ele>391</ele>
        <time>2017-09-22T09:20:51Z</time>
      </trkpt>
      <trkpt lat="45.72759" lon="3.51587">
        <ele>392</ele>
        <time>2017-09-22T09:21:00Z</time>
      </trkpt>
      <trkpt lat="45.7275" lon="3.51608">
        <ele>393</ele>
        <time>2017-09-22T09:21:14Z</time>
      </trkpt>
      <trkpt lat="45.72746" lon="3.51618">
        <ele>394</ele>
        <time>2017-09-22T09:21:21Z</time>
      </trkpt>
      <trkpt lat="45.72739" lon="3.51633">
        <ele>395</ele>
        <time>2017-09-22T09:21:31Z</time>
      </trkpt>
      <trkpt lat="45.72734" lon="3.51645">
        <ele>396</ele>
        <time>2017-09-22T09:21:39Z</time>
      </trkpt>
      <trkpt lat="45.72732" lon="3.51648">
        <ele>396</ele>
        <time>2017-09-22T09:21:42Z</time>
      </trkpt>
      <trkpt lat="45.72728" lon="3.51659">
        <ele>397</ele>
        <time>2017-09-22T09:21:50Z</time>
      </trkpt>
      <trkpt lat="45.7272" lon="3.51673">
        <ele>399</ele>
        <time>2017-09-22T09:22:01Z</time>
      </trkpt>
      <trkpt lat="45.72717" lon="3.51679">
        <ele>399</ele>
        <time>2017-09-22T09:22:07Z</time>
      </trkpt>
      <trkpt lat="45.72712" lon="3.51687">
        <ele>400</ele>
        <time>2017-09-22T09:22:12Z</time>
      </trkpt>
      <trkpt lat="45.7271" lon="3.51692">
        <ele>401</ele>
        <time>2017-09-22T09:22:16Z</time>
      </trkpt>
      <trkpt lat="45.72704" lon="3.51704">
        <ele>403</ele>
        <time>2017-09-22T09:22:24Z</time>
      </trkpt>
      <trkpt lat="45.72699" lon="3.51712">
        <ele>405</ele>
        <time>2017-09-22T09:22:31Z</time>
      </trkpt>
      <trkpt lat="45.72693" lon="3.51722">
        <ele>406</ele>
        <time>2017-09-22T09:22:39Z</time>
      </trkpt>
      <trkpt lat="45.72687" lon="3.51732">
        <ele>408</ele>
        <time>2017-09-22T09:22:47Z</time>
      </trkpt>
      <trkpt lat="45.72681" lon="3.5174">
        <ele>410</ele>
        <time>2017-09-22T09:22:54Z</time>
      </trkpt>
      <trkpt lat="45.72673" lon="3.5175">
        <ele>412</ele>
        <time>2017-09-22T09:23:02Z</time>
      </trkpt>
      <trkpt lat="45.72664" lon="3.51761">
        <ele>414</ele>
        <time>2017-09-22T09:23:11Z</time>
      </trkpt>
      <trkpt lat="45.72656" lon="3.51767">
        <ele>416</ele>
        <time>2017-09-22T09:23:19Z</time>
      </trkpt>
      <trkpt lat="45.72644" lon="3.5178">
        <ele>418</ele>
        <time>2017-09-22T09:23:30Z</time>
      </trkpt>
      <trkpt lat="45.72635" lon="3.51789">
        <ele>420</ele>
        <time>2017-09-22T09:23:39Z</time>
      </trkpt>
      <trkpt lat="45.72629" lon="3.51797">
        <ele>421</ele>
        <time>2017-09-22T09:23:46Z</time>
      </trkpt>
      <trkpt lat="45.72623" lon="3.51804">
        <ele>422</ele>
        <time>2017-09-22T09:23:53Z</time>
      </trkpt>
      <trkpt lat="45.72615" lon="3.51814">
        <ele>423</ele>
        <time>2017-09-22T09:24:02Z</time>
      </trkpt>
      <trkpt lat="45.72608" lon="3.51824">
        <ele>424</ele>
        <time>2017-09-22T09:24:11Z</time>
      </trkpt>
      <trkpt lat="45.72602" lon="3.51834">
        <ele>425</ele>
        <time>2017-09-22T09:24:18Z</time>
      </trkpt>
      <trkpt lat="45.72593" lon="3.51844">
        <ele>427</ele>
        <time>2017-09-22T09:24:26Z</time>
      </trkpt>
      <trkpt lat="45.72588" lon="3.51854">
        <ele>428</ele>
        <time>2017-09-22T09:24:33Z</time>
      </trkpt>
      <trkpt lat="45.72583" lon="3.51864">
        <ele>429</ele>
        <time>2017-09-22T09:24:40Z</time>
      </trkpt>
      <trkpt lat="45.7258" lon="3.51873">
        <ele>429</ele>
        <time>2017-09-22T09:24:46Z</time>
      </trkpt>
      <trkpt lat="45.72577" lon="3.51885">
        <ele>430</ele>
        <time>2017-09-22T09:24:53Z</time>
      </trkpt>
      <trkpt lat="45.72577" lon="3.51904">
        <ele>432</ele>
        <time>2017-09-22T09:25:03Z</time>
      </trkpt>
      <trkpt lat="45.72574" lon="3.5192">
        <ele>434</ele>
        <time>2017-09-22T09:25:12Z</time>
      </trkpt>
      <trkpt lat="45.72566" lon="3.51949">
        <ele>437</ele>
        <time>2017-09-22T09:25:30Z</time>
      </trkpt>
      <trkpt lat="45.72567" lon="3.51959">
        <ele>437</ele>
        <time>2017-09-22T09:25:36Z</time>
      </trkpt>
      <trkpt lat="45.72564" lon="3.51972">
        <ele>438</ele>
        <time>2017-09-22T09:25:44Z</time>
      </trkpt>
      <trkpt lat="45.72553" lon="3.51976">
        <ele>439</ele>
        <time>2017-09-22T09:25:52Z</time>
      </trkpt>
      <trkpt lat="45.72539" lon="3.51973">
        <ele>440</ele>
        <time>2017-09-22T09:26:02Z</time>
      </trkpt>
      <trkpt lat="45.72528" lon="3.51969">
        <ele>441</ele>
        <time>2017-09-22T09:26:10Z</time>
      </trkpt>
      <trkpt lat="45.72516" lon="3.51965">
        <ele>442</ele>
        <time>2017-09-22T09:26:19Z</time>
      </trkpt>
      <trkpt lat="45.72508" lon="3.51963">
        <ele>442</ele>
        <time>2017-09-22T09:26:25Z</time>
      </trkpt>
      <trkpt lat="45.72498" lon="3.51961">
        <ele>443</ele>
        <time>2017-09-22T09:26:32Z</time>
      </trkpt>
      <trkpt lat="45.7249" lon="3.51961">
        <ele>444</ele>
        <time>2017-09-22T09:26:39Z</time>
      </trkpt>
      <trkpt lat="45.7248" lon="3.51959">
        <ele>446</ele>
        <time>2017-09-22T09:26:47Z</time>
      </trkpt>
      <trkpt lat="45.72471" lon="3.51959">
        <ele>447</ele>
        <time>2017-09-22T09:26:54Z</time>
      </trkpt>
      <trkpt lat="45.72461" lon="3.5196">
        <ele>447</ele>
        <time>2017-09-22T09:27:01Z</time>
      </trkpt>
      <trkpt lat="45.72451" lon="3.51963">
        <ele>448</ele>
        <time>2017-09-22T09:27:08Z</time>
      </trkpt>
      <trkpt lat="45.72425" lon="3.51972">
        <ele>449</ele>
        <time>2017-09-22T09:27:25Z</time>
      </trkpt>
      <trkpt lat="45.72417" lon="3.51975">
        <ele>450</ele>
        <time>2017-09-22T09:27:31Z</time>
      </trkpt>
      <trkpt lat="45.72393" lon="3.5199">
        <ele>451</ele>
        <time>2017-09-22T09:27:48Z</time>
      </trkpt>
      <trkpt lat="45.72381" lon="3.52001">
        <ele>451</ele>
        <time>2017-09-22T09:27:57Z</time>
      </trkpt>
      <trkpt lat="45.72354" lon="3.52033">
        <ele>453</ele>
        <time>2017-09-22T09:28:20Z</time>
      </trkpt>
      <trkpt lat="45.72341" lon="3.5205">
        <ele>453</ele>
        <time>2017-09-22T09:28:31Z</time>
      </trkpt>
      <trkpt lat="45.72339" lon="3.52054">
        <ele>453</ele>
        <time>2017-09-22T09:28:36Z</time>
      </trkpt>
      <trkpt lat="45.72331" lon="3.52062">
        <ele>453</ele>
        <time>2017-09-22T09:28:43Z</time>
      </trkpt>
      <trkpt lat="45.72321" lon="3.52075">
        <ele>453</ele>
        <time>2017-09-22T09:28:51Z</time>
      </trkpt>
      <trkpt lat="45.72312" lon="3.52086">
        <ele>453</ele>
        <time>2017-09-22T09:28:59Z</time>
      </trkpt>
      <trkpt lat="45.7228" lon="3.52123">
        <ele>454</ele>
        <time>2017-09-22T09:29:27Z</time>
      </trkpt>
      <trkpt lat="45.72272" lon="3.52134">
        <ele>454</ele>
        <time>2017-09-22T09:29:35Z</time>
      </trkpt>
      <trkpt lat="45.72266" lon="3.52141">
        <ele>454</ele>
        <time>2017-09-22T09:29:40Z</time>
      </trkpt>
      <trkpt lat="45.72255" lon="3.52137">
        <ele>454</ele>
        <time>2017-09-22T09:29:48Z</time>
      </trkpt>
      <trkpt lat="45.72254" lon="3.52136">
        <ele>454</ele>
        <time>2017-09-22T09:29:49Z</time>
      </trkpt>
      <trkpt lat="45.72242" lon="3.52129">
        <ele>455</ele>
        <time>2017-09-22T09:29:58Z</time>
      </trkpt>
      <trkpt lat="45.72229" lon="3.52123">
        <ele>455</ele>
        <time>2017-09-22T09:30:07Z</time>
      </trkpt>
      <trkpt lat="45.72201" lon="3.52114">
        <ele>455</ele>
        <time>2017-09-22T09:30:26Z</time>
      </trkpt>
      <trkpt lat="45.72185" lon="3.5211">
        <ele>455</ele>
        <time>2017-09-22T09:30:37Z</time>
      </trkpt>
      <trkpt lat="45.72172" lon="3.52107">
        <ele>456</ele>
        <time>2017-09-22T09:30:46Z</time>
      </trkpt>
      <trkpt lat="45.72159" lon="3.52109">
        <ele>455</ele>
        <time>2017-09-22T09:30:55Z</time>
      </trkpt>
      <trkpt lat="45.7215" lon="3.52108">
        <ele>456</ele>
        <time>2017-09-22T09:31:00Z</time>
      </trkpt>
      <trkpt lat="45.7214" lon="3.52105">
        <ele>456</ele>
        <time>2017-09-22T09:31:07Z</time>
      </trkpt>
      <trkpt lat="45.72121" lon="3.52099">
        <ele>456</ele>
        <time>2017-09-22T09:31:20Z</time>
      </trkpt>
      <trkpt lat="45.72107" lon="3.52095">
        <ele>456</ele>
        <time>2017-09-22T09:31:30Z</time>
      </trkpt>
      <trkpt lat="45.72096" lon="3.52092">
        <ele>456</ele>
        <time>2017-09-22T09:31:38Z</time>
      </trkpt>
      <trkpt lat="45.72086" lon="3.52088">
        <ele>456</ele>
        <time>2017-09-22T09:31:45Z</time>
      </trkpt>
      <trkpt lat="45.72071" lon="3.52082">
        <ele>456</ele>
        <time>2017-09-22T09:31:53Z</time>
      </trkpt>
      <trkpt lat="45.72051" lon="3.52072">
        <ele>456</ele>
        <time>2017-09-22T09:31:58Z</time>
      </trkpt>
      <trkpt lat="45.72033" lon="3.52062">
        <ele>456</ele>
        <time>2017-09-22T09:32:02Z</time>
      </trkpt>
      <trkpt lat="45.72014" lon="3.52053">
        <ele>456</ele>
        <time>2017-09-22T09:32:06Z</time>
      </trkpt>
      <trkpt lat="45.71981" lon="3.52041">
        <ele>457</ele>
        <time>2017-09-22T09:32:13Z</time>
      </trkpt>
      <trkpt lat="45.71975" lon="3.5204">
        <ele>457</ele>
        <time>2017-09-22T09:32:14Z</time>
      </trkpt>
      <trkpt lat="45.71943" lon="3.52034">
        <ele>458</ele>
        <time>2017-09-22T09:32:20Z</time>
      </trkpt>
      <trkpt lat="45.71924" lon="3.52032">
        <ele>459</ele>
        <time>2017-09-22T09:32:24Z</time>
      </trkpt>
      <trkpt lat="45.71905" lon="3.5203">
        <ele>459</ele>
        <time>2017-09-22T09:32:29Z</time>
      </trkpt>
      <trkpt lat="45.71886" lon="3.52026">
        <ele>460</ele>
        <time>2017-09-22T09:32:36Z</time>
      </trkpt>
      <trkpt lat="45.71873" lon="3.52024">
        <ele>460</ele>
        <time>2017-09-22T09:32:44Z</time>
      </trkpt>
      <trkpt lat="45.71859" lon="3.52019">
        <ele>461</ele>
        <time>2017-09-22T09:32:53Z</time>
      </trkpt>
      <trkpt lat="45.71848" lon="3.52017">
        <ele>462</ele>
        <time>2017-09-22T09:33:01Z</time>
      </trkpt>
      <trkpt lat="45.71828" lon="3.52049">
        <ele>466</ele>
        <time>2017-09-22T09:33:22Z</time>
      </trkpt>
      <trkpt lat="45.7182" lon="3.52068">
        <ele>467</ele>
        <time>2017-09-22T09:33:33Z</time>
      </trkpt>
      <trkpt lat="45.71812" lon="3.52088">
        <ele>469</ele>
        <time>2017-09-22T09:33:45Z</time>
      </trkpt>
      <trkpt lat="45.71805" lon="3.52103">
        <ele>470</ele>
        <time>2017-09-22T09:33:54Z</time>
      </trkpt>
      <trkpt lat="45.71802" lon="3.5211">
        <ele>470</ele>
        <time>2017-09-22T09:33:59Z</time>
      </trkpt>
      <trkpt lat="45.7177" lon="3.52146">
        <ele>471</ele>
        <time>2017-09-22T09:34:27Z</time>
      </trkpt>
      <trkpt lat="45.71762" lon="3.52155">
        <ele>471</ele>
        <time>2017-09-22T09:34:34Z</time>
      </trkpt>
      <trkpt lat="45.71751" lon="3.52166">
        <ele>471</ele>
        <time>2017-09-22T09:34:43Z</time>
      </trkpt>
      <trkpt lat="45.71741" lon="3.52177">
        <ele>472</ele>
        <time>2017-09-22T09:34:52Z</time>
      </trkpt>
      <trkpt lat="45.7173" lon="3.52181">
        <ele>472</ele>
        <time>2017-09-22T09:35:00Z</time>
      </trkpt>
      <trkpt lat="45.7172" lon="3.52177">
        <ele>473</ele>
        <time>2017-09-22T09:35:07Z</time>
      </trkpt>
      <trkpt lat="45.71719" lon="3.52177">
        <ele>473</ele>
        <time>2017-09-22T09:35:08Z</time>
      </trkpt>
      <trkpt lat="45.71707" lon="3.52171">
        <ele>473</ele>
        <time>2017-09-22T09:35:17Z</time>
      </trkpt>
      <trkpt lat="45.71697" lon="3.52161">
        <ele>473</ele>
        <time>2017-09-22T09:35:25Z</time>
      </trkpt>
      <trkpt lat="45.71689" lon="3.5216">
        <ele>473</ele>
        <time>2017-09-22T09:35:32Z</time>
      </trkpt>
      <trkpt lat="45.71688" lon="3.52161">
        <ele>473</ele>
        <time>2017-09-22T09:35:33Z</time>
      </trkpt>
      <trkpt lat="45.71686" lon="3.5217">
        <ele>473</ele>
        <time>2017-09-22T09:35:38Z</time>
      </trkpt>
      <trkpt lat="45.71677" lon="3.5218">
        <ele>473</ele>
        <time>2017-09-22T09:35:46Z</time>
      </trkpt>
      <trkpt lat="45.71668" lon="3.52186">
        <ele>473</ele>
        <time>2017-09-22T09:35:54Z</time>
      </trkpt>
      <trkpt lat="45.71659" lon="3.52191">
        <ele>472</ele>
        <time>2017-09-22T09:36:01Z</time>
      </trkpt>
      <trkpt lat="45.71649" lon="3.52196">
        <ele>472</ele>
        <time>2017-09-22T09:36:08Z</time>
      </trkpt>
      <trkpt lat="45.71638" lon="3.52203">
        <ele>471</ele>
        <time>2017-09-22T09:36:17Z</time>
      </trkpt>
      <trkpt lat="45.71636" lon="3.52205">
        <ele>471</ele>
        <time>2017-09-22T09:36:22Z</time>
      </trkpt>
      <trkpt lat="45.7163" lon="3.52209">
        <ele>470</ele>
        <time>2017-09-22T09:36:38Z</time>
      </trkpt>
      <trkpt lat="45.71622" lon="3.52214">
        <ele>469</ele>
        <time>2017-09-22T09:36:45Z</time>
      </trkpt>
      <trkpt lat="45.71614" lon="3.52217">
        <ele>469</ele>
        <time>2017-09-22T09:36:51Z</time>
      </trkpt>
      <trkpt lat="45.71614" lon="3.52218">
        <ele>469</ele>
        <time>2017-09-22T09:36:56Z</time>
      </trkpt>
      <trkpt lat="45.71613" lon="3.52219">
        <ele>468</ele>
        <time>2017-09-22T09:37:18Z</time>
      </trkpt>
      <trkpt lat="45.71599" lon="3.52225">
        <ele>467</ele>
        <time>2017-09-22T09:37:28Z</time>
      </trkpt>
      <trkpt lat="45.71589" lon="3.52231">
        <ele>466</ele>
        <time>2017-09-22T09:37:36Z</time>
      </trkpt>
      <trkpt lat="45.71583" lon="3.52233">
        <ele>466</ele>
        <time>2017-09-22T09:37:42Z</time>
      </trkpt>
      <trkpt lat="45.71575" lon="3.52236">
        <ele>466</ele>
        <time>2017-09-22T09:37:49Z</time>
      </trkpt>
      <trkpt lat="45.71562" lon="3.52242">
        <ele>465</ele>
        <time>2017-09-22T09:37:59Z</time>
      </trkpt>
      <trkpt lat="45.71556" lon="3.52244">
        <ele>465</ele>
        <time>2017-09-22T09:38:05Z</time>
      </trkpt>
      <trkpt lat="45.71546" lon="3.52248">
        <ele>464</ele>
        <time>2017-09-22T09:38:12Z</time>
      </trkpt>
      <trkpt lat="45.71543" lon="3.52249">
        <ele>464</ele>
        <time>2017-09-22T09:38:15Z</time>
      </trkpt>
      <trkpt lat="45.71534" lon="3.52252">
        <ele>463</ele>
        <time>2017-09-22T09:38:21Z</time>
      </trkpt>
      <trkpt lat="45.71526" lon="3.52256">
        <ele>463</ele>
        <time>2017-09-22T09:38:28Z</time>
      </trkpt>
      <trkpt lat="45.71518" lon="3.52256">
        <ele>463</ele>
        <time>2017-09-22T09:38:34Z</time>
      </trkpt>
      <trkpt lat="45.71517" lon="3.52255">
        <ele>463</ele>
        <time>2017-09-22T09:38:39Z</time>
      </trkpt>
      <trkpt lat="45.71519" lon="3.52254">
        <ele>463</ele>
        <time>2017-09-22T09:38:40Z</time>
      </trkpt>
      <trkpt lat="45.71518" lon="3.52254">
        <ele>463</ele>
        <time>2017-09-22T09:38:43Z</time>
      </trkpt>
      <trkpt lat="45.71518" lon="3.52254">
        <ele>463</ele>
        <time>2017-09-22T09:38:53Z</time>
      </trkpt>
      <trkpt lat="45.71517" lon="3.52253">
        <ele>463</ele>
        <time>2017-09-22T09:38:58Z</time>
      </trkpt>
      <trkpt lat="45.71517" lon="3.52254">
        <ele>463</ele>
        <time>2017-09-22T09:39:08Z</time>
      </trkpt>
      <trkpt lat="45.71517" lon="3.52253">
        <ele>463</ele>
        <time>2017-09-22T09:39:14Z</time>
      </trkpt>
      <trkpt lat="45.71515" lon="3.5226">
        <ele>462</ele>
        <time>2017-09-22T09:39:23Z</time>
      </trkpt>
      <trkpt lat="45.71514" lon="3.52259">
        <ele>462</ele>
        <time>2017-09-22T09:39:29Z</time>
      </trkpt>
      <trkpt lat="45.71518" lon="3.5226">
        <ele>462</ele>
        <time>2017-09-22T09:39:51Z</time>
      </trkpt>
      <trkpt lat="45.71518" lon="3.5226">
        <ele>462</ele>
        <time>2017-09-22T09:40:03Z</time>
      </trkpt>
      <trkpt lat="45.71514" lon="3.52262">
        <ele>462</ele>
        <time>2017-09-22T09:41:25Z</time>
      </trkpt>
      <trkpt lat="45.71513" lon="3.52261">
        <ele>462</ele>
        <time>2017-09-22T09:41:31Z</time>
      </trkpt>
      <trkpt lat="45.71515" lon="3.5226">
        <ele>462</ele>
        <time>2017-09-22T09:41:38Z</time>
      </trkpt>
      <trkpt lat="45.71513" lon="3.52262">
        <ele>462</ele>
        <time>2017-09-22T09:42:22Z</time>
      </trkpt>
      <trkpt lat="45.71516" lon="3.5226">
        <ele>462</ele>
        <time>2017-09-22T09:42:28Z</time>
      </trkpt>
      <trkpt lat="45.71515" lon="3.52261">
        <ele>462</ele>
        <time>2017-09-22T09:48:08Z</time>
      </trkpt>
      <trkpt lat="45.71512" lon="3.52258">
        <ele>462</ele>
        <time>2017-09-22T09:48:12Z</time>
      </trkpt>
      <trkpt lat="45.71507" lon="3.52258">
        <ele>462</ele>
        <time>2017-09-22T09:48:18Z</time>
      </trkpt>
      <trkpt lat="45.71505" lon="3.5226">
        <ele>462</ele>
        <time>2017-09-22T09:48:22Z</time>
      </trkpt>
      <trkpt lat="45.715" lon="3.5226">
        <ele>462</ele>
        <time>2017-09-22T09:48:28Z</time>
      </trkpt>
      <trkpt lat="45.715" lon="3.52261">
        <ele>462</ele>
        <time>2017-09-22T09:48:35Z</time>
      </trkpt>
      <trkpt lat="45.71504" lon="3.5226">
        <ele>462</ele>
        <time>2017-09-22T09:48:44Z</time>
      </trkpt>
      <trkpt lat="45.71504" lon="3.5226">
        <ele>462</ele>
        <time>2017-09-22T09:48:50Z</time>
      </trkpt>
      <trkpt lat="45.71497" lon="3.52264">
        <ele>462</ele>
        <time>2017-09-22T09:48:58Z</time>
      </trkpt>
      <trkpt lat="45.715" lon="3.52257">
        <ele>460.9</ele>
      </trkpt>
      <trkpt lat="45.71387" lon="3.52313">
        <ele>434.4</ele>
      </trkpt>
      <trkpt lat="45.71347" lon="3.5228">
        <ele>429.9</ele>
      </trkpt>
      <trkpt lat="45.71319" lon="3.5233">
        <ele>424.6</ele>
      </trkpt>
      <trkpt lat="45.71332" lon="3.52408">
        <ele>408.2</ele>
      </trkpt>
      <trkpt lat="45.71538" lon="3.52521">
        <ele>393.7</ele>
      </trkpt>
      <trkpt lat="45.71469" lon="3.52661">
        <ele>354.9</ele>
      </trkpt>
      <trkpt lat="45.71532" lon="3.52637">
        <ele>352.3</ele>
      </trkpt>
      <trkpt lat="45.71626" lon="3.52639">
        <ele>347.3</ele>
      </trkpt>
      <trkpt lat="45.71625" lon="3.52748">
        <ele>333.7</ele>
      </trkpt>
      <trkpt lat="45.71544" lon="3.52804">
        <ele>328.2</ele>
      </trkpt>
      <trkpt lat="45.71479" lon="3.5295">
        <ele>344.8</ele>
      </trkpt>
      <trkpt lat="45.7141" lon="3.53129">
        <ele>368</ele>
      </trkpt>
      <trkpt lat="45.71369" lon="3.53192">
        <ele>368.1</ele>
      </trkpt>
      <trkpt lat="45.7139" lon="3.53321">
        <ele>385.3</ele>
      </trkpt>
      <trkpt lat="45.71383" lon="3.53481">
        <ele>400.6</ele>
      </trkpt>
      <trkpt lat="45.71446" lon="3.53573">
        <ele>424.3</ele>
      </trkpt>
      <trkpt lat="45.71509" lon="3.53568">
        <ele>435.8</ele>
      </trkpt>
      <trkpt lat="45.71501" lon="3.53407">
        <ele>434.5</ele>
      </trkpt>
      <trkpt lat="45.71517" lon="3.53391">
        <ele>436.2</ele>
      </trkpt>
      <trkpt lat="45.71603" lon="3.53342">
        <ele>433.6</ele>
      </trkpt>
      <trkpt lat="45.71743" lon="3.53704">
        <ele>428.3</ele>
      </trkpt>
      <trkpt lat="45.71799" lon="3.5393">
        <ele>409.1</ele>
      </trkpt>
      <trkpt lat="45.71726" lon="3.54044">
        <ele>410.2</ele>
      </trkpt>
      <trkpt lat="45.71906" lon="3.5408">
        <ele>442.1</ele>
      </trkpt>
      <trkpt lat="45.72036" lon="3.54051">
        <ele>458.2</ele>
      </trkpt>
      <trkpt lat="45.72188" lon="3.54183">
        <ele>469.3</ele>
      </trkpt>
      <trkpt lat="45.72151" lon="3.54311">
        <ele>465.1</ele>
      </trkpt>
      <trkpt lat="45.72095" lon="3.54464">
        <ele>466.4</ele>
      </trkpt>
      <trkpt lat="45.72033" lon="3.5477">
        <ele>468.2</ele>
      </trkpt>
      <trkpt lat="45.72136" lon="3.54869">
        <ele>467.3</ele>
      </trkpt>
      <trkpt lat="45.72237" lon="3.55051">
        <ele>457.3</ele>
      </trkpt>
      <trkpt lat="45.72358" lon="3.55118">
        <ele>444.2</ele>
      </trkpt>
      <trkpt lat="45.72343" lon="3.55259">
        <ele>449.3</ele>
      </trkpt>
      <trkpt lat="45.72342" lon="3.55362">
        <ele>444</ele>
      </trkpt>
      <trkpt lat="45.72452" lon="3.55576">
        <ele>436.9</ele>
      </trkpt>
      <trkpt lat="45.72506" lon="3.55558">
        <ele>426.3</ele>
      </trkpt>
      <trkpt lat="45.72559" lon="3.5563">
        <ele>415.2</ele>
      </trkpt>
      <trkpt lat="45.72495" lon="3.55712">
        <ele>415.5</ele>
      </trkpt>
      <trkpt lat="45.72445" lon="3.5582">
        <ele>408.5</ele>
      </trkpt>
      <trkpt lat="45.72534" lon="3.55848">
        <ele>421.3</ele>
      </trkpt>
      <trkpt lat="45.72538" lon="3.55957">
        <ele>435.6</ele>
      </trkpt>
      <trkpt lat="45.72537" lon="3.56028">
        <ele>443.3</ele>
      </trkpt>
      <trkpt lat="45.72608" lon="3.56074">
        <ele>452.6</ele>
      </trkpt>
      <trkpt lat="45.72796" lon="3.55802">
        <ele>434.6</ele>
      </trkpt>
      <trkpt lat="45.7277" lon="3.55712">
        <ele>431.7</ele>
      </trkpt>
      <trkpt lat="45.72839" lon="3.55598">
        <ele>417.3</ele>
      </trkpt>
      <trkpt lat="45.73029" lon="3.55505">
        <ele>394.9</ele>
      </trkpt>
      <trkpt lat="45.73116" lon="3.5534">
        <ele>374.4</ele>
      </trkpt>
      <trkpt lat="45.73184" lon="3.55278">
        <ele>364.7</ele>
      </trkpt>
      <trkpt lat="45.73191" lon="3.55425">
        <ele>369.7</ele>
      </trkpt>
      <trkpt lat="45.73136" lon="3.55533">
        <ele>378.6</ele>
      </trkpt>
      <trkpt lat="45.73139" lon="3.55649">
        <ele>375.6</ele>
      </trkpt>
      <trkpt lat="45.73099" lon="3.55687">
        <ele>382.3</ele>
      </trkpt>
      <trkpt lat="45.73128" lon="3.55855">
        <ele>385.5</ele>
      </trkpt>
      <trkpt lat="45.73082" lon="3.5595">
        <ele>390.5</ele>
      </trkpt>
      <trkpt lat="45.73067" lon="3.56117">
        <ele>403</ele>
      </trkpt>
      <trkpt lat="45.73075" lon="3.56232">
        <ele>411.6</ele>
      </trkpt>
      <trkpt lat="45.73055" lon="3.56348">
        <ele>417.1</ele>
      </trkpt>
      <trkpt lat="45.73013" lon="3.56475">
        <ele>437.7</ele>
      </trkpt>
      <trkpt lat="45.72891" lon="3.56588">
        <ele>434.6</ele>
      </trkpt>
      <trkpt lat="45.72922" lon="3.56634">
        <ele>435.4</ele>
      </trkpt>
      <trkpt lat="45.73067" lon="3.56541">
        <ele>448.5</ele>
      </trkpt>
      <trkpt lat="45.73067" lon="3.56541">
        <ele>448.5</ele>
      </trkpt>
      <trkpt lat="45.72978" lon="3.56685">
        <ele>455</ele>
        <time>2017-09-21T13:23:02Z</time>
      </trkpt>
      <trkpt lat="45.72986" lon="3.56667">
        <ele>454</ele>
        <time>2017-09-21T13:23:11Z</time>
      </trkpt>
      <trkpt lat="45.72994" lon="3.56646">
        <ele>454</ele>
        <time>2017-09-21T13:23:20Z</time>
      </trkpt>
      <trkpt lat="45.73001" lon="3.56629">
        <ele>454</ele>
        <time>2017-09-21T13:23:28Z</time>
      </trkpt>
      <trkpt lat="45.73011" lon="3.5661">
        <ele>453</ele>
        <time>2017-09-21T13:23:37Z</time>
      </trkpt>
      <trkpt lat="45.73019" lon="3.56598">
        <ele>453</ele>
        <time>2017-09-21T13:23:44Z</time>
      </trkpt>
      <trkpt lat="45.73028" lon="3.56585">
        <ele>453</ele>
        <time>2017-09-21T13:23:52Z</time>
      </trkpt>
      <trkpt lat="45.7304" lon="3.56566">
        <ele>451</ele>
        <time>2017-09-21T13:24:02Z</time>
      </trkpt>
      <trkpt lat="45.73064" lon="3.56535">
        <ele>449</ele>
        <time>2017-09-21T13:24:15Z</time>
      </trkpt>
      <trkpt lat="45.73074" lon="3.56524">
        <ele>450</ele>
        <time>2017-09-21T13:24:21Z</time>
      </trkpt>
      <trkpt lat="45.73084" lon="3.56516">
        <ele>450</ele>
        <time>2017-09-21T13:24:28Z</time>
      </trkpt>
      <trkpt lat="45.73095" lon="3.56506">
        <ele>450</ele>
        <time>2017-09-21T13:24:35Z</time>
      </trkpt>
      <trkpt lat="45.73104" lon="3.56498">
        <ele>450</ele>
        <time>2017-09-21T13:24:41Z</time>
      </trkpt>
      <trkpt lat="45.73116" lon="3.56487">
        <ele>451</ele>
        <time>2017-09-21T13:24:49Z</time>
      </trkpt>
      <trkpt lat="45.73139" lon="3.5646">
        <ele>453</ele>
        <time>2017-09-21T13:25:07Z</time>
      </trkpt>
      <trkpt lat="45.73148" lon="3.56447">
        <ele>452</ele>
        <time>2017-09-21T13:25:15Z</time>
      </trkpt>
      <trkpt lat="45.73154" lon="3.56438">
        <ele>452</ele>
        <time>2017-09-21T13:25:21Z</time>
      </trkpt>
      <trkpt lat="45.73162" lon="3.56421">
        <ele>452</ele>
        <time>2017-09-21T13:25:29Z</time>
      </trkpt>
      <trkpt lat="45.73171" lon="3.56405">
        <ele>451</ele>
        <time>2017-09-21T13:25:37Z</time>
      </trkpt>
      <trkpt lat="45.73176" lon="3.56393">
        <ele>450</ele>
        <time>2017-09-21T13:25:43Z</time>
      </trkpt>
      <trkpt lat="45.73182" lon="3.5638">
        <ele>450</ele>
        <time>2017-09-21T13:25:49Z</time>
      </trkpt>
      <trkpt lat="45.73191" lon="3.56364">
        <ele>451</ele>
        <time>2017-09-21T13:25:58Z</time>
      </trkpt>
      <trkpt lat="45.73201" lon="3.56347">
        <ele>452</ele>
        <time>2017-09-21T13:26:08Z</time>
      </trkpt>
      <trkpt lat="45.73207" lon="3.56333">
        <ele>453</ele>
        <time>2017-09-21T13:26:15Z</time>
      </trkpt>
      <trkpt lat="45.73212" lon="3.56325">
        <ele>453</ele>
        <time>2017-09-21T13:26:20Z</time>
      </trkpt>
      <trkpt lat="45.73219" lon="3.56309">
        <ele>454</ele>
        <time>2017-09-21T13:26:28Z</time>
      </trkpt>
      <trkpt lat="45.73223" lon="3.56298">
        <ele>454</ele>
        <time>2017-09-21T13:26:34Z</time>
      </trkpt>
      <trkpt lat="45.73226" lon="3.56286">
        <ele>453</ele>
        <time>2017-09-21T13:26:40Z</time>
      </trkpt>
      <trkpt lat="45.73229" lon="3.56272">
        <ele>453</ele>
        <time>2017-09-21T13:26:47Z</time>
      </trkpt>
      <trkpt lat="45.73234" lon="3.56251">
        <ele>452</ele>
        <time>2017-09-21T13:26:57Z</time>
      </trkpt>
      <trkpt lat="45.73239" lon="3.5623">
        <ele>451</ele>
        <time>2017-09-21T13:27:06Z</time>
      </trkpt>
      <trkpt lat="45.73242" lon="3.56221">
        <ele>450</ele>
        <time>2017-09-21T13:27:10Z</time>
      </trkpt>
      <trkpt lat="45.7325" lon="3.56203">
        <ele>450</ele>
        <time>2017-09-21T13:27:19Z</time>
      </trkpt>
      <trkpt lat="45.73256" lon="3.56176">
        <ele>448</ele>
        <time>2017-09-21T13:27:30Z</time>
      </trkpt>
      <trkpt lat="45.73262" lon="3.5615">
        <ele>446</ele>
        <time>2017-09-21T13:27:41Z</time>
      </trkpt>
      <trkpt lat="45.73266" lon="3.56129">
        <ele>444</ele>
        <time>2017-09-21T13:27:50Z</time>
      </trkpt>
      <trkpt lat="45.73276" lon="3.56097">
        <ele>441</ele>
        <time>2017-09-21T13:28:04Z</time>
      </trkpt>
      <trkpt lat="45.73289" lon="3.56078">
        <ele>440</ele>
        <time>2017-09-21T13:28:15Z</time>
      </trkpt>
      <trkpt lat="45.73301" lon="3.56074">
        <ele>441</ele>
        <time>2017-09-21T13:28:22Z</time>
      </trkpt>
      <trkpt lat="45.73317" lon="3.5608">
        <ele>442</ele>
        <time>2017-09-21T13:28:31Z</time>
      </trkpt>
      <trkpt lat="45.73324" lon="3.56085">
        <ele>443</ele>
        <time>2017-09-21T13:28:37Z</time>
      </trkpt>
      <trkpt lat="45.73336" lon="3.56089">
        <ele>443</ele>
        <time>2017-09-21T13:28:44Z</time>
      </trkpt>
      <trkpt lat="45.73344" lon="3.56093">
        <ele>444</ele>
        <time>2017-09-21T13:28:48Z</time>
      </trkpt>
      <trkpt lat="45.73357" lon="3.5609">
        <ele>444</ele>
        <time>2017-09-21T13:28:56Z</time>
      </trkpt>
      <trkpt lat="45.73364" lon="3.56079">
        <ele>443</ele>
        <time>2017-09-21T13:29:01Z</time>
      </trkpt>
      <trkpt lat="45.73372" lon="3.56077">
        <ele>443</ele>
        <time>2017-09-21T13:29:06Z</time>
      </trkpt>
      <trkpt lat="45.73382" lon="3.56074">
        <ele>443</ele>
        <time>2017-09-21T13:29:13Z</time>
      </trkpt>
      <trkpt lat="45.73393" lon="3.56061">
        <ele>442</ele>
        <time>2017-09-21T13:29:21Z</time>
      </trkpt>
      <trkpt lat="45.73404" lon="3.56044">
        <ele>439</ele>
        <time>2017-09-21T13:29:31Z</time>
      </trkpt>
      <trkpt lat="45.73406" lon="3.56043">
        <ele>439</ele>
        <time>2017-09-21T13:29:32Z</time>
      </trkpt>
      <trkpt lat="45.73411" lon="3.56042">
        <ele>439</ele>
        <time>2017-09-21T13:29:35Z</time>
      </trkpt>
      <trkpt lat="45.73424" lon="3.5604">
        <ele>439</ele>
        <time>2017-09-21T13:29:42Z</time>
      </trkpt>
      <trkpt lat="45.73432" lon="3.56049">
        <ele>439</ele>
        <time>2017-09-21T13:29:48Z</time>
      </trkpt>
      <trkpt lat="45.73433" lon="3.56053">
        <ele>439</ele>
        <time>2017-09-21T13:29:50Z</time>
      </trkpt>
      <trkpt lat="45.73434" lon="3.56063">
        <ele>440</ele>
        <time>2017-09-21T13:29:55Z</time>
      </trkpt>
      <trkpt lat="45.73432" lon="3.56074">
        <ele>441</ele>
        <time>2017-09-21T13:30:02Z</time>
      </trkpt>
      <trkpt lat="45.73431" lon="3.56085">
        <ele>442</ele>
        <time>2017-09-21T13:30:08Z</time>
      </trkpt>
      <trkpt lat="45.73432" lon="3.56095">
        <ele>443</ele>
        <time>2017-09-21T13:30:15Z</time>
      </trkpt>
      <trkpt lat="45.73431" lon="3.56101">
        <ele>443</ele>
        <time>2017-09-21T13:30:19Z</time>
      </trkpt>
      <trkpt lat="45.73429" lon="3.56109">
        <ele>444</ele>
        <time>2017-09-21T13:30:24Z</time>
      </trkpt>
      <trkpt lat="45.73428" lon="3.56114">
        <ele>445</ele>
        <time>2017-09-21T13:30:27Z</time>
      </trkpt>
      <trkpt lat="45.73424" lon="3.56126">
        <ele>447</ele>
        <time>2017-09-21T13:30:34Z</time>
      </trkpt>
      <trkpt lat="45.73418" lon="3.56143">
        <ele>449</ele>
        <time>2017-09-21T13:30:44Z</time>
      </trkpt>
      <trkpt lat="45.73414" lon="3.56157">
        <ele>450</ele>
        <time>2017-09-21T13:30:51Z</time>
      </trkpt>
      <trkpt lat="45.7341" lon="3.5617">
        <ele>452</ele>
        <time>2017-09-21T13:30:58Z</time>
      </trkpt>
      <trkpt lat="45.73405" lon="3.56187">
        <ele>454</ele>
        <time>2017-09-21T13:31:08Z</time>
      </trkpt>
      <trkpt lat="45.73401" lon="3.56204">
        <ele>455</ele>
        <time>2017-09-21T13:31:17Z</time>
      </trkpt>
      <trkpt lat="45.73399" lon="3.56214">
        <ele>456</ele>
        <time>2017-09-21T13:31:22Z</time>
      </trkpt>
      <trkpt lat="45.73398" lon="3.56216">
        <ele>456</ele>
        <time>2017-09-21T13:31:23Z</time>
      </trkpt>
      <trkpt lat="45.73396" lon="3.56223">
        <ele>456</ele>
        <time>2017-09-21T13:31:27Z</time>
      </trkpt>
      <trkpt lat="45.73392" lon="3.56232">
        <ele>457</ele>
        <time>2017-09-21T13:31:37Z</time>
      </trkpt>
      <trkpt lat="45.73392" lon="3.56232">
        <ele>457</ele>
        <time>2017-09-21T13:31:38Z</time>
      </trkpt>
      <trkpt lat="45.73389" lon="3.56241">
        <ele>457</ele>
        <time>2017-09-21T13:31:43Z</time>
      </trkpt>
      <trkpt lat="45.73386" lon="3.56244">
        <ele>457</ele>
        <time>2017-09-21T13:31:45Z</time>
      </trkpt>
      <trkpt lat="45.7338" lon="3.56263">
        <ele>458</ele>
        <time>2017-09-21T13:31:54Z</time>
      </trkpt>
      <trkpt lat="45.73368" lon="3.56304">
        <ele>459</ele>
        <time>2017-09-21T13:32:15Z</time>
      </trkpt>
      <trkpt lat="45.73359" lon="3.56327">
        <ele>460</ele>
        <time>2017-09-21T13:32:27Z</time>
      </trkpt>
      <trkpt lat="45.73353" lon="3.56338">
        <ele>461</ele>
        <time>2017-09-21T13:32:34Z</time>
      </trkpt>
      <trkpt lat="45.73347" lon="3.56349">
        <ele>461</ele>
        <time>2017-09-21T13:32:41Z</time>
      </trkpt>
      <trkpt lat="45.73339" lon="3.56366">
        <ele>463</ele>
        <time>2017-09-21T13:32:50Z</time>
      </trkpt>
      <trkpt lat="45.73332" lon="3.56383">
        <ele>464</ele>
        <time>2017-09-21T13:32:59Z</time>
      </trkpt>
      <trkpt lat="45.73326" lon="3.56401">
        <ele>465</ele>
        <time>2017-09-21T13:33:09Z</time>
      </trkpt>
      <trkpt lat="45.73325" lon="3.56403">
        <ele>465</ele>
        <time>2017-09-21T13:33:11Z</time>
      </trkpt>
      <trkpt lat="45.73325" lon="3.56404">
        <ele>465</ele>
        <time>2017-09-21T13:33:22Z</time>
      </trkpt>
      <trkpt lat="45.73323" lon="3.56411">
        <ele>465</ele>
        <time>2017-09-21T13:33:27Z</time>
      </trkpt>
      <trkpt lat="45.73315" lon="3.56431">
        <ele>466</ele>
        <time>2017-09-21T13:33:39Z</time>
      </trkpt>
      <trkpt lat="45.73307" lon="3.56453">
        <ele>467</ele>
        <time>2017-09-21T13:33:51Z</time>
      </trkpt>
      <trkpt lat="45.73298" lon="3.56473">
        <ele>468</ele>
        <time>2017-09-21T13:34:02Z</time>
      </trkpt>
      <trkpt lat="45.73287" lon="3.56496">
        <ele>469</ele>
        <time>2017-09-21T13:34:14Z</time>
      </trkpt>
      <trkpt lat="45.73285" lon="3.56506">
        <ele>469</ele>
        <time>2017-09-21T13:34:20Z</time>
      </trkpt>
      <trkpt lat="45.73285" lon="3.56507">
        <ele>469</ele>
        <time>2017-09-21T13:34:28Z</time>
      </trkpt>
      <trkpt lat="45.73283" lon="3.56513">
        <ele>470</ele>
        <time>2017-09-21T13:34:40Z</time>
      </trkpt>
      <trkpt lat="45.73272" lon="3.56534">
        <ele>469</ele>
        <time>2017-09-21T13:34:52Z</time>
      </trkpt>
      <trkpt lat="45.73263" lon="3.56553">
        <ele>469</ele>
        <time>2017-09-21T13:35:03Z</time>
      </trkpt>
      <trkpt lat="45.73252" lon="3.56575">
        <ele>470</ele>
        <time>2017-09-21T13:35:15Z</time>
      </trkpt>
      <trkpt lat="45.73242" lon="3.56595">
        <ele>472</ele>
        <time>2017-09-21T13:35:26Z</time>
      </trkpt>
      <trkpt lat="45.73234" lon="3.56611">
        <ele>472</ele>
        <time>2017-09-21T13:35:35Z</time>
      </trkpt>
      <trkpt lat="45.73229" lon="3.5662">
        <ele>473</ele>
        <time>2017-09-21T13:35:42Z</time>
      </trkpt>
      <trkpt lat="45.73228" lon="3.56631">
        <ele>473</ele>
        <time>2017-09-21T13:35:49Z</time>
      </trkpt>
      <trkpt lat="45.73219" lon="3.56651">
        <ele>474</ele>
        <time>2017-09-21T13:36:03Z</time>
      </trkpt>
      <trkpt lat="45.73207" lon="3.5667">
        <ele>474</ele>
        <time>2017-09-21T13:36:14Z</time>
      </trkpt>
      <trkpt lat="45.73195" lon="3.56686">
        <ele>475</ele>
        <time>2017-09-21T13:36:24Z</time>
      </trkpt>
      <trkpt lat="45.73185" lon="3.567">
        <ele>474</ele>
        <time>2017-09-21T13:36:33Z</time>
      </trkpt>
      <trkpt lat="45.73178" lon="3.56717">
        <ele>473</ele>
        <time>2017-09-21T13:36:42Z</time>
      </trkpt>
      <trkpt lat="45.73179" lon="3.56734">
        <ele>472</ele>
        <time>2017-09-21T13:36:50Z</time>
      </trkpt>
      <trkpt lat="45.73187" lon="3.56749">
        <ele>472</ele>
        <time>2017-09-21T13:36:59Z</time>
      </trkpt>
      <trkpt lat="45.73196" lon="3.56762">
        <ele>471</ele>
        <time>2017-09-21T13:37:07Z</time>
      </trkpt>
      <trkpt lat="45.73197" lon="3.56763">
        <ele>471</ele>
        <time>2017-09-21T13:37:09Z</time>
      </trkpt>
      <trkpt lat="45.73199" lon="3.56765">
        <ele>471</ele>
        <time>2017-09-21T13:37:16Z</time>
      </trkpt>
      <trkpt lat="45.73206" lon="3.56776">
        <ele>470</ele>
        <time>2017-09-21T13:37:23Z</time>
      </trkpt>
      <trkpt lat="45.73213" lon="3.56791">
        <ele>469</ele>
        <time>2017-09-21T13:37:32Z</time>
      </trkpt>
      <trkpt lat="45.73218" lon="3.56801">
        <ele>468</ele>
        <time>2017-09-21T13:37:38Z</time>
      </trkpt>
      <trkpt lat="45.73223" lon="3.56811">
        <ele>467</ele>
        <time>2017-09-21T13:37:44Z</time>
      </trkpt>
      <trkpt lat="45.7323" lon="3.56823">
        <ele>466</ele>
        <time>2017-09-21T13:37:51Z</time>
      </trkpt>
      <trkpt lat="45.73241" lon="3.5684">
        <ele>463</ele>
        <time>2017-09-21T13:38:02Z</time>
      </trkpt>
      <trkpt lat="45.73248" lon="3.56851">
        <ele>462</ele>
        <time>2017-09-21T13:38:10Z</time>
      </trkpt>
      <trkpt lat="45.73258" lon="3.56861">
        <ele>462</ele>
        <time>2017-09-21T13:38:18Z</time>
      </trkpt>
      <trkpt lat="45.73266" lon="3.56867">
        <ele>461</ele>
        <time>2017-09-21T13:38:24Z</time>
      </trkpt>
      <trkpt lat="45.73269" lon="3.56873">
        <ele>461</ele>
        <time>2017-09-21T13:38:30Z</time>
      </trkpt>
      <trkpt lat="45.73269" lon="3.56873">
        <ele>461</ele>
        <time>2017-09-21T13:38:37Z</time>
      </trkpt>
      <trkpt lat="45.73271" lon="3.56872">
        <ele>461</ele>
        <time>2017-09-21T13:38:43Z</time>
      </trkpt>
      <trkpt lat="45.73272" lon="3.5687">
        <ele>461</ele>
        <time>2017-09-21T13:39:13Z</time>
      </trkpt>
      <trkpt lat="45.73273" lon="3.56869">
        <ele>460</ele>
        <time>2017-09-21T13:39:22Z</time>
      </trkpt>
      <trkpt lat="45.73277" lon="3.56879">
        <ele>461</ele>
        <time>2017-09-21T13:39:29Z</time>
      </trkpt>
      <trkpt lat="45.7328" lon="3.56885">
        <ele>461</ele>
        <time>2017-09-21T13:39:33Z</time>
      </trkpt>
      <trkpt lat="45.73289" lon="3.56898">
        <ele>461</ele>
        <time>2017-09-21T13:39:42Z</time>
      </trkpt>
      <trkpt lat="45.73297" lon="3.56909">
        <ele>461</ele>
        <time>2017-09-21T13:39:50Z</time>
      </trkpt>
      <trkpt lat="45.73306" lon="3.5692">
        <ele>461</ele>
        <time>2017-09-21T13:39:59Z</time>
      </trkpt>
      <trkpt lat="45.73314" lon="3.56931">
        <ele>461</ele>
        <time>2017-09-21T13:40:08Z</time>
      </trkpt>
      <trkpt lat="45.73319" lon="3.56934">
        <ele>461</ele>
        <time>2017-09-21T13:40:11Z</time>
      </trkpt>
      <trkpt lat="45.73324" lon="3.56936">
        <ele>460</ele>
        <time>2017-09-21T13:40:15Z</time>
      </trkpt>
      <trkpt lat="45.73326" lon="3.56937">
        <ele>460</ele>
        <time>2017-09-21T13:40:17Z</time>
      </trkpt>
      <trkpt lat="45.73331" lon="3.56936">
        <ele>460</ele>
        <time>2017-09-21T13:40:20Z</time>
      </trkpt>
      <trkpt lat="45.7334" lon="3.56937">
        <ele>459</ele>
        <time>2017-09-21T13:40:26Z</time>
      </trkpt>
      <trkpt lat="45.73355" lon="3.56944">
        <ele>458</ele>
        <time>2017-09-21T13:40:36Z</time>
      </trkpt>
      <trkpt lat="45.73368" lon="3.56948">
        <ele>457</ele>
        <time>2017-09-21T13:40:44Z</time>
      </trkpt>
      <trkpt lat="45.73401" lon="3.56959">
        <ele>453</ele>
        <time>2017-09-21T13:41:06Z</time>
      </trkpt>
      <trkpt lat="45.73419" lon="3.56964">
        <ele>450</ele>
        <time>2017-09-21T13:41:18Z</time>
      </trkpt>
      <trkpt lat="45.73434" lon="3.56969">
        <ele>448</ele>
        <time>2017-09-21T13:41:28Z</time>
      </trkpt>
      <trkpt lat="45.7345" lon="3.56972">
        <ele>445</ele>
        <time>2017-09-21T13:41:39Z</time>
      </trkpt>
      <trkpt lat="45.73461" lon="3.56973">
        <ele>443</ele>
        <time>2017-09-21T13:41:47Z</time>
      </trkpt>
      <trkpt lat="45.7348" lon="3.56976">
        <ele>441</ele>
        <time>2017-09-21T13:41:59Z</time>
      </trkpt>
      <trkpt lat="45.73498" lon="3.56978">
        <ele>438</ele>
        <time>2017-09-21T13:42:11Z</time>
      </trkpt>
      <trkpt lat="45.73512" lon="3.56977">
        <ele>435</ele>
        <time>2017-09-21T13:42:20Z</time>
      </trkpt>
      <trkpt lat="45.73526" lon="3.56974">
        <ele>434</ele>
        <time>2017-09-21T13:42:29Z</time>
      </trkpt>
      <trkpt lat="45.73538" lon="3.56968">
        <ele>433</ele>
        <time>2017-09-21T13:42:38Z</time>
      </trkpt>
      <trkpt lat="45.73551" lon="3.56963">
        <ele>432</ele>
        <time>2017-09-21T13:42:47Z</time>
      </trkpt>
      <trkpt lat="45.73563" lon="3.56955">
        <ele>430</ele>
        <time>2017-09-21T13:42:56Z</time>
      </trkpt>
      <trkpt lat="45.73568" lon="3.56951">
        <ele>429</ele>
        <time>2017-09-21T13:43:00Z</time>
      </trkpt>
      <trkpt lat="45.73574" lon="3.56944">
        <ele>429</ele>
        <time>2017-09-21T13:43:05Z</time>
      </trkpt>
      <trkpt lat="45.73584" lon="3.56932">
        <ele>428</ele>
        <time>2017-09-21T13:43:14Z</time>
      </trkpt>
      <trkpt lat="45.73595" lon="3.56924">
        <ele>426</ele>
        <time>2017-09-21T13:43:22Z</time>
      </trkpt>
      <trkpt lat="45.73609" lon="3.56919">
        <ele>424</ele>
        <time>2017-09-21T13:43:32Z</time>
      </trkpt>
      <trkpt lat="45.73621" lon="3.56917">
        <ele>422</ele>
        <time>2017-09-21T13:43:41Z</time>
      </trkpt>
      <trkpt lat="45.73633" lon="3.56915">
        <ele>421</ele>
        <time>2017-09-21T13:43:49Z</time>
      </trkpt>
      <trkpt lat="45.73647" lon="3.56913">
        <ele>420</ele>
        <time>2017-09-21T13:43:59Z</time>
      </trkpt>
      <trkpt lat="45.73663" lon="3.56911">
        <ele>418</ele>
        <time>2017-09-21T13:44:10Z</time>
      </trkpt>
      <trkpt lat="45.73679" lon="3.56907">
        <ele>416</ele>
        <time>2017-09-21T13:44:21Z</time>
      </trkpt>
      <trkpt lat="45.73692" lon="3.56899">
        <ele>414</ele>
        <time>2017-09-21T13:44:31Z</time>
      </trkpt>
      <trkpt lat="45.73703" lon="3.5689">
        <ele>414</ele>
        <time>2017-09-21T13:44:40Z</time>
      </trkpt>
      <trkpt lat="45.73714" lon="3.56879">
        <ele>413</ele>
        <time>2017-09-21T13:44:50Z</time>
      </trkpt>
      <trkpt lat="45.73717" lon="3.56879">
        <ele>413</ele>
        <time>2017-09-21T13:44:52Z</time>
      </trkpt>
      <trkpt lat="45.7372" lon="3.56879">
        <ele>412</ele>
        <time>2017-09-21T13:44:58Z</time>
      </trkpt>
      <trkpt lat="45.73719" lon="3.56881">
        <ele>412</ele>
        <time>2017-09-21T13:45:10Z</time>
      </trkpt>
      <trkpt lat="45.7372" lon="3.56881">
        <ele>412</ele>
        <time>2017-09-21T13:45:17Z</time>
      </trkpt>
      <trkpt lat="45.7372" lon="3.56881">
        <ele>412</ele>
        <time>2017-09-21T13:45:25Z</time>
      </trkpt>
      <trkpt lat="45.73721" lon="3.56883">
        <ele>412</ele>
        <time>2017-09-21T13:47:35Z</time>
      </trkpt>
      <trkpt lat="45.73721" lon="3.56882">
        <ele>412</ele>
        <time>2017-09-21T13:48:20Z</time>
      </trkpt>
      <trkpt lat="45.73727" lon="3.56876">
        <ele>411</ele>
        <time>2017-09-21T13:48:25Z</time>
      </trkpt>
      <trkpt lat="45.73735" lon="3.56871">
        <ele>410</ele>
        <time>2017-09-21T13:48:32Z</time>
      </trkpt>
      <trkpt lat="45.73744" lon="3.56865">
        <ele>409</ele>
        <time>2017-09-21T13:48:39Z</time>
      </trkpt>
      <trkpt lat="45.73752" lon="3.56857">
        <ele>409</ele>
        <time>2017-09-21T13:48:46Z</time>
      </trkpt>
      <trkpt lat="45.73765" lon="3.56849">
        <ele>408</ele>
        <time>2017-09-21T13:48:55Z</time>
      </trkpt>
      <trkpt lat="45.73779" lon="3.56843">
        <ele>406</ele>
        <time>2017-09-21T13:49:12Z</time>
      </trkpt>
      <trkpt lat="45.73777" lon="3.56844">
        <ele>406</ele>
        <time>2017-09-21T13:49:18Z</time>
      </trkpt>
      <trkpt lat="45.7378" lon="3.56842">
        <ele>406</ele>
        <time>2017-09-21T13:49:29Z</time>
      </trkpt>
      <trkpt lat="45.73789" lon="3.56836">
        <ele>404</ele>
        <time>2017-09-21T13:49:37Z</time>
      </trkpt>
      <trkpt lat="45.7379" lon="3.56836">
        <ele>404</ele>
        <time>2017-09-21T13:49:38Z</time>
      </trkpt>
      <trkpt lat="45.73789" lon="3.56837">
        <ele>404</ele>
        <time>2017-09-21T13:49:43Z</time>
      </trkpt>
      <trkpt lat="45.7379" lon="3.56837">
        <ele>404</ele>
        <time>2017-09-21T13:50:02Z</time>
      </trkpt>
      <trkpt lat="45.73795" lon="3.56834">
        <ele>404</ele>
        <time>2017-09-21T13:50:08Z</time>
      </trkpt>
      <trkpt lat="45.73809" lon="3.56827">
        <ele>403</ele>
        <time>2017-09-21T13:50:18Z</time>
      </trkpt>
      <trkpt lat="45.73826" lon="3.56819">
        <ele>402</ele>
        <time>2017-09-21T13:50:29Z</time>
      </trkpt>
      <trkpt lat="45.73837" lon="3.56812">
        <ele>401</ele>
        <time>2017-09-21T13:50:37Z</time>
      </trkpt>
      <trkpt lat="45.73849" lon="3.56806">
        <ele>400</ele>
        <time>2017-09-21T13:50:46Z</time>
      </trkpt>
      <trkpt lat="45.73861" lon="3.56799">
        <ele>399</ele>
        <time>2017-09-21T13:50:55Z</time>
      </trkpt>
      <trkpt lat="45.73874" lon="3.56793">
        <ele>398</ele>
        <time>2017-09-21T13:51:04Z</time>
      </trkpt>
      <trkpt lat="45.7389" lon="3.56784">
        <ele>397</ele>
        <time>2017-09-21T13:51:16Z</time>
      </trkpt>
      <trkpt lat="45.73903" lon="3.56778">
        <ele>397</ele>
        <time>2017-09-21T13:51:25Z</time>
      </trkpt>
      <trkpt lat="45.73909" lon="3.56775">
        <ele>397</ele>
        <time>2017-09-21T13:51:30Z</time>
      </trkpt>
      <trkpt lat="45.73919" lon="3.56771">
        <ele>396</ele>
        <time>2017-09-21T13:51:38Z</time>
      </trkpt>
      <trkpt lat="45.73931" lon="3.56765">
        <ele>396</ele>
        <time>2017-09-21T13:51:46Z</time>
      </trkpt>
      <trkpt lat="45.73948" lon="3.56761">
        <ele>395</ele>
        <time>2017-09-21T13:51:58Z</time>
      </trkpt>
      <trkpt lat="45.73964" lon="3.56758">
        <ele>394</ele>
        <time>2017-09-21T13:52:08Z</time>
      </trkpt>
      <trkpt lat="45.73991" lon="3.5677">
        <ele>394</ele>
        <time>2017-09-21T13:52:27Z</time>
      </trkpt>
      <trkpt lat="45.74001" lon="3.56783">
        <ele>393</ele>
        <time>2017-09-21T13:52:36Z</time>
      </trkpt>
      <trkpt lat="45.74008" lon="3.5679">
        <ele>393</ele>
        <time>2017-09-21T13:52:42Z</time>
      </trkpt>
      <trkpt lat="45.74019" lon="3.568">
        <ele>392</ele>
        <time>2017-09-21T13:52:50Z</time>
      </trkpt>
      <trkpt lat="45.74032" lon="3.56804">
        <ele>392</ele>
        <time>2017-09-21T13:52:59Z</time>
      </trkpt>
      <trkpt lat="45.74042" lon="3.56802">
        <ele>391</ele>
        <time>2017-09-21T13:53:06Z</time>
      </trkpt>
      <trkpt lat="45.74053" lon="3.56796">
        <ele>391</ele>
        <time>2017-09-21T13:53:14Z</time>
      </trkpt>
      <trkpt lat="45.74068" lon="3.56783">
        <ele>390</ele>
        <time>2017-09-21T13:53:26Z</time>
      </trkpt>
      <trkpt lat="45.74077" lon="3.56773">
        <ele>389</ele>
        <time>2017-09-21T13:53:34Z</time>
      </trkpt>
      <trkpt lat="45.74088" lon="3.56763">
        <ele>388</ele>
        <time>2017-09-21T13:53:43Z</time>
      </trkpt>
      <trkpt lat="45.741" lon="3.56755">
        <ele>386</ele>
        <time>2017-09-21T13:53:52Z</time>
      </trkpt>
      <trkpt lat="45.74109" lon="3.56751">
        <ele>385</ele>
        <time>2017-09-21T13:53:59Z</time>
      </trkpt>
      <trkpt lat="45.74114" lon="3.5675">
        <ele>385</ele>
        <time>2017-09-21T13:54:03Z</time>
      </trkpt>
      <trkpt lat="45.74128" lon="3.56744">
        <ele>384</ele>
        <time>2017-09-21T13:54:13Z</time>
      </trkpt>
      <trkpt lat="45.7414" lon="3.56741">
        <ele>383</ele>
        <time>2017-09-21T13:54:21Z</time>
      </trkpt>
      <trkpt lat="45.74151" lon="3.56737">
        <ele>382</ele>
        <time>2017-09-21T13:54:29Z</time>
      </trkpt>
      <trkpt lat="45.74155" lon="3.56735">
        <ele>381</ele>
        <time>2017-09-21T13:54:35Z</time>
      </trkpt>
      <trkpt lat="45.74167" lon="3.5673">
        <ele>380</ele>
        <time>2017-09-21T13:55:01Z</time>
      </trkpt>
      <trkpt lat="45.74173" lon="3.56729">
        <ele>379</ele>
        <time>2017-09-21T13:55:05Z</time>
      </trkpt>
      <trkpt lat="45.74184" lon="3.56725">
        <ele>378</ele>
        <time>2017-09-21T13:55:13Z</time>
      </trkpt>
      <trkpt lat="45.74194" lon="3.56721">
        <ele>377</ele>
        <time>2017-09-21T13:55:20Z</time>
      </trkpt>
      <trkpt lat="45.74204" lon="3.56716">
        <ele>376</ele>
        <time>2017-09-21T13:55:27Z</time>
      </trkpt>
      <trkpt lat="45.74214" lon="3.56707">
        <ele>375</ele>
        <time>2017-09-21T13:55:35Z</time>
      </trkpt>
      <trkpt lat="45.74221" lon="3.56698">
        <ele>374</ele>
        <time>2017-09-21T13:55:42Z</time>
      </trkpt>
      <trkpt lat="45.74229" lon="3.56683">
        <ele>373</ele>
        <time>2017-09-21T13:55:51Z</time>
      </trkpt>
      <trkpt lat="45.74235" lon="3.56668">
        <ele>372</ele>
        <time>2017-09-21T13:56:00Z</time>
      </trkpt>
      <trkpt lat="45.74238" lon="3.56654">
        <ele>371</ele>
        <time>2017-09-21T13:56:08Z</time>
      </trkpt>
      <trkpt lat="45.74241" lon="3.56643">
        <ele>370</ele>
        <time>2017-09-21T13:56:14Z</time>
      </trkpt>
      <trkpt lat="45.74244" lon="3.56631">
        <ele>369</ele>
        <time>2017-09-21T13:56:20Z</time>
      </trkpt>
      <trkpt lat="45.74244" lon="3.5663">
        <ele>369</ele>
        <time>2017-09-21T13:56:21Z</time>
      </trkpt>
      <trkpt lat="45.74252" lon="3.56618">
        <ele>367</ele>
        <time>2017-09-21T13:56:28Z</time>
      </trkpt>
      <trkpt lat="45.74253" lon="3.56616">
        <ele>367</ele>
        <time>2017-09-21T13:56:29Z</time>
      </trkpt>
      <trkpt lat="45.74261" lon="3.56607">
        <ele>366</ele>
        <time>2017-09-21T13:56:36Z</time>
      </trkpt>
      <trkpt lat="45.74262" lon="3.56605">
        <ele>365</ele>
        <time>2017-09-21T13:56:37Z</time>
      </trkpt>
      <trkpt lat="45.74266" lon="3.56599">
        <ele>364</ele>
        <time>2017-09-21T13:56:41Z</time>
      </trkpt>
      <trkpt lat="45.74269" lon="3.56591">
        <ele>363</ele>
        <time>2017-09-21T13:56:46Z</time>
      </trkpt>
      <trkpt lat="45.7427" lon="3.56589">
        <ele>363</ele>
        <time>2017-09-21T13:56:55Z</time>
      </trkpt>
      <trkpt lat="45.74275" lon="3.56577">
        <ele>361</ele>
        <time>2017-09-21T13:57:02Z</time>
      </trkpt>
      <trkpt lat="45.74281" lon="3.56567">
        <ele>359</ele>
        <time>2017-09-21T13:57:09Z</time>
      </trkpt>
      <trkpt lat="45.74289" lon="3.56563">
        <ele>358</ele>
        <time>2017-09-21T13:57:15Z</time>
      </trkpt>
      <trkpt lat="45.74297" lon="3.56559">
        <ele>356</ele>
        <time>2017-09-21T13:57:21Z</time>
      </trkpt>
      <trkpt lat="45.74303" lon="3.5656">
        <ele>355</ele>
        <time>2017-09-21T13:57:25Z</time>
      </trkpt>
      <trkpt lat="45.74313" lon="3.56565">
        <ele>354</ele>
        <time>2017-09-21T13:57:33Z</time>
      </trkpt>
      <trkpt lat="45.74324" lon="3.5657">
        <ele>352</ele>
        <time>2017-09-21T13:57:40Z</time>
      </trkpt>
      <trkpt lat="45.74325" lon="3.5657">
        <ele>352</ele>
        <time>2017-09-21T13:57:41Z</time>
      </trkpt>
      <trkpt lat="45.74335" lon="3.56572">
        <ele>350</ele>
        <time>2017-09-21T13:57:48Z</time>
      </trkpt>
      <trkpt lat="45.74341" lon="3.56572">
        <ele>348</ele>
        <time>2017-09-21T13:57:52Z</time>
      </trkpt>
      <trkpt lat="45.74344" lon="3.56572">
        <ele>348</ele>
        <time>2017-09-21T13:57:54Z</time>
      </trkpt>
      <trkpt lat="45.74348" lon="3.5658">
        <ele>348</ele>
        <time>2017-09-21T13:57:58Z</time>
      </trkpt>
      <trkpt lat="45.74352" lon="3.56585">
        <ele>347</ele>
        <time>2017-09-21T13:58:03Z</time>
      </trkpt>
      <trkpt lat="45.74358" lon="3.56588">
        <ele>346</ele>
        <time>2017-09-21T13:58:08Z</time>
      </trkpt>
      <trkpt lat="45.74364" lon="3.56591">
        <ele>346</ele>
        <time>2017-09-21T13:58:14Z</time>
      </trkpt>
      <trkpt lat="45.74372" lon="3.56593">
        <ele>344</ele>
        <time>2017-09-21T13:58:21Z</time>
      </trkpt>
      <trkpt lat="45.74378" lon="3.56596">
        <ele>343</ele>
        <time>2017-09-21T13:58:27Z</time>
      </trkpt>
      <trkpt lat="45.7438" lon="3.56596">
        <ele>343</ele>
        <time>2017-09-21T13:58:32Z</time>
      </trkpt>
      <trkpt lat="45.74381" lon="3.56596">
        <ele>343</ele>
        <time>2017-09-21T13:58:33Z</time>
      </trkpt>
      <trkpt lat="45.74383" lon="3.56597">
        <ele>342</ele>
        <time>2017-09-21T13:58:37Z</time>
      </trkpt>
      <trkpt lat="45.74385" lon="3.56598">
        <ele>342</ele>
        <time>2017-09-21T13:58:42Z</time>
      </trkpt>
      <trkpt lat="45.74392" lon="3.56601">
        <ele>341</ele>
        <time>2017-09-21T13:58:48Z</time>
      </trkpt>
      <trkpt lat="45.74398" lon="3.56604">
        <ele>340</ele>
        <time>2017-09-21T13:58:53Z</time>
      </trkpt>
      <trkpt lat="45.74406" lon="3.56607">
        <ele>340</ele>
        <time>2017-09-21T13:59:00Z</time>
      </trkpt>
      <trkpt lat="45.74415" lon="3.5661">
        <ele>339</ele>
        <time>2017-09-21T13:59:06Z</time>
      </trkpt>
      <trkpt lat="45.74427" lon="3.56615">
        <ele>337</ele>
        <time>2017-09-21T13:59:15Z</time>
      </trkpt>
      <trkpt lat="45.74438" lon="3.56618">
        <ele>336</ele>
        <time>2017-09-21T13:59:23Z</time>
      </trkpt>
      <trkpt lat="45.74445" lon="3.56621">
        <ele>335</ele>
        <time>2017-09-21T13:59:29Z</time>
      </trkpt>
      <trkpt lat="45.74456" lon="3.56625">
        <ele>334</ele>
        <time>2017-09-21T13:59:37Z</time>
      </trkpt>
      <trkpt lat="45.74464" lon="3.56627">
        <ele>333</ele>
        <time>2017-09-21T13:59:43Z</time>
      </trkpt>
      <trkpt lat="45.74473" lon="3.56631">
        <ele>333</ele>
        <time>2017-09-21T13:59:50Z</time>
      </trkpt>
      <trkpt lat="45.74474" lon="3.56632">
        <ele>333</ele>
        <time>2017-09-21T13:59:52Z</time>
      </trkpt>
      <trkpt lat="45.74479" lon="3.56634">
        <ele>333</ele>
        <time>2017-09-21T13:59:57Z</time>
      </trkpt>
      <trkpt lat="45.74492" lon="3.56639">
        <ele>333</ele>
        <time>2017-09-21T14:00:11Z</time>
      </trkpt>
      <trkpt lat="45.74495" lon="3.56636">
        <ele>333</ele>
        <time>2017-09-21T14:00:16Z</time>
      </trkpt>
      <trkpt lat="45.74495" lon="3.56636">
        <ele>333</ele>
        <time>2017-09-21T14:00:21Z</time>
      </trkpt>
      <trkpt lat="45.745" lon="3.5663">
        <ele>333</ele>
        <time>2017-09-21T14:00:29Z</time>
      </trkpt>
      <trkpt lat="45.7451" lon="3.5662">
        <ele>333</ele>
        <time>2017-09-21T14:00:37Z</time>
      </trkpt>
      <trkpt lat="45.7451" lon="3.56618">
        <ele>332</ele>
        <time>2017-09-21T14:00:38Z</time>
      </trkpt>
      <trkpt lat="45.74513" lon="3.56616">
        <ele>332</ele>
        <time>2017-09-21T14:00:42Z</time>
      </trkpt>
      <trkpt lat="45.74515" lon="3.5662">
        <ele>333</ele>
        <time>2017-09-21T14:00:44Z</time>
      </trkpt>
      <trkpt lat="45.74523" lon="3.56639">
        <ele>333</ele>
        <time>2017-09-21T14:00:54Z</time>
      </trkpt>
      <trkpt lat="45.74524" lon="3.56653">
        <ele>334</ele>
        <time>2017-09-21T14:01:00Z</time>
      </trkpt>
      <trkpt lat="45.74529" lon="3.56678">
        <ele>335</ele>
        <time>2017-09-21T14:01:12Z</time>
      </trkpt>
      <trkpt lat="45.74529" lon="3.56683">
        <ele>335</ele>
        <time>2017-09-21T14:01:14Z</time>
      </trkpt>
      <trkpt lat="45.74528" lon="3.56696">
        <ele>337</ele>
        <time>2017-09-21T14:01:20Z</time>
      </trkpt>
      <trkpt lat="45.74527" lon="3.56713">
        <ele>338</ele>
        <time>2017-09-21T14:01:28Z</time>
      </trkpt>
      <trkpt lat="45.74525" lon="3.56729">
        <ele>340</ele>
        <time>2017-09-21T14:01:35Z</time>
      </trkpt>
      <trkpt lat="45.74519" lon="3.56743">
        <ele>341</ele>
        <time>2017-09-21T14:01:42Z</time>
      </trkpt>
      <trkpt lat="45.74513" lon="3.56759">
        <ele>340</ele>
        <time>2017-09-21T14:01:50Z</time>
      </trkpt>
      <trkpt lat="45.7451" lon="3.56771">
        <ele>341</ele>
        <time>2017-09-21T14:01:56Z</time>
      </trkpt>
      <trkpt lat="45.74501" lon="3.56788">
        <ele>344</ele>
        <time>2017-09-21T14:02:06Z</time>
      </trkpt>
      <trkpt lat="45.74493" lon="3.56796">
        <ele>344</ele>
        <time>2017-09-21T14:02:12Z</time>
      </trkpt>
      <trkpt lat="45.74481" lon="3.56806">
        <ele>344</ele>
        <time>2017-09-21T14:02:21Z</time>
      </trkpt>
      <trkpt lat="45.74467" lon="3.56815">
        <ele>344</ele>
        <time>2017-09-21T14:02:31Z</time>
      </trkpt>
      <trkpt lat="45.74456" lon="3.56824">
        <ele>345</ele>
        <time>2017-09-21T14:02:39Z</time>
      </trkpt>
      <trkpt lat="45.74443" lon="3.56833">
        <ele>346</ele>
        <time>2017-09-21T14:02:48Z</time>
      </trkpt>
      <trkpt lat="45.74432" lon="3.56847">
        <ele>344</ele>
        <time>2017-09-21T14:02:57Z</time>
      </trkpt>
      <trkpt lat="45.74423" lon="3.56861">
        <ele>346</ele>
        <time>2017-09-21T14:03:06Z</time>
      </trkpt>
      <trkpt lat="45.74415" lon="3.56876">
        <ele>350</ele>
        <time>2017-09-21T14:03:15Z</time>
      </trkpt>
      <trkpt lat="45.74407" lon="3.56893">
        <ele>352</ele>
        <time>2017-09-21T14:03:24Z</time>
      </trkpt>
      <trkpt lat="45.74402" lon="3.56904">
        <ele>352</ele>
        <time>2017-09-21T14:03:31Z</time>
      </trkpt>
      <trkpt lat="45.7439" lon="3.56918">
        <ele>352</ele>
        <time>2017-09-21T14:03:41Z</time>
      </trkpt>
      <trkpt lat="45.74381" lon="3.56929">
        <ele>354</ele>
        <time>2017-09-21T14:03:49Z</time>
      </trkpt>
      <trkpt lat="45.74366" lon="3.56955">
        <ele>358</ele>
        <time>2017-09-21T14:04:04Z</time>
      </trkpt>
      <trkpt lat="45.74359" lon="3.56969">
        <ele>361</ele>
        <time>2017-09-21T14:04:12Z</time>
      </trkpt>
      <trkpt lat="45.74348" lon="3.56987">
        <ele>363</ele>
        <time>2017-09-21T14:04:22Z</time>
      </trkpt>
      <trkpt lat="45.74342" lon="3.57">
        <ele>362</ele>
        <time>2017-09-21T14:04:29Z</time>
      </trkpt>
      <trkpt lat="45.74335" lon="3.57012">
        <ele>360</ele>
        <time>2017-09-21T14:04:36Z</time>
      </trkpt>
      <trkpt lat="45.74328" lon="3.57021">
        <ele>359</ele>
        <time>2017-09-21T14:04:42Z</time>
      </trkpt>
      <trkpt lat="45.74321" lon="3.57031">
        <ele>357</ele>
        <time>2017-09-21T14:04:48Z</time>
      </trkpt>
      <trkpt lat="45.74315" lon="3.57042">
        <ele>355</ele>
        <time>2017-09-21T14:04:54Z</time>
      </trkpt>
      <trkpt lat="45.74307" lon="3.57058">
        <ele>353</ele>
        <time>2017-09-21T14:05:03Z</time>
      </trkpt>
      <trkpt lat="45.74299" lon="3.57078">
        <ele>352</ele>
        <time>2017-09-21T14:05:13Z</time>
      </trkpt>
      <trkpt lat="45.74296" lon="3.57096">
        <ele>352</ele>
        <time>2017-09-21T14:05:21Z</time>
      </trkpt>
      <trkpt lat="45.74301" lon="3.57113">
        <ele>354</ele>
        <time>2017-09-21T14:05:29Z</time>
      </trkpt>
      <trkpt lat="45.74311" lon="3.57129">
        <ele>357</ele>
        <time>2017-09-21T14:05:35Z</time>
      </trkpt>
      <trkpt lat="45.74317" lon="3.57149">
        <ele>360</ele>
        <time>2017-09-21T14:05:42Z</time>
      </trkpt>
      <trkpt lat="45.74318" lon="3.57162">
        <ele>361</ele>
        <time>2017-09-21T14:05:46Z</time>
      </trkpt>
      <trkpt lat="45.74319" lon="3.57174">
        <ele>362</ele>
        <time>2017-09-21T14:05:52Z</time>
      </trkpt>
      <trkpt lat="45.74319" lon="3.57176">
        <ele>362</ele>
        <time>2017-09-21T14:05:54Z</time>
      </trkpt>
      <trkpt lat="45.74319" lon="3.57182">
        <ele>362</ele>
        <time>2017-09-21T14:05:58Z</time>
      </trkpt>
      <trkpt lat="45.74319" lon="3.57184">
        <ele>362</ele>
        <time>2017-09-21T14:05:59Z</time>
      </trkpt>
      <trkpt lat="45.7432" lon="3.57187">
        <ele>363</ele>
        <time>2017-09-21T14:06:01Z</time>
      </trkpt>
      <trkpt lat="45.74322" lon="3.572">
        <ele>364</ele>
        <time>2017-09-21T14:06:07Z</time>
      </trkpt>
      <trkpt lat="45.74324" lon="3.57213">
        <ele>366</ele>
        <time>2017-09-21T14:06:13Z</time>
      </trkpt>
      <trkpt lat="45.74323" lon="3.57229">
        <ele>368</ele>
        <time>2017-09-21T14:06:21Z</time>
      </trkpt>
      <trkpt lat="45.74322" lon="3.57232">
        <ele>368</ele>
        <time>2017-09-21T14:06:23Z</time>
      </trkpt>
      <trkpt lat="45.7432" lon="3.57236">
        <ele>368</ele>
        <time>2017-09-21T14:06:27Z</time>
      </trkpt>
      <trkpt lat="45.74318" lon="3.57243">
        <ele>368</ele>
        <time>2017-09-21T14:06:31Z</time>
      </trkpt>
      <trkpt lat="45.74315" lon="3.57253">
        <ele>369</ele>
        <time>2017-09-21T14:06:37Z</time>
      </trkpt>
      <trkpt lat="45.74314" lon="3.57257">
        <ele>369</ele>
        <time>2017-09-21T14:06:39Z</time>
      </trkpt>
      <trkpt lat="45.74311" lon="3.57265">
        <ele>369</ele>
        <time>2017-09-21T14:06:43Z</time>
      </trkpt>
      <trkpt lat="45.74308" lon="3.57271">
        <ele>369</ele>
        <time>2017-09-21T14:06:47Z</time>
      </trkpt>
      <trkpt lat="45.74303" lon="3.57278">
        <ele>369</ele>
        <time>2017-09-21T14:06:52Z</time>
      </trkpt>
      <trkpt lat="45.74295" lon="3.57288">
        <ele>370</ele>
        <time>2017-09-21T14:06:59Z</time>
      </trkpt>
      <trkpt lat="45.74294" lon="3.5729">
        <ele>370</ele>
        <time>2017-09-21T14:07:00Z</time>
      </trkpt>
      <trkpt lat="45.74285" lon="3.57297">
        <ele>369</ele>
        <time>2017-09-21T14:07:08Z</time>
      </trkpt>
      <trkpt lat="45.74277" lon="3.57301">
        <ele>368</ele>
        <time>2017-09-21T14:07:14Z</time>
      </trkpt>
      <trkpt lat="45.74268" lon="3.57308">
        <ele>367</ele>
        <time>2017-09-21T14:07:21Z</time>
      </trkpt>
      <trkpt lat="45.74256" lon="3.57324">
        <ele>368</ele>
        <time>2017-09-21T14:07:31Z</time>
      </trkpt>
      <trkpt lat="45.74256" lon="3.57326">
        <ele>368</ele>
        <time>2017-09-21T14:07:32Z</time>
      </trkpt>
      <trkpt lat="45.74251" lon="3.5734">
        <ele>370</ele>
        <time>2017-09-21T14:07:39Z</time>
      </trkpt>
      <trkpt lat="45.74248" lon="3.5735">
        <ele>372</ele>
        <time>2017-09-21T14:07:45Z</time>
      </trkpt>
      <trkpt lat="45.74244" lon="3.5736">
        <ele>372</ele>
        <time>2017-09-21T14:07:51Z</time>
      </trkpt>
      <trkpt lat="45.74239" lon="3.57373">
        <ele>372</ele>
        <time>2017-09-21T14:08:00Z</time>
      </trkpt>
      <trkpt lat="45.74238" lon="3.57383">
        <ele>373</ele>
        <time>2017-09-21T14:08:05Z</time>
      </trkpt>
      <trkpt lat="45.74237" lon="3.57395">
        <ele>374</ele>
        <time>2017-09-21T14:08:12Z</time>
      </trkpt>
      <trkpt lat="45.74242" lon="3.57407">
        <ele>376</ele>
        <time>2017-09-21T14:08:19Z</time>
      </trkpt>
      <trkpt lat="45.74247" lon="3.57414">
        <ele>378</ele>
        <time>2017-09-21T14:08:25Z</time>
      </trkpt>
      <trkpt lat="45.74252" lon="3.57422">
        <ele>380</ele>
        <time>2017-09-21T14:08:31Z</time>
      </trkpt>
      <trkpt lat="45.74252" lon="3.57424">
        <ele>380</ele>
        <time>2017-09-21T14:08:32Z</time>
      </trkpt>
      <trkpt lat="45.74258" lon="3.57434">
        <ele>383</ele>
        <time>2017-09-21T14:08:40Z</time>
      </trkpt>
      <trkpt lat="45.74266" lon="3.57443">
        <ele>383</ele>
        <time>2017-09-21T14:08:48Z</time>
      </trkpt>
      <trkpt lat="45.74276" lon="3.57445">
        <ele>385</ele>
        <time>2017-09-21T14:08:56Z</time>
      </trkpt>
      <trkpt lat="45.74284" lon="3.57441">
        <ele>387</ele>
        <time>2017-09-21T14:09:03Z</time>
      </trkpt>
      <trkpt lat="45.74294" lon="3.57436">
        <ele>390</ele>
        <time>2017-09-21T14:09:12Z</time>
      </trkpt>
      <trkpt lat="45.74301" lon="3.57432">
        <ele>392</ele>
        <time>2017-09-21T14:09:18Z</time>
      </trkpt>
      <trkpt lat="45.74307" lon="3.57428">
        <ele>392</ele>
        <time>2017-09-21T14:09:23Z</time>
      </trkpt>
      <trkpt lat="45.74318" lon="3.57423">
        <ele>392</ele>
        <time>2017-09-21T14:09:32Z</time>
      </trkpt>
      <trkpt lat="45.74325" lon="3.57419">
        <ele>392</ele>
        <time>2017-09-21T14:09:38Z</time>
      </trkpt>
      <trkpt lat="45.74334" lon="3.57412">
        <ele>392</ele>
        <time>2017-09-21T14:09:46Z</time>
      </trkpt>
      <trkpt lat="45.74352" lon="3.57401">
        <ele>392</ele>
        <time>2017-09-21T14:10:00Z</time>
      </trkpt>
      <trkpt lat="45.74362" lon="3.57396">
        <ele>394</ele>
        <time>2017-09-21T14:10:09Z</time>
      </trkpt>
      <trkpt lat="45.74371" lon="3.57392">
        <ele>395</ele>
        <time>2017-09-21T14:10:16Z</time>
      </trkpt>
      <trkpt lat="45.74379" lon="3.57388">
        <ele>397</ele>
        <time>2017-09-21T14:10:22Z</time>
      </trkpt>
      <trkpt lat="45.74382" lon="3.57386">
        <ele>398</ele>
        <time>2017-09-21T14:10:24Z</time>
      </trkpt>
      <trkpt lat="45.74387" lon="3.57385">
        <ele>399</ele>
        <time>2017-09-21T14:10:28Z</time>
      </trkpt>
      <trkpt lat="45.7439" lon="3.57383">
        <ele>399</ele>
        <time>2017-09-21T14:10:30Z</time>
      </trkpt>
      <trkpt lat="45.74395" lon="3.57382">
        <ele>400</ele>
        <time>2017-09-21T14:10:34Z</time>
      </trkpt>
      <trkpt lat="45.74411" lon="3.57373">
        <ele>401</ele>
        <time>2017-09-21T14:10:46Z</time>
      </trkpt>
      <trkpt lat="45.74419" lon="3.57369">
        <ele>402</ele>
        <time>2017-09-21T14:10:52Z</time>
      </trkpt>
      <trkpt lat="45.74429" lon="3.57364">
        <ele>404</ele>
        <time>2017-09-21T14:11:00Z</time>
      </trkpt>
      <trkpt lat="45.74436" lon="3.57361">
        <ele>404</ele>
        <time>2017-09-21T14:11:05Z</time>
      </trkpt>
      <trkpt lat="45.74447" lon="3.57356">
        <ele>406</ele>
        <time>2017-09-21T14:11:12Z</time>
      </trkpt>
      <trkpt lat="45.74454" lon="3.57352">
        <ele>407</ele>
        <time>2017-09-21T14:11:17Z</time>
      </trkpt>
      <trkpt lat="45.74465" lon="3.57348">
        <ele>408</ele>
        <time>2017-09-21T14:11:25Z</time>
      </trkpt>
      <trkpt lat="45.74476" lon="3.57345">
        <ele>409</ele>
        <time>2017-09-21T14:11:32Z</time>
      </trkpt>
      <trkpt lat="45.74487" lon="3.57344">
        <ele>410</ele>
        <time>2017-09-21T14:11:39Z</time>
      </trkpt>
      <trkpt lat="45.74497" lon="3.57342">
        <ele>412</ele>
        <time>2017-09-21T14:11:46Z</time>
      </trkpt>
      <trkpt lat="45.74502" lon="3.5734">
        <ele>412</ele>
        <time>2017-09-21T14:11:51Z</time>
      </trkpt>
      <trkpt lat="45.74509" lon="3.57339">
        <ele>413</ele>
        <time>2017-09-21T14:11:57Z</time>
      </trkpt>
      <trkpt lat="45.74526" lon="3.57339">
        <ele>416</ele>
        <time>2017-09-21T14:12:09Z</time>
      </trkpt>
      <trkpt lat="45.74545" lon="3.57334">
        <ele>418</ele>
        <time>2017-09-21T14:12:21Z</time>
      </trkpt>
      <trkpt lat="45.74556" lon="3.57331">
        <ele>420</ele>
        <time>2017-09-21T14:12:29Z</time>
      </trkpt>
      <trkpt lat="45.74568" lon="3.57328">
        <ele>421</ele>
        <time>2017-09-21T14:12:37Z</time>
      </trkpt>
      <trkpt lat="45.74579" lon="3.57329">
        <ele>422</ele>
        <time>2017-09-21T14:12:44Z</time>
      </trkpt>
      <trkpt lat="45.74585" lon="3.57328">
        <ele>422</ele>
        <time>2017-09-21T14:12:49Z</time>
      </trkpt>
      <trkpt lat="45.74598" lon="3.57323">
        <ele>423</ele>
        <time>2017-09-21T14:12:59Z</time>
      </trkpt>
      <trkpt lat="45.74605" lon="3.57322">
        <ele>424</ele>
        <time>2017-09-21T14:13:05Z</time>
      </trkpt>
      <trkpt lat="45.74615" lon="3.57321">
        <ele>426</ele>
        <time>2017-09-21T14:13:12Z</time>
      </trkpt>
      <trkpt lat="45.74624" lon="3.5732">
        <ele>427</ele>
        <time>2017-09-21T14:13:18Z</time>
      </trkpt>
      <trkpt lat="45.74625" lon="3.57319">
        <ele>427</ele>
        <time>2017-09-21T14:13:19Z</time>
      </trkpt>
      <trkpt lat="45.74631" lon="3.57319">
        <ele>428</ele>
        <time>2017-09-21T14:13:23Z</time>
      </trkpt>
      <trkpt lat="45.74641" lon="3.57316">
        <ele>429</ele>
        <time>2017-09-21T14:13:30Z</time>
      </trkpt>
      <trkpt lat="45.74653" lon="3.57315">
        <ele>430</ele>
        <time>2017-09-21T14:13:38Z</time>
      </trkpt>
      <trkpt lat="45.74662" lon="3.57311">
        <ele>430</ele>
        <time>2017-09-21T14:13:45Z</time>
      </trkpt>
      <trkpt lat="45.74671" lon="3.57305">
        <ele>430</ele>
        <time>2017-09-21T14:13:52Z</time>
      </trkpt>
      <trkpt lat="45.74672" lon="3.57304">
        <ele>430</ele>
        <time>2017-09-21T14:13:53Z</time>
      </trkpt>
      <trkpt lat="45.74684" lon="3.57297">
        <ele>432</ele>
        <time>2017-09-21T14:14:03Z</time>
      </trkpt>
      <trkpt lat="45.74692" lon="3.5729">
        <ele>433</ele>
        <time>2017-09-21T14:14:10Z</time>
      </trkpt>
      <trkpt lat="45.74699" lon="3.57285">
        <ele>434</ele>
        <time>2017-09-21T14:14:16Z</time>
      </trkpt>
      <trkpt lat="45.74708" lon="3.57279">
        <ele>435</ele>
        <time>2017-09-21T14:14:24Z</time>
      </trkpt>
      <trkpt lat="45.74719" lon="3.57272">
        <ele>437</ele>
        <time>2017-09-21T14:14:32Z</time>
      </trkpt>
      <trkpt lat="45.7473" lon="3.5727">
        <ele>438</ele>
        <time>2017-09-21T14:14:39Z</time>
      </trkpt>
      <trkpt lat="45.74738" lon="3.57265">
        <ele>438</ele>
        <time>2017-09-21T14:14:46Z</time>
      </trkpt>
      <trkpt lat="45.74755" lon="3.57249">
        <ele>438</ele>
        <time>2017-09-21T14:15:03Z</time>
      </trkpt>
      <trkpt lat="45.7477" lon="3.57235">
        <ele>437</ele>
        <time>2017-09-21T14:15:15Z</time>
      </trkpt>
      <trkpt lat="45.74777" lon="3.57228">
        <ele>438</ele>
        <time>2017-09-21T14:15:21Z</time>
      </trkpt>
      <trkpt lat="45.74787" lon="3.57216">
        <ele>440</ele>
        <time>2017-09-21T14:15:30Z</time>
      </trkpt>
      <trkpt lat="45.74794" lon="3.57212">
        <ele>441</ele>
        <time>2017-09-21T14:15:36Z</time>
      </trkpt>
      <trkpt lat="45.74795" lon="3.57211">
        <ele>441</ele>
        <time>2017-09-21T14:15:37Z</time>
      </trkpt>
      <trkpt lat="45.74807" lon="3.57206">
        <ele>443</ele>
        <time>2017-09-21T14:15:46Z</time>
      </trkpt>
      <trkpt lat="45.74818" lon="3.572">
        <ele>443</ele>
        <time>2017-09-21T14:15:54Z</time>
      </trkpt>
      <trkpt lat="45.7483" lon="3.57191">
        <ele>445</ele>
        <time>2017-09-21T14:16:03Z</time>
      </trkpt>
      <trkpt lat="45.74841" lon="3.57185">
        <ele>446</ele>
        <time>2017-09-21T14:16:11Z</time>
      </trkpt>
      <trkpt lat="45.74849" lon="3.57181">
        <ele>447</ele>
        <time>2017-09-21T14:16:18Z</time>
      </trkpt>
      <trkpt lat="45.74858" lon="3.57176">
        <ele>448</ele>
        <time>2017-09-21T14:16:24Z</time>
      </trkpt>
      <trkpt lat="45.74861" lon="3.5717">
        <ele>448</ele>
        <time>2017-09-21T14:16:28Z</time>
      </trkpt>
      <trkpt lat="45.74865" lon="3.57168">
        <ele>448</ele>
        <time>2017-09-21T14:16:31Z</time>
      </trkpt>
      <trkpt lat="45.74875" lon="3.57161">
        <ele>450</ele>
        <time>2017-09-21T14:16:39Z</time>
      </trkpt>
      <trkpt lat="45.74882" lon="3.57156">
        <ele>451</ele>
        <time>2017-09-21T14:16:45Z</time>
      </trkpt>
      <trkpt lat="45.74891" lon="3.57149">
        <ele>452</ele>
        <time>2017-09-21T14:16:53Z</time>
      </trkpt>
      <trkpt lat="45.74904" lon="3.57144">
        <ele>452</ele>
        <time>2017-09-21T14:17:02Z</time>
      </trkpt>
      <trkpt lat="45.74914" lon="3.57137">
        <ele>452</ele>
        <time>2017-09-21T14:17:10Z</time>
      </trkpt>
      <trkpt lat="45.74924" lon="3.57127">
        <ele>453</ele>
        <time>2017-09-21T14:17:19Z</time>
      </trkpt>
      <trkpt lat="45.74933" lon="3.57115">
        <ele>455</ele>
        <time>2017-09-21T14:17:28Z</time>
      </trkpt>
      <trkpt lat="45.74942" lon="3.57105">
        <ele>456</ele>
        <time>2017-09-21T14:17:36Z</time>
      </trkpt>
      <trkpt lat="45.74955" lon="3.57098">
        <ele>458</ele>
        <time>2017-09-21T14:17:45Z</time>
      </trkpt>
      <trkpt lat="45.74983" lon="3.57089">
        <ele>459</ele>
        <time>2017-09-21T14:18:04Z</time>
      </trkpt>
      <trkpt lat="45.75001" lon="3.57085">
        <ele>459</ele>
        <time>2017-09-21T14:18:16Z</time>
      </trkpt>
      <trkpt lat="45.75013" lon="3.57089">
        <ele>459</ele>
        <time>2017-09-21T14:18:24Z</time>
      </trkpt>
      <trkpt lat="45.75028" lon="3.57093">
        <ele>459</ele>
        <time>2017-09-21T14:18:34Z</time>
      </trkpt>
      <trkpt lat="45.75043" lon="3.57095">
        <ele>459</ele>
        <time>2017-09-21T14:18:44Z</time>
      </trkpt>
      <trkpt lat="45.75055" lon="3.57098">
        <ele>459</ele>
        <time>2017-09-21T14:18:52Z</time>
      </trkpt>
      <trkpt lat="45.7507" lon="3.57105">
        <ele>458</ele>
        <time>2017-09-21T14:19:02Z</time>
      </trkpt>
      <trkpt lat="45.75081" lon="3.57108">
        <ele>458</ele>
        <time>2017-09-21T14:19:09Z</time>
      </trkpt>
      <trkpt lat="45.75087" lon="3.5711">
        <ele>458</ele>
        <time>2017-09-21T14:19:13Z</time>
      </trkpt>
      <trkpt lat="45.75095" lon="3.57111">
        <ele>458</ele>
        <time>2017-09-21T14:19:18Z</time>
      </trkpt>
      <trkpt lat="45.75111" lon="3.57115">
        <ele>457</ele>
        <time>2017-09-21T14:19:28Z</time>
      </trkpt>
      <trkpt lat="45.75124" lon="3.57119">
        <ele>457</ele>
        <time>2017-09-21T14:19:37Z</time>
      </trkpt>
      <trkpt lat="45.75135" lon="3.57123">
        <ele>457</ele>
        <time>2017-09-21T14:19:45Z</time>
      </trkpt>
      <trkpt lat="45.75148" lon="3.57126">
        <ele>457</ele>
        <time>2017-09-21T14:19:54Z</time>
      </trkpt>
      <trkpt lat="45.7516" lon="3.57131">
        <ele>458</ele>
        <time>2017-09-21T14:20:05Z</time>
      </trkpt>
      <trkpt lat="45.75172" lon="3.57132">
        <ele>458</ele>
        <time>2017-09-21T14:20:14Z</time>
      </trkpt>
      <trkpt lat="45.75191" lon="3.57139">
        <ele>459</ele>
        <time>2017-09-21T14:20:27Z</time>
      </trkpt>
      <trkpt lat="45.75197" lon="3.57141">
        <ele>459</ele>
        <time>2017-09-21T14:20:31Z</time>
      </trkpt>
      <trkpt lat="45.75208" lon="3.57146">
        <ele>460</ele>
        <time>2017-09-21T14:20:38Z</time>
      </trkpt>
      <trkpt lat="45.75217" lon="3.5715">
        <ele>460</ele>
        <time>2017-09-21T14:20:45Z</time>
      </trkpt>
      <trkpt lat="45.75233" lon="3.57155">
        <ele>460</ele>
        <time>2017-09-21T14:20:56Z</time>
      </trkpt>
      <trkpt lat="45.75244" lon="3.5716">
        <ele>460</ele>
        <time>2017-09-21T14:21:05Z</time>
      </trkpt>
      <trkpt lat="45.75248" lon="3.57161">
        <ele>460</ele>
        <time>2017-09-21T14:21:08Z</time>
      </trkpt>
      <trkpt lat="45.75263" lon="3.57167">
        <ele>459</ele>
        <time>2017-09-21T14:21:16Z</time>
      </trkpt>
      <trkpt lat="45.75272" lon="3.5717">
        <ele>459</ele>
        <time>2017-09-21T14:21:23Z</time>
      </trkpt>
      <trkpt lat="45.75284" lon="3.57174">
        <ele>459</ele>
        <time>2017-09-21T14:21:31Z</time>
      </trkpt>
      <trkpt lat="45.75299" lon="3.5718">
        <ele>459</ele>
        <time>2017-09-21T14:21:41Z</time>
      </trkpt>
      <trkpt lat="45.75314" lon="3.57186">
        <ele>458</ele>
        <time>2017-09-21T14:21:51Z</time>
      </trkpt>
      <trkpt lat="45.75327" lon="3.5719">
        <ele>458</ele>
        <time>2017-09-21T14:22:00Z</time>
      </trkpt>
      <trkpt lat="45.75342" lon="3.57195">
        <ele>458</ele>
        <time>2017-09-21T14:22:10Z</time>
      </trkpt>
      <trkpt lat="45.75359" lon="3.57201">
        <ele>458</ele>
        <time>2017-09-21T14:22:21Z</time>
      </trkpt>
      <trkpt lat="45.75369" lon="3.57206">
        <ele>458</ele>
        <time>2017-09-21T14:22:28Z</time>
      </trkpt>
      <trkpt lat="45.75383" lon="3.5721">
        <ele>458</ele>
        <time>2017-09-21T14:22:37Z</time>
      </trkpt>
      <trkpt lat="45.75393" lon="3.57214">
        <ele>458</ele>
        <time>2017-09-21T14:22:44Z</time>
      </trkpt>
      <trkpt lat="45.75405" lon="3.57218">
        <ele>458</ele>
        <time>2017-09-21T14:22:52Z</time>
      </trkpt>
      <trkpt lat="45.75416" lon="3.5723">
        <ele>458</ele>
        <time>2017-09-21T14:23:01Z</time>
      </trkpt>
      <trkpt lat="45.75427" lon="3.57265">
        <ele>458</ele>
        <time>2017-09-21T14:23:18Z</time>
      </trkpt>
      <trkpt lat="45.7543" lon="3.57282">
        <ele>458</ele>
        <time>2017-09-21T14:23:26Z</time>
      </trkpt>
      <trkpt lat="45.75433" lon="3.57302">
        <ele>458</ele>
        <time>2017-09-21T14:23:35Z</time>
      </trkpt>
      <trkpt lat="45.75435" lon="3.57311">
        <ele>458</ele>
        <time>2017-09-21T14:23:41Z</time>
      </trkpt>
      <trkpt lat="45.75437" lon="3.57318">
        <ele>458</ele>
        <time>2017-09-21T14:23:55Z</time>
      </trkpt>
      <trkpt lat="45.75443" lon="3.57335">
        <ele>458</ele>
        <time>2017-09-21T14:24:03Z</time>
      </trkpt>
      <trkpt lat="45.75448" lon="3.57353">
        <ele>457</ele>
        <time>2017-09-21T14:24:12Z</time>
      </trkpt>
      <trkpt lat="45.75456" lon="3.57371">
        <ele>457</ele>
        <time>2017-09-21T14:24:21Z</time>
      </trkpt>
      <trkpt lat="45.75468" lon="3.57389">
        <ele>458</ele>
        <time>2017-09-21T14:24:32Z</time>
      </trkpt>
      <trkpt lat="45.75475" lon="3.57404">
        <ele>457</ele>
        <time>2017-09-21T14:24:40Z</time>
      </trkpt>
      <trkpt lat="45.75481" lon="3.57418">
        <ele>457</ele>
        <time>2017-09-21T14:24:48Z</time>
      </trkpt>
      <trkpt lat="45.75482" lon="3.57418">
        <ele>457</ele>
        <time>2017-09-21T14:24:49Z</time>
      </trkpt>
      <trkpt lat="45.75489" lon="3.57425">
        <ele>457</ele>
        <time>2017-09-21T14:24:55Z</time>
      </trkpt>
      <trkpt lat="45.75508" lon="3.57432">
        <ele>458</ele>
        <time>2017-09-21T14:25:08Z</time>
      </trkpt>
      <trkpt lat="45.75524" lon="3.57432">
        <ele>458</ele>
        <time>2017-09-21T14:25:19Z</time>
      </trkpt>
      <trkpt lat="45.75544" lon="3.57432">
        <ele>458</ele>
        <time>2017-09-21T14:25:31Z</time>
      </trkpt>
      <trkpt lat="45.75558" lon="3.57439">
        <ele>459</ele>
        <time>2017-09-21T14:25:41Z</time>
      </trkpt>
      <trkpt lat="45.75561" lon="3.57453">
        <ele>459</ele>
        <time>2017-09-21T14:25:48Z</time>
      </trkpt>
      <trkpt lat="45.75563" lon="3.57486">
        <ele>460</ele>
        <time>2017-09-21T14:26:02Z</time>
      </trkpt>
      <trkpt lat="45.75566" lon="3.57515">
        <ele>460</ele>
        <time>2017-09-21T14:26:15Z</time>
      </trkpt>
      <trkpt lat="45.75567" lon="3.57537">
        <ele>461</ele>
        <time>2017-09-21T14:26:25Z</time>
      </trkpt>
      <trkpt lat="45.7557" lon="3.57557">
        <ele>461</ele>
        <time>2017-09-21T14:26:34Z</time>
      </trkpt>
      <trkpt lat="45.75571" lon="3.57578">
        <ele>461</ele>
        <time>2017-09-21T14:26:44Z</time>
      </trkpt>
      <trkpt lat="45.75572" lon="3.57593">
        <ele>461</ele>
        <time>2017-09-21T14:26:51Z</time>
      </trkpt>
      <trkpt lat="45.75575" lon="3.57647">
        <ele>462</ele>
        <time>2017-09-21T14:27:16Z</time>
      </trkpt>
      <trkpt lat="45.75574" lon="3.57667">
        <ele>462</ele>
        <time>2017-09-21T14:27:25Z</time>
      </trkpt>
      <trkpt lat="45.75573" lon="3.57685">
        <ele>462</ele>
        <time>2017-09-21T14:27:33Z</time>
      </trkpt>
      <trkpt lat="45.7557" lon="3.5769">
        <ele>462</ele>
        <time>2017-09-21T14:27:38Z</time>
      </trkpt>
      <trkpt lat="45.7557" lon="3.57692">
        <ele>463</ele>
        <time>2017-09-21T14:27:42Z</time>
      </trkpt>
      <trkpt lat="45.75568" lon="3.57697">
        <ele>463</ele>
        <time>2017-09-21T14:27:45Z</time>
      </trkpt>
      <trkpt lat="45.7557" lon="3.57716">
        <ele>463</ele>
        <time>2017-09-21T14:27:54Z</time>
      </trkpt>
      <trkpt lat="45.75572" lon="3.57731">
        <ele>463</ele>
        <time>2017-09-21T14:28:03Z</time>
      </trkpt>
      <trkpt lat="45.75573" lon="3.57746">
        <ele>463</ele>
        <time>2017-09-21T14:28:10Z</time>
      </trkpt>
      <trkpt lat="45.75576" lon="3.57764">
        <ele>463</ele>
        <time>2017-09-21T14:28:18Z</time>
      </trkpt>
      <trkpt lat="45.75581" lon="3.57781">
        <ele>462</ele>
        <time>2017-09-21T14:28:26Z</time>
      </trkpt>
      <trkpt lat="45.7559" lon="3.57797">
        <ele>461</ele>
        <time>2017-09-21T14:28:35Z</time>
      </trkpt>
      <trkpt lat="45.75599" lon="3.57808">
        <ele>460</ele>
        <time>2017-09-21T14:28:43Z</time>
      </trkpt>
      <trkpt lat="45.75606" lon="3.57821">
        <ele>459</ele>
        <time>2017-09-21T14:28:51Z</time>
      </trkpt>
      <trkpt lat="45.75619" lon="3.57839">
        <ele>458</ele>
        <time>2017-09-21T14:29:05Z</time>
      </trkpt>
      <trkpt lat="45.75631" lon="3.57856">
        <ele>457</ele>
        <time>2017-09-21T14:29:16Z</time>
      </trkpt>
      <trkpt lat="45.75636" lon="3.57868">
        <ele>456</ele>
        <time>2017-09-21T14:29:22Z</time>
      </trkpt>
      <trkpt lat="45.75638" lon="3.57873">
        <ele>455</ele>
        <time>2017-09-21T14:29:25Z</time>
      </trkpt>
      <trkpt lat="45.75648" lon="3.5789">
        <ele>453</ele>
        <time>2017-09-21T14:29:34Z</time>
      </trkpt>
      <trkpt lat="45.75659" lon="3.57905">
        <ele>451</ele>
        <time>2017-09-21T14:29:43Z</time>
      </trkpt>
      <trkpt lat="45.75666" lon="3.57921">
        <ele>449</ele>
        <time>2017-09-21T14:29:51Z</time>
      </trkpt>
      <trkpt lat="45.75671" lon="3.5794">
        <ele>446</ele>
        <time>2017-09-21T14:30:00Z</time>
      </trkpt>
      <trkpt lat="45.75679" lon="3.57957">
        <ele>445</ele>
        <time>2017-09-21T14:30:08Z</time>
      </trkpt>
      <trkpt lat="45.75688" lon="3.57975">
        <ele>443</ele>
        <time>2017-09-21T14:30:18Z</time>
      </trkpt>
      <trkpt lat="45.75696" lon="3.5799">
        <ele>442</ele>
        <time>2017-09-21T14:30:27Z</time>
      </trkpt>
      <trkpt lat="45.75702" lon="3.58007">
        <ele>441</ele>
        <time>2017-09-21T14:30:35Z</time>
      </trkpt>
      <trkpt lat="45.75709" lon="3.58025">
        <ele>439</ele>
        <time>2017-09-21T14:30:44Z</time>
      </trkpt>
      <trkpt lat="45.75715" lon="3.58041">
        <ele>439</ele>
        <time>2017-09-21T14:30:52Z</time>
      </trkpt>
      <trkpt lat="45.7572" lon="3.58057">
        <ele>438</ele>
        <time>2017-09-21T14:31:01Z</time>
      </trkpt>
      <trkpt lat="45.75729" lon="3.58082">
        <ele>437</ele>
        <time>2017-09-21T14:31:13Z</time>
      </trkpt>
      <trkpt lat="45.75734" lon="3.58095">
        <ele>437</ele>
        <time>2017-09-21T14:31:20Z</time>
      </trkpt>
      <trkpt lat="45.75742" lon="3.58109">
        <ele>436</ele>
        <time>2017-09-21T14:31:28Z</time>
      </trkpt>
      <trkpt lat="45.75745" lon="3.58119">
        <ele>436</ele>
        <time>2017-09-21T14:31:34Z</time>
      </trkpt>
      <trkpt lat="45.75748" lon="3.58131">
        <ele>436</ele>
        <time>2017-09-21T14:31:41Z</time>
      </trkpt>
      <trkpt lat="45.75748" lon="3.58134">
        <ele>435</ele>
        <time>2017-09-21T14:31:46Z</time>
      </trkpt>
      <trkpt lat="45.75751" lon="3.58149">
        <ele>435</ele>
        <time>2017-09-21T14:31:53Z</time>
      </trkpt>
      <trkpt lat="45.75754" lon="3.5817">
        <ele>435</ele>
        <time>2017-09-21T14:32:03Z</time>
      </trkpt>
      <trkpt lat="45.75759" lon="3.58196">
        <ele>434</ele>
        <time>2017-09-21T14:32:15Z</time>
      </trkpt>
      <trkpt lat="45.75762" lon="3.58214">
        <ele>435</ele>
        <time>2017-09-21T14:32:23Z</time>
      </trkpt>
      <trkpt lat="45.75763" lon="3.58219">
        <ele>435</ele>
        <time>2017-09-21T14:32:26Z</time>
      </trkpt>
      <trkpt lat="45.75764" lon="3.58214">
        <ele>435</ele>
        <time>2017-09-21T14:32:31Z</time>
      </trkpt>
      <trkpt lat="45.75768" lon="3.58211">
        <ele>435</ele>
        <time>2017-09-21T14:32:35Z</time>
      </trkpt>
      <trkpt lat="45.7577" lon="3.58211">
        <ele>435</ele>
        <time>2017-09-21T14:32:36Z</time>
      </trkpt>
      <trkpt lat="45.75783" lon="3.58216">
        <ele>435</ele>
        <time>2017-09-21T14:32:46Z</time>
      </trkpt>
      <trkpt lat="45.75793" lon="3.58224">
        <ele>435</ele>
        <time>2017-09-21T14:32:54Z</time>
      </trkpt>
      <trkpt lat="45.75808" lon="3.58238">
        <ele>435</ele>
        <time>2017-09-21T14:33:06Z</time>
      </trkpt>
      <trkpt lat="45.75816" lon="3.58247">
        <ele>435</ele>
        <time>2017-09-21T14:33:16Z</time>
      </trkpt>
      <trkpt lat="45.75814" lon="3.58247">
        <ele>435</ele>
        <time>2017-09-21T14:33:20Z</time>
      </trkpt>
      <trkpt lat="45.75803" lon="3.58236">
        <ele>435</ele>
        <time>2017-09-21T14:33:26Z</time>
      </trkpt>
      <trkpt lat="45.75785" lon="3.58221">
        <ele>435</ele>
        <time>2017-09-21T14:33:33Z</time>
      </trkpt>
      <trkpt lat="45.75772" lon="3.58213">
        <ele>435</ele>
        <time>2017-09-21T14:33:39Z</time>
      </trkpt>
      <trkpt lat="45.75765" lon="3.58211">
        <ele>435</ele>
        <time>2017-09-21T14:33:44Z</time>
      </trkpt>
      <trkpt lat="45.75762" lon="3.58221">
        <ele>435</ele>
        <time>2017-09-21T14:33:49Z</time>
      </trkpt>
      <trkpt lat="45.75764" lon="3.58246">
        <ele>435</ele>
        <time>2017-09-21T14:34:00Z</time>
      </trkpt>
      <trkpt lat="45.75765" lon="3.58269">
        <ele>434</ele>
        <time>2017-09-21T14:34:10Z</time>
      </trkpt>
      <trkpt lat="45.75763" lon="3.58292">
        <ele>434</ele>
        <time>2017-09-21T14:34:20Z</time>
      </trkpt>
      <trkpt lat="45.7576" lon="3.58307">
        <ele>433</ele>
        <time>2017-09-21T14:34:27Z</time>
      </trkpt>
      <trkpt lat="45.75755" lon="3.58323">
        <ele>433</ele>
        <time>2017-09-21T14:34:35Z</time>
      </trkpt>
      <trkpt lat="45.75749" lon="3.58338">
        <ele>432</ele>
        <time>2017-09-21T14:34:42Z</time>
      </trkpt>
      <trkpt lat="45.75742" lon="3.5835">
        <ele>431</ele>
        <time>2017-09-21T14:34:49Z</time>
      </trkpt>
      <trkpt lat="45.75741" lon="3.58352">
        <ele>431</ele>
        <time>2017-09-21T14:34:50Z</time>
      </trkpt>
      <trkpt lat="45.75735" lon="3.58367">
        <ele>431</ele>
        <time>2017-09-21T14:34:57Z</time>
      </trkpt>
      <trkpt lat="45.7573" lon="3.58381">
        <ele>431</ele>
        <time>2017-09-21T14:35:05Z</time>
      </trkpt>
      <trkpt lat="45.75724" lon="3.58399">
        <ele>430</ele>
        <time>2017-09-21T14:35:14Z</time>
      </trkpt>
      <trkpt lat="45.75723" lon="3.58405">
        <ele>430</ele>
        <time>2017-09-21T14:35:17Z</time>
      </trkpt>
      <trkpt lat="45.75719" lon="3.58418">
        <ele>430</ele>
        <time>2017-09-21T14:35:23Z</time>
      </trkpt>
      <trkpt lat="45.75718" lon="3.5842">
        <ele>430</ele>
        <time>2017-09-21T14:35:24Z</time>
      </trkpt>
      <trkpt lat="45.75714" lon="3.58435">
        <ele>430</ele>
        <time>2017-09-21T14:35:31Z</time>
      </trkpt>
      <trkpt lat="45.7571" lon="3.58453">
        <ele>431</ele>
        <time>2017-09-21T14:35:39Z</time>
      </trkpt>
      <trkpt lat="45.75707" lon="3.58472">
        <ele>431</ele>
        <time>2017-09-21T14:35:48Z</time>
      </trkpt>
      <trkpt lat="45.75705" lon="3.58497">
        <ele>432</ele>
        <time>2017-09-21T14:35:59Z</time>
      </trkpt>
      <trkpt lat="45.75705" lon="3.58519">
        <ele>433</ele>
        <time>2017-09-21T14:36:09Z</time>
      </trkpt>
      <trkpt lat="45.75704" lon="3.58544">
        <ele>432</ele>
        <time>2017-09-21T14:36:20Z</time>
      </trkpt>
      <trkpt lat="45.75705" lon="3.58562">
        <ele>432</ele>
        <time>2017-09-21T14:36:28Z</time>
      </trkpt>
      <trkpt lat="45.75706" lon="3.58584">
        <ele>432</ele>
        <time>2017-09-21T14:36:38Z</time>
      </trkpt>
      <trkpt lat="45.75708" lon="3.58606">
        <ele>432</ele>
        <time>2017-09-21T14:36:48Z</time>
      </trkpt>
      <trkpt lat="45.7571" lon="3.58623">
        <ele>431</ele>
        <time>2017-09-21T14:36:56Z</time>
      </trkpt>
      <trkpt lat="45.75712" lon="3.58643">
        <ele>431</ele>
        <time>2017-09-21T14:37:06Z</time>
      </trkpt>
      <trkpt lat="45.75714" lon="3.58662">
        <ele>430</ele>
        <time>2017-09-21T14:37:15Z</time>
      </trkpt>
      <trkpt lat="45.75717" lon="3.58683">
        <ele>430</ele>
        <time>2017-09-21T14:37:25Z</time>
      </trkpt>
      <trkpt lat="45.75719" lon="3.58703">
        <ele>430</ele>
        <time>2017-09-21T14:37:34Z</time>
      </trkpt>
      <trkpt lat="45.75721" lon="3.58719">
        <ele>430</ele>
        <time>2017-09-21T14:37:42Z</time>
      </trkpt>
      <trkpt lat="45.7572" lon="3.58734">
        <ele>430</ele>
        <time>2017-09-21T14:37:49Z</time>
      </trkpt>
      <trkpt lat="45.7572" lon="3.58754">
        <ele>430</ele>
        <time>2017-09-21T14:37:59Z</time>
      </trkpt>
      <trkpt lat="45.75717" lon="3.58789">
        <ele>430</ele>
        <time>2017-09-21T14:38:16Z</time>
      </trkpt>
      <trkpt lat="45.75715" lon="3.58803">
        <ele>430</ele>
        <time>2017-09-21T14:38:24Z</time>
      </trkpt>
      <trkpt lat="45.75713" lon="3.58807">
        <ele>430</ele>
        <time>2017-09-21T14:38:30Z</time>
      </trkpt>
      <trkpt lat="45.75711" lon="3.58806">
        <ele>430</ele>
        <time>2017-09-21T14:38:36Z</time>
      </trkpt>
      <trkpt lat="45.75713" lon="3.58807">
        <ele>430</ele>
        <time>2017-09-21T14:38:46Z</time>
      </trkpt>
      <trkpt lat="45.75705" lon="3.58812">
        <ele>429</ele>
        <time>2017-09-21T14:39:01Z</time>
      </trkpt>
      <trkpt lat="45.757" lon="3.58817">
        <ele>429</ele>
        <time>2017-09-21T14:39:05Z</time>
      </trkpt>
      <trkpt lat="45.7569" lon="3.58832">
        <ele>428</ele>
        <time>2017-09-21T14:39:15Z</time>
      </trkpt>
      <trkpt lat="45.75677" lon="3.58846">
        <ele>426</ele>
        <time>2017-09-21T14:39:26Z</time>
      </trkpt>
      <trkpt lat="45.75667" lon="3.58856">
        <ele>424</ele>
        <time>2017-09-21T14:39:34Z</time>
      </trkpt>
      <trkpt lat="45.75663" lon="3.5886">
        <ele>424</ele>
        <time>2017-09-21T14:39:37Z</time>
      </trkpt>
      <trkpt lat="45.75652" lon="3.58873">
        <ele>422</ele>
        <time>2017-09-21T14:39:46Z</time>
      </trkpt>
      <trkpt lat="45.75643" lon="3.58884">
        <ele>421</ele>
        <time>2017-09-21T14:39:54Z</time>
      </trkpt>
      <trkpt lat="45.7563" lon="3.58901">
        <ele>420</ele>
        <time>2017-09-21T14:40:05Z</time>
      </trkpt>
      <trkpt lat="45.7562" lon="3.58918">
        <ele>418</ele>
        <time>2017-09-21T14:40:15Z</time>
      </trkpt>
      <trkpt lat="45.7561" lon="3.58937">
        <ele>417</ele>
        <time>2017-09-21T14:40:26Z</time>
      </trkpt>
      <trkpt lat="45.75597" lon="3.58955">
        <ele>417</ele>
        <time>2017-09-21T14:40:38Z</time>
      </trkpt>
      <trkpt lat="45.75585" lon="3.58971">
        <ele>416</ele>
        <time>2017-09-21T14:40:49Z</time>
      </trkpt>
      <trkpt lat="45.75573" lon="3.58987">
        <ele>416</ele>
        <time>2017-09-21T14:41:00Z</time>
      </trkpt>
      <trkpt lat="45.75566" lon="3.58997">
        <ele>415</ele>
        <time>2017-09-21T14:41:08Z</time>
      </trkpt>
      <trkpt lat="45.75556" lon="3.59014">
        <ele>415</ele>
        <time>2017-09-21T14:41:18Z</time>
      </trkpt>
      <trkpt lat="45.75547" lon="3.59029">
        <ele>414</ele>
        <time>2017-09-21T14:41:28Z</time>
      </trkpt>
      <trkpt lat="45.7554" lon="3.59042">
        <ele>414</ele>
        <time>2017-09-21T14:41:36Z</time>
      </trkpt>
      <trkpt lat="45.75534" lon="3.59056">
        <ele>413</ele>
        <time>2017-09-21T14:41:44Z</time>
      </trkpt>
      <trkpt lat="45.7553" lon="3.59064">
        <ele>413</ele>
        <time>2017-09-21T14:41:52Z</time>
      </trkpt>
      <trkpt lat="45.75527" lon="3.59071">
        <ele>413</ele>
        <time>2017-09-21T14:42:00Z</time>
      </trkpt>
      <trkpt lat="45.75521" lon="3.59086">
        <ele>412</ele>
        <time>2017-09-21T14:42:09Z</time>
      </trkpt>
      <trkpt lat="45.75517" lon="3.59094">
        <ele>412</ele>
        <time>2017-09-21T14:42:15Z</time>
      </trkpt>
      <trkpt lat="45.75514" lon="3.591">
        <ele>411</ele>
        <time>2017-09-21T14:42:23Z</time>
      </trkpt>
      <trkpt lat="45.7551" lon="3.59113">
        <ele>410</ele>
        <time>2017-09-21T14:42:30Z</time>
      </trkpt>
      <trkpt lat="45.75508" lon="3.59124">
        <ele>410</ele>
        <time>2017-09-21T14:42:35Z</time>
      </trkpt>
      <trkpt lat="45.75506" lon="3.59142">
        <ele>409</ele>
        <time>2017-09-21T14:42:45Z</time>
      </trkpt>
      <trkpt lat="45.75502" lon="3.59156">
        <ele>409</ele>
        <time>2017-09-21T14:42:52Z</time>
      </trkpt>
      <trkpt lat="45.75496" lon="3.59168">
        <ele>409</ele>
        <time>2017-09-21T14:43:00Z</time>
      </trkpt>
      <trkpt lat="45.75492" lon="3.59185">
        <ele>409</ele>
        <time>2017-09-21T14:43:10Z</time>
      </trkpt>
      <trkpt lat="45.75488" lon="3.59203">
        <ele>408</ele>
        <time>2017-09-21T14:43:19Z</time>
      </trkpt>
      <trkpt lat="45.75487" lon="3.59215">
        <ele>408</ele>
        <time>2017-09-21T14:43:27Z</time>
      </trkpt>
      <trkpt lat="45.75494" lon="3.59219">
        <ele>408</ele>
        <time>2017-09-21T14:43:33Z</time>
      </trkpt>
      <trkpt lat="45.75509" lon="3.59225">
        <ele>408</ele>
        <time>2017-09-21T14:43:43Z</time>
      </trkpt>
      <trkpt lat="45.75519" lon="3.59229">
        <ele>408</ele>
        <time>2017-09-21T14:43:52Z</time>
      </trkpt>
      <trkpt lat="45.75535" lon="3.59237">
        <ele>407</ele>
        <time>2017-09-21T14:44:04Z</time>
      </trkpt>
      <trkpt lat="45.75543" lon="3.59241">
        <ele>407</ele>
        <time>2017-09-21T14:44:12Z</time>
      </trkpt>
      <trkpt lat="45.75553" lon="3.59244">
        <ele>407</ele>
        <time>2017-09-21T14:44:19Z</time>
      </trkpt>
      <trkpt lat="45.75563" lon="3.59247">
        <ele>407</ele>
        <time>2017-09-21T14:44:28Z</time>
      </trkpt>
      <trkpt lat="45.75567" lon="3.59253">
        <ele>407</ele>
        <time>2017-09-21T14:44:32Z</time>
      </trkpt>
      <trkpt lat="45.75567" lon="3.59256">
        <ele>407</ele>
        <time>2017-09-21T14:44:34Z</time>
      </trkpt>
      <trkpt lat="45.75566" lon="3.59264">
        <ele>407</ele>
        <time>2017-09-21T14:44:39Z</time>
      </trkpt>
      <trkpt lat="45.75562" lon="3.59268">
        <ele>407</ele>
        <time>2017-09-21T14:44:43Z</time>
      </trkpt>
      <trkpt lat="45.75562" lon="3.59267">
        <ele>407</ele>
        <time>2017-09-21T14:44:50Z</time>
      </trkpt>
      <trkpt lat="45.75559" lon="3.59265">
        <ele>407</ele>
        <time>2017-09-21T14:45:00Z</time>
      </trkpt>
      <trkpt lat="45.75557" lon="3.59262">
        <ele>407</ele>
        <time>2017-09-21T14:45:03Z</time>
      </trkpt>
      <trkpt lat="45.75554" lon="3.59259">
        <ele>407</ele>
        <time>2017-09-21T14:45:09Z</time>
      </trkpt>
      <trkpt lat="45.75555" lon="3.59261">
        <ele>407</ele>
        <time>2017-09-21T14:45:14Z</time>
      </trkpt>
      <trkpt lat="45.75556" lon="3.59263">
        <ele>407</ele>
        <time>2017-09-21T14:45:22Z</time>
      </trkpt>
      <trkpt lat="45.75555" lon="3.59264">
        <ele>407</ele>
        <time>2017-09-21T14:45:36Z</time>
      </trkpt>
      <trkpt lat="45.75554" lon="3.59265">
        <ele>407</ele>
        <time>2017-09-21T14:45:46Z</time>
      </trkpt>
      <trkpt lat="45.75554" lon="3.59267">
        <ele>407</ele>
        <time>2017-09-21T14:45:58Z</time>
      </trkpt>
      <trkpt lat="45.75554" lon="3.59266">
        <ele>407</ele>
        <time>2017-09-21T14:46:05Z</time>
      </trkpt>
      <trkpt lat="45.75556" lon="3.59267">
        <ele>407</ele>
        <time>2017-09-21T14:46:17Z</time>
      </trkpt>
      <trkpt lat="45.75558" lon="3.59272">
        <ele>406</ele>
        <time>2017-09-21T14:46:20Z</time>
      </trkpt>
      <trkpt lat="45.75559" lon="3.59272">
        <ele>406</ele>
        <time>2017-09-21T14:46:28Z</time>
      </trkpt>
      <trkpt lat="45.75555" lon="3.59267">
        <ele>407</ele>
        <time>2017-09-21T14:46:44Z</time>
      </trkpt>
      <trkpt lat="45.75556" lon="3.59267">
        <ele>407</ele>
        <time>2017-09-21T14:46:50Z</time>
      </trkpt>
      <trkpt lat="45.75559" lon="3.5927">
        <ele>406</ele>
        <time>2017-09-21T14:46:54Z</time>
      </trkpt>
      <trkpt lat="45.75557" lon="3.59268">
        <ele>407</ele>
        <time>2017-09-21T14:47:03Z</time>
      </trkpt>
      <trkpt lat="45.75556" lon="3.59267">
        <ele>407</ele>
        <time>2017-09-21T14:47:04Z</time>
      </trkpt>
      <trkpt lat="45.75556" lon="3.59266">
        <ele>407</ele>
        <time>2017-09-21T14:47:10Z</time>
      </trkpt>
      <trkpt lat="45.75555" lon="3.59264">
        <ele>407</ele>
        <time>2017-09-21T14:47:30Z</time>
      </trkpt>
      <trkpt lat="45.75558" lon="3.59266">
        <ele>407</ele>
        <time>2017-09-21T14:47:47Z</time>
      </trkpt>
      <trkpt lat="45.7556" lon="3.59267">
        <ele>407</ele>
        <time>2017-09-21T14:47:51Z</time>
      </trkpt>
      <trkpt lat="45.7556" lon="3.59267">
        <ele>407</ele>
        <time>2017-09-21T14:48:01Z</time>
      </trkpt>
      <trkpt lat="45.75556" lon="3.59263">
        <ele>407</ele>
        <time>2017-09-21T14:48:10Z</time>
      </trkpt>
      <trkpt lat="45.75557" lon="3.59264">
        <ele>407</ele>
        <time>2017-09-21T14:48:15Z</time>
      </trkpt>
      <trkpt lat="45.75556" lon="3.59262">
        <ele>407</ele>
        <time>2017-09-21T14:48:18Z</time>
      </trkpt>
      <trkpt lat="45.7556" lon="3.59266">
        <ele>407</ele>
        <time>2017-09-21T14:48:24Z</time>
      </trkpt>
      <trkpt lat="45.7556" lon="3.59266">
        <ele>407</ele>
        <time>2017-09-21T14:48:33Z</time>
      </trkpt>
      <trkpt lat="45.75561" lon="3.59267">
        <ele>407</ele>
        <time>2017-09-21T14:49:14Z</time>
      </trkpt>
      <trkpt lat="45.7556" lon="3.59267">
        <ele>407</ele>
        <time>2017-09-21T14:49:27Z</time>
      </trkpt>
      <trkpt lat="45.7556" lon="3.59268">
        <ele>407</ele>
        <time>2017-09-21T14:49:35Z</time>
      </trkpt>
      <trkpt lat="45.7556" lon="3.59268">
        <ele>407</ele>
        <time>2017-09-21T14:49:40Z</time>
      </trkpt>
      <trkpt lat="45.7556" lon="3.59266">
        <ele>407</ele>
        <time>2017-09-21T14:49:50Z</time>
      </trkpt>
      <trkpt lat="45.7556" lon="3.59266">
        <ele>407</ele>
        <time>2017-09-21T14:49:55Z</time>
      </trkpt>
      <trkpt lat="45.75553" lon="3.59258">
        <ele>407</ele>
        <time>2017-09-21T14:50:13Z</time>
      </trkpt>
      <trkpt lat="45.7555" lon="3.59256">
        <ele>407</ele>
        <time>2017-09-21T14:50:29Z</time>
      </trkpt>
      <trkpt lat="45.75551" lon="3.59257">
        <ele>407</ele>
        <time>2017-09-21T14:50:35Z</time>
      </trkpt>
      <trkpt lat="45.75551" lon="3.59259">
        <ele>407</ele>
        <time>2017-09-21T14:50:40Z</time>
      </trkpt>
      <trkpt lat="45.75554" lon="3.59263">
        <ele>407</ele>
        <time>2017-09-21T14:50:47Z</time>
      </trkpt>
      <trkpt lat="45.75556" lon="3.59265">
        <ele>407</ele>
        <time>2017-09-21T14:50:52Z</time>
      </trkpt>
      <trkpt lat="45.75555" lon="3.59265">
        <ele>407</ele>
        <time>2017-09-21T14:51:09Z</time>
      </trkpt>
      <trkpt lat="45.75555" lon="3.59265">
        <ele>407</ele>
        <time>2017-09-21T14:51:17Z</time>
      </trkpt>
      <trkpt lat="45.75555" lon="3.59265">
        <ele>407</ele>
        <time>2017-09-21T14:51:27Z</time>
      </trkpt>
      <trkpt lat="45.75556" lon="3.59265">
        <ele>407</ele>
        <time>2017-09-21T14:51:49Z</time>
      </trkpt>
      <trkpt lat="45.75555" lon="3.59265">
        <ele>407</ele>
        <time>2017-09-21T14:51:54Z</time>
      </trkpt>
      <trkpt lat="45.75555" lon="3.59265">
        <ele>407</ele>
        <time>2017-09-21T14:51:56Z</time>
      </trkpt>
      <trkpt lat="45.75447" lon="3.59255">
        <ele>404</ele>
        <time>2017-09-20T07:38:29Z</time>
      </trkpt>
      <trkpt lat="45.75459" lon="3.59262">
        <ele>404</ele>
        <time>2017-09-20T07:38:40Z</time>
      </trkpt>
      <trkpt lat="45.75473" lon="3.59268">
        <ele>405</ele>
        <time>2017-09-20T07:38:52Z</time>
      </trkpt>
      <trkpt lat="45.75488" lon="3.59273">
        <ele>405</ele>
        <time>2017-09-20T07:39:04Z</time>
      </trkpt>
      <trkpt lat="45.75511" lon="3.59271">
        <ele>405</ele>
        <time>2017-09-20T07:39:13Z</time>
      </trkpt>
      <trkpt lat="45.75528" lon="3.59271">
        <ele>406</ele>
        <time>2017-09-20T07:39:22Z</time>
      </trkpt>
      <trkpt lat="45.75531" lon="3.59269">
        <ele>406</ele>
        <time>2017-09-20T07:39:24Z</time>
      </trkpt>
      <trkpt lat="45.75548" lon="3.59268">
        <ele>406</ele>
        <time>2017-09-20T07:39:34Z</time>
      </trkpt>
      <trkpt lat="45.75551" lon="3.59269">
        <ele>406</ele>
        <time>2017-09-20T07:39:37Z</time>
      </trkpt>
      <trkpt lat="45.75564" lon="3.59262">
        <ele>407</ele>
        <time>2017-09-20T07:39:58Z</time>
      </trkpt>
      <trkpt lat="45.75577" lon="3.59265">
        <ele>406</ele>
        <time>2017-09-20T07:40:07Z</time>
      </trkpt>
      <trkpt lat="45.7559" lon="3.59267">
        <ele>406</ele>
        <time>2017-09-20T07:40:16Z</time>
      </trkpt>
      <trkpt lat="45.756" lon="3.5927">
        <ele>406</ele>
        <time>2017-09-20T07:40:24Z</time>
      </trkpt>
      <trkpt lat="45.75613" lon="3.59272">
        <ele>406</ele>
        <time>2017-09-20T07:40:34Z</time>
      </trkpt>
      <trkpt lat="45.75622" lon="3.59275">
        <ele>406</ele>
        <time>2017-09-20T07:40:42Z</time>
      </trkpt>
      <trkpt lat="45.75641" lon="3.59281">
        <ele>405</ele>
        <time>2017-09-20T07:41:00Z</time>
      </trkpt>
      <trkpt lat="45.7565" lon="3.59287">
        <ele>405</ele>
        <time>2017-09-20T07:41:09Z</time>
      </trkpt>
      <trkpt lat="45.7566" lon="3.59296">
        <ele>404</ele>
        <time>2017-09-20T07:41:19Z</time>
      </trkpt>
      <trkpt lat="45.75667" lon="3.59304">
        <ele>403</ele>
        <time>2017-09-20T07:41:26Z</time>
      </trkpt>
      <trkpt lat="45.7567" lon="3.5931">
        <ele>403</ele>
        <time>2017-09-20T07:41:31Z</time>
      </trkpt>
      <trkpt lat="45.7567" lon="3.59325">
        <ele>403</ele>
        <time>2017-09-20T07:41:40Z</time>
      </trkpt>
      <trkpt lat="45.75669" lon="3.59326">
        <ele>403</ele>
        <time>2017-09-20T07:41:41Z</time>
      </trkpt>
      <trkpt lat="45.75667" lon="3.59338">
        <ele>402</ele>
        <time>2017-09-20T07:41:48Z</time>
      </trkpt>
      <trkpt lat="45.75665" lon="3.59343">
        <ele>402</ele>
        <time>2017-09-20T07:41:58Z</time>
      </trkpt>
      <trkpt lat="45.7566" lon="3.59354">
        <ele>403</ele>
        <time>2017-09-20T07:42:06Z</time>
      </trkpt>
      <trkpt lat="45.75654" lon="3.59363">
        <ele>403</ele>
        <time>2017-09-20T07:42:14Z</time>
      </trkpt>
      <trkpt lat="45.75656" lon="3.59361">
        <ele>403</ele>
        <time>2017-09-20T07:42:19Z</time>
      </trkpt>
      <trkpt lat="45.75657" lon="3.59363">
        <ele>403</ele>
        <time>2017-09-20T07:42:23Z</time>
      </trkpt>
      <trkpt lat="45.75652" lon="3.59368">
        <ele>403</ele>
        <time>2017-09-20T07:42:29Z</time>
      </trkpt>
      <trkpt lat="45.75646" lon="3.59378">
        <ele>402</ele>
        <time>2017-09-20T07:42:37Z</time>
      </trkpt>
      <trkpt lat="45.75639" lon="3.5939">
        <ele>401</ele>
        <time>2017-09-20T07:42:47Z</time>
      </trkpt>
      <trkpt lat="45.75634" lon="3.59398">
        <ele>400</ele>
        <time>2017-09-20T07:42:54Z</time>
      </trkpt>
      <trkpt lat="45.75627" lon="3.59409">
        <ele>399</ele>
        <time>2017-09-20T07:43:02Z</time>
      </trkpt>
      <trkpt lat="45.75621" lon="3.59417">
        <ele>399</ele>
        <time>2017-09-20T07:43:09Z</time>
      </trkpt>
      <trkpt lat="45.75612" lon="3.5943">
        <ele>398</ele>
        <time>2017-09-20T07:43:18Z</time>
      </trkpt>
      <trkpt lat="45.75601" lon="3.59446">
        <ele>397</ele>
        <time>2017-09-20T07:43:29Z</time>
      </trkpt>
      <trkpt lat="45.75592" lon="3.59458">
        <ele>397</ele>
        <time>2017-09-20T07:43:37Z</time>
      </trkpt>
      <trkpt lat="45.75591" lon="3.5946">
        <ele>397</ele>
        <time>2017-09-20T07:43:38Z</time>
      </trkpt>
      <trkpt lat="45.75583" lon="3.5947">
        <ele>396</ele>
        <time>2017-09-20T07:43:42Z</time>
      </trkpt>
      <trkpt lat="45.75575" lon="3.59486">
        <ele>396</ele>
        <time>2017-09-20T07:43:52Z</time>
      </trkpt>
      <trkpt lat="45.75571" lon="3.59499">
        <ele>396</ele>
        <time>2017-09-20T07:44:00Z</time>
      </trkpt>
      <trkpt lat="45.75571" lon="3.59513">
        <ele>396</ele>
        <time>2017-09-20T07:44:07Z</time>
      </trkpt>
      <trkpt lat="45.75568" lon="3.59526">
        <ele>395</ele>
        <time>2017-09-20T07:44:14Z</time>
      </trkpt>
      <trkpt lat="45.75564" lon="3.59542">
        <ele>395</ele>
        <time>2017-09-20T07:44:23Z</time>
      </trkpt>
      <trkpt lat="45.75563" lon="3.59558">
        <ele>395</ele>
        <time>2017-09-20T07:44:31Z</time>
      </trkpt>
      <trkpt lat="45.75562" lon="3.59568">
        <ele>395</ele>
        <time>2017-09-20T07:44:36Z</time>
      </trkpt>
      <trkpt lat="45.75561" lon="3.59587">
        <ele>395</ele>
        <time>2017-09-20T07:44:46Z</time>
      </trkpt>
      <trkpt lat="45.75561" lon="3.59605">
        <ele>396</ele>
        <time>2017-09-20T07:44:55Z</time>
      </trkpt>
      <trkpt lat="45.75563" lon="3.59621">
        <ele>397</ele>
        <time>2017-09-20T07:45:03Z</time>
      </trkpt>
      <trkpt lat="45.75565" lon="3.59636">
        <ele>398</ele>
        <time>2017-09-20T07:45:11Z</time>
      </trkpt>
      <trkpt lat="45.75566" lon="3.59637">
        <ele>398</ele>
        <time>2017-09-20T07:45:12Z</time>
      </trkpt>
      <trkpt lat="45.75568" lon="3.59648">
        <ele>399</ele>
        <time>2017-09-20T07:45:19Z</time>
      </trkpt>
      <trkpt lat="45.75568" lon="3.59649">
        <ele>400</ele>
        <time>2017-09-20T07:45:20Z</time>
      </trkpt>
      <trkpt lat="45.75571" lon="3.59659">
        <ele>400</ele>
        <time>2017-09-20T07:45:26Z</time>
      </trkpt>
      <trkpt lat="45.75574" lon="3.59671">
        <ele>401</ele>
        <time>2017-09-20T07:45:34Z</time>
      </trkpt>
      <trkpt lat="45.75579" lon="3.59685">
        <ele>402</ele>
        <time>2017-09-20T07:45:45Z</time>
      </trkpt>
      <trkpt lat="45.7558" lon="3.59691">
        <ele>403</ele>
        <time>2017-09-20T07:45:49Z</time>
      </trkpt>
      <trkpt lat="45.75582" lon="3.59702">
        <ele>404</ele>
        <time>2017-09-20T07:45:56Z</time>
      </trkpt>
      <trkpt lat="45.75582" lon="3.59713">
        <ele>405</ele>
        <time>2017-09-20T07:46:03Z</time>
      </trkpt>
      <trkpt lat="45.75582" lon="3.59714">
        <ele>405</ele>
        <time>2017-09-20T07:46:04Z</time>
      </trkpt>
      <trkpt lat="45.75583" lon="3.59717">
        <ele>405</ele>
        <time>2017-09-20T07:46:06Z</time>
      </trkpt>
      <trkpt lat="45.75583" lon="3.59724">
        <ele>406</ele>
        <time>2017-09-20T07:46:10Z</time>
      </trkpt>
      <trkpt lat="45.75583" lon="3.59727">
        <ele>406</ele>
        <time>2017-09-20T07:46:12Z</time>
      </trkpt>
      <trkpt lat="45.75581" lon="3.59741">
        <ele>408</ele>
        <time>2017-09-20T07:46:20Z</time>
      </trkpt>
      <trkpt lat="45.75579" lon="3.59743">
        <ele>409</ele>
        <time>2017-09-20T07:46:22Z</time>
      </trkpt>
      <trkpt lat="45.75578" lon="3.59744">
        <ele>409</ele>
        <time>2017-09-20T07:46:29Z</time>
      </trkpt>
      <trkpt lat="45.75582" lon="3.59743">
        <ele>408</ele>
        <time>2017-09-20T07:46:30Z</time>
      </trkpt>
      <trkpt lat="45.75589" lon="3.59741">
        <ele>407</ele>
        <time>2017-09-20T07:46:31Z</time>
      </trkpt>
      <trkpt lat="45.75593" lon="3.59742">
        <ele>407</ele>
        <time>2017-09-20T07:46:35Z</time>
      </trkpt>
      <trkpt lat="45.75586" lon="3.59742">
        <ele>408</ele>
        <time>2017-09-20T07:47:28Z</time>
      </trkpt>
      <trkpt lat="45.75584" lon="3.59748">
        <ele>409</ele>
        <time>2017-09-20T07:48:05Z</time>
      </trkpt>
      <trkpt lat="45.75583" lon="3.59757">
        <ele>410</ele>
        <time>2017-09-20T07:48:11Z</time>
      </trkpt>
      <trkpt lat="45.75578" lon="3.5977">
        <ele>412</ele>
        <time>2017-09-20T07:48:19Z</time>
      </trkpt>
      <trkpt lat="45.75577" lon="3.59775">
        <ele>412</ele>
        <time>2017-09-20T07:48:22Z</time>
      </trkpt>
      <trkpt lat="45.75575" lon="3.59781">
        <ele>413</ele>
        <time>2017-09-20T07:48:26Z</time>
      </trkpt>
      <trkpt lat="45.75572" lon="3.59792">
        <ele>414</ele>
        <time>2017-09-20T07:48:33Z</time>
      </trkpt>
      <trkpt lat="45.75569" lon="3.59803">
        <ele>414</ele>
        <time>2017-09-20T07:48:40Z</time>
      </trkpt>
      <trkpt lat="45.75567" lon="3.59813">
        <ele>414</ele>
        <time>2017-09-20T07:48:46Z</time>
      </trkpt>
      <trkpt lat="45.75563" lon="3.59829">
        <ele>415</ele>
        <time>2017-09-20T07:48:55Z</time>
      </trkpt>
      <trkpt lat="45.75558" lon="3.59848">
        <ele>415</ele>
        <time>2017-09-20T07:49:06Z</time>
      </trkpt>
      <trkpt lat="45.75554" lon="3.59864">
        <ele>416</ele>
        <time>2017-09-20T07:49:15Z</time>
      </trkpt>
      <trkpt lat="45.75551" lon="3.59881">
        <ele>416</ele>
        <time>2017-09-20T07:49:24Z</time>
      </trkpt>
      <trkpt lat="45.75548" lon="3.59896">
        <ele>416</ele>
        <time>2017-09-20T07:49:32Z</time>
      </trkpt>
      <trkpt lat="45.75548" lon="3.59899">
        <ele>416</ele>
        <time>2017-09-20T07:49:33Z</time>
      </trkpt>
      <trkpt lat="45.75547" lon="3.59909">
        <ele>416</ele>
        <time>2017-09-20T07:49:38Z</time>
      </trkpt>
      <trkpt lat="45.75547" lon="3.59925">
        <ele>416</ele>
        <time>2017-09-20T07:49:46Z</time>
      </trkpt>
      <trkpt lat="45.75549" lon="3.59938">
        <ele>416</ele>
        <time>2017-09-20T07:49:53Z</time>
      </trkpt>
      <trkpt lat="45.75549" lon="3.59946">
        <ele>416</ele>
        <time>2017-09-20T07:49:59Z</time>
      </trkpt>
      <trkpt lat="45.75549" lon="3.59947">
        <ele>416</ele>
        <time>2017-09-20T07:50:09Z</time>
      </trkpt>
      <trkpt lat="45.7555" lon="3.59948">
        <ele>416</ele>
        <time>2017-09-20T07:50:10Z</time>
      </trkpt>
      <trkpt lat="45.75552" lon="3.59958">
        <ele>416</ele>
        <time>2017-09-20T07:50:15Z</time>
      </trkpt>
      <trkpt lat="45.75555" lon="3.59982">
        <ele>417</ele>
        <time>2017-09-20T07:50:25Z</time>
      </trkpt>
      <trkpt lat="45.75557" lon="3.59995">
        <ele>417</ele>
        <time>2017-09-20T07:50:31Z</time>
      </trkpt>
      <trkpt lat="45.7556" lon="3.6001">
        <ele>417</ele>
        <time>2017-09-20T07:50:38Z</time>
      </trkpt>
      <trkpt lat="45.75562" lon="3.60029">
        <ele>418</ele>
        <time>2017-09-20T07:50:47Z</time>
      </trkpt>
      <trkpt lat="45.75567" lon="3.60053">
        <ele>419</ele>
        <time>2017-09-20T07:51:00Z</time>
      </trkpt>
      <trkpt lat="45.75571" lon="3.60071">
        <ele>419</ele>
        <time>2017-09-20T07:51:09Z</time>
      </trkpt>
      <trkpt lat="45.75574" lon="3.60095">
        <ele>420</ele>
        <time>2017-09-20T07:51:21Z</time>
      </trkpt>
      <trkpt lat="45.75577" lon="3.60116">
        <ele>421</ele>
        <time>2017-09-20T07:51:31Z</time>
      </trkpt>
      <trkpt lat="45.7558" lon="3.60138">
        <ele>422</ele>
        <time>2017-09-20T07:51:43Z</time>
      </trkpt>
      <trkpt lat="45.75581" lon="3.60144">
        <ele>423</ele>
        <time>2017-09-20T07:51:46Z</time>
      </trkpt>
      <trkpt lat="45.75583" lon="3.60156">
        <ele>423</ele>
        <time>2017-09-20T07:51:52Z</time>
      </trkpt>
      <trkpt lat="45.75586" lon="3.60182">
        <ele>424</ele>
        <time>2017-09-20T07:52:06Z</time>
      </trkpt>
      <trkpt lat="45.75588" lon="3.60199">
        <ele>425</ele>
        <time>2017-09-20T07:52:15Z</time>
      </trkpt>
      <trkpt lat="45.75589" lon="3.60215">
        <ele>425</ele>
        <time>2017-09-20T07:52:24Z</time>
      </trkpt>
      <trkpt lat="45.7559" lon="3.60227">
        <ele>426</ele>
        <time>2017-09-20T07:52:31Z</time>
      </trkpt>
      <trkpt lat="45.75592" lon="3.60243">
        <ele>427</ele>
        <time>2017-09-20T07:52:40Z</time>
      </trkpt>
      <trkpt lat="45.75593" lon="3.60263">
        <ele>427</ele>
        <time>2017-09-20T07:52:51Z</time>
      </trkpt>
      <trkpt lat="45.75592" lon="3.60277">
        <ele>428</ele>
        <time>2017-09-20T07:52:58Z</time>
      </trkpt>
      <trkpt lat="45.7559" lon="3.60299">
        <ele>429</ele>
        <time>2017-09-20T07:53:08Z</time>
      </trkpt>
      <trkpt lat="45.75589" lon="3.60317">
        <ele>430</ele>
        <time>2017-09-20T07:53:17Z</time>
      </trkpt>
      <trkpt lat="45.75589" lon="3.60327">
        <ele>430</ele>
        <time>2017-09-20T07:53:22Z</time>
      </trkpt>
      <trkpt lat="45.75589" lon="3.60339">
        <ele>431</ele>
        <time>2017-09-20T07:53:29Z</time>
      </trkpt>
      <trkpt lat="45.75589" lon="3.60356">
        <ele>432</ele>
        <time>2017-09-20T07:53:37Z</time>
      </trkpt>
      <trkpt lat="45.7559" lon="3.60379">
        <ele>433</ele>
        <time>2017-09-20T07:53:48Z</time>
      </trkpt>
      <trkpt lat="45.7559" lon="3.60404">
        <ele>435</ele>
        <time>2017-09-20T07:54:00Z</time>
      </trkpt>
      <trkpt lat="45.7559" lon="3.60423">
        <ele>436</ele>
        <time>2017-09-20T07:54:09Z</time>
      </trkpt>
      <trkpt lat="45.75591" lon="3.60439">
        <ele>437</ele>
        <time>2017-09-20T07:54:17Z</time>
      </trkpt>
      <trkpt lat="45.75593" lon="3.60463">
        <ele>438</ele>
        <time>2017-09-20T07:54:28Z</time>
      </trkpt>
      <trkpt lat="45.75594" lon="3.60486">
        <ele>440</ele>
        <time>2017-09-20T07:54:36Z</time>
      </trkpt>
      <trkpt lat="45.75599" lon="3.60517">
        <ele>442</ele>
        <time>2017-09-20T07:54:51Z</time>
      </trkpt>
      <trkpt lat="45.75607" lon="3.60541">
        <ele>444</ele>
        <time>2017-09-20T07:55:02Z</time>
      </trkpt>
      <trkpt lat="45.75611" lon="3.60556">
        <ele>445</ele>
        <time>2017-09-20T07:55:10Z</time>
      </trkpt>
      <trkpt lat="45.75615" lon="3.60573">
        <ele>446</ele>
        <time>2017-09-20T07:55:19Z</time>
      </trkpt>
      <trkpt lat="45.75619" lon="3.60591">
        <ele>447</ele>
        <time>2017-09-20T07:55:28Z</time>
      </trkpt>
      <trkpt lat="45.75623" lon="3.60605">
        <ele>448</ele>
        <time>2017-09-20T07:55:34Z</time>
      </trkpt>
      <trkpt lat="45.75624" lon="3.60617">
        <ele>449</ele>
        <time>2017-09-20T07:55:40Z</time>
      </trkpt>
      <trkpt lat="45.75626" lon="3.60637">
        <ele>450</ele>
        <time>2017-09-20T07:55:50Z</time>
      </trkpt>
      <trkpt lat="45.75627" lon="3.60657">
        <ele>452</ele>
        <time>2017-09-20T07:56:00Z</time>
      </trkpt>
      <trkpt lat="45.75628" lon="3.60676">
        <ele>453</ele>
        <time>2017-09-20T07:56:09Z</time>
      </trkpt>
      <trkpt lat="45.75629" lon="3.6069">
        <ele>453</ele>
        <time>2017-09-20T07:56:16Z</time>
      </trkpt>
      <trkpt lat="45.75634" lon="3.60702">
        <ele>453</ele>
        <time>2017-09-20T07:56:23Z</time>
      </trkpt>
      <trkpt lat="45.75646" lon="3.60713">
        <ele>453</ele>
        <time>2017-09-20T07:56:33Z</time>
      </trkpt>
      <trkpt lat="45.75658" lon="3.60715">
        <ele>453</ele>
        <time>2017-09-20T07:56:42Z</time>
      </trkpt>
      <trkpt lat="45.75675" lon="3.60713">
        <ele>453</ele>
        <time>2017-09-20T07:56:54Z</time>
      </trkpt>
      <trkpt lat="45.75686" lon="3.60709">
        <ele>452</ele>
        <time>2017-09-20T07:57:03Z</time>
      </trkpt>
      <trkpt lat="45.75688" lon="3.60708">
        <ele>452</ele>
        <time>2017-09-20T07:57:04Z</time>
      </trkpt>
      <trkpt lat="45.75696" lon="3.60711">
        <ele>452</ele>
        <time>2017-09-20T07:57:10Z</time>
      </trkpt>
      <trkpt lat="45.75703" lon="3.60716">
        <ele>452</ele>
        <time>2017-09-20T07:57:17Z</time>
      </trkpt>
      <trkpt lat="45.7571" lon="3.60725">
        <ele>451</ele>
        <time>2017-09-20T07:57:24Z</time>
      </trkpt>
      <trkpt lat="45.75714" lon="3.60736">
        <ele>451</ele>
        <time>2017-09-20T07:57:30Z</time>
      </trkpt>
      <trkpt lat="45.75719" lon="3.60749">
        <ele>451</ele>
        <time>2017-09-20T07:57:37Z</time>
      </trkpt>
      <trkpt lat="45.75724" lon="3.6076">
        <ele>451</ele>
        <time>2017-09-20T07:57:43Z</time>
      </trkpt>
      <trkpt lat="45.75734" lon="3.60781">
        <ele>451</ele>
        <time>2017-09-20T07:57:55Z</time>
      </trkpt>
      <trkpt lat="45.7574" lon="3.60795">
        <ele>451</ele>
        <time>2017-09-20T07:58:03Z</time>
      </trkpt>
      <trkpt lat="45.75746" lon="3.60806">
        <ele>450</ele>
        <time>2017-09-20T07:58:09Z</time>
      </trkpt>
      <trkpt lat="45.75754" lon="3.60822">
        <ele>450</ele>
        <time>2017-09-20T07:58:18Z</time>
      </trkpt>
      <trkpt lat="45.75762" lon="3.60845">
        <ele>450</ele>
        <time>2017-09-20T07:58:30Z</time>
      </trkpt>
      <trkpt lat="45.75767" lon="3.6086">
        <ele>450</ele>
        <time>2017-09-20T07:58:38Z</time>
      </trkpt>
      <trkpt lat="45.75778" lon="3.60904">
        <ele>451</ele>
        <time>2017-09-20T07:59:00Z</time>
      </trkpt>
      <trkpt lat="45.7578" lon="3.60924">
        <ele>451</ele>
        <time>2017-09-20T07:59:09Z</time>
      </trkpt>
      <trkpt lat="45.75783" lon="3.60947">
        <ele>451</ele>
        <time>2017-09-20T07:59:20Z</time>
      </trkpt>
      <trkpt lat="45.75787" lon="3.60971">
        <ele>452</ele>
        <time>2017-09-20T07:59:31Z</time>
      </trkpt>
      <trkpt lat="45.75792" lon="3.60992">
        <ele>453</ele>
        <time>2017-09-20T07:59:42Z</time>
      </trkpt>
      <trkpt lat="45.75797" lon="3.61003">
        <ele>453</ele>
        <time>2017-09-20T07:59:49Z</time>
      </trkpt>
      <trkpt lat="45.75804" lon="3.61022">
        <ele>454</ele>
        <time>2017-09-20T07:59:59Z</time>
      </trkpt>
      <trkpt lat="45.75807" lon="3.61039">
        <ele>454</ele>
        <time>2017-09-20T08:00:08Z</time>
      </trkpt>
      <trkpt lat="45.75811" lon="3.61061">
        <ele>455</ele>
        <time>2017-09-20T08:00:19Z</time>
      </trkpt>
      <trkpt lat="45.75817" lon="3.61083">
        <ele>456</ele>
        <time>2017-09-20T08:00:31Z</time>
      </trkpt>
      <trkpt lat="45.75822" lon="3.61107">
        <ele>457</ele>
        <time>2017-09-20T08:00:44Z</time>
      </trkpt>
      <trkpt lat="45.75828" lon="3.61129">
        <ele>458</ele>
        <time>2017-09-20T08:00:56Z</time>
      </trkpt>
      <trkpt lat="45.75832" lon="3.61142">
        <ele>459</ele>
        <time>2017-09-20T08:01:03Z</time>
      </trkpt>
      <trkpt lat="45.75836" lon="3.61158">
        <ele>459</ele>
        <time>2017-09-20T08:01:11Z</time>
      </trkpt>
      <trkpt lat="45.7584" lon="3.61174">
        <ele>460</ele>
        <time>2017-09-20T08:01:20Z</time>
      </trkpt>
      <trkpt lat="45.75846" lon="3.61194">
        <ele>461</ele>
        <time>2017-09-20T08:01:31Z</time>
      </trkpt>
      <trkpt lat="45.75856" lon="3.6123">
        <ele>465</ele>
        <time>2017-09-20T08:01:50Z</time>
      </trkpt>
      <trkpt lat="45.7586" lon="3.61249">
        <ele>467</ele>
        <time>2017-09-20T08:02:00Z</time>
      </trkpt>
      <trkpt lat="45.75864" lon="3.61262">
        <ele>468</ele>
        <time>2017-09-20T08:02:07Z</time>
      </trkpt>
      <trkpt lat="45.75867" lon="3.6127">
        <ele>468</ele>
        <time>2017-09-20T08:02:12Z</time>
      </trkpt>
      <trkpt lat="45.75872" lon="3.61283">
        <ele>469</ele>
        <time>2017-09-20T08:02:20Z</time>
      </trkpt>
      <trkpt lat="45.75876" lon="3.61296">
        <ele>470</ele>
        <time>2017-09-20T08:02:28Z</time>
      </trkpt>
      <trkpt lat="45.75881" lon="3.61312">
        <ele>472</ele>
        <time>2017-09-20T08:02:37Z</time>
      </trkpt>
      <trkpt lat="45.75888" lon="3.61351">
        <ele>475</ele>
        <time>2017-09-20T08:02:58Z</time>
      </trkpt>
      <trkpt lat="45.75891" lon="3.61372">
        <ele>477</ele>
        <time>2017-09-20T08:03:09Z</time>
      </trkpt>
      <trkpt lat="45.75893" lon="3.61387">
        <ele>479</ele>
        <time>2017-09-20T08:03:17Z</time>
      </trkpt>
      <trkpt lat="45.75896" lon="3.61401">
        <ele>481</ele>
        <time>2017-09-20T08:03:26Z</time>
      </trkpt>
      <trkpt lat="45.75899" lon="3.61418">
        <ele>483</ele>
        <time>2017-09-20T08:03:36Z</time>
      </trkpt>
      <trkpt lat="45.759" lon="3.61436">
        <ele>486</ele>
        <time>2017-09-20T08:03:45Z</time>
      </trkpt>
      <trkpt lat="45.75896" lon="3.61457">
        <ele>489</ele>
        <time>2017-09-20T08:03:56Z</time>
      </trkpt>
      <trkpt lat="45.75891" lon="3.61468">
        <ele>490</ele>
        <time>2017-09-20T08:04:03Z</time>
      </trkpt>
      <trkpt lat="45.7589" lon="3.61469">
        <ele>490</ele>
        <time>2017-09-20T08:04:04Z</time>
      </trkpt>
      <trkpt lat="45.75884" lon="3.61477">
        <ele>491</ele>
        <time>2017-09-20T08:04:10Z</time>
      </trkpt>
      <trkpt lat="45.7588" lon="3.61484">
        <ele>492</ele>
        <time>2017-09-20T08:04:15Z</time>
      </trkpt>
      <trkpt lat="45.75875" lon="3.61491">
        <ele>492</ele>
        <time>2017-09-20T08:04:20Z</time>
      </trkpt>
      <trkpt lat="45.75868" lon="3.61499">
        <ele>493</ele>
        <time>2017-09-20T08:04:27Z</time>
      </trkpt>
      <trkpt lat="45.75863" lon="3.61505">
        <ele>494</ele>
        <time>2017-09-20T08:04:32Z</time>
      </trkpt>
      <trkpt lat="45.75854" lon="3.61515">
        <ele>495</ele>
        <time>2017-09-20T08:04:40Z</time>
      </trkpt>
      <trkpt lat="45.75847" lon="3.61524">
        <ele>495</ele>
        <time>2017-09-20T08:04:47Z</time>
      </trkpt>
      <trkpt lat="45.75844" lon="3.61526">
        <ele>496</ele>
        <time>2017-09-20T08:04:50Z</time>
      </trkpt>
      <trkpt lat="45.75836" lon="3.61537">
        <ele>497</ele>
        <time>2017-09-20T08:04:58Z</time>
      </trkpt>
      <trkpt lat="45.75831" lon="3.61546">
        <ele>497</ele>
        <time>2017-09-20T08:05:06Z</time>
      </trkpt>
      <trkpt lat="45.75828" lon="3.61557">
        <ele>499</ele>
        <time>2017-09-20T08:05:12Z</time>
      </trkpt>
      <trkpt lat="45.75827" lon="3.6156">
        <ele>499</ele>
        <time>2017-09-20T08:05:14Z</time>
      </trkpt>
      <trkpt lat="45.75823" lon="3.61571">
        <ele>500</ele>
        <time>2017-09-20T08:05:21Z</time>
      </trkpt>
      <trkpt lat="45.75823" lon="3.61573">
        <ele>500</ele>
        <time>2017-09-20T08:05:27Z</time>
      </trkpt>
      <trkpt lat="45.75821" lon="3.6158">
        <ele>501</ele>
        <time>2017-09-20T08:05:35Z</time>
      </trkpt>
      <trkpt lat="45.75819" lon="3.61584">
        <ele>501</ele>
        <time>2017-09-20T08:05:37Z</time>
      </trkpt>
      <trkpt lat="45.75814" lon="3.616">
        <ele>503</ele>
        <time>2017-09-20T08:05:47Z</time>
      </trkpt>
      <trkpt lat="45.75812" lon="3.61624">
        <ele>505</ele>
        <time>2017-09-20T08:06:00Z</time>
      </trkpt>
      <trkpt lat="45.75812" lon="3.61627">
        <ele>506</ele>
        <time>2017-09-20T08:06:02Z</time>
      </trkpt>
      <trkpt lat="45.75812" lon="3.61639">
        <ele>507</ele>
        <time>2017-09-20T08:06:09Z</time>
      </trkpt>
      <trkpt lat="45.75812" lon="3.61641">
        <ele>507</ele>
        <time>2017-09-20T08:06:10Z</time>
      </trkpt>
      <trkpt lat="45.75812" lon="3.61649">
        <ele>508</ele>
        <time>2017-09-20T08:06:14Z</time>
      </trkpt>
      <trkpt lat="45.75813" lon="3.61666">
        <ele>509</ele>
        <time>2017-09-20T08:06:23Z</time>
      </trkpt>
      <trkpt lat="45.75813" lon="3.61682">
        <ele>511</ele>
        <time>2017-09-20T08:06:32Z</time>
      </trkpt>
      <trkpt lat="45.75813" lon="3.61697">
        <ele>511</ele>
        <time>2017-09-20T08:06:40Z</time>
      </trkpt>
      <trkpt lat="45.75815" lon="3.61713">
        <ele>512</ele>
        <time>2017-09-20T08:06:49Z</time>
      </trkpt>
      <trkpt lat="45.75818" lon="3.61731">
        <ele>512</ele>
        <time>2017-09-20T08:06:59Z</time>
      </trkpt>
      <trkpt lat="45.75824" lon="3.61742">
        <ele>513</ele>
        <time>2017-09-20T08:07:06Z</time>
      </trkpt>
      <trkpt lat="45.75831" lon="3.61752">
        <ele>514</ele>
        <time>2017-09-20T08:07:14Z</time>
      </trkpt>
      <trkpt lat="45.75838" lon="3.6176">
        <ele>515</ele>
        <time>2017-09-20T08:07:21Z</time>
      </trkpt>
      <trkpt lat="45.75848" lon="3.6177">
        <ele>517</ele>
        <time>2017-09-20T08:07:30Z</time>
      </trkpt>
      <trkpt lat="45.75854" lon="3.61775">
        <ele>517</ele>
        <time>2017-09-20T08:07:36Z</time>
      </trkpt>
      <trkpt lat="45.75866" lon="3.61781">
        <ele>519</ele>
        <time>2017-09-20T08:07:44Z</time>
      </trkpt>
      <trkpt lat="45.75875" lon="3.61786">
        <ele>520</ele>
        <time>2017-09-20T08:07:51Z</time>
      </trkpt>
      <trkpt lat="45.75883" lon="3.61788">
        <ele>521</ele>
        <time>2017-09-20T08:07:58Z</time>
      </trkpt>
      <trkpt lat="45.75892" lon="3.61792">
        <ele>521</ele>
        <time>2017-09-20T08:08:05Z</time>
      </trkpt>
      <trkpt lat="45.75903" lon="3.61799">
        <ele>522</ele>
        <time>2017-09-20T08:08:14Z</time>
      </trkpt>
      <trkpt lat="45.75919" lon="3.61807">
        <ele>522</ele>
        <time>2017-09-20T08:08:25Z</time>
      </trkpt>
      <trkpt lat="45.75932" lon="3.61813">
        <ele>523</ele>
        <time>2017-09-20T08:08:35Z</time>
      </trkpt>
      <trkpt lat="45.7594" lon="3.61817">
        <ele>523</ele>
        <time>2017-09-20T08:08:41Z</time>
      </trkpt>
      <trkpt lat="45.75958" lon="3.61828">
        <ele>523</ele>
        <time>2017-09-20T08:08:55Z</time>
      </trkpt>
      <trkpt lat="45.75966" lon="3.61836">
        <ele>523</ele>
        <time>2017-09-20T08:09:03Z</time>
      </trkpt>
      <trkpt lat="45.75975" lon="3.61845">
        <ele>524</ele>
        <time>2017-09-20T08:09:11Z</time>
      </trkpt>
      <trkpt lat="45.75985" lon="3.61858">
        <ele>525</ele>
        <time>2017-09-20T08:09:20Z</time>
      </trkpt>
      <trkpt lat="45.75992" lon="3.61873">
        <ele>527</ele>
        <time>2017-09-20T08:09:30Z</time>
      </trkpt>
      <trkpt lat="45.75997" lon="3.61882">
        <ele>528</ele>
        <time>2017-09-20T08:09:37Z</time>
      </trkpt>
      <trkpt lat="45.76001" lon="3.61897">
        <ele>528</ele>
        <time>2017-09-20T08:09:45Z</time>
      </trkpt>
      <trkpt lat="45.76008" lon="3.61914">
        <ele>530</ele>
        <time>2017-09-20T08:09:56Z</time>
      </trkpt>
      <trkpt lat="45.76013" lon="3.61922">
        <ele>530</ele>
        <time>2017-09-20T08:10:02Z</time>
      </trkpt>
      <trkpt lat="45.76017" lon="3.61933">
        <ele>531</ele>
        <time>2017-09-20T08:10:09Z</time>
      </trkpt>
      <trkpt lat="45.76021" lon="3.61941">
        <ele>531</ele>
        <time>2017-09-20T08:10:15Z</time>
      </trkpt>
      <trkpt lat="45.76026" lon="3.6195">
        <ele>532</ele>
        <time>2017-09-20T08:10:21Z</time>
      </trkpt>
      <trkpt lat="45.76029" lon="3.61954">
        <ele>532</ele>
        <time>2017-09-20T08:10:25Z</time>
      </trkpt>
      <trkpt lat="45.76033" lon="3.61961">
        <ele>532</ele>
        <time>2017-09-20T08:10:31Z</time>
      </trkpt>
      <trkpt lat="45.76036" lon="3.61963">
        <ele>533</ele>
        <time>2017-09-20T08:10:33Z</time>
      </trkpt>
      <trkpt lat="45.76042" lon="3.61971">
        <ele>533</ele>
        <time>2017-09-20T08:10:41Z</time>
      </trkpt>
      <trkpt lat="45.76043" lon="3.61972">
        <ele>533</ele>
        <time>2017-09-20T08:10:42Z</time>
      </trkpt>
      <trkpt lat="45.76047" lon="3.6198">
        <ele>533</ele>
        <time>2017-09-20T08:10:48Z</time>
      </trkpt>
      <trkpt lat="45.76054" lon="3.61989">
        <ele>534</ele>
        <time>2017-09-20T08:10:57Z</time>
      </trkpt>
      <trkpt lat="45.76055" lon="3.6199">
        <ele>534</ele>
        <time>2017-09-20T08:10:58Z</time>
      </trkpt>
      <trkpt lat="45.76061" lon="3.61996">
        <ele>535</ele>
        <time>2017-09-20T08:11:05Z</time>
      </trkpt>
      <trkpt lat="45.76062" lon="3.61997">
        <ele>535</ele>
        <time>2017-09-20T08:11:07Z</time>
      </trkpt>
      <trkpt lat="45.76067" lon="3.61999">
        <ele>536</ele>
        <time>2017-09-20T08:11:13Z</time>
      </trkpt>
      <trkpt lat="45.76068" lon="3.61999">
        <ele>536</ele>
        <time>2017-09-20T08:11:14Z</time>
      </trkpt>
      <trkpt lat="45.76075" lon="3.62002">
        <ele>537</ele>
        <time>2017-09-20T08:11:19Z</time>
      </trkpt>
      <trkpt lat="45.76083" lon="3.62008">
        <ele>539</ele>
        <time>2017-09-20T08:11:25Z</time>
      </trkpt>
      <trkpt lat="45.76085" lon="3.62009">
        <ele>539</ele>
        <time>2017-09-20T08:11:26Z</time>
      </trkpt>
      <trkpt lat="45.76097" lon="3.62015">
        <ele>541</ele>
        <time>2017-09-20T08:11:34Z</time>
      </trkpt>
      <trkpt lat="45.76113" lon="3.62026">
        <ele>545</ele>
        <time>2017-09-20T08:11:46Z</time>
      </trkpt>
      <trkpt lat="45.76116" lon="3.62028">
        <ele>545</ele>
        <time>2017-09-20T08:11:48Z</time>
      </trkpt>
      <trkpt lat="45.76121" lon="3.62031">
        <ele>547</ele>
        <time>2017-09-20T08:12:01Z</time>
      </trkpt>
      <trkpt lat="45.76125" lon="3.62035">
        <ele>547</ele>
        <time>2017-09-20T08:12:20Z</time>
      </trkpt>
      <trkpt lat="45.76128" lon="3.6204">
        <ele>548</ele>
        <time>2017-09-20T08:12:25Z</time>
      </trkpt>
      <trkpt lat="45.7613" lon="3.62048">
        <ele>549</ele>
        <time>2017-09-20T08:12:31Z</time>
      </trkpt>
      <trkpt lat="45.76133" lon="3.62056">
        <ele>549</ele>
        <time>2017-09-20T08:12:35Z</time>
      </trkpt>
      <trkpt lat="45.76134" lon="3.62064">
        <ele>550</ele>
        <time>2017-09-20T08:12:40Z</time>
      </trkpt>
      <trkpt lat="45.76138" lon="3.62078">
        <ele>551</ele>
        <time>2017-09-20T08:12:49Z</time>
      </trkpt>
      <trkpt lat="45.7614" lon="3.62089">
        <ele>552</ele>
        <time>2017-09-20T08:12:58Z</time>
      </trkpt>
      <trkpt lat="45.7614" lon="3.62096">
        <ele>552</ele>
        <time>2017-09-20T08:13:02Z</time>
      </trkpt>
      <trkpt lat="45.76143" lon="3.6211">
        <ele>554</ele>
        <time>2017-09-20T08:13:08Z</time>
      </trkpt>
      <trkpt lat="45.76144" lon="3.62126">
        <ele>555</ele>
        <time>2017-09-20T08:13:13Z</time>
      </trkpt>
      <trkpt lat="45.76143" lon="3.62149">
        <ele>556</ele>
        <time>2017-09-20T08:13:19Z</time>
      </trkpt>
      <trkpt lat="45.76145" lon="3.62174">
        <ele>557</ele>
        <time>2017-09-20T08:13:26Z</time>
      </trkpt>
      <trkpt lat="45.76147" lon="3.62196">
        <ele>559</ele>
        <time>2017-09-20T08:13:33Z</time>
      </trkpt>
      <trkpt lat="45.76149" lon="3.6221">
        <ele>560</ele>
        <time>2017-09-20T08:13:38Z</time>
      </trkpt>
      <trkpt lat="45.76153" lon="3.62229">
        <ele>562</ele>
        <time>2017-09-20T08:13:44Z</time>
      </trkpt>
      <trkpt lat="45.76157" lon="3.62245">
        <ele>565</ele>
        <time>2017-09-20T08:13:51Z</time>
      </trkpt>
      <trkpt lat="45.76157" lon="3.62247">
        <ele>565</ele>
        <time>2017-09-20T08:13:52Z</time>
      </trkpt>
      <trkpt lat="45.76158" lon="3.6225">
        <ele>565</ele>
        <time>2017-09-20T08:13:54Z</time>
      </trkpt>
      <trkpt lat="45.76163" lon="3.62264">
        <ele>568</ele>
        <time>2017-09-20T08:14:01Z</time>
      </trkpt>
      <trkpt lat="45.76167" lon="3.62275">
        <ele>570</ele>
        <time>2017-09-20T08:14:07Z</time>
      </trkpt>
      <trkpt lat="45.76173" lon="3.62287">
        <ele>572</ele>
        <time>2017-09-20T08:14:13Z</time>
      </trkpt>
      <trkpt lat="45.76175" lon="3.62293">
        <ele>573</ele>
        <time>2017-09-20T08:14:16Z</time>
      </trkpt>
      <trkpt lat="45.76177" lon="3.62296">
        <ele>574</ele>
        <time>2017-09-20T08:14:18Z</time>
      </trkpt>
      <trkpt lat="45.76182" lon="3.6231">
        <ele>576</ele>
        <time>2017-09-20T08:14:25Z</time>
      </trkpt>
      <trkpt lat="45.76183" lon="3.62314">
        <ele>577</ele>
        <time>2017-09-20T08:14:27Z</time>
      </trkpt>
      <trkpt lat="45.76186" lon="3.62328">
        <ele>579</ele>
        <time>2017-09-20T08:14:34Z</time>
      </trkpt>
      <trkpt lat="45.76187" lon="3.6234">
        <ele>580</ele>
        <time>2017-09-20T08:14:40Z</time>
      </trkpt>
      <trkpt lat="45.76187" lon="3.62351">
        <ele>580</ele>
        <time>2017-09-20T08:14:46Z</time>
      </trkpt>
      <trkpt lat="45.76184" lon="3.62364">
        <ele>579</ele>
        <time>2017-09-20T08:14:52Z</time>
      </trkpt>
      <trkpt lat="45.76183" lon="3.62372">
        <ele>579</ele>
        <time>2017-09-20T08:14:55Z</time>
      </trkpt>
      <trkpt lat="45.76183" lon="3.62375">
        <ele>579</ele>
        <time>2017-09-20T08:14:57Z</time>
      </trkpt>
      <trkpt lat="45.76181" lon="3.62384">
        <ele>578</ele>
        <time>2017-09-20T08:15:02Z</time>
      </trkpt>
      <trkpt lat="45.76176" lon="3.62398">
        <ele>576</ele>
        <time>2017-09-20T08:15:09Z</time>
      </trkpt>
      <trkpt lat="45.76174" lon="3.62401">
        <ele>576</ele>
        <time>2017-09-20T08:15:11Z</time>
      </trkpt>
      <trkpt lat="45.76166" lon="3.62417">
        <ele>576</ele>
        <time>2017-09-20T08:15:19Z</time>
      </trkpt>
      <trkpt lat="45.76165" lon="3.62419">
        <ele>576</ele>
        <time>2017-09-20T08:15:20Z</time>
      </trkpt>
      <trkpt lat="45.76162" lon="3.62429">
        <ele>576</ele>
        <time>2017-09-20T08:15:25Z</time>
      </trkpt>
      <trkpt lat="45.76159" lon="3.62441">
        <ele>577</ele>
        <time>2017-09-20T08:15:32Z</time>
      </trkpt>
      <trkpt lat="45.76158" lon="3.62443">
        <ele>576</ele>
        <time>2017-09-20T08:15:33Z</time>
      </trkpt>
      <trkpt lat="45.76156" lon="3.62448">
        <ele>577</ele>
        <time>2017-09-20T08:15:37Z</time>
      </trkpt>
      <trkpt lat="45.76156" lon="3.62453">
        <ele>577</ele>
        <time>2017-09-20T08:15:40Z</time>
      </trkpt>
      <trkpt lat="45.76156" lon="3.62462">
        <ele>577</ele>
        <time>2017-09-20T08:15:45Z</time>
      </trkpt>
      <trkpt lat="45.76156" lon="3.62464">
        <ele>577</ele>
        <time>2017-09-20T08:15:47Z</time>
      </trkpt>
      <trkpt lat="45.76155" lon="3.62467">
        <ele>577</ele>
        <time>2017-09-20T08:15:50Z</time>
      </trkpt>
      <trkpt lat="45.76158" lon="3.62482">
        <ele>578</ele>
        <time>2017-09-20T08:15:58Z</time>
      </trkpt>
      <trkpt lat="45.76158" lon="3.62484">
        <ele>579</ele>
        <time>2017-09-20T08:15:59Z</time>
      </trkpt>
      <trkpt lat="45.76162" lon="3.62498">
        <ele>580</ele>
        <time>2017-09-20T08:16:07Z</time>
      </trkpt>
      <trkpt lat="45.76167" lon="3.62509">
        <ele>582</ele>
        <time>2017-09-20T08:16:13Z</time>
      </trkpt>
      <trkpt lat="45.76168" lon="3.62511">
        <ele>583</ele>
        <time>2017-09-20T08:16:14Z</time>
      </trkpt>
      <trkpt lat="45.76173" lon="3.62526">
        <ele>585</ele>
        <time>2017-09-20T08:16:23Z</time>
      </trkpt>
      <trkpt lat="45.76175" lon="3.62528">
        <ele>585</ele>
        <time>2017-09-20T08:16:25Z</time>
      </trkpt>
      <trkpt lat="45.76177" lon="3.62533">
        <ele>586</ele>
        <time>2017-09-20T08:16:28Z</time>
      </trkpt>
      <trkpt lat="45.76181" lon="3.62541">
        <ele>587</ele>
        <time>2017-09-20T08:16:33Z</time>
      </trkpt>
      <trkpt lat="45.76184" lon="3.62547">
        <ele>588</ele>
        <time>2017-09-20T08:16:37Z</time>
      </trkpt>
      <trkpt lat="45.76194" lon="3.62558">
        <ele>591</ele>
        <time>2017-09-20T08:16:47Z</time>
      </trkpt>
      <trkpt lat="45.76201" lon="3.62567">
        <ele>594</ele>
        <time>2017-09-20T08:16:55Z</time>
      </trkpt>
      <trkpt lat="45.7621" lon="3.62575">
        <ele>597</ele>
        <time>2017-09-20T08:17:03Z</time>
      </trkpt>
      <trkpt lat="45.76214" lon="3.62577">
        <ele>598</ele>
        <time>2017-09-20T08:17:06Z</time>
      </trkpt>
      <trkpt lat="45.76219" lon="3.62583">
        <ele>600</ele>
        <time>2017-09-20T08:17:12Z</time>
      </trkpt>
      <trkpt lat="45.7622" lon="3.62585">
        <ele>600</ele>
        <time>2017-09-20T08:17:13Z</time>
      </trkpt>
      <trkpt lat="45.76226" lon="3.62592">
        <ele>602</ele>
        <time>2017-09-20T08:17:19Z</time>
      </trkpt>
      <trkpt lat="45.76227" lon="3.62594">
        <ele>602</ele>
        <time>2017-09-20T08:17:20Z</time>
      </trkpt>
      <trkpt lat="45.76234" lon="3.62603">
        <ele>604</ele>
        <time>2017-09-20T08:17:27Z</time>
      </trkpt>
      <trkpt lat="45.76242" lon="3.62614">
        <ele>606</ele>
        <time>2017-09-20T08:17:35Z</time>
      </trkpt>
      <trkpt lat="45.76248" lon="3.62623">
        <ele>607</ele>
        <time>2017-09-20T08:17:42Z</time>
      </trkpt>
      <trkpt lat="45.76253" lon="3.62636">
        <ele>608</ele>
        <time>2017-09-20T08:17:50Z</time>
      </trkpt>
      <trkpt lat="45.76258" lon="3.62652">
        <ele>607</ele>
        <time>2017-09-20T08:17:58Z</time>
      </trkpt>
      <trkpt lat="45.76263" lon="3.62668">
        <ele>607</ele>
        <time>2017-09-20T08:18:03Z</time>
      </trkpt>
      <trkpt lat="45.76269" lon="3.62695">
        <ele>605</ele>
        <time>2017-09-20T08:18:10Z</time>
      </trkpt>
      <trkpt lat="45.76275" lon="3.62718">
        <ele>602</ele>
        <time>2017-09-20T08:18:16Z</time>
      </trkpt>
      <trkpt lat="45.76281" lon="3.62745">
        <ele>598</ele>
        <time>2017-09-20T08:18:22Z</time>
      </trkpt>
      <trkpt lat="45.76287" lon="3.6277">
        <ele>597</ele>
        <time>2017-09-20T08:18:28Z</time>
      </trkpt>
      <trkpt lat="45.76297" lon="3.62793">
        <ele>597</ele>
        <time>2017-09-20T08:18:35Z</time>
      </trkpt>
      <trkpt lat="45.7631" lon="3.6281">
        <ele>598</ele>
        <time>2017-09-20T08:18:44Z</time>
      </trkpt>
      <trkpt lat="45.76322" lon="3.62822">
        <ele>597</ele>
        <time>2017-09-20T08:18:53Z</time>
      </trkpt>
      <trkpt lat="45.76327" lon="3.62827">
        <ele>596</ele>
        <time>2017-09-20T08:19:00Z</time>
      </trkpt>
      <trkpt lat="45.76329" lon="3.62828">
        <ele>596</ele>
        <time>2017-09-20T08:19:11Z</time>
      </trkpt>
      <trkpt lat="45.76328" lon="3.62826">
        <ele>596</ele>
        <time>2017-09-20T08:19:17Z</time>
      </trkpt>
      <trkpt lat="45.76332" lon="3.62828">
        <ele>596</ele>
        <time>2017-09-20T08:19:54Z</time>
      </trkpt>
      <trkpt lat="45.76332" lon="3.62829">
        <ele>596</ele>
        <time>2017-09-20T08:20:01Z</time>
      </trkpt>
      <trkpt lat="45.76333" lon="3.6283">
        <ele>596</ele>
        <time>2017-09-20T08:20:10Z</time>
      </trkpt>
      <trkpt lat="45.76335" lon="3.6283">
        <ele>596</ele>
        <time>2017-09-20T08:20:33Z</time>
      </trkpt>
      <trkpt lat="45.76335" lon="3.62833">
        <ele>596</ele>
        <time>2017-09-20T08:21:35Z</time>
      </trkpt>
      <trkpt lat="45.76335" lon="3.62834">
        <ele>596</ele>
        <time>2017-09-20T08:21:38Z</time>
      </trkpt>
      <trkpt lat="45.76338" lon="3.62837">
        <ele>595</ele>
        <time>2017-09-20T08:21:41Z</time>
      </trkpt>
      <trkpt lat="45.76343" lon="3.62838">
        <ele>595</ele>
        <time>2017-09-20T08:21:45Z</time>
      </trkpt>
      <trkpt lat="45.76361" lon="3.62834">
        <ele>595</ele>
        <time>2017-09-20T08:21:58Z</time>
      </trkpt>
      <trkpt lat="45.76376" lon="3.62833">
        <ele>596</ele>
        <time>2017-09-20T08:22:08Z</time>
      </trkpt>
      <trkpt lat="45.7639" lon="3.62837">
        <ele>596</ele>
        <time>2017-09-20T08:22:17Z</time>
      </trkpt>
      <trkpt lat="45.76404" lon="3.62841">
        <ele>597</ele>
        <time>2017-09-20T08:22:27Z</time>
      </trkpt>
      <trkpt lat="45.76416" lon="3.62847">
        <ele>597</ele>
        <time>2017-09-20T08:22:35Z</time>
      </trkpt>
      <trkpt lat="45.76426" lon="3.62852">
        <ele>596</ele>
        <time>2017-09-20T08:22:43Z</time>
      </trkpt>
      <trkpt lat="45.76438" lon="3.62857">
        <ele>597</ele>
        <time>2017-09-20T08:22:51Z</time>
      </trkpt>
      <trkpt lat="45.76447" lon="3.62864">
        <ele>596</ele>
        <time>2017-09-20T08:22:58Z</time>
      </trkpt>
      <trkpt lat="45.76452" lon="3.62868">
        <ele>596</ele>
        <time>2017-09-20T08:23:02Z</time>
      </trkpt>
      <trkpt lat="45.76455" lon="3.62874">
        <ele>596</ele>
        <time>2017-09-20T08:23:06Z</time>
      </trkpt>
      <trkpt lat="45.76462" lon="3.62888">
        <ele>595</ele>
        <time>2017-09-20T08:23:14Z</time>
      </trkpt>
      <trkpt lat="45.76469" lon="3.62906">
        <ele>593</ele>
        <time>2017-09-20T08:23:23Z</time>
      </trkpt>
      <trkpt lat="45.76479" lon="3.62924">
        <ele>592</ele>
        <time>2017-09-20T08:23:33Z</time>
      </trkpt>
      <trkpt lat="45.76482" lon="3.62936">
        <ele>591</ele>
        <time>2017-09-20T08:23:39Z</time>
      </trkpt>
      <trkpt lat="45.76487" lon="3.62955">
        <ele>591</ele>
        <time>2017-09-20T08:23:48Z</time>
      </trkpt>
      <trkpt lat="45.76493" lon="3.6297">
        <ele>592</ele>
        <time>2017-09-20T08:23:56Z</time>
      </trkpt>
      <trkpt lat="45.76496" lon="3.62982">
        <ele>592</ele>
        <time>2017-09-20T08:24:02Z</time>
      </trkpt>
      <trkpt lat="45.76499" lon="3.62992">
        <ele>592</ele>
        <time>2017-09-20T08:24:08Z</time>
      </trkpt>
      <trkpt lat="45.76505" lon="3.63012">
        <ele>592</ele>
        <time>2017-09-20T08:24:18Z</time>
      </trkpt>
      <trkpt lat="45.76511" lon="3.63029">
        <ele>593</ele>
        <time>2017-09-20T08:24:26Z</time>
      </trkpt>
      <trkpt lat="45.76513" lon="3.63042">
        <ele>594</ele>
        <time>2017-09-20T08:24:33Z</time>
      </trkpt>
      <trkpt lat="45.76514" lon="3.63045">
        <ele>594</ele>
        <time>2017-09-20T08:24:35Z</time>
      </trkpt>
      <trkpt lat="45.76519" lon="3.63057">
        <ele>596</ele>
        <time>2017-09-20T08:24:43Z</time>
      </trkpt>
      <trkpt lat="45.76521" lon="3.6307">
        <ele>597</ele>
        <time>2017-09-20T08:24:50Z</time>
      </trkpt>
      <trkpt lat="45.76521" lon="3.63093">
        <ele>597</ele>
        <time>2017-09-20T08:25:01Z</time>
      </trkpt>
      <trkpt lat="45.76518" lon="3.63111">
        <ele>596</ele>
        <time>2017-09-20T08:25:09Z</time>
      </trkpt>
      <trkpt lat="45.76517" lon="3.63126">
        <ele>594</ele>
        <time>2017-09-20T08:25:16Z</time>
      </trkpt>
      <trkpt lat="45.76516" lon="3.63141">
        <ele>593</ele>
        <time>2017-09-20T08:25:24Z</time>
      </trkpt>
      <trkpt lat="45.76514" lon="3.63159">
        <ele>591</ele>
        <time>2017-09-20T08:25:32Z</time>
      </trkpt>
      <trkpt lat="45.76511" lon="3.63176">
        <ele>589</ele>
        <time>2017-09-20T08:25:40Z</time>
      </trkpt>
      <trkpt lat="45.76511" lon="3.63207">
        <ele>584</ele>
        <time>2017-09-20T08:25:54Z</time>
      </trkpt>
      <trkpt lat="45.76517" lon="3.63219">
        <ele>582</ele>
        <time>2017-09-20T08:26:01Z</time>
      </trkpt>
      <trkpt lat="45.76525" lon="3.63225">
        <ele>583</ele>
        <time>2017-09-20T08:26:08Z</time>
      </trkpt>
      <trkpt lat="45.76529" lon="3.63227">
        <ele>583</ele>
        <time>2017-09-20T08:26:11Z</time>
      </trkpt>
      <trkpt lat="45.76537" lon="3.63235">
        <ele>583</ele>
        <time>2017-09-20T08:26:17Z</time>
      </trkpt>
      <trkpt lat="45.76538" lon="3.63236">
        <ele>583</ele>
        <time>2017-09-20T08:26:18Z</time>
      </trkpt>
      <trkpt lat="45.76544" lon="3.6324">
        <ele>583</ele>
        <time>2017-09-20T08:26:23Z</time>
      </trkpt>
      <trkpt lat="45.76549" lon="3.63239">
        <ele>584</ele>
        <time>2017-09-20T08:26:26Z</time>
      </trkpt>
      <trkpt lat="45.76565" lon="3.63236">
        <ele>587</ele>
        <time>2017-09-20T08:26:33Z</time>
      </trkpt>
      <trkpt lat="45.76568" lon="3.63235">
        <ele>588</ele>
        <time>2017-09-20T08:26:34Z</time>
      </trkpt>
      <trkpt lat="45.76574" lon="3.63233">
        <ele>589</ele>
        <time>2017-09-20T08:26:38Z</time>
      </trkpt>
      <trkpt lat="45.76583" lon="3.63234">
        <ele>590</ele>
        <time>2017-09-20T08:26:44Z</time>
      </trkpt>
      <trkpt lat="45.76586" lon="3.63234">
        <ele>590</ele>
        <time>2017-09-20T08:26:46Z</time>
      </trkpt>
      <trkpt lat="45.76603" lon="3.63238">
        <ele>592</ele>
        <time>2017-09-20T08:26:55Z</time>
      </trkpt>
      <trkpt lat="45.76615" lon="3.63244">
        <ele>592</ele>
        <time>2017-09-20T08:27:03Z</time>
      </trkpt>
      <trkpt lat="45.76625" lon="3.63251">
        <ele>592</ele>
        <time>2017-09-20T08:27:10Z</time>
      </trkpt>
      <trkpt lat="45.76635" lon="3.6326">
        <ele>591</ele>
        <time>2017-09-20T08:27:17Z</time>
      </trkpt>
      <trkpt lat="45.76642" lon="3.63267">
        <ele>590</ele>
        <time>2017-09-20T08:27:23Z</time>
      </trkpt>
      <trkpt lat="45.76648" lon="3.63275">
        <ele>589</ele>
        <time>2017-09-20T08:27:29Z</time>
      </trkpt>
      <trkpt lat="45.76656" lon="3.63288">
        <ele>587</ele>
        <time>2017-09-20T08:27:37Z</time>
      </trkpt>
      <trkpt lat="45.76661" lon="3.63304">
        <ele>584</ele>
        <time>2017-09-20T08:27:45Z</time>
      </trkpt>
      <trkpt lat="45.76667" lon="3.63322">
        <ele>581</ele>
        <time>2017-09-20T08:27:54Z</time>
      </trkpt>
      <trkpt lat="45.7667" lon="3.63343">
        <ele>577</ele>
        <time>2017-09-20T08:28:04Z</time>
      </trkpt>
      <trkpt lat="45.76671" lon="3.63362">
        <ele>575</ele>
        <time>2017-09-20T08:28:13Z</time>
      </trkpt>
      <trkpt lat="45.76672" lon="3.63385">
        <ele>573</ele>
        <time>2017-09-20T08:28:23Z</time>
      </trkpt>
      <trkpt lat="45.7667" lon="3.634">
        <ele>572</ele>
        <time>2017-09-20T08:28:30Z</time>
      </trkpt>
      <trkpt lat="45.76669" lon="3.63422">
        <ele>571</ele>
        <time>2017-09-20T08:28:40Z</time>
      </trkpt>
      <trkpt lat="45.76669" lon="3.63466">
        <ele>569</ele>
        <time>2017-09-20T08:29:00Z</time>
      </trkpt>
      <trkpt lat="45.76669" lon="3.63478">
        <ele>570</ele>
        <time>2017-09-20T08:29:06Z</time>
      </trkpt>
      <trkpt lat="45.76668" lon="3.6348">
        <ele>570</ele>
        <time>2017-09-20T08:29:16Z</time>
      </trkpt>
      <trkpt lat="45.76669" lon="3.63487">
        <ele>570</ele>
        <time>2017-09-20T08:29:26Z</time>
      </trkpt>
      <trkpt lat="45.76671" lon="3.635">
        <ele>571</ele>
        <time>2017-09-20T08:29:33Z</time>
      </trkpt>
      <trkpt lat="45.7667" lon="3.63502">
        <ele>571</ele>
        <time>2017-09-20T08:29:34Z</time>
      </trkpt>
      <trkpt lat="45.76665" lon="3.63509">
        <ele>571</ele>
        <time>2017-09-20T08:29:39Z</time>
      </trkpt>
      <trkpt lat="45.76659" lon="3.63511">
        <ele>572</ele>
        <time>2017-09-20T08:29:43Z</time>
      </trkpt>
      <trkpt lat="45.76648" lon="3.63512">
        <ele>573</ele>
        <time>2017-09-20T08:29:51Z</time>
      </trkpt>
      <trkpt lat="45.76648" lon="3.63515">
        <ele>573</ele>
        <time>2017-09-20T08:30:01Z</time>
      </trkpt>
      <trkpt lat="45.76643" lon="3.63515">
        <ele>573</ele>
        <time>2017-09-20T08:30:12Z</time>
      </trkpt>
      <trkpt lat="45.76633" lon="3.63515">
        <ele>574</ele>
        <time>2017-09-20T08:30:19Z</time>
      </trkpt>
      <trkpt lat="45.76624" lon="3.63511">
        <ele>574</ele>
        <time>2017-09-20T08:30:25Z</time>
      </trkpt>
      <trkpt lat="45.76614" lon="3.63512">
        <ele>575</ele>
        <time>2017-09-20T08:30:32Z</time>
      </trkpt>
      <trkpt lat="45.766" lon="3.63516">
        <ele>576</ele>
        <time>2017-09-20T08:30:41Z</time>
      </trkpt>
      <trkpt lat="45.76591" lon="3.63521">
        <ele>577</ele>
        <time>2017-09-20T08:30:48Z</time>
      </trkpt>
      <trkpt lat="45.76583" lon="3.63524">
        <ele>578</ele>
        <time>2017-09-20T08:30:54Z</time>
      </trkpt>
      <trkpt lat="45.76582" lon="3.63525">
        <ele>578</ele>
        <time>2017-09-20T08:30:55Z</time>
      </trkpt>
      <trkpt lat="45.76573" lon="3.63531">
        <ele>579</ele>
        <time>2017-09-20T08:31:02Z</time>
      </trkpt>
      <trkpt lat="45.76567" lon="3.63536">
        <ele>579</ele>
        <time>2017-09-20T08:31:08Z</time>
      </trkpt>
      <trkpt lat="45.7656" lon="3.63544">
        <ele>580</ele>
        <time>2017-09-20T08:31:14Z</time>
      </trkpt>
      <trkpt lat="45.76555" lon="3.63551">
        <ele>580</ele>
        <time>2017-09-20T08:31:18Z</time>
      </trkpt>
      <trkpt lat="45.76546" lon="3.6356">
        <ele>581</ele>
        <time>2017-09-20T08:31:25Z</time>
      </trkpt>
      <trkpt lat="45.76538" lon="3.63571">
        <ele>582</ele>
        <time>2017-09-20T08:31:32Z</time>
      </trkpt>
      <trkpt lat="45.76537" lon="3.63573">
        <ele>583</ele>
        <time>2017-09-20T08:31:33Z</time>
      </trkpt>
      <trkpt lat="45.76537" lon="3.63582">
        <ele>583</ele>
        <time>2017-09-20T08:31:38Z</time>
      </trkpt>
      <trkpt lat="45.76526" lon="3.63629">
        <ele>582</ele>
        <time>2017-09-20T08:32:00Z</time>
      </trkpt>
      <trkpt lat="45.7652" lon="3.63652">
        <ele>582</ele>
        <time>2017-09-20T08:32:11Z</time>
      </trkpt>
      <trkpt lat="45.76515" lon="3.63676">
        <ele>582</ele>
        <time>2017-09-20T08:32:23Z</time>
      </trkpt>
      <trkpt lat="45.7651" lon="3.63699">
        <ele>582</ele>
        <time>2017-09-20T08:32:34Z</time>
      </trkpt>
      <trkpt lat="45.76506" lon="3.63714">
        <ele>583</ele>
        <time>2017-09-20T08:32:43Z</time>
      </trkpt>
      <trkpt lat="45.76503" lon="3.63727">
        <ele>583</ele>
        <time>2017-09-20T08:32:51Z</time>
      </trkpt>
      <trkpt lat="45.76497" lon="3.63741">
        <ele>583</ele>
        <time>2017-09-20T08:33:00Z</time>
      </trkpt>
      <trkpt lat="45.76492" lon="3.63755">
        <ele>584</ele>
        <time>2017-09-20T08:33:08Z</time>
      </trkpt>
      <trkpt lat="45.76482" lon="3.63775">
        <ele>584</ele>
        <time>2017-09-20T08:33:19Z</time>
      </trkpt>
      <trkpt lat="45.76478" lon="3.63785">
        <ele>584</ele>
        <time>2017-09-20T08:33:25Z</time>
      </trkpt>
      <trkpt lat="45.76475" lon="3.63802">
        <ele>584</ele>
        <time>2017-09-20T08:33:31Z</time>
      </trkpt>
      <trkpt lat="45.76474" lon="3.63822">
        <ele>584</ele>
        <time>2017-09-20T08:33:37Z</time>
      </trkpt>
      <trkpt lat="45.76477" lon="3.63857">
        <ele>584</ele>
        <time>2017-09-20T08:33:50Z</time>
      </trkpt>
      <trkpt lat="45.76477" lon="3.63871">
        <ele>584</ele>
        <time>2017-09-20T08:33:56Z</time>
      </trkpt>
      <trkpt lat="45.76476" lon="3.63883">
        <ele>584</ele>
        <time>2017-09-20T08:34:02Z</time>
      </trkpt>
      <trkpt lat="45.76476" lon="3.639">
        <ele>584</ele>
        <time>2017-09-20T08:34:09Z</time>
      </trkpt>
      <trkpt lat="45.76478" lon="3.63921">
        <ele>584</ele>
        <time>2017-09-20T08:34:18Z</time>
      </trkpt>
      <trkpt lat="45.7648" lon="3.63941">
        <ele>584</ele>
        <time>2017-09-20T08:34:27Z</time>
      </trkpt>
      <trkpt lat="45.76481" lon="3.63968">
        <ele>585</ele>
        <time>2017-09-20T08:34:39Z</time>
      </trkpt>
      <trkpt lat="45.7648" lon="3.63984">
        <ele>586</ele>
        <time>2017-09-20T08:34:45Z</time>
      </trkpt>
      <trkpt lat="45.76478" lon="3.64007">
        <ele>587</ele>
        <time>2017-09-20T08:34:51Z</time>
      </trkpt>
      <trkpt lat="45.76474" lon="3.64033">
        <ele>588</ele>
        <time>2017-09-20T08:34:58Z</time>
      </trkpt>
      <trkpt lat="45.7647" lon="3.64058">
        <ele>588</ele>
        <time>2017-09-20T08:35:06Z</time>
      </trkpt>
      <trkpt lat="45.76467" lon="3.64076">
        <ele>588</ele>
        <time>2017-09-20T08:35:13Z</time>
      </trkpt>
      <trkpt lat="45.76466" lon="3.6409">
        <ele>588</ele>
        <time>2017-09-20T08:35:20Z</time>
      </trkpt>
      <trkpt lat="45.7646" lon="3.64108">
        <ele>589</ele>
        <time>2017-09-20T08:35:30Z</time>
      </trkpt>
      <trkpt lat="45.76456" lon="3.64118">
        <ele>590</ele>
        <time>2017-09-20T08:35:37Z</time>
      </trkpt>
      <trkpt lat="45.76452" lon="3.64131">
        <ele>590</ele>
        <time>2017-09-20T08:35:44Z</time>
      </trkpt>
      <trkpt lat="45.76447" lon="3.64144">
        <ele>591</ele>
        <time>2017-09-20T08:35:51Z</time>
      </trkpt>
      <trkpt lat="45.76433" lon="3.64146">
        <ele>593</ele>
        <time>2017-09-20T08:36:02Z</time>
      </trkpt>
      <trkpt lat="45.76432" lon="3.64144">
        <ele>593</ele>
        <time>2017-09-20T08:36:03Z</time>
      </trkpt>
      <trkpt lat="45.76426" lon="3.64128">
        <ele>594</ele>
        <time>2017-09-20T08:36:13Z</time>
      </trkpt>
      <trkpt lat="45.76425" lon="3.64121">
        <ele>594</ele>
        <time>2017-09-20T08:36:16Z</time>
      </trkpt>
      <trkpt lat="45.76422" lon="3.64108">
        <ele>594</ele>
        <time>2017-09-20T08:36:21Z</time>
      </trkpt>
      <trkpt lat="45.76415" lon="3.64091">
        <ele>595</ele>
        <time>2017-09-20T08:36:31Z</time>
      </trkpt>
      <trkpt lat="45.76407" lon="3.64076">
        <ele>595</ele>
        <time>2017-09-20T08:36:40Z</time>
      </trkpt>
      <trkpt lat="45.76401" lon="3.64065">
        <ele>596</ele>
        <time>2017-09-20T08:36:48Z</time>
      </trkpt>
      <trkpt lat="45.76393" lon="3.64054">
        <ele>596</ele>
        <time>2017-09-20T08:36:57Z</time>
      </trkpt>
      <trkpt lat="45.76385" lon="3.64046">
        <ele>597</ele>
        <time>2017-09-20T08:37:04Z</time>
      </trkpt>
      <trkpt lat="45.76373" lon="3.64037">
        <ele>598</ele>
        <time>2017-09-20T08:37:14Z</time>
      </trkpt>
      <trkpt lat="45.76361" lon="3.64041">
        <ele>600</ele>
        <time>2017-09-20T08:37:23Z</time>
      </trkpt>
      <trkpt lat="45.7635" lon="3.64048">
        <ele>601</ele>
        <time>2017-09-20T08:37:32Z</time>
      </trkpt>
      <trkpt lat="45.76341" lon="3.64047">
        <ele>602</ele>
        <time>2017-09-20T08:37:39Z</time>
      </trkpt>
      <trkpt lat="45.76328" lon="3.64043">
        <ele>604</ele>
        <time>2017-09-20T08:37:48Z</time>
      </trkpt>
      <trkpt lat="45.76315" lon="3.64035">
        <ele>605</ele>
        <time>2017-09-20T08:37:58Z</time>
      </trkpt>
      <trkpt lat="45.76305" lon="3.64028">
        <ele>606</ele>
        <time>2017-09-20T08:38:06Z</time>
      </trkpt>
      <trkpt lat="45.76295" lon="3.64027">
        <ele>606</ele>
        <time>2017-09-20T08:38:13Z</time>
      </trkpt>
      <trkpt lat="45.76285" lon="3.6402">
        <ele>606</ele>
        <time>2017-09-20T08:38:20Z</time>
      </trkpt>
      <trkpt lat="45.76294" lon="3.64029">
        <ele>606</ele>
        <time>2017-09-20T08:44:15Z</time>
      </trkpt>
      <trkpt lat="45.76294" lon="3.64041">
        <ele>606</ele>
        <time>2017-09-20T08:44:19Z</time>
      </trkpt>
      <trkpt lat="45.76291" lon="3.64057">
        <ele>607</ele>
        <time>2017-09-20T08:44:25Z</time>
      </trkpt>
      <trkpt lat="45.76286" lon="3.64069">
        <ele>607</ele>
        <time>2017-09-20T08:44:31Z</time>
      </trkpt>
      <trkpt lat="45.76277" lon="3.64085">
        <ele>608</ele>
        <time>2017-09-20T08:44:41Z</time>
      </trkpt>
      <trkpt lat="45.76272" lon="3.641">
        <ele>608</ele>
        <time>2017-09-20T08:44:49Z</time>
      </trkpt>
      <trkpt lat="45.76264" lon="3.6412">
        <ele>609</ele>
        <time>2017-09-20T08:45:01Z</time>
      </trkpt>
      <trkpt lat="45.76258" lon="3.64134">
        <ele>609</ele>
        <time>2017-09-20T08:45:10Z</time>
      </trkpt>
      <trkpt lat="45.76252" lon="3.64151">
        <ele>610</ele>
        <time>2017-09-20T08:45:20Z</time>
      </trkpt>
      <trkpt lat="45.76249" lon="3.6416">
        <ele>611</ele>
        <time>2017-09-20T08:45:29Z</time>
      </trkpt>
      <trkpt lat="45.76252" lon="3.64162">
        <ele>611</ele>
        <time>2017-09-20T08:45:52Z</time>
      </trkpt>
      <trkpt lat="45.76252" lon="3.64163">
        <ele>611</ele>
        <time>2017-09-20T08:46:01Z</time>
      </trkpt>
      <trkpt lat="45.76245" lon="3.64176">
        <ele>612</ele>
        <time>2017-09-20T08:46:09Z</time>
      </trkpt>
      <trkpt lat="45.76237" lon="3.64193">
        <ele>612</ele>
        <time>2017-09-20T08:46:16Z</time>
      </trkpt>
      <trkpt lat="45.76233" lon="3.64206">
        <ele>612</ele>
        <time>2017-09-20T08:46:21Z</time>
      </trkpt>
      <trkpt lat="45.76225" lon="3.64226">
        <ele>613</ele>
        <time>2017-09-20T08:46:28Z</time>
      </trkpt>
      <trkpt lat="45.76216" lon="3.64249">
        <ele>614</ele>
        <time>2017-09-20T08:46:35Z</time>
      </trkpt>
      <trkpt lat="45.76207" lon="3.64274">
        <ele>614</ele>
        <time>2017-09-20T08:46:42Z</time>
      </trkpt>
      <trkpt lat="45.76198" lon="3.643">
        <ele>613</ele>
        <time>2017-09-20T08:46:50Z</time>
      </trkpt>
      <trkpt lat="45.7619" lon="3.64323">
        <ele>613</ele>
        <time>2017-09-20T08:46:59Z</time>
      </trkpt>
      <trkpt lat="45.76184" lon="3.64338">
        <ele>613</ele>
        <time>2017-09-20T08:47:07Z</time>
      </trkpt>
      <trkpt lat="45.76176" lon="3.64354">
        <ele>614</ele>
        <time>2017-09-20T08:47:16Z</time>
      </trkpt>
      <trkpt lat="45.76167" lon="3.6437">
        <ele>615</ele>
        <time>2017-09-20T08:47:25Z</time>
      </trkpt>
      <trkpt lat="45.76163" lon="3.64378">
        <ele>616</ele>
        <time>2017-09-20T08:47:30Z</time>
      </trkpt>
      <trkpt lat="45.76159" lon="3.64385">
        <ele>616</ele>
        <time>2017-09-20T08:47:34Z</time>
      </trkpt>
      <trkpt lat="45.76146" lon="3.64406">
        <ele>618</ele>
        <time>2017-09-20T08:47:47Z</time>
      </trkpt>
      <trkpt lat="45.76137" lon="3.64423">
        <ele>619</ele>
        <time>2017-09-20T08:47:57Z</time>
      </trkpt>
      <trkpt lat="45.76133" lon="3.64437">
        <ele>620</ele>
        <time>2017-09-20T08:48:04Z</time>
      </trkpt>
      <trkpt lat="45.76127" lon="3.64455">
        <ele>619</ele>
        <time>2017-09-20T08:48:13Z</time>
      </trkpt>
      <trkpt lat="45.76123" lon="3.64467">
        <ele>619</ele>
        <time>2017-09-20T08:48:19Z</time>
      </trkpt>
      <trkpt lat="45.76118" lon="3.64484">
        <ele>619</ele>
        <time>2017-09-20T08:48:28Z</time>
      </trkpt>
      <trkpt lat="45.76113" lon="3.64504">
        <ele>619</ele>
        <time>2017-09-20T08:48:38Z</time>
      </trkpt>
      <trkpt lat="45.7611" lon="3.6452">
        <ele>619</ele>
        <time>2017-09-20T08:48:46Z</time>
      </trkpt>
      <trkpt lat="45.76108" lon="3.6454">
        <ele>620</ele>
        <time>2017-09-20T08:48:55Z</time>
      </trkpt>
      <trkpt lat="45.76108" lon="3.64565">
        <ele>620</ele>
        <time>2017-09-20T08:49:07Z</time>
      </trkpt>
      <trkpt lat="45.76109" lon="3.64582">
        <ele>621</ele>
        <time>2017-09-20T08:49:15Z</time>
      </trkpt>
      <trkpt lat="45.7611" lon="3.64599">
        <ele>621</ele>
        <time>2017-09-20T08:49:23Z</time>
      </trkpt>
      <trkpt lat="45.76109" lon="3.64614">
        <ele>622</ele>
        <time>2017-09-20T08:49:30Z</time>
      </trkpt>
      <trkpt lat="45.76109" lon="3.64632">
        <ele>622</ele>
        <time>2017-09-20T08:49:39Z</time>
      </trkpt>
      <trkpt lat="45.76106" lon="3.6465">
        <ele>623</ele>
        <time>2017-09-20T08:49:48Z</time>
      </trkpt>
      <trkpt lat="45.76105" lon="3.64663">
        <ele>624</ele>
        <time>2017-09-20T08:49:55Z</time>
      </trkpt>
      <trkpt lat="45.76101" lon="3.6468">
        <ele>625</ele>
        <time>2017-09-20T08:50:04Z</time>
      </trkpt>
      <trkpt lat="45.76099" lon="3.64698">
        <ele>626</ele>
        <time>2017-09-20T08:50:13Z</time>
      </trkpt>
      <trkpt lat="45.76097" lon="3.64711">
        <ele>627</ele>
        <time>2017-09-20T08:50:20Z</time>
      </trkpt>
      <trkpt lat="45.76094" lon="3.64727">
        <ele>628</ele>
        <time>2017-09-20T08:50:28Z</time>
      </trkpt>
      <trkpt lat="45.76093" lon="3.64739">
        <ele>628</ele>
        <time>2017-09-20T08:50:34Z</time>
      </trkpt>
      <trkpt lat="45.76092" lon="3.64758">
        <ele>630</ele>
        <time>2017-09-20T08:50:44Z</time>
      </trkpt>
      <trkpt lat="45.76094" lon="3.64782">
        <ele>631</ele>
        <time>2017-09-20T08:50:59Z</time>
      </trkpt>
      <trkpt lat="45.76095" lon="3.64795">
        <ele>631</ele>
        <time>2017-09-20T08:51:07Z</time>
      </trkpt>
      <trkpt lat="45.76096" lon="3.64808">
        <ele>632</ele>
        <time>2017-09-20T08:51:15Z</time>
      </trkpt>
      <trkpt lat="45.76099" lon="3.6482">
        <ele>632</ele>
        <time>2017-09-20T08:51:21Z</time>
      </trkpt>
      <trkpt lat="45.76101" lon="3.64837">
        <ele>632</ele>
        <time>2017-09-20T08:51:30Z</time>
      </trkpt>
      <trkpt lat="45.76103" lon="3.64849">
        <ele>632</ele>
        <time>2017-09-20T08:51:37Z</time>
      </trkpt>
      <trkpt lat="45.76105" lon="3.64863">
        <ele>634</ele>
        <time>2017-09-20T08:51:45Z</time>
      </trkpt>
      <trkpt lat="45.76109" lon="3.64889">
        <ele>637</ele>
        <time>2017-09-20T08:51:59Z</time>
      </trkpt>
      <trkpt lat="45.76108" lon="3.64899">
        <ele>639</ele>
        <time>2017-09-20T08:52:05Z</time>
      </trkpt>
      <trkpt lat="45.76106" lon="3.64905">
        <ele>640</ele>
        <time>2017-09-20T08:52:09Z</time>
      </trkpt>
      <trkpt lat="45.76106" lon="3.64907">
        <ele>640</ele>
        <time>2017-09-20T08:52:10Z</time>
      </trkpt>
      <trkpt lat="45.76103" lon="3.64919">
        <ele>642</ele>
        <time>2017-09-20T08:52:17Z</time>
      </trkpt>
      <trkpt lat="45.76103" lon="3.64921">
        <ele>643</ele>
        <time>2017-09-20T08:52:18Z</time>
      </trkpt>
      <trkpt lat="45.76103" lon="3.64932">
        <ele>644</ele>
        <time>2017-09-20T08:52:26Z</time>
      </trkpt>
      <trkpt lat="45.76103" lon="3.64936">
        <ele>645</ele>
        <time>2017-09-20T08:52:28Z</time>
      </trkpt>
      <trkpt lat="45.76104" lon="3.64939">
        <ele>645</ele>
        <time>2017-09-20T08:52:30Z</time>
      </trkpt>
      <trkpt lat="45.76104" lon="3.64943">
        <ele>646</ele>
        <time>2017-09-20T08:52:33Z</time>
      </trkpt>
      <trkpt lat="45.76105" lon="3.64952">
        <ele>648</ele>
        <time>2017-09-20T08:52:39Z</time>
      </trkpt>
      <trkpt lat="45.76106" lon="3.64954">
        <ele>648</ele>
        <time>2017-09-20T08:52:40Z</time>
      </trkpt>
      <trkpt lat="45.76108" lon="3.64963">
        <ele>650</ele>
        <time>2017-09-20T08:52:45Z</time>
      </trkpt>
      <trkpt lat="45.76116" lon="3.64977">
        <ele>652</ele>
        <time>2017-09-20T08:52:56Z</time>
      </trkpt>
      <trkpt lat="45.7612" lon="3.64981">
        <ele>653</ele>
        <time>2017-09-20T08:53:00Z</time>
      </trkpt>
      <trkpt lat="45.76124" lon="3.64987">
        <ele>653</ele>
        <time>2017-09-20T08:53:04Z</time>
      </trkpt>
      <trkpt lat="45.76127" lon="3.65001">
        <ele>656</ele>
        <time>2017-09-20T08:53:12Z</time>
      </trkpt>
      <trkpt lat="45.76123" lon="3.65012">
        <ele>659</ele>
        <time>2017-09-20T08:53:19Z</time>
      </trkpt>
      <trkpt lat="45.76121" lon="3.65013">
        <ele>659</ele>
        <time>2017-09-20T08:53:20Z</time>
      </trkpt>
      <trkpt lat="45.76119" lon="3.65015">
        <ele>659</ele>
        <time>2017-09-20T08:53:22Z</time>
      </trkpt>
      <trkpt lat="45.76114" lon="3.65016">
        <ele>660</ele>
        <time>2017-09-20T08:53:28Z</time>
      </trkpt>
      <trkpt lat="45.76114" lon="3.65038">
        <ele>662</ele>
        <time>2017-09-20T08:53:55Z</time>
      </trkpt>
      <trkpt lat="45.76111" lon="3.65048">
        <ele>662</ele>
        <time>2017-09-20T08:54:02Z</time>
      </trkpt>
      <trkpt lat="45.7611" lon="3.6505">
        <ele>662</ele>
        <time>2017-09-20T08:54:03Z</time>
      </trkpt>
      <trkpt lat="45.76107" lon="3.65062">
        <ele>663</ele>
        <time>2017-09-20T08:54:11Z</time>
      </trkpt>
      <trkpt lat="45.76107" lon="3.65063">
        <ele>663</ele>
        <time>2017-09-20T08:54:12Z</time>
      </trkpt>
      <trkpt lat="45.76105" lon="3.65067">
        <ele>663</ele>
        <time>2017-09-20T08:54:15Z</time>
      </trkpt>
      <trkpt lat="45.76104" lon="3.65075">
        <ele>664</ele>
        <time>2017-09-20T08:54:21Z</time>
      </trkpt>
      <trkpt lat="45.76103" lon="3.65084">
        <ele>665</ele>
        <time>2017-09-20T08:54:27Z</time>
      </trkpt>
      <trkpt lat="45.76103" lon="3.65086">
        <ele>665</ele>
        <time>2017-09-20T08:54:28Z</time>
      </trkpt>
      <trkpt lat="45.76102" lon="3.65093">
        <ele>666</ele>
        <time>2017-09-20T08:54:32Z</time>
      </trkpt>
      <trkpt lat="45.76098" lon="3.65101">
        <ele>667</ele>
        <time>2017-09-20T08:54:38Z</time>
      </trkpt>
      <trkpt lat="45.76097" lon="3.65105">
        <ele>667</ele>
        <time>2017-09-20T08:54:41Z</time>
      </trkpt>
      <trkpt lat="45.76095" lon="3.65117">
        <ele>666</ele>
        <time>2017-09-20T08:54:49Z</time>
      </trkpt>
      <trkpt lat="45.76094" lon="3.65124">
        <ele>666</ele>
        <time>2017-09-20T08:54:54Z</time>
      </trkpt>
      <trkpt lat="45.76088" lon="3.65134">
        <ele>666</ele>
        <time>2017-09-20T08:55:01Z</time>
      </trkpt>
      <trkpt lat="45.76088" lon="3.65136">
        <ele>666</ele>
        <time>2017-09-20T08:55:02Z</time>
      </trkpt>
      <trkpt lat="45.76083" lon="3.65151">
        <ele>668</ele>
        <time>2017-09-20T08:55:11Z</time>
      </trkpt>
      <trkpt lat="45.76083" lon="3.65152">
        <ele>668</ele>
        <time>2017-09-20T08:55:12Z</time>
      </trkpt>
      <trkpt lat="45.76079" lon="3.65163">
        <ele>669</ele>
        <time>2017-09-20T08:55:19Z</time>
      </trkpt>
      <trkpt lat="45.76075" lon="3.65182">
        <ele>670</ele>
        <time>2017-09-20T08:55:27Z</time>
      </trkpt>
      <trkpt lat="45.76075" lon="3.65183">
        <ele>670</ele>
        <time>2017-09-20T08:55:28Z</time>
      </trkpt>
      <trkpt lat="45.76074" lon="3.65192">
        <ele>671</ele>
        <time>2017-09-20T08:55:32Z</time>
      </trkpt>
      <trkpt lat="45.76073" lon="3.65199">
        <ele>671</ele>
        <time>2017-09-20T08:55:35Z</time>
      </trkpt>
      <trkpt lat="45.76067" lon="3.65231">
        <ele>670</ele>
        <time>2017-09-20T08:55:49Z</time>
      </trkpt>
      <trkpt lat="45.76059" lon="3.65252">
        <ele>670</ele>
        <time>2017-09-20T08:55:57Z</time>
      </trkpt>
      <trkpt lat="45.76057" lon="3.65259">
        <ele>670</ele>
        <time>2017-09-20T08:56:00Z</time>
      </trkpt>
      <trkpt lat="45.76053" lon="3.65274">
        <ele>670</ele>
        <time>2017-09-20T08:56:05Z</time>
      </trkpt>
      <trkpt lat="45.7605" lon="3.65294">
        <ele>670</ele>
        <time>2017-09-20T08:56:13Z</time>
      </trkpt>
      <trkpt lat="45.76048" lon="3.65307">
        <ele>671</ele>
        <time>2017-09-20T08:56:19Z</time>
      </trkpt>
      <trkpt lat="45.76044" lon="3.65317">
        <ele>671</ele>
        <time>2017-09-20T08:56:24Z</time>
      </trkpt>
      <trkpt lat="45.7604" lon="3.6533">
        <ele>672</ele>
        <time>2017-09-20T08:56:31Z</time>
      </trkpt>
      <trkpt lat="45.76037" lon="3.65337">
        <ele>673</ele>
        <time>2017-09-20T08:56:35Z</time>
      </trkpt>
      <trkpt lat="45.76035" lon="3.65355">
        <ele>673</ele>
        <time>2017-09-20T08:56:48Z</time>
      </trkpt>
      <trkpt lat="45.76038" lon="3.65364">
        <ele>673</ele>
        <time>2017-09-20T08:56:54Z</time>
      </trkpt>
      <trkpt lat="45.76038" lon="3.65364">
        <ele>673</ele>
        <time>2017-09-20T08:56:55Z</time>
      </trkpt>
      <trkpt lat="45.76042" lon="3.65369">
        <ele>672</ele>
        <time>2017-09-20T08:56:59Z</time>
      </trkpt>
      <trkpt lat="45.76042" lon="3.6537">
        <ele>672</ele>
        <time>2017-09-20T08:57:00Z</time>
      </trkpt>
      <trkpt lat="45.76046" lon="3.65379">
        <ele>672</ele>
        <time>2017-09-20T08:57:08Z</time>
      </trkpt>
      <trkpt lat="45.76047" lon="3.65379">
        <ele>672</ele>
        <time>2017-09-20T08:57:09Z</time>
      </trkpt>
      <trkpt lat="45.76053" lon="3.65386">
        <ele>670</ele>
        <time>2017-09-20T08:57:16Z</time>
      </trkpt>
      <trkpt lat="45.76054" lon="3.65388">
        <ele>670</ele>
        <time>2017-09-20T08:57:17Z</time>
      </trkpt>
      <trkpt lat="45.7606" lon="3.65396">
        <ele>670</ele>
        <time>2017-09-20T08:57:25Z</time>
      </trkpt>
      <trkpt lat="45.7607" lon="3.65409">
        <ele>670</ele>
        <time>2017-09-20T08:57:35Z</time>
      </trkpt>
      <trkpt lat="45.76076" lon="3.65418">
        <ele>670</ele>
        <time>2017-09-20T08:57:41Z</time>
      </trkpt>
      <trkpt lat="45.76086" lon="3.65426">
        <ele>669</ele>
        <time>2017-09-20T08:57:50Z</time>
      </trkpt>
      <trkpt lat="45.76096" lon="3.65434">
        <ele>668</ele>
        <time>2017-09-20T08:57:57Z</time>
      </trkpt>
      <trkpt lat="45.76109" lon="3.65447">
        <ele>668</ele>
        <time>2017-09-20T08:58:07Z</time>
      </trkpt>
      <trkpt lat="45.76118" lon="3.65458">
        <ele>669</ele>
        <time>2017-09-20T08:58:14Z</time>
      </trkpt>
      <trkpt lat="45.76128" lon="3.65473">
        <ele>669</ele>
        <time>2017-09-20T08:58:22Z</time>
      </trkpt>
      <trkpt lat="45.76134" lon="3.65486">
        <ele>670</ele>
        <time>2017-09-20T08:58:29Z</time>
      </trkpt>
      <trkpt lat="45.76137" lon="3.65497">
        <ele>671</ele>
        <time>2017-09-20T08:58:35Z</time>
      </trkpt>
      <trkpt lat="45.76143" lon="3.65506">
        <ele>672</ele>
        <time>2017-09-20T08:58:42Z</time>
      </trkpt>
      <trkpt lat="45.76153" lon="3.65506">
        <ele>671</ele>
        <time>2017-09-20T08:58:49Z</time>
      </trkpt>
      <trkpt lat="45.76157" lon="3.65507">
        <ele>671</ele>
        <time>2017-09-20T08:58:52Z</time>
      </trkpt>
      <trkpt lat="45.76163" lon="3.6551">
        <ele>671</ele>
        <time>2017-09-20T08:58:56Z</time>
      </trkpt>
      <trkpt lat="45.76173" lon="3.65522">
        <ele>672</ele>
        <time>2017-09-20T08:59:04Z</time>
      </trkpt>
      <trkpt lat="45.76186" lon="3.65526">
        <ele>672</ele>
        <time>2017-09-20T08:59:13Z</time>
      </trkpt>
      <trkpt lat="45.76197" lon="3.6553">
        <ele>672</ele>
        <time>2017-09-20T08:59:21Z</time>
      </trkpt>
      <trkpt lat="45.76208" lon="3.65533">
        <ele>672</ele>
        <time>2017-09-20T08:59:31Z</time>
      </trkpt>
      <trkpt lat="45.76215" lon="3.6554">
        <ele>673</ele>
        <time>2017-09-20T08:59:38Z</time>
      </trkpt>
      <trkpt lat="45.76223" lon="3.65549">
        <ele>674</ele>
        <time>2017-09-20T08:59:47Z</time>
      </trkpt>
      <trkpt lat="45.76233" lon="3.65555">
        <ele>674</ele>
        <time>2017-09-20T08:59:56Z</time>
      </trkpt>
      <trkpt lat="45.76246" lon="3.65565">
        <ele>675</ele>
        <time>2017-09-20T09:00:07Z</time>
      </trkpt>
      <trkpt lat="45.76256" lon="3.65575">
        <ele>676</ele>
        <time>2017-09-20T09:00:17Z</time>
      </trkpt>
      <trkpt lat="45.7626" lon="3.65586">
        <ele>678</ele>
        <time>2017-09-20T09:00:24Z</time>
      </trkpt>
      <trkpt lat="45.76254" lon="3.65605">
        <ele>680</ele>
        <time>2017-09-20T09:00:35Z</time>
      </trkpt>
      <trkpt lat="45.76246" lon="3.65612">
        <ele>680</ele>
        <time>2017-09-20T09:00:43Z</time>
      </trkpt>
      <trkpt lat="45.76238" lon="3.65623">
        <ele>680</ele>
        <time>2017-09-20T09:00:52Z</time>
      </trkpt>
      <trkpt lat="45.76233" lon="3.65639">
        <ele>680</ele>
        <time>2017-09-20T09:01:00Z</time>
      </trkpt>
      <trkpt lat="45.76227" lon="3.65652">
        <ele>680</ele>
        <time>2017-09-20T09:01:08Z</time>
      </trkpt>
      <trkpt lat="45.76221" lon="3.65659">
        <ele>680</ele>
        <time>2017-09-20T09:01:14Z</time>
      </trkpt>
      <trkpt lat="45.7621" lon="3.65669">
        <ele>680</ele>
        <time>2017-09-20T09:01:24Z</time>
      </trkpt>
      <trkpt lat="45.76198" lon="3.65674">
        <ele>681</ele>
        <time>2017-09-20T09:01:34Z</time>
      </trkpt>
      <trkpt lat="45.76185" lon="3.65679">
        <ele>682</ele>
        <time>2017-09-20T09:01:44Z</time>
      </trkpt>
      <trkpt lat="45.7617" lon="3.65681">
        <ele>684</ele>
        <time>2017-09-20T09:01:54Z</time>
      </trkpt>
      <trkpt lat="45.76157" lon="3.65678">
        <ele>685</ele>
        <time>2017-09-20T09:02:04Z</time>
      </trkpt>
      <trkpt lat="45.76143" lon="3.65675">
        <ele>686</ele>
        <time>2017-09-20T09:02:14Z</time>
      </trkpt>
      <trkpt lat="45.76135" lon="3.65672">
        <ele>686</ele>
        <time>2017-09-20T09:02:21Z</time>
      </trkpt>
      <trkpt lat="45.76122" lon="3.65667">
        <ele>688</ele>
        <time>2017-09-20T09:02:31Z</time>
      </trkpt>
      <trkpt lat="45.76112" lon="3.65665">
        <ele>689</ele>
        <time>2017-09-20T09:02:39Z</time>
      </trkpt>
      <trkpt lat="45.76104" lon="3.65662">
        <ele>690</ele>
        <time>2017-09-20T09:02:47Z</time>
      </trkpt>
      <trkpt lat="45.76097" lon="3.6566">
        <ele>691</ele>
        <time>2017-09-20T09:02:53Z</time>
      </trkpt>
      <trkpt lat="45.76087" lon="3.65658">
        <ele>692</ele>
        <time>2017-09-20T09:03:01Z</time>
      </trkpt>
      <trkpt lat="45.76077" lon="3.65656">
        <ele>693</ele>
        <time>2017-09-20T09:03:08Z</time>
      </trkpt>
      <trkpt lat="45.76065" lon="3.65655">
        <ele>695</ele>
        <time>2017-09-20T09:03:17Z</time>
      </trkpt>
      <trkpt lat="45.76051" lon="3.65653">
        <ele>696</ele>
        <time>2017-09-20T09:03:27Z</time>
      </trkpt>
      <trkpt lat="45.76041" lon="3.65653">
        <ele>697</ele>
        <time>2017-09-20T09:03:35Z</time>
      </trkpt>
      <trkpt lat="45.76029" lon="3.65653">
        <ele>698</ele>
        <time>2017-09-20T09:03:44Z</time>
      </trkpt>
      <trkpt lat="45.76014" lon="3.65656">
        <ele>699</ele>
        <time>2017-09-20T09:03:55Z</time>
      </trkpt>
      <trkpt lat="45.76003" lon="3.65659">
        <ele>700</ele>
        <time>2017-09-20T09:04:03Z</time>
      </trkpt>
      <trkpt lat="45.75993" lon="3.65662">
        <ele>701</ele>
        <time>2017-09-20T09:04:10Z</time>
      </trkpt>
      <trkpt lat="45.75987" lon="3.65665">
        <ele>701</ele>
        <time>2017-09-20T09:04:16Z</time>
      </trkpt>
      <trkpt lat="45.75976" lon="3.65667">
        <ele>702</ele>
        <time>2017-09-20T09:04:24Z</time>
      </trkpt>
      <trkpt lat="45.75965" lon="3.65671">
        <ele>703</ele>
        <time>2017-09-20T09:04:30Z</time>
      </trkpt>
      <trkpt lat="45.75948" lon="3.65676">
        <ele>707</ele>
        <time>2017-09-20T09:04:38Z</time>
      </trkpt>
      <trkpt lat="45.75936" lon="3.65679">
        <ele>710</ele>
        <time>2017-09-20T09:04:44Z</time>
      </trkpt>
      <trkpt lat="45.75925" lon="3.65682">
        <ele>713</ele>
        <time>2017-09-20T09:04:52Z</time>
      </trkpt>
      <trkpt lat="45.75917" lon="3.65684">
        <ele>715</ele>
        <time>2017-09-20T09:04:59Z</time>
      </trkpt>
      <trkpt lat="45.75915" lon="3.65689">
        <ele>716</ele>
        <time>2017-09-20T09:05:02Z</time>
      </trkpt>
      <trkpt lat="45.75916" lon="3.65699">
        <ele>716</ele>
        <time>2017-09-20T09:05:07Z</time>
      </trkpt>
      <trkpt lat="45.75916" lon="3.65701">
        <ele>716</ele>
        <time>2017-09-20T09:05:08Z</time>
      </trkpt>
      <trkpt lat="45.75916" lon="3.65716">
        <ele>716</ele>
        <time>2017-09-20T09:05:15Z</time>
      </trkpt>
      <trkpt lat="45.75915" lon="3.65732">
        <ele>717</ele>
        <time>2017-09-20T09:05:23Z</time>
      </trkpt>
      <trkpt lat="45.75913" lon="3.65745">
        <ele>718</ele>
        <time>2017-09-20T09:05:29Z</time>
      </trkpt>
      <trkpt lat="45.75912" lon="3.65758">
        <ele>718</ele>
        <time>2017-09-20T09:05:35Z</time>
      </trkpt>
      <trkpt lat="45.75911" lon="3.65761">
        <ele>718</ele>
        <time>2017-09-20T09:05:39Z</time>
      </trkpt>
      <trkpt lat="45.75908" lon="3.65765">
        <ele>719</ele>
        <time>2017-09-20T09:05:50Z</time>
      </trkpt>
      <trkpt lat="45.75907" lon="3.65773">
        <ele>719</ele>
        <time>2017-09-20T09:05:55Z</time>
      </trkpt>
      <trkpt lat="45.75905" lon="3.65777">
        <ele>719</ele>
        <time>2017-09-20T09:05:57Z</time>
      </trkpt>
      <trkpt lat="45.75903" lon="3.65786">
        <ele>718</ele>
        <time>2017-09-20T09:06:02Z</time>
      </trkpt>
      <trkpt lat="45.75901" lon="3.65792">
        <ele>718</ele>
        <time>2017-09-20T09:06:06Z</time>
      </trkpt>
      <trkpt lat="45.75896" lon="3.65805">
        <ele>718</ele>
        <time>2017-09-20T09:06:13Z</time>
      </trkpt>
      <trkpt lat="45.75889" lon="3.65815">
        <ele>718</ele>
        <time>2017-09-20T09:06:20Z</time>
      </trkpt>
      <trkpt lat="45.75888" lon="3.65816">
        <ele>718</ele>
        <time>2017-09-20T09:06:21Z</time>
      </trkpt>
      <trkpt lat="45.75886" lon="3.65818">
        <ele>718</ele>
        <time>2017-09-20T09:06:22Z</time>
      </trkpt>
      <trkpt lat="45.75879" lon="3.65821">
        <ele>719</ele>
        <time>2017-09-20T09:06:28Z</time>
      </trkpt>
      <trkpt lat="45.75869" lon="3.65824">
        <ele>719</ele>
        <time>2017-09-20T09:06:36Z</time>
      </trkpt>
      <trkpt lat="45.75859" lon="3.65828">
        <ele>720</ele>
        <time>2017-09-20T09:06:44Z</time>
      </trkpt>
      <trkpt lat="45.7585" lon="3.65831">
        <ele>721</ele>
        <time>2017-09-20T09:06:50Z</time>
      </trkpt>
      <trkpt lat="45.75846" lon="3.65834">
        <ele>721</ele>
        <time>2017-09-20T09:06:54Z</time>
      </trkpt>
      <trkpt lat="45.75837" lon="3.65842">
        <ele>722</ele>
        <time>2017-09-20T09:07:02Z</time>
      </trkpt>
      <trkpt lat="45.75833" lon="3.65849">
        <ele>721</ele>
        <time>2017-09-20T09:07:06Z</time>
      </trkpt>
      <trkpt lat="45.75828" lon="3.65862">
        <ele>721</ele>
        <time>2017-09-20T09:07:14Z</time>
      </trkpt>
      <trkpt lat="45.75826" lon="3.6588">
        <ele>720</ele>
        <time>2017-09-20T09:07:22Z</time>
      </trkpt>
      <trkpt lat="45.75825" lon="3.65898">
        <ele>718</ele>
        <time>2017-09-20T09:07:31Z</time>
      </trkpt>
      <trkpt lat="45.75823" lon="3.65911">
        <ele>717</ele>
        <time>2017-09-20T09:07:38Z</time>
      </trkpt>
      <trkpt lat="45.75822" lon="3.65923">
        <ele>717</ele>
        <time>2017-09-20T09:07:45Z</time>
      </trkpt>
      <trkpt lat="45.75816" lon="3.65947">
        <ele>718</ele>
        <time>2017-09-20T09:07:59Z</time>
      </trkpt>
      <trkpt lat="45.7581" lon="3.65964">
        <ele>719</ele>
        <time>2017-09-20T09:08:09Z</time>
      </trkpt>
      <trkpt lat="45.75806" lon="3.65976">
        <ele>720</ele>
        <time>2017-09-20T09:08:16Z</time>
      </trkpt>
      <trkpt lat="45.75804" lon="3.65984">
        <ele>721</ele>
        <time>2017-09-20T09:08:23Z</time>
      </trkpt>
      <trkpt lat="45.75803" lon="3.65982">
        <ele>721</ele>
        <time>2017-09-20T09:08:28Z</time>
      </trkpt>
      <trkpt lat="45.75803" lon="3.65984">
        <ele>721</ele>
        <time>2017-09-20T09:08:31Z</time>
      </trkpt>
      <trkpt lat="45.75804" lon="3.6599">
        <ele>721</ele>
        <time>2017-09-20T09:08:38Z</time>
      </trkpt>
      <trkpt lat="45.75811" lon="3.65997">
        <ele>722</ele>
        <time>2017-09-20T09:08:45Z</time>
      </trkpt>
      <trkpt lat="45.7582" lon="3.66001">
        <ele>722</ele>
        <time>2017-09-20T09:08:55Z</time>
      </trkpt>
      <trkpt lat="45.75827" lon="3.66004">
        <ele>721</ele>
        <time>2017-09-20T09:09:01Z</time>
      </trkpt>
      <trkpt lat="45.75837" lon="3.66007">
        <ele>721</ele>
        <time>2017-09-20T09:09:09Z</time>
      </trkpt>
      <trkpt lat="45.75844" lon="3.66011">
        <ele>721</ele>
        <time>2017-09-20T09:09:15Z</time>
      </trkpt>
      <trkpt lat="45.75852" lon="3.66016">
        <ele>721</ele>
        <time>2017-09-20T09:09:21Z</time>
      </trkpt>
      <trkpt lat="45.7586" lon="3.66022">
        <ele>721</ele>
        <time>2017-09-20T09:09:27Z</time>
      </trkpt>
      <trkpt lat="45.75868" lon="3.66027">
        <ele>722</ele>
        <time>2017-09-20T09:09:33Z</time>
      </trkpt>
      <trkpt lat="45.75881" lon="3.66036">
        <ele>722</ele>
        <time>2017-09-20T09:09:43Z</time>
      </trkpt>
      <trkpt lat="45.75892" lon="3.66045">
        <ele>722</ele>
        <time>2017-09-20T09:09:51Z</time>
      </trkpt>
      <trkpt lat="45.75903" lon="3.66054">
        <ele>721</ele>
        <time>2017-09-20T09:10:00Z</time>
      </trkpt>
      <trkpt lat="45.75911" lon="3.66061">
        <ele>721</ele>
        <time>2017-09-20T09:10:06Z</time>
      </trkpt>
      <trkpt lat="45.75923" lon="3.66072">
        <ele>720</ele>
        <time>2017-09-20T09:10:15Z</time>
      </trkpt>
      <trkpt lat="45.75934" lon="3.66084">
        <ele>719</ele>
        <time>2017-09-20T09:10:24Z</time>
      </trkpt>
      <trkpt lat="45.7594" lon="3.66094">
        <ele>719</ele>
        <time>2017-09-20T09:10:31Z</time>
      </trkpt>
      <trkpt lat="45.75945" lon="3.66108">
        <ele>719</ele>
        <time>2017-09-20T09:10:39Z</time>
      </trkpt>
      <trkpt lat="45.75948" lon="3.66121">
        <ele>719</ele>
        <time>2017-09-20T09:10:46Z</time>
      </trkpt>
      <trkpt lat="45.75952" lon="3.66138">
        <ele>719</ele>
        <time>2017-09-20T09:10:55Z</time>
      </trkpt>
      <trkpt lat="45.75953" lon="3.66148">
        <ele>719</ele>
        <time>2017-09-20T09:11:01Z</time>
      </trkpt>
      <trkpt lat="45.75955" lon="3.66157">
        <ele>719</ele>
        <time>2017-09-20T09:11:06Z</time>
      </trkpt>
      <trkpt lat="45.75958" lon="3.6617">
        <ele>719</ele>
        <time>2017-09-20T09:11:13Z</time>
      </trkpt>
      <trkpt lat="45.75959" lon="3.66172">
        <ele>719</ele>
        <time>2017-09-20T09:11:14Z</time>
      </trkpt>
      <trkpt lat="45.75962" lon="3.66182">
        <ele>719</ele>
        <time>2017-09-20T09:11:20Z</time>
      </trkpt>
      <trkpt lat="45.75963" lon="3.66182">
        <ele>718</ele>
        <time>2017-09-20T09:11:21Z</time>
      </trkpt>
      <trkpt lat="45.75964" lon="3.66186">
        <ele>718</ele>
        <time>2017-09-20T09:11:24Z</time>
      </trkpt>
      <trkpt lat="45.75968" lon="3.66191">
        <ele>718</ele>
        <time>2017-09-20T09:11:31Z</time>
      </trkpt>
      <trkpt lat="45.75973" lon="3.66194">
        <ele>718</ele>
        <time>2017-09-20T09:11:37Z</time>
      </trkpt>
      <trkpt lat="45.75976" lon="3.66194">
        <ele>718</ele>
        <time>2017-09-20T09:11:42Z</time>
      </trkpt>
      <trkpt lat="45.75979" lon="3.66194">
        <ele>719</ele>
        <time>2017-09-20T09:11:47Z</time>
      </trkpt>
      <trkpt lat="45.7599" lon="3.66203">
        <ele>721</ele>
        <time>2017-09-20T09:12:00Z</time>
      </trkpt>
      <trkpt lat="45.75999" lon="3.66212">
        <ele>723</ele>
        <time>2017-09-20T09:12:07Z</time>
      </trkpt>
      <trkpt lat="45.76" lon="3.66212">
        <ele>723</ele>
        <time>2017-09-20T09:12:08Z</time>
      </trkpt>
      <trkpt lat="45.76003" lon="3.66216">
        <ele>724</ele>
        <time>2017-09-20T09:12:12Z</time>
      </trkpt>
      <trkpt lat="45.7601" lon="3.66219">
        <ele>725</ele>
        <time>2017-09-20T09:12:19Z</time>
      </trkpt>
      <trkpt lat="45.76016" lon="3.66221">
        <ele>726</ele>
        <time>2017-09-20T09:12:23Z</time>
      </trkpt>
      <trkpt lat="45.76023" lon="3.6622">
        <ele>726</ele>
        <time>2017-09-20T09:12:30Z</time>
      </trkpt>
      <trkpt lat="45.76024" lon="3.6622">
        <ele>726</ele>
        <time>2017-09-20T09:12:31Z</time>
      </trkpt>
      <trkpt lat="45.76026" lon="3.66219">
        <ele>726</ele>
        <time>2017-09-20T09:12:33Z</time>
      </trkpt>
      <trkpt lat="45.7603" lon="3.66218">
        <ele>726</ele>
        <time>2017-09-20T09:12:39Z</time>
      </trkpt>
      <trkpt lat="45.76031" lon="3.66218">
        <ele>726</ele>
        <time>2017-09-20T09:12:40Z</time>
      </trkpt>
      <trkpt lat="45.76036" lon="3.66219">
        <ele>726</ele>
        <time>2017-09-20T09:12:45Z</time>
      </trkpt>
      <trkpt lat="45.76037" lon="3.66219">
        <ele>726</ele>
        <time>2017-09-20T09:12:46Z</time>
      </trkpt>
      <trkpt lat="45.76045" lon="3.66216">
        <ele>726</ele>
        <time>2017-09-20T09:12:55Z</time>
      </trkpt>
      <trkpt lat="45.7605" lon="3.66215">
        <ele>726</ele>
        <time>2017-09-20T09:13:01Z</time>
      </trkpt>
      <trkpt lat="45.76051" lon="3.66216">
        <ele>727</ele>
        <time>2017-09-20T09:13:02Z</time>
      </trkpt>
      <trkpt lat="45.76053" lon="3.66219">
        <ele>727</ele>
        <time>2017-09-20T09:13:06Z</time>
      </trkpt>
      <trkpt lat="45.76053" lon="3.66222">
        <ele>728</ele>
        <time>2017-09-20T09:13:08Z</time>
      </trkpt>
      <trkpt lat="45.76054" lon="3.66225">
        <ele>729</ele>
        <time>2017-09-20T09:13:12Z</time>
      </trkpt>
      <trkpt lat="45.7606" lon="3.66229">
        <ele>729</ele>
        <time>2017-09-20T09:13:21Z</time>
      </trkpt>
      <trkpt lat="45.7607" lon="3.66237">
        <ele>729</ele>
        <time>2017-09-20T09:13:28Z</time>
      </trkpt>
      <trkpt lat="45.76079" lon="3.66239">
        <ele>728</ele>
        <time>2017-09-20T09:13:34Z</time>
      </trkpt>
      <trkpt lat="45.7608" lon="3.66239">
        <ele>728</ele>
        <time>2017-09-20T09:13:35Z</time>
      </trkpt>
      <trkpt lat="45.76085" lon="3.6624">
        <ele>728</ele>
        <time>2017-09-20T09:13:38Z</time>
      </trkpt>
      <trkpt lat="45.76091" lon="3.66242">
        <ele>727</ele>
        <time>2017-09-20T09:13:43Z</time>
      </trkpt>
      <trkpt lat="45.76097" lon="3.66243">
        <ele>727</ele>
        <time>2017-09-20T09:13:49Z</time>
      </trkpt>
      <trkpt lat="45.76102" lon="3.66245">
        <ele>726</ele>
        <time>2017-09-20T09:13:56Z</time>
      </trkpt>
      <trkpt lat="45.76106" lon="3.66253">
        <ele>727</ele>
        <time>2017-09-20T09:14:20Z</time>
      </trkpt>
      <trkpt lat="45.76115" lon="3.66259">
        <ele>727</ele>
        <time>2017-09-20T09:14:27Z</time>
      </trkpt>
      <trkpt lat="45.76121" lon="3.66263">
        <ele>727</ele>
        <time>2017-09-20T09:14:32Z</time>
      </trkpt>
      <trkpt lat="45.76127" lon="3.66269">
        <ele>728</ele>
        <time>2017-09-20T09:14:37Z</time>
      </trkpt>
      <trkpt lat="45.76128" lon="3.6627">
        <ele>728</ele>
        <time>2017-09-20T09:14:38Z</time>
      </trkpt>
      <trkpt lat="45.76145" lon="3.66291">
        <ele>728</ele>
        <time>2017-09-20T09:14:52Z</time>
      </trkpt>
      <trkpt lat="45.76148" lon="3.66313">
        <ele>730</ele>
        <time>2017-09-20T09:15:02Z</time>
      </trkpt>
      <trkpt lat="45.76152" lon="3.66331">
        <ele>731</ele>
        <time>2017-09-20T09:15:11Z</time>
      </trkpt>
      <trkpt lat="45.76153" lon="3.66335">
        <ele>732</ele>
        <time>2017-09-20T09:15:13Z</time>
      </trkpt>
      <trkpt lat="45.76155" lon="3.66351">
        <ele>733</ele>
        <time>2017-09-20T09:15:20Z</time>
      </trkpt>
      <trkpt lat="45.76157" lon="3.66371">
        <ele>738</ele>
        <time>2017-09-20T09:15:26Z</time>
      </trkpt>
      <trkpt lat="45.76158" lon="3.66374">
        <ele>739</ele>
        <time>2017-09-20T09:15:27Z</time>
      </trkpt>
      <trkpt lat="45.76164" lon="3.664">
        <ele>742</ele>
        <time>2017-09-20T09:15:35Z</time>
      </trkpt>
      <trkpt lat="45.76165" lon="3.66403">
        <ele>742</ele>
        <time>2017-09-20T09:15:36Z</time>
      </trkpt>
      <trkpt lat="45.76171" lon="3.66418">
        <ele>744</ele>
        <time>2017-09-20T09:15:42Z</time>
      </trkpt>
      <trkpt lat="45.76173" lon="3.6642">
        <ele>744</ele>
        <time>2017-09-20T09:15:44Z</time>
      </trkpt>
      <trkpt lat="45.76183" lon="3.66427">
        <ele>745</ele>
        <time>2017-09-20T09:15:49Z</time>
      </trkpt>
      <trkpt lat="45.76187" lon="3.6643">
        <ele>746</ele>
        <time>2017-09-20T09:15:53Z</time>
      </trkpt>
      <trkpt lat="45.76209" lon="3.66428">
        <ele>747</ele>
        <time>2017-09-20T09:16:01Z</time>
      </trkpt>
      <trkpt lat="45.7622" lon="3.66418">
        <ele>743</ele>
        <time>2017-09-20T09:16:06Z</time>
      </trkpt>
      <trkpt lat="45.76234" lon="3.6641">
        <ele>743</ele>
        <time>2017-09-20T09:16:12Z</time>
      </trkpt>
      <trkpt lat="45.76242" lon="3.66412">
        <ele>746</ele>
        <time>2017-09-20T09:16:15Z</time>
      </trkpt>
      <trkpt lat="45.76254" lon="3.66406">
        <ele>746</ele>
        <time>2017-09-20T09:16:20Z</time>
      </trkpt>
      <trkpt lat="45.7626" lon="3.66402">
        <ele>746</ele>
        <time>2017-09-20T09:16:23Z</time>
      </trkpt>
      <trkpt lat="45.76274" lon="3.66388">
        <ele>746</ele>
        <time>2017-09-20T09:16:30Z</time>
      </trkpt>
      <trkpt lat="45.76283" lon="3.66377">
        <ele>745</ele>
        <time>2017-09-20T09:16:36Z</time>
      </trkpt>
      <trkpt lat="45.76292" lon="3.66369">
        <ele>746</ele>
        <time>2017-09-20T09:16:43Z</time>
      </trkpt>
      <trkpt lat="45.76304" lon="3.66362">
        <ele>747</ele>
        <time>2017-09-20T09:16:50Z</time>
      </trkpt>
      <trkpt lat="45.76315" lon="3.66353">
        <ele>745</ele>
        <time>2017-09-20T09:16:58Z</time>
      </trkpt>
      <trkpt lat="45.76324" lon="3.66346">
        <ele>744</ele>
        <time>2017-09-20T09:17:05Z</time>
      </trkpt>
      <trkpt lat="45.76333" lon="3.66338">
        <ele>743</ele>
        <time>2017-09-20T09:17:12Z</time>
      </trkpt>
      <trkpt lat="45.76345" lon="3.66329">
        <ele>742</ele>
        <time>2017-09-20T09:17:21Z</time>
      </trkpt>
      <trkpt lat="45.76355" lon="3.66322">
        <ele>742</ele>
        <time>2017-09-20T09:17:28Z</time>
      </trkpt>
      <trkpt lat="45.76368" lon="3.66313">
        <ele>740</ele>
        <time>2017-09-20T09:17:37Z</time>
      </trkpt>
      <trkpt lat="45.76379" lon="3.66309">
        <ele>739</ele>
        <time>2017-09-20T09:17:44Z</time>
      </trkpt>
      <trkpt lat="45.76388" lon="3.66307">
        <ele>738</ele>
        <time>2017-09-20T09:17:50Z</time>
      </trkpt>
      <trkpt lat="45.76399" lon="3.66303">
        <ele>736</ele>
        <time>2017-09-20T09:17:57Z</time>
      </trkpt>
      <trkpt lat="45.76414" lon="3.66296">
        <ele>733</ele>
        <time>2017-09-20T09:18:07Z</time>
      </trkpt>
      <trkpt lat="45.76429" lon="3.6629">
        <ele>731</ele>
        <time>2017-09-20T09:18:17Z</time>
      </trkpt>
      <trkpt lat="45.76441" lon="3.66286">
        <ele>729</ele>
        <time>2017-09-20T09:18:24Z</time>
      </trkpt>
      <trkpt lat="45.76442" lon="3.66285">
        <ele>729</ele>
        <time>2017-09-20T09:18:25Z</time>
      </trkpt>
      <trkpt lat="45.76447" lon="3.66283">
        <ele>728</ele>
        <time>2017-09-20T09:18:29Z</time>
      </trkpt>
      <trkpt lat="45.76455" lon="3.6628">
        <ele>727</ele>
        <time>2017-09-20T09:18:36Z</time>
      </trkpt>
      <trkpt lat="45.76456" lon="3.66279">
        <ele>727</ele>
        <time>2017-09-20T09:18:37Z</time>
      </trkpt>
      <trkpt lat="45.76467" lon="3.66278">
        <ele>726</ele>
        <time>2017-09-20T09:18:44Z</time>
      </trkpt>
      <trkpt lat="45.76476" lon="3.66274">
        <ele>725</ele>
        <time>2017-09-20T09:18:51Z</time>
      </trkpt>
      <trkpt lat="45.76485" lon="3.66275">
        <ele>725</ele>
        <time>2017-09-20T09:18:56Z</time>
      </trkpt>
      <trkpt lat="45.76494" lon="3.66274">
        <ele>724</ele>
        <time>2017-09-20T09:19:02Z</time>
      </trkpt>
      <trkpt lat="45.76504" lon="3.66274">
        <ele>724</ele>
        <time>2017-09-20T09:19:09Z</time>
      </trkpt>
      <trkpt lat="45.76517" lon="3.66273">
        <ele>724</ele>
        <time>2017-09-20T09:19:17Z</time>
      </trkpt>
      <trkpt lat="45.76529" lon="3.66275">
        <ele>724</ele>
        <time>2017-09-20T09:19:24Z</time>
      </trkpt>
      <trkpt lat="45.76543" lon="3.66279">
        <ele>724</ele>
        <time>2017-09-20T09:19:32Z</time>
      </trkpt>
      <trkpt lat="45.76557" lon="3.66285">
        <ele>724</ele>
        <time>2017-09-20T09:19:41Z</time>
      </trkpt>
      <trkpt lat="45.76572" lon="3.66292">
        <ele>723</ele>
        <time>2017-09-20T09:19:50Z</time>
      </trkpt>
      <trkpt lat="45.76579" lon="3.66296">
        <ele>722</ele>
        <time>2017-09-20T09:19:56Z</time>
      </trkpt>
      <trkpt lat="45.76585" lon="3.66296">
        <ele>722</ele>
        <time>2017-09-20T09:20:11Z</time>
      </trkpt>
      <trkpt lat="45.76587" lon="3.66297">
        <ele>722</ele>
        <time>2017-09-20T09:20:16Z</time>
      </trkpt>
      <trkpt lat="45.76589" lon="3.66303">
        <ele>722</ele>
        <time>2017-09-20T09:21:36Z</time>
      </trkpt>
      <trkpt lat="45.76584" lon="3.66311">
        <ele>722</ele>
        <time>2017-09-20T09:21:43Z</time>
      </trkpt>
      <trkpt lat="45.76583" lon="3.66333">
        <ele>723</ele>
        <time>2017-09-20T09:21:54Z</time>
      </trkpt>
      <trkpt lat="45.76588" lon="3.66339">
        <ele>723</ele>
        <time>2017-09-20T09:22:00Z</time>
      </trkpt>
      <trkpt lat="45.7659" lon="3.66341">
        <ele>723</ele>
        <time>2017-09-20T09:22:02Z</time>
      </trkpt>
      <trkpt lat="45.76592" lon="3.66345">
        <ele>723</ele>
        <time>2017-09-20T09:22:06Z</time>
      </trkpt>
      <trkpt lat="45.76598" lon="3.66356">
        <ele>723</ele>
        <time>2017-09-20T09:22:13Z</time>
      </trkpt>
      <trkpt lat="45.76605" lon="3.66367">
        <ele>723</ele>
        <time>2017-09-20T09:22:20Z</time>
      </trkpt>
      <trkpt lat="45.76608" lon="3.66368">
        <ele>722</ele>
        <time>2017-09-20T09:22:26Z</time>
      </trkpt>
      <trkpt lat="45.76611" lon="3.66369">
        <ele>722</ele>
        <time>2017-09-20T09:22:33Z</time>
      </trkpt>
      <trkpt lat="45.76614" lon="3.6637">
        <ele>722</ele>
        <time>2017-09-20T09:22:38Z</time>
      </trkpt>
      <trkpt lat="45.7662" lon="3.66365">
        <ele>721</ele>
        <time>2017-09-20T09:23:09Z</time>
      </trkpt>
      <trkpt lat="45.76612" lon="3.66358">
        <ele>722</ele>
        <time>2017-09-20T09:23:16Z</time>
      </trkpt>
      <trkpt lat="45.76603" lon="3.66353">
        <ele>722</ele>
        <time>2017-09-20T09:23:23Z</time>
      </trkpt>
      <trkpt lat="45.76597" lon="3.66347">
        <ele>722</ele>
        <time>2017-09-20T09:23:28Z</time>
      </trkpt>
      <trkpt lat="45.76592" lon="3.66342">
        <ele>723</ele>
        <time>2017-09-20T09:23:32Z</time>
      </trkpt>
      <trkpt lat="45.76589" lon="3.6633">
        <ele>723</ele>
        <time>2017-09-20T09:23:38Z</time>
      </trkpt>
      <trkpt lat="45.76593" lon="3.66313">
        <ele>722</ele>
        <time>2017-09-20T09:23:45Z</time>
      </trkpt>
      <trkpt lat="45.76598" lon="3.663">
        <ele>722</ele>
        <time>2017-09-20T09:23:51Z</time>
      </trkpt>
      <trkpt lat="45.76599" lon="3.66299">
        <ele>722</ele>
        <time>2017-09-20T09:23:52Z</time>
      </trkpt>
      <trkpt lat="45.76608" lon="3.66301">
        <ele>721</ele>
        <time>2017-09-20T09:23:59Z</time>
      </trkpt>
      <trkpt lat="45.76616" lon="3.66301">
        <ele>721</ele>
        <time>2017-09-20T09:24:06Z</time>
      </trkpt>
      <trkpt lat="45.76624" lon="3.66299">
        <ele>721</ele>
        <time>2017-09-20T09:24:12Z</time>
      </trkpt>
      <trkpt lat="45.76625" lon="3.66298">
        <ele>721</ele>
        <time>2017-09-20T09:24:13Z</time>
      </trkpt>
      <trkpt lat="45.76632" lon="3.66298">
        <ele>720</ele>
        <time>2017-09-20T09:24:19Z</time>
      </trkpt>
      <trkpt lat="45.76641" lon="3.66295">
        <ele>720</ele>
        <time>2017-09-20T09:24:26Z</time>
      </trkpt>
      <trkpt lat="45.76646" lon="3.66296">
        <ele>718</ele>
        <time>2017-09-20T09:24:31Z</time>
      </trkpt>
      <trkpt lat="45.76652" lon="3.66295">
        <ele>717</ele>
        <time>2017-09-20T09:24:35Z</time>
      </trkpt>
      <trkpt lat="45.76658" lon="3.66296">
        <ele>716</ele>
        <time>2017-09-20T09:24:41Z</time>
      </trkpt>
      <trkpt lat="45.76658" lon="3.66296">
        <ele>715</ele>
        <time>2017-09-20T09:24:42Z</time>
      </trkpt>
      <trkpt lat="45.76658" lon="3.66295">
        <ele>715</ele>
        <time>2017-09-20T09:24:43Z</time>
      </trkpt>
      <trkpt lat="45.76659" lon="3.66295">
        <ele>715</ele>
        <time>2017-09-20T09:24:45Z</time>
      </trkpt>
      <trkpt lat="45.7667" lon="3.66287">
        <ele>712</ele>
        <time>2017-09-20T09:24:59Z</time>
      </trkpt>
      <trkpt lat="45.76672" lon="3.66283">
        <ele>711</ele>
        <time>2017-09-20T09:25:03Z</time>
      </trkpt>
      <trkpt lat="45.76679" lon="3.66274">
        <ele>709</ele>
        <time>2017-09-20T09:25:11Z</time>
      </trkpt>
      <trkpt lat="45.76682" lon="3.66268">
        <ele>708</ele>
        <time>2017-09-20T09:25:15Z</time>
      </trkpt>
      <trkpt lat="45.76684" lon="3.66264">
        <ele>706</ele>
        <time>2017-09-20T09:25:19Z</time>
      </trkpt>
      <trkpt lat="45.76688" lon="3.66255">
        <ele>703</ele>
        <time>2017-09-20T09:25:25Z</time>
      </trkpt>
      <trkpt lat="45.76689" lon="3.66247">
        <ele>701</ele>
        <time>2017-09-20T09:25:31Z</time>
      </trkpt>
      <trkpt lat="45.76689" lon="3.66241">
        <ele>700</ele>
        <time>2017-09-20T09:25:36Z</time>
      </trkpt>
      <trkpt lat="45.76691" lon="3.66234">
        <ele>699</ele>
        <time>2017-09-20T09:25:40Z</time>
      </trkpt>
      <trkpt lat="45.76693" lon="3.66233">
        <ele>698</ele>
        <time>2017-09-20T09:25:42Z</time>
      </trkpt>
      <trkpt lat="45.76695" lon="3.66232">
        <ele>698</ele>
        <time>2017-09-20T09:25:44Z</time>
      </trkpt>
      <trkpt lat="45.76701" lon="3.66232">
        <ele>697</ele>
        <time>2017-09-20T09:25:50Z</time>
      </trkpt>
      <trkpt lat="45.76711" lon="3.66238">
        <ele>696</ele>
        <time>2017-09-20T09:25:57Z</time>
      </trkpt>
      <trkpt lat="45.76717" lon="3.66241">
        <ele>695</ele>
        <time>2017-09-20T09:26:03Z</time>
      </trkpt>
      <trkpt lat="45.76717" lon="3.66242">
        <ele>695</ele>
        <time>2017-09-20T09:26:04Z</time>
      </trkpt>
      <trkpt lat="45.7672" lon="3.66245">
        <ele>695</ele>
        <time>2017-09-20T09:26:10Z</time>
      </trkpt>
      <trkpt lat="45.76724" lon="3.66246">
        <ele>694</ele>
        <time>2017-09-20T09:26:15Z</time>
      </trkpt>
      <trkpt lat="45.76726" lon="3.66251">
        <ele>694</ele>
        <time>2017-09-20T09:26:21Z</time>
      </trkpt>
      <trkpt lat="45.76726" lon="3.66255">
        <ele>695</ele>
        <time>2017-09-20T09:26:26Z</time>
      </trkpt>
      <trkpt lat="45.76728" lon="3.66262">
        <ele>695</ele>
        <time>2017-09-20T09:26:33Z</time>
      </trkpt>
      <trkpt lat="45.7673" lon="3.66267">
        <ele>695</ele>
        <time>2017-09-20T09:26:38Z</time>
      </trkpt>
      <trkpt lat="45.76737" lon="3.66271">
        <ele>695</ele>
        <time>2017-09-20T09:26:48Z</time>
      </trkpt>
      <trkpt lat="45.76738" lon="3.66272">
        <ele>695</ele>
        <time>2017-09-20T09:26:50Z</time>
      </trkpt>
      <trkpt lat="45.76744" lon="3.66272">
        <ele>694</ele>
        <time>2017-09-20T09:26:55Z</time>
      </trkpt>
      <trkpt lat="45.76745" lon="3.66268">
        <ele>694</ele>
        <time>2017-09-20T09:27:00Z</time>
      </trkpt>
      <trkpt lat="45.76745" lon="3.66262">
        <ele>693</ele>
        <time>2017-09-20T09:27:04Z</time>
      </trkpt>
      <trkpt lat="45.76744" lon="3.66255">
        <ele>693</ele>
        <time>2017-09-20T09:27:08Z</time>
      </trkpt>
      <trkpt lat="45.76744" lon="3.66252">
        <ele>692</ele>
        <time>2017-09-20T09:27:10Z</time>
      </trkpt>
      <trkpt lat="45.76744" lon="3.66246">
        <ele>692</ele>
        <time>2017-09-20T09:27:13Z</time>
      </trkpt>
      <trkpt lat="45.76743" lon="3.66236">
        <ele>691</ele>
        <time>2017-09-20T09:27:18Z</time>
      </trkpt>
      <trkpt lat="45.76743" lon="3.66232">
        <ele>691</ele>
        <time>2017-09-20T09:27:20Z</time>
      </trkpt>
      <trkpt lat="45.76746" lon="3.66224">
        <ele>690</ele>
        <time>2017-09-20T09:27:25Z</time>
      </trkpt>
      <trkpt lat="45.76746" lon="3.66222">
        <ele>690</ele>
        <time>2017-09-20T09:27:26Z</time>
      </trkpt>
      <trkpt lat="45.76746" lon="3.6622">
        <ele>689</ele>
        <time>2017-09-20T09:27:27Z</time>
      </trkpt>
      <trkpt lat="45.76747" lon="3.6621">
        <ele>689</ele>
        <time>2017-09-20T09:27:33Z</time>
      </trkpt>
      <trkpt lat="45.76747" lon="3.662">
        <ele>688</ele>
        <time>2017-09-20T09:27:39Z</time>
      </trkpt>
      <trkpt lat="45.76746" lon="3.66198">
        <ele>688</ele>
        <time>2017-09-20T09:27:41Z</time>
      </trkpt>
      <trkpt lat="45.76746" lon="3.66196">
        <ele>688</ele>
        <time>2017-09-20T09:27:43Z</time>
      </trkpt>
      <trkpt lat="45.76746" lon="3.66191">
        <ele>687</ele>
        <time>2017-09-20T09:27:48Z</time>
      </trkpt>
      <trkpt lat="45.76748" lon="3.66185">
        <ele>687</ele>
        <time>2017-09-20T09:27:53Z</time>
      </trkpt>
      <trkpt lat="45.76755" lon="3.66179">
        <ele>685</ele>
        <time>2017-09-20T09:28:00Z</time>
      </trkpt>
      <trkpt lat="45.76758" lon="3.66176">
        <ele>685</ele>
        <time>2017-09-20T09:28:04Z</time>
      </trkpt>
      <trkpt lat="45.76759" lon="3.66173">
        <ele>684</ele>
        <time>2017-09-20T09:28:06Z</time>
      </trkpt>
      <trkpt lat="45.76763" lon="3.66166">
        <ele>683</ele>
        <time>2017-09-20T09:28:10Z</time>
      </trkpt>
      <trkpt lat="45.7677" lon="3.66153">
        <ele>680</ele>
        <time>2017-09-20T09:28:31Z</time>
      </trkpt>
      <trkpt lat="45.76772" lon="3.6615">
        <ele>680</ele>
        <time>2017-09-20T09:28:40Z</time>
      </trkpt>
      <trkpt lat="45.76775" lon="3.66149">
        <ele>680</ele>
        <time>2017-09-20T09:28:45Z</time>
      </trkpt>
      <trkpt lat="45.76777" lon="3.6615">
        <ele>680</ele>
        <time>2017-09-20T09:28:47Z</time>
      </trkpt>
      <trkpt lat="45.76782" lon="3.66147">
        <ele>680</ele>
        <time>2017-09-20T09:28:55Z</time>
      </trkpt>
      <trkpt lat="45.76787" lon="3.6615">
        <ele>680</ele>
        <time>2017-09-20T09:29:01Z</time>
      </trkpt>
      <trkpt lat="45.76795" lon="3.66155">
        <ele>681</ele>
        <time>2017-09-20T09:29:07Z</time>
      </trkpt>
      <trkpt lat="45.76795" lon="3.66155">
        <ele>681</ele>
        <time>2017-09-20T09:29:08Z</time>
      </trkpt>
      <trkpt lat="45.76795" lon="3.66155">
        <ele>681</ele>
        <time>2017-09-20T09:29:10Z</time>
      </trkpt>
      <trkpt lat="45.768" lon="3.66158">
        <ele>681</ele>
        <time>2017-09-20T09:29:17Z</time>
      </trkpt>
      <trkpt lat="45.76806" lon="3.66161">
        <ele>681</ele>
        <time>2017-09-20T09:29:24Z</time>
      </trkpt>
      <trkpt lat="45.7681" lon="3.6616">
        <ele>681</ele>
        <time>2017-09-20T09:29:30Z</time>
      </trkpt>
      <trkpt lat="45.76815" lon="3.66162">
        <ele>682</ele>
        <time>2017-09-20T09:29:38Z</time>
      </trkpt>
      <trkpt lat="45.76816" lon="3.66162">
        <ele>682</ele>
        <time>2017-09-20T09:29:39Z</time>
      </trkpt>
      <trkpt lat="45.7682" lon="3.66164">
        <ele>682</ele>
        <time>2017-09-20T09:29:43Z</time>
      </trkpt>
      <trkpt lat="45.76825" lon="3.66164">
        <ele>682</ele>
        <time>2017-09-20T09:29:48Z</time>
      </trkpt>
      <trkpt lat="45.76829" lon="3.66161">
        <ele>682</ele>
        <time>2017-09-20T09:29:53Z</time>
      </trkpt>
      <trkpt lat="45.76831" lon="3.6616">
        <ele>682</ele>
        <time>2017-09-20T09:29:55Z</time>
      </trkpt>
      <trkpt lat="45.76833" lon="3.66158">
        <ele>682</ele>
        <time>2017-09-20T09:29:58Z</time>
      </trkpt>
      <trkpt lat="45.76837" lon="3.66154">
        <ele>682</ele>
        <time>2017-09-20T09:30:03Z</time>
      </trkpt>
      <trkpt lat="45.76837" lon="3.66153">
        <ele>682</ele>
        <time>2017-09-20T09:30:04Z</time>
      </trkpt>
      <trkpt lat="45.76836" lon="3.66149">
        <ele>682</ele>
        <time>2017-09-20T09:30:15Z</time>
      </trkpt>
      <trkpt lat="45.76836" lon="3.66146">
        <ele>682</ele>
        <time>2017-09-20T09:30:24Z</time>
      </trkpt>
      <trkpt lat="45.76837" lon="3.66144">
        <ele>682</ele>
        <time>2017-09-20T09:30:36Z</time>
      </trkpt>
      <trkpt lat="45.76839" lon="3.66155">
        <ele>683</ele>
        <time>2017-09-20T09:30:44Z</time>
      </trkpt>
      <trkpt lat="45.76839" lon="3.66165">
        <ele>683</ele>
        <time>2017-09-20T09:30:49Z</time>
      </trkpt>
      <trkpt lat="45.76839" lon="3.66167">
        <ele>683</ele>
        <time>2017-09-20T09:30:50Z</time>
      </trkpt>
      <trkpt lat="45.76843" lon="3.6618">
        <ele>683</ele>
        <time>2017-09-20T09:30:56Z</time>
      </trkpt>
      <trkpt lat="45.76849" lon="3.66195">
        <ele>684</ele>
        <time>2017-09-20T09:31:05Z</time>
      </trkpt>
      <trkpt lat="45.76856" lon="3.66202">
        <ele>684</ele>
        <time>2017-09-20T09:31:11Z</time>
      </trkpt>
      <trkpt lat="45.76864" lon="3.66209">
        <ele>685</ele>
        <time>2017-09-20T09:31:18Z</time>
      </trkpt>
      <trkpt lat="45.76871" lon="3.66216">
        <ele>685</ele>
        <time>2017-09-20T09:31:24Z</time>
      </trkpt>
      <trkpt lat="45.76876" lon="3.66219">
        <ele>685</ele>
        <time>2017-09-20T09:31:30Z</time>
      </trkpt>
      <trkpt lat="45.7688" lon="3.66225">
        <ele>686</ele>
        <time>2017-09-20T09:31:40Z</time>
      </trkpt>
      <trkpt lat="45.76881" lon="3.66228">
        <ele>686</ele>
        <time>2017-09-20T09:31:41Z</time>
      </trkpt>
      <trkpt lat="45.76892" lon="3.66246">
        <ele>687</ele>
        <time>2017-09-20T09:31:51Z</time>
      </trkpt>
      <trkpt lat="45.76891" lon="3.66261">
        <ele>687</ele>
        <time>2017-09-20T09:32:00Z</time>
      </trkpt>
      <trkpt lat="45.76883" lon="3.66271">
        <ele>687</ele>
        <time>2017-09-20T09:32:07Z</time>
      </trkpt>
      <trkpt lat="45.76879" lon="3.66285">
        <ele>689</ele>
        <time>2017-09-20T09:32:16Z</time>
      </trkpt>
      <trkpt lat="45.76877" lon="3.66299">
        <ele>690</ele>
        <time>2017-09-20T09:32:24Z</time>
      </trkpt>
      <trkpt lat="45.76877" lon="3.66311">
        <ele>692</ele>
        <time>2017-09-20T09:32:31Z</time>
      </trkpt>
      <trkpt lat="45.76877" lon="3.66312">
        <ele>692</ele>
        <time>2017-09-20T09:32:33Z</time>
      </trkpt>
      <trkpt lat="45.76875" lon="3.66323">
        <ele>694</ele>
        <time>2017-09-20T09:32:40Z</time>
      </trkpt>
      <trkpt lat="45.76872" lon="3.66338">
        <ele>696</ele>
        <time>2017-09-20T09:32:48Z</time>
      </trkpt>
      <trkpt lat="45.7687" lon="3.66353">
        <ele>698</ele>
        <time>2017-09-20T09:32:56Z</time>
      </trkpt>
      <trkpt lat="45.7687" lon="3.66363">
        <ele>701</ele>
        <time>2017-09-20T09:33:03Z</time>
      </trkpt>
      <trkpt lat="45.76868" lon="3.66377">
        <ele>705</ele>
        <time>2017-09-20T09:33:11Z</time>
      </trkpt>
      <trkpt lat="45.76866" lon="3.66387">
        <ele>708</ele>
        <time>2017-09-20T09:33:15Z</time>
      </trkpt>
      <trkpt lat="45.76866" lon="3.66388">
        <ele>708</ele>
        <time>2017-09-20T09:33:16Z</time>
      </trkpt>
      <trkpt lat="45.76866" lon="3.66392">
        <ele>709</ele>
        <time>2017-09-20T09:33:18Z</time>
      </trkpt>
      <trkpt lat="45.76867" lon="3.66401">
        <ele>712</ele>
        <time>2017-09-20T09:33:25Z</time>
      </trkpt>
      <trkpt lat="45.76865" lon="3.66409">
        <ele>714</ele>
        <time>2017-09-20T09:33:33Z</time>
      </trkpt>
      <trkpt lat="45.7687" lon="3.66414">
        <ele>716</ele>
        <time>2017-09-20T09:33:40Z</time>
      </trkpt>
      <trkpt lat="45.76874" lon="3.66419">
        <ele>717</ele>
        <time>2017-09-20T09:33:46Z</time>
      </trkpt>
      <trkpt lat="45.76874" lon="3.66421">
        <ele>718</ele>
        <time>2017-09-20T09:33:49Z</time>
      </trkpt>
      <trkpt lat="45.76876" lon="3.66423">
        <ele>718</ele>
        <time>2017-09-20T09:33:51Z</time>
      </trkpt>
      <trkpt lat="45.76882" lon="3.66428">
        <ele>719</ele>
        <time>2017-09-20T09:33:59Z</time>
      </trkpt>
      <trkpt lat="45.76883" lon="3.66429">
        <ele>720</ele>
        <time>2017-09-20T09:34:00Z</time>
      </trkpt>
      <trkpt lat="45.76885" lon="3.66433">
        <ele>721</ele>
        <time>2017-09-20T09:34:05Z</time>
      </trkpt>
      <trkpt lat="45.76887" lon="3.66435">
        <ele>721</ele>
        <time>2017-09-20T09:34:06Z</time>
      </trkpt>
      <trkpt lat="45.76891" lon="3.66439">
        <ele>722</ele>
        <time>2017-09-20T09:34:11Z</time>
      </trkpt>
      <trkpt lat="45.76894" lon="3.66443">
        <ele>722</ele>
        <time>2017-09-20T09:34:15Z</time>
      </trkpt>
      <trkpt lat="45.76896" lon="3.66445">
        <ele>722</ele>
        <time>2017-09-20T09:34:18Z</time>
      </trkpt>
      <trkpt lat="45.76898" lon="3.6645">
        <ele>723</ele>
        <time>2017-09-20T09:34:21Z</time>
      </trkpt>
      <trkpt lat="45.76904" lon="3.6646">
        <ele>725</ele>
        <time>2017-09-20T09:34:30Z</time>
      </trkpt>
      <trkpt lat="45.76907" lon="3.66463">
        <ele>725</ele>
        <time>2017-09-20T09:34:33Z</time>
      </trkpt>
      <trkpt lat="45.76909" lon="3.66465">
        <ele>725</ele>
        <time>2017-09-20T09:34:35Z</time>
      </trkpt>
      <trkpt lat="45.76912" lon="3.6647">
        <ele>726</ele>
        <time>2017-09-20T09:34:39Z</time>
      </trkpt>
      <trkpt lat="45.76913" lon="3.66472">
        <ele>726</ele>
        <time>2017-09-20T09:34:40Z</time>
      </trkpt>
      <trkpt lat="45.76928" lon="3.66504">
        <ele>732</ele>
        <time>2017-09-20T09:34:59Z</time>
      </trkpt>
      <trkpt lat="45.76931" lon="3.66513">
        <ele>734</ele>
        <time>2017-09-20T09:35:05Z</time>
      </trkpt>
      <trkpt lat="45.76931" lon="3.66514">
        <ele>734</ele>
        <time>2017-09-20T09:35:06Z</time>
      </trkpt>
      <trkpt lat="45.76932" lon="3.66519">
        <ele>735</ele>
        <time>2017-09-20T09:35:09Z</time>
      </trkpt>
      <trkpt lat="45.76933" lon="3.66522">
        <ele>735</ele>
        <time>2017-09-20T09:35:11Z</time>
      </trkpt>
      <trkpt lat="45.76935" lon="3.66528">
        <ele>736</ele>
        <time>2017-09-20T09:35:15Z</time>
      </trkpt>
      <trkpt lat="45.76935" lon="3.66538">
        <ele>738</ele>
        <time>2017-09-20T09:35:21Z</time>
      </trkpt>
      <trkpt lat="45.76936" lon="3.66543">
        <ele>739</ele>
        <time>2017-09-20T09:35:25Z</time>
      </trkpt>
      <trkpt lat="45.76937" lon="3.66546">
        <ele>739</ele>
        <time>2017-09-20T09:35:29Z</time>
      </trkpt>
      <trkpt lat="45.76937" lon="3.66552">
        <ele>740</ele>
        <time>2017-09-20T09:35:33Z</time>
      </trkpt>
      <trkpt lat="45.76938" lon="3.66555">
        <ele>740</ele>
        <time>2017-09-20T09:35:35Z</time>
      </trkpt>
      <trkpt lat="45.76939" lon="3.66562">
        <ele>742</ele>
        <time>2017-09-20T09:35:39Z</time>
      </trkpt>
      <trkpt lat="45.76941" lon="3.66573">
        <ele>743</ele>
        <time>2017-09-20T09:35:46Z</time>
      </trkpt>
      <trkpt lat="45.76942" lon="3.6658">
        <ele>744</ele>
        <time>2017-09-20T09:35:51Z</time>
      </trkpt>
      <trkpt lat="45.76943" lon="3.66588">
        <ele>746</ele>
        <time>2017-09-20T09:35:58Z</time>
      </trkpt>
      <trkpt lat="45.76943" lon="3.6659">
        <ele>746</ele>
        <time>2017-09-20T09:35:59Z</time>
      </trkpt>
      <trkpt lat="45.76943" lon="3.66593">
        <ele>747</ele>
        <time>2017-09-20T09:36:00Z</time>
      </trkpt>
      <trkpt lat="45.76944" lon="3.66602">
        <ele>748</ele>
        <time>2017-09-20T09:36:06Z</time>
      </trkpt>
      <trkpt lat="45.76944" lon="3.66606">
        <ele>749</ele>
        <time>2017-09-20T09:36:09Z</time>
      </trkpt>
      <trkpt lat="45.76944" lon="3.66614">
        <ele>751</ele>
        <time>2017-09-20T09:36:15Z</time>
      </trkpt>
      <trkpt lat="45.76947" lon="3.66621">
        <ele>752</ele>
        <time>2017-09-20T09:36:19Z</time>
      </trkpt>
      <trkpt lat="45.76948" lon="3.6663">
        <ele>754</ele>
        <time>2017-09-20T09:36:24Z</time>
      </trkpt>
      <trkpt lat="45.76949" lon="3.66633">
        <ele>754</ele>
        <time>2017-09-20T09:36:26Z</time>
      </trkpt>
      <trkpt lat="45.7695" lon="3.66643">
        <ele>756</ele>
        <time>2017-09-20T09:36:33Z</time>
      </trkpt>
      <trkpt lat="45.76952" lon="3.66652">
        <ele>758</ele>
        <time>2017-09-20T09:36:40Z</time>
      </trkpt>
      <trkpt lat="45.76957" lon="3.6667">
        <ele>761</ele>
        <time>2017-09-20T09:36:51Z</time>
      </trkpt>
      <trkpt lat="45.76958" lon="3.66675">
        <ele>762</ele>
        <time>2017-09-20T09:36:54Z</time>
      </trkpt>
      <trkpt lat="45.76958" lon="3.66684">
        <ele>763</ele>
        <time>2017-09-20T09:37:00Z</time>
      </trkpt>
      <trkpt lat="45.76959" lon="3.66693">
        <ele>765</ele>
        <time>2017-09-20T09:37:06Z</time>
      </trkpt>
      <trkpt lat="45.7696" lon="3.66699">
        <ele>766</ele>
        <time>2017-09-20T09:37:10Z</time>
      </trkpt>
      <trkpt lat="45.7696" lon="3.66706">
        <ele>768</ele>
        <time>2017-09-20T09:37:16Z</time>
      </trkpt>
      <trkpt lat="45.7696" lon="3.66708">
        <ele>768</ele>
        <time>2017-09-20T09:37:18Z</time>
      </trkpt>
      <trkpt lat="45.76962" lon="3.66711">
        <ele>769</ele>
        <time>2017-09-20T09:37:23Z</time>
      </trkpt>
      <trkpt lat="45.76963" lon="3.66712">
        <ele>769</ele>
        <time>2017-09-20T09:37:24Z</time>
      </trkpt>
      <trkpt lat="45.76969" lon="3.66716">
        <ele>769</ele>
        <time>2017-09-20T09:37:31Z</time>
      </trkpt>
      <trkpt lat="45.76976" lon="3.66721">
        <ele>770</ele>
        <time>2017-09-20T09:37:36Z</time>
      </trkpt>
      <trkpt lat="45.76978" lon="3.66723">
        <ele>770</ele>
        <time>2017-09-20T09:37:39Z</time>
      </trkpt>
      <trkpt lat="45.76981" lon="3.66724">
        <ele>770</ele>
        <time>2017-09-20T09:37:41Z</time>
      </trkpt>
      <trkpt lat="45.7699" lon="3.66728">
        <ele>770</ele>
        <time>2017-09-20T09:37:48Z</time>
      </trkpt>
      <trkpt lat="45.76992" lon="3.66729">
        <ele>770</ele>
        <time>2017-09-20T09:37:49Z</time>
      </trkpt>
      <trkpt lat="45.76997" lon="3.6673">
        <ele>770</ele>
        <time>2017-09-20T09:37:54Z</time>
      </trkpt>
      <trkpt lat="45.77001" lon="3.66734">
        <ele>771</ele>
        <time>2017-09-20T09:37:58Z</time>
      </trkpt>
      <trkpt lat="45.77005" lon="3.66736">
        <ele>771</ele>
        <time>2017-09-20T09:38:00Z</time>
      </trkpt>
      <trkpt lat="45.77009" lon="3.66739">
        <ele>771</ele>
        <time>2017-09-20T09:38:06Z</time>
      </trkpt>
      <trkpt lat="45.77015" lon="3.66745">
        <ele>772</ele>
        <time>2017-09-20T09:38:11Z</time>
      </trkpt>
      <trkpt lat="45.77016" lon="3.66746">
        <ele>772</ele>
        <time>2017-09-20T09:38:12Z</time>
      </trkpt>
      <trkpt lat="45.77022" lon="3.66756">
        <ele>774</ele>
        <time>2017-09-20T09:38:18Z</time>
      </trkpt>
      <trkpt lat="45.77028" lon="3.66764">
        <ele>776</ele>
        <time>2017-09-20T09:38:25Z</time>
      </trkpt>
      <trkpt lat="45.77035" lon="3.66769">
        <ele>776</ele>
        <time>2017-09-20T09:38:31Z</time>
      </trkpt>
      <trkpt lat="45.77037" lon="3.6677">
        <ele>776</ele>
        <time>2017-09-20T09:38:34Z</time>
      </trkpt>
      <trkpt lat="45.77041" lon="3.66777">
        <ele>777</ele>
        <time>2017-09-20T09:38:40Z</time>
      </trkpt>
      <trkpt lat="45.77044" lon="3.6678">
        <ele>778</ele>
        <time>2017-09-20T09:38:42Z</time>
      </trkpt>
      <trkpt lat="45.77057" lon="3.66791">
        <ele>779</ele>
        <time>2017-09-20T09:38:55Z</time>
      </trkpt>
      <trkpt lat="45.7706" lon="3.66799">
        <ele>780</ele>
        <time>2017-09-20T09:39:01Z</time>
      </trkpt>
      <trkpt lat="45.77061" lon="3.66801">
        <ele>780</ele>
        <time>2017-09-20T09:39:04Z</time>
      </trkpt>
      <trkpt lat="45.77068" lon="3.6681">
        <ele>782</ele>
        <time>2017-09-20T09:39:09Z</time>
      </trkpt>
      <trkpt lat="45.7707" lon="3.66813">
        <ele>782</ele>
        <time>2017-09-20T09:39:11Z</time>
      </trkpt>
      <trkpt lat="45.77073" lon="3.66822">
        <ele>783</ele>
        <time>2017-09-20T09:39:18Z</time>
      </trkpt>
      <trkpt lat="45.77075" lon="3.66825">
        <ele>784</ele>
        <time>2017-09-20T09:39:21Z</time>
      </trkpt>
      <trkpt lat="45.77081" lon="3.66839">
        <ele>786</ele>
        <time>2017-09-20T09:39:28Z</time>
      </trkpt>
      <trkpt lat="45.77083" lon="3.66845">
        <ele>787</ele>
        <time>2017-09-20T09:39:31Z</time>
      </trkpt>
      <trkpt lat="45.77087" lon="3.66859">
        <ele>790</ele>
        <time>2017-09-20T09:39:39Z</time>
      </trkpt>
      <trkpt lat="45.77088" lon="3.66864">
        <ele>790</ele>
        <time>2017-09-20T09:39:41Z</time>
      </trkpt>
      <trkpt lat="45.77092" lon="3.6688">
        <ele>793</ele>
        <time>2017-09-20T09:39:48Z</time>
      </trkpt>
      <trkpt lat="45.77093" lon="3.66896">
        <ele>795</ele>
        <time>2017-09-20T09:39:58Z</time>
      </trkpt>
      <trkpt lat="45.77095" lon="3.66909">
        <ele>797</ele>
        <time>2017-09-20T09:40:05Z</time>
      </trkpt>
      <trkpt lat="45.77096" lon="3.6692">
        <ele>798</ele>
        <time>2017-09-20T09:40:10Z</time>
      </trkpt>
      <trkpt lat="45.77097" lon="3.66928">
        <ele>799</ele>
        <time>2017-09-20T09:40:14Z</time>
      </trkpt>
      <trkpt lat="45.77103" lon="3.66941">
        <ele>801</ele>
        <time>2017-09-20T09:40:20Z</time>
      </trkpt>
      <trkpt lat="45.77104" lon="3.66946">
        <ele>801</ele>
        <time>2017-09-20T09:40:23Z</time>
      </trkpt>
      <trkpt lat="45.77108" lon="3.66951">
        <ele>802</ele>
        <time>2017-09-20T09:40:26Z</time>
      </trkpt>
      <trkpt lat="45.77112" lon="3.66963">
        <ele>803</ele>
        <time>2017-09-20T09:40:31Z</time>
      </trkpt>
      <trkpt lat="45.77114" lon="3.6697">
        <ele>804</ele>
        <time>2017-09-20T09:40:36Z</time>
      </trkpt>
      <trkpt lat="45.77116" lon="3.66978">
        <ele>805</ele>
        <time>2017-09-20T09:40:42Z</time>
      </trkpt>
      <trkpt lat="45.77116" lon="3.66979">
        <ele>805</ele>
        <time>2017-09-20T09:40:43Z</time>
      </trkpt>
      <trkpt lat="45.77117" lon="3.6698">
        <ele>805</ele>
        <time>2017-09-20T09:40:49Z</time>
      </trkpt>
      <trkpt lat="45.77121" lon="3.66978">
        <ele>805</ele>
        <time>2017-09-20T09:40:54Z</time>
      </trkpt>
      <trkpt lat="45.77126" lon="3.66976">
        <ele>804</ele>
        <time>2017-09-20T09:40:59Z</time>
      </trkpt>
      <trkpt lat="45.7713" lon="3.66973">
        <ele>804</ele>
        <time>2017-09-20T09:41:06Z</time>
      </trkpt>
      <trkpt lat="45.77135" lon="3.66974">
        <ele>803</ele>
        <time>2017-09-20T09:41:13Z</time>
      </trkpt>
      <trkpt lat="45.77143" lon="3.6698">
        <ele>804</ele>
        <time>2017-09-20T09:41:19Z</time>
      </trkpt>
      <trkpt lat="45.7715" lon="3.66992">
        <ele>806</ele>
        <time>2017-09-20T09:41:26Z</time>
      </trkpt>
      <trkpt lat="45.77155" lon="3.67003">
        <ele>808</ele>
        <time>2017-09-20T09:41:33Z</time>
      </trkpt>
      <trkpt lat="45.77159" lon="3.67012">
        <ele>810</ele>
        <time>2017-09-20T09:41:39Z</time>
      </trkpt>
      <trkpt lat="45.77161" lon="3.67022">
        <ele>811</ele>
        <time>2017-09-20T09:41:48Z</time>
      </trkpt>
      <trkpt lat="45.77162" lon="3.67025">
        <ele>812</ele>
        <time>2017-09-20T09:41:49Z</time>
      </trkpt>
      <trkpt lat="45.77162" lon="3.67028">
        <ele>812</ele>
        <time>2017-09-20T09:41:51Z</time>
      </trkpt>
      <trkpt lat="45.77163" lon="3.67031">
        <ele>813</ele>
        <time>2017-09-20T09:41:54Z</time>
      </trkpt>
      <trkpt lat="45.77163" lon="3.67038">
        <ele>814</ele>
        <time>2017-09-20T09:41:58Z</time>
      </trkpt>
      <trkpt lat="45.77164" lon="3.67042">
        <ele>815</ele>
        <time>2017-09-20T09:42:00Z</time>
      </trkpt>
      <trkpt lat="45.77164" lon="3.67055">
        <ele>816</ele>
        <time>2017-09-20T09:42:06Z</time>
      </trkpt>
      <trkpt lat="45.77166" lon="3.67066">
        <ele>818</ele>
        <time>2017-09-20T09:42:13Z</time>
      </trkpt>
      <trkpt lat="45.77166" lon="3.67073">
        <ele>819</ele>
        <time>2017-09-20T09:42:16Z</time>
      </trkpt>
      <trkpt lat="45.77169" lon="3.67077">
        <ele>820</ele>
        <time>2017-09-20T09:42:20Z</time>
      </trkpt>
      <trkpt lat="45.7717" lon="3.67089">
        <ele>821</ele>
        <time>2017-09-20T09:42:26Z</time>
      </trkpt>
      <trkpt lat="45.7717" lon="3.6709">
        <ele>822</ele>
        <time>2017-09-20T09:42:28Z</time>
      </trkpt>
      <trkpt lat="45.77169" lon="3.67092">
        <ele>822</ele>
        <time>2017-09-20T09:42:29Z</time>
      </trkpt>
      <trkpt lat="45.77169" lon="3.67097">
        <ele>822</ele>
        <time>2017-09-20T09:42:31Z</time>
      </trkpt>
      <trkpt lat="45.77169" lon="3.67102">
        <ele>823</ele>
        <time>2017-09-20T09:42:35Z</time>
      </trkpt>
      <trkpt lat="45.77166" lon="3.67114">
        <ele>824</ele>
        <time>2017-09-20T09:42:41Z</time>
      </trkpt>
      <trkpt lat="45.77166" lon="3.67115">
        <ele>824</ele>
        <time>2017-09-20T09:42:42Z</time>
      </trkpt>
      <trkpt lat="45.7716" lon="3.6712">
        <ele>823</ele>
        <time>2017-09-20T09:42:46Z</time>
      </trkpt>
      <trkpt lat="45.7715" lon="3.67125">
        <ele>823</ele>
        <time>2017-09-20T09:42:53Z</time>
      </trkpt>
      <trkpt lat="45.77141" lon="3.67125">
        <ele>822</ele>
        <time>2017-09-20T09:42:59Z</time>
      </trkpt>
      <trkpt lat="45.77138" lon="3.67125">
        <ele>822</ele>
        <time>2017-09-20T09:43:01Z</time>
      </trkpt>
      <trkpt lat="45.77136" lon="3.67125">
        <ele>822</ele>
        <time>2017-09-20T09:43:10Z</time>
      </trkpt>
      <trkpt lat="45.77132" lon="3.67129">
        <ele>823</ele>
        <time>2017-09-20T09:43:21Z</time>
      </trkpt>
      <trkpt lat="45.77124" lon="3.67125">
        <ele>823</ele>
        <time>2017-09-20T09:43:28Z</time>
      </trkpt>
      <trkpt lat="45.7712" lon="3.67116">
        <ele>822</ele>
        <time>2017-09-20T09:43:35Z</time>
      </trkpt>
      <trkpt lat="45.77114" lon="3.67107">
        <ele>822</ele>
        <time>2017-09-20T09:43:41Z</time>
      </trkpt>
      <trkpt lat="45.77113" lon="3.67105">
        <ele>822</ele>
        <time>2017-09-20T09:43:43Z</time>
      </trkpt>
      <trkpt lat="45.77105" lon="3.67098">
        <ele>822</ele>
        <time>2017-09-20T09:43:51Z</time>
      </trkpt>
      <trkpt lat="45.77095" lon="3.6709">
        <ele>822</ele>
        <time>2017-09-20T09:44:00Z</time>
      </trkpt>
      <trkpt lat="45.77093" lon="3.67089">
        <ele>822</ele>
        <time>2017-09-20T09:44:03Z</time>
      </trkpt>
      <trkpt lat="45.7709" lon="3.67087">
        <ele>822</ele>
        <time>2017-09-20T09:44:06Z</time>
      </trkpt>
      <trkpt lat="45.77085" lon="3.67085">
        <ele>822</ele>
        <time>2017-09-20T09:44:11Z</time>
      </trkpt>
      <trkpt lat="45.7708" lon="3.67082">
        <ele>822</ele>
        <time>2017-09-20T09:44:16Z</time>
      </trkpt>
      <trkpt lat="45.77076" lon="3.6708">
        <ele>822</ele>
        <time>2017-09-20T09:44:21Z</time>
      </trkpt>
      <trkpt lat="45.77072" lon="3.67081">
        <ele>822</ele>
        <time>2017-09-20T09:44:29Z</time>
      </trkpt>
      <trkpt lat="45.7707" lon="3.67082">
        <ele>822</ele>
        <time>2017-09-20T09:44:39Z</time>
      </trkpt>
      <trkpt lat="45.77067" lon="3.67082">
        <ele>823</ele>
        <time>2017-09-20T09:44:44Z</time>
      </trkpt>
      <trkpt lat="45.77065" lon="3.67082">
        <ele>823</ele>
        <time>2017-09-20T09:44:45Z</time>
      </trkpt>
      <trkpt lat="45.7706" lon="3.67082">
        <ele>823</ele>
        <time>2017-09-20T09:44:50Z</time>
      </trkpt>
      <trkpt lat="45.77059" lon="3.67081">
        <ele>823</ele>
        <time>2017-09-20T09:44:51Z</time>
      </trkpt>
      <trkpt lat="45.77054" lon="3.67082">
        <ele>823</ele>
        <time>2017-09-20T09:44:56Z</time>
      </trkpt>
      <trkpt lat="45.77043" lon="3.67084">
        <ele>825</ele>
        <time>2017-09-20T09:45:04Z</time>
      </trkpt>
      <trkpt lat="45.77029" lon="3.67087">
        <ele>826</ele>
        <time>2017-09-20T09:45:09Z</time>
      </trkpt>
      <trkpt lat="45.77015" lon="3.67093">
        <ele>827</ele>
        <time>2017-09-20T09:45:15Z</time>
      </trkpt>
      <trkpt lat="45.77007" lon="3.67098">
        <ele>828</ele>
        <time>2017-09-20T09:45:19Z</time>
      </trkpt>
      <trkpt lat="45.76999" lon="3.671">
        <ele>829</ele>
        <time>2017-09-20T09:45:21Z</time>
      </trkpt>
      <trkpt lat="45.76992" lon="3.67105">
        <ele>829</ele>
        <time>2017-09-20T09:45:26Z</time>
      </trkpt>
      <trkpt lat="45.76978" lon="3.67111">
        <ele>830</ele>
        <time>2017-09-20T09:45:31Z</time>
      </trkpt>
      <trkpt lat="45.76964" lon="3.67117">
        <ele>831</ele>
        <time>2017-09-20T09:45:38Z</time>
      </trkpt>
      <trkpt lat="45.7695" lon="3.67127">
        <ele>832</ele>
        <time>2017-09-20T09:45:44Z</time>
      </trkpt>
      <trkpt lat="45.7694" lon="3.67144">
        <ele>832</ele>
        <time>2017-09-20T09:45:50Z</time>
      </trkpt>
      <trkpt lat="45.76933" lon="3.67158">
        <ele>833</ele>
        <time>2017-09-20T09:45:56Z</time>
      </trkpt>
      <trkpt lat="45.7693" lon="3.67163">
        <ele>833</ele>
        <time>2017-09-20T09:45:58Z</time>
      </trkpt>
      <trkpt lat="45.76926" lon="3.67169">
        <ele>833</ele>
        <time>2017-09-20T09:46:01Z</time>
      </trkpt>
      <trkpt lat="45.76922" lon="3.67184">
        <ele>834</ele>
        <time>2017-09-20T09:46:10Z</time>
      </trkpt>
      <trkpt lat="45.76919" lon="3.67195">
        <ele>835</ele>
        <time>2017-09-20T09:46:16Z</time>
      </trkpt>
      <trkpt lat="45.76917" lon="3.67198">
        <ele>835</ele>
        <time>2017-09-20T09:46:18Z</time>
      </trkpt>
      <trkpt lat="45.76913" lon="3.67206">
        <ele>836</ele>
        <time>2017-09-20T09:46:23Z</time>
      </trkpt>
      <trkpt lat="45.76904" lon="3.6722">
        <ele>837</ele>
        <time>2017-09-20T09:46:31Z</time>
      </trkpt>
      <trkpt lat="45.76901" lon="3.67223">
        <ele>838</ele>
        <time>2017-09-20T09:46:34Z</time>
      </trkpt>
      <trkpt lat="45.76898" lon="3.67236">
        <ele>839</ele>
        <time>2017-09-20T09:46:41Z</time>
      </trkpt>
      <trkpt lat="45.76896" lon="3.67239">
        <ele>840</ele>
        <time>2017-09-20T09:46:43Z</time>
      </trkpt>
      <trkpt lat="45.76894" lon="3.67241">
        <ele>840</ele>
        <time>2017-09-20T09:46:45Z</time>
      </trkpt>
      <trkpt lat="45.76894" lon="3.67247">
        <ele>841</ele>
        <time>2017-09-20T09:46:49Z</time>
      </trkpt>
      <trkpt lat="45.76892" lon="3.6725">
        <ele>841</ele>
        <time>2017-09-20T09:46:51Z</time>
      </trkpt>
      <trkpt lat="45.76887" lon="3.67256">
        <ele>842</ele>
        <time>2017-09-20T09:46:56Z</time>
      </trkpt>
      <trkpt lat="45.76882" lon="3.67264">
        <ele>842</ele>
        <time>2017-09-20T09:47:01Z</time>
      </trkpt>
      <trkpt lat="45.7688" lon="3.67268">
        <ele>843</ele>
        <time>2017-09-20T09:47:03Z</time>
      </trkpt>
      <trkpt lat="45.76872" lon="3.67278">
        <ele>843</ele>
        <time>2017-09-20T09:47:10Z</time>
      </trkpt>
      <trkpt lat="45.76871" lon="3.67282">
        <ele>843</ele>
        <time>2017-09-20T09:47:12Z</time>
      </trkpt>
      <trkpt lat="45.7687" lon="3.67286">
        <ele>843</ele>
        <time>2017-09-20T09:47:14Z</time>
      </trkpt>
      <trkpt lat="45.76867" lon="3.67296">
        <ele>844</ele>
        <time>2017-09-20T09:47:19Z</time>
      </trkpt>
      <trkpt lat="45.76863" lon="3.67308">
        <ele>844</ele>
        <time>2017-09-20T09:47:26Z</time>
      </trkpt>
      <trkpt lat="45.76862" lon="3.67318">
        <ele>845</ele>
        <time>2017-09-20T09:47:31Z</time>
      </trkpt>
      <trkpt lat="45.76863" lon="3.6733">
        <ele>846</ele>
        <time>2017-09-20T09:47:36Z</time>
      </trkpt>
      <trkpt lat="45.76864" lon="3.67338">
        <ele>846</ele>
        <time>2017-09-20T09:47:41Z</time>
      </trkpt>
      <trkpt lat="45.76862" lon="3.67348">
        <ele>847</ele>
        <time>2017-09-20T09:47:48Z</time>
      </trkpt>
      <trkpt lat="45.76864" lon="3.6735">
        <ele>847</ele>
        <time>2017-09-20T09:47:51Z</time>
      </trkpt>
      <trkpt lat="45.76868" lon="3.67356">
        <ele>848</ele>
        <time>2017-09-20T09:47:58Z</time>
      </trkpt>
      <trkpt lat="45.7687" lon="3.67358">
        <ele>848</ele>
        <time>2017-09-20T09:48:03Z</time>
      </trkpt>
      <trkpt lat="45.76875" lon="3.6736">
        <ele>848</ele>
        <time>2017-09-20T09:48:09Z</time>
      </trkpt>
      <trkpt lat="45.76882" lon="3.67367">
        <ele>849</ele>
        <time>2017-09-20T09:48:16Z</time>
      </trkpt>
      <trkpt lat="45.76893" lon="3.67377">
        <ele>851</ele>
        <time>2017-09-20T09:48:26Z</time>
      </trkpt>
      <trkpt lat="45.76897" lon="3.67381">
        <ele>851</ele>
        <time>2017-09-20T09:48:30Z</time>
      </trkpt>
      <trkpt lat="45.76902" lon="3.67385">
        <ele>852</ele>
        <time>2017-09-20T09:48:34Z</time>
      </trkpt>
      <trkpt lat="45.7691" lon="3.67392">
        <ele>852</ele>
        <time>2017-09-20T09:48:41Z</time>
      </trkpt>
      <trkpt lat="45.76919" lon="3.67399">
        <ele>853</ele>
        <time>2017-09-20T09:48:48Z</time>
      </trkpt>
      <trkpt lat="45.76927" lon="3.67404">
        <ele>854</ele>
        <time>2017-09-20T09:48:57Z</time>
      </trkpt>
      <trkpt lat="45.76933" lon="3.67408">
        <ele>854</ele>
        <time>2017-09-20T09:49:02Z</time>
      </trkpt>
      <trkpt lat="45.76941" lon="3.67417">
        <ele>855</ele>
        <time>2017-09-20T09:49:09Z</time>
      </trkpt>
      <trkpt lat="45.76945" lon="3.67419">
        <ele>855</ele>
        <time>2017-09-20T09:49:11Z</time>
      </trkpt>
      <trkpt lat="45.76949" lon="3.67422">
        <ele>856</ele>
        <time>2017-09-20T09:49:15Z</time>
      </trkpt>
      <trkpt lat="45.76959" lon="3.67427">
        <ele>857</ele>
        <time>2017-09-20T09:49:22Z</time>
      </trkpt>
      <trkpt lat="45.76968" lon="3.67434">
        <ele>857</ele>
        <time>2017-09-20T09:49:29Z</time>
      </trkpt>
      <trkpt lat="45.76971" lon="3.67437">
        <ele>858</ele>
        <time>2017-09-20T09:49:32Z</time>
      </trkpt>
      <trkpt lat="45.76979" lon="3.6744">
        <ele>858</ele>
        <time>2017-09-20T09:49:38Z</time>
      </trkpt>
      <trkpt lat="45.76986" lon="3.67447">
        <ele>858</ele>
        <time>2017-09-20T09:49:46Z</time>
      </trkpt>
      <trkpt lat="45.76989" lon="3.6745">
        <ele>858</ele>
        <time>2017-09-20T09:49:50Z</time>
      </trkpt>
      <trkpt lat="45.76998" lon="3.67454">
        <ele>859</ele>
        <time>2017-09-20T09:49:57Z</time>
      </trkpt>
      <trkpt lat="45.77008" lon="3.6746">
        <ele>859</ele>
        <time>2017-09-20T09:50:05Z</time>
      </trkpt>
      <trkpt lat="45.77015" lon="3.67463">
        <ele>859</ele>
        <time>2017-09-20T09:50:11Z</time>
      </trkpt>
      <trkpt lat="45.77017" lon="3.67463">
        <ele>859</ele>
        <time>2017-09-20T09:50:12Z</time>
      </trkpt>
      <trkpt lat="45.77023" lon="3.67465">
        <ele>860</ele>
        <time>2017-09-20T09:50:17Z</time>
      </trkpt>
      <trkpt lat="45.77028" lon="3.6747">
        <ele>860</ele>
        <time>2017-09-20T09:50:22Z</time>
      </trkpt>
      <trkpt lat="45.7703" lon="3.67471">
        <ele>860</ele>
        <time>2017-09-20T09:50:23Z</time>
      </trkpt>
      <trkpt lat="45.77031" lon="3.67472">
        <ele>860</ele>
        <time>2017-09-20T09:50:24Z</time>
      </trkpt>
      <trkpt lat="45.77035" lon="3.67479">
        <ele>860</ele>
        <time>2017-09-20T09:50:30Z</time>
      </trkpt>
      <trkpt lat="45.7704" lon="3.67483">
        <ele>861</ele>
        <time>2017-09-20T09:50:34Z</time>
      </trkpt>
      <trkpt lat="45.77042" lon="3.67486">
        <ele>861</ele>
        <time>2017-09-20T09:50:36Z</time>
      </trkpt>
      <trkpt lat="45.77047" lon="3.67489">
        <ele>861</ele>
        <time>2017-09-20T09:50:39Z</time>
      </trkpt>
      <trkpt lat="45.7705" lon="3.6749">
        <ele>861</ele>
        <time>2017-09-20T09:50:41Z</time>
      </trkpt>
      <trkpt lat="45.77058" lon="3.67495">
        <ele>862</ele>
        <time>2017-09-20T09:50:45Z</time>
      </trkpt>
      <trkpt lat="45.77067" lon="3.67498">
        <ele>863</ele>
        <time>2017-09-20T09:50:52Z</time>
      </trkpt>
      <trkpt lat="45.77074" lon="3.67503">
        <ele>863</ele>
        <time>2017-09-20T09:50:57Z</time>
      </trkpt>
      <trkpt lat="45.7708" lon="3.67508">
        <ele>864</ele>
        <time>2017-09-20T09:51:03Z</time>
      </trkpt>
      <trkpt lat="45.77081" lon="3.67508">
        <ele>864</ele>
        <time>2017-09-20T09:51:04Z</time>
      </trkpt>
      <trkpt lat="45.77086" lon="3.67513">
        <ele>865</ele>
        <time>2017-09-20T09:51:09Z</time>
      </trkpt>
      <trkpt lat="45.77086" lon="3.67515">
        <ele>865</ele>
        <time>2017-09-20T09:51:10Z</time>
      </trkpt>
      <trkpt lat="45.77094" lon="3.67521">
        <ele>866</ele>
        <time>2017-09-20T09:51:16Z</time>
      </trkpt>
      <trkpt lat="45.77094" lon="3.67521">
        <ele>866</ele>
        <time>2017-09-20T09:51:17Z</time>
      </trkpt>
      <trkpt lat="45.77102" lon="3.67531">
        <ele>867</ele>
        <time>2017-09-20T09:51:23Z</time>
      </trkpt>
      <trkpt lat="45.77103" lon="3.67531">
        <ele>867</ele>
        <time>2017-09-20T09:51:24Z</time>
      </trkpt>
      <trkpt lat="45.77108" lon="3.6754">
        <ele>867</ele>
        <time>2017-09-20T09:51:29Z</time>
      </trkpt>
      <trkpt lat="45.77113" lon="3.67546">
        <ele>868</ele>
        <time>2017-09-20T09:51:34Z</time>
      </trkpt>
      <trkpt lat="45.77116" lon="3.67549">
        <ele>868</ele>
        <time>2017-09-20T09:51:36Z</time>
      </trkpt>
      <trkpt lat="45.77125" lon="3.67561">
        <ele>869</ele>
        <time>2017-09-20T09:51:43Z</time>
      </trkpt>
      <trkpt lat="45.77126" lon="3.67562">
        <ele>869</ele>
        <time>2017-09-20T09:51:44Z</time>
      </trkpt>
      <trkpt lat="45.77132" lon="3.67574">
        <ele>869</ele>
        <time>2017-09-20T09:51:50Z</time>
      </trkpt>
      <trkpt lat="45.77137" lon="3.67583">
        <ele>870</ele>
        <time>2017-09-20T09:51:54Z</time>
      </trkpt>
      <trkpt lat="45.77144" lon="3.67595">
        <ele>870</ele>
        <time>2017-09-20T09:52:00Z</time>
      </trkpt>
      <trkpt lat="45.77153" lon="3.67614">
        <ele>870</ele>
        <time>2017-09-20T09:52:09Z</time>
      </trkpt>
      <trkpt lat="45.77161" lon="3.67629">
        <ele>869</ele>
        <time>2017-09-20T09:52:16Z</time>
      </trkpt>
      <trkpt lat="45.77168" lon="3.67644">
        <ele>869</ele>
        <time>2017-09-20T09:52:25Z</time>
      </trkpt>
      <trkpt lat="45.77174" lon="3.67661">
        <ele>869</ele>
        <time>2017-09-20T09:52:34Z</time>
      </trkpt>
      <trkpt lat="45.77176" lon="3.67672">
        <ele>868</ele>
        <time>2017-09-20T09:52:41Z</time>
      </trkpt>
      <trkpt lat="45.77179" lon="3.67682">
        <ele>868</ele>
        <time>2017-09-20T09:52:46Z</time>
      </trkpt>
      <trkpt lat="45.77179" lon="3.67686">
        <ele>868</ele>
        <time>2017-09-20T09:52:53Z</time>
      </trkpt>
      <trkpt lat="45.77181" lon="3.67694">
        <ele>867</ele>
        <time>2017-09-20T09:52:58Z</time>
      </trkpt>
      <trkpt lat="45.77186" lon="3.67713">
        <ele>865</ele>
        <time>2017-09-20T09:53:08Z</time>
      </trkpt>
      <trkpt lat="45.77189" lon="3.67727">
        <ele>864</ele>
        <time>2017-09-20T09:53:16Z</time>
      </trkpt>
      <trkpt lat="45.77193" lon="3.67739">
        <ele>863</ele>
        <time>2017-09-20T09:53:21Z</time>
      </trkpt>
      <trkpt lat="45.77198" lon="3.67759">
        <ele>862</ele>
        <time>2017-09-20T09:53:31Z</time>
      </trkpt>
      <trkpt lat="45.77198" lon="3.67764">
        <ele>861</ele>
        <time>2017-09-20T09:53:34Z</time>
      </trkpt>
      <trkpt lat="45.772" lon="3.67777">
        <ele>861</ele>
        <time>2017-09-20T09:53:41Z</time>
      </trkpt>
      <trkpt lat="45.77201" lon="3.67786">
        <ele>861</ele>
        <time>2017-09-20T09:53:47Z</time>
      </trkpt>
      <trkpt lat="45.77204" lon="3.67808">
        <ele>860</ele>
        <time>2017-09-20T09:54:01Z</time>
      </trkpt>
      <trkpt lat="45.77203" lon="3.67828">
        <ele>860</ele>
        <time>2017-09-20T09:54:10Z</time>
      </trkpt>
      <trkpt lat="45.77203" lon="3.67848">
        <ele>859</ele>
        <time>2017-09-20T09:54:19Z</time>
      </trkpt>
      <trkpt lat="45.77202" lon="3.67869">
        <ele>859</ele>
        <time>2017-09-20T09:54:29Z</time>
      </trkpt>
      <trkpt lat="45.77201" lon="3.67886">
        <ele>859</ele>
        <time>2017-09-20T09:54:36Z</time>
      </trkpt>
      <trkpt lat="45.77199" lon="3.67912">
        <ele>860</ele>
        <time>2017-09-20T09:54:49Z</time>
      </trkpt>
      <trkpt lat="45.772" lon="3.67916">
        <ele>860</ele>
        <time>2017-09-20T09:55:19Z</time>
      </trkpt>
      <trkpt lat="45.77198" lon="3.67924">
        <ele>860</ele>
        <time>2017-09-20T09:55:31Z</time>
      </trkpt>
      <trkpt lat="45.77196" lon="3.67939">
        <ele>860</ele>
        <time>2017-09-20T09:55:38Z</time>
      </trkpt>
      <trkpt lat="45.77193" lon="3.67971">
        <ele>860</ele>
        <time>2017-09-20T09:55:51Z</time>
      </trkpt>
      <trkpt lat="45.77193" lon="3.67986">
        <ele>860</ele>
        <time>2017-09-20T09:55:58Z</time>
      </trkpt>
      <trkpt lat="45.77196" lon="3.68">
        <ele>860</ele>
        <time>2017-09-20T09:56:05Z</time>
      </trkpt>
      <trkpt lat="45.77203" lon="3.68012">
        <ele>860</ele>
        <time>2017-09-20T09:56:11Z</time>
      </trkpt>
      <trkpt lat="45.7721" lon="3.68023">
        <ele>860</ele>
        <time>2017-09-20T09:56:18Z</time>
      </trkpt>
      <trkpt lat="45.7722" lon="3.68028">
        <ele>859</ele>
        <time>2017-09-20T09:56:26Z</time>
      </trkpt>
      <trkpt lat="45.77225" lon="3.68031">
        <ele>860</ele>
        <time>2017-09-20T09:56:30Z</time>
      </trkpt>
      <trkpt lat="45.77238" lon="3.68037">
        <ele>860</ele>
        <time>2017-09-20T09:56:39Z</time>
      </trkpt>
      <trkpt lat="45.77249" lon="3.68042">
        <ele>860</ele>
        <time>2017-09-20T09:56:46Z</time>
      </trkpt>
      <trkpt lat="45.77267" lon="3.68051">
        <ele>860</ele>
        <time>2017-09-20T09:56:59Z</time>
      </trkpt>
      <trkpt lat="45.77277" lon="3.68058">
        <ele>860</ele>
        <time>2017-09-20T09:57:06Z</time>
      </trkpt>
      <trkpt lat="45.77291" lon="3.68063">
        <ele>860</ele>
        <time>2017-09-20T09:57:16Z</time>
      </trkpt>
      <trkpt lat="45.77292" lon="3.68064">
        <ele>860</ele>
        <time>2017-09-20T09:57:21Z</time>
      </trkpt>
      <trkpt lat="45.77303" lon="3.68066">
        <ele>860</ele>
        <time>2017-09-20T09:57:51Z</time>
      </trkpt>
      <trkpt lat="45.77315" lon="3.68071">
        <ele>860</ele>
        <time>2017-09-20T09:58:00Z</time>
      </trkpt>
      <trkpt lat="45.77321" lon="3.6807">
        <ele>860</ele>
        <time>2017-09-20T09:58:04Z</time>
      </trkpt>
      <trkpt lat="45.77328" lon="3.68081">
        <ele>861</ele>
        <time>2017-09-20T09:58:11Z</time>
      </trkpt>
      <trkpt lat="45.77329" lon="3.68084">
        <ele>861</ele>
        <time>2017-09-20T09:58:18Z</time>
      </trkpt>
      <trkpt lat="45.77332" lon="3.68078">
        <ele>861</ele>
        <time>2017-09-20T09:58:41Z</time>
      </trkpt>
      <trkpt lat="45.77362" lon="3.68049">
        <ele>857</ele>
        <time>2017-09-20T09:59:06Z</time>
      </trkpt>
      <trkpt lat="45.77375" lon="3.68041">
        <ele>856</ele>
        <time>2017-09-20T09:59:15Z</time>
      </trkpt>
      <trkpt lat="45.77386" lon="3.68034">
        <ele>854</ele>
        <time>2017-09-20T09:59:23Z</time>
      </trkpt>
      <trkpt lat="45.77404" lon="3.68025">
        <ele>854</ele>
        <time>2017-09-20T09:59:35Z</time>
      </trkpt>
      <trkpt lat="45.77418" lon="3.68017">
        <ele>854</ele>
        <time>2017-09-20T09:59:44Z</time>
      </trkpt>
      <trkpt lat="45.77435" lon="3.68009">
        <ele>855</ele>
        <time>2017-09-20T09:59:55Z</time>
      </trkpt>
      <trkpt lat="45.77454" lon="3.68002">
        <ele>856</ele>
        <time>2017-09-20T10:00:08Z</time>
      </trkpt>
      <trkpt lat="45.77468" lon="3.67998">
        <ele>856</ele>
        <time>2017-09-20T10:00:17Z</time>
      </trkpt>
      <trkpt lat="45.7748" lon="3.67996">
        <ele>857</ele>
        <time>2017-09-20T10:00:25Z</time>
      </trkpt>
      <trkpt lat="45.77493" lon="3.67993">
        <ele>858</ele>
        <time>2017-09-20T10:00:33Z</time>
      </trkpt>
      <trkpt lat="45.77506" lon="3.67991">
        <ele>859</ele>
        <time>2017-09-20T10:00:42Z</time>
      </trkpt>
      <trkpt lat="45.77517" lon="3.6799">
        <ele>860</ele>
        <time>2017-09-20T10:00:49Z</time>
      </trkpt>
      <trkpt lat="45.77527" lon="3.67988">
        <ele>861</ele>
        <time>2017-09-20T10:00:56Z</time>
      </trkpt>
      <trkpt lat="45.77537" lon="3.67985">
        <ele>862</ele>
        <time>2017-09-20T10:01:03Z</time>
      </trkpt>
      <trkpt lat="45.77542" lon="3.67985">
        <ele>863</ele>
        <time>2017-09-20T10:01:06Z</time>
      </trkpt>
      <trkpt lat="45.77551" lon="3.67984">
        <ele>864</ele>
        <time>2017-09-20T10:01:13Z</time>
      </trkpt>
      <trkpt lat="45.77553" lon="3.67985">
        <ele>865</ele>
        <time>2017-09-20T10:01:20Z</time>
      </trkpt>
      <trkpt lat="45.77558" lon="3.67985">
        <ele>865</ele>
        <time>2017-09-20T10:01:31Z</time>
      </trkpt>
      <trkpt lat="45.7759" lon="3.67984">
        <ele>866</ele>
        <time>2017-09-20T10:01:53Z</time>
      </trkpt>
      <trkpt lat="45.7761" lon="3.67984">
        <ele>866</ele>
        <time>2017-09-20T10:02:05Z</time>
      </trkpt>
      <trkpt lat="45.77626" lon="3.67984">
        <ele>865</ele>
        <time>2017-09-20T10:02:15Z</time>
      </trkpt>
      <trkpt lat="45.77628" lon="3.67985">
        <ele>865</ele>
        <time>2017-09-20T10:02:20Z</time>
      </trkpt>
      <trkpt lat="45.77629" lon="3.67988">
        <ele>865</ele>
        <time>2017-09-20T10:02:41Z</time>
      </trkpt>
      <trkpt lat="45.77621" lon="3.67997">
        <ele>866</ele>
        <time>2017-09-20T10:02:51Z</time>
      </trkpt>
      <trkpt lat="45.77616" lon="3.68008">
        <ele>867</ele>
        <time>2017-09-20T10:02:57Z</time>
      </trkpt>
      <trkpt lat="45.7761" lon="3.68016">
        <ele>867</ele>
        <time>2017-09-20T10:03:03Z</time>
      </trkpt>
      <trkpt lat="45.77605" lon="3.68027">
        <ele>867</ele>
        <time>2017-09-20T10:03:11Z</time>
      </trkpt>
      <trkpt lat="45.77605" lon="3.68029">
        <ele>867</ele>
        <time>2017-09-20T10:03:12Z</time>
      </trkpt>
      <trkpt lat="45.776" lon="3.6804">
        <ele>868</ele>
        <time>2017-09-20T10:03:18Z</time>
      </trkpt>
      <trkpt lat="45.77594" lon="3.68053">
        <ele>869</ele>
        <time>2017-09-20T10:03:26Z</time>
      </trkpt>
      <trkpt lat="45.7759" lon="3.68063">
        <ele>869</ele>
        <time>2017-09-20T10:03:33Z</time>
      </trkpt>
      <trkpt lat="45.77586" lon="3.68075">
        <ele>869</ele>
        <time>2017-09-20T10:03:40Z</time>
      </trkpt>
      <trkpt lat="45.77583" lon="3.68083">
        <ele>870</ele>
        <time>2017-09-20T10:03:46Z</time>
      </trkpt>
      <trkpt lat="45.77578" lon="3.68099">
        <ele>870</ele>
        <time>2017-09-20T10:03:55Z</time>
      </trkpt>
      <trkpt lat="45.77574" lon="3.68108">
        <ele>870</ele>
        <time>2017-09-20T10:04:00Z</time>
      </trkpt>
      <trkpt lat="45.7757" lon="3.68118">
        <ele>869</ele>
        <time>2017-09-20T10:04:05Z</time>
      </trkpt>
      <trkpt lat="45.77563" lon="3.68132">
        <ele>870</ele>
        <time>2017-09-20T10:04:13Z</time>
      </trkpt>
      <trkpt lat="45.77555" lon="3.6815">
        <ele>871</ele>
        <time>2017-09-20T10:04:24Z</time>
      </trkpt>
      <trkpt lat="45.7755" lon="3.68159">
        <ele>871</ele>
        <time>2017-09-20T10:04:30Z</time>
      </trkpt>
      <trkpt lat="45.77545" lon="3.68169">
        <ele>871</ele>
        <time>2017-09-20T10:04:36Z</time>
      </trkpt>
      <trkpt lat="45.77539" lon="3.6818">
        <ele>871</ele>
        <time>2017-09-20T10:04:43Z</time>
      </trkpt>
      <trkpt lat="45.77534" lon="3.68189">
        <ele>871</ele>
        <time>2017-09-20T10:04:50Z</time>
      </trkpt>
      <trkpt lat="45.77528" lon="3.682">
        <ele>871</ele>
        <time>2017-09-20T10:04:59Z</time>
      </trkpt>
      <trkpt lat="45.77524" lon="3.68211">
        <ele>871</ele>
        <time>2017-09-20T10:05:06Z</time>
      </trkpt>
      <trkpt lat="45.77518" lon="3.68228">
        <ele>871</ele>
        <time>2017-09-20T10:05:15Z</time>
      </trkpt>
      <trkpt lat="45.77514" lon="3.68245">
        <ele>873</ele>
        <time>2017-09-20T10:05:24Z</time>
      </trkpt>
      <trkpt lat="45.77508" lon="3.68259">
        <ele>874</ele>
        <time>2017-09-20T10:05:33Z</time>
      </trkpt>
      <trkpt lat="45.77504" lon="3.68274">
        <ele>876</ele>
        <time>2017-09-20T10:05:41Z</time>
      </trkpt>
      <trkpt lat="45.77496" lon="3.68307">
        <ele>878</ele>
        <time>2017-09-20T10:06:00Z</time>
      </trkpt>
      <trkpt lat="45.77492" lon="3.68323">
        <ele>880</ele>
        <time>2017-09-20T10:06:09Z</time>
      </trkpt>
      <trkpt lat="45.77488" lon="3.68342">
        <ele>883</ele>
        <time>2017-09-20T10:06:19Z</time>
      </trkpt>
      <trkpt lat="45.77482" lon="3.6836">
        <ele>885</ele>
        <time>2017-09-20T10:06:29Z</time>
      </trkpt>
      <trkpt lat="45.77475" lon="3.68376">
        <ele>887</ele>
        <time>2017-09-20T10:06:38Z</time>
      </trkpt>
      <trkpt lat="45.77472" lon="3.68386">
        <ele>888</ele>
        <time>2017-09-20T10:06:51Z</time>
      </trkpt>
      <trkpt lat="45.77476" lon="3.6839">
        <ele>888</ele>
        <time>2017-09-20T10:07:25Z</time>
      </trkpt>
      <trkpt lat="45.77479" lon="3.68393">
        <ele>888</ele>
        <time>2017-09-20T10:07:47Z</time>
      </trkpt>
      <trkpt lat="45.77476" lon="3.68396">
        <ele>889</ele>
        <time>2017-09-20T10:08:47Z</time>
      </trkpt>
      <trkpt lat="45.77474" lon="3.68399">
        <ele>889</ele>
        <time>2017-09-20T10:08:49Z</time>
      </trkpt>
      <trkpt lat="45.77469" lon="3.68416">
        <ele>890</ele>
        <time>2017-09-20T10:08:59Z</time>
      </trkpt>
      <trkpt lat="45.77468" lon="3.68424">
        <ele>891</ele>
        <time>2017-09-20T10:09:03Z</time>
      </trkpt>
      <trkpt lat="45.77463" lon="3.68443">
        <ele>893</ele>
        <time>2017-09-20T10:09:13Z</time>
      </trkpt>
      <trkpt lat="45.77459" lon="3.68462">
        <ele>894</ele>
        <time>2017-09-20T10:09:19Z</time>
      </trkpt>
      <trkpt lat="45.77455" lon="3.68483">
        <ele>896</ele>
        <time>2017-09-20T10:09:25Z</time>
      </trkpt>
      <trkpt lat="45.77448" lon="3.68507">
        <ele>898</ele>
        <time>2017-09-20T10:09:33Z</time>
      </trkpt>
      <trkpt lat="45.77439" lon="3.68525">
        <ele>899</ele>
        <time>2017-09-20T10:09:43Z</time>
      </trkpt>
      <trkpt lat="45.77431" lon="3.68545">
        <ele>902</ele>
        <time>2017-09-20T10:09:53Z</time>
      </trkpt>
      <trkpt lat="45.77422" lon="3.68568">
        <ele>905</ele>
        <time>2017-09-20T10:10:05Z</time>
      </trkpt>
      <trkpt lat="45.77413" lon="3.68589">
        <ele>907</ele>
        <time>2017-09-20T10:10:16Z</time>
      </trkpt>
      <trkpt lat="45.77404" lon="3.68609">
        <ele>909</ele>
        <time>2017-09-20T10:10:28Z</time>
      </trkpt>
      <trkpt lat="45.77397" lon="3.68622">
        <ele>911</ele>
        <time>2017-09-20T10:10:37Z</time>
      </trkpt>
      <trkpt lat="45.77396" lon="3.68625">
        <ele>911</ele>
        <time>2017-09-20T10:10:40Z</time>
      </trkpt>
      <trkpt lat="45.7739" lon="3.68629">
        <ele>912</ele>
        <time>2017-09-20T10:11:13Z</time>
      </trkpt>
      <trkpt lat="45.77392" lon="3.68629">
        <ele>912</ele>
        <time>2017-09-20T10:11:20Z</time>
      </trkpt>
      <trkpt lat="45.77393" lon="3.68628">
        <ele>912</ele>
        <time>2017-09-20T10:11:21Z</time>
      </trkpt>
      <trkpt lat="45.77403" lon="3.68628">
        <ele>912</ele>
        <time>2017-09-20T10:11:28Z</time>
      </trkpt>
      <trkpt lat="45.77404" lon="3.68629">
        <ele>912</ele>
        <time>2017-09-20T10:11:29Z</time>
      </trkpt>
      <trkpt lat="45.77416" lon="3.68635">
        <ele>914</ele>
        <time>2017-09-20T10:11:38Z</time>
      </trkpt>
      <trkpt lat="45.77442" lon="3.68645">
        <ele>917</ele>
        <time>2017-09-20T10:11:56Z</time>
      </trkpt>
      <trkpt lat="45.7746" lon="3.68651">
        <ele>918</ele>
        <time>2017-09-20T10:12:08Z</time>
      </trkpt>
      <trkpt lat="45.77471" lon="3.68653">
        <ele>919</ele>
        <time>2017-09-20T10:12:15Z</time>
      </trkpt>
      <trkpt lat="45.77487" lon="3.68654">
        <ele>920</ele>
        <time>2017-09-20T10:12:26Z</time>
      </trkpt>
      <trkpt lat="45.77499" lon="3.68654">
        <ele>920</ele>
        <time>2017-09-20T10:12:35Z</time>
      </trkpt>
      <trkpt lat="45.77526" lon="3.68661">
        <ele>922</ele>
        <time>2017-09-20T10:12:55Z</time>
      </trkpt>
      <trkpt lat="45.7754" lon="3.68661">
        <ele>924</ele>
        <time>2017-09-20T10:13:05Z</time>
      </trkpt>
      <trkpt lat="45.77552" lon="3.6866">
        <ele>925</ele>
        <time>2017-09-20T10:13:13Z</time>
      </trkpt>
      <trkpt lat="45.77568" lon="3.68659">
        <ele>925</ele>
        <time>2017-09-20T10:13:24Z</time>
      </trkpt>
      <trkpt lat="45.77585" lon="3.68659">
        <ele>925</ele>
        <time>2017-09-20T10:13:34Z</time>
      </trkpt>
      <trkpt lat="45.776" lon="3.68661">
        <ele>925</ele>
        <time>2017-09-20T10:13:41Z</time>
      </trkpt>
      <trkpt lat="45.7761" lon="3.68663">
        <ele>925</ele>
        <time>2017-09-20T10:13:52Z</time>
      </trkpt>
      <trkpt lat="45.77625" lon="3.68666">
        <ele>926</ele>
        <time>2017-09-20T10:14:02Z</time>
      </trkpt>
      <trkpt lat="45.7764" lon="3.68672">
        <ele>927</ele>
        <time>2017-09-20T10:14:13Z</time>
      </trkpt>
      <trkpt lat="45.77651" lon="3.68675">
        <ele>927</ele>
        <time>2017-09-20T10:14:21Z</time>
      </trkpt>
      <trkpt lat="45.7766" lon="3.68677">
        <ele>926</ele>
        <time>2017-09-20T10:14:26Z</time>
      </trkpt>
      <trkpt lat="45.77664" lon="3.68677">
        <ele>926</ele>
        <time>2017-09-20T10:14:29Z</time>
      </trkpt>
      <trkpt lat="45.77669" lon="3.6868">
        <ele>926</ele>
        <time>2017-09-20T10:14:33Z</time>
      </trkpt>
      <trkpt lat="45.77678" lon="3.68683">
        <ele>926</ele>
        <time>2017-09-20T10:14:41Z</time>
      </trkpt>
      <trkpt lat="45.77683" lon="3.68684">
        <ele>926</ele>
        <time>2017-09-20T10:14:48Z</time>
      </trkpt>
      <trkpt lat="45.77688" lon="3.68687">
        <ele>926</ele>
        <time>2017-09-20T10:15:05Z</time>
      </trkpt>
      <trkpt lat="45.77693" lon="3.68696">
        <ele>928</ele>
        <time>2017-09-20T10:15:12Z</time>
      </trkpt>
      <trkpt lat="45.77705" lon="3.68702">
        <ele>928</ele>
        <time>2017-09-20T10:15:21Z</time>
      </trkpt>
      <trkpt lat="45.77711" lon="3.68705">
        <ele>928</ele>
        <time>2017-09-20T10:15:27Z</time>
      </trkpt>
      <trkpt lat="45.77717" lon="3.68709">
        <ele>929</ele>
        <time>2017-09-20T10:15:33Z</time>
      </trkpt>
      <trkpt lat="45.77734" lon="3.68716">
        <ele>931</ele>
        <time>2017-09-20T10:15:45Z</time>
      </trkpt>
      <trkpt lat="45.77743" lon="3.68718">
        <ele>933</ele>
        <time>2017-09-20T10:15:51Z</time>
      </trkpt>
      <trkpt lat="45.77744" lon="3.68723">
        <ele>934</ele>
        <time>2017-09-20T10:15:54Z</time>
      </trkpt>
      <trkpt lat="45.7774" lon="3.68729">
        <ele>935</ele>
        <time>2017-09-20T10:15:59Z</time>
      </trkpt>
      <trkpt lat="45.77733" lon="3.68738">
        <ele>935</ele>
        <time>2017-09-20T10:16:07Z</time>
      </trkpt>
      <trkpt lat="45.77726" lon="3.68746">
        <ele>936</ele>
        <time>2017-09-20T10:16:15Z</time>
      </trkpt>
      <trkpt lat="45.77718" lon="3.68755">
        <ele>937</ele>
        <time>2017-09-20T10:16:24Z</time>
      </trkpt>
      <trkpt lat="45.77713" lon="3.6876">
        <ele>938</ele>
        <time>2017-09-20T10:16:28Z</time>
      </trkpt>
      <trkpt lat="45.77712" lon="3.6876">
        <ele>938</ele>
        <time>2017-09-20T10:16:30Z</time>
      </trkpt>
      <trkpt lat="45.77709" lon="3.68764">
        <ele>939</ele>
        <time>2017-09-20T10:16:34Z</time>
      </trkpt>
      <trkpt lat="45.77707" lon="3.68765">
        <ele>939</ele>
        <time>2017-09-20T10:16:37Z</time>
      </trkpt>
      <trkpt lat="45.77704" lon="3.68768">
        <ele>939</ele>
        <time>2017-09-20T10:16:41Z</time>
      </trkpt>
      <trkpt lat="45.77696" lon="3.68773">
        <ele>940</ele>
        <time>2017-09-20T10:16:49Z</time>
      </trkpt>
      <trkpt lat="45.77684" lon="3.68787">
        <ele>942</ele>
        <time>2017-09-20T10:17:01Z</time>
      </trkpt>
      <trkpt lat="45.77678" lon="3.68794">
        <ele>943</ele>
        <time>2017-09-20T10:17:08Z</time>
      </trkpt>
      <trkpt lat="45.77669" lon="3.68802">
        <ele>944</ele>
        <time>2017-09-20T10:17:17Z</time>
      </trkpt>
      <trkpt lat="45.77667" lon="3.68803">
        <ele>944</ele>
        <time>2017-09-20T10:17:19Z</time>
      </trkpt>
      <trkpt lat="45.77663" lon="3.68807">
        <ele>944</ele>
        <time>2017-09-20T10:17:23Z</time>
      </trkpt>
      <trkpt lat="45.77656" lon="3.68816">
        <ele>945</ele>
        <time>2017-09-20T10:17:31Z</time>
      </trkpt>
      <trkpt lat="45.77648" lon="3.68824">
        <ele>946</ele>
        <time>2017-09-20T10:17:39Z</time>
      </trkpt>
      <trkpt lat="45.77645" lon="3.68838">
        <ele>948</ele>
        <time>2017-09-20T10:17:47Z</time>
      </trkpt>
      <trkpt lat="45.77644" lon="3.68853">
        <ele>950</ele>
        <time>2017-09-20T10:17:55Z</time>
      </trkpt>
      <trkpt lat="45.77644" lon="3.68854">
        <ele>950</ele>
        <time>2017-09-20T10:17:56Z</time>
      </trkpt>
      <trkpt lat="45.77642" lon="3.6886">
        <ele>951</ele>
        <time>2017-09-20T10:18:00Z</time>
      </trkpt>
      <trkpt lat="45.7764" lon="3.68877">
        <ele>954</ele>
        <time>2017-09-20T10:18:09Z</time>
      </trkpt>
      <trkpt lat="45.77638" lon="3.68889">
        <ele>956</ele>
        <time>2017-09-20T10:18:16Z</time>
      </trkpt>
      <trkpt lat="45.77638" lon="3.68893">
        <ele>956</ele>
        <time>2017-09-20T10:18:20Z</time>
      </trkpt>
      <trkpt lat="45.77637" lon="3.68901">
        <ele>958</ele>
        <time>2017-09-20T10:18:27Z</time>
      </trkpt>
      <trkpt lat="45.77638" lon="3.68905">
        <ele>958</ele>
        <time>2017-09-20T10:18:30Z</time>
      </trkpt>
      <trkpt lat="45.77638" lon="3.68921">
        <ele>961</ele>
        <time>2017-09-20T10:18:39Z</time>
      </trkpt>
      <trkpt lat="45.77636" lon="3.68931">
        <ele>963</ele>
        <time>2017-09-20T10:18:46Z</time>
      </trkpt>
      <trkpt lat="45.77635" lon="3.68934">
        <ele>963</ele>
        <time>2017-09-20T10:18:49Z</time>
      </trkpt>
      <trkpt lat="45.77635" lon="3.68936">
        <ele>963</ele>
        <time>2017-09-20T10:18:51Z</time>
      </trkpt>
      <trkpt lat="45.77638" lon="3.6895">
        <ele>965</ele>
        <time>2017-09-20T10:18:57Z</time>
      </trkpt>
      <trkpt lat="45.77641" lon="3.68964">
        <ele>967</ele>
        <time>2017-09-20T10:19:05Z</time>
      </trkpt>
      <trkpt lat="45.77645" lon="3.68974">
        <ele>968</ele>
        <time>2017-09-20T10:19:12Z</time>
      </trkpt>
      <trkpt lat="45.77649" lon="3.68986">
        <ele>969</ele>
        <time>2017-09-20T10:19:19Z</time>
      </trkpt>
      <trkpt lat="45.7765" lon="3.68989">
        <ele>969</ele>
        <time>2017-09-20T10:19:21Z</time>
      </trkpt>
      <trkpt lat="45.77654" lon="3.69">
        <ele>970</ele>
        <time>2017-09-20T10:19:28Z</time>
      </trkpt>
      <trkpt lat="45.77654" lon="3.69002">
        <ele>971</ele>
        <time>2017-09-20T10:19:30Z</time>
      </trkpt>
      <trkpt lat="45.77658" lon="3.6901">
        <ele>972</ele>
        <time>2017-09-20T10:19:35Z</time>
      </trkpt>
      <trkpt lat="45.77659" lon="3.69014">
        <ele>972</ele>
        <time>2017-09-20T10:19:38Z</time>
      </trkpt>
      <trkpt lat="45.77661" lon="3.69027">
        <ele>973</ele>
        <time>2017-09-20T10:19:45Z</time>
      </trkpt>
      <trkpt lat="45.77663" lon="3.69034">
        <ele>974</ele>
        <time>2017-09-20T10:19:49Z</time>
      </trkpt>
      <trkpt lat="45.77664" lon="3.69043">
        <ele>974</ele>
        <time>2017-09-20T10:19:54Z</time>
      </trkpt>
      <trkpt lat="45.77667" lon="3.69053">
        <ele>975</ele>
        <time>2017-09-20T10:20:00Z</time>
      </trkpt>
      <trkpt lat="45.77672" lon="3.69066">
        <ele>976</ele>
        <time>2017-09-20T10:20:07Z</time>
      </trkpt>
      <trkpt lat="45.77675" lon="3.69073">
        <ele>977</ele>
        <time>2017-09-20T10:20:11Z</time>
      </trkpt>
      <trkpt lat="45.77677" lon="3.69079">
        <ele>977</ele>
        <time>2017-09-20T10:20:14Z</time>
      </trkpt>
      <trkpt lat="45.77682" lon="3.6909">
        <ele>978</ele>
        <time>2017-09-20T10:20:20Z</time>
      </trkpt>
      <trkpt lat="45.77684" lon="3.69099">
        <ele>979</ele>
        <time>2017-09-20T10:20:25Z</time>
      </trkpt>
      <trkpt lat="45.77688" lon="3.69106">
        <ele>979</ele>
        <time>2017-09-20T10:20:29Z</time>
      </trkpt>
      <trkpt lat="45.77692" lon="3.69122">
        <ele>980</ele>
        <time>2017-09-20T10:20:37Z</time>
      </trkpt>
      <trkpt lat="45.77692" lon="3.69124">
        <ele>980</ele>
        <time>2017-09-20T10:20:38Z</time>
      </trkpt>
      <trkpt lat="45.77699" lon="3.69138">
        <ele>980</ele>
        <time>2017-09-20T10:20:47Z</time>
      </trkpt>
      <trkpt lat="45.77703" lon="3.69151">
        <ele>980</ele>
        <time>2017-09-20T10:20:54Z</time>
      </trkpt>
      <trkpt lat="45.77705" lon="3.69154">
        <ele>980</ele>
        <time>2017-09-20T10:20:56Z</time>
      </trkpt>
      <trkpt lat="45.7771" lon="3.69166">
        <ele>980</ele>
        <time>2017-09-20T10:21:03Z</time>
      </trkpt>
      <trkpt lat="45.77714" lon="3.69174">
        <ele>980</ele>
        <time>2017-09-20T10:21:08Z</time>
      </trkpt>
      <trkpt lat="45.77718" lon="3.69182">
        <ele>980</ele>
        <time>2017-09-20T10:21:13Z</time>
      </trkpt>
      <trkpt lat="45.77719" lon="3.69185">
        <ele>980</ele>
        <time>2017-09-20T10:21:15Z</time>
      </trkpt>
      <trkpt lat="45.77722" lon="3.69192">
        <ele>980</ele>
        <time>2017-09-20T10:21:19Z</time>
      </trkpt>
      <trkpt lat="45.77726" lon="3.69209">
        <ele>980</ele>
        <time>2017-09-20T10:21:28Z</time>
      </trkpt>
      <trkpt lat="45.77726" lon="3.69213">
        <ele>981</ele>
        <time>2017-09-20T10:21:30Z</time>
      </trkpt>
      <trkpt lat="45.77727" lon="3.6922">
        <ele>981</ele>
        <time>2017-09-20T10:21:34Z</time>
      </trkpt>
      <trkpt lat="45.77728" lon="3.6923">
        <ele>981</ele>
        <time>2017-09-20T10:21:40Z</time>
      </trkpt>
      <trkpt lat="45.77728" lon="3.69231">
        <ele>981</ele>
        <time>2017-09-20T10:21:41Z</time>
      </trkpt>
      <trkpt lat="45.77729" lon="3.69235">
        <ele>981</ele>
        <time>2017-09-20T10:21:42Z</time>
      </trkpt>
      <trkpt lat="45.77728" lon="3.6924">
        <ele>982</ele>
        <time>2017-09-20T10:21:46Z</time>
      </trkpt>
      <trkpt lat="45.77727" lon="3.69255">
        <ele>983</ele>
        <time>2017-09-20T10:21:54Z</time>
      </trkpt>
      <trkpt lat="45.77727" lon="3.69257">
        <ele>983</ele>
        <time>2017-09-20T10:21:55Z</time>
      </trkpt>
      <trkpt lat="45.77727" lon="3.69261">
        <ele>983</ele>
        <time>2017-09-20T10:21:57Z</time>
      </trkpt>
      <trkpt lat="45.77728" lon="3.69272">
        <ele>984</ele>
        <time>2017-09-20T10:22:03Z</time>
      </trkpt>
      <trkpt lat="45.7773" lon="3.69285">
        <ele>984</ele>
        <time>2017-09-20T10:22:09Z</time>
      </trkpt>
      <trkpt lat="45.7773" lon="3.69298">
        <ele>985</ele>
        <time>2017-09-20T10:22:15Z</time>
      </trkpt>
      <trkpt lat="45.77731" lon="3.69307">
        <ele>985</ele>
        <time>2017-09-20T10:22:20Z</time>
      </trkpt>
      <trkpt lat="45.77731" lon="3.69315">
        <ele>986</ele>
        <time>2017-09-20T10:22:24Z</time>
      </trkpt>
      <trkpt lat="45.77732" lon="3.69332">
        <ele>986</ele>
        <time>2017-09-20T10:22:32Z</time>
      </trkpt>
      <trkpt lat="45.77733" lon="3.69336">
        <ele>987</ele>
        <time>2017-09-20T10:22:34Z</time>
      </trkpt>
      <trkpt lat="45.77732" lon="3.69354">
        <ele>988</ele>
        <time>2017-09-20T10:22:43Z</time>
      </trkpt>
      <trkpt lat="45.77733" lon="3.69367">
        <ele>988</ele>
        <time>2017-09-20T10:22:49Z</time>
      </trkpt>
      <trkpt lat="45.77735" lon="3.69387">
        <ele>989</ele>
        <time>2017-09-20T10:22:59Z</time>
      </trkpt>
      <trkpt lat="45.77735" lon="3.69389">
        <ele>989</ele>
        <time>2017-09-20T10:23:00Z</time>
      </trkpt>
      <trkpt lat="45.77737" lon="3.69407">
        <ele>989</ele>
        <time>2017-09-20T10:23:08Z</time>
      </trkpt>
      <trkpt lat="45.77739" lon="3.69426">
        <ele>990</ele>
        <time>2017-09-20T10:23:17Z</time>
      </trkpt>
      <trkpt lat="45.77738" lon="3.69446">
        <ele>992</ele>
        <time>2017-09-20T10:23:27Z</time>
      </trkpt>
      <trkpt lat="45.77732" lon="3.69464">
        <ele>993</ele>
        <time>2017-09-20T10:23:37Z</time>
      </trkpt>
      <trkpt lat="45.77725" lon="3.69482">
        <ele>995</ele>
        <time>2017-09-20T10:23:47Z</time>
      </trkpt>
      <trkpt lat="45.77716" lon="3.69502">
        <ele>997</ele>
        <time>2017-09-20T10:23:58Z</time>
      </trkpt>
      <trkpt lat="45.7771" lon="3.69515">
        <ele>999</ele>
        <time>2017-09-20T10:24:06Z</time>
      </trkpt>
      <trkpt lat="45.77702" lon="3.6953">
        <ele>1000</ele>
        <time>2017-09-20T10:24:15Z</time>
      </trkpt>
      <trkpt lat="45.77698" lon="3.69545">
        <ele>1000</ele>
        <time>2017-09-20T10:24:23Z</time>
      </trkpt>
      <trkpt lat="45.77692" lon="3.69564">
        <ele>1000</ele>
        <time>2017-09-20T10:24:33Z</time>
      </trkpt>
      <trkpt lat="45.77685" lon="3.69583">
        <ele>1001</ele>
        <time>2017-09-20T10:24:43Z</time>
      </trkpt>
      <trkpt lat="45.77682" lon="3.6959">
        <ele>1002</ele>
        <time>2017-09-20T10:24:49Z</time>
      </trkpt>
      <trkpt lat="45.77679" lon="3.69602">
        <ele>1002</ele>
        <time>2017-09-20T10:24:56Z</time>
      </trkpt>
      <trkpt lat="45.77674" lon="3.69622">
        <ele>1004</ele>
        <time>2017-09-20T10:25:06Z</time>
      </trkpt>
      <trkpt lat="45.77671" lon="3.69643">
        <ele>1005</ele>
        <time>2017-09-20T10:25:16Z</time>
      </trkpt>
      <trkpt lat="45.77666" lon="3.69667">
        <ele>1005</ele>
        <time>2017-09-20T10:25:28Z</time>
      </trkpt>
      <trkpt lat="45.77664" lon="3.69684">
        <ele>1005</ele>
        <time>2017-09-20T10:25:37Z</time>
      </trkpt>
      <trkpt lat="45.77663" lon="3.69693">
        <ele>1006</ele>
        <time>2017-09-20T10:25:43Z</time>
      </trkpt>
      <trkpt lat="45.7766" lon="3.69707">
        <ele>1009</ele>
        <time>2017-09-20T10:25:51Z</time>
      </trkpt>
      <trkpt lat="45.77658" lon="3.69723">
        <ele>1009</ele>
        <time>2017-09-20T10:25:59Z</time>
      </trkpt>
      <trkpt lat="45.77657" lon="3.69737">
        <ele>1009</ele>
        <time>2017-09-20T10:26:08Z</time>
      </trkpt>
      <trkpt lat="45.77657" lon="3.69745">
        <ele>1009</ele>
        <time>2017-09-20T10:26:23Z</time>
      </trkpt>
      <trkpt lat="45.77658" lon="3.69751">
        <ele>1009</ele>
        <time>2017-09-20T10:26:26Z</time>
      </trkpt>
      <trkpt lat="45.77658" lon="3.69756">
        <ele>1009</ele>
        <time>2017-09-20T10:26:30Z</time>
      </trkpt>
      <trkpt lat="45.77664" lon="3.69765">
        <ele>1009</ele>
        <time>2017-09-20T10:26:37Z</time>
      </trkpt>
      <trkpt lat="45.77665" lon="3.69766">
        <ele>1009</ele>
        <time>2017-09-20T10:26:43Z</time>
      </trkpt>
      <trkpt lat="45.77666" lon="3.69767">
        <ele>1009</ele>
        <time>2017-09-20T10:26:53Z</time>
      </trkpt>
      <trkpt lat="45.77665" lon="3.69769">
        <ele>1009</ele>
        <time>2017-09-20T10:27:14Z</time>
      </trkpt>
      <trkpt lat="45.77664" lon="3.69769">
        <ele>1009</ele>
        <time>2017-09-20T10:27:25Z</time>
      </trkpt>
      <trkpt lat="45.7766" lon="3.69765">
        <ele>1009</ele>
        <time>2017-09-20T10:27:29Z</time>
      </trkpt>
      <trkpt lat="45.77657" lon="3.69749">
        <ele>1009</ele>
        <time>2017-09-20T10:27:37Z</time>
      </trkpt>
      <trkpt lat="45.77656" lon="3.69744">
        <ele>1009</ele>
        <time>2017-09-20T10:27:44Z</time>
      </trkpt>
      <trkpt lat="45.77655" lon="3.69743">
        <ele>1009</ele>
        <time>2017-09-20T10:27:51Z</time>
      </trkpt>
      <trkpt lat="45.77654" lon="3.69734">
        <ele>1009</ele>
        <time>2017-09-20T10:27:56Z</time>
      </trkpt>
      <trkpt lat="45.77653" lon="3.69717">
        <ele>1009</ele>
        <time>2017-09-20T10:28:05Z</time>
      </trkpt>
      <trkpt lat="45.77654" lon="3.69713">
        <ele>1009</ele>
        <time>2017-09-20T10:28:08Z</time>
      </trkpt>
      <trkpt lat="45.77652" lon="3.69707">
        <ele>1009</ele>
        <time>2017-09-20T10:28:12Z</time>
      </trkpt>
      <trkpt lat="45.77652" lon="3.69707">
        <ele>1009</ele>
        <time>2017-09-20T10:28:21Z</time>
      </trkpt>
      <trkpt lat="45.77651" lon="3.69703">
        <ele>1009</ele>
        <time>2017-09-20T10:28:33Z</time>
      </trkpt>
      <trkpt lat="45.77652" lon="3.69699">
        <ele>1009</ele>
        <time>2017-09-20T10:28:38Z</time>
      </trkpt>
      <trkpt lat="45.77652" lon="3.69696">
        <ele>1009</ele>
        <time>2017-09-20T10:28:43Z</time>
      </trkpt>
      <trkpt lat="45.77653" lon="3.69702">
        <ele>1009</ele>
        <time>2017-09-20T10:28:59Z</time>
      </trkpt>
      <trkpt lat="45.77653" lon="3.69705">
        <ele>1009</ele>
        <time>2017-09-20T10:29:06Z</time>
      </trkpt>
      <trkpt lat="45.77652" lon="3.69706">
        <ele>1009</ele>
        <time>2017-09-20T10:29:10Z</time>
      </trkpt>
      <trkpt lat="45.77652" lon="3.69704">
        <ele>1009</ele>
        <time>2017-09-20T10:29:21Z</time>
      </trkpt>
      <trkpt lat="45.77653" lon="3.69699">
        <ele>1009</ele>
        <time>2017-09-20T10:29:28Z</time>
      </trkpt>
      <trkpt lat="45.77653" lon="3.69696">
        <ele>1009</ele>
        <time>2017-09-20T10:29:33Z</time>
      </trkpt>
      <trkpt lat="45.77653" lon="3.69695">
        <ele>1008</ele>
        <time>2017-09-20T10:29:36Z</time>
      </trkpt>
      <trkpt lat="45.77652" lon="3.69702">
        <ele>1009</ele>
        <time>2017-09-20T10:29:43Z</time>
      </trkpt>
      <trkpt lat="45.77653" lon="3.69706">
        <ele>1009</ele>
        <time>2017-09-20T10:29:47Z</time>
      </trkpt>
      <trkpt lat="45.77652" lon="3.69705">
        <ele>1009</ele>
        <time>2017-09-20T10:30:27Z</time>
      </trkpt>
      <trkpt lat="45.77652" lon="3.69704">
        <ele>1009</ele>
        <time>2017-09-20T10:30:34Z</time>
      </trkpt>
      <trkpt lat="45.77651" lon="3.69705">
        <ele>1009</ele>
        <time>2017-09-20T10:31:53Z</time>
      </trkpt>
      <trkpt lat="45.77651" lon="3.69705">
        <ele>1009</ele>
        <time>2017-09-20T10:32:37Z</time>
      </trkpt>
      <trkpt lat="45.77651" lon="3.69705">
        <ele>1009</ele>
        <time>2017-09-20T10:32:56Z</time>
      </trkpt>
      <trkpt lat="45.77651" lon="3.69705">
        <ele>1009</ele>
        <time>2017-09-20T10:33:33Z</time>
      </trkpt>
      <trkpt lat="45.77653" lon="3.69703">
        <ele>1009</ele>
        <time>2017-09-20T10:33:38Z</time>
      </trkpt>
      <trkpt lat="45.77654" lon="3.69703">
        <ele>1009</ele>
        <time>2017-09-20T10:33:45Z</time>
      </trkpt>
      <trkpt lat="45.77652" lon="3.69703">
        <ele>1009</ele>
        <time>2017-09-20T10:33:56Z</time>
      </trkpt>
      <trkpt lat="45.77651" lon="3.69703">
        <ele>1009</ele>
        <time>2017-09-20T10:48:37Z</time>
      </trkpt>
      <trkpt lat="45.77653" lon="3.6971">
        <ele>1009</ele>
        <time>2017-09-20T10:51:36Z</time>
      </trkpt>
      <trkpt lat="45.77653" lon="3.69709">
        <ele>1009</ele>
        <time>2017-09-20T10:51:43Z</time>
      </trkpt>
      <trkpt lat="45.77653" lon="3.69704">
        <ele>1009</ele>
        <time>2017-09-20T10:51:48Z</time>
      </trkpt>
      <trkpt lat="45.77653" lon="3.69703">
        <ele>1009</ele>
        <time>2017-09-20T10:51:55Z</time>
      </trkpt>
      <trkpt lat="45.77654" lon="3.69703">
        <ele>1009</ele>
        <time>2017-09-20T10:57:17Z</time>
      </trkpt>
      <trkpt lat="45.77642" lon="3.69735">
        <ele>1009</ele>
        <time>2017-09-20T11:26:27Z</time>
      </trkpt>
      <trkpt lat="45.77637" lon="3.6974">
        <ele>1009</ele>
        <time>2017-09-20T11:26:31Z</time>
      </trkpt>
      <trkpt lat="45.77659" lon="3.69756">
        <ele>1005.9</ele>
      </trkpt>
      <trkpt lat="45.77854" lon="3.69986">
        <ele>1043.4</ele>
      </trkpt>
      <trkpt lat="45.78065" lon="3.69985">
        <ele>1061</ele>
      </trkpt>
      <trkpt lat="45.7814" lon="3.70141">
        <ele>1071.1</ele>
      </trkpt>
      <trkpt lat="45.78239" lon="3.70523">
        <ele>1129.2</ele>
      </trkpt>
      <trkpt lat="45.78341" lon="3.70962">
        <ele>1192.2</ele>
      </trkpt>
      <trkpt lat="45.78402" lon="3.71138">
        <ele>1204.5</ele>
      </trkpt>
      <trkpt lat="45.7841" lon="3.7126">
        <ele>1197.3</ele>
      </trkpt>
      <trkpt lat="45.78575" lon="3.71335">
        <ele>1173.1</ele>
      </trkpt>
      <trkpt lat="45.78861" lon="3.71535">
        <ele>1146.4</ele>
      </trkpt>
      <trkpt lat="45.79044" lon="3.71585">
        <ele>1132.5</ele>
      </trkpt>
      <trkpt lat="45.79138" lon="3.71638">
        <ele>1115.1</ele>
      </trkpt>
      <trkpt lat="45.79147" lon="3.71677">
        <ele>1111</ele>
      </trkpt>
      <trkpt lat="45.79143" lon="3.71691">
        <ele>1116</ele>
        <time>2017-09-19T11:06:49Z</time>
      </trkpt>
      <trkpt lat="45.79145" lon="3.7168">
        <ele>1116</ele>
        <time>2017-09-19T11:06:55Z</time>
      </trkpt>
      <trkpt lat="45.79148" lon="3.71666">
        <ele>1117</ele>
        <time>2017-09-19T11:07:00Z</time>
      </trkpt>
      <trkpt lat="45.79149" lon="3.71663">
        <ele>1118</ele>
        <time>2017-09-19T11:07:02Z</time>
      </trkpt>
      <trkpt lat="45.79155" lon="3.71654">
        <ele>1118</ele>
        <time>2017-09-19T11:07:08Z</time>
      </trkpt>
      <trkpt lat="45.79155" lon="3.71653">
        <ele>1118</ele>
        <time>2017-09-19T11:07:09Z</time>
      </trkpt>
      <trkpt lat="45.79158" lon="3.71646">
        <ele>1118</ele>
        <time>2017-09-19T11:07:13Z</time>
      </trkpt>
      <trkpt lat="45.7916" lon="3.71639">
        <ele>1119</ele>
        <time>2017-09-19T11:07:17Z</time>
      </trkpt>
      <trkpt lat="45.79162" lon="3.71635">
        <ele>1119</ele>
        <time>2017-09-19T11:07:20Z</time>
      </trkpt>
      <trkpt lat="45.79163" lon="3.71631">
        <ele>1119</ele>
        <time>2017-09-19T11:07:22Z</time>
      </trkpt>
      <trkpt lat="45.79164" lon="3.71622">
        <ele>1119</ele>
        <time>2017-09-19T11:07:27Z</time>
      </trkpt>
      <trkpt lat="45.79165" lon="3.71617">
        <ele>1120</ele>
        <time>2017-09-19T11:07:29Z</time>
      </trkpt>
      <trkpt lat="45.7917" lon="3.71597">
        <ele>1120</ele>
        <time>2017-09-19T11:07:38Z</time>
      </trkpt>
      <trkpt lat="45.79171" lon="3.71576">
        <ele>1121</ele>
        <time>2017-09-19T11:07:48Z</time>
      </trkpt>
      <trkpt lat="45.7917" lon="3.71574">
        <ele>1121</ele>
        <time>2017-09-19T11:07:49Z</time>
      </trkpt>
      <trkpt lat="45.79175" lon="3.71566">
        <ele>1121</ele>
        <time>2017-09-19T11:07:55Z</time>
      </trkpt>
      <trkpt lat="45.79176" lon="3.71565">
        <ele>1120</ele>
        <time>2017-09-19T11:07:56Z</time>
      </trkpt>
      <trkpt lat="45.79178" lon="3.71563">
        <ele>1120</ele>
        <time>2017-09-19T11:07:58Z</time>
      </trkpt>
      <trkpt lat="45.79176" lon="3.71558">
        <ele>1121</ele>
        <time>2017-09-19T11:08:02Z</time>
      </trkpt>
      <trkpt lat="45.79175" lon="3.71557">
        <ele>1121</ele>
        <time>2017-09-19T11:08:03Z</time>
      </trkpt>
      <trkpt lat="45.79173" lon="3.7155">
        <ele>1122</ele>
        <time>2017-09-19T11:08:12Z</time>
      </trkpt>
      <trkpt lat="45.79171" lon="3.7154">
        <ele>1122</ele>
        <time>2017-09-19T11:08:17Z</time>
      </trkpt>
      <trkpt lat="45.79169" lon="3.71529">
        <ele>1123</ele>
        <time>2017-09-19T11:08:23Z</time>
      </trkpt>
      <trkpt lat="45.79167" lon="3.7152">
        <ele>1123</ele>
        <time>2017-09-19T11:08:28Z</time>
      </trkpt>
      <trkpt lat="45.79167" lon="3.71518">
        <ele>1123</ele>
        <time>2017-09-19T11:08:29Z</time>
      </trkpt>
      <trkpt lat="45.79165" lon="3.71507">
        <ele>1124</ele>
        <time>2017-09-19T11:08:35Z</time>
      </trkpt>
      <trkpt lat="45.79161" lon="3.71499">
        <ele>1124</ele>
        <time>2017-09-19T11:08:40Z</time>
      </trkpt>
      <trkpt lat="45.7916" lon="3.71492">
        <ele>1124</ele>
        <time>2017-09-19T11:08:44Z</time>
      </trkpt>
      <trkpt lat="45.79157" lon="3.71486">
        <ele>1125</ele>
        <time>2017-09-19T11:08:48Z</time>
      </trkpt>
      <trkpt lat="45.79153" lon="3.71478">
        <ele>1125</ele>
        <time>2017-09-19T11:08:54Z</time>
      </trkpt>
      <trkpt lat="45.79149" lon="3.71468">
        <ele>1126</ele>
        <time>2017-09-19T11:09:01Z</time>
      </trkpt>
      <trkpt lat="45.79148" lon="3.71466">
        <ele>1126</ele>
        <time>2017-09-19T11:09:03Z</time>
      </trkpt>
      <trkpt lat="45.79147" lon="3.71464">
        <ele>1126</ele>
        <time>2017-09-19T11:09:05Z</time>
      </trkpt>
      <trkpt lat="45.79142" lon="3.7146">
        <ele>1127</ele>
        <time>2017-09-19T11:09:10Z</time>
      </trkpt>
      <trkpt lat="45.79139" lon="3.71457">
        <ele>1128</ele>
        <time>2017-09-19T11:09:14Z</time>
      </trkpt>
      <trkpt lat="45.79135" lon="3.71451">
        <ele>1128</ele>
        <time>2017-09-19T11:09:20Z</time>
      </trkpt>
      <trkpt lat="45.79133" lon="3.7144">
        <ele>1129</ele>
        <time>2017-09-19T11:09:26Z</time>
      </trkpt>
      <trkpt lat="45.79133" lon="3.71438">
        <ele>1129</ele>
        <time>2017-09-19T11:09:27Z</time>
      </trkpt>
      <trkpt lat="45.79129" lon="3.71429">
        <ele>1130</ele>
        <time>2017-09-19T11:09:31Z</time>
      </trkpt>
      <trkpt lat="45.79127" lon="3.71417">
        <ele>1130</ele>
        <time>2017-09-19T11:09:36Z</time>
      </trkpt>
      <trkpt lat="45.79124" lon="3.71406">
        <ele>1130</ele>
        <time>2017-09-19T11:09:41Z</time>
      </trkpt>
      <trkpt lat="45.79124" lon="3.71404">
        <ele>1130</ele>
        <time>2017-09-19T11:09:42Z</time>
      </trkpt>
      <trkpt lat="45.79123" lon="3.71392">
        <ele>1129</ele>
        <time>2017-09-19T11:09:48Z</time>
      </trkpt>
      <trkpt lat="45.7912" lon="3.71378">
        <ele>1129</ele>
        <time>2017-09-19T11:09:54Z</time>
      </trkpt>
      <trkpt lat="45.79117" lon="3.71367">
        <ele>1129</ele>
        <time>2017-09-19T11:09:59Z</time>
      </trkpt>
      <trkpt lat="45.79116" lon="3.71365">
        <ele>1129</ele>
        <time>2017-09-19T11:10:00Z</time>
      </trkpt>
      <trkpt lat="45.79116" lon="3.71361">
        <ele>1129</ele>
        <time>2017-09-19T11:10:02Z</time>
      </trkpt>
      <trkpt lat="45.79118" lon="3.71356">
        <ele>1128</ele>
        <time>2017-09-19T11:10:05Z</time>
      </trkpt>
      <trkpt lat="45.79119" lon="3.71346">
        <ele>1128</ele>
        <time>2017-09-19T11:10:11Z</time>
      </trkpt>
      <trkpt lat="45.79117" lon="3.71338">
        <ele>1129</ele>
        <time>2017-09-19T11:10:15Z</time>
      </trkpt>
      <trkpt lat="45.79118" lon="3.71328">
        <ele>1130</ele>
        <time>2017-09-19T11:10:20Z</time>
      </trkpt>
      <trkpt lat="45.79118" lon="3.7132">
        <ele>1130</ele>
        <time>2017-09-19T11:10:24Z</time>
      </trkpt>
      <trkpt lat="45.79116" lon="3.7131">
        <ele>1131</ele>
        <time>2017-09-19T11:10:29Z</time>
      </trkpt>
      <trkpt lat="45.79114" lon="3.71301">
        <ele>1131</ele>
        <time>2017-09-19T11:10:33Z</time>
      </trkpt>
      <trkpt lat="45.79115" lon="3.7129">
        <ele>1131</ele>
        <time>2017-09-19T11:10:38Z</time>
      </trkpt>
      <trkpt lat="45.79115" lon="3.71276">
        <ele>1132</ele>
        <time>2017-09-19T11:10:44Z</time>
      </trkpt>
      <trkpt lat="45.79115" lon="3.71267">
        <ele>1132</ele>
        <time>2017-09-19T11:10:48Z</time>
      </trkpt>
      <trkpt lat="45.79116" lon="3.71261">
        <ele>1132</ele>
        <time>2017-09-19T11:10:51Z</time>
      </trkpt>
      <trkpt lat="45.79121" lon="3.7125">
        <ele>1131</ele>
        <time>2017-09-19T11:10:56Z</time>
      </trkpt>
      <trkpt lat="45.79123" lon="3.71241">
        <ele>1131</ele>
        <time>2017-09-19T11:11:01Z</time>
      </trkpt>
      <trkpt lat="45.79123" lon="3.71236">
        <ele>1131</ele>
        <time>2017-09-19T11:11:03Z</time>
      </trkpt>
      <trkpt lat="45.79125" lon="3.71228">
        <ele>1131</ele>
        <time>2017-09-19T11:11:07Z</time>
      </trkpt>
      <trkpt lat="45.79127" lon="3.71219">
        <ele>1131</ele>
        <time>2017-09-19T11:11:11Z</time>
      </trkpt>
      <trkpt lat="45.79127" lon="3.71209">
        <ele>1132</ele>
        <time>2017-09-19T11:11:15Z</time>
      </trkpt>
      <trkpt lat="45.79125" lon="3.71191">
        <ele>1134</ele>
        <time>2017-09-19T11:11:24Z</time>
      </trkpt>
      <trkpt lat="45.79129" lon="3.71182">
        <ele>1133</ele>
        <time>2017-09-19T11:11:29Z</time>
      </trkpt>
      <trkpt lat="45.79129" lon="3.7118">
        <ele>1132</ele>
        <time>2017-09-19T11:11:30Z</time>
      </trkpt>
      <trkpt lat="45.7913" lon="3.71178">
        <ele>1132</ele>
        <time>2017-09-19T11:11:31Z</time>
      </trkpt>
      <trkpt lat="45.79134" lon="3.71168">
        <ele>1132</ele>
        <time>2017-09-19T11:11:37Z</time>
      </trkpt>
      <trkpt lat="45.79137" lon="3.7116">
        <ele>1131</ele>
        <time>2017-09-19T11:11:41Z</time>
      </trkpt>
      <trkpt lat="45.79138" lon="3.71158">
        <ele>1131</ele>
        <time>2017-09-19T11:11:42Z</time>
      </trkpt>
      <trkpt lat="45.79144" lon="3.71143">
        <ele>1130</ele>
        <time>2017-09-19T11:11:49Z</time>
      </trkpt>
      <trkpt lat="45.79146" lon="3.71132">
        <ele>1130</ele>
        <time>2017-09-19T11:11:54Z</time>
      </trkpt>
      <trkpt lat="45.79146" lon="3.71126">
        <ele>1130</ele>
        <time>2017-09-19T11:11:57Z</time>
      </trkpt>
      <trkpt lat="45.79145" lon="3.71119">
        <ele>1131</ele>
        <time>2017-09-19T11:12:01Z</time>
      </trkpt>
      <trkpt lat="45.7915" lon="3.71107">
        <ele>1130</ele>
        <time>2017-09-19T11:12:07Z</time>
      </trkpt>
      <trkpt lat="45.79154" lon="3.711">
        <ele>1128</ele>
        <time>2017-09-19T11:12:11Z</time>
      </trkpt>
      <trkpt lat="45.79157" lon="3.7109">
        <ele>1128</ele>
        <time>2017-09-19T11:12:16Z</time>
      </trkpt>
      <trkpt lat="45.79162" lon="3.7108">
        <ele>1126</ele>
        <time>2017-09-19T11:12:21Z</time>
      </trkpt>
      <trkpt lat="45.79162" lon="3.71068">
        <ele>1126</ele>
        <time>2017-09-19T11:12:26Z</time>
      </trkpt>
      <trkpt lat="45.79159" lon="3.71059">
        <ele>1126</ele>
        <time>2017-09-19T11:12:30Z</time>
      </trkpt>
      <trkpt lat="45.79162" lon="3.7105">
        <ele>1125</ele>
        <time>2017-09-19T11:12:35Z</time>
      </trkpt>
      <trkpt lat="45.79165" lon="3.71043">
        <ele>1124</ele>
        <time>2017-09-19T11:12:40Z</time>
      </trkpt>
      <trkpt lat="45.7917" lon="3.71033">
        <ele>1123</ele>
        <time>2017-09-19T11:12:45Z</time>
      </trkpt>
      <trkpt lat="45.7917" lon="3.71023">
        <ele>1122</ele>
        <time>2017-09-19T11:12:50Z</time>
      </trkpt>
      <trkpt lat="45.7917" lon="3.71019">
        <ele>1122</ele>
        <time>2017-09-19T11:12:52Z</time>
      </trkpt>
      <trkpt lat="45.79169" lon="3.71016">
        <ele>1121</ele>
        <time>2017-09-19T11:12:54Z</time>
      </trkpt>
      <trkpt lat="45.79168" lon="3.71011">
        <ele>1121</ele>
        <time>2017-09-19T11:12:57Z</time>
      </trkpt>
      <trkpt lat="45.79167" lon="3.71005">
        <ele>1120</ele>
        <time>2017-09-19T11:13:02Z</time>
      </trkpt>
      <trkpt lat="45.79167" lon="3.71004">
        <ele>1120</ele>
        <time>2017-09-19T11:13:03Z</time>
      </trkpt>
      <trkpt lat="45.7917" lon="3.70996">
        <ele>1118</ele>
        <time>2017-09-19T11:13:08Z</time>
      </trkpt>
      <trkpt lat="45.7917" lon="3.70995">
        <ele>1118</ele>
        <time>2017-09-19T11:13:09Z</time>
      </trkpt>
      <trkpt lat="45.79167" lon="3.70989">
        <ele>1118</ele>
        <time>2017-09-19T11:13:12Z</time>
      </trkpt>
      <trkpt lat="45.79163" lon="3.70978">
        <ele>1118</ele>
        <time>2017-09-19T11:13:19Z</time>
      </trkpt>
      <trkpt lat="45.79162" lon="3.70974">
        <ele>1117</ele>
        <time>2017-09-19T11:13:25Z</time>
      </trkpt>
      <trkpt lat="45.79163" lon="3.70973">
        <ele>1117</ele>
        <time>2017-09-19T11:13:34Z</time>
      </trkpt>
      <trkpt lat="45.79162" lon="3.70978">
        <ele>1118</ele>
        <time>2017-09-19T11:13:39Z</time>
      </trkpt>
      <trkpt lat="45.79163" lon="3.70973">
        <ele>1117</ele>
        <time>2017-09-19T11:13:53Z</time>
      </trkpt>
      <trkpt lat="45.79162" lon="3.70965">
        <ele>1116</ele>
        <time>2017-09-19T11:14:15Z</time>
      </trkpt>
      <trkpt lat="45.7916" lon="3.70958">
        <ele>1116</ele>
        <time>2017-09-19T11:14:21Z</time>
      </trkpt>
      <trkpt lat="45.7916" lon="3.70957">
        <ele>1116</ele>
        <time>2017-09-19T11:14:22Z</time>
      </trkpt>
      <trkpt lat="45.79154" lon="3.70945">
        <ele>1116</ele>
        <time>2017-09-19T11:14:29Z</time>
      </trkpt>
      <trkpt lat="45.79153" lon="3.70943">
        <ele>1116</ele>
        <time>2017-09-19T11:14:30Z</time>
      </trkpt>
      <trkpt lat="45.7915" lon="3.70937">
        <ele>1116</ele>
        <time>2017-09-19T11:14:36Z</time>
      </trkpt>
      <trkpt lat="45.79147" lon="3.70926">
        <ele>1115</ele>
        <time>2017-09-19T11:14:42Z</time>
      </trkpt>
      <trkpt lat="45.79145" lon="3.70917">
        <ele>1114</ele>
        <time>2017-09-19T11:14:47Z</time>
      </trkpt>
      <trkpt lat="45.79144" lon="3.70913">
        <ele>1114</ele>
        <time>2017-09-19T11:14:49Z</time>
      </trkpt>
      <trkpt lat="45.79144" lon="3.7091">
        <ele>1113</ele>
        <time>2017-09-19T11:14:51Z</time>
      </trkpt>
      <trkpt lat="45.79144" lon="3.70903">
        <ele>1112</ele>
        <time>2017-09-19T11:14:55Z</time>
      </trkpt>
      <trkpt lat="45.79144" lon="3.70899">
        <ele>1111</ele>
        <time>2017-09-19T11:14:58Z</time>
      </trkpt>
      <trkpt lat="45.79143" lon="3.70893">
        <ele>1111</ele>
        <time>2017-09-19T11:15:03Z</time>
      </trkpt>
      <trkpt lat="45.79144" lon="3.70886">
        <ele>1109</ele>
        <time>2017-09-19T11:15:08Z</time>
      </trkpt>
      <trkpt lat="45.79145" lon="3.70882">
        <ele>1109</ele>
        <time>2017-09-19T11:15:11Z</time>
      </trkpt>
      <trkpt lat="45.79146" lon="3.70874">
        <ele>1107</ele>
        <time>2017-09-19T11:15:17Z</time>
      </trkpt>
      <trkpt lat="45.79146" lon="3.70872">
        <ele>1107</ele>
        <time>2017-09-19T11:15:18Z</time>
      </trkpt>
      <trkpt lat="45.79147" lon="3.70869">
        <ele>1106</ele>
        <time>2017-09-19T11:15:21Z</time>
      </trkpt>
      <trkpt lat="45.79147" lon="3.70865">
        <ele>1105</ele>
        <time>2017-09-19T11:15:24Z</time>
      </trkpt>
      <trkpt lat="45.79146" lon="3.70859">
        <ele>1105</ele>
        <time>2017-09-19T11:15:28Z</time>
      </trkpt>
      <trkpt lat="45.79148" lon="3.70853">
        <ele>1104</ele>
        <time>2017-09-19T11:15:33Z</time>
      </trkpt>
      <trkpt lat="45.79147" lon="3.7085">
        <ele>1103</ele>
        <time>2017-09-19T11:15:36Z</time>
      </trkpt>
      <trkpt lat="45.79145" lon="3.7084">
        <ele>1103</ele>
        <time>2017-09-19T11:15:41Z</time>
      </trkpt>
      <trkpt lat="45.79144" lon="3.70838">
        <ele>1103</ele>
        <time>2017-09-19T11:15:42Z</time>
      </trkpt>
      <trkpt lat="45.79143" lon="3.70836">
        <ele>1103</ele>
        <time>2017-09-19T11:15:43Z</time>
      </trkpt>
      <trkpt lat="45.79141" lon="3.70833">
        <ele>1102</ele>
        <time>2017-09-19T11:15:46Z</time>
      </trkpt>
      <trkpt lat="45.79142" lon="3.70827">
        <ele>1102</ele>
        <time>2017-09-19T11:15:50Z</time>
      </trkpt>
      <trkpt lat="45.79141" lon="3.70824">
        <ele>1101</ele>
        <time>2017-09-19T11:15:53Z</time>
      </trkpt>
      <trkpt lat="45.79143" lon="3.70816">
        <ele>1100</ele>
        <time>2017-09-19T11:15:58Z</time>
      </trkpt>
      <trkpt lat="45.79144" lon="3.70815">
        <ele>1100</ele>
        <time>2017-09-19T11:15:59Z</time>
      </trkpt>
      <trkpt lat="45.79146" lon="3.70809">
        <ele>1099</ele>
        <time>2017-09-19T11:16:02Z</time>
      </trkpt>
      <trkpt lat="45.79147" lon="3.70806">
        <ele>1098</ele>
        <time>2017-09-19T11:16:04Z</time>
      </trkpt>
      <trkpt lat="45.79148" lon="3.70802">
        <ele>1097</ele>
        <time>2017-09-19T11:16:08Z</time>
      </trkpt>
      <trkpt lat="45.79149" lon="3.70795">
        <ele>1096</ele>
        <time>2017-09-19T11:16:12Z</time>
      </trkpt>
      <trkpt lat="45.7915" lon="3.70792">
        <ele>1096</ele>
        <time>2017-09-19T11:16:14Z</time>
      </trkpt>
      <trkpt lat="45.79152" lon="3.70786">
        <ele>1095</ele>
        <time>2017-09-19T11:16:19Z</time>
      </trkpt>
      <trkpt lat="45.79152" lon="3.70784">
        <ele>1094</ele>
        <time>2017-09-19T11:16:20Z</time>
      </trkpt>
      <trkpt lat="45.79158" lon="3.70779">
        <ele>1093</ele>
        <time>2017-09-19T11:16:26Z</time>
      </trkpt>
      <trkpt lat="45.79158" lon="3.70778">
        <ele>1093</ele>
        <time>2017-09-19T11:16:27Z</time>
      </trkpt>
      <trkpt lat="45.79162" lon="3.70772">
        <ele>1091</ele>
        <time>2017-09-19T11:16:31Z</time>
      </trkpt>
      <trkpt lat="45.79164" lon="3.70768">
        <ele>1090</ele>
        <time>2017-09-19T11:16:34Z</time>
      </trkpt>
      <trkpt lat="45.79166" lon="3.70759">
        <ele>1089</ele>
        <time>2017-09-19T11:16:39Z</time>
      </trkpt>
      <trkpt lat="45.79166" lon="3.70757">
        <ele>1089</ele>
        <time>2017-09-19T11:16:40Z</time>
      </trkpt>
      <trkpt lat="45.79166" lon="3.70748">
        <ele>1088</ele>
        <time>2017-09-19T11:16:45Z</time>
      </trkpt>
      <trkpt lat="45.79166" lon="3.7074">
        <ele>1088</ele>
        <time>2017-09-19T11:16:51Z</time>
      </trkpt>
      <trkpt lat="45.79166" lon="3.70739">
        <ele>1088</ele>
        <time>2017-09-19T11:16:52Z</time>
      </trkpt>
      <trkpt lat="45.79166" lon="3.70737">
        <ele>1088</ele>
        <time>2017-09-19T11:16:53Z</time>
      </trkpt>
      <trkpt lat="45.79165" lon="3.70731">
        <ele>1087</ele>
        <time>2017-09-19T11:16:57Z</time>
      </trkpt>
      <trkpt lat="45.79166" lon="3.70726">
        <ele>1087</ele>
        <time>2017-09-19T11:17:00Z</time>
      </trkpt>
      <trkpt lat="45.79166" lon="3.70726">
        <ele>1086</ele>
        <time>2017-09-19T11:17:11Z</time>
      </trkpt>
      <trkpt lat="45.79178" lon="3.70721">
        <ele>1084</ele>
        <time>2017-09-19T11:17:55Z</time>
      </trkpt>
      <trkpt lat="45.79178" lon="3.70717">
        <ele>1084</ele>
        <time>2017-09-19T11:18:13Z</time>
      </trkpt>
      <trkpt lat="45.7918" lon="3.70711">
        <ele>1084</ele>
        <time>2017-09-19T11:18:19Z</time>
      </trkpt>
      <trkpt lat="45.7918" lon="3.70707">
        <ele>1083</ele>
        <time>2017-09-19T11:18:23Z</time>
      </trkpt>
      <trkpt lat="45.79183" lon="3.70705">
        <ele>1083</ele>
        <time>2017-09-19T11:18:26Z</time>
      </trkpt>
      <trkpt lat="45.79187" lon="3.70699">
        <ele>1082</ele>
        <time>2017-09-19T11:18:31Z</time>
      </trkpt>
      <trkpt lat="45.79189" lon="3.70696">
        <ele>1082</ele>
        <time>2017-09-19T11:18:33Z</time>
      </trkpt>
      <trkpt lat="45.79194" lon="3.70691">
        <ele>1081</ele>
        <time>2017-09-19T11:18:38Z</time>
      </trkpt>
      <trkpt lat="45.79195" lon="3.7069">
        <ele>1081</ele>
        <time>2017-09-19T11:18:39Z</time>
      </trkpt>
      <trkpt lat="45.79196" lon="3.70689">
        <ele>1080</ele>
        <time>2017-09-19T11:18:40Z</time>
      </trkpt>
      <trkpt lat="45.79198" lon="3.70681">
        <ele>1079</ele>
        <time>2017-09-19T11:18:47Z</time>
      </trkpt>
      <trkpt lat="45.79199" lon="3.70673">
        <ele>1079</ele>
        <time>2017-09-19T11:18:52Z</time>
      </trkpt>
      <trkpt lat="45.79201" lon="3.70668">
        <ele>1078</ele>
        <time>2017-09-19T11:18:55Z</time>
      </trkpt>
      <trkpt lat="45.79201" lon="3.70656">
        <ele>1077</ele>
        <time>2017-09-19T11:19:01Z</time>
      </trkpt>
      <trkpt lat="45.79199" lon="3.7065">
        <ele>1076</ele>
        <time>2017-09-19T11:19:04Z</time>
      </trkpt>
      <trkpt lat="45.79194" lon="3.70634">
        <ele>1075</ele>
        <time>2017-09-19T11:19:17Z</time>
      </trkpt>
      <trkpt lat="45.79194" lon="3.70632">
        <ele>1075</ele>
        <time>2017-09-19T11:19:18Z</time>
      </trkpt>
      <trkpt lat="45.79194" lon="3.70628">
        <ele>1075</ele>
        <time>2017-09-19T11:19:20Z</time>
      </trkpt>
      <trkpt lat="45.79195" lon="3.70621">
        <ele>1074</ele>
        <time>2017-09-19T11:19:26Z</time>
      </trkpt>
      <trkpt lat="45.79198" lon="3.70615">
        <ele>1073</ele>
        <time>2017-09-19T11:19:31Z</time>
      </trkpt>
      <trkpt lat="45.792" lon="3.70611">
        <ele>1072</ele>
        <time>2017-09-19T11:19:36Z</time>
      </trkpt>
      <trkpt lat="45.792" lon="3.70602">
        <ele>1071</ele>
        <time>2017-09-19T11:19:41Z</time>
      </trkpt>
      <trkpt lat="45.79201" lon="3.70593">
        <ele>1071</ele>
        <time>2017-09-19T11:19:47Z</time>
      </trkpt>
      <trkpt lat="45.79199" lon="3.70586">
        <ele>1071</ele>
        <time>2017-09-19T11:19:52Z</time>
      </trkpt>
      <trkpt lat="45.79198" lon="3.70581">
        <ele>1071</ele>
        <time>2017-09-19T11:19:56Z</time>
      </trkpt>
      <trkpt lat="45.79197" lon="3.70573">
        <ele>1071</ele>
        <time>2017-09-19T11:20:00Z</time>
      </trkpt>
      <trkpt lat="45.79197" lon="3.70571">
        <ele>1071</ele>
        <time>2017-09-19T11:20:01Z</time>
      </trkpt>
      <trkpt lat="45.79197" lon="3.70568">
        <ele>1070</ele>
        <time>2017-09-19T11:20:03Z</time>
      </trkpt>
      <trkpt lat="45.79194" lon="3.70559">
        <ele>1071</ele>
        <time>2017-09-19T11:20:09Z</time>
      </trkpt>
      <trkpt lat="45.79191" lon="3.70551">
        <ele>1071</ele>
        <time>2017-09-19T11:20:14Z</time>
      </trkpt>
      <trkpt lat="45.79187" lon="3.70539">
        <ele>1071</ele>
        <time>2017-09-19T11:20:20Z</time>
      </trkpt>
      <trkpt lat="45.79186" lon="3.70536">
        <ele>1071</ele>
        <time>2017-09-19T11:20:22Z</time>
      </trkpt>
      <trkpt lat="45.79185" lon="3.70528">
        <ele>1071</ele>
        <time>2017-09-19T11:20:26Z</time>
      </trkpt>
      <trkpt lat="45.79184" lon="3.70525">
        <ele>1071</ele>
        <time>2017-09-19T11:20:29Z</time>
      </trkpt>
      <trkpt lat="45.79184" lon="3.70522">
        <ele>1071</ele>
        <time>2017-09-19T11:20:31Z</time>
      </trkpt>
      <trkpt lat="45.79185" lon="3.70515">
        <ele>1070</ele>
        <time>2017-09-19T11:20:37Z</time>
      </trkpt>
      <trkpt lat="45.79185" lon="3.70514">
        <ele>1070</ele>
        <time>2017-09-19T11:20:38Z</time>
      </trkpt>
      <trkpt lat="45.79184" lon="3.70512">
        <ele>1071</ele>
        <time>2017-09-19T11:20:39Z</time>
      </trkpt>
      <trkpt lat="45.79183" lon="3.70509">
        <ele>1071</ele>
        <time>2017-09-19T11:20:42Z</time>
      </trkpt>
      <trkpt lat="45.7918" lon="3.70498">
        <ele>1071</ele>
        <time>2017-09-19T11:20:49Z</time>
      </trkpt>
      <trkpt lat="45.79179" lon="3.70496">
        <ele>1071</ele>
        <time>2017-09-19T11:20:50Z</time>
      </trkpt>
      <trkpt lat="45.79178" lon="3.70493">
        <ele>1071</ele>
        <time>2017-09-19T11:20:52Z</time>
      </trkpt>
      <trkpt lat="45.79176" lon="3.70487">
        <ele>1071</ele>
        <time>2017-09-19T11:20:57Z</time>
      </trkpt>
      <trkpt lat="45.79171" lon="3.7048">
        <ele>1071</ele>
        <time>2017-09-19T11:21:02Z</time>
      </trkpt>
      <trkpt lat="45.79169" lon="3.70474">
        <ele>1071</ele>
        <time>2017-09-19T11:21:06Z</time>
      </trkpt>
      <trkpt lat="45.79165" lon="3.70458">
        <ele>1071</ele>
        <time>2017-09-19T11:21:17Z</time>
      </trkpt>
      <trkpt lat="45.79162" lon="3.70449">
        <ele>1071</ele>
        <time>2017-09-19T11:21:22Z</time>
      </trkpt>
      <trkpt lat="45.79162" lon="3.70442">
        <ele>1071</ele>
        <time>2017-09-19T11:21:27Z</time>
      </trkpt>
      <trkpt lat="45.79162" lon="3.70439">
        <ele>1071</ele>
        <time>2017-09-19T11:21:29Z</time>
      </trkpt>
      <trkpt lat="45.79161" lon="3.70436">
        <ele>1070</ele>
        <time>2017-09-19T11:21:32Z</time>
      </trkpt>
      <trkpt lat="45.79157" lon="3.7043">
        <ele>1070</ele>
        <time>2017-09-19T11:21:35Z</time>
      </trkpt>
      <trkpt lat="45.79155" lon="3.70422">
        <ele>1070</ele>
        <time>2017-09-19T11:21:42Z</time>
      </trkpt>
      <trkpt lat="45.79154" lon="3.70415">
        <ele>1069</ele>
        <time>2017-09-19T11:21:47Z</time>
      </trkpt>
      <trkpt lat="45.79153" lon="3.70413">
        <ele>1069</ele>
        <time>2017-09-19T11:21:49Z</time>
      </trkpt>
      <trkpt lat="45.79151" lon="3.70405">
        <ele>1069</ele>
        <time>2017-09-19T11:21:55Z</time>
      </trkpt>
      <trkpt lat="45.79152" lon="3.704">
        <ele>1068</ele>
        <time>2017-09-19T11:21:59Z</time>
      </trkpt>
      <trkpt lat="45.7915" lon="3.70396">
        <ele>1068</ele>
        <time>2017-09-19T11:22:02Z</time>
      </trkpt>
      <trkpt lat="45.79147" lon="3.70391">
        <ele>1068</ele>
        <time>2017-09-19T11:22:06Z</time>
      </trkpt>
      <trkpt lat="45.79145" lon="3.70383">
        <ele>1068</ele>
        <time>2017-09-19T11:22:11Z</time>
      </trkpt>
      <trkpt lat="45.79145" lon="3.7038">
        <ele>1067</ele>
        <time>2017-09-19T11:22:13Z</time>
      </trkpt>
      <trkpt lat="45.79143" lon="3.70376">
        <ele>1067</ele>
        <time>2017-09-19T11:22:15Z</time>
      </trkpt>
      <trkpt lat="45.79139" lon="3.70369">
        <ele>1067</ele>
        <time>2017-09-19T11:22:21Z</time>
      </trkpt>
      <trkpt lat="45.79138" lon="3.70364">
        <ele>1067</ele>
        <time>2017-09-19T11:22:24Z</time>
      </trkpt>
      <trkpt lat="45.79138" lon="3.7036">
        <ele>1066</ele>
        <time>2017-09-19T11:22:27Z</time>
      </trkpt>
      <trkpt lat="45.79137" lon="3.70351">
        <ele>1066</ele>
        <time>2017-09-19T11:22:33Z</time>
      </trkpt>
      <trkpt lat="45.79137" lon="3.7035">
        <ele>1065</ele>
        <time>2017-09-19T11:22:34Z</time>
      </trkpt>
      <trkpt lat="45.79137" lon="3.70348">
        <ele>1065</ele>
        <time>2017-09-19T11:22:35Z</time>
      </trkpt>
      <trkpt lat="45.79137" lon="3.70342">
        <ele>1064</ele>
        <time>2017-09-19T11:22:40Z</time>
      </trkpt>
      <trkpt lat="45.79136" lon="3.7034">
        <ele>1064</ele>
        <time>2017-09-19T11:22:41Z</time>
      </trkpt>
      <trkpt lat="45.79135" lon="3.70338">
        <ele>1064</ele>
        <time>2017-09-19T11:22:43Z</time>
      </trkpt>
      <trkpt lat="45.79135" lon="3.70331">
        <ele>1063</ele>
        <time>2017-09-19T11:22:48Z</time>
      </trkpt>
      <trkpt lat="45.79133" lon="3.70322">
        <ele>1062</ele>
        <time>2017-09-19T11:22:53Z</time>
      </trkpt>
      <trkpt lat="45.79133" lon="3.70318">
        <ele>1062</ele>
        <time>2017-09-19T11:22:55Z</time>
      </trkpt>
      <trkpt lat="45.79133" lon="3.70314">
        <ele>1062</ele>
        <time>2017-09-19T11:22:57Z</time>
      </trkpt>
      <trkpt lat="45.79132" lon="3.70307">
        <ele>1061</ele>
        <time>2017-09-19T11:23:01Z</time>
      </trkpt>
      <trkpt lat="45.79132" lon="3.70304">
        <ele>1060</ele>
        <time>2017-09-19T11:23:03Z</time>
      </trkpt>
      <trkpt lat="45.7913" lon="3.70299">
        <ele>1060</ele>
        <time>2017-09-19T11:23:06Z</time>
      </trkpt>
      <trkpt lat="45.79127" lon="3.70292">
        <ele>1060</ele>
        <time>2017-09-19T11:23:12Z</time>
      </trkpt>
      <trkpt lat="45.79126" lon="3.70291">
        <ele>1060</ele>
        <time>2017-09-19T11:23:13Z</time>
      </trkpt>
      <trkpt lat="45.79125" lon="3.70289">
        <ele>1060</ele>
        <time>2017-09-19T11:23:14Z</time>
      </trkpt>
      <trkpt lat="45.79119" lon="3.70277">
        <ele>1059</ele>
        <time>2017-09-19T11:23:22Z</time>
      </trkpt>
      <trkpt lat="45.79117" lon="3.70272">
        <ele>1059</ele>
        <time>2017-09-19T11:23:26Z</time>
      </trkpt>
      <trkpt lat="45.79115" lon="3.7027">
        <ele>1059</ele>
        <time>2017-09-19T11:23:27Z</time>
      </trkpt>
      <trkpt lat="45.79112" lon="3.70262">
        <ele>1058</ele>
        <time>2017-09-19T11:23:32Z</time>
      </trkpt>
      <trkpt lat="45.79112" lon="3.70254">
        <ele>1057</ele>
        <time>2017-09-19T11:23:36Z</time>
      </trkpt>
      <trkpt lat="45.79112" lon="3.70251">
        <ele>1057</ele>
        <time>2017-09-19T11:23:38Z</time>
      </trkpt>
      <trkpt lat="45.79111" lon="3.7025">
        <ele>1057</ele>
        <time>2017-09-19T11:23:40Z</time>
      </trkpt>
      <trkpt lat="45.79111" lon="3.70245">
        <ele>1056</ele>
        <time>2017-09-19T11:23:43Z</time>
      </trkpt>
      <trkpt lat="45.79111" lon="3.70243">
        <ele>1056</ele>
        <time>2017-09-19T11:23:44Z</time>
      </trkpt>
      <trkpt lat="45.7911" lon="3.70242">
        <ele>1056</ele>
        <time>2017-09-19T11:23:45Z</time>
      </trkpt>
      <trkpt lat="45.79109" lon="3.70237">
        <ele>1055</ele>
        <time>2017-09-19T11:23:48Z</time>
      </trkpt>
      <trkpt lat="45.79108" lon="3.70234">
        <ele>1055</ele>
        <time>2017-09-19T11:23:50Z</time>
      </trkpt>
      <trkpt lat="45.79108" lon="3.70227">
        <ele>1054</ele>
        <time>2017-09-19T11:23:55Z</time>
      </trkpt>
      <trkpt lat="45.79107" lon="3.70223">
        <ele>1053</ele>
        <time>2017-09-19T11:23:57Z</time>
      </trkpt>
      <trkpt lat="45.79106" lon="3.70219">
        <ele>1053</ele>
        <time>2017-09-19T11:24:00Z</time>
      </trkpt>
      <trkpt lat="45.79105" lon="3.7021">
        <ele>1052</ele>
        <time>2017-09-19T11:24:07Z</time>
      </trkpt>
      <trkpt lat="45.79104" lon="3.70208">
        <ele>1052</ele>
        <time>2017-09-19T11:24:09Z</time>
      </trkpt>
      <trkpt lat="45.79101" lon="3.70204">
        <ele>1052</ele>
        <time>2017-09-19T11:24:18Z</time>
      </trkpt>
      <trkpt lat="45.79096" lon="3.70193">
        <ele>1051</ele>
        <time>2017-09-19T11:24:25Z</time>
      </trkpt>
      <trkpt lat="45.79096" lon="3.70192">
        <ele>1051</ele>
        <time>2017-09-19T11:24:26Z</time>
      </trkpt>
      <trkpt lat="45.79096" lon="3.70184">
        <ele>1050</ele>
        <time>2017-09-19T11:24:31Z</time>
      </trkpt>
      <trkpt lat="45.79095" lon="3.70182">
        <ele>1050</ele>
        <time>2017-09-19T11:24:32Z</time>
      </trkpt>
      <trkpt lat="45.79095" lon="3.70178">
        <ele>1049</ele>
        <time>2017-09-19T11:24:35Z</time>
      </trkpt>
      <trkpt lat="45.79094" lon="3.70172">
        <ele>1049</ele>
        <time>2017-09-19T11:24:40Z</time>
      </trkpt>
      <trkpt lat="45.79092" lon="3.70166">
        <ele>1048</ele>
        <time>2017-09-19T11:24:48Z</time>
      </trkpt>
      <trkpt lat="45.7909" lon="3.70161">
        <ele>1048</ele>
        <time>2017-09-19T11:24:51Z</time>
      </trkpt>
      <trkpt lat="45.79087" lon="3.70154">
        <ele>1047</ele>
        <time>2017-09-19T11:24:56Z</time>
      </trkpt>
      <trkpt lat="45.79087" lon="3.70152">
        <ele>1047</ele>
        <time>2017-09-19T11:24:57Z</time>
      </trkpt>
      <trkpt lat="45.79086" lon="3.70147">
        <ele>1047</ele>
        <time>2017-09-19T11:25:01Z</time>
      </trkpt>
      <trkpt lat="45.79083" lon="3.70139">
        <ele>1046</ele>
        <time>2017-09-19T11:25:06Z</time>
      </trkpt>
      <trkpt lat="45.79083" lon="3.70134">
        <ele>1046</ele>
        <time>2017-09-19T11:25:10Z</time>
      </trkpt>
      <trkpt lat="45.79083" lon="3.7013">
        <ele>1045</ele>
        <time>2017-09-19T11:25:13Z</time>
      </trkpt>
      <trkpt lat="45.79083" lon="3.70127">
        <ele>1045</ele>
        <time>2017-09-19T11:25:15Z</time>
      </trkpt>
      <trkpt lat="45.79083" lon="3.70126">
        <ele>1044</ele>
        <time>2017-09-19T11:25:16Z</time>
      </trkpt>
      <trkpt lat="45.79084" lon="3.70122">
        <ele>1044</ele>
        <time>2017-09-19T11:25:20Z</time>
      </trkpt>
      <trkpt lat="45.79081" lon="3.70114">
        <ele>1043</ele>
        <time>2017-09-19T11:25:27Z</time>
      </trkpt>
      <trkpt lat="45.79081" lon="3.70107">
        <ele>1042</ele>
        <time>2017-09-19T11:25:32Z</time>
      </trkpt>
      <trkpt lat="45.79081" lon="3.70105">
        <ele>1042</ele>
        <time>2017-09-19T11:25:33Z</time>
      </trkpt>
      <trkpt lat="45.7908" lon="3.70103">
        <ele>1042</ele>
        <time>2017-09-19T11:25:34Z</time>
      </trkpt>
      <trkpt lat="45.79078" lon="3.70096">
        <ele>1041</ele>
        <time>2017-09-19T11:25:38Z</time>
      </trkpt>
      <trkpt lat="45.79077" lon="3.70087">
        <ele>1041</ele>
        <time>2017-09-19T11:25:43Z</time>
      </trkpt>
      <trkpt lat="45.79078" lon="3.70085">
        <ele>1040</ele>
        <time>2017-09-19T11:25:45Z</time>
      </trkpt>
      <trkpt lat="45.79077" lon="3.70084">
        <ele>1040</ele>
        <time>2017-09-19T11:25:47Z</time>
      </trkpt>
      <trkpt lat="45.79076" lon="3.70077">
        <ele>1039</ele>
        <time>2017-09-19T11:25:52Z</time>
      </trkpt>
      <trkpt lat="45.79075" lon="3.70076">
        <ele>1039</ele>
        <time>2017-09-19T11:25:53Z</time>
      </trkpt>
      <trkpt lat="45.79075" lon="3.70075">
        <ele>1039</ele>
        <time>2017-09-19T11:25:54Z</time>
      </trkpt>
      <trkpt lat="45.79072" lon="3.70068">
        <ele>1039</ele>
        <time>2017-09-19T11:25:58Z</time>
      </trkpt>
      <trkpt lat="45.79071" lon="3.70065">
        <ele>1039</ele>
        <time>2017-09-19T11:26:00Z</time>
      </trkpt>
      <trkpt lat="45.7907" lon="3.70061">
        <ele>1038</ele>
        <time>2017-09-19T11:26:04Z</time>
      </trkpt>
      <trkpt lat="45.7907" lon="3.70056">
        <ele>1038</ele>
        <time>2017-09-19T11:26:09Z</time>
      </trkpt>
      <trkpt lat="45.7907" lon="3.70054">
        <ele>1037</ele>
        <time>2017-09-19T11:26:10Z</time>
      </trkpt>
      <trkpt lat="45.7907" lon="3.70045">
        <ele>1036</ele>
        <time>2017-09-19T11:26:16Z</time>
      </trkpt>
      <trkpt lat="45.7907" lon="3.70043">
        <ele>1036</ele>
        <time>2017-09-19T11:26:17Z</time>
      </trkpt>
      <trkpt lat="45.79069" lon="3.70039">
        <ele>1036</ele>
        <time>2017-09-19T11:26:19Z</time>
      </trkpt>
      <trkpt lat="45.79067" lon="3.70031">
        <ele>1035</ele>
        <time>2017-09-19T11:26:24Z</time>
      </trkpt>
      <trkpt lat="45.79062" lon="3.70018">
        <ele>1034</ele>
        <time>2017-09-19T11:26:31Z</time>
      </trkpt>
      <trkpt lat="45.7906" lon="3.70007">
        <ele>1033</ele>
        <time>2017-09-19T11:26:37Z</time>
      </trkpt>
      <trkpt lat="45.79058" lon="3.69997">
        <ele>1032</ele>
        <time>2017-09-19T11:26:43Z</time>
      </trkpt>
      <trkpt lat="45.79058" lon="3.69996">
        <ele>1032</ele>
        <time>2017-09-19T11:26:44Z</time>
      </trkpt>
      <trkpt lat="45.79058" lon="3.69995">
        <ele>1032</ele>
        <time>2017-09-19T11:26:45Z</time>
      </trkpt>
      <trkpt lat="45.79054" lon="3.69986">
        <ele>1032</ele>
        <time>2017-09-19T11:26:51Z</time>
      </trkpt>
      <trkpt lat="45.79053" lon="3.69985">
        <ele>1032</ele>
        <time>2017-09-19T11:26:52Z</time>
      </trkpt>
      <trkpt lat="45.79052" lon="3.69981">
        <ele>1031</ele>
        <time>2017-09-19T11:26:55Z</time>
      </trkpt>
      <trkpt lat="45.79046" lon="3.69973">
        <ele>1031</ele>
        <time>2017-09-19T11:27:02Z</time>
      </trkpt>
      <trkpt lat="45.79045" lon="3.69971">
        <ele>1031</ele>
        <time>2017-09-19T11:27:03Z</time>
      </trkpt>
      <trkpt lat="45.79045" lon="3.6997">
        <ele>1030</ele>
        <time>2017-09-19T11:27:04Z</time>
      </trkpt>
      <trkpt lat="45.79044" lon="3.69969">
        <ele>1030</ele>
        <time>2017-09-19T11:27:05Z</time>
      </trkpt>
      <trkpt lat="45.7904" lon="3.69959">
        <ele>1030</ele>
        <time>2017-09-19T11:27:11Z</time>
      </trkpt>
      <trkpt lat="45.79037" lon="3.69952">
        <ele>1029</ele>
        <time>2017-09-19T11:27:15Z</time>
      </trkpt>
      <trkpt lat="45.79036" lon="3.6995">
        <ele>1029</ele>
        <time>2017-09-19T11:27:16Z</time>
      </trkpt>
      <trkpt lat="45.79036" lon="3.69948">
        <ele>1029</ele>
        <time>2017-09-19T11:27:19Z</time>
      </trkpt>
      <trkpt lat="45.79031" lon="3.69939">
        <ele>1028</ele>
        <time>2017-09-19T11:27:23Z</time>
      </trkpt>
      <trkpt lat="45.79026" lon="3.69927">
        <ele>1027</ele>
        <time>2017-09-19T11:27:31Z</time>
      </trkpt>
      <trkpt lat="45.7902" lon="3.69917">
        <ele>1026</ele>
        <time>2017-09-19T11:27:36Z</time>
      </trkpt>
      <trkpt lat="45.79019" lon="3.69916">
        <ele>1026</ele>
        <time>2017-09-19T11:27:37Z</time>
      </trkpt>
      <trkpt lat="45.79018" lon="3.69915">
        <ele>1026</ele>
        <time>2017-09-19T11:27:38Z</time>
      </trkpt>
      <trkpt lat="45.79017" lon="3.69911">
        <ele>1025</ele>
        <time>2017-09-19T11:27:47Z</time>
      </trkpt>
      <trkpt lat="45.79017" lon="3.6991">
        <ele>1025</ele>
        <time>2017-09-19T11:27:56Z</time>
      </trkpt>
      <trkpt lat="45.79016" lon="3.6991">
        <ele>1025</ele>
        <time>2017-09-19T11:28:01Z</time>
      </trkpt>
      <trkpt lat="45.79017" lon="3.69911">
        <ele>1025</ele>
        <time>2017-09-19T11:28:09Z</time>
      </trkpt>
      <trkpt lat="45.79017" lon="3.6991">
        <ele>1025</ele>
        <time>2017-09-19T11:28:15Z</time>
      </trkpt>
      <trkpt lat="45.79015" lon="3.69908">
        <ele>1025</ele>
        <time>2017-09-19T11:28:23Z</time>
      </trkpt>
      <trkpt lat="45.7901" lon="3.69898">
        <ele>1024</ele>
        <time>2017-09-19T11:29:19Z</time>
      </trkpt>
      <trkpt lat="45.79017" lon="3.69905">
        <ele>1025</ele>
        <time>2017-09-19T11:31:16Z</time>
      </trkpt>
      <trkpt lat="45.79018" lon="3.69914">
        <ele>1026</ele>
        <time>2017-09-19T11:35:48Z</time>
      </trkpt>
      <trkpt lat="45.79018" lon="3.69914">
        <ele>1026</ele>
        <time>2017-09-19T11:35:49Z</time>
      </trkpt>
      <trkpt lat="45.79027" lon="3.69904">
        <ele>1024</ele>
        <time>2017-09-19T11:53:27Z</time>
      </trkpt>
      <trkpt lat="45.79026" lon="3.69905">
        <ele>1024</ele>
        <time>2017-09-19T11:53:30Z</time>
      </trkpt>
      <trkpt lat="45.79028" lon="3.69903">
        <ele>1024</ele>
        <time>2017-09-19T11:53:36Z</time>
      </trkpt>
      <trkpt lat="45.79032" lon="3.69903">
        <ele>1024</ele>
        <time>2017-09-19T11:53:49Z</time>
      </trkpt>
      <trkpt lat="45.79042" lon="3.69902">
        <ele>1023</ele>
        <time>2017-09-19T11:53:58Z</time>
      </trkpt>
      <trkpt lat="45.79051" lon="3.69903">
        <ele>1023</ele>
        <time>2017-09-19T11:54:05Z</time>
      </trkpt>
      <trkpt lat="45.7906" lon="3.699">
        <ele>1021</ele>
        <time>2017-09-19T11:54:13Z</time>
      </trkpt>
      <trkpt lat="45.79061" lon="3.69899">
        <ele>1021</ele>
        <time>2017-09-19T11:54:14Z</time>
      </trkpt>
      <trkpt lat="45.79057" lon="3.69896">
        <ele>1021</ele>
        <time>2017-09-19T11:54:21Z</time>
      </trkpt>
      <trkpt lat="45.79046" lon="3.69891">
        <ele>1022</ele>
        <time>2017-09-19T11:54:29Z</time>
      </trkpt>
      <trkpt lat="45.79038" lon="3.69887">
        <ele>1022</ele>
        <time>2017-09-19T11:54:35Z</time>
      </trkpt>
      <trkpt lat="45.7904" lon="3.69884">
        <ele>1021</ele>
        <time>2017-09-19T11:54:40Z</time>
      </trkpt>
      <trkpt lat="45.79047" lon="3.69888">
        <ele>1021</ele>
        <time>2017-09-19T11:54:46Z</time>
      </trkpt>
      <trkpt lat="45.7905" lon="3.6989">
        <ele>1021</ele>
        <time>2017-09-19T11:54:49Z</time>
      </trkpt>
      <trkpt lat="45.79058" lon="3.69892">
        <ele>1021</ele>
        <time>2017-09-19T11:54:55Z</time>
      </trkpt>
      <trkpt lat="45.79063" lon="3.69893">
        <ele>1020</ele>
        <time>2017-09-19T11:55:02Z</time>
      </trkpt>
      <trkpt lat="45.7907" lon="3.69894">
        <ele>1020</ele>
        <time>2017-09-19T11:55:08Z</time>
      </trkpt>
      <trkpt lat="45.79076" lon="3.69897">
        <ele>1019</ele>
        <time>2017-09-19T11:55:12Z</time>
      </trkpt>
      <trkpt lat="45.79081" lon="3.69899">
        <ele>1019</ele>
        <time>2017-09-19T11:55:16Z</time>
      </trkpt>
      <trkpt lat="45.79084" lon="3.69899">
        <ele>1018</ele>
        <time>2017-09-19T11:55:19Z</time>
      </trkpt>
      <trkpt lat="45.79089" lon="3.69897">
        <ele>1017</ele>
        <time>2017-09-19T11:55:23Z</time>
      </trkpt>
      <trkpt lat="45.79103" lon="3.69899">
        <ele>1016</ele>
        <time>2017-09-19T11:55:30Z</time>
      </trkpt>
      <trkpt lat="45.79115" lon="3.69901">
        <ele>1015</ele>
        <time>2017-09-19T11:55:37Z</time>
      </trkpt>
      <trkpt lat="45.79122" lon="3.69905">
        <ele>1014</ele>
        <time>2017-09-19T11:55:43Z</time>
      </trkpt>
      <trkpt lat="45.79129" lon="3.6991">
        <ele>1014</ele>
        <time>2017-09-19T11:55:50Z</time>
      </trkpt>
      <trkpt lat="45.79138" lon="3.69916">
        <ele>1013</ele>
        <time>2017-09-19T11:55:58Z</time>
      </trkpt>
      <trkpt lat="45.79143" lon="3.69919">
        <ele>1013</ele>
        <time>2017-09-19T11:56:01Z</time>
      </trkpt>
      <trkpt lat="45.79153" lon="3.69926">
        <ele>1012</ele>
        <time>2017-09-19T11:56:09Z</time>
      </trkpt>
      <trkpt lat="45.7916" lon="3.69929">
        <ele>1011</ele>
        <time>2017-09-19T11:56:14Z</time>
      </trkpt>
      <trkpt lat="45.79161" lon="3.69929">
        <ele>1011</ele>
        <time>2017-09-19T11:56:15Z</time>
      </trkpt>
      <trkpt lat="45.79172" lon="3.69935">
        <ele>1010</ele>
        <time>2017-09-19T11:56:23Z</time>
      </trkpt>
      <trkpt lat="45.79173" lon="3.69936">
        <ele>1010</ele>
        <time>2017-09-19T11:56:24Z</time>
      </trkpt>
      <trkpt lat="45.79183" lon="3.69938">
        <ele>1009</ele>
        <time>2017-09-19T11:56:32Z</time>
      </trkpt>
      <trkpt lat="45.79184" lon="3.69938">
        <ele>1009</ele>
        <time>2017-09-19T11:56:33Z</time>
      </trkpt>
      <trkpt lat="45.79192" lon="3.6994">
        <ele>1008</ele>
        <time>2017-09-19T11:56:40Z</time>
      </trkpt>
      <trkpt lat="45.792" lon="3.69942">
        <ele>1007</ele>
        <time>2017-09-19T11:56:45Z</time>
      </trkpt>
      <trkpt lat="45.79208" lon="3.69944">
        <ele>1006</ele>
        <time>2017-09-19T11:56:51Z</time>
      </trkpt>
      <trkpt lat="45.79216" lon="3.69947">
        <ele>1005</ele>
        <time>2017-09-19T11:56:58Z</time>
      </trkpt>
      <trkpt lat="45.79219" lon="3.69948">
        <ele>1005</ele>
        <time>2017-09-19T11:57:01Z</time>
      </trkpt>
      <trkpt lat="45.79232" lon="3.6995">
        <ele>1002</ele>
        <time>2017-09-19T11:57:11Z</time>
      </trkpt>
      <trkpt lat="45.7924" lon="3.6995">
        <ele>1001</ele>
        <time>2017-09-19T11:57:17Z</time>
      </trkpt>
      <trkpt lat="45.79248" lon="3.69951">
        <ele>999</ele>
        <time>2017-09-19T11:57:24Z</time>
      </trkpt>
      <trkpt lat="45.79257" lon="3.69955">
        <ele>998</ele>
        <time>2017-09-19T11:57:31Z</time>
      </trkpt>
      <trkpt lat="45.7926" lon="3.69957">
        <ele>997</ele>
        <time>2017-09-19T11:57:33Z</time>
      </trkpt>
      <trkpt lat="45.79268" lon="3.69963">
        <ele>996</ele>
        <time>2017-09-19T11:57:40Z</time>
      </trkpt>
      <trkpt lat="45.79274" lon="3.69969">
        <ele>995</ele>
        <time>2017-09-19T11:57:46Z</time>
      </trkpt>
      <trkpt lat="45.79279" lon="3.69971">
        <ele>995</ele>
        <time>2017-09-19T11:57:49Z</time>
      </trkpt>
      <trkpt lat="45.79283" lon="3.69973">
        <ele>994</ele>
        <time>2017-09-19T11:57:52Z</time>
      </trkpt>
      <trkpt lat="45.79289" lon="3.69979">
        <ele>993</ele>
        <time>2017-09-19T11:58:01Z</time>
      </trkpt>
      <trkpt lat="45.79294" lon="3.69983">
        <ele>992</ele>
        <time>2017-09-19T11:58:05Z</time>
      </trkpt>
      <trkpt lat="45.79307" lon="3.69991">
        <ele>991</ele>
        <time>2017-09-19T11:58:15Z</time>
      </trkpt>
      <trkpt lat="45.79311" lon="3.69994">
        <ele>990</ele>
        <time>2017-09-19T11:58:18Z</time>
      </trkpt>
      <trkpt lat="45.79318" lon="3.7">
        <ele>990</ele>
        <time>2017-09-19T11:58:24Z</time>
      </trkpt>
      <trkpt lat="45.79326" lon="3.70007">
        <ele>989</ele>
        <time>2017-09-19T11:58:31Z</time>
      </trkpt>
      <trkpt lat="45.79328" lon="3.70009">
        <ele>989</ele>
        <time>2017-09-19T11:58:33Z</time>
      </trkpt>
      <trkpt lat="45.79335" lon="3.70017">
        <ele>988</ele>
        <time>2017-09-19T11:58:40Z</time>
      </trkpt>
      <trkpt lat="45.79339" lon="3.7002">
        <ele>988</ele>
        <time>2017-09-19T11:58:43Z</time>
      </trkpt>
      <trkpt lat="45.79342" lon="3.70023">
        <ele>988</ele>
        <time>2017-09-19T11:58:46Z</time>
      </trkpt>
      <trkpt lat="45.79348" lon="3.70031">
        <ele>988</ele>
        <time>2017-09-19T11:58:53Z</time>
      </trkpt>
      <trkpt lat="45.79355" lon="3.70039">
        <ele>988</ele>
        <time>2017-09-19T11:59:00Z</time>
      </trkpt>
      <trkpt lat="45.79356" lon="3.7004">
        <ele>988</ele>
        <time>2017-09-19T11:59:01Z</time>
      </trkpt>
      <trkpt lat="45.79366" lon="3.70048">
        <ele>988</ele>
        <time>2017-09-19T11:59:09Z</time>
      </trkpt>
      <trkpt lat="45.79375" lon="3.70055">
        <ele>987</ele>
        <time>2017-09-19T11:59:16Z</time>
      </trkpt>
      <trkpt lat="45.79376" lon="3.70056">
        <ele>987</ele>
        <time>2017-09-19T11:59:17Z</time>
      </trkpt>
      <trkpt lat="45.79385" lon="3.70061">
        <ele>987</ele>
        <time>2017-09-19T11:59:24Z</time>
      </trkpt>
      <trkpt lat="45.79387" lon="3.70063">
        <ele>986</ele>
        <time>2017-09-19T11:59:26Z</time>
      </trkpt>
      <trkpt lat="45.79394" lon="3.70065">
        <ele>986</ele>
        <time>2017-09-19T11:59:31Z</time>
      </trkpt>
      <trkpt lat="45.79398" lon="3.70068">
        <ele>986</ele>
        <time>2017-09-19T11:59:35Z</time>
      </trkpt>
      <trkpt lat="45.79404" lon="3.7007">
        <ele>985</ele>
        <time>2017-09-19T11:59:40Z</time>
      </trkpt>
      <trkpt lat="45.79408" lon="3.70072">
        <ele>985</ele>
        <time>2017-09-19T11:59:44Z</time>
      </trkpt>
      <trkpt lat="45.79414" lon="3.70073">
        <ele>984</ele>
        <time>2017-09-19T11:59:49Z</time>
      </trkpt>
      <trkpt lat="45.7942" lon="3.70074">
        <ele>983</ele>
        <time>2017-09-19T11:59:53Z</time>
      </trkpt>
      <trkpt lat="45.79422" lon="3.70075">
        <ele>983</ele>
        <time>2017-09-19T11:59:55Z</time>
      </trkpt>
      <trkpt lat="45.79431" lon="3.70079">
        <ele>982</ele>
        <time>2017-09-19T12:00:02Z</time>
      </trkpt>
      <trkpt lat="45.79432" lon="3.70079">
        <ele>982</ele>
        <time>2017-09-19T12:00:03Z</time>
      </trkpt>
      <trkpt lat="45.79441" lon="3.70083">
        <ele>981</ele>
        <time>2017-09-19T12:00:10Z</time>
      </trkpt>
      <trkpt lat="45.79442" lon="3.70083">
        <ele>981</ele>
        <time>2017-09-19T12:00:11Z</time>
      </trkpt>
      <trkpt lat="45.79447" lon="3.70086">
        <ele>981</ele>
        <time>2017-09-19T12:00:16Z</time>
      </trkpt>
      <trkpt lat="45.79455" lon="3.70091">
        <ele>980</ele>
        <time>2017-09-19T12:00:23Z</time>
      </trkpt>
      <trkpt lat="45.79456" lon="3.70092">
        <ele>980</ele>
        <time>2017-09-19T12:00:24Z</time>
      </trkpt>
      <trkpt lat="45.7946" lon="3.70094">
        <ele>980</ele>
        <time>2017-09-19T12:00:28Z</time>
      </trkpt>
      <trkpt lat="45.79468" lon="3.70099">
        <ele>980</ele>
        <time>2017-09-19T12:00:34Z</time>
      </trkpt>
      <trkpt lat="45.79469" lon="3.701">
        <ele>980</ele>
        <time>2017-09-19T12:00:35Z</time>
      </trkpt>
      <trkpt lat="45.79475" lon="3.70106">
        <ele>979</ele>
        <time>2017-09-19T12:00:40Z</time>
      </trkpt>
      <trkpt lat="45.79478" lon="3.70108">
        <ele>979</ele>
        <time>2017-09-19T12:00:42Z</time>
      </trkpt>
      <trkpt lat="45.79483" lon="3.70115">
        <ele>978</ele>
        <time>2017-09-19T12:00:47Z</time>
      </trkpt>
      <trkpt lat="45.79489" lon="3.70125">
        <ele>978</ele>
        <time>2017-09-19T12:00:54Z</time>
      </trkpt>
      <trkpt lat="45.79489" lon="3.70126">
        <ele>978</ele>
        <time>2017-09-19T12:01:00Z</time>
      </trkpt>
      <trkpt lat="45.7949" lon="3.70128">
        <ele>978</ele>
        <time>2017-09-19T12:01:10Z</time>
      </trkpt>
      <trkpt lat="45.79494" lon="3.70136">
        <ele>977</ele>
        <time>2017-09-19T12:01:15Z</time>
      </trkpt>
      <trkpt lat="45.79496" lon="3.7014">
        <ele>977</ele>
        <time>2017-09-19T12:01:18Z</time>
      </trkpt>
      <trkpt lat="45.79503" lon="3.7015">
        <ele>977</ele>
        <time>2017-09-19T12:01:26Z</time>
      </trkpt>
      <trkpt lat="45.79504" lon="3.70151">
        <ele>977</ele>
        <time>2017-09-19T12:01:27Z</time>
      </trkpt>
      <trkpt lat="45.79511" lon="3.70159">
        <ele>976</ele>
        <time>2017-09-19T12:01:34Z</time>
      </trkpt>
      <trkpt lat="45.79516" lon="3.70167">
        <ele>975</ele>
        <time>2017-09-19T12:01:40Z</time>
      </trkpt>
      <trkpt lat="45.79517" lon="3.70168">
        <ele>975</ele>
        <time>2017-09-19T12:01:41Z</time>
      </trkpt>
      <trkpt lat="45.79524" lon="3.70177">
        <ele>975</ele>
        <time>2017-09-19T12:01:48Z</time>
      </trkpt>
      <trkpt lat="45.7953" lon="3.70185">
        <ele>974</ele>
        <time>2017-09-19T12:01:54Z</time>
      </trkpt>
      <trkpt lat="45.79531" lon="3.70186">
        <ele>974</ele>
        <time>2017-09-19T12:01:55Z</time>
      </trkpt>
      <trkpt lat="45.79536" lon="3.70194">
        <ele>973</ele>
        <time>2017-09-19T12:02:00Z</time>
      </trkpt>
      <trkpt lat="45.79542" lon="3.70205">
        <ele>973</ele>
        <time>2017-09-19T12:02:09Z</time>
      </trkpt>
      <trkpt lat="45.79547" lon="3.70216">
        <ele>972</ele>
        <time>2017-09-19T12:02:17Z</time>
      </trkpt>
      <trkpt lat="45.79552" lon="3.70228">
        <ele>972</ele>
        <time>2017-09-19T12:02:24Z</time>
      </trkpt>
      <trkpt lat="45.79556" lon="3.70236">
        <ele>971</ele>
        <time>2017-09-19T12:02:29Z</time>
      </trkpt>
      <trkpt lat="45.79559" lon="3.70241">
        <ele>971</ele>
        <time>2017-09-19T12:02:32Z</time>
      </trkpt>
      <trkpt lat="45.79566" lon="3.70249">
        <ele>971</ele>
        <time>2017-09-19T12:02:38Z</time>
      </trkpt>
      <trkpt lat="45.79567" lon="3.7025">
        <ele>970</ele>
        <time>2017-09-19T12:02:39Z</time>
      </trkpt>
      <trkpt lat="45.7957" lon="3.70257">
        <ele>970</ele>
        <time>2017-09-19T12:02:44Z</time>
      </trkpt>
      <trkpt lat="45.79574" lon="3.70266">
        <ele>970</ele>
        <time>2017-09-19T12:02:50Z</time>
      </trkpt>
      <trkpt lat="45.79575" lon="3.70267">
        <ele>970</ele>
        <time>2017-09-19T12:02:51Z</time>
      </trkpt>
      <trkpt lat="45.79576" lon="3.70268">
        <ele>970</ele>
        <time>2017-09-19T12:02:52Z</time>
      </trkpt>
      <trkpt lat="45.79579" lon="3.70277">
        <ele>970</ele>
        <time>2017-09-19T12:02:57Z</time>
      </trkpt>
      <trkpt lat="45.79587" lon="3.70288">
        <ele>968</ele>
        <time>2017-09-19T12:03:06Z</time>
      </trkpt>
      <trkpt lat="45.79589" lon="3.70295">
        <ele>968</ele>
        <time>2017-09-19T12:03:11Z</time>
      </trkpt>
      <trkpt lat="45.79595" lon="3.70306">
        <ele>966</ele>
        <time>2017-09-19T12:03:19Z</time>
      </trkpt>
      <trkpt lat="45.79599" lon="3.70314">
        <ele>966</ele>
        <time>2017-09-19T12:03:25Z</time>
      </trkpt>
      <trkpt lat="45.79601" lon="3.70322">
        <ele>965</ele>
        <time>2017-09-19T12:03:30Z</time>
      </trkpt>
      <trkpt lat="45.79605" lon="3.70328">
        <ele>964</ele>
        <time>2017-09-19T12:03:36Z</time>
      </trkpt>
      <trkpt lat="45.79613" lon="3.70343">
        <ele>963</ele>
        <time>2017-09-19T12:03:46Z</time>
      </trkpt>
      <trkpt lat="45.79623" lon="3.7035">
        <ele>961</ele>
        <time>2017-09-19T12:03:54Z</time>
      </trkpt>
      <trkpt lat="45.79624" lon="3.70352">
        <ele>961</ele>
        <time>2017-09-19T12:03:55Z</time>
      </trkpt>
      <trkpt lat="45.79626" lon="3.70355">
        <ele>961</ele>
        <time>2017-09-19T12:03:58Z</time>
      </trkpt>
      <trkpt lat="45.79634" lon="3.70362">
        <ele>959</ele>
        <time>2017-09-19T12:04:05Z</time>
      </trkpt>
      <trkpt lat="45.79636" lon="3.70363">
        <ele>959</ele>
        <time>2017-09-19T12:04:07Z</time>
      </trkpt>
      <trkpt lat="45.7964" lon="3.70364">
        <ele>959</ele>
        <time>2017-09-19T12:04:11Z</time>
      </trkpt>
      <trkpt lat="45.79643" lon="3.70365">
        <ele>958</ele>
        <time>2017-09-19T12:04:18Z</time>
      </trkpt>
      <trkpt lat="45.79643" lon="3.70365">
        <ele>958</ele>
        <time>2017-09-19T12:04:27Z</time>
      </trkpt>
      <trkpt lat="45.79644" lon="3.70366">
        <ele>958</ele>
        <time>2017-09-19T12:04:33Z</time>
      </trkpt>
      <trkpt lat="45.79646" lon="3.70367">
        <ele>958</ele>
        <time>2017-09-19T12:04:40Z</time>
      </trkpt>
      <trkpt lat="45.79645" lon="3.70367">
        <ele>958</ele>
        <time>2017-09-19T12:04:48Z</time>
      </trkpt>
      <trkpt lat="45.79644" lon="3.70367">
        <ele>958</ele>
        <time>2017-09-19T12:04:52Z</time>
      </trkpt>
      <trkpt lat="45.79643" lon="3.70372">
        <ele>958</ele>
        <time>2017-09-19T12:05:01Z</time>
      </trkpt>
      <trkpt lat="45.79646" lon="3.70373">
        <ele>958</ele>
        <time>2017-09-19T12:05:11Z</time>
      </trkpt>
      <trkpt lat="45.79646" lon="3.70372">
        <ele>958</ele>
        <time>2017-09-19T12:05:16Z</time>
      </trkpt>
      <trkpt lat="45.79646" lon="3.70371">
        <ele>958</ele>
        <time>2017-09-19T12:05:24Z</time>
      </trkpt>
      <trkpt lat="45.79648" lon="3.70369">
        <ele>958</ele>
        <time>2017-09-19T12:05:32Z</time>
      </trkpt>
      <trkpt lat="45.79654" lon="3.70367">
        <ele>957</ele>
        <time>2017-09-19T12:05:54Z</time>
      </trkpt>
      <trkpt lat="45.79659" lon="3.70369">
        <ele>957</ele>
        <time>2017-09-19T12:06:08Z</time>
      </trkpt>
      <trkpt lat="45.79666" lon="3.70371">
        <ele>957</ele>
        <time>2017-09-19T12:06:13Z</time>
      </trkpt>
      <trkpt lat="45.79672" lon="3.70372">
        <ele>956</ele>
        <time>2017-09-19T12:06:17Z</time>
      </trkpt>
      <trkpt lat="45.79673" lon="3.70371">
        <ele>956</ele>
        <time>2017-09-19T12:06:18Z</time>
      </trkpt>
      <trkpt lat="45.79682" lon="3.70371">
        <ele>955</ele>
        <time>2017-09-19T12:06:24Z</time>
      </trkpt>
      <trkpt lat="45.79689" lon="3.70371">
        <ele>955</ele>
        <time>2017-09-19T12:06:29Z</time>
      </trkpt>
      <trkpt lat="45.79698" lon="3.70377">
        <ele>954</ele>
        <time>2017-09-19T12:06:37Z</time>
      </trkpt>
      <trkpt lat="45.79699" lon="3.70379">
        <ele>954</ele>
        <time>2017-09-19T12:06:39Z</time>
      </trkpt>
      <trkpt lat="45.797" lon="3.70392">
        <ele>954</ele>
        <time>2017-09-19T12:06:45Z</time>
      </trkpt>
      <trkpt lat="45.79701" lon="3.70394">
        <ele>954</ele>
        <time>2017-09-19T12:06:46Z</time>
      </trkpt>
      <trkpt lat="45.79702" lon="3.70396">
        <ele>954</ele>
        <time>2017-09-19T12:06:47Z</time>
      </trkpt>
      <trkpt lat="45.79705" lon="3.70403">
        <ele>954</ele>
        <time>2017-09-19T12:06:51Z</time>
      </trkpt>
      <trkpt lat="45.79706" lon="3.70406">
        <ele>954</ele>
        <time>2017-09-19T12:06:57Z</time>
      </trkpt>
      <trkpt lat="45.79707" lon="3.70412">
        <ele>954</ele>
        <time>2017-09-19T12:07:01Z</time>
      </trkpt>
      <trkpt lat="45.79708" lon="3.70415">
        <ele>954</ele>
        <time>2017-09-19T12:07:02Z</time>
      </trkpt>
      <trkpt lat="45.79714" lon="3.70447">
        <ele>954</ele>
        <time>2017-09-19T12:07:13Z</time>
      </trkpt>
      <trkpt lat="45.79715" lon="3.7045">
        <ele>954</ele>
        <time>2017-09-19T12:07:14Z</time>
      </trkpt>
      <trkpt lat="45.79719" lon="3.70466">
        <ele>954</ele>
        <time>2017-09-19T12:07:21Z</time>
      </trkpt>
      <trkpt lat="45.79722" lon="3.70487">
        <ele>954</ele>
        <time>2017-09-19T12:07:30Z</time>
      </trkpt>
      <trkpt lat="45.79726" lon="3.7051">
        <ele>955</ele>
        <time>2017-09-19T12:07:41Z</time>
      </trkpt>
      <trkpt lat="45.79728" lon="3.70525">
        <ele>955</ele>
        <time>2017-09-19T12:07:48Z</time>
      </trkpt>
      <trkpt lat="45.79728" lon="3.70534">
        <ele>955</ele>
        <time>2017-09-19T12:07:53Z</time>
      </trkpt>
      <trkpt lat="45.79727" lon="3.70541">
        <ele>956</ele>
        <time>2017-09-19T12:07:57Z</time>
      </trkpt>
      <trkpt lat="45.79727" lon="3.70548">
        <ele>957</ele>
        <time>2017-09-19T12:08:00Z</time>
      </trkpt>
      <trkpt lat="45.79727" lon="3.7056">
        <ele>957</ele>
        <time>2017-09-19T12:08:06Z</time>
      </trkpt>
      <trkpt lat="45.79729" lon="3.70567">
        <ele>958</ele>
        <time>2017-09-19T12:08:10Z</time>
      </trkpt>
      <trkpt lat="45.79729" lon="3.70576">
        <ele>958</ele>
        <time>2017-09-19T12:08:14Z</time>
      </trkpt>
      <trkpt lat="45.79731" lon="3.70587">
        <ele>959</ele>
        <time>2017-09-19T12:08:20Z</time>
      </trkpt>
      <trkpt lat="45.79731" lon="3.70589">
        <ele>959</ele>
        <time>2017-09-19T12:08:21Z</time>
      </trkpt>
      <trkpt lat="45.79732" lon="3.70598">
        <ele>959</ele>
        <time>2017-09-19T12:08:25Z</time>
      </trkpt>
      <trkpt lat="45.79732" lon="3.70608">
        <ele>960</ele>
        <time>2017-09-19T12:08:30Z</time>
      </trkpt>
      <trkpt lat="45.79733" lon="3.7062">
        <ele>959</ele>
        <time>2017-09-19T12:08:35Z</time>
      </trkpt>
      <trkpt lat="45.79736" lon="3.70633">
        <ele>958</ele>
        <time>2017-09-19T12:08:40Z</time>
      </trkpt>
      <trkpt lat="45.79739" lon="3.70653">
        <ele>957</ele>
        <time>2017-09-19T12:08:48Z</time>
      </trkpt>
      <trkpt lat="45.7974" lon="3.70669">
        <ele>956</ele>
        <time>2017-09-19T12:08:55Z</time>
      </trkpt>
      <trkpt lat="45.79743" lon="3.7069">
        <ele>955</ele>
        <time>2017-09-19T12:09:04Z</time>
      </trkpt>
      <trkpt lat="45.79746" lon="3.7071">
        <ele>954</ele>
        <time>2017-09-19T12:09:12Z</time>
      </trkpt>
      <trkpt lat="45.7975" lon="3.70734">
        <ele>954</ele>
        <time>2017-09-19T12:09:22Z</time>
      </trkpt>
      <trkpt lat="45.79753" lon="3.7075">
        <ele>954</ele>
        <time>2017-09-19T12:09:29Z</time>
      </trkpt>
      <trkpt lat="45.79758" lon="3.70768">
        <ele>953</ele>
        <time>2017-09-19T12:09:37Z</time>
      </trkpt>
      <trkpt lat="45.79758" lon="3.70771">
        <ele>953</ele>
        <time>2017-09-19T12:09:39Z</time>
      </trkpt>
      <trkpt lat="45.79761" lon="3.70785">
        <ele>953</ele>
        <time>2017-09-19T12:09:45Z</time>
      </trkpt>
      <trkpt lat="45.79764" lon="3.70797">
        <ele>953</ele>
        <time>2017-09-19T12:09:50Z</time>
      </trkpt>
      <trkpt lat="45.79771" lon="3.70835">
        <ele>953</ele>
        <time>2017-09-19T12:10:07Z</time>
      </trkpt>
      <trkpt lat="45.79773" lon="3.70854">
        <ele>954</ele>
        <time>2017-09-19T12:10:15Z</time>
      </trkpt>
      <trkpt lat="45.79775" lon="3.70871">
        <ele>953</ele>
        <time>2017-09-19T12:10:22Z</time>
      </trkpt>
      <trkpt lat="45.79775" lon="3.70897">
        <ele>952</ele>
        <time>2017-09-19T12:10:33Z</time>
      </trkpt>
      <trkpt lat="45.79777" lon="3.70923">
        <ele>951</ele>
        <time>2017-09-19T12:10:44Z</time>
      </trkpt>
      <trkpt lat="45.79781" lon="3.70949">
        <ele>950</ele>
        <time>2017-09-19T12:10:55Z</time>
      </trkpt>
      <trkpt lat="45.79783" lon="3.70962">
        <ele>949</ele>
        <time>2017-09-19T12:11:01Z</time>
      </trkpt>
      <trkpt lat="45.79789" lon="3.70987">
        <ele>947</ele>
        <time>2017-09-19T12:11:12Z</time>
      </trkpt>
      <trkpt lat="45.79794" lon="3.7101">
        <ele>945</ele>
        <time>2017-09-19T12:11:23Z</time>
      </trkpt>
      <trkpt lat="45.79801" lon="3.71029">
        <ele>944</ele>
        <time>2017-09-19T12:11:33Z</time>
      </trkpt>
      <trkpt lat="45.79809" lon="3.71048">
        <ele>944</ele>
        <time>2017-09-19T12:11:43Z</time>
      </trkpt>
      <trkpt lat="45.79814" lon="3.71064">
        <ele>944</ele>
        <time>2017-09-19T12:11:52Z</time>
      </trkpt>
      <trkpt lat="45.79819" lon="3.71076">
        <ele>944</ele>
        <time>2017-09-19T12:11:58Z</time>
      </trkpt>
      <trkpt lat="45.79821" lon="3.71079">
        <ele>944</ele>
        <time>2017-09-19T12:12:03Z</time>
      </trkpt>
      <trkpt lat="45.79822" lon="3.71079">
        <ele>944</ele>
        <time>2017-09-19T12:12:04Z</time>
      </trkpt>
      <trkpt lat="45.79823" lon="3.7108">
        <ele>944</ele>
        <time>2017-09-19T12:12:05Z</time>
      </trkpt>
      <trkpt lat="45.79829" lon="3.71094">
        <ele>945</ele>
        <time>2017-09-19T12:12:11Z</time>
      </trkpt>
      <trkpt lat="45.79835" lon="3.71108">
        <ele>945</ele>
        <time>2017-09-19T12:12:18Z</time>
      </trkpt>
      <trkpt lat="45.79843" lon="3.71127">
        <ele>944</ele>
        <time>2017-09-19T12:12:26Z</time>
      </trkpt>
      <trkpt lat="45.7985" lon="3.71141">
        <ele>944</ele>
        <time>2017-09-19T12:12:33Z</time>
      </trkpt>
      <trkpt lat="45.79861" lon="3.71164">
        <ele>944</ele>
        <time>2017-09-19T12:12:43Z</time>
      </trkpt>
      <trkpt lat="45.79862" lon="3.7117">
        <ele>944</ele>
        <time>2017-09-19T12:12:45Z</time>
      </trkpt>
      <trkpt lat="45.79857" lon="3.71174">
        <ele>945</ele>
        <time>2017-09-19T12:12:49Z</time>
      </trkpt>
      <trkpt lat="45.79845" lon="3.71176">
        <ele>946</ele>
        <time>2017-09-19T12:12:57Z</time>
      </trkpt>
      <trkpt lat="45.79836" lon="3.71186">
        <ele>948</ele>
        <time>2017-09-19T12:13:06Z</time>
      </trkpt>
      <trkpt lat="45.79832" lon="3.712">
        <ele>950</ele>
        <time>2017-09-19T12:13:14Z</time>
      </trkpt>
      <trkpt lat="45.79832" lon="3.71212">
        <ele>950</ele>
        <time>2017-09-19T12:13:20Z</time>
      </trkpt>
      <trkpt lat="45.79835" lon="3.71218">
        <ele>950</ele>
        <time>2017-09-19T12:13:24Z</time>
      </trkpt>
      <trkpt lat="45.79837" lon="3.71227">
        <ele>950</ele>
        <time>2017-09-19T12:13:29Z</time>
      </trkpt>
      <trkpt lat="45.79839" lon="3.7124">
        <ele>950</ele>
        <time>2017-09-19T12:13:35Z</time>
      </trkpt>
      <trkpt lat="45.79841" lon="3.7126">
        <ele>951</ele>
        <time>2017-09-19T12:13:44Z</time>
      </trkpt>
      <trkpt lat="45.79844" lon="3.71267">
        <ele>951</ele>
        <time>2017-09-19T12:13:50Z</time>
      </trkpt>
      <trkpt lat="45.79843" lon="3.71267">
        <ele>951</ele>
        <time>2017-09-19T12:14:11Z</time>
      </trkpt>
      <trkpt lat="45.79841" lon="3.71268">
        <ele>951</ele>
        <time>2017-09-19T12:14:19Z</time>
      </trkpt>
      <trkpt lat="45.79841" lon="3.71267">
        <ele>951</ele>
        <time>2017-09-19T12:14:23Z</time>
      </trkpt>
      <trkpt lat="45.79842" lon="3.71267">
        <ele>951</ele>
        <time>2017-09-19T12:14:29Z</time>
      </trkpt>
      <trkpt lat="45.79841" lon="3.71269">
        <ele>951</ele>
        <time>2017-09-19T12:14:35Z</time>
      </trkpt>
      <trkpt lat="45.79839" lon="3.71267">
        <ele>952</ele>
        <time>2017-09-19T12:14:56Z</time>
      </trkpt>
      <trkpt lat="45.79838" lon="3.71267">
        <ele>952</ele>
        <time>2017-09-19T12:15:05Z</time>
      </trkpt>
      <trkpt lat="45.79843" lon="3.71267">
        <ele>951</ele>
        <time>2017-09-19T12:16:07Z</time>
      </trkpt>
      <trkpt lat="45.79843" lon="3.71268">
        <ele>951</ele>
        <time>2017-09-19T12:16:09Z</time>
      </trkpt>
      <trkpt lat="45.79841" lon="3.71265">
        <ele>951</ele>
        <time>2017-09-19T12:16:16Z</time>
      </trkpt>
      <trkpt lat="45.79843" lon="3.71275">
        <ele>951</ele>
        <time>2017-09-19T12:16:21Z</time>
      </trkpt>
      <trkpt lat="45.79847" lon="3.71293">
        <ele>952</ele>
        <time>2017-09-19T12:16:29Z</time>
      </trkpt>
      <trkpt lat="45.79847" lon="3.71302">
        <ele>952</ele>
        <time>2017-09-19T12:16:33Z</time>
      </trkpt>
      <trkpt lat="45.79845" lon="3.71321">
        <ele>953</ele>
        <time>2017-09-19T12:16:42Z</time>
      </trkpt>
      <trkpt lat="45.79845" lon="3.71323">
        <ele>953</ele>
        <time>2017-09-19T12:16:43Z</time>
      </trkpt>
      <trkpt lat="45.79841" lon="3.71338">
        <ele>954</ele>
        <time>2017-09-19T12:16:51Z</time>
      </trkpt>
      <trkpt lat="45.7984" lon="3.71347">
        <ele>955</ele>
        <time>2017-09-19T12:16:56Z</time>
      </trkpt>
      <trkpt lat="45.79839" lon="3.71359">
        <ele>955</ele>
        <time>2017-09-19T12:17:02Z</time>
      </trkpt>
      <trkpt lat="45.79837" lon="3.71373">
        <ele>956</ele>
        <time>2017-09-19T12:17:10Z</time>
      </trkpt>
      <trkpt lat="45.79835" lon="3.71382">
        <ele>957</ele>
        <time>2017-09-19T12:17:16Z</time>
      </trkpt>
      <trkpt lat="45.79833" lon="3.71387">
        <ele>957</ele>
        <time>2017-09-19T12:17:19Z</time>
      </trkpt>
      <trkpt lat="45.79827" lon="3.71403">
        <ele>958</ele>
        <time>2017-09-19T12:17:27Z</time>
      </trkpt>
      <trkpt lat="45.79823" lon="3.71415">
        <ele>959</ele>
        <time>2017-09-19T12:17:33Z</time>
      </trkpt>
      <trkpt lat="45.79818" lon="3.71426">
        <ele>960</ele>
        <time>2017-09-19T12:17:39Z</time>
      </trkpt>
      <trkpt lat="45.79813" lon="3.71438">
        <ele>961</ele>
        <time>2017-09-19T12:17:46Z</time>
      </trkpt>
      <trkpt lat="45.79808" lon="3.71449">
        <ele>961</ele>
        <time>2017-09-19T12:17:53Z</time>
      </trkpt>
      <trkpt lat="45.79807" lon="3.71449">
        <ele>961</ele>
        <time>2017-09-19T12:17:54Z</time>
      </trkpt>
      <trkpt lat="45.79805" lon="3.71454">
        <ele>961</ele>
        <time>2017-09-19T12:17:57Z</time>
      </trkpt>
      <trkpt lat="45.798" lon="3.71467">
        <ele>960</ele>
        <time>2017-09-19T12:18:04Z</time>
      </trkpt>
      <trkpt lat="45.79796" lon="3.71479">
        <ele>960</ele>
        <time>2017-09-19T12:18:10Z</time>
      </trkpt>
      <trkpt lat="45.79789" lon="3.71497">
        <ele>959</ele>
        <time>2017-09-19T12:18:19Z</time>
      </trkpt>
      <trkpt lat="45.79781" lon="3.71517">
        <ele>959</ele>
        <time>2017-09-19T12:18:28Z</time>
      </trkpt>
      <trkpt lat="45.7977" lon="3.71538">
        <ele>959</ele>
        <time>2017-09-19T12:18:35Z</time>
      </trkpt>
      <trkpt lat="45.79762" lon="3.71552">
        <ele>960</ele>
        <time>2017-09-19T12:18:42Z</time>
      </trkpt>
      <trkpt lat="45.79754" lon="3.71564">
        <ele>960</ele>
        <time>2017-09-19T12:18:49Z</time>
      </trkpt>
      <trkpt lat="45.79746" lon="3.71581">
        <ele>961</ele>
        <time>2017-09-19T12:18:58Z</time>
      </trkpt>
      <trkpt lat="45.79738" lon="3.716">
        <ele>961</ele>
        <time>2017-09-19T12:19:08Z</time>
      </trkpt>
      <trkpt lat="45.7973" lon="3.7162">
        <ele>962</ele>
        <time>2017-09-19T12:19:18Z</time>
      </trkpt>
      <trkpt lat="45.79725" lon="3.71636">
        <ele>960</ele>
        <time>2017-09-19T12:19:26Z</time>
      </trkpt>
      <trkpt lat="45.79721" lon="3.71657">
        <ele>959</ele>
        <time>2017-09-19T12:19:36Z</time>
      </trkpt>
      <trkpt lat="45.79717" lon="3.71674">
        <ele>958</ele>
        <time>2017-09-19T12:19:44Z</time>
      </trkpt>
      <trkpt lat="45.79714" lon="3.71695">
        <ele>959</ele>
        <time>2017-09-19T12:19:54Z</time>
      </trkpt>
      <trkpt lat="45.7971" lon="3.71715">
        <ele>960</ele>
        <time>2017-09-19T12:20:04Z</time>
      </trkpt>
      <trkpt lat="45.79709" lon="3.71717">
        <ele>960</ele>
        <time>2017-09-19T12:20:05Z</time>
      </trkpt>
      <trkpt lat="45.7971" lon="3.71722">
        <ele>960</ele>
        <time>2017-09-19T12:20:09Z</time>
      </trkpt>
      <trkpt lat="45.79709" lon="3.71724">
        <ele>960</ele>
        <time>2017-09-19T12:20:10Z</time>
      </trkpt>
      <trkpt lat="45.79707" lon="3.71741">
        <ele>961</ele>
        <time>2017-09-19T12:20:18Z</time>
      </trkpt>
      <trkpt lat="45.79705" lon="3.71756">
        <ele>962</ele>
        <time>2017-09-19T12:20:25Z</time>
      </trkpt>
      <trkpt lat="45.79706" lon="3.71773">
        <ele>960</ele>
        <time>2017-09-19T12:20:33Z</time>
      </trkpt>
      <trkpt lat="45.79709" lon="3.71786">
        <ele>960</ele>
        <time>2017-09-19T12:20:39Z</time>
      </trkpt>
      <trkpt lat="45.79716" lon="3.71805">
        <ele>960</ele>
        <time>2017-09-19T12:20:49Z</time>
      </trkpt>
      <trkpt lat="45.7972" lon="3.7182">
        <ele>959</ele>
        <time>2017-09-19T12:20:56Z</time>
      </trkpt>
      <trkpt lat="45.79721" lon="3.71835">
        <ele>960</ele>
        <time>2017-09-19T12:21:03Z</time>
      </trkpt>
      <trkpt lat="45.79721" lon="3.71848">
        <ele>960</ele>
        <time>2017-09-19T12:21:09Z</time>
      </trkpt>
      <trkpt lat="45.7972" lon="3.71864">
        <ele>962</ele>
        <time>2017-09-19T12:21:14Z</time>
      </trkpt>
      <trkpt lat="45.79718" lon="3.71868">
        <ele>962</ele>
        <time>2017-09-19T12:21:19Z</time>
      </trkpt>
      <trkpt lat="45.79716" lon="3.71877">
        <ele>963</ele>
        <time>2017-09-19T12:21:26Z</time>
      </trkpt>
      <trkpt lat="45.79712" lon="3.71884">
        <ele>964</ele>
        <time>2017-09-19T12:21:44Z</time>
      </trkpt>
      <trkpt lat="45.79704" lon="3.71903">
        <ele>967</ele>
        <time>2017-09-19T12:21:55Z</time>
      </trkpt>
      <trkpt lat="45.79698" lon="3.71921">
        <ele>968</ele>
        <time>2017-09-19T12:22:05Z</time>
      </trkpt>
      <trkpt lat="45.79697" lon="3.71938">
        <ele>969</ele>
        <time>2017-09-19T12:22:13Z</time>
      </trkpt>
      <trkpt lat="45.79694" lon="3.71957">
        <ele>968</ele>
        <time>2017-09-19T12:22:22Z</time>
      </trkpt>
      <trkpt lat="45.79694" lon="3.71974">
        <ele>968</ele>
        <time>2017-09-19T12:22:30Z</time>
      </trkpt>
      <trkpt lat="45.79689" lon="3.71992">
        <ele>968</ele>
        <time>2017-09-19T12:22:39Z</time>
      </trkpt>
      <trkpt lat="45.79681" lon="3.72005">
        <ele>968</ele>
        <time>2017-09-19T12:22:47Z</time>
      </trkpt>
      <trkpt lat="45.79666" lon="3.7202">
        <ele>968</ele>
        <time>2017-09-19T12:22:59Z</time>
      </trkpt>
      <trkpt lat="45.79659" lon="3.72028">
        <ele>968</ele>
        <time>2017-09-19T12:23:05Z</time>
      </trkpt>
      <trkpt lat="45.79653" lon="3.72031">
        <ele>968</ele>
        <time>2017-09-19T12:23:09Z</time>
      </trkpt>
      <trkpt lat="45.7964" lon="3.72039">
        <ele>968</ele>
        <time>2017-09-19T12:23:19Z</time>
      </trkpt>
      <trkpt lat="45.79629" lon="3.72049">
        <ele>970</ele>
        <time>2017-09-19T12:23:27Z</time>
      </trkpt>
      <trkpt lat="45.79621" lon="3.72057">
        <ele>971</ele>
        <time>2017-09-19T12:23:34Z</time>
      </trkpt>
      <trkpt lat="45.79613" lon="3.72067">
        <ele>973</ele>
        <time>2017-09-19T12:23:41Z</time>
      </trkpt>
      <trkpt lat="45.79603" lon="3.7208">
        <ele>973</ele>
        <time>2017-09-19T12:23:50Z</time>
      </trkpt>
      <trkpt lat="45.79592" lon="3.72094">
        <ele>973</ele>
        <time>2017-09-19T12:24:01Z</time>
      </trkpt>
      <trkpt lat="45.79585" lon="3.72107">
        <ele>973</ele>
        <time>2017-09-19T12:24:10Z</time>
      </trkpt>
      <trkpt lat="45.79582" lon="3.72121">
        <ele>974</ele>
        <time>2017-09-19T12:24:17Z</time>
      </trkpt>
      <trkpt lat="45.7958" lon="3.72138">
        <ele>974</ele>
        <time>2017-09-19T12:24:26Z</time>
      </trkpt>
      <trkpt lat="45.79579" lon="3.72153">
        <ele>973</ele>
        <time>2017-09-19T12:24:33Z</time>
      </trkpt>
      <trkpt lat="45.79576" lon="3.72169">
        <ele>972</ele>
        <time>2017-09-19T12:24:41Z</time>
      </trkpt>
      <trkpt lat="45.79571" lon="3.72186">
        <ele>972</ele>
        <time>2017-09-19T12:24:50Z</time>
      </trkpt>
      <trkpt lat="45.79566" lon="3.72225">
        <ele>973</ele>
        <time>2017-09-19T12:25:09Z</time>
      </trkpt>
      <trkpt lat="45.79568" lon="3.72243">
        <ele>973</ele>
        <time>2017-09-19T12:25:18Z</time>
      </trkpt>
      <trkpt lat="45.79567" lon="3.72244">
        <ele>973</ele>
        <time>2017-09-19T12:25:19Z</time>
      </trkpt>
      <trkpt lat="45.79568" lon="3.72258">
        <ele>973</ele>
        <time>2017-09-19T12:25:26Z</time>
      </trkpt>
      <trkpt lat="45.7957" lon="3.72272">
        <ele>973</ele>
        <time>2017-09-19T12:25:33Z</time>
      </trkpt>
      <trkpt lat="45.7957" lon="3.72286">
        <ele>973</ele>
        <time>2017-09-19T12:25:40Z</time>
      </trkpt>
      <trkpt lat="45.79572" lon="3.72298">
        <ele>974</ele>
        <time>2017-09-19T12:25:46Z</time>
      </trkpt>
      <trkpt lat="45.79572" lon="3.7231">
        <ele>974</ele>
        <time>2017-09-19T12:25:52Z</time>
      </trkpt>
      <trkpt lat="45.79576" lon="3.72323">
        <ele>974</ele>
        <time>2017-09-19T12:25:58Z</time>
      </trkpt>
      <trkpt lat="45.79578" lon="3.7234">
        <ele>974</ele>
        <time>2017-09-19T12:26:06Z</time>
      </trkpt>
      <trkpt lat="45.79581" lon="3.72349">
        <ele>974</ele>
        <time>2017-09-19T12:26:11Z</time>
      </trkpt>
      <trkpt lat="45.79582" lon="3.7236">
        <ele>975</ele>
        <time>2017-09-19T12:26:16Z</time>
      </trkpt>
      <trkpt lat="45.79582" lon="3.7237">
        <ele>975</ele>
        <time>2017-09-19T12:26:20Z</time>
      </trkpt>
      <trkpt lat="45.79582" lon="3.72384">
        <ele>975</ele>
        <time>2017-09-19T12:26:27Z</time>
      </trkpt>
      <trkpt lat="45.79582" lon="3.72387">
        <ele>975</ele>
        <time>2017-09-19T12:26:29Z</time>
      </trkpt>
      <trkpt lat="45.79582" lon="3.72393">
        <ele>975</ele>
        <time>2017-09-19T12:26:33Z</time>
      </trkpt>
      <trkpt lat="45.79584" lon="3.72397">
        <ele>975</ele>
        <time>2017-09-19T12:26:35Z</time>
      </trkpt>
      <trkpt lat="45.79591" lon="3.72416">
        <ele>974</ele>
        <time>2017-09-19T12:26:44Z</time>
      </trkpt>
      <trkpt lat="45.79592" lon="3.72418">
        <ele>974</ele>
        <time>2017-09-19T12:26:45Z</time>
      </trkpt>
      <trkpt lat="45.79594" lon="3.72431">
        <ele>974</ele>
        <time>2017-09-19T12:26:51Z</time>
      </trkpt>
      <trkpt lat="45.79595" lon="3.72434">
        <ele>974</ele>
        <time>2017-09-19T12:26:53Z</time>
      </trkpt>
      <trkpt lat="45.79596" lon="3.72438">
        <ele>974</ele>
        <time>2017-09-19T12:26:55Z</time>
      </trkpt>
      <trkpt lat="45.79601" lon="3.72449">
        <ele>973</ele>
        <time>2017-09-19T12:27:01Z</time>
      </trkpt>
      <trkpt lat="45.79602" lon="3.72452">
        <ele>973</ele>
        <time>2017-09-19T12:27:02Z</time>
      </trkpt>
      <trkpt lat="45.79603" lon="3.72455">
        <ele>973</ele>
        <time>2017-09-19T12:27:04Z</time>
      </trkpt>
      <trkpt lat="45.79604" lon="3.72465">
        <ele>972</ele>
        <time>2017-09-19T12:27:09Z</time>
      </trkpt>
      <trkpt lat="45.79606" lon="3.72472">
        <ele>972</ele>
        <time>2017-09-19T12:27:12Z</time>
      </trkpt>
      <trkpt lat="45.7961" lon="3.72485">
        <ele>971</ele>
        <time>2017-09-19T12:27:18Z</time>
      </trkpt>
      <trkpt lat="45.79609" lon="3.72495">
        <ele>971</ele>
        <time>2017-09-19T12:27:23Z</time>
      </trkpt>
      <trkpt lat="45.7961" lon="3.72507">
        <ele>971</ele>
        <time>2017-09-19T12:27:29Z</time>
      </trkpt>
      <trkpt lat="45.79608" lon="3.72518">
        <ele>971</ele>
        <time>2017-09-19T12:27:34Z</time>
      </trkpt>
      <trkpt lat="45.79607" lon="3.72526">
        <ele>971</ele>
        <time>2017-09-19T12:27:39Z</time>
      </trkpt>
      <trkpt lat="45.79607" lon="3.7253">
        <ele>971</ele>
        <time>2017-09-19T12:27:41Z</time>
      </trkpt>
      <trkpt lat="45.79608" lon="3.72552">
        <ele>971</ele>
        <time>2017-09-19T12:27:50Z</time>
      </trkpt>
      <trkpt lat="45.79606" lon="3.72569">
        <ele>971</ele>
        <time>2017-09-19T12:27:57Z</time>
      </trkpt>
      <trkpt lat="45.79602" lon="3.72583">
        <ele>971</ele>
        <time>2017-09-19T12:28:04Z</time>
      </trkpt>
      <trkpt lat="45.79602" lon="3.72596">
        <ele>971</ele>
        <time>2017-09-19T12:28:11Z</time>
      </trkpt>
      <trkpt lat="45.7961" lon="3.72607">
        <ele>970</ele>
        <time>2017-09-19T12:28:17Z</time>
      </trkpt>
      <trkpt lat="45.79614" lon="3.72614">
        <ele>970</ele>
        <time>2017-09-19T12:28:21Z</time>
      </trkpt>
      <trkpt lat="45.79624" lon="3.72624">
        <ele>969</ele>
        <time>2017-09-19T12:28:28Z</time>
      </trkpt>
      <trkpt lat="45.79631" lon="3.72633">
        <ele>969</ele>
        <time>2017-09-19T12:28:34Z</time>
      </trkpt>
      <trkpt lat="45.79638" lon="3.7264">
        <ele>969</ele>
        <time>2017-09-19T12:28:40Z</time>
      </trkpt>
      <trkpt lat="45.79644" lon="3.72646">
        <ele>968</ele>
        <time>2017-09-19T12:28:45Z</time>
      </trkpt>
      <trkpt lat="45.79651" lon="3.72653">
        <ele>968</ele>
        <time>2017-09-19T12:28:50Z</time>
      </trkpt>
      <trkpt lat="45.79653" lon="3.72655">
        <ele>967</ele>
        <time>2017-09-19T12:28:54Z</time>
      </trkpt>
      <trkpt lat="45.79662" lon="3.72663">
        <ele>967</ele>
        <time>2017-09-19T12:29:00Z</time>
      </trkpt>
      <trkpt lat="45.79668" lon="3.72669">
        <ele>966</ele>
        <time>2017-09-19T12:29:05Z</time>
      </trkpt>
      <trkpt lat="45.7967" lon="3.72671">
        <ele>966</ele>
        <time>2017-09-19T12:29:06Z</time>
      </trkpt>
      <trkpt lat="45.79674" lon="3.72674">
        <ele>966</ele>
        <time>2017-09-19T12:29:09Z</time>
      </trkpt>
      <trkpt lat="45.79677" lon="3.72677">
        <ele>965</ele>
        <time>2017-09-19T12:29:12Z</time>
      </trkpt>
      <trkpt lat="45.79685" lon="3.72682">
        <ele>965</ele>
        <time>2017-09-19T12:29:19Z</time>
      </trkpt>
      <trkpt lat="45.79692" lon="3.72684">
        <ele>964</ele>
        <time>2017-09-19T12:29:25Z</time>
      </trkpt>
      <trkpt lat="45.79698" lon="3.7269">
        <ele>963</ele>
        <time>2017-09-19T12:29:31Z</time>
      </trkpt>
      <trkpt lat="45.79707" lon="3.72701">
        <ele>962</ele>
        <time>2017-09-19T12:29:37Z</time>
      </trkpt>
      <trkpt lat="45.79708" lon="3.72703">
        <ele>962</ele>
        <time>2017-09-19T12:29:38Z</time>
      </trkpt>
      <trkpt lat="45.79715" lon="3.72714">
        <ele>961</ele>
        <time>2017-09-19T12:29:44Z</time>
      </trkpt>
      <trkpt lat="45.79716" lon="3.72715">
        <ele>960</ele>
        <time>2017-09-19T12:29:45Z</time>
      </trkpt>
      <trkpt lat="45.79725" lon="3.72729">
        <ele>959</ele>
        <time>2017-09-19T12:29:53Z</time>
      </trkpt>
      <trkpt lat="45.79737" lon="3.72744">
        <ele>959</ele>
        <time>2017-09-19T12:30:03Z</time>
      </trkpt>
      <trkpt lat="45.79747" lon="3.72757">
        <ele>959</ele>
        <time>2017-09-19T12:30:12Z</time>
      </trkpt>
      <trkpt lat="45.79753" lon="3.7277">
        <ele>959</ele>
        <time>2017-09-19T12:30:20Z</time>
      </trkpt>
      <trkpt lat="45.79756" lon="3.72774">
        <ele>959</ele>
        <time>2017-09-19T12:30:23Z</time>
      </trkpt>
      <trkpt lat="45.7976" lon="3.72781">
        <ele>960</ele>
        <time>2017-09-19T12:30:28Z</time>
      </trkpt>
      <trkpt lat="45.79763" lon="3.72784">
        <ele>960</ele>
        <time>2017-09-19T12:30:31Z</time>
      </trkpt>
      <trkpt lat="45.79768" lon="3.72792">
        <ele>960</ele>
        <time>2017-09-19T12:30:37Z</time>
      </trkpt>
      <trkpt lat="45.7977" lon="3.72798">
        <ele>960</ele>
        <time>2017-09-19T12:30:42Z</time>
      </trkpt>
      <trkpt lat="45.79775" lon="3.72809">
        <ele>961</ele>
        <time>2017-09-19T12:30:49Z</time>
      </trkpt>
      <trkpt lat="45.79779" lon="3.72818">
        <ele>961</ele>
        <time>2017-09-19T12:30:55Z</time>
      </trkpt>
      <trkpt lat="45.79783" lon="3.72827">
        <ele>961</ele>
        <time>2017-09-19T12:31:00Z</time>
      </trkpt>
      <trkpt lat="45.79784" lon="3.72831">
        <ele>961</ele>
        <time>2017-09-19T12:31:02Z</time>
      </trkpt>
      <trkpt lat="45.79789" lon="3.72844">
        <ele>961</ele>
        <time>2017-09-19T12:31:09Z</time>
      </trkpt>
      <trkpt lat="45.79789" lon="3.72846">
        <ele>961</ele>
        <time>2017-09-19T12:31:10Z</time>
      </trkpt>
      <trkpt lat="45.7979" lon="3.72847">
        <ele>961</ele>
        <time>2017-09-19T12:31:11Z</time>
      </trkpt>
      <trkpt lat="45.79794" lon="3.72859">
        <ele>961</ele>
        <time>2017-09-19T12:31:17Z</time>
      </trkpt>
      <trkpt lat="45.79795" lon="3.72862">
        <ele>962</ele>
        <time>2017-09-19T12:31:19Z</time>
      </trkpt>
      <trkpt lat="45.79802" lon="3.72878">
        <ele>963</ele>
        <time>2017-09-19T12:31:28Z</time>
      </trkpt>
      <trkpt lat="45.79803" lon="3.72881">
        <ele>963</ele>
        <time>2017-09-19T12:31:30Z</time>
      </trkpt>
      <trkpt lat="45.79805" lon="3.72891">
        <ele>964</ele>
        <time>2017-09-19T12:31:36Z</time>
      </trkpt>
      <trkpt lat="45.79808" lon="3.72897">
        <ele>964</ele>
        <time>2017-09-19T12:31:39Z</time>
      </trkpt>
      <trkpt lat="45.79811" lon="3.72906">
        <ele>964</ele>
        <time>2017-09-19T12:31:44Z</time>
      </trkpt>
      <trkpt lat="45.79812" lon="3.72908">
        <ele>965</ele>
        <time>2017-09-19T12:31:45Z</time>
      </trkpt>
      <trkpt lat="45.79818" lon="3.7292">
        <ele>965</ele>
        <time>2017-09-19T12:31:51Z</time>
      </trkpt>
      <trkpt lat="45.79818" lon="3.72921">
        <ele>965</ele>
        <time>2017-09-19T12:31:52Z</time>
      </trkpt>
      <trkpt lat="45.79826" lon="3.72946">
        <ele>966</ele>
        <time>2017-09-19T12:32:05Z</time>
      </trkpt>
      <trkpt lat="45.79831" lon="3.72955">
        <ele>967</ele>
        <time>2017-09-19T12:32:10Z</time>
      </trkpt>
      <trkpt lat="45.79832" lon="3.72966">
        <ele>967</ele>
        <time>2017-09-19T12:32:15Z</time>
      </trkpt>
      <trkpt lat="45.79833" lon="3.72982">
        <ele>967</ele>
        <time>2017-09-19T12:32:23Z</time>
      </trkpt>
      <trkpt lat="45.79834" lon="3.72993">
        <ele>967</ele>
        <time>2017-09-19T12:32:28Z</time>
      </trkpt>
      <trkpt lat="45.79835" lon="3.73004">
        <ele>968</ele>
        <time>2017-09-19T12:32:33Z</time>
      </trkpt>
      <trkpt lat="45.7984" lon="3.73016">
        <ele>968</ele>
        <time>2017-09-19T12:32:39Z</time>
      </trkpt>
      <trkpt lat="45.79844" lon="3.73033">
        <ele>968</ele>
        <time>2017-09-19T12:32:46Z</time>
      </trkpt>
      <trkpt lat="45.79844" lon="3.7304">
        <ele>968</ele>
        <time>2017-09-19T12:32:49Z</time>
      </trkpt>
      <trkpt lat="45.79846" lon="3.73055">
        <ele>968</ele>
        <time>2017-09-19T12:32:55Z</time>
      </trkpt>
      <trkpt lat="45.79847" lon="3.73085">
        <ele>968</ele>
        <time>2017-09-19T12:33:07Z</time>
      </trkpt>
      <trkpt lat="45.79848" lon="3.73101">
        <ele>968</ele>
        <time>2017-09-19T12:33:14Z</time>
      </trkpt>
      <trkpt lat="45.79847" lon="3.73111">
        <ele>968</ele>
        <time>2017-09-19T12:33:19Z</time>
      </trkpt>
      <trkpt lat="45.79849" lon="3.73129">
        <ele>967</ele>
        <time>2017-09-19T12:33:27Z</time>
      </trkpt>
      <trkpt lat="45.79851" lon="3.73134">
        <ele>967</ele>
        <time>2017-09-19T12:33:33Z</time>
      </trkpt>
      <trkpt lat="45.79852" lon="3.73145">
        <ele>967</ele>
        <time>2017-09-19T12:33:39Z</time>
      </trkpt>
      <trkpt lat="45.79854" lon="3.73157">
        <ele>966</ele>
        <time>2017-09-19T12:33:46Z</time>
      </trkpt>
      <trkpt lat="45.79857" lon="3.7317">
        <ele>966</ele>
        <time>2017-09-19T12:33:53Z</time>
      </trkpt>
      <trkpt lat="45.79862" lon="3.73181">
        <ele>966</ele>
        <time>2017-09-19T12:34:00Z</time>
      </trkpt>
      <trkpt lat="45.79868" lon="3.7319">
        <ele>966</ele>
        <time>2017-09-19T12:34:06Z</time>
      </trkpt>
      <trkpt lat="45.79872" lon="3.73203">
        <ele>966</ele>
        <time>2017-09-19T12:34:13Z</time>
      </trkpt>
      <trkpt lat="45.79878" lon="3.73211">
        <ele>966</ele>
        <time>2017-09-19T12:34:19Z</time>
      </trkpt>
      <trkpt lat="45.79883" lon="3.73219">
        <ele>965</ele>
        <time>2017-09-19T12:34:24Z</time>
      </trkpt>
      <trkpt lat="45.79889" lon="3.73226">
        <ele>965</ele>
        <time>2017-09-19T12:34:29Z</time>
      </trkpt>
      <trkpt lat="45.79896" lon="3.73232">
        <ele>965</ele>
        <time>2017-09-19T12:34:34Z</time>
      </trkpt>
      <trkpt lat="45.79905" lon="3.73241">
        <ele>966</ele>
        <time>2017-09-19T12:34:41Z</time>
      </trkpt>
      <trkpt lat="45.79917" lon="3.73248">
        <ele>966</ele>
        <time>2017-09-19T12:34:49Z</time>
      </trkpt>
      <trkpt lat="45.79927" lon="3.73257">
        <ele>966</ele>
        <time>2017-09-19T12:34:57Z</time>
      </trkpt>
      <trkpt lat="45.79947" lon="3.73274">
        <ele>967</ele>
        <time>2017-09-19T12:35:12Z</time>
      </trkpt>
      <trkpt lat="45.79957" lon="3.73281">
        <ele>968</ele>
        <time>2017-09-19T12:35:19Z</time>
      </trkpt>
      <trkpt lat="45.79965" lon="3.7329">
        <ele>968</ele>
        <time>2017-09-19T12:35:25Z</time>
      </trkpt>
      <trkpt lat="45.79972" lon="3.73298">
        <ele>969</ele>
        <time>2017-09-19T12:35:30Z</time>
      </trkpt>
      <trkpt lat="45.79978" lon="3.73303">
        <ele>969</ele>
        <time>2017-09-19T12:35:36Z</time>
      </trkpt>
      <trkpt lat="45.79982" lon="3.73309">
        <ele>969</ele>
        <time>2017-09-19T12:35:40Z</time>
      </trkpt>
      <trkpt lat="45.79988" lon="3.73309">
        <ele>968</ele>
        <time>2017-09-19T12:35:44Z</time>
      </trkpt>
      <trkpt lat="45.79992" lon="3.73311">
        <ele>968</ele>
        <time>2017-09-19T12:35:47Z</time>
      </trkpt>
      <trkpt lat="45.79995" lon="3.73309">
        <ele>968</ele>
        <time>2017-09-19T12:35:50Z</time>
      </trkpt>
      <trkpt lat="45.80001" lon="3.73306">
        <ele>968</ele>
        <time>2017-09-19T12:35:56Z</time>
      </trkpt>
      <trkpt lat="45.80008" lon="3.73305">
        <ele>968</ele>
        <time>2017-09-19T12:36:01Z</time>
      </trkpt>
      <trkpt lat="45.80016" lon="3.73299">
        <ele>968</ele>
        <time>2017-09-19T12:36:10Z</time>
      </trkpt>
      <trkpt lat="45.80017" lon="3.73299">
        <ele>968</ele>
        <time>2017-09-19T12:36:11Z</time>
      </trkpt>
      <trkpt lat="45.80019" lon="3.73299">
        <ele>968</ele>
        <time>2017-09-19T12:36:12Z</time>
      </trkpt>
      <trkpt lat="45.80024" lon="3.73299">
        <ele>968</ele>
        <time>2017-09-19T12:36:16Z</time>
      </trkpt>
      <trkpt lat="45.80026" lon="3.73299">
        <ele>968</ele>
        <time>2017-09-19T12:36:17Z</time>
      </trkpt>
      <trkpt lat="45.80033" lon="3.73299">
        <ele>968</ele>
        <time>2017-09-19T12:36:22Z</time>
      </trkpt>
      <trkpt lat="45.80035" lon="3.733">
        <ele>968</ele>
        <time>2017-09-19T12:36:23Z</time>
      </trkpt>
      <trkpt lat="45.80041" lon="3.733">
        <ele>968</ele>
        <time>2017-09-19T12:36:28Z</time>
      </trkpt>
      <trkpt lat="45.80042" lon="3.733">
        <ele>968</ele>
        <time>2017-09-19T12:36:29Z</time>
      </trkpt>
      <trkpt lat="45.80046" lon="3.73299">
        <ele>968</ele>
        <time>2017-09-19T12:36:33Z</time>
      </trkpt>
      <trkpt lat="45.80048" lon="3.73299">
        <ele>969</ele>
        <time>2017-09-19T12:36:34Z</time>
      </trkpt>
      <trkpt lat="45.80056" lon="3.73302">
        <ele>968</ele>
        <time>2017-09-19T12:36:39Z</time>
      </trkpt>
      <trkpt lat="45.80064" lon="3.73303">
        <ele>967</ele>
        <time>2017-09-19T12:36:43Z</time>
      </trkpt>
      <trkpt lat="45.80074" lon="3.73307">
        <ele>965</ele>
        <time>2017-09-19T12:36:49Z</time>
      </trkpt>
      <trkpt lat="45.80086" lon="3.73312">
        <ele>963</ele>
        <time>2017-09-19T12:36:56Z</time>
      </trkpt>
      <trkpt lat="45.80102" lon="3.73318">
        <ele>960</ele>
        <time>2017-09-19T12:37:05Z</time>
      </trkpt>
      <trkpt lat="45.80111" lon="3.73321">
        <ele>959</ele>
        <time>2017-09-19T12:37:11Z</time>
      </trkpt>
      <trkpt lat="45.80116" lon="3.73319">
        <ele>958</ele>
        <time>2017-09-19T12:37:15Z</time>
      </trkpt>
      <trkpt lat="45.80117" lon="3.73319">
        <ele>958</ele>
        <time>2017-09-19T12:37:17Z</time>
      </trkpt>
      <trkpt lat="45.8012" lon="3.73319">
        <ele>958</ele>
        <time>2017-09-19T12:37:24Z</time>
      </trkpt>
      <trkpt lat="45.80124" lon="3.73319">
        <ele>957</ele>
        <time>2017-09-19T12:37:29Z</time>
      </trkpt>
      <trkpt lat="45.80128" lon="3.73318">
        <ele>957</ele>
        <time>2017-09-19T12:37:33Z</time>
      </trkpt>
      <trkpt lat="45.8013" lon="3.73319">
        <ele>957</ele>
        <time>2017-09-19T12:37:34Z</time>
      </trkpt>
      <trkpt lat="45.80135" lon="3.7332">
        <ele>956</ele>
        <time>2017-09-19T12:37:39Z</time>
      </trkpt>
      <trkpt lat="45.80139" lon="3.73318">
        <ele>955</ele>
        <time>2017-09-19T12:37:44Z</time>
      </trkpt>
      <trkpt lat="45.80142" lon="3.73317">
        <ele>955</ele>
        <time>2017-09-19T12:37:47Z</time>
      </trkpt>
      <trkpt lat="45.80143" lon="3.73317">
        <ele>954</ele>
        <time>2017-09-19T12:37:49Z</time>
      </trkpt>
      <trkpt lat="45.80146" lon="3.73316">
        <ele>954</ele>
        <time>2017-09-19T12:37:51Z</time>
      </trkpt>
      <trkpt lat="45.8015" lon="3.73317">
        <ele>953</ele>
        <time>2017-09-19T12:37:56Z</time>
      </trkpt>
      <trkpt lat="45.80156" lon="3.73322">
        <ele>951</ele>
        <time>2017-09-19T12:38:04Z</time>
      </trkpt>
      <trkpt lat="45.80158" lon="3.73323">
        <ele>951</ele>
        <time>2017-09-19T12:38:06Z</time>
      </trkpt>
      <trkpt lat="45.80168" lon="3.73322">
        <ele>949</ele>
        <time>2017-09-19T12:38:12Z</time>
      </trkpt>
      <trkpt lat="45.8017" lon="3.73321">
        <ele>948</ele>
        <time>2017-09-19T12:38:14Z</time>
      </trkpt>
      <trkpt lat="45.80181" lon="3.73319">
        <ele>946</ele>
        <time>2017-09-19T12:38:21Z</time>
      </trkpt>
      <trkpt lat="45.80182" lon="3.73318">
        <ele>946</ele>
        <time>2017-09-19T12:38:22Z</time>
      </trkpt>
      <trkpt lat="45.80186" lon="3.73317">
        <ele>945</ele>
        <time>2017-09-19T12:38:26Z</time>
      </trkpt>
      <trkpt lat="45.80193" lon="3.73317">
        <ele>944</ele>
        <time>2017-09-19T12:38:32Z</time>
      </trkpt>
      <trkpt lat="45.80195" lon="3.73319">
        <ele>943</ele>
        <time>2017-09-19T12:38:37Z</time>
      </trkpt>
      <trkpt lat="45.80196" lon="3.73321">
        <ele>943</ele>
        <time>2017-09-19T12:38:38Z</time>
      </trkpt>
      <trkpt lat="45.80202" lon="3.73323">
        <ele>941</ele>
        <time>2017-09-19T12:38:42Z</time>
      </trkpt>
      <trkpt lat="45.80207" lon="3.73323">
        <ele>941</ele>
        <time>2017-09-19T12:38:47Z</time>
      </trkpt>
      <trkpt lat="45.80213" lon="3.73324">
        <ele>939</ele>
        <time>2017-09-19T12:38:54Z</time>
      </trkpt>
      <trkpt lat="45.80214" lon="3.73323">
        <ele>939</ele>
        <time>2017-09-19T12:38:55Z</time>
      </trkpt>
      <trkpt lat="45.80218" lon="3.73322">
        <ele>938</ele>
        <time>2017-09-19T12:38:59Z</time>
      </trkpt>
      <trkpt lat="45.8022" lon="3.73321">
        <ele>938</ele>
        <time>2017-09-19T12:39:01Z</time>
      </trkpt>
      <trkpt lat="45.8023" lon="3.7332">
        <ele>936</ele>
        <time>2017-09-19T12:39:07Z</time>
      </trkpt>
      <trkpt lat="45.80231" lon="3.7332">
        <ele>936</ele>
        <time>2017-09-19T12:39:08Z</time>
      </trkpt>
      <trkpt lat="45.80237" lon="3.73322">
        <ele>935</ele>
        <time>2017-09-19T12:39:12Z</time>
      </trkpt>
      <trkpt lat="45.8024" lon="3.73321">
        <ele>934</ele>
        <time>2017-09-19T12:39:15Z</time>
      </trkpt>
      <trkpt lat="45.8025" lon="3.7332">
        <ele>933</ele>
        <time>2017-09-19T12:39:21Z</time>
      </trkpt>
      <trkpt lat="45.80259" lon="3.73325">
        <ele>931</ele>
        <time>2017-09-19T12:39:28Z</time>
      </trkpt>
      <trkpt lat="45.80263" lon="3.73332">
        <ele>929</ele>
        <time>2017-09-19T12:39:32Z</time>
      </trkpt>
      <trkpt lat="45.80274" lon="3.73349">
        <ele>926</ele>
        <time>2017-09-19T12:39:40Z</time>
      </trkpt>
      <trkpt lat="45.8028" lon="3.73358">
        <ele>925</ele>
        <time>2017-09-19T12:39:45Z</time>
      </trkpt>
      <trkpt lat="45.80286" lon="3.73366">
        <ele>923</ele>
        <time>2017-09-19T12:39:50Z</time>
      </trkpt>
      <trkpt lat="45.80296" lon="3.73382">
        <ele>920</ele>
        <time>2017-09-19T12:40:01Z</time>
      </trkpt>
      <trkpt lat="45.80296" lon="3.73383">
        <ele>919</ele>
        <time>2017-09-19T12:40:02Z</time>
      </trkpt>
      <trkpt lat="45.80296" lon="3.73388">
        <ele>919</ele>
        <time>2017-09-19T12:40:07Z</time>
      </trkpt>
      <trkpt lat="45.80299" lon="3.73402">
        <ele>917</ele>
        <time>2017-09-19T12:40:14Z</time>
      </trkpt>
      <trkpt lat="45.80299" lon="3.73403">
        <ele>917</ele>
        <time>2017-09-19T12:40:15Z</time>
      </trkpt>
      <trkpt lat="45.80301" lon="3.73415">
        <ele>916</ele>
        <time>2017-09-19T12:40:21Z</time>
      </trkpt>
      <trkpt lat="45.80301" lon="3.73417">
        <ele>915</ele>
        <time>2017-09-19T12:40:22Z</time>
      </trkpt>
      <trkpt lat="45.80302" lon="3.73431">
        <ele>914</ele>
        <time>2017-09-19T12:40:29Z</time>
      </trkpt>
      <trkpt lat="45.80302" lon="3.73434">
        <ele>913</ele>
        <time>2017-09-19T12:40:31Z</time>
      </trkpt>
      <trkpt lat="45.80302" lon="3.73441">
        <ele>913</ele>
        <time>2017-09-19T12:40:36Z</time>
      </trkpt>
      <trkpt lat="45.80301" lon="3.73454">
        <ele>912</ele>
        <time>2017-09-19T12:40:43Z</time>
      </trkpt>
      <trkpt lat="45.803" lon="3.73459">
        <ele>912</ele>
        <time>2017-09-19T12:40:46Z</time>
      </trkpt>
      <trkpt lat="45.80296" lon="3.73473">
        <ele>911</ele>
        <time>2017-09-19T12:40:54Z</time>
      </trkpt>
      <trkpt lat="45.80295" lon="3.73477">
        <ele>911</ele>
        <time>2017-09-19T12:40:56Z</time>
      </trkpt>
      <trkpt lat="45.80296" lon="3.73482">
        <ele>911</ele>
        <time>2017-09-19T12:41:02Z</time>
      </trkpt>
      <trkpt lat="45.80296" lon="3.73485">
        <ele>910</ele>
        <time>2017-09-19T12:41:09Z</time>
      </trkpt>
      <trkpt lat="45.80294" lon="3.73495">
        <ele>910</ele>
        <time>2017-09-19T12:41:15Z</time>
      </trkpt>
      <trkpt lat="45.80293" lon="3.73507">
        <ele>909</ele>
        <time>2017-09-19T12:41:22Z</time>
      </trkpt>
      <trkpt lat="45.80291" lon="3.73515">
        <ele>909</ele>
        <time>2017-09-19T12:41:27Z</time>
      </trkpt>
      <trkpt lat="45.80287" lon="3.73526">
        <ele>908</ele>
        <time>2017-09-19T12:41:34Z</time>
      </trkpt>
      <trkpt lat="45.80287" lon="3.73528">
        <ele>908</ele>
        <time>2017-09-19T12:41:35Z</time>
      </trkpt>
      <trkpt lat="45.80286" lon="3.73534">
        <ele>907</ele>
        <time>2017-09-19T12:41:38Z</time>
      </trkpt>
      <trkpt lat="45.80286" lon="3.73537">
        <ele>907</ele>
        <time>2017-09-19T12:41:40Z</time>
      </trkpt>
      <trkpt lat="45.80284" lon="3.73545">
        <ele>906</ele>
        <time>2017-09-19T12:41:44Z</time>
      </trkpt>
      <trkpt lat="45.80282" lon="3.73553">
        <ele>906</ele>
        <time>2017-09-19T12:41:49Z</time>
      </trkpt>
      <trkpt lat="45.80282" lon="3.73563">
        <ele>904</ele>
        <time>2017-09-19T12:41:54Z</time>
      </trkpt>
      <trkpt lat="45.80281" lon="3.73565">
        <ele>904</ele>
        <time>2017-09-19T12:41:55Z</time>
      </trkpt>
      <trkpt lat="45.8028" lon="3.73576">
        <ele>903</ele>
        <time>2017-09-19T12:42:01Z</time>
      </trkpt>
      <trkpt lat="45.80278" lon="3.73581">
        <ele>903</ele>
        <time>2017-09-19T12:42:04Z</time>
      </trkpt>
      <trkpt lat="45.80278" lon="3.73593">
        <ele>902</ele>
        <time>2017-09-19T12:42:10Z</time>
      </trkpt>
      <trkpt lat="45.80276" lon="3.73608">
        <ele>901</ele>
        <time>2017-09-19T12:42:17Z</time>
      </trkpt>
      <trkpt lat="45.80272" lon="3.73616">
        <ele>901</ele>
        <time>2017-09-19T12:42:22Z</time>
      </trkpt>
      <trkpt lat="45.80268" lon="3.73629">
        <ele>899</ele>
        <time>2017-09-19T12:42:29Z</time>
      </trkpt>
      <trkpt lat="45.80268" lon="3.7363">
        <ele>899</ele>
        <time>2017-09-19T12:42:30Z</time>
      </trkpt>
      <trkpt lat="45.80267" lon="3.73632">
        <ele>899</ele>
        <time>2017-09-19T12:42:31Z</time>
      </trkpt>
      <trkpt lat="45.80261" lon="3.73644">
        <ele>898</ele>
        <time>2017-09-19T12:42:38Z</time>
      </trkpt>
      <trkpt lat="45.80256" lon="3.73655">
        <ele>898</ele>
        <time>2017-09-19T12:42:44Z</time>
      </trkpt>
      <trkpt lat="45.8025" lon="3.73666">
        <ele>898</ele>
        <time>2017-09-19T12:42:51Z</time>
      </trkpt>
      <trkpt lat="45.80246" lon="3.7368">
        <ele>897</ele>
        <time>2017-09-19T12:42:58Z</time>
      </trkpt>
      <trkpt lat="45.80245" lon="3.73683">
        <ele>896</ele>
        <time>2017-09-19T12:43:00Z</time>
      </trkpt>
      <trkpt lat="45.80238" lon="3.73696">
        <ele>897</ele>
        <time>2017-09-19T12:43:08Z</time>
      </trkpt>
      <trkpt lat="45.80232" lon="3.73704">
        <ele>896</ele>
        <time>2017-09-19T12:43:15Z</time>
      </trkpt>
      <trkpt lat="45.80231" lon="3.73706">
        <ele>896</ele>
        <time>2017-09-19T12:43:17Z</time>
      </trkpt>
      <trkpt lat="45.80226" lon="3.73714">
        <ele>895</ele>
        <time>2017-09-19T12:43:24Z</time>
      </trkpt>
      <trkpt lat="45.8022" lon="3.73725">
        <ele>893</ele>
        <time>2017-09-19T12:43:31Z</time>
      </trkpt>
      <trkpt lat="45.8021" lon="3.73738">
        <ele>890</ele>
        <time>2017-09-19T12:43:39Z</time>
      </trkpt>
      <trkpt lat="45.80199" lon="3.7375">
        <ele>888</ele>
        <time>2017-09-19T12:43:47Z</time>
      </trkpt>
      <trkpt lat="45.80187" lon="3.73765">
        <ele>886</ele>
        <time>2017-09-19T12:43:58Z</time>
      </trkpt>
      <trkpt lat="45.80182" lon="3.73776">
        <ele>885</ele>
        <time>2017-09-19T12:44:06Z</time>
      </trkpt>
      <trkpt lat="45.80179" lon="3.73781">
        <ele>885</ele>
        <time>2017-09-19T12:44:14Z</time>
      </trkpt>
      <trkpt lat="45.80176" lon="3.73774">
        <ele>886</ele>
        <time>2017-09-19T12:49:48Z</time>
      </trkpt>
      <trkpt lat="45.80178" lon="3.73773">
        <ele>886</ele>
        <time>2017-09-19T12:49:54Z</time>
      </trkpt>
      <trkpt lat="45.80176" lon="3.73779">
        <ele>885</ele>
        <time>2017-09-19T12:49:59Z</time>
      </trkpt>
      <trkpt lat="45.80173" lon="3.73787">
        <ele>885</ele>
        <time>2017-09-19T12:50:05Z</time>
      </trkpt>
      <trkpt lat="45.80172" lon="3.73789">
        <ele>885</ele>
        <time>2017-09-19T12:50:06Z</time>
      </trkpt>
      <trkpt lat="45.8017" lon="3.738">
        <ele>884</ele>
        <time>2017-09-19T12:50:12Z</time>
      </trkpt>
      <trkpt lat="45.8017" lon="3.73802">
        <ele>884</ele>
        <time>2017-09-19T12:50:17Z</time>
      </trkpt>
      <trkpt lat="45.8017" lon="3.73803">
        <ele>884</ele>
        <time>2017-09-19T12:50:24Z</time>
      </trkpt>
      <trkpt lat="45.80168" lon="3.73816">
        <ele>882</ele>
        <time>2017-09-19T12:50:31Z</time>
      </trkpt>
      <trkpt lat="45.80167" lon="3.7384">
        <ele>878</ele>
        <time>2017-09-19T12:50:43Z</time>
      </trkpt>
      <trkpt lat="45.8017" lon="3.73854">
        <ele>876</ele>
        <time>2017-09-19T12:50:50Z</time>
      </trkpt>
      <trkpt lat="45.80175" lon="3.73874">
        <ele>874</ele>
        <time>2017-09-19T12:51:00Z</time>
      </trkpt>
      <trkpt lat="45.80176" lon="3.73876">
        <ele>874</ele>
        <time>2017-09-19T12:51:01Z</time>
      </trkpt>
      <trkpt lat="45.80179" lon="3.73886">
        <ele>874</ele>
        <time>2017-09-19T12:51:06Z</time>
      </trkpt>
      <trkpt lat="45.80183" lon="3.73902">
        <ele>873</ele>
        <time>2017-09-19T12:51:14Z</time>
      </trkpt>
      <trkpt lat="45.80186" lon="3.73914">
        <ele>872</ele>
        <time>2017-09-19T12:51:20Z</time>
      </trkpt>
      <trkpt lat="45.80194" lon="3.73933">
        <ele>871</ele>
        <time>2017-09-19T12:51:30Z</time>
      </trkpt>
      <trkpt lat="45.80201" lon="3.73951">
        <ele>869</ele>
        <time>2017-09-19T12:51:39Z</time>
      </trkpt>
      <trkpt lat="45.80209" lon="3.73967">
        <ele>868</ele>
        <time>2017-09-19T12:51:48Z</time>
      </trkpt>
      <trkpt lat="45.8021" lon="3.73982">
        <ele>868</ele>
        <time>2017-09-19T12:51:55Z</time>
      </trkpt>
      <trkpt lat="45.80207" lon="3.73995">
        <ele>867</ele>
        <time>2017-09-19T12:52:01Z</time>
      </trkpt>
      <trkpt lat="45.80205" lon="3.74">
        <ele>867</ele>
        <time>2017-09-19T12:52:06Z</time>
      </trkpt>
      <trkpt lat="45.80207" lon="3.74008">
        <ele>866</ele>
        <time>2017-09-19T12:52:19Z</time>
      </trkpt>
      <trkpt lat="45.8021" lon="3.74027">
        <ele>865</ele>
        <time>2017-09-19T12:52:27Z</time>
      </trkpt>
      <trkpt lat="45.80212" lon="3.74042">
        <ele>864</ele>
        <time>2017-09-19T12:52:34Z</time>
      </trkpt>
      <trkpt lat="45.80216" lon="3.74058">
        <ele>864</ele>
        <time>2017-09-19T12:52:41Z</time>
      </trkpt>
      <trkpt lat="45.80222" lon="3.74076">
        <ele>863</ele>
        <time>2017-09-19T12:52:50Z</time>
      </trkpt>
      <trkpt lat="45.80225" lon="3.74084">
        <ele>862</ele>
        <time>2017-09-19T12:52:56Z</time>
      </trkpt>
      <trkpt lat="45.80226" lon="3.74086">
        <ele>862</ele>
        <time>2017-09-19T12:53:18Z</time>
      </trkpt>
      <trkpt lat="45.80224" lon="3.74093">
        <ele>862</ele>
        <time>2017-09-19T12:53:32Z</time>
      </trkpt>
      <trkpt lat="45.80224" lon="3.74094">
        <ele>862</ele>
        <time>2017-09-19T12:53:33Z</time>
      </trkpt>
      <trkpt lat="45.80224" lon="3.74096">
        <ele>862</ele>
        <time>2017-09-19T12:53:37Z</time>
      </trkpt>
      <trkpt lat="45.80226" lon="3.74109">
        <ele>860</ele>
        <time>2017-09-19T12:53:43Z</time>
      </trkpt>
      <trkpt lat="45.80224" lon="3.74135">
        <ele>856</ele>
        <time>2017-09-19T12:53:57Z</time>
      </trkpt>
      <trkpt lat="45.80226" lon="3.7414">
        <ele>855</ele>
        <time>2017-09-19T12:54:04Z</time>
      </trkpt>
      <trkpt lat="45.80229" lon="3.74147">
        <ele>853</ele>
        <time>2017-09-19T12:54:11Z</time>
      </trkpt>
      <trkpt lat="45.80233" lon="3.74164">
        <ele>850</ele>
        <time>2017-09-19T12:54:19Z</time>
      </trkpt>
      <trkpt lat="45.80234" lon="3.74177">
        <ele>848</ele>
        <time>2017-09-19T12:54:25Z</time>
      </trkpt>
      <trkpt lat="45.80235" lon="3.74191">
        <ele>845</ele>
        <time>2017-09-19T12:54:32Z</time>
      </trkpt>
      <trkpt lat="45.80236" lon="3.74208">
        <ele>842</ele>
        <time>2017-09-19T12:54:40Z</time>
      </trkpt>
      <trkpt lat="45.80236" lon="3.7423">
        <ele>838</ele>
        <time>2017-09-19T12:54:49Z</time>
      </trkpt>
      <trkpt lat="45.80237" lon="3.74251">
        <ele>834</ele>
        <time>2017-09-19T12:54:59Z</time>
      </trkpt>
      <trkpt lat="45.80236" lon="3.74257">
        <ele>833</ele>
        <time>2017-09-19T12:55:02Z</time>
      </trkpt>
      <trkpt lat="45.80235" lon="3.7427">
        <ele>831</ele>
        <time>2017-09-19T12:55:08Z</time>
      </trkpt>
      <trkpt lat="45.80232" lon="3.7428">
        <ele>829</ele>
        <time>2017-09-19T12:55:15Z</time>
      </trkpt>
      <trkpt lat="45.80225" lon="3.7429">
        <ele>828</ele>
        <time>2017-09-19T12:55:21Z</time>
      </trkpt>
      <trkpt lat="45.80213" lon="3.74302">
        <ele>826</ele>
        <time>2017-09-19T12:55:29Z</time>
      </trkpt>
      <trkpt lat="45.80208" lon="3.74315">
        <ele>823</ele>
        <time>2017-09-19T12:55:35Z</time>
      </trkpt>
      <trkpt lat="45.80205" lon="3.74331">
        <ele>820</ele>
        <time>2017-09-19T12:55:42Z</time>
      </trkpt>
      <trkpt lat="45.80209" lon="3.74348">
        <ele>817</ele>
        <time>2017-09-19T12:55:49Z</time>
      </trkpt>
      <trkpt lat="45.80219" lon="3.74363">
        <ele>815</ele>
        <time>2017-09-19T12:55:59Z</time>
      </trkpt>
      <trkpt lat="45.80231" lon="3.74364">
        <ele>814</ele>
        <time>2017-09-19T12:56:07Z</time>
      </trkpt>
      <trkpt lat="45.80235" lon="3.7436">
        <ele>814</ele>
        <time>2017-09-19T12:56:10Z</time>
      </trkpt>
      <trkpt lat="45.80246" lon="3.74353">
        <ele>813</ele>
        <time>2017-09-19T12:56:19Z</time>
      </trkpt>
      <trkpt lat="45.80253" lon="3.74353">
        <ele>812</ele>
        <time>2017-09-19T12:56:24Z</time>
      </trkpt>
      <trkpt lat="45.80257" lon="3.74353">
        <ele>811</ele>
        <time>2017-09-19T12:56:27Z</time>
      </trkpt>
      <trkpt lat="45.80264" lon="3.74346">
        <ele>812</ele>
        <time>2017-09-19T12:56:34Z</time>
      </trkpt>
      <trkpt lat="45.80272" lon="3.74338">
        <ele>812</ele>
        <time>2017-09-19T12:56:40Z</time>
      </trkpt>
      <trkpt lat="45.80274" lon="3.74336">
        <ele>812</ele>
        <time>2017-09-19T12:56:42Z</time>
      </trkpt>
      <trkpt lat="45.80277" lon="3.74335">
        <ele>812</ele>
        <time>2017-09-19T12:56:44Z</time>
      </trkpt>
      <trkpt lat="45.80286" lon="3.74334">
        <ele>811</ele>
        <time>2017-09-19T12:56:50Z</time>
      </trkpt>
      <trkpt lat="45.803" lon="3.74326">
        <ele>809</ele>
        <time>2017-09-19T12:56:58Z</time>
      </trkpt>
      <trkpt lat="45.80318" lon="3.74319">
        <ele>809</ele>
        <time>2017-09-19T12:57:08Z</time>
      </trkpt>
      <trkpt lat="45.80329" lon="3.74314">
        <ele>809</ele>
        <time>2017-09-19T12:57:15Z</time>
      </trkpt>
      <trkpt lat="45.8034" lon="3.74307">
        <ele>809</ele>
        <time>2017-09-19T12:57:20Z</time>
      </trkpt>
      <trkpt lat="45.80353" lon="3.74303">
        <ele>808</ele>
        <time>2017-09-19T12:57:27Z</time>
      </trkpt>
      <trkpt lat="45.8037" lon="3.74296">
        <ele>806</ele>
        <time>2017-09-19T12:57:37Z</time>
      </trkpt>
      <trkpt lat="45.80385" lon="3.74289">
        <ele>804</ele>
        <time>2017-09-19T12:57:46Z</time>
      </trkpt>
      <trkpt lat="45.80397" lon="3.74286">
        <ele>802</ele>
        <time>2017-09-19T12:57:53Z</time>
      </trkpt>
      <trkpt lat="45.80413" lon="3.74279">
        <ele>801</ele>
        <time>2017-09-19T12:58:03Z</time>
      </trkpt>
      <trkpt lat="45.80425" lon="3.74276">
        <ele>800</ele>
        <time>2017-09-19T12:58:10Z</time>
      </trkpt>
      <trkpt lat="45.80439" lon="3.74273">
        <ele>799</ele>
        <time>2017-09-19T12:58:18Z</time>
      </trkpt>
      <trkpt lat="45.80453" lon="3.74275">
        <ele>797</ele>
        <time>2017-09-19T12:58:26Z</time>
      </trkpt>
      <trkpt lat="45.80471" lon="3.74276">
        <ele>795</ele>
        <time>2017-09-19T12:58:36Z</time>
      </trkpt>
      <trkpt lat="45.80486" lon="3.74272">
        <ele>794</ele>
        <time>2017-09-19T12:58:45Z</time>
      </trkpt>
      <trkpt lat="45.805" lon="3.74267">
        <ele>793</ele>
        <time>2017-09-19T12:58:54Z</time>
      </trkpt>
      <trkpt lat="45.80519" lon="3.74243">
        <ele>791</ele>
        <time>2017-09-19T12:59:12Z</time>
      </trkpt>
      <trkpt lat="45.80524" lon="3.74222">
        <ele>791</ele>
        <time>2017-09-19T12:59:23Z</time>
      </trkpt>
      <trkpt lat="45.80524" lon="3.74211">
        <ele>792</ele>
        <time>2017-09-19T12:59:30Z</time>
      </trkpt>
      <trkpt lat="45.80523" lon="3.74199">
        <ele>793</ele>
        <time>2017-09-19T12:59:37Z</time>
      </trkpt>
      <trkpt lat="45.8052" lon="3.74187">
        <ele>794</ele>
        <time>2017-09-19T12:59:45Z</time>
      </trkpt>
      <trkpt lat="45.80519" lon="3.74185">
        <ele>794</ele>
        <time>2017-09-19T12:59:46Z</time>
      </trkpt>
      <trkpt lat="45.80515" lon="3.74173">
        <ele>795</ele>
        <time>2017-09-19T12:59:53Z</time>
      </trkpt>
      <trkpt lat="45.80514" lon="3.7416">
        <ele>796</ele>
        <time>2017-09-19T12:59:59Z</time>
      </trkpt>
      <trkpt lat="45.80517" lon="3.74149">
        <ele>797</ele>
        <time>2017-09-19T13:00:04Z</time>
      </trkpt>
      <trkpt lat="45.80523" lon="3.74145">
        <ele>797</ele>
        <time>2017-09-19T13:00:09Z</time>
      </trkpt>
      <trkpt lat="45.80535" lon="3.74143">
        <ele>797</ele>
        <time>2017-09-19T13:00:17Z</time>
      </trkpt>
      <trkpt lat="45.80546" lon="3.7415">
        <ele>797</ele>
        <time>2017-09-19T13:00:25Z</time>
      </trkpt>
      <trkpt lat="45.80555" lon="3.74156">
        <ele>796</ele>
        <time>2017-09-19T13:00:32Z</time>
      </trkpt>
      <trkpt lat="45.80564" lon="3.74161">
        <ele>796</ele>
        <time>2017-09-19T13:00:38Z</time>
      </trkpt>
      <trkpt lat="45.80576" lon="3.74161">
        <ele>798</ele>
        <time>2017-09-19T13:00:46Z</time>
      </trkpt>
      <trkpt lat="45.80585" lon="3.74155">
        <ele>800</ele>
        <time>2017-09-19T13:00:53Z</time>
      </trkpt>
      <trkpt lat="45.80595" lon="3.74146">
        <ele>803</ele>
        <time>2017-09-19T13:01:01Z</time>
      </trkpt>
      <trkpt lat="45.8061" lon="3.74137">
        <ele>803</ele>
        <time>2017-09-19T13:01:13Z</time>
      </trkpt>
      <trkpt lat="45.80618" lon="3.74142">
        <ele>803</ele>
        <time>2017-09-19T13:01:19Z</time>
      </trkpt>
      <trkpt lat="45.80622" lon="3.74157">
        <ele>803</ele>
        <time>2017-09-19T13:01:26Z</time>
      </trkpt>
      <trkpt lat="45.80623" lon="3.74164">
        <ele>803</ele>
        <time>2017-09-19T13:01:29Z</time>
      </trkpt>
      <trkpt lat="45.80622" lon="3.74186">
        <ele>801</ele>
        <time>2017-09-19T13:01:40Z</time>
      </trkpt>
      <trkpt lat="45.80621" lon="3.74205">
        <ele>802</ele>
        <time>2017-09-19T13:01:49Z</time>
      </trkpt>
      <trkpt lat="45.80619" lon="3.74232">
        <ele>802</ele>
        <time>2017-09-19T13:02:02Z</time>
      </trkpt>
      <trkpt lat="45.80617" lon="3.74257">
        <ele>802</ele>
        <time>2017-09-19T13:02:14Z</time>
      </trkpt>
      <trkpt lat="45.80615" lon="3.7428">
        <ele>801</ele>
        <time>2017-09-19T13:02:25Z</time>
      </trkpt>
      <trkpt lat="45.80614" lon="3.74289">
        <ele>800</ele>
        <time>2017-09-19T13:02:32Z</time>
      </trkpt>
      <trkpt lat="45.80613" lon="3.74293">
        <ele>800</ele>
        <time>2017-09-19T13:02:40Z</time>
      </trkpt>
      <trkpt lat="45.8061" lon="3.74304">
        <ele>799</ele>
        <time>2017-09-19T13:02:46Z</time>
      </trkpt>
      <trkpt lat="45.80608" lon="3.74321">
        <ele>799</ele>
        <time>2017-09-19T13:02:54Z</time>
      </trkpt>
      <trkpt lat="45.80609" lon="3.74348">
        <ele>800</ele>
        <time>2017-09-19T13:03:07Z</time>
      </trkpt>
      <trkpt lat="45.8061" lon="3.74364">
        <ele>800</ele>
        <time>2017-09-19T13:03:15Z</time>
      </trkpt>
      <trkpt lat="45.80614" lon="3.7438">
        <ele>801</ele>
        <time>2017-09-19T13:03:24Z</time>
      </trkpt>
      <trkpt lat="45.80624" lon="3.74392">
        <ele>802</ele>
        <time>2017-09-19T13:03:34Z</time>
      </trkpt>
      <trkpt lat="45.80625" lon="3.74393">
        <ele>802</ele>
        <time>2017-09-19T13:03:41Z</time>
      </trkpt>
      <trkpt lat="45.80629" lon="3.74398">
        <ele>803</ele>
        <time>2017-09-19T13:03:49Z</time>
      </trkpt>
      <trkpt lat="45.80643" lon="3.74407">
        <ele>805</ele>
        <time>2017-09-19T13:03:59Z</time>
      </trkpt>
      <trkpt lat="45.80657" lon="3.74414">
        <ele>806</ele>
        <time>2017-09-19T13:04:09Z</time>
      </trkpt>
      <trkpt lat="45.80672" lon="3.74422">
        <ele>807</ele>
        <time>2017-09-19T13:04:19Z</time>
      </trkpt>
      <trkpt lat="45.80685" lon="3.74427">
        <ele>808</ele>
        <time>2017-09-19T13:04:28Z</time>
      </trkpt>
      <trkpt lat="45.80696" lon="3.74434">
        <ele>808</ele>
        <time>2017-09-19T13:04:36Z</time>
      </trkpt>
      <trkpt lat="45.80697" lon="3.74436">
        <ele>809</ele>
        <time>2017-09-19T13:04:37Z</time>
      </trkpt>
      <trkpt lat="45.80702" lon="3.74441">
        <ele>809</ele>
        <time>2017-09-19T13:04:41Z</time>
      </trkpt>
      <trkpt lat="45.80714" lon="3.74454">
        <ele>808</ele>
        <time>2017-09-19T13:04:50Z</time>
      </trkpt>
      <trkpt lat="45.80722" lon="3.74471">
        <ele>807</ele>
        <time>2017-09-19T13:04:59Z</time>
      </trkpt>
      <trkpt lat="45.80728" lon="3.74484">
        <ele>807</ele>
        <time>2017-09-19T13:05:06Z</time>
      </trkpt>
      <trkpt lat="45.80729" lon="3.74485">
        <ele>806</ele>
        <time>2017-09-19T13:05:07Z</time>
      </trkpt>
      <trkpt lat="45.80734" lon="3.74494">
        <ele>806</ele>
        <time>2017-09-19T13:05:12Z</time>
      </trkpt>
      <trkpt lat="45.80738" lon="3.74501">
        <ele>805</ele>
        <time>2017-09-19T13:05:17Z</time>
      </trkpt>
      <trkpt lat="45.80745" lon="3.74519">
        <ele>804</ele>
        <time>2017-09-19T13:05:26Z</time>
      </trkpt>
      <trkpt lat="45.8074" lon="3.7453">
        <ele>803</ele>
        <time>2017-09-19T13:05:32Z</time>
      </trkpt>
      <trkpt lat="45.80734" lon="3.74545">
        <ele>802</ele>
        <time>2017-09-19T13:05:39Z</time>
      </trkpt>
      <trkpt lat="45.80726" lon="3.74557">
        <ele>802</ele>
        <time>2017-09-19T13:05:46Z</time>
      </trkpt>
      <trkpt lat="45.80711" lon="3.74596">
        <ele>800</ele>
        <time>2017-09-19T13:06:06Z</time>
      </trkpt>
      <trkpt lat="45.80705" lon="3.74613">
        <ele>799</ele>
        <time>2017-09-19T13:06:15Z</time>
      </trkpt>
      <trkpt lat="45.80698" lon="3.74627">
        <ele>798</ele>
        <time>2017-09-19T13:06:22Z</time>
      </trkpt>
      <trkpt lat="45.80692" lon="3.74641">
        <ele>796</ele>
        <time>2017-09-19T13:06:30Z</time>
      </trkpt>
      <trkpt lat="45.80686" lon="3.74651">
        <ele>795</ele>
        <time>2017-09-19T13:06:36Z</time>
      </trkpt>
      <trkpt lat="45.80683" lon="3.74664">
        <ele>795</ele>
        <time>2017-09-19T13:06:42Z</time>
      </trkpt>
      <trkpt lat="45.80677" lon="3.74679">
        <ele>794</ele>
        <time>2017-09-19T13:06:50Z</time>
      </trkpt>
      <trkpt lat="45.80672" lon="3.74691">
        <ele>794</ele>
        <time>2017-09-19T13:06:56Z</time>
      </trkpt>
      <trkpt lat="45.80667" lon="3.74705">
        <ele>793</ele>
        <time>2017-09-19T13:07:03Z</time>
      </trkpt>
      <trkpt lat="45.80663" lon="3.74721">
        <ele>792</ele>
        <time>2017-09-19T13:07:11Z</time>
      </trkpt>
      <trkpt lat="45.80661" lon="3.74739">
        <ele>790</ele>
        <time>2017-09-19T13:07:19Z</time>
      </trkpt>
      <trkpt lat="45.8066" lon="3.74759">
        <ele>788</ele>
        <time>2017-09-19T13:07:27Z</time>
      </trkpt>
      <trkpt lat="45.80659" lon="3.74778">
        <ele>787</ele>
        <time>2017-09-19T13:07:35Z</time>
      </trkpt>
      <trkpt lat="45.80659" lon="3.74794">
        <ele>786</ele>
        <time>2017-09-19T13:07:42Z</time>
      </trkpt>
      <trkpt lat="45.80659" lon="3.74796">
        <ele>786</ele>
        <time>2017-09-19T13:07:43Z</time>
      </trkpt>
      <trkpt lat="45.8066" lon="3.74809">
        <ele>785</ele>
        <time>2017-09-19T13:07:50Z</time>
      </trkpt>
      <trkpt lat="45.80661" lon="3.7483">
        <ele>784</ele>
        <time>2017-09-19T13:07:58Z</time>
      </trkpt>
      <trkpt lat="45.8066" lon="3.7485">
        <ele>783</ele>
        <time>2017-09-19T13:08:07Z</time>
      </trkpt>
      <trkpt lat="45.80659" lon="3.74869">
        <ele>782</ele>
        <time>2017-09-19T13:08:15Z</time>
      </trkpt>
      <trkpt lat="45.80658" lon="3.74888">
        <ele>781</ele>
        <time>2017-09-19T13:08:23Z</time>
      </trkpt>
      <trkpt lat="45.80656" lon="3.74904">
        <ele>781</ele>
        <time>2017-09-19T13:08:30Z</time>
      </trkpt>
      <trkpt lat="45.80655" lon="3.74925">
        <ele>780</ele>
        <time>2017-09-19T13:08:39Z</time>
      </trkpt>
      <trkpt lat="45.80653" lon="3.74945">
        <ele>779</ele>
        <time>2017-09-19T13:08:48Z</time>
      </trkpt>
      <trkpt lat="45.80652" lon="3.74968">
        <ele>778</ele>
        <time>2017-09-19T13:08:58Z</time>
      </trkpt>
      <trkpt lat="45.8065" lon="3.74991">
        <ele>778</ele>
        <time>2017-09-19T13:09:09Z</time>
      </trkpt>
      <trkpt lat="45.80649" lon="3.75009">
        <ele>777</ele>
        <time>2017-09-19T13:09:17Z</time>
      </trkpt>
      <trkpt lat="45.80651" lon="3.7503">
        <ele>776</ele>
        <time>2017-09-19T13:09:25Z</time>
      </trkpt>
      <trkpt lat="45.80649" lon="3.7505">
        <ele>775</ele>
        <time>2017-09-19T13:09:33Z</time>
      </trkpt>
      <trkpt lat="45.80646" lon="3.75076">
        <ele>773</ele>
        <time>2017-09-19T13:09:44Z</time>
      </trkpt>
      <trkpt lat="45.80635" lon="3.75119">
        <ele>772</ele>
        <time>2017-09-19T13:10:03Z</time>
      </trkpt>
      <trkpt lat="45.80628" lon="3.75137">
        <ele>771</ele>
        <time>2017-09-19T13:10:12Z</time>
      </trkpt>
      <trkpt lat="45.80623" lon="3.75156">
        <ele>769</ele>
        <time>2017-09-19T13:10:21Z</time>
      </trkpt>
      <trkpt lat="45.80617" lon="3.75174">
        <ele>769</ele>
        <time>2017-09-19T13:10:30Z</time>
      </trkpt>
      <trkpt lat="45.80612" lon="3.75195">
        <ele>769</ele>
        <time>2017-09-19T13:10:39Z</time>
      </trkpt>
      <trkpt lat="45.80604" lon="3.75209">
        <ele>770</ele>
        <time>2017-09-19T13:10:47Z</time>
      </trkpt>
      <trkpt lat="45.80598" lon="3.75221">
        <ele>770</ele>
        <time>2017-09-19T13:10:54Z</time>
      </trkpt>
      <trkpt lat="45.80582" lon="3.7525">
        <ele>771</ele>
        <time>2017-09-19T13:11:12Z</time>
      </trkpt>
      <trkpt lat="45.80575" lon="3.75261">
        <ele>772</ele>
        <time>2017-09-19T13:11:19Z</time>
      </trkpt>
      <trkpt lat="45.80568" lon="3.75276">
        <ele>773</ele>
        <time>2017-09-19T13:11:27Z</time>
      </trkpt>
      <trkpt lat="45.80562" lon="3.75286">
        <ele>773</ele>
        <time>2017-09-19T13:11:33Z</time>
      </trkpt>
      <trkpt lat="45.80553" lon="3.75299">
        <ele>773</ele>
        <time>2017-09-19T13:11:41Z</time>
      </trkpt>
      <trkpt lat="45.80545" lon="3.75315">
        <ele>773</ele>
        <time>2017-09-19T13:11:50Z</time>
      </trkpt>
      <trkpt lat="45.80538" lon="3.75335">
        <ele>772</ele>
        <time>2017-09-19T13:12:01Z</time>
      </trkpt>
      <trkpt lat="45.80537" lon="3.75337">
        <ele>772</ele>
        <time>2017-09-19T13:12:07Z</time>
      </trkpt>
      <trkpt lat="45.80533" lon="3.75344">
        <ele>771</ele>
        <time>2017-09-19T13:12:12Z</time>
      </trkpt>
      <trkpt lat="45.80529" lon="3.75352">
        <ele>770</ele>
        <time>2017-09-19T13:12:18Z</time>
      </trkpt>
      <trkpt lat="45.80524" lon="3.75365">
        <ele>769</ele>
        <time>2017-09-19T13:12:26Z</time>
      </trkpt>
      <trkpt lat="45.80521" lon="3.75374">
        <ele>768</ele>
        <time>2017-09-19T13:12:32Z</time>
      </trkpt>
      <trkpt lat="45.80521" lon="3.75376">
        <ele>768</ele>
        <time>2017-09-19T13:12:38Z</time>
      </trkpt>
      <trkpt lat="45.80526" lon="3.75375">
        <ele>768</ele>
        <time>2017-09-19T13:13:35Z</time>
      </trkpt>
      <trkpt lat="45.80525" lon="3.75375">
        <ele>768</ele>
        <time>2017-09-19T13:13:41Z</time>
      </trkpt>
      <trkpt lat="45.80523" lon="3.75377">
        <ele>768</ele>
        <time>2017-09-19T13:15:56Z</time>
      </trkpt>
      <trkpt lat="45.80523" lon="3.75383">
        <ele>768</ele>
        <time>2017-09-19T13:16:00Z</time>
      </trkpt>
      <trkpt lat="45.8052" lon="3.75396">
        <ele>767</ele>
        <time>2017-09-19T13:16:07Z</time>
      </trkpt>
      <trkpt lat="45.80517" lon="3.75408">
        <ele>765</ele>
        <time>2017-09-19T13:16:14Z</time>
      </trkpt>
      <trkpt lat="45.80516" lon="3.75421">
        <ele>764</ele>
        <time>2017-09-19T13:16:21Z</time>
      </trkpt>
      <trkpt lat="45.80516" lon="3.75425">
        <ele>763</ele>
        <time>2017-09-19T13:16:23Z</time>
      </trkpt>
      <trkpt lat="45.80515" lon="3.75437">
        <ele>762</ele>
        <time>2017-09-19T13:16:29Z</time>
      </trkpt>
      <trkpt lat="45.80511" lon="3.75449">
        <ele>760</ele>
        <time>2017-09-19T13:16:36Z</time>
      </trkpt>
      <trkpt lat="45.80509" lon="3.75451">
        <ele>760</ele>
        <time>2017-09-19T13:16:40Z</time>
      </trkpt>
      <trkpt lat="45.80508" lon="3.7545">
        <ele>760</ele>
        <time>2017-09-19T13:16:46Z</time>
      </trkpt>
      <trkpt lat="45.80507" lon="3.75451">
        <ele>760</ele>
        <time>2017-09-19T13:16:57Z</time>
      </trkpt>
      <trkpt lat="45.80506" lon="3.75449">
        <ele>760</ele>
        <time>2017-09-19T13:17:37Z</time>
      </trkpt>
      <trkpt lat="45.80504" lon="3.75449">
        <ele>760</ele>
        <time>2017-09-19T13:17:43Z</time>
      </trkpt>
      <trkpt lat="45.80501" lon="3.75451">
        <ele>759</ele>
        <time>2017-09-19T13:18:55Z</time>
      </trkpt>
      <trkpt lat="45.80503" lon="3.75452">
        <ele>759</ele>
        <time>2017-09-19T13:18:56Z</time>
      </trkpt>
      <trkpt lat="45.80503" lon="3.75451">
        <ele>759</ele>
        <time>2017-09-19T13:19:15Z</time>
      </trkpt>
      <trkpt lat="45.80502" lon="3.75452">
        <ele>759</ele>
        <time>2017-09-19T13:19:22Z</time>
      </trkpt>
      <trkpt lat="45.80502" lon="3.75454">
        <ele>759</ele>
        <time>2017-09-19T13:19:33Z</time>
      </trkpt>
      <trkpt lat="45.80504" lon="3.75453">
        <ele>759</ele>
        <time>2017-09-19T13:23:57Z</time>
      </trkpt>
      <trkpt lat="45.80504" lon="3.75451">
        <ele>759</ele>
        <time>2017-09-19T13:24:10Z</time>
      </trkpt>
      <trkpt lat="45.80505" lon="3.75452">
        <ele>759</ele>
        <time>2017-09-19T13:24:38Z</time>
      </trkpt>
      <trkpt lat="45.80509" lon="3.75452">
        <ele>759</ele>
        <time>2017-09-19T13:26:36Z</time>
      </trkpt>
      <trkpt lat="45.80507" lon="3.7545">
        <ele>760</ele>
        <time>2017-09-19T13:26:52Z</time>
      </trkpt>
      <trkpt lat="45.80508" lon="3.7545">
        <ele>760</ele>
        <time>2017-09-19T13:27:00Z</time>
      </trkpt>
      <trkpt lat="45.80508" lon="3.7545">
        <ele>760</ele>
        <time>2017-09-19T13:27:47Z</time>
      </trkpt>
      <trkpt lat="45.80505" lon="3.7545">
        <ele>760</ele>
        <time>2017-09-19T13:30:10Z</time>
      </trkpt>
      <trkpt lat="45.80501" lon="3.75452">
        <ele>759</ele>
        <time>2017-09-19T13:30:18Z</time>
      </trkpt>
      <trkpt lat="45.80496" lon="3.75456">
        <ele>759</ele>
        <time>2017-09-19T13:30:45Z</time>
      </trkpt>
      <trkpt lat="45.80494" lon="3.75458">
        <ele>758</ele>
        <time>2017-09-19T13:30:48Z</time>
      </trkpt>
      <trkpt lat="45.80492" lon="3.7546">
        <ele>758</ele>
        <time>2017-09-19T13:30:56Z</time>
      </trkpt>
      <trkpt lat="45.80487" lon="3.75469">
        <ele>758</ele>
        <time>2017-09-19T13:31:04Z</time>
      </trkpt>
      <trkpt lat="45.80483" lon="3.75478">
        <ele>757</ele>
        <time>2017-09-19T13:31:10Z</time>
      </trkpt>
      <trkpt lat="45.80478" lon="3.75487">
        <ele>757</ele>
        <time>2017-09-19T13:31:20Z</time>
      </trkpt>
      <trkpt lat="45.80476" lon="3.75487">
        <ele>757</ele>
        <time>2017-09-19T13:31:25Z</time>
      </trkpt>
      <trkpt lat="45.80478" lon="3.75484">
        <ele>757</ele>
        <time>2017-09-19T13:31:30Z</time>
      </trkpt>
      <trkpt lat="45.80477" lon="3.75493">
        <ele>756</ele>
        <time>2017-09-19T13:31:40Z</time>
      </trkpt>
      <trkpt lat="45.80477" lon="3.75504">
        <ele>756</ele>
        <time>2017-09-19T13:31:45Z</time>
      </trkpt>
      <trkpt lat="45.80475" lon="3.7552">
        <ele>755</ele>
        <time>2017-09-19T13:31:53Z</time>
      </trkpt>
      <trkpt lat="45.80474" lon="3.7554">
        <ele>752</ele>
        <time>2017-09-19T13:32:02Z</time>
      </trkpt>
      <trkpt lat="45.80471" lon="3.75554">
        <ele>751</ele>
        <time>2017-09-19T13:32:10Z</time>
      </trkpt>
      <trkpt lat="45.80467" lon="3.7557">
        <ele>750</ele>
        <time>2017-09-19T13:32:19Z</time>
      </trkpt>
      <trkpt lat="45.80462" lon="3.75583">
        <ele>748</ele>
        <time>2017-09-19T13:32:25Z</time>
      </trkpt>
      <trkpt lat="45.80457" lon="3.75599">
        <ele>747</ele>
        <time>2017-09-19T13:32:34Z</time>
      </trkpt>
      <trkpt lat="45.80449" lon="3.7562">
        <ele>745</ele>
        <time>2017-09-19T13:32:45Z</time>
      </trkpt>
      <trkpt lat="45.80443" lon="3.75654">
        <ele>742</ele>
        <time>2017-09-19T13:33:01Z</time>
      </trkpt>
      <trkpt lat="45.80443" lon="3.75671">
        <ele>740</ele>
        <time>2017-09-19T13:33:09Z</time>
      </trkpt>
      <trkpt lat="45.80446" lon="3.75689">
        <ele>738</ele>
        <time>2017-09-19T13:33:18Z</time>
      </trkpt>
      <trkpt lat="45.80448" lon="3.75702">
        <ele>736</ele>
        <time>2017-09-19T13:33:25Z</time>
      </trkpt>
      <trkpt lat="45.80452" lon="3.75715">
        <ele>735</ele>
        <time>2017-09-19T13:33:30Z</time>
      </trkpt>
      <trkpt lat="45.80455" lon="3.75741">
        <ele>732</ele>
        <time>2017-09-19T13:33:42Z</time>
      </trkpt>
      <trkpt lat="45.80459" lon="3.75766">
        <ele>729</ele>
        <time>2017-09-19T13:33:52Z</time>
      </trkpt>
      <trkpt lat="45.80459" lon="3.75815">
        <ele>726</ele>
        <time>2017-09-19T13:34:13Z</time>
      </trkpt>
      <trkpt lat="45.80456" lon="3.7583">
        <ele>725</ele>
        <time>2017-09-19T13:34:20Z</time>
      </trkpt>
      <trkpt lat="45.80458" lon="3.75843">
        <ele>725</ele>
        <time>2017-09-19T13:34:27Z</time>
      </trkpt>
      <trkpt lat="45.80458" lon="3.75844">
        <ele>724</ele>
        <time>2017-09-19T13:34:28Z</time>
      </trkpt>
      <trkpt lat="45.80459" lon="3.75853">
        <ele>724</ele>
        <time>2017-09-19T13:34:34Z</time>
      </trkpt>
      <trkpt lat="45.80456" lon="3.75865">
        <ele>723</ele>
        <time>2017-09-19T13:34:41Z</time>
      </trkpt>
      <trkpt lat="45.80455" lon="3.7588">
        <ele>722</ele>
        <time>2017-09-19T13:34:48Z</time>
      </trkpt>
      <trkpt lat="45.80455" lon="3.75884">
        <ele>722</ele>
        <time>2017-09-19T13:34:50Z</time>
      </trkpt>
      <trkpt lat="45.80449" lon="3.75897">
        <ele>721</ele>
        <time>2017-09-19T13:34:58Z</time>
      </trkpt>
      <trkpt lat="45.80446" lon="3.75906">
        <ele>721</ele>
        <time>2017-09-19T13:35:04Z</time>
      </trkpt>
      <trkpt lat="45.80446" lon="3.75906">
        <ele>721</ele>
        <time>2017-09-19T13:35:05Z</time>
      </trkpt>
      <trkpt lat="45.80442" lon="3.75917">
        <ele>720</ele>
        <time>2017-09-19T13:35:11Z</time>
      </trkpt>
      <trkpt lat="45.80437" lon="3.75934">
        <ele>719</ele>
        <time>2017-09-19T13:35:20Z</time>
      </trkpt>
      <trkpt lat="45.80433" lon="3.75946">
        <ele>719</ele>
        <time>2017-09-19T13:35:27Z</time>
      </trkpt>
      <trkpt lat="45.80428" lon="3.75959">
        <ele>718</ele>
        <time>2017-09-19T13:35:33Z</time>
      </trkpt>
      <trkpt lat="45.80427" lon="3.75964">
        <ele>718</ele>
        <time>2017-09-19T13:35:36Z</time>
      </trkpt>
      <trkpt lat="45.80426" lon="3.75974">
        <ele>717</ele>
        <time>2017-09-19T13:35:41Z</time>
      </trkpt>
      <trkpt lat="45.80425" lon="3.75977">
        <ele>717</ele>
        <time>2017-09-19T13:35:43Z</time>
      </trkpt>
      <trkpt lat="45.80424" lon="3.75984">
        <ele>717</ele>
        <time>2017-09-19T13:35:47Z</time>
      </trkpt>
      <trkpt lat="45.80425" lon="3.76">
        <ele>716</ele>
        <time>2017-09-19T13:35:55Z</time>
      </trkpt>
      <trkpt lat="45.80427" lon="3.76008">
        <ele>715</ele>
        <time>2017-09-19T13:36:00Z</time>
      </trkpt>
      <trkpt lat="45.8043" lon="3.76032">
        <ele>713</ele>
        <time>2017-09-19T13:36:11Z</time>
      </trkpt>
      <trkpt lat="45.80431" lon="3.76048">
        <ele>712</ele>
        <time>2017-09-19T13:36:18Z</time>
      </trkpt>
      <trkpt lat="45.80431" lon="3.76051">
        <ele>711</ele>
        <time>2017-09-19T13:36:19Z</time>
      </trkpt>
      <trkpt lat="45.80433" lon="3.76059">
        <ele>710</ele>
        <time>2017-09-19T13:36:23Z</time>
      </trkpt>
      <trkpt lat="45.80438" lon="3.76069">
        <ele>709</ele>
        <time>2017-09-19T13:36:29Z</time>
      </trkpt>
      <trkpt lat="45.80448" lon="3.76077">
        <ele>709</ele>
        <time>2017-09-19T13:36:38Z</time>
      </trkpt>
      <trkpt lat="45.8046" lon="3.76084">
        <ele>708</ele>
        <time>2017-09-19T13:36:46Z</time>
      </trkpt>
      <trkpt lat="45.80472" lon="3.76087">
        <ele>707</ele>
        <time>2017-09-19T13:36:54Z</time>
      </trkpt>
      <trkpt lat="45.80485" lon="3.76088">
        <ele>707</ele>
        <time>2017-09-19T13:37:03Z</time>
      </trkpt>
      <trkpt lat="45.80495" lon="3.76093">
        <ele>706</ele>
        <time>2017-09-19T13:37:10Z</time>
      </trkpt>
      <trkpt lat="45.80506" lon="3.76096">
        <ele>705</ele>
        <time>2017-09-19T13:37:18Z</time>
      </trkpt>
      <trkpt lat="45.80518" lon="3.76103">
        <ele>704</ele>
        <time>2017-09-19T13:37:26Z</time>
      </trkpt>
      <trkpt lat="45.80527" lon="3.76114">
        <ele>703</ele>
        <time>2017-09-19T13:37:34Z</time>
      </trkpt>
      <trkpt lat="45.80532" lon="3.76131">
        <ele>702</ele>
        <time>2017-09-19T13:37:43Z</time>
      </trkpt>
      <trkpt lat="45.80538" lon="3.76152">
        <ele>701</ele>
        <time>2017-09-19T13:37:53Z</time>
      </trkpt>
      <trkpt lat="45.80542" lon="3.76169">
        <ele>700</ele>
        <time>2017-09-19T13:38:01Z</time>
      </trkpt>
      <trkpt lat="45.80544" lon="3.76173">
        <ele>700</ele>
        <time>2017-09-19T13:38:08Z</time>
      </trkpt>
      <trkpt lat="45.80547" lon="3.76184">
        <ele>699</ele>
        <time>2017-09-19T13:38:14Z</time>
      </trkpt>
      <trkpt lat="45.80548" lon="3.76192">
        <ele>699</ele>
        <time>2017-09-19T13:38:18Z</time>
      </trkpt>
      <trkpt lat="45.80549" lon="3.7621">
        <ele>698</ele>
        <time>2017-09-19T13:38:26Z</time>
      </trkpt>
      <trkpt lat="45.80553" lon="3.76224">
        <ele>698</ele>
        <time>2017-09-19T13:38:33Z</time>
      </trkpt>
      <trkpt lat="45.80561" lon="3.7624">
        <ele>698</ele>
        <time>2017-09-19T13:38:42Z</time>
      </trkpt>
      <trkpt lat="45.80571" lon="3.7625">
        <ele>698</ele>
        <time>2017-09-19T13:38:50Z</time>
      </trkpt>
      <trkpt lat="45.80581" lon="3.76259">
        <ele>698</ele>
        <time>2017-09-19T13:38:59Z</time>
      </trkpt>
      <trkpt lat="45.80592" lon="3.76268">
        <ele>699</ele>
        <time>2017-09-19T13:39:07Z</time>
      </trkpt>
      <trkpt lat="45.80603" lon="3.76272">
        <ele>699</ele>
        <time>2017-09-19T13:39:15Z</time>
      </trkpt>
      <trkpt lat="45.80614" lon="3.76275">
        <ele>699</ele>
        <time>2017-09-19T13:39:22Z</time>
      </trkpt>
      <trkpt lat="45.80625" lon="3.76284">
        <ele>699</ele>
        <time>2017-09-19T13:39:31Z</time>
      </trkpt>
      <trkpt lat="45.80636" lon="3.76292">
        <ele>700</ele>
        <time>2017-09-19T13:39:40Z</time>
      </trkpt>
      <trkpt lat="45.80645" lon="3.76298">
        <ele>700</ele>
        <time>2017-09-19T13:39:47Z</time>
      </trkpt>
      <trkpt lat="45.80664" lon="3.76332">
        <ele>701</ele>
        <time>2017-09-19T13:40:09Z</time>
      </trkpt>
      <trkpt lat="45.80678" lon="3.76348">
        <ele>701</ele>
        <time>2017-09-19T13:40:21Z</time>
      </trkpt>
      <trkpt lat="45.8069" lon="3.76363">
        <ele>702</ele>
        <time>2017-09-19T13:40:32Z</time>
      </trkpt>
      <trkpt lat="45.80701" lon="3.76379">
        <ele>703</ele>
        <time>2017-09-19T13:40:43Z</time>
      </trkpt>
      <trkpt lat="45.80707" lon="3.76385">
        <ele>703</ele>
        <time>2017-09-19T13:40:48Z</time>
      </trkpt>
      <trkpt lat="45.8072" lon="3.764">
        <ele>704</ele>
        <time>2017-09-19T13:40:59Z</time>
      </trkpt>
      <trkpt lat="45.80726" lon="3.7641">
        <ele>705</ele>
        <time>2017-09-19T13:41:05Z</time>
      </trkpt>
      <trkpt lat="45.8074" lon="3.76423">
        <ele>706</ele>
        <time>2017-09-19T13:41:16Z</time>
      </trkpt>
      <trkpt lat="45.80753" lon="3.76432">
        <ele>707</ele>
        <time>2017-09-19T13:41:25Z</time>
      </trkpt>
      <trkpt lat="45.80764" lon="3.76436">
        <ele>708</ele>
        <time>2017-09-19T13:41:33Z</time>
      </trkpt>
      <trkpt lat="45.80778" lon="3.76441">
        <ele>708</ele>
        <time>2017-09-19T13:41:43Z</time>
      </trkpt>
      <trkpt lat="45.80794" lon="3.76445">
        <ele>709</ele>
        <time>2017-09-19T13:41:54Z</time>
      </trkpt>
      <trkpt lat="45.80802" lon="3.76447">
        <ele>710</ele>
        <time>2017-09-19T13:42:00Z</time>
      </trkpt>
      <trkpt lat="45.80818" lon="3.7645">
        <ele>711</ele>
        <time>2017-09-19T13:42:11Z</time>
      </trkpt>
      <trkpt lat="45.80834" lon="3.76454">
        <ele>711</ele>
        <time>2017-09-19T13:42:22Z</time>
      </trkpt>
      <trkpt lat="45.80839" lon="3.76456">
        <ele>712</ele>
        <time>2017-09-19T13:42:26Z</time>
      </trkpt>
      <trkpt lat="45.80849" lon="3.76459">
        <ele>712</ele>
        <time>2017-09-19T13:42:33Z</time>
      </trkpt>
      <trkpt lat="45.80865" lon="3.76462">
        <ele>713</ele>
        <time>2017-09-19T13:42:44Z</time>
      </trkpt>
      <trkpt lat="45.80878" lon="3.76464">
        <ele>713</ele>
        <time>2017-09-19T13:42:53Z</time>
      </trkpt>
      <trkpt lat="45.80894" lon="3.76466">
        <ele>714</ele>
        <time>2017-09-19T13:43:03Z</time>
      </trkpt>
      <trkpt lat="45.80907" lon="3.76468">
        <ele>715</ele>
        <time>2017-09-19T13:43:12Z</time>
      </trkpt>
      <trkpt lat="45.80926" lon="3.7647">
        <ele>716</ele>
        <time>2017-09-19T13:43:24Z</time>
      </trkpt>
      <trkpt lat="45.80936" lon="3.76472">
        <ele>717</ele>
        <time>2017-09-19T13:43:31Z</time>
      </trkpt>
      <trkpt lat="45.80949" lon="3.76468">
        <ele>717</ele>
        <time>2017-09-19T13:43:40Z</time>
      </trkpt>
      <trkpt lat="45.80964" lon="3.76458">
        <ele>717</ele>
        <time>2017-09-19T13:43:50Z</time>
      </trkpt>
      <trkpt lat="45.80981" lon="3.76447">
        <ele>718</ele>
        <time>2017-09-19T13:44:02Z</time>
      </trkpt>
      <trkpt lat="45.80999" lon="3.76437">
        <ele>718</ele>
        <time>2017-09-19T13:44:14Z</time>
      </trkpt>
      <trkpt lat="45.81012" lon="3.76429">
        <ele>718</ele>
        <time>2017-09-19T13:44:23Z</time>
      </trkpt>
      <trkpt lat="45.81026" lon="3.76421">
        <ele>718</ele>
        <time>2017-09-19T13:44:33Z</time>
      </trkpt>
      <trkpt lat="45.81044" lon="3.76412">
        <ele>718</ele>
        <time>2017-09-19T13:44:45Z</time>
      </trkpt>
      <trkpt lat="45.81058" lon="3.76404">
        <ele>718</ele>
        <time>2017-09-19T13:44:55Z</time>
      </trkpt>
      <trkpt lat="45.81073" lon="3.76396">
        <ele>717</ele>
        <time>2017-09-19T13:45:05Z</time>
      </trkpt>
      <trkpt lat="45.81086" lon="3.76387">
        <ele>717</ele>
        <time>2017-09-19T13:45:14Z</time>
      </trkpt>
      <trkpt lat="45.81094" lon="3.7638">
        <ele>717</ele>
        <time>2017-09-19T13:45:20Z</time>
      </trkpt>
      <trkpt lat="45.81104" lon="3.76372">
        <ele>717</ele>
        <time>2017-09-19T13:45:27Z</time>
      </trkpt>
      <trkpt lat="45.81116" lon="3.7636">
        <ele>717</ele>
        <time>2017-09-19T13:45:37Z</time>
      </trkpt>
      <trkpt lat="45.81126" lon="3.76348">
        <ele>717</ele>
        <time>2017-09-19T13:45:45Z</time>
      </trkpt>
      <trkpt lat="45.81137" lon="3.76336">
        <ele>717</ele>
        <time>2017-09-19T13:45:54Z</time>
      </trkpt>
      <trkpt lat="45.81144" lon="3.7633">
        <ele>717</ele>
        <time>2017-09-19T13:45:59Z</time>
      </trkpt>
      <trkpt lat="45.8116" lon="3.76317">
        <ele>718</ele>
        <time>2017-09-19T13:46:12Z</time>
      </trkpt>
      <trkpt lat="45.81174" lon="3.76306">
        <ele>718</ele>
        <time>2017-09-19T13:46:22Z</time>
      </trkpt>
      <trkpt lat="45.81191" lon="3.76295">
        <ele>718</ele>
        <time>2017-09-19T13:46:34Z</time>
      </trkpt>
      <trkpt lat="45.81207" lon="3.76284">
        <ele>718</ele>
        <time>2017-09-19T13:46:46Z</time>
      </trkpt>
      <trkpt lat="45.81232" lon="3.76269">
        <ele>718</ele>
        <time>2017-09-19T13:47:04Z</time>
      </trkpt>
      <trkpt lat="45.81249" lon="3.76259">
        <ele>718</ele>
        <time>2017-09-19T13:47:16Z</time>
      </trkpt>
      <trkpt lat="45.81267" lon="3.76248">
        <ele>718</ele>
        <time>2017-09-19T13:47:29Z</time>
      </trkpt>
      <trkpt lat="45.81284" lon="3.76237">
        <ele>718</ele>
        <time>2017-09-19T13:47:42Z</time>
      </trkpt>
      <trkpt lat="45.81294" lon="3.7623">
        <ele>718</ele>
        <time>2017-09-19T13:47:49Z</time>
      </trkpt>
      <trkpt lat="45.81308" lon="3.76221">
        <ele>718</ele>
        <time>2017-09-19T13:48:00Z</time>
      </trkpt>
      <trkpt lat="45.81324" lon="3.7621">
        <ele>718</ele>
        <time>2017-09-19T13:48:12Z</time>
      </trkpt>
      <trkpt lat="45.81339" lon="3.76196">
        <ele>719</ele>
        <time>2017-09-19T13:48:24Z</time>
      </trkpt>
      <trkpt lat="45.81351" lon="3.76186">
        <ele>719</ele>
        <time>2017-09-19T13:48:33Z</time>
      </trkpt>
      <trkpt lat="45.81363" lon="3.76174">
        <ele>719</ele>
        <time>2017-09-19T13:48:43Z</time>
      </trkpt>
      <trkpt lat="45.81377" lon="3.76158">
        <ele>720</ele>
        <time>2017-09-19T13:48:55Z</time>
      </trkpt>
      <trkpt lat="45.81394" lon="3.76135">
        <ele>721</ele>
        <time>2017-09-19T13:49:11Z</time>
      </trkpt>
      <trkpt lat="45.81402" lon="3.76122">
        <ele>721</ele>
        <time>2017-09-19T13:49:19Z</time>
      </trkpt>
      <trkpt lat="45.81413" lon="3.761">
        <ele>721</ele>
        <time>2017-09-19T13:49:32Z</time>
      </trkpt>
      <trkpt lat="45.81423" lon="3.76082">
        <ele>721</ele>
        <time>2017-09-19T13:49:43Z</time>
      </trkpt>
      <trkpt lat="45.81434" lon="3.76072">
        <ele>721</ele>
        <time>2017-09-19T13:49:51Z</time>
      </trkpt>
      <trkpt lat="45.8145" lon="3.76054">
        <ele>721</ele>
        <time>2017-09-19T13:50:05Z</time>
      </trkpt>
      <trkpt lat="45.81459" lon="3.76039">
        <ele>721</ele>
        <time>2017-09-19T13:50:15Z</time>
      </trkpt>
      <trkpt lat="45.8147" lon="3.76019">
        <ele>722</ele>
        <time>2017-09-19T13:50:27Z</time>
      </trkpt>
      <trkpt lat="45.81477" lon="3.76002">
        <ele>722</ele>
        <time>2017-09-19T13:50:37Z</time>
      </trkpt>
      <trkpt lat="45.81484" lon="3.75987">
        <ele>723</ele>
        <time>2017-09-19T13:50:47Z</time>
      </trkpt>
      <trkpt lat="45.81501" lon="3.75961">
        <ele>725</ele>
        <time>2017-09-19T13:51:04Z</time>
      </trkpt>
      <trkpt lat="45.81511" lon="3.75948">
        <ele>726</ele>
        <time>2017-09-19T13:51:14Z</time>
      </trkpt>
      <trkpt lat="45.81516" lon="3.75946">
        <ele>727</ele>
        <time>2017-09-19T13:51:18Z</time>
      </trkpt>
      <trkpt lat="45.81522" lon="3.75947">
        <ele>727</ele>
        <time>2017-09-19T13:51:23Z</time>
      </trkpt>
      <trkpt lat="45.81533" lon="3.75946">
        <ele>728</ele>
        <time>2017-09-19T13:51:31Z</time>
      </trkpt>
      <trkpt lat="45.81543" lon="3.75941">
        <ele>729</ele>
        <time>2017-09-19T13:51:39Z</time>
      </trkpt>
      <trkpt lat="45.8156" lon="3.75937">
        <ele>730</ele>
        <time>2017-09-19T13:51:50Z</time>
      </trkpt>
      <trkpt lat="45.81578" lon="3.75931">
        <ele>732</ele>
        <time>2017-09-19T13:52:03Z</time>
      </trkpt>
      <trkpt lat="45.81594" lon="3.75927">
        <ele>734</ele>
        <time>2017-09-19T13:52:13Z</time>
      </trkpt>
      <trkpt lat="45.81606" lon="3.75923">
        <ele>735</ele>
        <time>2017-09-19T13:52:21Z</time>
      </trkpt>
      <trkpt lat="45.81614" lon="3.75922">
        <ele>736</ele>
        <time>2017-09-19T13:52:27Z</time>
      </trkpt>
      <trkpt lat="45.81619" lon="3.75922">
        <ele>736</ele>
        <time>2017-09-19T13:52:30Z</time>
      </trkpt>
      <trkpt lat="45.8163" lon="3.75923">
        <ele>737</ele>
        <time>2017-09-19T13:52:38Z</time>
      </trkpt>
      <trkpt lat="45.81644" lon="3.75918">
        <ele>738</ele>
        <time>2017-09-19T13:52:48Z</time>
      </trkpt>
      <trkpt lat="45.81657" lon="3.75912">
        <ele>739</ele>
        <time>2017-09-19T13:52:57Z</time>
      </trkpt>
      <trkpt lat="45.81668" lon="3.75908">
        <ele>740</ele>
        <time>2017-09-19T13:53:05Z</time>
      </trkpt>
      <trkpt lat="45.81681" lon="3.75903">
        <ele>741</ele>
        <time>2017-09-19T13:53:15Z</time>
      </trkpt>
      <trkpt lat="45.81692" lon="3.75899">
        <ele>741</ele>
        <time>2017-09-19T13:53:23Z</time>
      </trkpt>
      <trkpt lat="45.81703" lon="3.75901">
        <ele>741</ele>
        <time>2017-09-19T13:53:32Z</time>
      </trkpt>
      <trkpt lat="45.81717" lon="3.75909">
        <ele>741</ele>
        <time>2017-09-19T13:53:43Z</time>
      </trkpt>
      <trkpt lat="45.81746" lon="3.75914">
        <ele>742</ele>
        <time>2017-09-19T13:54:03Z</time>
      </trkpt>
      <trkpt lat="45.81762" lon="3.75913">
        <ele>743</ele>
        <time>2017-09-19T13:54:13Z</time>
      </trkpt>
      <trkpt lat="45.81776" lon="3.75912">
        <ele>743</ele>
        <time>2017-09-19T13:54:22Z</time>
      </trkpt>
      <trkpt lat="45.8179" lon="3.75912">
        <ele>744</ele>
        <time>2017-09-19T13:54:31Z</time>
      </trkpt>
      <trkpt lat="45.81806" lon="3.75913">
        <ele>744</ele>
        <time>2017-09-19T13:54:42Z</time>
      </trkpt>
      <trkpt lat="45.81851" lon="3.75901">
        <ele>746</ele>
        <time>2017-09-19T13:55:14Z</time>
      </trkpt>
      <trkpt lat="45.81861" lon="3.75897">
        <ele>746</ele>
        <time>2017-09-19T13:55:22Z</time>
      </trkpt>
      <trkpt lat="45.81876" lon="3.75891">
        <ele>746</ele>
        <time>2017-09-19T13:55:33Z</time>
      </trkpt>
      <trkpt lat="45.81878" lon="3.7589">
        <ele>746</ele>
        <time>2017-09-19T13:55:34Z</time>
      </trkpt>
      <trkpt lat="45.81888" lon="3.75895">
        <ele>747</ele>
        <time>2017-09-19T13:55:40Z</time>
      </trkpt>
      <trkpt lat="45.8189" lon="3.75895">
        <ele>747</ele>
        <time>2017-09-19T13:55:41Z</time>
      </trkpt>
      <trkpt lat="45.81901" lon="3.75901">
        <ele>747</ele>
        <time>2017-09-19T13:55:48Z</time>
      </trkpt>
      <trkpt lat="45.81914" lon="3.75906">
        <ele>747</ele>
        <time>2017-09-19T13:55:57Z</time>
      </trkpt>
      <trkpt lat="45.81925" lon="3.75913">
        <ele>747</ele>
        <time>2017-09-19T13:56:05Z</time>
      </trkpt>
      <trkpt lat="45.81939" lon="3.75922">
        <ele>747</ele>
        <time>2017-09-19T13:56:15Z</time>
      </trkpt>
      <trkpt lat="45.81952" lon="3.7593">
        <ele>747</ele>
        <time>2017-09-19T13:56:24Z</time>
      </trkpt>
      <trkpt lat="45.81965" lon="3.75935">
        <ele>747</ele>
        <time>2017-09-19T13:56:32Z</time>
      </trkpt>
      <trkpt lat="45.8198" lon="3.75942">
        <ele>746</ele>
        <time>2017-09-19T13:56:42Z</time>
      </trkpt>
      <trkpt lat="45.81992" lon="3.75947">
        <ele>746</ele>
        <time>2017-09-19T13:56:50Z</time>
      </trkpt>
      <trkpt lat="45.82019" lon="3.75952">
        <ele>745</ele>
        <time>2017-09-19T13:57:07Z</time>
      </trkpt>
      <trkpt lat="45.82044" lon="3.75948">
        <ele>745</ele>
        <time>2017-09-19T13:57:24Z</time>
      </trkpt>
      <trkpt lat="45.82058" lon="3.75949">
        <ele>745</ele>
        <time>2017-09-19T13:57:33Z</time>
      </trkpt>
      <trkpt lat="45.8207" lon="3.75949">
        <ele>745</ele>
        <time>2017-09-19T13:57:40Z</time>
      </trkpt>
      <trkpt lat="45.82073" lon="3.75951">
        <ele>745</ele>
        <time>2017-09-19T13:57:42Z</time>
      </trkpt>
      <trkpt lat="45.82086" lon="3.75951">
        <ele>745</ele>
        <time>2017-09-19T13:57:50Z</time>
      </trkpt>
      <trkpt lat="45.82099" lon="3.7595">
        <ele>745</ele>
        <time>2017-09-19T13:57:58Z</time>
      </trkpt>
      <trkpt lat="45.82114" lon="3.75946">
        <ele>744</ele>
        <time>2017-09-19T13:58:08Z</time>
      </trkpt>
      <trkpt lat="45.82129" lon="3.75944">
        <ele>744</ele>
        <time>2017-09-19T13:58:18Z</time>
      </trkpt>
      <trkpt lat="45.82142" lon="3.75946">
        <ele>744</ele>
        <time>2017-09-19T13:58:27Z</time>
      </trkpt>
      <trkpt lat="45.82142" lon="3.75947">
        <ele>744</ele>
        <time>2017-09-19T13:58:34Z</time>
      </trkpt>
      <trkpt lat="45.8215" lon="3.75948">
        <ele>744</ele>
        <time>2017-09-19T13:58:40Z</time>
      </trkpt>
      <trkpt lat="45.82158" lon="3.75949">
        <ele>744</ele>
        <time>2017-09-19T13:58:45Z</time>
      </trkpt>
      <trkpt lat="45.82182" lon="3.75957">
        <ele>743</ele>
        <time>2017-09-19T13:59:02Z</time>
      </trkpt>
      <trkpt lat="45.82196" lon="3.7597">
        <ele>743</ele>
        <time>2017-09-19T13:59:12Z</time>
      </trkpt>
      <trkpt lat="45.82204" lon="3.75984">
        <ele>744</ele>
        <time>2017-09-19T13:59:20Z</time>
      </trkpt>
      <trkpt lat="45.8221" lon="3.75996">
        <ele>745</ele>
        <time>2017-09-19T13:59:27Z</time>
      </trkpt>
      <trkpt lat="45.82221" lon="3.76014">
        <ele>745</ele>
        <time>2017-09-19T13:59:38Z</time>
      </trkpt>
      <trkpt lat="45.8223" lon="3.76027">
        <ele>746</ele>
        <time>2017-09-19T13:59:46Z</time>
      </trkpt>
      <trkpt lat="45.82241" lon="3.76042">
        <ele>746</ele>
        <time>2017-09-19T13:59:56Z</time>
      </trkpt>
      <trkpt lat="45.82254" lon="3.76064">
        <ele>746</ele>
        <time>2017-09-19T14:00:10Z</time>
      </trkpt>
      <trkpt lat="45.82266" lon="3.76081">
        <ele>746</ele>
        <time>2017-09-19T14:00:21Z</time>
      </trkpt>
      <trkpt lat="45.82277" lon="3.76095">
        <ele>746</ele>
        <time>2017-09-19T14:00:31Z</time>
      </trkpt>
      <trkpt lat="45.8229" lon="3.76111">
        <ele>747</ele>
        <time>2017-09-19T14:00:40Z</time>
      </trkpt>
      <trkpt lat="45.82301" lon="3.76134">
        <ele>747</ele>
        <time>2017-09-19T14:00:48Z</time>
      </trkpt>
      <trkpt lat="45.82312" lon="3.76158">
        <ele>748</ele>
        <time>2017-09-19T14:00:57Z</time>
      </trkpt>
      <trkpt lat="45.82321" lon="3.76177">
        <ele>749</ele>
        <time>2017-09-19T14:01:04Z</time>
      </trkpt>
      <trkpt lat="45.82332" lon="3.762">
        <ele>751</ele>
        <time>2017-09-19T14:01:11Z</time>
      </trkpt>
      <trkpt lat="45.82345" lon="3.7622">
        <ele>752</ele>
        <time>2017-09-19T14:01:18Z</time>
      </trkpt>
      <trkpt lat="45.8236" lon="3.76238">
        <ele>753</ele>
        <time>2017-09-19T14:01:25Z</time>
      </trkpt>
      <trkpt lat="45.82377" lon="3.76251">
        <ele>754</ele>
        <time>2017-09-19T14:01:33Z</time>
      </trkpt>
      <trkpt lat="45.82393" lon="3.76259">
        <ele>755</ele>
        <time>2017-09-19T14:01:40Z</time>
      </trkpt>
      <trkpt lat="45.82404" lon="3.76266">
        <ele>756</ele>
        <time>2017-09-19T14:01:46Z</time>
      </trkpt>
      <trkpt lat="45.82406" lon="3.76267">
        <ele>756</ele>
        <time>2017-09-19T14:01:47Z</time>
      </trkpt>
      <trkpt lat="45.82433" lon="3.76269">
        <ele>758</ele>
        <time>2017-09-19T14:02:04Z</time>
      </trkpt>
      <trkpt lat="45.82449" lon="3.76266">
        <ele>759</ele>
        <time>2017-09-19T14:02:15Z</time>
      </trkpt>
      <trkpt lat="45.82463" lon="3.76261">
        <ele>760</ele>
        <time>2017-09-19T14:02:25Z</time>
      </trkpt>
      <trkpt lat="45.82476" lon="3.76257">
        <ele>760</ele>
        <time>2017-09-19T14:02:34Z</time>
      </trkpt>
      <trkpt lat="45.82492" lon="3.76254">
        <ele>761</ele>
        <time>2017-09-19T14:02:45Z</time>
      </trkpt>
      <trkpt lat="45.82512" lon="3.76247">
        <ele>762</ele>
        <time>2017-09-19T14:02:58Z</time>
      </trkpt>
      <trkpt lat="45.82529" lon="3.76238">
        <ele>762</ele>
        <time>2017-09-19T14:03:10Z</time>
      </trkpt>
      <trkpt lat="45.82547" lon="3.76229">
        <ele>763</ele>
        <time>2017-09-19T14:03:22Z</time>
      </trkpt>
      <trkpt lat="45.82563" lon="3.76219">
        <ele>763</ele>
        <time>2017-09-19T14:03:34Z</time>
      </trkpt>
      <trkpt lat="45.82577" lon="3.76211">
        <ele>764</ele>
        <time>2017-09-19T14:03:44Z</time>
      </trkpt>
      <trkpt lat="45.82593" lon="3.76202">
        <ele>765</ele>
        <time>2017-09-19T14:03:55Z</time>
      </trkpt>
      <trkpt lat="45.82608" lon="3.76193">
        <ele>765</ele>
        <time>2017-09-19T14:04:06Z</time>
      </trkpt>
      <trkpt lat="45.82618" lon="3.76185">
        <ele>766</ele>
        <time>2017-09-19T14:04:13Z</time>
      </trkpt>
      <trkpt lat="45.82629" lon="3.76178">
        <ele>768</ele>
        <time>2017-09-19T14:04:19Z</time>
      </trkpt>
      <trkpt lat="45.82648" lon="3.76171">
        <ele>771</ele>
        <time>2017-09-19T14:04:27Z</time>
      </trkpt>
      <trkpt lat="45.82667" lon="3.76166">
        <ele>774</ele>
        <time>2017-09-19T14:04:34Z</time>
      </trkpt>
      <trkpt lat="45.82684" lon="3.76161">
        <ele>776</ele>
        <time>2017-09-19T14:04:41Z</time>
      </trkpt>
      <trkpt lat="45.82703" lon="3.76155">
        <ele>777</ele>
        <time>2017-09-19T14:04:48Z</time>
      </trkpt>
      <trkpt lat="45.82723" lon="3.76146">
        <ele>776</ele>
        <time>2017-09-19T14:04:55Z</time>
      </trkpt>
      <trkpt lat="45.82738" lon="3.76133">
        <ele>774</ele>
        <time>2017-09-19T14:05:02Z</time>
      </trkpt>
      <trkpt lat="45.82751" lon="3.76098">
        <ele>772</ele>
        <time>2017-09-19T14:05:15Z</time>
      </trkpt>
      <trkpt lat="45.82756" lon="3.76072">
        <ele>771</ele>
        <time>2017-09-19T14:05:22Z</time>
      </trkpt>
      <trkpt lat="45.82758" lon="3.76045">
        <ele>771</ele>
        <time>2017-09-19T14:05:29Z</time>
      </trkpt>
      <trkpt lat="45.82759" lon="3.76024">
        <ele>771</ele>
        <time>2017-09-19T14:05:36Z</time>
      </trkpt>
      <trkpt lat="45.82758" lon="3.76008">
        <ele>771</ele>
        <time>2017-09-19T14:05:42Z</time>
      </trkpt>
      <trkpt lat="45.82756" lon="3.75991">
        <ele>772</ele>
        <time>2017-09-19T14:05:49Z</time>
      </trkpt>
      <trkpt lat="45.82757" lon="3.75972">
        <ele>772</ele>
        <time>2017-09-19T14:05:57Z</time>
      </trkpt>
      <trkpt lat="45.82759" lon="3.75963">
        <ele>771</ele>
        <time>2017-09-19T14:06:02Z</time>
      </trkpt>
      <trkpt lat="45.82763" lon="3.75956">
        <ele>771</ele>
        <time>2017-09-19T14:06:07Z</time>
      </trkpt>
      <trkpt lat="45.82764" lon="3.75955">
        <ele>771</ele>
        <time>2017-09-19T14:06:08Z</time>
      </trkpt>
      <trkpt lat="45.82767" lon="3.75951">
        <ele>771</ele>
        <time>2017-09-19T14:06:10Z</time>
      </trkpt>
      <trkpt lat="45.82772" lon="3.7594">
        <ele>770</ele>
        <time>2017-09-19T14:06:16Z</time>
      </trkpt>
      <trkpt lat="45.82776" lon="3.75932">
        <ele>770</ele>
        <time>2017-09-19T14:06:21Z</time>
      </trkpt>
      <trkpt lat="45.82781" lon="3.75923">
        <ele>769</ele>
        <time>2017-09-19T14:06:26Z</time>
      </trkpt>
      <trkpt lat="45.82788" lon="3.75913">
        <ele>768</ele>
        <time>2017-09-19T14:06:31Z</time>
      </trkpt>
      <trkpt lat="45.82795" lon="3.75898">
        <ele>768</ele>
        <time>2017-09-19T14:06:38Z</time>
      </trkpt>
      <trkpt lat="45.82801" lon="3.75886">
        <ele>767</ele>
        <time>2017-09-19T14:06:44Z</time>
      </trkpt>
      <trkpt lat="45.82806" lon="3.75878">
        <ele>766</ele>
        <time>2017-09-19T14:06:48Z</time>
      </trkpt>
      <trkpt lat="45.82811" lon="3.75871">
        <ele>765</ele>
        <time>2017-09-19T14:06:52Z</time>
      </trkpt>
      <trkpt lat="45.82818" lon="3.75865">
        <ele>764</ele>
        <time>2017-09-19T14:06:57Z</time>
      </trkpt>
      <trkpt lat="45.82828" lon="3.75851">
        <ele>761</ele>
        <time>2017-09-19T14:07:07Z</time>
      </trkpt>
      <trkpt lat="45.82837" lon="3.75842">
        <ele>759</ele>
        <time>2017-09-19T14:07:13Z</time>
      </trkpt>
      <trkpt lat="45.82845" lon="3.7583">
        <ele>757</ele>
        <time>2017-09-19T14:07:20Z</time>
      </trkpt>
      <trkpt lat="45.82854" lon="3.75817">
        <ele>754</ele>
        <time>2017-09-19T14:07:28Z</time>
      </trkpt>
      <trkpt lat="45.82864" lon="3.75805">
        <ele>753</ele>
        <time>2017-09-19T14:07:36Z</time>
      </trkpt>
      <trkpt lat="45.82871" lon="3.75795">
        <ele>752</ele>
        <time>2017-09-19T14:07:43Z</time>
      </trkpt>
      <trkpt lat="45.82878" lon="3.75786">
        <ele>750</ele>
        <time>2017-09-19T14:07:49Z</time>
      </trkpt>
      <trkpt lat="45.82887" lon="3.75774">
        <ele>749</ele>
        <time>2017-09-19T14:07:57Z</time>
      </trkpt>
      <trkpt lat="45.82894" lon="3.75765">
        <ele>748</ele>
        <time>2017-09-19T14:08:03Z</time>
      </trkpt>
      <trkpt lat="45.82902" lon="3.75752">
        <ele>748</ele>
        <time>2017-09-19T14:08:10Z</time>
      </trkpt>
      <trkpt lat="45.82908" lon="3.75744">
        <ele>747</ele>
        <time>2017-09-19T14:08:15Z</time>
      </trkpt>
      <trkpt lat="45.82915" lon="3.75733">
        <ele>747</ele>
        <time>2017-09-19T14:08:21Z</time>
      </trkpt>
      <trkpt lat="45.82924" lon="3.75721">
        <ele>746</ele>
        <time>2017-09-19T14:08:29Z</time>
      </trkpt>
      <trkpt lat="45.82927" lon="3.75717">
        <ele>745</ele>
        <time>2017-09-19T14:08:32Z</time>
      </trkpt>
      <trkpt lat="45.82935" lon="3.75704">
        <ele>744</ele>
        <time>2017-09-19T14:08:40Z</time>
      </trkpt>
      <trkpt lat="45.82937" lon="3.75702">
        <ele>744</ele>
        <time>2017-09-19T14:08:45Z</time>
      </trkpt>
      <trkpt lat="45.82953" lon="3.75678">
        <ele>741</ele>
        <time>2017-09-19T14:09:07Z</time>
      </trkpt>
      <trkpt lat="45.8296" lon="3.75664">
        <ele>739</ele>
        <time>2017-09-19T14:09:15Z</time>
      </trkpt>
      <trkpt lat="45.82969" lon="3.75647">
        <ele>737</ele>
        <time>2017-09-19T14:09:25Z</time>
      </trkpt>
      <trkpt lat="45.82977" lon="3.75636">
        <ele>735</ele>
        <time>2017-09-19T14:09:33Z</time>
      </trkpt>
      <trkpt lat="45.82982" lon="3.75628">
        <ele>735</ele>
        <time>2017-09-19T14:09:39Z</time>
      </trkpt>
      <trkpt lat="45.82985" lon="3.75622">
        <ele>734</ele>
        <time>2017-09-19T14:09:44Z</time>
      </trkpt>
      <trkpt lat="45.82986" lon="3.75621">
        <ele>734</ele>
        <time>2017-09-19T14:09:55Z</time>
      </trkpt>
      <trkpt lat="45.82986" lon="3.7562">
        <ele>734</ele>
        <time>2017-09-19T14:09:56Z</time>
      </trkpt>
      <trkpt lat="45.82989" lon="3.75611">
        <ele>733</ele>
        <time>2017-09-19T14:10:02Z</time>
      </trkpt>
      <trkpt lat="45.82993" lon="3.75599">
        <ele>732</ele>
        <time>2017-09-19T14:10:10Z</time>
      </trkpt>
      <trkpt lat="45.82995" lon="3.75586">
        <ele>731</ele>
        <time>2017-09-19T14:10:18Z</time>
      </trkpt>
      <trkpt lat="45.82996" lon="3.75582">
        <ele>731</ele>
        <time>2017-09-19T14:10:21Z</time>
      </trkpt>
      <trkpt lat="45.82996" lon="3.75579">
        <ele>731</ele>
        <time>2017-09-19T14:10:23Z</time>
      </trkpt>
      <trkpt lat="45.82995" lon="3.75572">
        <ele>730</ele>
        <time>2017-09-19T14:10:28Z</time>
      </trkpt>
      <trkpt lat="45.82996" lon="3.7557">
        <ele>730</ele>
        <time>2017-09-19T14:10:30Z</time>
      </trkpt>
      <trkpt lat="45.82998" lon="3.75562">
        <ele>730</ele>
        <time>2017-09-19T14:10:36Z</time>
      </trkpt>
      <trkpt lat="45.82999" lon="3.75553">
        <ele>729</ele>
        <time>2017-09-19T14:10:40Z</time>
      </trkpt>
      <trkpt lat="45.83003" lon="3.75535">
        <ele>730</ele>
        <time>2017-09-19T14:10:48Z</time>
      </trkpt>
      <trkpt lat="45.83014" lon="3.75487">
        <ele>724</ele>
        <time>2017-09-19T14:11:06Z</time>
      </trkpt>
    </trkseg>
  </trk>
</gpx>